<?xml version="1.0" encoding="UTF-8" standalone="no" ?>
<gpx xmlns="http://www.topografix.com/GPX/1/1" xmlns:xsi="http://www.w3.org/2001/XMLSchema-instance" xsi:schemaLocation="http://www.topografix.com/GPX/1/1 http://www.topografix.com/GPX/1/1/gpx.xsd" version="1.1" creator="VisuGPX - https://www.visugpx.com">
  <metadata>
    <name>Fourdrinoy</name>
  </metadata>
  <trk>
    <name><![CDATA[Fourdrinoy_1]]></name>
    <trkseg>
      <trkpt lat="49.92019" lon="2.10556">
        <ele>102.5</ele>
        <time>2022-08-10T07:06:38Z</time>
      </trkpt>
      <trkpt lat="49.9202" lon="2.10554">
        <ele>102.4</ele>
        <time>2022-08-10T07:06:39Z</time>
      </trkpt>
      <trkpt lat="49.92021" lon="2.10553">
        <ele>102.3</ele>
        <time>2022-08-10T07:06:40Z</time>
      </trkpt>
      <trkpt lat="49.92022" lon="2.10553">
        <ele>102.3</ele>
        <time>2022-08-10T07:06:41Z</time>
      </trkpt>
      <trkpt lat="49.92022" lon="2.10552">
        <ele>102.2</ele>
        <time>2022-08-10T07:06:42Z</time>
      </trkpt>
      <trkpt lat="49.92023" lon="2.1055">
        <ele>102.1</ele>
        <time>2022-08-10T07:06:43Z</time>
      </trkpt>
      <trkpt lat="49.92024" lon="2.10548">
        <ele>102</ele>
        <time>2022-08-10T07:06:44Z</time>
      </trkpt>
      <trkpt lat="49.92025" lon="2.10547">
        <ele>102</ele>
        <time>2022-08-10T07:06:45Z</time>
      </trkpt>
      <trkpt lat="49.92026" lon="2.10545">
        <ele>101.9</ele>
        <time>2022-08-10T07:06:46Z</time>
      </trkpt>
      <trkpt lat="49.92027" lon="2.10543">
        <ele>101.8</ele>
        <time>2022-08-10T07:06:47Z</time>
      </trkpt>
      <trkpt lat="49.92029" lon="2.10539">
        <ele>101.6</ele>
        <time>2022-08-10T07:06:49Z</time>
      </trkpt>
      <trkpt lat="49.9203" lon="2.10538">
        <ele>101.5</ele>
        <time>2022-08-10T07:06:50Z</time>
      </trkpt>
      <trkpt lat="49.92031" lon="2.10535">
        <ele>101.4</ele>
        <time>2022-08-10T07:06:51Z</time>
      </trkpt>
      <trkpt lat="49.92031" lon="2.10533">
        <ele>101.3</ele>
        <time>2022-08-10T07:06:52Z</time>
      </trkpt>
      <trkpt lat="49.92032" lon="2.10531">
        <ele>101.2</ele>
        <time>2022-08-10T07:06:53Z</time>
      </trkpt>
      <trkpt lat="49.92033" lon="2.10529">
        <ele>101.1</ele>
        <time>2022-08-10T07:06:54Z</time>
      </trkpt>
      <trkpt lat="49.92035" lon="2.10527">
        <ele>101</ele>
        <time>2022-08-10T07:06:55Z</time>
      </trkpt>
      <trkpt lat="49.92036" lon="2.10526">
        <ele>100.9</ele>
        <time>2022-08-10T07:06:56Z</time>
      </trkpt>
      <trkpt lat="49.92037" lon="2.10524">
        <ele>100.8</ele>
        <time>2022-08-10T07:06:57Z</time>
      </trkpt>
      <trkpt lat="49.92038" lon="2.10523">
        <ele>100.7</ele>
        <time>2022-08-10T07:06:58Z</time>
      </trkpt>
      <trkpt lat="49.92039" lon="2.10522">
        <ele>100.7</ele>
        <time>2022-08-10T07:06:59Z</time>
      </trkpt>
      <trkpt lat="49.9204" lon="2.10519">
        <ele>100.5</ele>
        <time>2022-08-10T07:07:00Z</time>
      </trkpt>
      <trkpt lat="49.92041" lon="2.10518">
        <ele>100.5</ele>
        <time>2022-08-10T07:07:02Z</time>
      </trkpt>
      <trkpt lat="49.92042" lon="2.10517">
        <ele>100.4</ele>
        <time>2022-08-10T07:07:03Z</time>
      </trkpt>
      <trkpt lat="49.92043" lon="2.10516">
        <ele>100.3</ele>
        <time>2022-08-10T07:07:04Z</time>
      </trkpt>
      <trkpt lat="49.92043" lon="2.10515">
        <ele>100.3</ele>
        <time>2022-08-10T07:07:05Z</time>
      </trkpt>
      <trkpt lat="49.92045" lon="2.10513">
        <ele>100.2</ele>
        <time>2022-08-10T07:07:06Z</time>
      </trkpt>
      <trkpt lat="49.92046" lon="2.10512">
        <ele>100.1</ele>
        <time>2022-08-10T07:07:07Z</time>
      </trkpt>
      <trkpt lat="49.92046" lon="2.10511">
        <ele>100</ele>
        <time>2022-08-10T07:07:08Z</time>
      </trkpt>
      <trkpt lat="49.92048" lon="2.10509">
        <ele>99.9</ele>
        <time>2022-08-10T07:07:09Z</time>
      </trkpt>
      <trkpt lat="49.92048" lon="2.10508">
        <ele>99.9</ele>
        <time>2022-08-10T07:07:10Z</time>
      </trkpt>
      <trkpt lat="49.92049" lon="2.10507">
        <ele>99.8</ele>
        <time>2022-08-10T07:07:11Z</time>
      </trkpt>
      <trkpt lat="49.92051" lon="2.10504">
        <ele>99.5</ele>
        <time>2022-08-10T07:07:13Z</time>
      </trkpt>
      <trkpt lat="49.92051" lon="2.10504">
        <ele>99.4</ele>
        <time>2022-08-10T07:07:14Z</time>
      </trkpt>
      <trkpt lat="49.92052" lon="2.10503">
        <ele>99.3</ele>
        <time>2022-08-10T07:07:15Z</time>
      </trkpt>
      <trkpt lat="49.92054" lon="2.10502">
        <ele>99</ele>
        <time>2022-08-10T07:07:16Z</time>
      </trkpt>
      <trkpt lat="49.92055" lon="2.10501">
        <ele>98.9</ele>
        <time>2022-08-10T07:07:17Z</time>
      </trkpt>
      <trkpt lat="49.92056" lon="2.105">
        <ele>99</ele>
        <time>2022-08-10T07:07:18Z</time>
      </trkpt>
      <trkpt lat="49.92057" lon="2.10499">
        <ele>99.1</ele>
        <time>2022-08-10T07:07:19Z</time>
      </trkpt>
      <trkpt lat="49.92059" lon="2.10499">
        <ele>99.1</ele>
        <time>2022-08-10T07:07:20Z</time>
      </trkpt>
      <trkpt lat="49.9206" lon="2.10497">
        <ele>99.2</ele>
        <time>2022-08-10T07:07:22Z</time>
      </trkpt>
      <trkpt lat="49.92061" lon="2.10496">
        <ele>99.3</ele>
        <time>2022-08-10T07:07:23Z</time>
      </trkpt>
      <trkpt lat="49.92063" lon="2.10495">
        <ele>99.4</ele>
        <time>2022-08-10T07:07:24Z</time>
      </trkpt>
      <trkpt lat="49.92064" lon="2.10494">
        <ele>99.4</ele>
        <time>2022-08-10T07:07:25Z</time>
      </trkpt>
      <trkpt lat="49.92065" lon="2.10494">
        <ele>99.5</ele>
        <time>2022-08-10T07:07:26Z</time>
      </trkpt>
      <trkpt lat="49.92066" lon="2.10493">
        <ele>99.5</ele>
        <time>2022-08-10T07:07:27Z</time>
      </trkpt>
      <trkpt lat="49.92067" lon="2.10493">
        <ele>99.6</ele>
        <time>2022-08-10T07:07:28Z</time>
      </trkpt>
      <trkpt lat="49.92068" lon="2.10492">
        <ele>99.7</ele>
        <time>2022-08-10T07:07:29Z</time>
      </trkpt>
      <trkpt lat="49.92069" lon="2.10492">
        <ele>99.7</ele>
        <time>2022-08-10T07:07:30Z</time>
      </trkpt>
      <trkpt lat="49.9207" lon="2.10491">
        <ele>99.8</ele>
        <time>2022-08-10T07:07:32Z</time>
      </trkpt>
      <trkpt lat="49.92071" lon="2.1049">
        <ele>99.8</ele>
        <time>2022-08-10T07:07:33Z</time>
      </trkpt>
      <trkpt lat="49.92073" lon="2.10489">
        <ele>99.9</ele>
        <time>2022-08-10T07:07:34Z</time>
      </trkpt>
      <trkpt lat="49.92073" lon="2.10488">
        <ele>100</ele>
        <time>2022-08-10T07:07:35Z</time>
      </trkpt>
      <trkpt lat="49.92074" lon="2.10488">
        <ele>100</ele>
        <time>2022-08-10T07:07:36Z</time>
      </trkpt>
      <trkpt lat="49.92076" lon="2.10487">
        <ele>100.1</ele>
        <time>2022-08-10T07:07:37Z</time>
      </trkpt>
      <trkpt lat="49.92077" lon="2.10487">
        <ele>100.2</ele>
        <time>2022-08-10T07:07:39Z</time>
      </trkpt>
      <trkpt lat="49.92078" lon="2.10487">
        <ele>100.2</ele>
        <time>2022-08-10T07:07:40Z</time>
      </trkpt>
      <trkpt lat="49.9208" lon="2.10487">
        <ele>100.3</ele>
        <time>2022-08-10T07:07:41Z</time>
      </trkpt>
      <trkpt lat="49.92081" lon="2.10487">
        <ele>100.4</ele>
        <time>2022-08-10T07:07:42Z</time>
      </trkpt>
      <trkpt lat="49.92082" lon="2.10487">
        <ele>100.4</ele>
        <time>2022-08-10T07:07:43Z</time>
      </trkpt>
      <trkpt lat="49.92084" lon="2.10487">
        <ele>100.4</ele>
        <time>2022-08-10T07:07:44Z</time>
      </trkpt>
      <trkpt lat="49.92085" lon="2.10487">
        <ele>100.3</ele>
        <time>2022-08-10T07:07:46Z</time>
      </trkpt>
      <trkpt lat="49.92087" lon="2.10487">
        <ele>100.3</ele>
        <time>2022-08-10T07:07:47Z</time>
      </trkpt>
      <trkpt lat="49.92088" lon="2.10487">
        <ele>100.3</ele>
        <time>2022-08-10T07:07:48Z</time>
      </trkpt>
      <trkpt lat="49.92089" lon="2.10488">
        <ele>100.3</ele>
        <time>2022-08-10T07:07:49Z</time>
      </trkpt>
      <trkpt lat="49.9209" lon="2.10488">
        <ele>100.2</ele>
        <time>2022-08-10T07:07:50Z</time>
      </trkpt>
      <trkpt lat="49.92092" lon="2.10488">
        <ele>100.2</ele>
        <time>2022-08-10T07:07:51Z</time>
      </trkpt>
      <trkpt lat="49.92093" lon="2.10489">
        <ele>100.2</ele>
        <time>2022-08-10T07:07:52Z</time>
      </trkpt>
      <trkpt lat="49.92094" lon="2.10489">
        <ele>100.1</ele>
        <time>2022-08-10T07:07:53Z</time>
      </trkpt>
      <trkpt lat="49.92095" lon="2.10489">
        <ele>100.1</ele>
        <time>2022-08-10T07:07:54Z</time>
      </trkpt>
      <trkpt lat="49.92096" lon="2.1049">
        <ele>100.1</ele>
        <time>2022-08-10T07:07:55Z</time>
      </trkpt>
      <trkpt lat="49.92097" lon="2.1049">
        <ele>100.1</ele>
        <time>2022-08-10T07:07:56Z</time>
      </trkpt>
      <trkpt lat="49.92098" lon="2.1049">
        <ele>100</ele>
        <time>2022-08-10T07:07:58Z</time>
      </trkpt>
      <trkpt lat="49.921" lon="2.1049">
        <ele>100</ele>
        <time>2022-08-10T07:07:59Z</time>
      </trkpt>
      <trkpt lat="49.92101" lon="2.10491">
        <ele>100</ele>
        <time>2022-08-10T07:08:00Z</time>
      </trkpt>
      <trkpt lat="49.92102" lon="2.10491">
        <ele>100</ele>
        <time>2022-08-10T07:08:01Z</time>
      </trkpt>
      <trkpt lat="49.92103" lon="2.10491">
        <ele>99.9</ele>
        <time>2022-08-10T07:08:02Z</time>
      </trkpt>
      <trkpt lat="49.92105" lon="2.10492">
        <ele>99.9</ele>
        <time>2022-08-10T07:08:03Z</time>
      </trkpt>
      <trkpt lat="49.92106" lon="2.10493">
        <ele>99.9</ele>
        <time>2022-08-10T07:08:04Z</time>
      </trkpt>
      <trkpt lat="49.92108" lon="2.10493">
        <ele>99.8</ele>
        <time>2022-08-10T07:08:06Z</time>
      </trkpt>
      <trkpt lat="49.92109" lon="2.10493">
        <ele>99.8</ele>
        <time>2022-08-10T07:08:07Z</time>
      </trkpt>
      <trkpt lat="49.92111" lon="2.10493">
        <ele>99.7</ele>
        <time>2022-08-10T07:08:08Z</time>
      </trkpt>
      <trkpt lat="49.92112" lon="2.10494">
        <ele>99.7</ele>
        <time>2022-08-10T07:08:09Z</time>
      </trkpt>
      <trkpt lat="49.92114" lon="2.10495">
        <ele>99.7</ele>
        <time>2022-08-10T07:08:11Z</time>
      </trkpt>
      <trkpt lat="49.92115" lon="2.10496">
        <ele>99.6</ele>
        <time>2022-08-10T07:08:12Z</time>
      </trkpt>
      <trkpt lat="49.92115" lon="2.10497">
        <ele>99.6</ele>
        <time>2022-08-10T07:08:13Z</time>
      </trkpt>
      <trkpt lat="49.92116" lon="2.10497">
        <ele>99.6</ele>
        <time>2022-08-10T07:08:14Z</time>
      </trkpt>
      <trkpt lat="49.92116" lon="2.10498">
        <ele>99.6</ele>
        <time>2022-08-10T07:08:15Z</time>
      </trkpt>
      <trkpt lat="49.92117" lon="2.10499">
        <ele>99.6</ele>
        <time>2022-08-10T07:08:16Z</time>
      </trkpt>
      <trkpt lat="49.92118" lon="2.105">
        <ele>99.5</ele>
        <time>2022-08-10T07:08:17Z</time>
      </trkpt>
      <trkpt lat="49.92118" lon="2.105">
        <ele>99.5</ele>
        <time>2022-08-10T07:08:19Z</time>
      </trkpt>
      <trkpt lat="49.92119" lon="2.10503">
        <ele>99.5</ele>
        <time>2022-08-10T07:08:21Z</time>
      </trkpt>
      <trkpt lat="49.92121" lon="2.10504">
        <ele>99.4</ele>
        <time>2022-08-10T07:08:23Z</time>
      </trkpt>
      <trkpt lat="49.92122" lon="2.10505">
        <ele>99.4</ele>
        <time>2022-08-10T07:08:24Z</time>
      </trkpt>
      <trkpt lat="49.92122" lon="2.10506">
        <ele>99.4</ele>
        <time>2022-08-10T07:08:25Z</time>
      </trkpt>
      <trkpt lat="49.92123" lon="2.10507">
        <ele>99.3</ele>
        <time>2022-08-10T07:08:26Z</time>
      </trkpt>
      <trkpt lat="49.92124" lon="2.10508">
        <ele>99.3</ele>
        <time>2022-08-10T07:08:27Z</time>
      </trkpt>
      <trkpt lat="49.92125" lon="2.10509">
        <ele>99.3</ele>
        <time>2022-08-10T07:08:28Z</time>
      </trkpt>
      <trkpt lat="49.92127" lon="2.1051">
        <ele>99.2</ele>
        <time>2022-08-10T07:08:29Z</time>
      </trkpt>
      <trkpt lat="49.92128" lon="2.10512">
        <ele>99.2</ele>
        <time>2022-08-10T07:08:30Z</time>
      </trkpt>
      <trkpt lat="49.92129" lon="2.10514">
        <ele>99.1</ele>
        <time>2022-08-10T07:08:31Z</time>
      </trkpt>
      <trkpt lat="49.92132" lon="2.10517">
        <ele>99</ele>
        <time>2022-08-10T07:08:32Z</time>
      </trkpt>
      <trkpt lat="49.92132" lon="2.10518">
        <ele>99</ele>
        <time>2022-08-10T07:08:33Z</time>
      </trkpt>
      <trkpt lat="49.92135" lon="2.10521">
        <ele>98.9</ele>
        <time>2022-08-10T07:08:35Z</time>
      </trkpt>
      <trkpt lat="49.92135" lon="2.10521">
        <ele>98.9</ele>
        <time>2022-08-10T07:08:36Z</time>
      </trkpt>
      <trkpt lat="49.92136" lon="2.10523">
        <ele>98.8</ele>
        <time>2022-08-10T07:08:37Z</time>
      </trkpt>
      <trkpt lat="49.92138" lon="2.10524">
        <ele>98.8</ele>
        <time>2022-08-10T07:08:38Z</time>
      </trkpt>
      <trkpt lat="49.92139" lon="2.10526">
        <ele>98.7</ele>
        <time>2022-08-10T07:08:39Z</time>
      </trkpt>
      <trkpt lat="49.9214" lon="2.10528">
        <ele>98.7</ele>
        <time>2022-08-10T07:08:40Z</time>
      </trkpt>
      <trkpt lat="49.92141" lon="2.10529">
        <ele>98.6</ele>
        <time>2022-08-10T07:08:41Z</time>
      </trkpt>
      <trkpt lat="49.92142" lon="2.10531">
        <ele>98.6</ele>
        <time>2022-08-10T07:08:42Z</time>
      </trkpt>
      <trkpt lat="49.92144" lon="2.10533">
        <ele>98.5</ele>
        <time>2022-08-10T07:08:43Z</time>
      </trkpt>
      <trkpt lat="49.92145" lon="2.10534">
        <ele>98.5</ele>
        <time>2022-08-10T07:08:44Z</time>
      </trkpt>
      <trkpt lat="49.92146" lon="2.10535">
        <ele>98.4</ele>
        <time>2022-08-10T07:08:45Z</time>
      </trkpt>
      <trkpt lat="49.92148" lon="2.10537">
        <ele>98.4</ele>
        <time>2022-08-10T07:08:46Z</time>
      </trkpt>
      <trkpt lat="49.92149" lon="2.10538">
        <ele>98.3</ele>
        <time>2022-08-10T07:08:47Z</time>
      </trkpt>
      <trkpt lat="49.92149" lon="2.10538">
        <ele>98.3</ele>
        <time>2022-08-10T07:08:48Z</time>
      </trkpt>
      <trkpt lat="49.92151" lon="2.1054">
        <ele>98.3</ele>
        <time>2022-08-10T07:08:49Z</time>
      </trkpt>
      <trkpt lat="49.92152" lon="2.10541">
        <ele>98.2</ele>
        <time>2022-08-10T07:08:50Z</time>
      </trkpt>
      <trkpt lat="49.92153" lon="2.10541">
        <ele>98.2</ele>
        <time>2022-08-10T07:08:51Z</time>
      </trkpt>
      <trkpt lat="49.92155" lon="2.10543">
        <ele>98.1</ele>
        <time>2022-08-10T07:08:52Z</time>
      </trkpt>
      <trkpt lat="49.92156" lon="2.10543">
        <ele>98.1</ele>
        <time>2022-08-10T07:08:54Z</time>
      </trkpt>
      <trkpt lat="49.92157" lon="2.10544">
        <ele>98.1</ele>
        <time>2022-08-10T07:08:55Z</time>
      </trkpt>
      <trkpt lat="49.92158" lon="2.10545">
        <ele>98</ele>
        <time>2022-08-10T07:08:56Z</time>
      </trkpt>
      <trkpt lat="49.92161" lon="2.10547">
        <ele>97.9</ele>
        <time>2022-08-10T07:08:57Z</time>
      </trkpt>
      <trkpt lat="49.92162" lon="2.10547">
        <ele>97.9</ele>
        <time>2022-08-10T07:08:58Z</time>
      </trkpt>
      <trkpt lat="49.92163" lon="2.10548">
        <ele>97.9</ele>
        <time>2022-08-10T07:08:59Z</time>
      </trkpt>
      <trkpt lat="49.92164" lon="2.10549">
        <ele>97.8</ele>
        <time>2022-08-10T07:09:00Z</time>
      </trkpt>
      <trkpt lat="49.92165" lon="2.1055">
        <ele>97.8</ele>
        <time>2022-08-10T07:09:01Z</time>
      </trkpt>
      <trkpt lat="49.92167" lon="2.10551">
        <ele>97.7</ele>
        <time>2022-08-10T07:09:03Z</time>
      </trkpt>
      <trkpt lat="49.92168" lon="2.10552">
        <ele>97.7</ele>
        <time>2022-08-10T07:09:04Z</time>
      </trkpt>
      <trkpt lat="49.92169" lon="2.10553">
        <ele>97.7</ele>
        <time>2022-08-10T07:09:05Z</time>
      </trkpt>
      <trkpt lat="49.9217" lon="2.10553">
        <ele>97.6</ele>
        <time>2022-08-10T07:09:06Z</time>
      </trkpt>
      <trkpt lat="49.92172" lon="2.10554">
        <ele>97.6</ele>
        <time>2022-08-10T07:09:07Z</time>
      </trkpt>
      <trkpt lat="49.92173" lon="2.10556">
        <ele>97.6</ele>
        <time>2022-08-10T07:09:08Z</time>
      </trkpt>
      <trkpt lat="49.92174" lon="2.10556">
        <ele>97.5</ele>
        <time>2022-08-10T07:09:09Z</time>
      </trkpt>
      <trkpt lat="49.92176" lon="2.10558">
        <ele>97.5</ele>
        <time>2022-08-10T07:09:11Z</time>
      </trkpt>
      <trkpt lat="49.92177" lon="2.10559">
        <ele>97.4</ele>
        <time>2022-08-10T07:09:12Z</time>
      </trkpt>
      <trkpt lat="49.92179" lon="2.1056">
        <ele>97.4</ele>
        <time>2022-08-10T07:09:13Z</time>
      </trkpt>
      <trkpt lat="49.9218" lon="2.10561">
        <ele>97.4</ele>
        <time>2022-08-10T07:09:14Z</time>
      </trkpt>
      <trkpt lat="49.92181" lon="2.10563">
        <ele>97.3</ele>
        <time>2022-08-10T07:09:16Z</time>
      </trkpt>
      <trkpt lat="49.92182" lon="2.10564">
        <ele>97.3</ele>
        <time>2022-08-10T07:09:17Z</time>
      </trkpt>
      <trkpt lat="49.92184" lon="2.10565">
        <ele>97.3</ele>
        <time>2022-08-10T07:09:18Z</time>
      </trkpt>
      <trkpt lat="49.92186" lon="2.10566">
        <ele>97.2</ele>
        <time>2022-08-10T07:09:19Z</time>
      </trkpt>
      <trkpt lat="49.92187" lon="2.10567">
        <ele>97.2</ele>
        <time>2022-08-10T07:09:20Z</time>
      </trkpt>
      <trkpt lat="49.92188" lon="2.10568">
        <ele>97.2</ele>
        <time>2022-08-10T07:09:21Z</time>
      </trkpt>
      <trkpt lat="49.92191" lon="2.10572">
        <ele>97.1</ele>
        <time>2022-08-10T07:09:23Z</time>
      </trkpt>
      <trkpt lat="49.92192" lon="2.10572">
        <ele>97.1</ele>
        <time>2022-08-10T07:09:25Z</time>
      </trkpt>
      <trkpt lat="49.92192" lon="2.10573">
        <ele>97.1</ele>
        <time>2022-08-10T07:09:26Z</time>
      </trkpt>
      <trkpt lat="49.92193" lon="2.10574">
        <ele>97.1</ele>
        <time>2022-08-10T07:09:27Z</time>
      </trkpt>
      <trkpt lat="49.92194" lon="2.10575">
        <ele>97</ele>
        <time>2022-08-10T07:09:28Z</time>
      </trkpt>
      <trkpt lat="49.92196" lon="2.10577">
        <ele>97</ele>
        <time>2022-08-10T07:09:29Z</time>
      </trkpt>
      <trkpt lat="49.92196" lon="2.10577">
        <ele>97</ele>
        <time>2022-08-10T07:09:31Z</time>
      </trkpt>
      <trkpt lat="49.92197" lon="2.10578">
        <ele>97</ele>
        <time>2022-08-10T07:09:32Z</time>
      </trkpt>
      <trkpt lat="49.92198" lon="2.10579">
        <ele>97</ele>
        <time>2022-08-10T07:09:33Z</time>
      </trkpt>
      <trkpt lat="49.92201" lon="2.10582">
        <ele>96.9</ele>
        <time>2022-08-10T07:09:34Z</time>
      </trkpt>
      <trkpt lat="49.92202" lon="2.10583">
        <ele>96.9</ele>
        <time>2022-08-10T07:09:35Z</time>
      </trkpt>
      <trkpt lat="49.92203" lon="2.10584">
        <ele>96.9</ele>
        <time>2022-08-10T07:09:36Z</time>
      </trkpt>
      <trkpt lat="49.92204" lon="2.10585">
        <ele>96.9</ele>
        <time>2022-08-10T07:09:38Z</time>
      </trkpt>
      <trkpt lat="49.92205" lon="2.10586">
        <ele>96.9</ele>
        <time>2022-08-10T07:09:39Z</time>
      </trkpt>
      <trkpt lat="49.92205" lon="2.10587">
        <ele>96.9</ele>
        <time>2022-08-10T07:09:40Z</time>
      </trkpt>
      <trkpt lat="49.92206" lon="2.10589">
        <ele>96.9</ele>
        <time>2022-08-10T07:09:41Z</time>
      </trkpt>
      <trkpt lat="49.92208" lon="2.10591">
        <ele>96.9</ele>
        <time>2022-08-10T07:09:43Z</time>
      </trkpt>
      <trkpt lat="49.92209" lon="2.10593">
        <ele>96.9</ele>
        <time>2022-08-10T07:09:44Z</time>
      </trkpt>
      <trkpt lat="49.9221" lon="2.10594">
        <ele>96.9</ele>
        <time>2022-08-10T07:09:45Z</time>
      </trkpt>
      <trkpt lat="49.92212" lon="2.10596">
        <ele>96.9</ele>
        <time>2022-08-10T07:09:47Z</time>
      </trkpt>
      <trkpt lat="49.92213" lon="2.10598">
        <ele>96.9</ele>
        <time>2022-08-10T07:09:48Z</time>
      </trkpt>
      <trkpt lat="49.92214" lon="2.10599">
        <ele>96.9</ele>
        <time>2022-08-10T07:09:49Z</time>
      </trkpt>
      <trkpt lat="49.92216" lon="2.106">
        <ele>96.9</ele>
        <time>2022-08-10T07:09:50Z</time>
      </trkpt>
      <trkpt lat="49.92216" lon="2.10601">
        <ele>96.9</ele>
        <time>2022-08-10T07:09:51Z</time>
      </trkpt>
      <trkpt lat="49.92217" lon="2.10602">
        <ele>96.9</ele>
        <time>2022-08-10T07:09:52Z</time>
      </trkpt>
      <trkpt lat="49.92217" lon="2.10603">
        <ele>96.9</ele>
        <time>2022-08-10T07:09:53Z</time>
      </trkpt>
      <trkpt lat="49.92218" lon="2.10604">
        <ele>96.8</ele>
        <time>2022-08-10T07:09:54Z</time>
      </trkpt>
      <trkpt lat="49.92219" lon="2.10606">
        <ele>96.8</ele>
        <time>2022-08-10T07:09:55Z</time>
      </trkpt>
      <trkpt lat="49.92221" lon="2.10609">
        <ele>96.8</ele>
        <time>2022-08-10T07:09:56Z</time>
      </trkpt>
      <trkpt lat="49.92222" lon="2.1061">
        <ele>96.8</ele>
        <time>2022-08-10T07:09:58Z</time>
      </trkpt>
      <trkpt lat="49.92222" lon="2.10612">
        <ele>96.8</ele>
        <time>2022-08-10T07:09:59Z</time>
      </trkpt>
      <trkpt lat="49.92223" lon="2.10613">
        <ele>96.8</ele>
        <time>2022-08-10T07:10:00Z</time>
      </trkpt>
      <trkpt lat="49.92224" lon="2.10615">
        <ele>96.8</ele>
        <time>2022-08-10T07:10:01Z</time>
      </trkpt>
      <trkpt lat="49.92225" lon="2.10617">
        <ele>96.8</ele>
        <time>2022-08-10T07:10:03Z</time>
      </trkpt>
      <trkpt lat="49.92226" lon="2.10618">
        <ele>96.8</ele>
        <time>2022-08-10T07:10:04Z</time>
      </trkpt>
      <trkpt lat="49.92227" lon="2.10621">
        <ele>96.8</ele>
        <time>2022-08-10T07:10:05Z</time>
      </trkpt>
      <trkpt lat="49.92228" lon="2.10622">
        <ele>96.8</ele>
        <time>2022-08-10T07:10:06Z</time>
      </trkpt>
      <trkpt lat="49.92228" lon="2.10623">
        <ele>96.8</ele>
        <time>2022-08-10T07:10:07Z</time>
      </trkpt>
      <trkpt lat="49.92229" lon="2.10625">
        <ele>96.7</ele>
        <time>2022-08-10T07:10:08Z</time>
      </trkpt>
      <trkpt lat="49.9223" lon="2.10627">
        <ele>96.7</ele>
        <time>2022-08-10T07:10:10Z</time>
      </trkpt>
      <trkpt lat="49.92231" lon="2.10629">
        <ele>96.7</ele>
        <time>2022-08-10T07:10:11Z</time>
      </trkpt>
      <trkpt lat="49.92232" lon="2.10631">
        <ele>96.7</ele>
        <time>2022-08-10T07:10:12Z</time>
      </trkpt>
      <trkpt lat="49.92233" lon="2.10632">
        <ele>96.6</ele>
        <time>2022-08-10T07:10:13Z</time>
      </trkpt>
      <trkpt lat="49.92233" lon="2.10633">
        <ele>96.6</ele>
        <time>2022-08-10T07:10:14Z</time>
      </trkpt>
      <trkpt lat="49.92235" lon="2.10634">
        <ele>96.6</ele>
        <time>2022-08-10T07:10:15Z</time>
      </trkpt>
      <trkpt lat="49.92236" lon="2.10634">
        <ele>96.5</ele>
        <time>2022-08-10T07:10:16Z</time>
      </trkpt>
      <trkpt lat="49.92237" lon="2.10635">
        <ele>96.5</ele>
        <time>2022-08-10T07:10:17Z</time>
      </trkpt>
      <trkpt lat="49.9224" lon="2.10637">
        <ele>96.4</ele>
        <time>2022-08-10T07:10:18Z</time>
      </trkpt>
      <trkpt lat="49.92241" lon="2.10639">
        <ele>96.4</ele>
        <time>2022-08-10T07:10:20Z</time>
      </trkpt>
      <trkpt lat="49.92241" lon="2.1064">
        <ele>96.4</ele>
        <time>2022-08-10T07:10:21Z</time>
      </trkpt>
      <trkpt lat="49.92242" lon="2.10641">
        <ele>96.3</ele>
        <time>2022-08-10T07:10:22Z</time>
      </trkpt>
      <trkpt lat="49.92243" lon="2.10642">
        <ele>96.3</ele>
        <time>2022-08-10T07:10:23Z</time>
      </trkpt>
      <trkpt lat="49.92244" lon="2.10643">
        <ele>96.3</ele>
        <time>2022-08-10T07:10:24Z</time>
      </trkpt>
      <trkpt lat="49.92245" lon="2.10644">
        <ele>96.2</ele>
        <time>2022-08-10T07:10:25Z</time>
      </trkpt>
      <trkpt lat="49.92246" lon="2.10644">
        <ele>96.2</ele>
        <time>2022-08-10T07:10:26Z</time>
      </trkpt>
      <trkpt lat="49.92247" lon="2.10645">
        <ele>96.2</ele>
        <time>2022-08-10T07:10:27Z</time>
      </trkpt>
      <trkpt lat="49.92248" lon="2.10646">
        <ele>96.1</ele>
        <time>2022-08-10T07:10:28Z</time>
      </trkpt>
      <trkpt lat="49.92248" lon="2.10647">
        <ele>96.1</ele>
        <time>2022-08-10T07:10:29Z</time>
      </trkpt>
      <trkpt lat="49.9225" lon="2.10649">
        <ele>96.1</ele>
        <time>2022-08-10T07:10:30Z</time>
      </trkpt>
      <trkpt lat="49.9225" lon="2.1065">
        <ele>96</ele>
        <time>2022-08-10T07:10:31Z</time>
      </trkpt>
      <trkpt lat="49.92251" lon="2.10651">
        <ele>96</ele>
        <time>2022-08-10T07:10:32Z</time>
      </trkpt>
      <trkpt lat="49.92252" lon="2.10654">
        <ele>95.9</ele>
        <time>2022-08-10T07:10:33Z</time>
      </trkpt>
      <trkpt lat="49.92253" lon="2.10654">
        <ele>95.9</ele>
        <time>2022-08-10T07:10:34Z</time>
      </trkpt>
      <trkpt lat="49.92255" lon="2.10655">
        <ele>95.8</ele>
        <time>2022-08-10T07:10:36Z</time>
      </trkpt>
      <trkpt lat="49.92256" lon="2.10656">
        <ele>95.8</ele>
        <time>2022-08-10T07:10:38Z</time>
      </trkpt>
      <trkpt lat="49.92257" lon="2.10657">
        <ele>95.8</ele>
        <time>2022-08-10T07:10:39Z</time>
      </trkpt>
      <trkpt lat="49.92259" lon="2.10658">
        <ele>95.7</ele>
        <time>2022-08-10T07:10:40Z</time>
      </trkpt>
      <trkpt lat="49.9226" lon="2.10659">
        <ele>95.7</ele>
        <time>2022-08-10T07:10:41Z</time>
      </trkpt>
      <trkpt lat="49.92262" lon="2.10661">
        <ele>95.6</ele>
        <time>2022-08-10T07:10:42Z</time>
      </trkpt>
      <trkpt lat="49.92264" lon="2.10663">
        <ele>95.5</ele>
        <time>2022-08-10T07:10:43Z</time>
      </trkpt>
      <trkpt lat="49.92265" lon="2.10663">
        <ele>95.5</ele>
        <time>2022-08-10T07:10:44Z</time>
      </trkpt>
      <trkpt lat="49.92266" lon="2.10665">
        <ele>95.5</ele>
        <time>2022-08-10T07:10:45Z</time>
      </trkpt>
      <trkpt lat="49.92267" lon="2.10666">
        <ele>95.4</ele>
        <time>2022-08-10T07:10:46Z</time>
      </trkpt>
      <trkpt lat="49.92269" lon="2.10668">
        <ele>95.4</ele>
        <time>2022-08-10T07:10:47Z</time>
      </trkpt>
      <trkpt lat="49.9227" lon="2.10669">
        <ele>95.3</ele>
        <time>2022-08-10T07:10:48Z</time>
      </trkpt>
      <trkpt lat="49.9227" lon="2.1067">
        <ele>95.3</ele>
        <time>2022-08-10T07:10:49Z</time>
      </trkpt>
      <trkpt lat="49.92271" lon="2.10672">
        <ele>95.3</ele>
        <time>2022-08-10T07:10:50Z</time>
      </trkpt>
      <trkpt lat="49.92272" lon="2.10674">
        <ele>95.2</ele>
        <time>2022-08-10T07:10:51Z</time>
      </trkpt>
      <trkpt lat="49.92274" lon="2.10677">
        <ele>95.2</ele>
        <time>2022-08-10T07:10:53Z</time>
      </trkpt>
      <trkpt lat="49.92274" lon="2.10678">
        <ele>95.1</ele>
        <time>2022-08-10T07:10:54Z</time>
      </trkpt>
      <trkpt lat="49.92275" lon="2.10679">
        <ele>95.1</ele>
        <time>2022-08-10T07:10:55Z</time>
      </trkpt>
      <trkpt lat="49.92277" lon="2.10682">
        <ele>95</ele>
        <time>2022-08-10T07:10:57Z</time>
      </trkpt>
      <trkpt lat="49.92278" lon="2.10682">
        <ele>95</ele>
        <time>2022-08-10T07:10:58Z</time>
      </trkpt>
      <trkpt lat="49.92279" lon="2.10683">
        <ele>95</ele>
        <time>2022-08-10T07:10:59Z</time>
      </trkpt>
      <trkpt lat="49.9228" lon="2.10684">
        <ele>95</ele>
        <time>2022-08-10T07:11:00Z</time>
      </trkpt>
      <trkpt lat="49.92281" lon="2.10686">
        <ele>94.9</ele>
        <time>2022-08-10T07:11:01Z</time>
      </trkpt>
      <trkpt lat="49.92283" lon="2.10687">
        <ele>94.9</ele>
        <time>2022-08-10T07:11:03Z</time>
      </trkpt>
      <trkpt lat="49.92284" lon="2.10688">
        <ele>94.9</ele>
        <time>2022-08-10T07:11:04Z</time>
      </trkpt>
      <trkpt lat="49.92285" lon="2.10689">
        <ele>94.9</ele>
        <time>2022-08-10T07:11:05Z</time>
      </trkpt>
      <trkpt lat="49.92286" lon="2.1069">
        <ele>94.8</ele>
        <time>2022-08-10T07:11:06Z</time>
      </trkpt>
      <trkpt lat="49.92288" lon="2.10692">
        <ele>94.8</ele>
        <time>2022-08-10T07:11:07Z</time>
      </trkpt>
      <trkpt lat="49.92288" lon="2.10692">
        <ele>94.8</ele>
        <time>2022-08-10T07:11:08Z</time>
      </trkpt>
      <trkpt lat="49.92289" lon="2.10693">
        <ele>94.8</ele>
        <time>2022-08-10T07:11:09Z</time>
      </trkpt>
      <trkpt lat="49.9229" lon="2.10694">
        <ele>94.7</ele>
        <time>2022-08-10T07:11:10Z</time>
      </trkpt>
      <trkpt lat="49.92292" lon="2.10696">
        <ele>94.7</ele>
        <time>2022-08-10T07:11:12Z</time>
      </trkpt>
      <trkpt lat="49.92293" lon="2.10696">
        <ele>94.7</ele>
        <time>2022-08-10T07:11:13Z</time>
      </trkpt>
      <trkpt lat="49.92294" lon="2.10697">
        <ele>94.6</ele>
        <time>2022-08-10T07:11:14Z</time>
      </trkpt>
      <trkpt lat="49.92295" lon="2.10697">
        <ele>94.6</ele>
        <time>2022-08-10T07:11:15Z</time>
      </trkpt>
      <trkpt lat="49.92296" lon="2.10698">
        <ele>94.6</ele>
        <time>2022-08-10T07:11:16Z</time>
      </trkpt>
      <trkpt lat="49.92298" lon="2.107">
        <ele>94.5</ele>
        <time>2022-08-10T07:11:17Z</time>
      </trkpt>
      <trkpt lat="49.92299" lon="2.107">
        <ele>94.5</ele>
        <time>2022-08-10T07:11:18Z</time>
      </trkpt>
      <trkpt lat="49.923" lon="2.10701">
        <ele>94.5</ele>
        <time>2022-08-10T07:11:19Z</time>
      </trkpt>
      <trkpt lat="49.92301" lon="2.10701">
        <ele>94.5</ele>
        <time>2022-08-10T07:11:20Z</time>
      </trkpt>
      <trkpt lat="49.92303" lon="2.10703">
        <ele>94.4</ele>
        <time>2022-08-10T07:11:21Z</time>
      </trkpt>
      <trkpt lat="49.92303" lon="2.10703">
        <ele>94.4</ele>
        <time>2022-08-10T07:11:22Z</time>
      </trkpt>
      <trkpt lat="49.92304" lon="2.10704">
        <ele>94.4</ele>
        <time>2022-08-10T07:11:23Z</time>
      </trkpt>
      <trkpt lat="49.92306" lon="2.10705">
        <ele>94.4</ele>
        <time>2022-08-10T07:11:24Z</time>
      </trkpt>
      <trkpt lat="49.92307" lon="2.10706">
        <ele>94.3</ele>
        <time>2022-08-10T07:11:26Z</time>
      </trkpt>
      <trkpt lat="49.92307" lon="2.10707">
        <ele>94.3</ele>
        <time>2022-08-10T07:11:27Z</time>
      </trkpt>
      <trkpt lat="49.92308" lon="2.10708">
        <ele>94.3</ele>
        <time>2022-08-10T07:11:28Z</time>
      </trkpt>
      <trkpt lat="49.92309" lon="2.10709">
        <ele>94.3</ele>
        <time>2022-08-10T07:11:29Z</time>
      </trkpt>
      <trkpt lat="49.9231" lon="2.1071">
        <ele>94.3</ele>
        <time>2022-08-10T07:11:30Z</time>
      </trkpt>
      <trkpt lat="49.92311" lon="2.1071">
        <ele>94.2</ele>
        <time>2022-08-10T07:11:31Z</time>
      </trkpt>
      <trkpt lat="49.92313" lon="2.10712">
        <ele>94.2</ele>
        <time>2022-08-10T07:11:32Z</time>
      </trkpt>
      <trkpt lat="49.92314" lon="2.10712">
        <ele>94.2</ele>
        <time>2022-08-10T07:11:33Z</time>
      </trkpt>
      <trkpt lat="49.92315" lon="2.10713">
        <ele>94.2</ele>
        <time>2022-08-10T07:11:34Z</time>
      </trkpt>
      <trkpt lat="49.92316" lon="2.10714">
        <ele>94.1</ele>
        <time>2022-08-10T07:11:35Z</time>
      </trkpt>
      <trkpt lat="49.92317" lon="2.10715">
        <ele>94.1</ele>
        <time>2022-08-10T07:11:36Z</time>
      </trkpt>
      <trkpt lat="49.92318" lon="2.10716">
        <ele>94.1</ele>
        <time>2022-08-10T07:11:37Z</time>
      </trkpt>
      <trkpt lat="49.9232" lon="2.10718">
        <ele>94</ele>
        <time>2022-08-10T07:11:38Z</time>
      </trkpt>
      <trkpt lat="49.92321" lon="2.10718">
        <ele>94</ele>
        <time>2022-08-10T07:11:39Z</time>
      </trkpt>
      <trkpt lat="49.92321" lon="2.10719">
        <ele>94</ele>
        <time>2022-08-10T07:11:40Z</time>
      </trkpt>
      <trkpt lat="49.92323" lon="2.10721">
        <ele>94</ele>
        <time>2022-08-10T07:11:41Z</time>
      </trkpt>
      <trkpt lat="49.92324" lon="2.10722">
        <ele>93.9</ele>
        <time>2022-08-10T07:11:42Z</time>
      </trkpt>
      <trkpt lat="49.92324" lon="2.10723">
        <ele>93.9</ele>
        <time>2022-08-10T07:11:43Z</time>
      </trkpt>
      <trkpt lat="49.92325" lon="2.10724">
        <ele>93.9</ele>
        <time>2022-08-10T07:11:45Z</time>
      </trkpt>
      <trkpt lat="49.92326" lon="2.10725">
        <ele>93.9</ele>
        <time>2022-08-10T07:11:46Z</time>
      </trkpt>
      <trkpt lat="49.92328" lon="2.10728">
        <ele>93.8</ele>
        <time>2022-08-10T07:11:47Z</time>
      </trkpt>
      <trkpt lat="49.92329" lon="2.10729">
        <ele>93.8</ele>
        <time>2022-08-10T07:11:48Z</time>
      </trkpt>
      <trkpt lat="49.9233" lon="2.10731">
        <ele>93.7</ele>
        <time>2022-08-10T07:11:49Z</time>
      </trkpt>
      <trkpt lat="49.92331" lon="2.10732">
        <ele>93.7</ele>
        <time>2022-08-10T07:11:50Z</time>
      </trkpt>
      <trkpt lat="49.92332" lon="2.10733">
        <ele>93.7</ele>
        <time>2022-08-10T07:11:51Z</time>
      </trkpt>
      <trkpt lat="49.92333" lon="2.10735">
        <ele>93.6</ele>
        <time>2022-08-10T07:11:52Z</time>
      </trkpt>
      <trkpt lat="49.92334" lon="2.10736">
        <ele>93.6</ele>
        <time>2022-08-10T07:11:53Z</time>
      </trkpt>
      <trkpt lat="49.92335" lon="2.10737">
        <ele>93.6</ele>
        <time>2022-08-10T07:11:54Z</time>
      </trkpt>
      <trkpt lat="49.92336" lon="2.10739">
        <ele>93.5</ele>
        <time>2022-08-10T07:11:55Z</time>
      </trkpt>
      <trkpt lat="49.92339" lon="2.10741">
        <ele>93.4</ele>
        <time>2022-08-10T07:11:57Z</time>
      </trkpt>
      <trkpt lat="49.9234" lon="2.10741">
        <ele>93.4</ele>
        <time>2022-08-10T07:11:58Z</time>
      </trkpt>
      <trkpt lat="49.92341" lon="2.10742">
        <ele>93.4</ele>
        <time>2022-08-10T07:11:59Z</time>
      </trkpt>
      <trkpt lat="49.92342" lon="2.10744">
        <ele>93.3</ele>
        <time>2022-08-10T07:12:01Z</time>
      </trkpt>
      <trkpt lat="49.92344" lon="2.10746">
        <ele>93.3</ele>
        <time>2022-08-10T07:12:02Z</time>
      </trkpt>
      <trkpt lat="49.92345" lon="2.10746">
        <ele>93.3</ele>
        <time>2022-08-10T07:12:03Z</time>
      </trkpt>
      <trkpt lat="49.92346" lon="2.10747">
        <ele>93.2</ele>
        <time>2022-08-10T07:12:04Z</time>
      </trkpt>
      <trkpt lat="49.92346" lon="2.10748">
        <ele>93.2</ele>
        <time>2022-08-10T07:12:05Z</time>
      </trkpt>
      <trkpt lat="49.92347" lon="2.10749">
        <ele>93.2</ele>
        <time>2022-08-10T07:12:06Z</time>
      </trkpt>
      <trkpt lat="49.92348" lon="2.10751">
        <ele>93.1</ele>
        <time>2022-08-10T07:12:07Z</time>
      </trkpt>
      <trkpt lat="49.92349" lon="2.10752">
        <ele>93.1</ele>
        <time>2022-08-10T07:12:08Z</time>
      </trkpt>
      <trkpt lat="49.92351" lon="2.10754">
        <ele>93</ele>
        <time>2022-08-10T07:12:09Z</time>
      </trkpt>
      <trkpt lat="49.92352" lon="2.10755">
        <ele>93</ele>
        <time>2022-08-10T07:12:11Z</time>
      </trkpt>
      <trkpt lat="49.92353" lon="2.10756">
        <ele>93</ele>
        <time>2022-08-10T07:12:12Z</time>
      </trkpt>
      <trkpt lat="49.92354" lon="2.10756">
        <ele>93</ele>
        <time>2022-08-10T07:12:13Z</time>
      </trkpt>
      <trkpt lat="49.92355" lon="2.10757">
        <ele>92.9</ele>
        <time>2022-08-10T07:12:14Z</time>
      </trkpt>
      <trkpt lat="49.92356" lon="2.10758">
        <ele>92.9</ele>
        <time>2022-08-10T07:12:15Z</time>
      </trkpt>
      <trkpt lat="49.92357" lon="2.1076">
        <ele>92.9</ele>
        <time>2022-08-10T07:12:17Z</time>
      </trkpt>
      <trkpt lat="49.92358" lon="2.10761">
        <ele>92.8</ele>
        <time>2022-08-10T07:12:18Z</time>
      </trkpt>
      <trkpt lat="49.92359" lon="2.10762">
        <ele>92.8</ele>
        <time>2022-08-10T07:12:19Z</time>
      </trkpt>
      <trkpt lat="49.92359" lon="2.10764">
        <ele>92.8</ele>
        <time>2022-08-10T07:12:20Z</time>
      </trkpt>
      <trkpt lat="49.9236" lon="2.10765">
        <ele>92.8</ele>
        <time>2022-08-10T07:12:21Z</time>
      </trkpt>
      <trkpt lat="49.92361" lon="2.10767">
        <ele>92.7</ele>
        <time>2022-08-10T07:12:23Z</time>
      </trkpt>
      <trkpt lat="49.92362" lon="2.10768">
        <ele>92.7</ele>
        <time>2022-08-10T07:12:24Z</time>
      </trkpt>
      <trkpt lat="49.92363" lon="2.10769">
        <ele>92.7</ele>
        <time>2022-08-10T07:12:25Z</time>
      </trkpt>
      <trkpt lat="49.92364" lon="2.1077">
        <ele>92.7</ele>
        <time>2022-08-10T07:12:26Z</time>
      </trkpt>
      <trkpt lat="49.92365" lon="2.10771">
        <ele>92.6</ele>
        <time>2022-08-10T07:12:27Z</time>
      </trkpt>
      <trkpt lat="49.92366" lon="2.10772">
        <ele>92.6</ele>
        <time>2022-08-10T07:12:28Z</time>
      </trkpt>
      <trkpt lat="49.92366" lon="2.10773">
        <ele>92.6</ele>
        <time>2022-08-10T07:12:29Z</time>
      </trkpt>
      <trkpt lat="49.92367" lon="2.10773">
        <ele>92.6</ele>
        <time>2022-08-10T07:12:30Z</time>
      </trkpt>
      <trkpt lat="49.92368" lon="2.10774">
        <ele>92.5</ele>
        <time>2022-08-10T07:12:31Z</time>
      </trkpt>
      <trkpt lat="49.92369" lon="2.10775">
        <ele>92.5</ele>
        <time>2022-08-10T07:12:32Z</time>
      </trkpt>
      <trkpt lat="49.9237" lon="2.10776">
        <ele>92.5</ele>
        <time>2022-08-10T07:12:33Z</time>
      </trkpt>
      <trkpt lat="49.9237" lon="2.10776">
        <ele>92.5</ele>
        <time>2022-08-10T07:12:35Z</time>
      </trkpt>
      <trkpt lat="49.92371" lon="2.10777">
        <ele>92.4</ele>
        <time>2022-08-10T07:12:36Z</time>
      </trkpt>
      <trkpt lat="49.92373" lon="2.10778">
        <ele>92.4</ele>
        <time>2022-08-10T07:12:37Z</time>
      </trkpt>
      <trkpt lat="49.92373" lon="2.10779">
        <ele>92.4</ele>
        <time>2022-08-10T07:12:38Z</time>
      </trkpt>
      <trkpt lat="49.92374" lon="2.1078">
        <ele>92.3</ele>
        <time>2022-08-10T07:12:39Z</time>
      </trkpt>
      <trkpt lat="49.92375" lon="2.1078">
        <ele>92.3</ele>
        <time>2022-08-10T07:12:40Z</time>
      </trkpt>
      <trkpt lat="49.92376" lon="2.10781">
        <ele>92.3</ele>
        <time>2022-08-10T07:12:41Z</time>
      </trkpt>
      <trkpt lat="49.92378" lon="2.10782">
        <ele>92.2</ele>
        <time>2022-08-10T07:12:42Z</time>
      </trkpt>
      <trkpt lat="49.92379" lon="2.10783">
        <ele>92.2</ele>
        <time>2022-08-10T07:12:43Z</time>
      </trkpt>
      <trkpt lat="49.9238" lon="2.10784">
        <ele>92.1</ele>
        <time>2022-08-10T07:12:44Z</time>
      </trkpt>
      <trkpt lat="49.92381" lon="2.10785">
        <ele>92.1</ele>
        <time>2022-08-10T07:12:45Z</time>
      </trkpt>
      <trkpt lat="49.92381" lon="2.10786">
        <ele>92.1</ele>
        <time>2022-08-10T07:12:46Z</time>
      </trkpt>
      <trkpt lat="49.92383" lon="2.10787">
        <ele>92</ele>
        <time>2022-08-10T07:12:48Z</time>
      </trkpt>
      <trkpt lat="49.92383" lon="2.10788">
        <ele>92</ele>
        <time>2022-08-10T07:12:49Z</time>
      </trkpt>
      <trkpt lat="49.92384" lon="2.10789">
        <ele>92</ele>
        <time>2022-08-10T07:12:50Z</time>
      </trkpt>
      <trkpt lat="49.92385" lon="2.1079">
        <ele>91.9</ele>
        <time>2022-08-10T07:12:51Z</time>
      </trkpt>
      <trkpt lat="49.92387" lon="2.10792">
        <ele>91.9</ele>
        <time>2022-08-10T07:12:52Z</time>
      </trkpt>
      <trkpt lat="49.92388" lon="2.10792">
        <ele>91.9</ele>
        <time>2022-08-10T07:12:53Z</time>
      </trkpt>
      <trkpt lat="49.92389" lon="2.10793">
        <ele>91.8</ele>
        <time>2022-08-10T07:12:54Z</time>
      </trkpt>
      <trkpt lat="49.9239" lon="2.10793">
        <ele>91.8</ele>
        <time>2022-08-10T07:12:55Z</time>
      </trkpt>
      <trkpt lat="49.92392" lon="2.10794">
        <ele>91.7</ele>
        <time>2022-08-10T07:12:57Z</time>
      </trkpt>
      <trkpt lat="49.92393" lon="2.10795">
        <ele>91.7</ele>
        <time>2022-08-10T07:12:58Z</time>
      </trkpt>
      <trkpt lat="49.92394" lon="2.10795">
        <ele>91.7</ele>
        <time>2022-08-10T07:12:59Z</time>
      </trkpt>
      <trkpt lat="49.92395" lon="2.10796">
        <ele>91.6</ele>
        <time>2022-08-10T07:13:00Z</time>
      </trkpt>
      <trkpt lat="49.92397" lon="2.10798">
        <ele>91.5</ele>
        <time>2022-08-10T07:13:02Z</time>
      </trkpt>
      <trkpt lat="49.92399" lon="2.10799">
        <ele>91.4</ele>
        <time>2022-08-10T07:13:03Z</time>
      </trkpt>
      <trkpt lat="49.924" lon="2.10799">
        <ele>91.4</ele>
        <time>2022-08-10T07:13:04Z</time>
      </trkpt>
      <trkpt lat="49.92401" lon="2.108">
        <ele>91.3</ele>
        <time>2022-08-10T07:13:05Z</time>
      </trkpt>
      <trkpt lat="49.92403" lon="2.10802">
        <ele>91.2</ele>
        <time>2022-08-10T07:13:07Z</time>
      </trkpt>
      <trkpt lat="49.92404" lon="2.10803">
        <ele>91.2</ele>
        <time>2022-08-10T07:13:08Z</time>
      </trkpt>
      <trkpt lat="49.92406" lon="2.10804">
        <ele>91.1</ele>
        <time>2022-08-10T07:13:09Z</time>
      </trkpt>
      <trkpt lat="49.92407" lon="2.10804">
        <ele>91.1</ele>
        <time>2022-08-10T07:13:10Z</time>
      </trkpt>
      <trkpt lat="49.92408" lon="2.10805">
        <ele>91</ele>
        <time>2022-08-10T07:13:11Z</time>
      </trkpt>
      <trkpt lat="49.92409" lon="2.10806">
        <ele>90.9</ele>
        <time>2022-08-10T07:13:12Z</time>
      </trkpt>
      <trkpt lat="49.9241" lon="2.10807">
        <ele>90.9</ele>
        <time>2022-08-10T07:13:13Z</time>
      </trkpt>
      <trkpt lat="49.92411" lon="2.10807">
        <ele>90.9</ele>
        <time>2022-08-10T07:13:14Z</time>
      </trkpt>
      <trkpt lat="49.92413" lon="2.10808">
        <ele>90.8</ele>
        <time>2022-08-10T07:13:16Z</time>
      </trkpt>
      <trkpt lat="49.92414" lon="2.10809">
        <ele>90.8</ele>
        <time>2022-08-10T07:13:17Z</time>
      </trkpt>
      <trkpt lat="49.92415" lon="2.10809">
        <ele>90.7</ele>
        <time>2022-08-10T07:13:18Z</time>
      </trkpt>
      <trkpt lat="49.92416" lon="2.1081">
        <ele>90.7</ele>
        <time>2022-08-10T07:13:19Z</time>
      </trkpt>
      <trkpt lat="49.92417" lon="2.10811">
        <ele>90.6</ele>
        <time>2022-08-10T07:13:20Z</time>
      </trkpt>
      <trkpt lat="49.92418" lon="2.10812">
        <ele>90.6</ele>
        <time>2022-08-10T07:13:21Z</time>
      </trkpt>
      <trkpt lat="49.92419" lon="2.10813">
        <ele>90.5</ele>
        <time>2022-08-10T07:13:22Z</time>
      </trkpt>
      <trkpt lat="49.9242" lon="2.10813">
        <ele>90.5</ele>
        <time>2022-08-10T07:13:23Z</time>
      </trkpt>
      <trkpt lat="49.92422" lon="2.10814">
        <ele>90.4</ele>
        <time>2022-08-10T07:13:25Z</time>
      </trkpt>
      <trkpt lat="49.92423" lon="2.10814">
        <ele>90.4</ele>
        <time>2022-08-10T07:13:26Z</time>
      </trkpt>
      <trkpt lat="49.92426" lon="2.10816">
        <ele>90.3</ele>
        <time>2022-08-10T07:13:28Z</time>
      </trkpt>
      <trkpt lat="49.92427" lon="2.10816">
        <ele>90.2</ele>
        <time>2022-08-10T07:13:30Z</time>
      </trkpt>
      <trkpt lat="49.92428" lon="2.10817">
        <ele>90.2</ele>
        <time>2022-08-10T07:13:31Z</time>
      </trkpt>
      <trkpt lat="49.92429" lon="2.10817">
        <ele>90.2</ele>
        <time>2022-08-10T07:13:32Z</time>
      </trkpt>
      <trkpt lat="49.92431" lon="2.10818">
        <ele>90.1</ele>
        <time>2022-08-10T07:13:33Z</time>
      </trkpt>
      <trkpt lat="49.92433" lon="2.1082">
        <ele>90</ele>
        <time>2022-08-10T07:13:35Z</time>
      </trkpt>
      <trkpt lat="49.92434" lon="2.1082">
        <ele>90</ele>
        <time>2022-08-10T07:13:36Z</time>
      </trkpt>
      <trkpt lat="49.92435" lon="2.1082">
        <ele>90</ele>
        <time>2022-08-10T07:13:37Z</time>
      </trkpt>
      <trkpt lat="49.92436" lon="2.10822">
        <ele>89.9</ele>
        <time>2022-08-10T07:13:38Z</time>
      </trkpt>
      <trkpt lat="49.92436" lon="2.10822">
        <ele>89.9</ele>
        <time>2022-08-10T07:13:39Z</time>
      </trkpt>
      <trkpt lat="49.92437" lon="2.10823">
        <ele>89.9</ele>
        <time>2022-08-10T07:13:40Z</time>
      </trkpt>
      <trkpt lat="49.92438" lon="2.10824">
        <ele>89.8</ele>
        <time>2022-08-10T07:13:41Z</time>
      </trkpt>
      <trkpt lat="49.92439" lon="2.10825">
        <ele>89.8</ele>
        <time>2022-08-10T07:13:42Z</time>
      </trkpt>
      <trkpt lat="49.92441" lon="2.10826">
        <ele>89.7</ele>
        <time>2022-08-10T07:13:43Z</time>
      </trkpt>
      <trkpt lat="49.92442" lon="2.10827">
        <ele>89.7</ele>
        <time>2022-08-10T07:13:44Z</time>
      </trkpt>
      <trkpt lat="49.92443" lon="2.10827">
        <ele>89.7</ele>
        <time>2022-08-10T07:13:45Z</time>
      </trkpt>
      <trkpt lat="49.92444" lon="2.10828">
        <ele>89.6</ele>
        <time>2022-08-10T07:13:46Z</time>
      </trkpt>
      <trkpt lat="49.92446" lon="2.1083">
        <ele>89.5</ele>
        <time>2022-08-10T07:13:47Z</time>
      </trkpt>
      <trkpt lat="49.92447" lon="2.10831">
        <ele>89.5</ele>
        <time>2022-08-10T07:13:49Z</time>
      </trkpt>
      <trkpt lat="49.92448" lon="2.10832">
        <ele>89.5</ele>
        <time>2022-08-10T07:13:50Z</time>
      </trkpt>
      <trkpt lat="49.92449" lon="2.10833">
        <ele>89.4</ele>
        <time>2022-08-10T07:13:51Z</time>
      </trkpt>
      <trkpt lat="49.92449" lon="2.10834">
        <ele>89.4</ele>
        <time>2022-08-10T07:13:52Z</time>
      </trkpt>
      <trkpt lat="49.92451" lon="2.10836">
        <ele>89.3</ele>
        <time>2022-08-10T07:13:53Z</time>
      </trkpt>
      <trkpt lat="49.92452" lon="2.10837">
        <ele>89.3</ele>
        <time>2022-08-10T07:13:54Z</time>
      </trkpt>
      <trkpt lat="49.92453" lon="2.10838">
        <ele>89.2</ele>
        <time>2022-08-10T07:13:55Z</time>
      </trkpt>
      <trkpt lat="49.92454" lon="2.10839">
        <ele>89.2</ele>
        <time>2022-08-10T07:13:57Z</time>
      </trkpt>
      <trkpt lat="49.92455" lon="2.1084">
        <ele>89.2</ele>
        <time>2022-08-10T07:13:58Z</time>
      </trkpt>
      <trkpt lat="49.92456" lon="2.10842">
        <ele>89.1</ele>
        <time>2022-08-10T07:13:59Z</time>
      </trkpt>
      <trkpt lat="49.92457" lon="2.10842">
        <ele>89.1</ele>
        <time>2022-08-10T07:14:00Z</time>
      </trkpt>
      <trkpt lat="49.92457" lon="2.10843">
        <ele>89.1</ele>
        <time>2022-08-10T07:14:01Z</time>
      </trkpt>
      <trkpt lat="49.92459" lon="2.10844">
        <ele>89.1</ele>
        <time>2022-08-10T07:14:02Z</time>
      </trkpt>
      <trkpt lat="49.9246" lon="2.10845">
        <ele>89</ele>
        <time>2022-08-10T07:14:03Z</time>
      </trkpt>
      <trkpt lat="49.92461" lon="2.10845">
        <ele>89</ele>
        <time>2022-08-10T07:14:04Z</time>
      </trkpt>
      <trkpt lat="49.92463" lon="2.10846">
        <ele>88.9</ele>
        <time>2022-08-10T07:14:06Z</time>
      </trkpt>
      <trkpt lat="49.92463" lon="2.10847">
        <ele>88.9</ele>
        <time>2022-08-10T07:14:07Z</time>
      </trkpt>
      <trkpt lat="49.92464" lon="2.10847">
        <ele>88.9</ele>
        <time>2022-08-10T07:14:08Z</time>
      </trkpt>
      <trkpt lat="49.92466" lon="2.10848">
        <ele>88.8</ele>
        <time>2022-08-10T07:14:09Z</time>
      </trkpt>
      <trkpt lat="49.92467" lon="2.10849">
        <ele>88.8</ele>
        <time>2022-08-10T07:14:10Z</time>
      </trkpt>
      <trkpt lat="49.92468" lon="2.1085">
        <ele>88.8</ele>
        <time>2022-08-10T07:14:11Z</time>
      </trkpt>
      <trkpt lat="49.92469" lon="2.1085">
        <ele>88.7</ele>
        <time>2022-08-10T07:14:12Z</time>
      </trkpt>
      <trkpt lat="49.92471" lon="2.10852">
        <ele>88.7</ele>
        <time>2022-08-10T07:14:13Z</time>
      </trkpt>
      <trkpt lat="49.92472" lon="2.10853">
        <ele>88.6</ele>
        <time>2022-08-10T07:14:15Z</time>
      </trkpt>
      <trkpt lat="49.92473" lon="2.10854">
        <ele>88.6</ele>
        <time>2022-08-10T07:14:16Z</time>
      </trkpt>
      <trkpt lat="49.92474" lon="2.10854">
        <ele>88.6</ele>
        <time>2022-08-10T07:14:17Z</time>
      </trkpt>
      <trkpt lat="49.92475" lon="2.10855">
        <ele>88.6</ele>
        <time>2022-08-10T07:14:18Z</time>
      </trkpt>
      <trkpt lat="49.92476" lon="2.10856">
        <ele>88.5</ele>
        <time>2022-08-10T07:14:19Z</time>
      </trkpt>
      <trkpt lat="49.92477" lon="2.10857">
        <ele>88.5</ele>
        <time>2022-08-10T07:14:20Z</time>
      </trkpt>
      <trkpt lat="49.92478" lon="2.10858">
        <ele>88.5</ele>
        <time>2022-08-10T07:14:21Z</time>
      </trkpt>
      <trkpt lat="49.92479" lon="2.10859">
        <ele>88.5</ele>
        <time>2022-08-10T07:14:23Z</time>
      </trkpt>
      <trkpt lat="49.92481" lon="2.10861">
        <ele>88.4</ele>
        <time>2022-08-10T07:14:24Z</time>
      </trkpt>
      <trkpt lat="49.92481" lon="2.10861">
        <ele>88.4</ele>
        <time>2022-08-10T07:14:25Z</time>
      </trkpt>
      <trkpt lat="49.92482" lon="2.10862">
        <ele>88.4</ele>
        <time>2022-08-10T07:14:26Z</time>
      </trkpt>
      <trkpt lat="49.92483" lon="2.10863">
        <ele>88.3</ele>
        <time>2022-08-10T07:14:27Z</time>
      </trkpt>
      <trkpt lat="49.92485" lon="2.10864">
        <ele>88.3</ele>
        <time>2022-08-10T07:14:28Z</time>
      </trkpt>
      <trkpt lat="49.92486" lon="2.10865">
        <ele>88.3</ele>
        <time>2022-08-10T07:14:29Z</time>
      </trkpt>
      <trkpt lat="49.92488" lon="2.10867">
        <ele>88.2</ele>
        <time>2022-08-10T07:14:30Z</time>
      </trkpt>
      <trkpt lat="49.92489" lon="2.10867">
        <ele>88.2</ele>
        <time>2022-08-10T07:14:31Z</time>
      </trkpt>
      <trkpt lat="49.92489" lon="2.10868">
        <ele>88.2</ele>
        <time>2022-08-10T07:14:32Z</time>
      </trkpt>
      <trkpt lat="49.92491" lon="2.1087">
        <ele>88.1</ele>
        <time>2022-08-10T07:14:34Z</time>
      </trkpt>
      <trkpt lat="49.92492" lon="2.1087">
        <ele>88.1</ele>
        <time>2022-08-10T07:14:35Z</time>
      </trkpt>
      <trkpt lat="49.92493" lon="2.10871">
        <ele>88.1</ele>
        <time>2022-08-10T07:14:36Z</time>
      </trkpt>
      <trkpt lat="49.92494" lon="2.10872">
        <ele>88.1</ele>
        <time>2022-08-10T07:14:37Z</time>
      </trkpt>
      <trkpt lat="49.92496" lon="2.10874">
        <ele>88</ele>
        <time>2022-08-10T07:14:39Z</time>
      </trkpt>
      <trkpt lat="49.92498" lon="2.10876">
        <ele>88</ele>
        <time>2022-08-10T07:14:40Z</time>
      </trkpt>
      <trkpt lat="49.92499" lon="2.10876">
        <ele>88</ele>
        <time>2022-08-10T07:14:41Z</time>
      </trkpt>
      <trkpt lat="49.925" lon="2.10877">
        <ele>88</ele>
        <time>2022-08-10T07:14:42Z</time>
      </trkpt>
      <trkpt lat="49.92502" lon="2.10879">
        <ele>87.9</ele>
        <time>2022-08-10T07:14:43Z</time>
      </trkpt>
      <trkpt lat="49.92503" lon="2.1088">
        <ele>87.9</ele>
        <time>2022-08-10T07:14:44Z</time>
      </trkpt>
      <trkpt lat="49.92505" lon="2.10881">
        <ele>87.9</ele>
        <time>2022-08-10T07:14:45Z</time>
      </trkpt>
      <trkpt lat="49.92505" lon="2.10882">
        <ele>87.9</ele>
        <time>2022-08-10T07:14:46Z</time>
      </trkpt>
      <trkpt lat="49.92506" lon="2.10882">
        <ele>87.9</ele>
        <time>2022-08-10T07:14:47Z</time>
      </trkpt>
      <trkpt lat="49.92508" lon="2.10884">
        <ele>87.9</ele>
        <time>2022-08-10T07:14:49Z</time>
      </trkpt>
      <trkpt lat="49.92509" lon="2.10884">
        <ele>87.9</ele>
        <time>2022-08-10T07:14:50Z</time>
      </trkpt>
      <trkpt lat="49.9251" lon="2.10885">
        <ele>87.8</ele>
        <time>2022-08-10T07:14:51Z</time>
      </trkpt>
      <trkpt lat="49.92511" lon="2.10886">
        <ele>87.8</ele>
        <time>2022-08-10T07:14:52Z</time>
      </trkpt>
      <trkpt lat="49.92512" lon="2.10886">
        <ele>87.8</ele>
        <time>2022-08-10T07:14:53Z</time>
      </trkpt>
      <trkpt lat="49.92513" lon="2.10888">
        <ele>87.8</ele>
        <time>2022-08-10T07:14:54Z</time>
      </trkpt>
      <trkpt lat="49.92514" lon="2.10889">
        <ele>87.8</ele>
        <time>2022-08-10T07:14:55Z</time>
      </trkpt>
      <trkpt lat="49.92516" lon="2.1089">
        <ele>87.8</ele>
        <time>2022-08-10T07:14:57Z</time>
      </trkpt>
      <trkpt lat="49.92517" lon="2.10892">
        <ele>87.8</ele>
        <time>2022-08-10T07:14:58Z</time>
      </trkpt>
      <trkpt lat="49.92518" lon="2.10894">
        <ele>87.8</ele>
        <time>2022-08-10T07:14:59Z</time>
      </trkpt>
      <trkpt lat="49.92519" lon="2.10895">
        <ele>87.7</ele>
        <time>2022-08-10T07:15:00Z</time>
      </trkpt>
      <trkpt lat="49.9252" lon="2.10895">
        <ele>87.7</ele>
        <time>2022-08-10T07:15:01Z</time>
      </trkpt>
      <trkpt lat="49.92521" lon="2.10897">
        <ele>87.7</ele>
        <time>2022-08-10T07:15:02Z</time>
      </trkpt>
      <trkpt lat="49.92522" lon="2.10898">
        <ele>87.7</ele>
        <time>2022-08-10T07:15:03Z</time>
      </trkpt>
      <trkpt lat="49.92523" lon="2.10899">
        <ele>87.7</ele>
        <time>2022-08-10T07:15:04Z</time>
      </trkpt>
      <trkpt lat="49.92524" lon="2.10902">
        <ele>87.7</ele>
        <time>2022-08-10T07:15:05Z</time>
      </trkpt>
      <trkpt lat="49.92525" lon="2.10903">
        <ele>87.6</ele>
        <time>2022-08-10T07:15:07Z</time>
      </trkpt>
      <trkpt lat="49.92526" lon="2.10904">
        <ele>87.6</ele>
        <time>2022-08-10T07:15:08Z</time>
      </trkpt>
      <trkpt lat="49.92527" lon="2.10905">
        <ele>87.6</ele>
        <time>2022-08-10T07:15:09Z</time>
      </trkpt>
      <trkpt lat="49.92528" lon="2.10906">
        <ele>87.6</ele>
        <time>2022-08-10T07:15:10Z</time>
      </trkpt>
      <trkpt lat="49.92529" lon="2.10907">
        <ele>87.6</ele>
        <time>2022-08-10T07:15:11Z</time>
      </trkpt>
      <trkpt lat="49.9253" lon="2.10908">
        <ele>87.5</ele>
        <time>2022-08-10T07:15:12Z</time>
      </trkpt>
      <trkpt lat="49.92531" lon="2.10909">
        <ele>87.5</ele>
        <time>2022-08-10T07:15:13Z</time>
      </trkpt>
      <trkpt lat="49.92532" lon="2.1091">
        <ele>87.5</ele>
        <time>2022-08-10T07:15:14Z</time>
      </trkpt>
      <trkpt lat="49.92533" lon="2.10911">
        <ele>87.5</ele>
        <time>2022-08-10T07:15:15Z</time>
      </trkpt>
      <trkpt lat="49.92534" lon="2.10912">
        <ele>87.5</ele>
        <time>2022-08-10T07:15:17Z</time>
      </trkpt>
      <trkpt lat="49.92535" lon="2.10913">
        <ele>87.4</ele>
        <time>2022-08-10T07:15:18Z</time>
      </trkpt>
      <trkpt lat="49.92536" lon="2.10915">
        <ele>87.4</ele>
        <time>2022-08-10T07:15:19Z</time>
      </trkpt>
      <trkpt lat="49.92538" lon="2.10917">
        <ele>87.4</ele>
        <time>2022-08-10T07:15:20Z</time>
      </trkpt>
      <trkpt lat="49.92538" lon="2.10918">
        <ele>87.4</ele>
        <time>2022-08-10T07:15:21Z</time>
      </trkpt>
      <trkpt lat="49.92539" lon="2.10919">
        <ele>87.3</ele>
        <time>2022-08-10T07:15:22Z</time>
      </trkpt>
      <trkpt lat="49.9254" lon="2.1092">
        <ele>87.3</ele>
        <time>2022-08-10T07:15:23Z</time>
      </trkpt>
      <trkpt lat="49.92541" lon="2.10921">
        <ele>87.3</ele>
        <time>2022-08-10T07:15:24Z</time>
      </trkpt>
      <trkpt lat="49.92543" lon="2.10923">
        <ele>87.2</ele>
        <time>2022-08-10T07:15:25Z</time>
      </trkpt>
      <trkpt lat="49.92544" lon="2.10924">
        <ele>87.2</ele>
        <time>2022-08-10T07:15:26Z</time>
      </trkpt>
      <trkpt lat="49.92545" lon="2.10925">
        <ele>87.2</ele>
        <time>2022-08-10T07:15:28Z</time>
      </trkpt>
      <trkpt lat="49.92546" lon="2.10927">
        <ele>87.2</ele>
        <time>2022-08-10T07:15:29Z</time>
      </trkpt>
      <trkpt lat="49.92546" lon="2.10928">
        <ele>87.2</ele>
        <time>2022-08-10T07:15:30Z</time>
      </trkpt>
      <trkpt lat="49.92547" lon="2.10929">
        <ele>87.2</ele>
        <time>2022-08-10T07:15:31Z</time>
      </trkpt>
      <trkpt lat="49.92548" lon="2.1093">
        <ele>87.2</ele>
        <time>2022-08-10T07:15:32Z</time>
      </trkpt>
      <trkpt lat="49.9255" lon="2.10932">
        <ele>87.1</ele>
        <time>2022-08-10T07:15:33Z</time>
      </trkpt>
      <trkpt lat="49.92552" lon="2.10934">
        <ele>87.1</ele>
        <time>2022-08-10T07:15:35Z</time>
      </trkpt>
      <trkpt lat="49.92552" lon="2.10935">
        <ele>87.1</ele>
        <time>2022-08-10T07:15:36Z</time>
      </trkpt>
      <trkpt lat="49.92553" lon="2.10936">
        <ele>87.1</ele>
        <time>2022-08-10T07:15:37Z</time>
      </trkpt>
      <trkpt lat="49.92554" lon="2.10937">
        <ele>87.1</ele>
        <time>2022-08-10T07:15:38Z</time>
      </trkpt>
      <trkpt lat="49.92555" lon="2.10939">
        <ele>87.1</ele>
        <time>2022-08-10T07:15:39Z</time>
      </trkpt>
      <trkpt lat="49.92556" lon="2.1094">
        <ele>87.1</ele>
        <time>2022-08-10T07:15:40Z</time>
      </trkpt>
      <trkpt lat="49.92556" lon="2.10941">
        <ele>87.1</ele>
        <time>2022-08-10T07:15:41Z</time>
      </trkpt>
      <trkpt lat="49.92557" lon="2.10943">
        <ele>87.1</ele>
        <time>2022-08-10T07:15:42Z</time>
      </trkpt>
      <trkpt lat="49.92559" lon="2.10945">
        <ele>87.1</ele>
        <time>2022-08-10T07:15:44Z</time>
      </trkpt>
      <trkpt lat="49.92559" lon="2.10946">
        <ele>87.1</ele>
        <time>2022-08-10T07:15:45Z</time>
      </trkpt>
      <trkpt lat="49.9256" lon="2.10948">
        <ele>87.1</ele>
        <time>2022-08-10T07:15:46Z</time>
      </trkpt>
      <trkpt lat="49.9256" lon="2.10949">
        <ele>87.1</ele>
        <time>2022-08-10T07:15:47Z</time>
      </trkpt>
      <trkpt lat="49.92562" lon="2.1095">
        <ele>87</ele>
        <time>2022-08-10T07:15:48Z</time>
      </trkpt>
      <trkpt lat="49.92563" lon="2.10952">
        <ele>87</ele>
        <time>2022-08-10T07:15:50Z</time>
      </trkpt>
      <trkpt lat="49.92564" lon="2.10953">
        <ele>87</ele>
        <time>2022-08-10T07:15:51Z</time>
      </trkpt>
      <trkpt lat="49.92564" lon="2.10953">
        <ele>87</ele>
        <time>2022-08-10T07:15:52Z</time>
      </trkpt>
      <trkpt lat="49.92565" lon="2.10954">
        <ele>87</ele>
        <time>2022-08-10T07:15:53Z</time>
      </trkpt>
      <trkpt lat="49.92566" lon="2.10956">
        <ele>87</ele>
        <time>2022-08-10T07:15:54Z</time>
      </trkpt>
      <trkpt lat="49.92568" lon="2.10958">
        <ele>86.9</ele>
        <time>2022-08-10T07:15:56Z</time>
      </trkpt>
      <trkpt lat="49.92569" lon="2.10959">
        <ele>86.9</ele>
        <time>2022-08-10T07:15:57Z</time>
      </trkpt>
      <trkpt lat="49.9257" lon="2.10959">
        <ele>86.9</ele>
        <time>2022-08-10T07:15:58Z</time>
      </trkpt>
      <trkpt lat="49.92572" lon="2.10961">
        <ele>86.8</ele>
        <time>2022-08-10T07:16:00Z</time>
      </trkpt>
      <trkpt lat="49.92573" lon="2.10961">
        <ele>86.8</ele>
        <time>2022-08-10T07:16:01Z</time>
      </trkpt>
      <trkpt lat="49.92573" lon="2.10962">
        <ele>86.8</ele>
        <time>2022-08-10T07:16:02Z</time>
      </trkpt>
      <trkpt lat="49.92574" lon="2.10962">
        <ele>86.8</ele>
        <time>2022-08-10T07:16:03Z</time>
      </trkpt>
      <trkpt lat="49.92576" lon="2.10964">
        <ele>86.8</ele>
        <time>2022-08-10T07:16:04Z</time>
      </trkpt>
      <trkpt lat="49.92577" lon="2.10965">
        <ele>86.7</ele>
        <time>2022-08-10T07:16:05Z</time>
      </trkpt>
      <trkpt lat="49.92577" lon="2.10965">
        <ele>86.7</ele>
        <time>2022-08-10T07:16:06Z</time>
      </trkpt>
      <trkpt lat="49.92578" lon="2.10967">
        <ele>86.7</ele>
        <time>2022-08-10T07:16:07Z</time>
      </trkpt>
      <trkpt lat="49.9258" lon="2.10968">
        <ele>86.7</ele>
        <time>2022-08-10T07:16:09Z</time>
      </trkpt>
      <trkpt lat="49.92581" lon="2.10969">
        <ele>86.7</ele>
        <time>2022-08-10T07:16:10Z</time>
      </trkpt>
      <trkpt lat="49.92582" lon="2.10969">
        <ele>86.7</ele>
        <time>2022-08-10T07:16:11Z</time>
      </trkpt>
      <trkpt lat="49.92584" lon="2.1097">
        <ele>86.6</ele>
        <time>2022-08-10T07:16:12Z</time>
      </trkpt>
      <trkpt lat="49.92585" lon="2.10971">
        <ele>86.6</ele>
        <time>2022-08-10T07:16:13Z</time>
      </trkpt>
      <trkpt lat="49.92586" lon="2.10972">
        <ele>86.6</ele>
        <time>2022-08-10T07:16:14Z</time>
      </trkpt>
      <trkpt lat="49.92587" lon="2.10972">
        <ele>86.6</ele>
        <time>2022-08-10T07:16:15Z</time>
      </trkpt>
      <trkpt lat="49.92588" lon="2.10974">
        <ele>86.6</ele>
        <time>2022-08-10T07:16:17Z</time>
      </trkpt>
      <trkpt lat="49.92589" lon="2.10975">
        <ele>86.6</ele>
        <time>2022-08-10T07:16:18Z</time>
      </trkpt>
      <trkpt lat="49.9259" lon="2.10976">
        <ele>86.6</ele>
        <time>2022-08-10T07:16:19Z</time>
      </trkpt>
      <trkpt lat="49.92591" lon="2.10977">
        <ele>86.6</ele>
        <time>2022-08-10T07:16:20Z</time>
      </trkpt>
      <trkpt lat="49.92592" lon="2.10978">
        <ele>86.6</ele>
        <time>2022-08-10T07:16:21Z</time>
      </trkpt>
      <trkpt lat="49.92593" lon="2.10979">
        <ele>86.6</ele>
        <time>2022-08-10T07:16:22Z</time>
      </trkpt>
      <trkpt lat="49.92594" lon="2.10981">
        <ele>86.5</ele>
        <time>2022-08-10T07:16:23Z</time>
      </trkpt>
      <trkpt lat="49.92595" lon="2.10982">
        <ele>86.5</ele>
        <time>2022-08-10T07:16:24Z</time>
      </trkpt>
      <trkpt lat="49.92595" lon="2.10983">
        <ele>86.5</ele>
        <time>2022-08-10T07:16:25Z</time>
      </trkpt>
      <trkpt lat="49.92596" lon="2.10983">
        <ele>86.5</ele>
        <time>2022-08-10T07:16:27Z</time>
      </trkpt>
      <trkpt lat="49.92597" lon="2.10984">
        <ele>86.5</ele>
        <time>2022-08-10T07:16:28Z</time>
      </trkpt>
      <trkpt lat="49.92598" lon="2.10985">
        <ele>86.5</ele>
        <time>2022-08-10T07:16:29Z</time>
      </trkpt>
      <trkpt lat="49.926" lon="2.10986">
        <ele>86.5</ele>
        <time>2022-08-10T07:16:30Z</time>
      </trkpt>
      <trkpt lat="49.926" lon="2.10987">
        <ele>86.5</ele>
        <time>2022-08-10T07:16:31Z</time>
      </trkpt>
      <trkpt lat="49.92602" lon="2.10987">
        <ele>86.5</ele>
        <time>2022-08-10T07:16:32Z</time>
      </trkpt>
      <trkpt lat="49.92603" lon="2.10988">
        <ele>86.5</ele>
        <time>2022-08-10T07:16:33Z</time>
      </trkpt>
      <trkpt lat="49.92604" lon="2.10989">
        <ele>86.5</ele>
        <time>2022-08-10T07:16:34Z</time>
      </trkpt>
      <trkpt lat="49.92605" lon="2.1099">
        <ele>86.5</ele>
        <time>2022-08-10T07:16:35Z</time>
      </trkpt>
      <trkpt lat="49.92606" lon="2.10991">
        <ele>86.5</ele>
        <time>2022-08-10T07:16:36Z</time>
      </trkpt>
      <trkpt lat="49.92607" lon="2.10992">
        <ele>86.4</ele>
        <time>2022-08-10T07:16:37Z</time>
      </trkpt>
      <trkpt lat="49.92608" lon="2.10993">
        <ele>86.4</ele>
        <time>2022-08-10T07:16:39Z</time>
      </trkpt>
      <trkpt lat="49.9261" lon="2.10994">
        <ele>86.4</ele>
        <time>2022-08-10T07:16:40Z</time>
      </trkpt>
      <trkpt lat="49.92611" lon="2.10995">
        <ele>86.4</ele>
        <time>2022-08-10T07:16:41Z</time>
      </trkpt>
      <trkpt lat="49.92612" lon="2.10995">
        <ele>86.4</ele>
        <time>2022-08-10T07:16:42Z</time>
      </trkpt>
      <trkpt lat="49.92614" lon="2.10996">
        <ele>86.4</ele>
        <time>2022-08-10T07:16:43Z</time>
      </trkpt>
      <trkpt lat="49.92615" lon="2.10997">
        <ele>86.4</ele>
        <time>2022-08-10T07:16:44Z</time>
      </trkpt>
      <trkpt lat="49.92617" lon="2.10998">
        <ele>86.4</ele>
        <time>2022-08-10T07:16:45Z</time>
      </trkpt>
      <trkpt lat="49.92618" lon="2.10999">
        <ele>86.4</ele>
        <time>2022-08-10T07:16:47Z</time>
      </trkpt>
      <trkpt lat="49.92619" lon="2.10999">
        <ele>86.3</ele>
        <time>2022-08-10T07:16:48Z</time>
      </trkpt>
      <trkpt lat="49.9262" lon="2.11">
        <ele>86.3</ele>
        <time>2022-08-10T07:16:49Z</time>
      </trkpt>
      <trkpt lat="49.92621" lon="2.11001">
        <ele>86.3</ele>
        <time>2022-08-10T07:16:50Z</time>
      </trkpt>
      <trkpt lat="49.92621" lon="2.11001">
        <ele>86.3</ele>
        <time>2022-08-10T07:16:51Z</time>
      </trkpt>
      <trkpt lat="49.92622" lon="2.11001">
        <ele>86.3</ele>
        <time>2022-08-10T07:16:52Z</time>
      </trkpt>
      <trkpt lat="49.92623" lon="2.11002">
        <ele>86.3</ele>
        <time>2022-08-10T07:16:53Z</time>
      </trkpt>
      <trkpt lat="49.92625" lon="2.11003">
        <ele>86.3</ele>
        <time>2022-08-10T07:16:54Z</time>
      </trkpt>
      <trkpt lat="49.92626" lon="2.11004">
        <ele>86.3</ele>
        <time>2022-08-10T07:16:55Z</time>
      </trkpt>
      <trkpt lat="49.92628" lon="2.11005">
        <ele>86.3</ele>
        <time>2022-08-10T07:16:56Z</time>
      </trkpt>
      <trkpt lat="49.92628" lon="2.11006">
        <ele>86.3</ele>
        <time>2022-08-10T07:16:57Z</time>
      </trkpt>
      <trkpt lat="49.92629" lon="2.11007">
        <ele>86.3</ele>
        <time>2022-08-10T07:16:59Z</time>
      </trkpt>
      <trkpt lat="49.9263" lon="2.11008">
        <ele>86.3</ele>
        <time>2022-08-10T07:17:00Z</time>
      </trkpt>
      <trkpt lat="49.92631" lon="2.11009">
        <ele>86.3</ele>
        <time>2022-08-10T07:17:01Z</time>
      </trkpt>
      <trkpt lat="49.92633" lon="2.1101">
        <ele>86.3</ele>
        <time>2022-08-10T07:17:02Z</time>
      </trkpt>
      <trkpt lat="49.92633" lon="2.11011">
        <ele>86.2</ele>
        <time>2022-08-10T07:17:03Z</time>
      </trkpt>
      <trkpt lat="49.92635" lon="2.11013">
        <ele>86.2</ele>
        <time>2022-08-10T07:17:04Z</time>
      </trkpt>
      <trkpt lat="49.92636" lon="2.11014">
        <ele>86.2</ele>
        <time>2022-08-10T07:17:05Z</time>
      </trkpt>
      <trkpt lat="49.92637" lon="2.11014">
        <ele>86.2</ele>
        <time>2022-08-10T07:17:06Z</time>
      </trkpt>
      <trkpt lat="49.92638" lon="2.11016">
        <ele>86.2</ele>
        <time>2022-08-10T07:17:08Z</time>
      </trkpt>
      <trkpt lat="49.92639" lon="2.11017">
        <ele>86.2</ele>
        <time>2022-08-10T07:17:09Z</time>
      </trkpt>
      <trkpt lat="49.92639" lon="2.11018">
        <ele>86.2</ele>
        <time>2022-08-10T07:17:10Z</time>
      </trkpt>
      <trkpt lat="49.92641" lon="2.1102">
        <ele>86.2</ele>
        <time>2022-08-10T07:17:11Z</time>
      </trkpt>
      <trkpt lat="49.92642" lon="2.1102">
        <ele>86.2</ele>
        <time>2022-08-10T07:17:12Z</time>
      </trkpt>
      <trkpt lat="49.92642" lon="2.11021">
        <ele>86.2</ele>
        <time>2022-08-10T07:17:13Z</time>
      </trkpt>
      <trkpt lat="49.92644" lon="2.11022">
        <ele>86.2</ele>
        <time>2022-08-10T07:17:14Z</time>
      </trkpt>
      <trkpt lat="49.92645" lon="2.11023">
        <ele>86.2</ele>
        <time>2022-08-10T07:17:15Z</time>
      </trkpt>
      <trkpt lat="49.92646" lon="2.11023">
        <ele>86.2</ele>
        <time>2022-08-10T07:17:16Z</time>
      </trkpt>
      <trkpt lat="49.92647" lon="2.11024">
        <ele>86.2</ele>
        <time>2022-08-10T07:17:18Z</time>
      </trkpt>
      <trkpt lat="49.92649" lon="2.11025">
        <ele>86.2</ele>
        <time>2022-08-10T07:17:19Z</time>
      </trkpt>
      <trkpt lat="49.9265" lon="2.11026">
        <ele>86.2</ele>
        <time>2022-08-10T07:17:20Z</time>
      </trkpt>
      <trkpt lat="49.92652" lon="2.11026">
        <ele>86.2</ele>
        <time>2022-08-10T07:17:21Z</time>
      </trkpt>
      <trkpt lat="49.92654" lon="2.11027">
        <ele>86.2</ele>
        <time>2022-08-10T07:17:22Z</time>
      </trkpt>
      <trkpt lat="49.92655" lon="2.11028">
        <ele>86.2</ele>
        <time>2022-08-10T07:17:23Z</time>
      </trkpt>
      <trkpt lat="49.92656" lon="2.11028">
        <ele>86.2</ele>
        <time>2022-08-10T07:17:24Z</time>
      </trkpt>
      <trkpt lat="49.92657" lon="2.11029">
        <ele>86.2</ele>
        <time>2022-08-10T07:17:25Z</time>
      </trkpt>
      <trkpt lat="49.92658" lon="2.11029">
        <ele>86.2</ele>
        <time>2022-08-10T07:17:26Z</time>
      </trkpt>
      <trkpt lat="49.92659" lon="2.11029">
        <ele>86.2</ele>
        <time>2022-08-10T07:17:27Z</time>
      </trkpt>
      <trkpt lat="49.9266" lon="2.1103">
        <ele>86.2</ele>
        <time>2022-08-10T07:17:28Z</time>
      </trkpt>
      <trkpt lat="49.92661" lon="2.11031">
        <ele>86.2</ele>
        <time>2022-08-10T07:17:30Z</time>
      </trkpt>
      <trkpt lat="49.92662" lon="2.11031">
        <ele>86.2</ele>
        <time>2022-08-10T07:17:31Z</time>
      </trkpt>
      <trkpt lat="49.92664" lon="2.11032">
        <ele>86.2</ele>
        <time>2022-08-10T07:17:32Z</time>
      </trkpt>
      <trkpt lat="49.92666" lon="2.11033">
        <ele>86.2</ele>
        <time>2022-08-10T07:17:33Z</time>
      </trkpt>
      <trkpt lat="49.92667" lon="2.11033">
        <ele>86.2</ele>
        <time>2022-08-10T07:17:34Z</time>
      </trkpt>
      <trkpt lat="49.92668" lon="2.11034">
        <ele>86.2</ele>
        <time>2022-08-10T07:17:35Z</time>
      </trkpt>
      <trkpt lat="49.92669" lon="2.11034">
        <ele>86.2</ele>
        <time>2022-08-10T07:17:36Z</time>
      </trkpt>
      <trkpt lat="49.9267" lon="2.11035">
        <ele>86.2</ele>
        <time>2022-08-10T07:17:37Z</time>
      </trkpt>
      <trkpt lat="49.92672" lon="2.11036">
        <ele>86.2</ele>
        <time>2022-08-10T07:17:38Z</time>
      </trkpt>
      <trkpt lat="49.92673" lon="2.11036">
        <ele>86.2</ele>
        <time>2022-08-10T07:17:39Z</time>
      </trkpt>
      <trkpt lat="49.92674" lon="2.11037">
        <ele>86.2</ele>
        <time>2022-08-10T07:17:41Z</time>
      </trkpt>
      <trkpt lat="49.92675" lon="2.11037">
        <ele>86.2</ele>
        <time>2022-08-10T07:17:42Z</time>
      </trkpt>
      <trkpt lat="49.92676" lon="2.11037">
        <ele>86.2</ele>
        <time>2022-08-10T07:17:43Z</time>
      </trkpt>
      <trkpt lat="49.92677" lon="2.11038">
        <ele>86.2</ele>
        <time>2022-08-10T07:17:44Z</time>
      </trkpt>
      <trkpt lat="49.92678" lon="2.11038">
        <ele>86.2</ele>
        <time>2022-08-10T07:17:45Z</time>
      </trkpt>
      <trkpt lat="49.9268" lon="2.11039">
        <ele>86.2</ele>
        <time>2022-08-10T07:17:46Z</time>
      </trkpt>
      <trkpt lat="49.92681" lon="2.11039">
        <ele>86.2</ele>
        <time>2022-08-10T07:17:47Z</time>
      </trkpt>
      <trkpt lat="49.92683" lon="2.1104">
        <ele>86.2</ele>
        <time>2022-08-10T07:17:49Z</time>
      </trkpt>
      <trkpt lat="49.92684" lon="2.1104">
        <ele>86.2</ele>
        <time>2022-08-10T07:17:50Z</time>
      </trkpt>
      <trkpt lat="49.92684" lon="2.1104">
        <ele>86.2</ele>
        <time>2022-08-10T07:17:51Z</time>
      </trkpt>
      <trkpt lat="49.92686" lon="2.11041">
        <ele>86.2</ele>
        <time>2022-08-10T07:17:52Z</time>
      </trkpt>
      <trkpt lat="49.92687" lon="2.11041">
        <ele>86.2</ele>
        <time>2022-08-10T07:17:53Z</time>
      </trkpt>
      <trkpt lat="49.92689" lon="2.11042">
        <ele>86.2</ele>
        <time>2022-08-10T07:17:54Z</time>
      </trkpt>
      <trkpt lat="49.9269" lon="2.11043">
        <ele>86.2</ele>
        <time>2022-08-10T07:17:55Z</time>
      </trkpt>
      <trkpt lat="49.92693" lon="2.11044">
        <ele>86.2</ele>
        <time>2022-08-10T07:17:56Z</time>
      </trkpt>
      <trkpt lat="49.92694" lon="2.11044">
        <ele>86.2</ele>
        <time>2022-08-10T07:17:58Z</time>
      </trkpt>
      <trkpt lat="49.92695" lon="2.11045">
        <ele>86.2</ele>
        <time>2022-08-10T07:17:59Z</time>
      </trkpt>
      <trkpt lat="49.92695" lon="2.11045">
        <ele>86.2</ele>
        <time>2022-08-10T07:18:00Z</time>
      </trkpt>
      <trkpt lat="49.92696" lon="2.11046">
        <ele>86.2</ele>
        <time>2022-08-10T07:18:01Z</time>
      </trkpt>
      <trkpt lat="49.92698" lon="2.11047">
        <ele>86.2</ele>
        <time>2022-08-10T07:18:02Z</time>
      </trkpt>
      <trkpt lat="49.92698" lon="2.11047">
        <ele>86.2</ele>
        <time>2022-08-10T07:18:03Z</time>
      </trkpt>
      <trkpt lat="49.927" lon="2.11047">
        <ele>86.2</ele>
        <time>2022-08-10T07:18:04Z</time>
      </trkpt>
      <trkpt lat="49.92701" lon="2.11047">
        <ele>86.2</ele>
        <time>2022-08-10T07:18:05Z</time>
      </trkpt>
      <trkpt lat="49.92703" lon="2.11047">
        <ele>86.2</ele>
        <time>2022-08-10T07:18:06Z</time>
      </trkpt>
      <trkpt lat="49.92704" lon="2.11047">
        <ele>86.2</ele>
        <time>2022-08-10T07:18:07Z</time>
      </trkpt>
      <trkpt lat="49.92706" lon="2.11047">
        <ele>86.2</ele>
        <time>2022-08-10T07:18:08Z</time>
      </trkpt>
      <trkpt lat="49.92707" lon="2.11047">
        <ele>86.2</ele>
        <time>2022-08-10T07:18:09Z</time>
      </trkpt>
      <trkpt lat="49.92709" lon="2.11046">
        <ele>86.2</ele>
        <time>2022-08-10T07:18:11Z</time>
      </trkpt>
      <trkpt lat="49.92711" lon="2.11046">
        <ele>86.2</ele>
        <time>2022-08-10T07:18:12Z</time>
      </trkpt>
      <trkpt lat="49.92712" lon="2.11046">
        <ele>86.2</ele>
        <time>2022-08-10T07:18:13Z</time>
      </trkpt>
      <trkpt lat="49.92713" lon="2.11046">
        <ele>86.2</ele>
        <time>2022-08-10T07:18:14Z</time>
      </trkpt>
      <trkpt lat="49.92714" lon="2.11046">
        <ele>86.2</ele>
        <time>2022-08-10T07:18:15Z</time>
      </trkpt>
      <trkpt lat="49.92715" lon="2.11046">
        <ele>86.2</ele>
        <time>2022-08-10T07:18:16Z</time>
      </trkpt>
      <trkpt lat="49.92717" lon="2.11046">
        <ele>86.2</ele>
        <time>2022-08-10T07:18:17Z</time>
      </trkpt>
      <trkpt lat="49.92718" lon="2.11046">
        <ele>86.2</ele>
        <time>2022-08-10T07:18:18Z</time>
      </trkpt>
      <trkpt lat="49.92719" lon="2.11046">
        <ele>86.2</ele>
        <time>2022-08-10T07:18:19Z</time>
      </trkpt>
      <trkpt lat="49.92722" lon="2.11045">
        <ele>86.2</ele>
        <time>2022-08-10T07:18:21Z</time>
      </trkpt>
      <trkpt lat="49.92722" lon="2.11045">
        <ele>86.2</ele>
        <time>2022-08-10T07:18:22Z</time>
      </trkpt>
      <trkpt lat="49.92724" lon="2.11044">
        <ele>86.2</ele>
        <time>2022-08-10T07:18:23Z</time>
      </trkpt>
      <trkpt lat="49.92725" lon="2.11044">
        <ele>86.2</ele>
        <time>2022-08-10T07:18:24Z</time>
      </trkpt>
      <trkpt lat="49.92726" lon="2.11044">
        <ele>86.2</ele>
        <time>2022-08-10T07:18:25Z</time>
      </trkpt>
      <trkpt lat="49.92727" lon="2.11043">
        <ele>86.2</ele>
        <time>2022-08-10T07:18:26Z</time>
      </trkpt>
      <trkpt lat="49.92729" lon="2.11043">
        <ele>86.1</ele>
        <time>2022-08-10T07:18:27Z</time>
      </trkpt>
      <trkpt lat="49.9273" lon="2.11043">
        <ele>86.1</ele>
        <time>2022-08-10T07:18:29Z</time>
      </trkpt>
      <trkpt lat="49.92731" lon="2.11042">
        <ele>86.1</ele>
        <time>2022-08-10T07:18:30Z</time>
      </trkpt>
      <trkpt lat="49.92732" lon="2.11042">
        <ele>86.1</ele>
        <time>2022-08-10T07:18:31Z</time>
      </trkpt>
      <trkpt lat="49.92734" lon="2.11042">
        <ele>86.1</ele>
        <time>2022-08-10T07:18:32Z</time>
      </trkpt>
      <trkpt lat="49.92735" lon="2.11042">
        <ele>86.1</ele>
        <time>2022-08-10T07:18:33Z</time>
      </trkpt>
      <trkpt lat="49.92736" lon="2.11042">
        <ele>86.1</ele>
        <time>2022-08-10T07:18:34Z</time>
      </trkpt>
      <trkpt lat="49.92737" lon="2.11042">
        <ele>86.1</ele>
        <time>2022-08-10T07:18:35Z</time>
      </trkpt>
      <trkpt lat="49.92738" lon="2.11042">
        <ele>86.1</ele>
        <time>2022-08-10T07:18:36Z</time>
      </trkpt>
      <trkpt lat="49.9274" lon="2.11041">
        <ele>86.1</ele>
        <time>2022-08-10T07:18:38Z</time>
      </trkpt>
      <trkpt lat="49.92741" lon="2.11041">
        <ele>86.1</ele>
        <time>2022-08-10T07:18:39Z</time>
      </trkpt>
      <trkpt lat="49.92742" lon="2.11041">
        <ele>86.1</ele>
        <time>2022-08-10T07:18:40Z</time>
      </trkpt>
      <trkpt lat="49.92743" lon="2.11041">
        <ele>86</ele>
        <time>2022-08-10T07:18:41Z</time>
      </trkpt>
      <trkpt lat="49.92746" lon="2.1104">
        <ele>86</ele>
        <time>2022-08-10T07:18:42Z</time>
      </trkpt>
      <trkpt lat="49.92747" lon="2.1104">
        <ele>86</ele>
        <time>2022-08-10T07:18:44Z</time>
      </trkpt>
      <trkpt lat="49.92748" lon="2.1104">
        <ele>86</ele>
        <time>2022-08-10T07:18:45Z</time>
      </trkpt>
      <trkpt lat="49.92749" lon="2.1104">
        <ele>86</ele>
        <time>2022-08-10T07:18:46Z</time>
      </trkpt>
      <trkpt lat="49.92751" lon="2.1104">
        <ele>85.9</ele>
        <time>2022-08-10T07:18:47Z</time>
      </trkpt>
      <trkpt lat="49.92752" lon="2.1104">
        <ele>85.9</ele>
        <time>2022-08-10T07:18:48Z</time>
      </trkpt>
      <trkpt lat="49.92753" lon="2.1104">
        <ele>85.9</ele>
        <time>2022-08-10T07:18:49Z</time>
      </trkpt>
      <trkpt lat="49.92754" lon="2.1104">
        <ele>85.9</ele>
        <time>2022-08-10T07:18:50Z</time>
      </trkpt>
      <trkpt lat="49.92755" lon="2.1104">
        <ele>85.9</ele>
        <time>2022-08-10T07:18:51Z</time>
      </trkpt>
      <trkpt lat="49.92757" lon="2.1104">
        <ele>85.8</ele>
        <time>2022-08-10T07:18:53Z</time>
      </trkpt>
      <trkpt lat="49.92757" lon="2.1104">
        <ele>85.8</ele>
        <time>2022-08-10T07:18:54Z</time>
      </trkpt>
      <trkpt lat="49.92759" lon="2.11041">
        <ele>85.8</ele>
        <time>2022-08-10T07:18:55Z</time>
      </trkpt>
      <trkpt lat="49.9276" lon="2.11041">
        <ele>85.8</ele>
        <time>2022-08-10T07:18:56Z</time>
      </trkpt>
      <trkpt lat="49.92763" lon="2.1104">
        <ele>85.7</ele>
        <time>2022-08-10T07:18:57Z</time>
      </trkpt>
      <trkpt lat="49.92764" lon="2.11041">
        <ele>85.7</ele>
        <time>2022-08-10T07:18:59Z</time>
      </trkpt>
      <trkpt lat="49.92765" lon="2.11041">
        <ele>85.7</ele>
        <time>2022-08-10T07:19:00Z</time>
      </trkpt>
      <trkpt lat="49.92766" lon="2.11041">
        <ele>85.7</ele>
        <time>2022-08-10T07:19:01Z</time>
      </trkpt>
      <trkpt lat="49.92767" lon="2.11041">
        <ele>85.7</ele>
        <time>2022-08-10T07:19:02Z</time>
      </trkpt>
      <trkpt lat="49.92769" lon="2.11041">
        <ele>85.6</ele>
        <time>2022-08-10T07:19:03Z</time>
      </trkpt>
      <trkpt lat="49.9277" lon="2.11042">
        <ele>85.6</ele>
        <time>2022-08-10T07:19:05Z</time>
      </trkpt>
      <trkpt lat="49.92771" lon="2.11042">
        <ele>85.6</ele>
        <time>2022-08-10T07:19:06Z</time>
      </trkpt>
      <trkpt lat="49.92774" lon="2.11043">
        <ele>85.5</ele>
        <time>2022-08-10T07:19:08Z</time>
      </trkpt>
      <trkpt lat="49.92775" lon="2.11043">
        <ele>85.5</ele>
        <time>2022-08-10T07:19:09Z</time>
      </trkpt>
      <trkpt lat="49.92777" lon="2.11044">
        <ele>85.5</ele>
        <time>2022-08-10T07:19:10Z</time>
      </trkpt>
      <trkpt lat="49.92778" lon="2.11044">
        <ele>85.5</ele>
        <time>2022-08-10T07:19:11Z</time>
      </trkpt>
      <trkpt lat="49.92779" lon="2.11044">
        <ele>85.5</ele>
        <time>2022-08-10T07:19:12Z</time>
      </trkpt>
      <trkpt lat="49.9278" lon="2.11045">
        <ele>85.5</ele>
        <time>2022-08-10T07:19:13Z</time>
      </trkpt>
      <trkpt lat="49.92781" lon="2.11046">
        <ele>85.4</ele>
        <time>2022-08-10T07:19:14Z</time>
      </trkpt>
      <trkpt lat="49.92782" lon="2.11046">
        <ele>85.4</ele>
        <time>2022-08-10T07:19:16Z</time>
      </trkpt>
      <trkpt lat="49.92783" lon="2.11047">
        <ele>85.4</ele>
        <time>2022-08-10T07:19:17Z</time>
      </trkpt>
      <trkpt lat="49.92784" lon="2.11047">
        <ele>85.4</ele>
        <time>2022-08-10T07:19:18Z</time>
      </trkpt>
      <trkpt lat="49.92785" lon="2.11047">
        <ele>85.4</ele>
        <time>2022-08-10T07:19:19Z</time>
      </trkpt>
      <trkpt lat="49.92787" lon="2.11048">
        <ele>85.3</ele>
        <time>2022-08-10T07:19:20Z</time>
      </trkpt>
      <trkpt lat="49.92788" lon="2.11048">
        <ele>85.3</ele>
        <time>2022-08-10T07:19:21Z</time>
      </trkpt>
      <trkpt lat="49.92789" lon="2.11048">
        <ele>85.3</ele>
        <time>2022-08-10T07:19:22Z</time>
      </trkpt>
      <trkpt lat="49.9279" lon="2.11049">
        <ele>85.3</ele>
        <time>2022-08-10T07:19:23Z</time>
      </trkpt>
      <trkpt lat="49.92791" lon="2.11049">
        <ele>85.3</ele>
        <time>2022-08-10T07:19:24Z</time>
      </trkpt>
      <trkpt lat="49.92793" lon="2.1105">
        <ele>85.3</ele>
        <time>2022-08-10T07:19:25Z</time>
      </trkpt>
      <trkpt lat="49.92795" lon="2.1105">
        <ele>85.2</ele>
        <time>2022-08-10T07:19:28Z</time>
      </trkpt>
      <trkpt lat="49.92795" lon="2.1105">
        <ele>85.2</ele>
        <time>2022-08-10T07:19:29Z</time>
      </trkpt>
      <trkpt lat="49.92797" lon="2.11051">
        <ele>85.2</ele>
        <time>2022-08-10T07:19:30Z</time>
      </trkpt>
      <trkpt lat="49.92799" lon="2.11051">
        <ele>85.2</ele>
        <time>2022-08-10T07:19:31Z</time>
      </trkpt>
      <trkpt lat="49.928" lon="2.11051">
        <ele>85.2</ele>
        <time>2022-08-10T07:19:32Z</time>
      </trkpt>
      <trkpt lat="49.92801" lon="2.11051">
        <ele>85.2</ele>
        <time>2022-08-10T07:19:33Z</time>
      </trkpt>
      <trkpt lat="49.92802" lon="2.11051">
        <ele>85.1</ele>
        <time>2022-08-10T07:19:34Z</time>
      </trkpt>
      <trkpt lat="49.92803" lon="2.11051">
        <ele>85.1</ele>
        <time>2022-08-10T07:19:35Z</time>
      </trkpt>
      <trkpt lat="49.92804" lon="2.11051">
        <ele>85.1</ele>
        <time>2022-08-10T07:19:36Z</time>
      </trkpt>
      <trkpt lat="49.92806" lon="2.11051">
        <ele>85.1</ele>
        <time>2022-08-10T07:19:37Z</time>
      </trkpt>
      <trkpt lat="49.92807" lon="2.11051">
        <ele>85.1</ele>
        <time>2022-08-10T07:19:39Z</time>
      </trkpt>
      <trkpt lat="49.92808" lon="2.11051">
        <ele>85.1</ele>
        <time>2022-08-10T07:19:40Z</time>
      </trkpt>
      <trkpt lat="49.92809" lon="2.11051">
        <ele>85</ele>
        <time>2022-08-10T07:19:41Z</time>
      </trkpt>
      <trkpt lat="49.9281" lon="2.11051">
        <ele>85</ele>
        <time>2022-08-10T07:19:42Z</time>
      </trkpt>
      <trkpt lat="49.92812" lon="2.1105">
        <ele>85</ele>
        <time>2022-08-10T07:19:43Z</time>
      </trkpt>
      <trkpt lat="49.92814" lon="2.1105">
        <ele>85</ele>
        <time>2022-08-10T07:19:44Z</time>
      </trkpt>
      <trkpt lat="49.92815" lon="2.11051">
        <ele>85</ele>
        <time>2022-08-10T07:19:45Z</time>
      </trkpt>
      <trkpt lat="49.92816" lon="2.11051">
        <ele>85</ele>
        <time>2022-08-10T07:19:46Z</time>
      </trkpt>
      <trkpt lat="49.92818" lon="2.11051">
        <ele>84.9</ele>
        <time>2022-08-10T07:19:47Z</time>
      </trkpt>
      <trkpt lat="49.92819" lon="2.11052">
        <ele>84.9</ele>
        <time>2022-08-10T07:19:48Z</time>
      </trkpt>
      <trkpt lat="49.9282" lon="2.11052">
        <ele>84.9</ele>
        <time>2022-08-10T07:19:50Z</time>
      </trkpt>
      <trkpt lat="49.92821" lon="2.11052">
        <ele>84.9</ele>
        <time>2022-08-10T07:19:51Z</time>
      </trkpt>
      <trkpt lat="49.92823" lon="2.11053">
        <ele>84.9</ele>
        <time>2022-08-10T07:19:52Z</time>
      </trkpt>
      <trkpt lat="49.92825" lon="2.11053">
        <ele>84.9</ele>
        <time>2022-08-10T07:19:53Z</time>
      </trkpt>
      <trkpt lat="49.92826" lon="2.11054">
        <ele>84.8</ele>
        <time>2022-08-10T07:19:54Z</time>
      </trkpt>
      <trkpt lat="49.92828" lon="2.11054">
        <ele>84.8</ele>
        <time>2022-08-10T07:19:56Z</time>
      </trkpt>
      <trkpt lat="49.92829" lon="2.11054">
        <ele>84.8</ele>
        <time>2022-08-10T07:19:57Z</time>
      </trkpt>
      <trkpt lat="49.92831" lon="2.11055">
        <ele>84.8</ele>
        <time>2022-08-10T07:19:58Z</time>
      </trkpt>
      <trkpt lat="49.92832" lon="2.11055">
        <ele>84.8</ele>
        <time>2022-08-10T07:19:59Z</time>
      </trkpt>
      <trkpt lat="49.92834" lon="2.11055">
        <ele>84.8</ele>
        <time>2022-08-10T07:20:00Z</time>
      </trkpt>
      <trkpt lat="49.92835" lon="2.11055">
        <ele>84.8</ele>
        <time>2022-08-10T07:20:02Z</time>
      </trkpt>
      <trkpt lat="49.92837" lon="2.11056">
        <ele>84.8</ele>
        <time>2022-08-10T07:20:03Z</time>
      </trkpt>
      <trkpt lat="49.92838" lon="2.11056">
        <ele>84.8</ele>
        <time>2022-08-10T07:20:04Z</time>
      </trkpt>
      <trkpt lat="49.92839" lon="2.11056">
        <ele>84.8</ele>
        <time>2022-08-10T07:20:05Z</time>
      </trkpt>
      <trkpt lat="49.9284" lon="2.11056">
        <ele>84.8</ele>
        <time>2022-08-10T07:20:06Z</time>
      </trkpt>
      <trkpt lat="49.92843" lon="2.11057">
        <ele>84.8</ele>
        <time>2022-08-10T07:20:07Z</time>
      </trkpt>
      <trkpt lat="49.92844" lon="2.11057">
        <ele>84.8</ele>
        <time>2022-08-10T07:20:08Z</time>
      </trkpt>
      <trkpt lat="49.92845" lon="2.11058">
        <ele>84.8</ele>
        <time>2022-08-10T07:20:09Z</time>
      </trkpt>
      <trkpt lat="49.92846" lon="2.11058">
        <ele>84.8</ele>
        <time>2022-08-10T07:20:10Z</time>
      </trkpt>
      <trkpt lat="49.92847" lon="2.11058">
        <ele>84.8</ele>
        <time>2022-08-10T07:20:12Z</time>
      </trkpt>
      <trkpt lat="49.9285" lon="2.11059">
        <ele>84.8</ele>
        <time>2022-08-10T07:20:13Z</time>
      </trkpt>
      <trkpt lat="49.92851" lon="2.11059">
        <ele>84.8</ele>
        <time>2022-08-10T07:20:14Z</time>
      </trkpt>
      <trkpt lat="49.92853" lon="2.11059">
        <ele>84.8</ele>
        <time>2022-08-10T07:20:15Z</time>
      </trkpt>
      <trkpt lat="49.92853" lon="2.11059">
        <ele>84.8</ele>
        <time>2022-08-10T07:20:16Z</time>
      </trkpt>
      <trkpt lat="49.92854" lon="2.11059">
        <ele>84.8</ele>
        <time>2022-08-10T07:20:17Z</time>
      </trkpt>
      <trkpt lat="49.92856" lon="2.11059">
        <ele>84.8</ele>
        <time>2022-08-10T07:20:18Z</time>
      </trkpt>
      <trkpt lat="49.92857" lon="2.1106">
        <ele>84.8</ele>
        <time>2022-08-10T07:20:19Z</time>
      </trkpt>
      <trkpt lat="49.92859" lon="2.1106">
        <ele>84.9</ele>
        <time>2022-08-10T07:20:21Z</time>
      </trkpt>
      <trkpt lat="49.9286" lon="2.1106">
        <ele>84.9</ele>
        <time>2022-08-10T07:20:22Z</time>
      </trkpt>
      <trkpt lat="49.92861" lon="2.1106">
        <ele>84.9</ele>
        <time>2022-08-10T07:20:23Z</time>
      </trkpt>
      <trkpt lat="49.92862" lon="2.1106">
        <ele>84.9</ele>
        <time>2022-08-10T07:20:24Z</time>
      </trkpt>
      <trkpt lat="49.92863" lon="2.1106">
        <ele>84.9</ele>
        <time>2022-08-10T07:20:25Z</time>
      </trkpt>
      <trkpt lat="49.92865" lon="2.1106">
        <ele>84.9</ele>
        <time>2022-08-10T07:20:26Z</time>
      </trkpt>
      <trkpt lat="49.92866" lon="2.1106">
        <ele>84.9</ele>
        <time>2022-08-10T07:20:27Z</time>
      </trkpt>
      <trkpt lat="49.92868" lon="2.1106">
        <ele>84.9</ele>
        <time>2022-08-10T07:20:28Z</time>
      </trkpt>
      <trkpt lat="49.9287" lon="2.11061">
        <ele>84.9</ele>
        <time>2022-08-10T07:20:29Z</time>
      </trkpt>
      <trkpt lat="49.92871" lon="2.11061">
        <ele>84.9</ele>
        <time>2022-08-10T07:20:30Z</time>
      </trkpt>
      <trkpt lat="49.92872" lon="2.11061">
        <ele>85</ele>
        <time>2022-08-10T07:20:32Z</time>
      </trkpt>
      <trkpt lat="49.92873" lon="2.11061">
        <ele>85</ele>
        <time>2022-08-10T07:20:33Z</time>
      </trkpt>
      <trkpt lat="49.92874" lon="2.11061">
        <ele>85</ele>
        <time>2022-08-10T07:20:34Z</time>
      </trkpt>
      <trkpt lat="49.92875" lon="2.11061">
        <ele>85</ele>
        <time>2022-08-10T07:20:35Z</time>
      </trkpt>
      <trkpt lat="49.92876" lon="2.11062">
        <ele>85</ele>
        <time>2022-08-10T07:20:36Z</time>
      </trkpt>
      <trkpt lat="49.92878" lon="2.11062">
        <ele>85.1</ele>
        <time>2022-08-10T07:20:37Z</time>
      </trkpt>
      <trkpt lat="49.92879" lon="2.11062">
        <ele>85.1</ele>
        <time>2022-08-10T07:20:39Z</time>
      </trkpt>
      <trkpt lat="49.92881" lon="2.11062">
        <ele>85.1</ele>
        <time>2022-08-10T07:20:40Z</time>
      </trkpt>
      <trkpt lat="49.92882" lon="2.11062">
        <ele>85.1</ele>
        <time>2022-08-10T07:20:41Z</time>
      </trkpt>
      <trkpt lat="49.92883" lon="2.11062">
        <ele>85.1</ele>
        <time>2022-08-10T07:20:42Z</time>
      </trkpt>
      <trkpt lat="49.92884" lon="2.11062">
        <ele>85.2</ele>
        <time>2022-08-10T07:20:44Z</time>
      </trkpt>
      <trkpt lat="49.92885" lon="2.11063">
        <ele>85.2</ele>
        <time>2022-08-10T07:20:45Z</time>
      </trkpt>
      <trkpt lat="49.92886" lon="2.11063">
        <ele>85.2</ele>
        <time>2022-08-10T07:20:46Z</time>
      </trkpt>
      <trkpt lat="49.92887" lon="2.11063">
        <ele>85.2</ele>
        <time>2022-08-10T07:20:47Z</time>
      </trkpt>
      <trkpt lat="49.9289" lon="2.11063">
        <ele>85.3</ele>
        <time>2022-08-10T07:20:48Z</time>
      </trkpt>
      <trkpt lat="49.92891" lon="2.11063">
        <ele>85.3</ele>
        <time>2022-08-10T07:20:49Z</time>
      </trkpt>
      <trkpt lat="49.92891" lon="2.11063">
        <ele>85.3</ele>
        <time>2022-08-10T07:20:50Z</time>
      </trkpt>
      <trkpt lat="49.92894" lon="2.11063">
        <ele>85.3</ele>
        <time>2022-08-10T07:20:51Z</time>
      </trkpt>
      <trkpt lat="49.92895" lon="2.11063">
        <ele>85.4</ele>
        <time>2022-08-10T07:20:52Z</time>
      </trkpt>
      <trkpt lat="49.92896" lon="2.11063">
        <ele>85.4</ele>
        <time>2022-08-10T07:20:54Z</time>
      </trkpt>
      <trkpt lat="49.92897" lon="2.11063">
        <ele>85.4</ele>
        <time>2022-08-10T07:20:55Z</time>
      </trkpt>
      <trkpt lat="49.92898" lon="2.11063">
        <ele>85.4</ele>
        <time>2022-08-10T07:20:56Z</time>
      </trkpt>
      <trkpt lat="49.92899" lon="2.11063">
        <ele>85.4</ele>
        <time>2022-08-10T07:20:57Z</time>
      </trkpt>
      <trkpt lat="49.92901" lon="2.11063">
        <ele>85.5</ele>
        <time>2022-08-10T07:20:58Z</time>
      </trkpt>
      <trkpt lat="49.92902" lon="2.11063">
        <ele>85.5</ele>
        <time>2022-08-10T07:20:59Z</time>
      </trkpt>
      <trkpt lat="49.92902" lon="2.11064">
        <ele>85.5</ele>
        <time>2022-08-10T07:21:00Z</time>
      </trkpt>
      <trkpt lat="49.92904" lon="2.11064">
        <ele>85.6</ele>
        <time>2022-08-10T07:21:02Z</time>
      </trkpt>
      <trkpt lat="49.92906" lon="2.11064">
        <ele>85.6</ele>
        <time>2022-08-10T07:21:03Z</time>
      </trkpt>
      <trkpt lat="49.92906" lon="2.11064">
        <ele>85.6</ele>
        <time>2022-08-10T07:21:04Z</time>
      </trkpt>
      <trkpt lat="49.92908" lon="2.11064">
        <ele>85.7</ele>
        <time>2022-08-10T07:21:06Z</time>
      </trkpt>
      <trkpt lat="49.92909" lon="2.11065">
        <ele>85.7</ele>
        <time>2022-08-10T07:21:07Z</time>
      </trkpt>
      <trkpt lat="49.92911" lon="2.11065">
        <ele>85.8</ele>
        <time>2022-08-10T07:21:08Z</time>
      </trkpt>
      <trkpt lat="49.92912" lon="2.11065">
        <ele>85.8</ele>
        <time>2022-08-10T07:21:09Z</time>
      </trkpt>
      <trkpt lat="49.92913" lon="2.11065">
        <ele>85.8</ele>
        <time>2022-08-10T07:21:10Z</time>
      </trkpt>
      <trkpt lat="49.92914" lon="2.11065">
        <ele>85.8</ele>
        <time>2022-08-10T07:21:11Z</time>
      </trkpt>
      <trkpt lat="49.92915" lon="2.11065">
        <ele>85.9</ele>
        <time>2022-08-10T07:21:12Z</time>
      </trkpt>
      <trkpt lat="49.92916" lon="2.11065">
        <ele>85.9</ele>
        <time>2022-08-10T07:21:13Z</time>
      </trkpt>
      <trkpt lat="49.92917" lon="2.11065">
        <ele>85.9</ele>
        <time>2022-08-10T07:21:14Z</time>
      </trkpt>
      <trkpt lat="49.92918" lon="2.11065">
        <ele>86</ele>
        <time>2022-08-10T07:21:15Z</time>
      </trkpt>
      <trkpt lat="49.92919" lon="2.11066">
        <ele>86</ele>
        <time>2022-08-10T07:21:16Z</time>
      </trkpt>
      <trkpt lat="49.92921" lon="2.11066">
        <ele>86</ele>
        <time>2022-08-10T07:21:17Z</time>
      </trkpt>
      <trkpt lat="49.92922" lon="2.11066">
        <ele>86.1</ele>
        <time>2022-08-10T07:21:18Z</time>
      </trkpt>
      <trkpt lat="49.92923" lon="2.11066">
        <ele>86.1</ele>
        <time>2022-08-10T07:21:19Z</time>
      </trkpt>
      <trkpt lat="49.92924" lon="2.11066">
        <ele>86.2</ele>
        <time>2022-08-10T07:21:21Z</time>
      </trkpt>
      <trkpt lat="49.92925" lon="2.11066">
        <ele>86.2</ele>
        <time>2022-08-10T07:21:22Z</time>
      </trkpt>
      <trkpt lat="49.92927" lon="2.11066">
        <ele>86.2</ele>
        <time>2022-08-10T07:21:23Z</time>
      </trkpt>
      <trkpt lat="49.92927" lon="2.11067">
        <ele>86.3</ele>
        <time>2022-08-10T07:21:24Z</time>
      </trkpt>
      <trkpt lat="49.92928" lon="2.11067">
        <ele>86.3</ele>
        <time>2022-08-10T07:21:25Z</time>
      </trkpt>
      <trkpt lat="49.92929" lon="2.11067">
        <ele>86.3</ele>
        <time>2022-08-10T07:21:26Z</time>
      </trkpt>
      <trkpt lat="49.92931" lon="2.11068">
        <ele>86.3</ele>
        <time>2022-08-10T07:21:27Z</time>
      </trkpt>
      <trkpt lat="49.92932" lon="2.11068">
        <ele>86.4</ele>
        <time>2022-08-10T07:21:28Z</time>
      </trkpt>
      <trkpt lat="49.92933" lon="2.11068">
        <ele>86.4</ele>
        <time>2022-08-10T07:21:29Z</time>
      </trkpt>
      <trkpt lat="49.92934" lon="2.11069">
        <ele>86.4</ele>
        <time>2022-08-10T07:21:31Z</time>
      </trkpt>
      <trkpt lat="49.92935" lon="2.11069">
        <ele>86.5</ele>
        <time>2022-08-10T07:21:32Z</time>
      </trkpt>
      <trkpt lat="49.92936" lon="2.11069">
        <ele>86.5</ele>
        <time>2022-08-10T07:21:33Z</time>
      </trkpt>
      <trkpt lat="49.92937" lon="2.1107">
        <ele>86.5</ele>
        <time>2022-08-10T07:21:34Z</time>
      </trkpt>
      <trkpt lat="49.92939" lon="2.1107">
        <ele>86.6</ele>
        <time>2022-08-10T07:21:36Z</time>
      </trkpt>
      <trkpt lat="49.9294" lon="2.11071">
        <ele>86.6</ele>
        <time>2022-08-10T07:21:37Z</time>
      </trkpt>
      <trkpt lat="49.92942" lon="2.11071">
        <ele>86.6</ele>
        <time>2022-08-10T07:21:38Z</time>
      </trkpt>
      <trkpt lat="49.92944" lon="2.11071">
        <ele>86.7</ele>
        <time>2022-08-10T07:21:39Z</time>
      </trkpt>
      <trkpt lat="49.92945" lon="2.11072">
        <ele>86.7</ele>
        <time>2022-08-10T07:21:40Z</time>
      </trkpt>
      <trkpt lat="49.92946" lon="2.11072">
        <ele>86.7</ele>
        <time>2022-08-10T07:21:41Z</time>
      </trkpt>
      <trkpt lat="49.92947" lon="2.11072">
        <ele>86.7</ele>
        <time>2022-08-10T07:21:42Z</time>
      </trkpt>
      <trkpt lat="49.92948" lon="2.11072">
        <ele>86.7</ele>
        <time>2022-08-10T07:21:43Z</time>
      </trkpt>
      <trkpt lat="49.92949" lon="2.11073">
        <ele>86.7</ele>
        <time>2022-08-10T07:21:45Z</time>
      </trkpt>
      <trkpt lat="49.9295" lon="2.11073">
        <ele>86.7</ele>
        <time>2022-08-10T07:21:46Z</time>
      </trkpt>
      <trkpt lat="49.92952" lon="2.11073">
        <ele>86.7</ele>
        <time>2022-08-10T07:21:47Z</time>
      </trkpt>
      <trkpt lat="49.92953" lon="2.11073">
        <ele>86.7</ele>
        <time>2022-08-10T07:21:48Z</time>
      </trkpt>
      <trkpt lat="49.92954" lon="2.11074">
        <ele>86.7</ele>
        <time>2022-08-10T07:21:49Z</time>
      </trkpt>
      <trkpt lat="49.92955" lon="2.11074">
        <ele>86.7</ele>
        <time>2022-08-10T07:21:50Z</time>
      </trkpt>
      <trkpt lat="49.92956" lon="2.11075">
        <ele>86.7</ele>
        <time>2022-08-10T07:21:52Z</time>
      </trkpt>
      <trkpt lat="49.92958" lon="2.11076">
        <ele>86.7</ele>
        <time>2022-08-10T07:21:53Z</time>
      </trkpt>
      <trkpt lat="49.92959" lon="2.11076">
        <ele>86.7</ele>
        <time>2022-08-10T07:21:54Z</time>
      </trkpt>
      <trkpt lat="49.92959" lon="2.11077">
        <ele>86.7</ele>
        <time>2022-08-10T07:21:55Z</time>
      </trkpt>
      <trkpt lat="49.92961" lon="2.11079">
        <ele>86.6</ele>
        <time>2022-08-10T07:21:56Z</time>
      </trkpt>
      <trkpt lat="49.92962" lon="2.1108">
        <ele>86.6</ele>
        <time>2022-08-10T07:21:57Z</time>
      </trkpt>
      <trkpt lat="49.92963" lon="2.1108">
        <ele>86.6</ele>
        <time>2022-08-10T07:21:58Z</time>
      </trkpt>
      <trkpt lat="49.92965" lon="2.11081">
        <ele>86.6</ele>
        <time>2022-08-10T07:21:59Z</time>
      </trkpt>
      <trkpt lat="49.92966" lon="2.11082">
        <ele>86.5</ele>
        <time>2022-08-10T07:22:01Z</time>
      </trkpt>
      <trkpt lat="49.92968" lon="2.11083">
        <ele>86.5</ele>
        <time>2022-08-10T07:22:02Z</time>
      </trkpt>
      <trkpt lat="49.9297" lon="2.11084">
        <ele>86.4</ele>
        <time>2022-08-10T07:22:04Z</time>
      </trkpt>
      <trkpt lat="49.92972" lon="2.11085">
        <ele>86.4</ele>
        <time>2022-08-10T07:22:05Z</time>
      </trkpt>
      <trkpt lat="49.92973" lon="2.11085">
        <ele>86.3</ele>
        <time>2022-08-10T07:22:06Z</time>
      </trkpt>
      <trkpt lat="49.92974" lon="2.11086">
        <ele>86.3</ele>
        <time>2022-08-10T07:22:07Z</time>
      </trkpt>
      <trkpt lat="49.92976" lon="2.11086">
        <ele>86.3</ele>
        <time>2022-08-10T07:22:08Z</time>
      </trkpt>
      <trkpt lat="49.92977" lon="2.11087">
        <ele>86.2</ele>
        <time>2022-08-10T07:22:10Z</time>
      </trkpt>
      <trkpt lat="49.92978" lon="2.11087">
        <ele>86.2</ele>
        <time>2022-08-10T07:22:11Z</time>
      </trkpt>
      <trkpt lat="49.9298" lon="2.11088">
        <ele>86.2</ele>
        <time>2022-08-10T07:22:12Z</time>
      </trkpt>
      <trkpt lat="49.92981" lon="2.11089">
        <ele>86.1</ele>
        <time>2022-08-10T07:22:13Z</time>
      </trkpt>
      <trkpt lat="49.92982" lon="2.11089">
        <ele>86.1</ele>
        <time>2022-08-10T07:22:14Z</time>
      </trkpt>
      <trkpt lat="49.92983" lon="2.11089">
        <ele>86.1</ele>
        <time>2022-08-10T07:22:15Z</time>
      </trkpt>
      <trkpt lat="49.92985" lon="2.1109">
        <ele>86</ele>
        <time>2022-08-10T07:22:16Z</time>
      </trkpt>
      <trkpt lat="49.92986" lon="2.1109">
        <ele>86</ele>
        <time>2022-08-10T07:22:17Z</time>
      </trkpt>
      <trkpt lat="49.92988" lon="2.11091">
        <ele>86</ele>
        <time>2022-08-10T07:22:18Z</time>
      </trkpt>
      <trkpt lat="49.92989" lon="2.11091">
        <ele>85.9</ele>
        <time>2022-08-10T07:22:19Z</time>
      </trkpt>
      <trkpt lat="49.9299" lon="2.11092">
        <ele>85.9</ele>
        <time>2022-08-10T07:22:20Z</time>
      </trkpt>
      <trkpt lat="49.92991" lon="2.11093">
        <ele>85.9</ele>
        <time>2022-08-10T07:22:22Z</time>
      </trkpt>
      <trkpt lat="49.92993" lon="2.11093">
        <ele>85.8</ele>
        <time>2022-08-10T07:22:23Z</time>
      </trkpt>
      <trkpt lat="49.92994" lon="2.11094">
        <ele>85.8</ele>
        <time>2022-08-10T07:22:24Z</time>
      </trkpt>
      <trkpt lat="49.92996" lon="2.11094">
        <ele>85.7</ele>
        <time>2022-08-10T07:22:25Z</time>
      </trkpt>
      <trkpt lat="49.92997" lon="2.11095">
        <ele>85.7</ele>
        <time>2022-08-10T07:22:26Z</time>
      </trkpt>
      <trkpt lat="49.92999" lon="2.11096">
        <ele>85.6</ele>
        <time>2022-08-10T07:22:28Z</time>
      </trkpt>
      <trkpt lat="49.93001" lon="2.11096">
        <ele>85.6</ele>
        <time>2022-08-10T07:22:29Z</time>
      </trkpt>
      <trkpt lat="49.93002" lon="2.11097">
        <ele>85.6</ele>
        <time>2022-08-10T07:22:30Z</time>
      </trkpt>
      <trkpt lat="49.93003" lon="2.11097">
        <ele>85.5</ele>
        <time>2022-08-10T07:22:31Z</time>
      </trkpt>
      <trkpt lat="49.93004" lon="2.11097">
        <ele>85.5</ele>
        <time>2022-08-10T07:22:32Z</time>
      </trkpt>
      <trkpt lat="49.93007" lon="2.11097">
        <ele>85.4</ele>
        <time>2022-08-10T07:22:33Z</time>
      </trkpt>
      <trkpt lat="49.93008" lon="2.11097">
        <ele>85.4</ele>
        <time>2022-08-10T07:22:35Z</time>
      </trkpt>
      <trkpt lat="49.93009" lon="2.11098">
        <ele>85.3</ele>
        <time>2022-08-10T07:22:36Z</time>
      </trkpt>
      <trkpt lat="49.9301" lon="2.11098">
        <ele>85.3</ele>
        <time>2022-08-10T07:22:37Z</time>
      </trkpt>
      <trkpt lat="49.93011" lon="2.11098">
        <ele>85.3</ele>
        <time>2022-08-10T07:22:38Z</time>
      </trkpt>
      <trkpt lat="49.93013" lon="2.11099">
        <ele>85.2</ele>
        <time>2022-08-10T07:22:39Z</time>
      </trkpt>
      <trkpt lat="49.93014" lon="2.11099">
        <ele>85.2</ele>
        <time>2022-08-10T07:22:40Z</time>
      </trkpt>
      <trkpt lat="49.93015" lon="2.11099">
        <ele>85.1</ele>
        <time>2022-08-10T07:22:41Z</time>
      </trkpt>
      <trkpt lat="49.93016" lon="2.111">
        <ele>85.1</ele>
        <time>2022-08-10T07:22:42Z</time>
      </trkpt>
      <trkpt lat="49.93017" lon="2.111">
        <ele>85.1</ele>
        <time>2022-08-10T07:22:43Z</time>
      </trkpt>
      <trkpt lat="49.93018" lon="2.111">
        <ele>85</ele>
        <time>2022-08-10T07:22:45Z</time>
      </trkpt>
      <trkpt lat="49.93018" lon="2.11101">
        <ele>85</ele>
        <time>2022-08-10T07:22:46Z</time>
      </trkpt>
      <trkpt lat="49.9302" lon="2.11101">
        <ele>85</ele>
        <time>2022-08-10T07:22:47Z</time>
      </trkpt>
      <trkpt lat="49.93021" lon="2.11101">
        <ele>84.9</ele>
        <time>2022-08-10T07:22:48Z</time>
      </trkpt>
      <trkpt lat="49.93023" lon="2.11103">
        <ele>84.9</ele>
        <time>2022-08-10T07:22:49Z</time>
      </trkpt>
      <trkpt lat="49.93023" lon="2.11103">
        <ele>84.8</ele>
        <time>2022-08-10T07:22:50Z</time>
      </trkpt>
      <trkpt lat="49.93024" lon="2.11104">
        <ele>84.8</ele>
        <time>2022-08-10T07:22:51Z</time>
      </trkpt>
      <trkpt lat="49.93025" lon="2.11105">
        <ele>84.8</ele>
        <time>2022-08-10T07:22:52Z</time>
      </trkpt>
      <trkpt lat="49.93027" lon="2.11106">
        <ele>84.7</ele>
        <time>2022-08-10T07:22:54Z</time>
      </trkpt>
      <trkpt lat="49.93027" lon="2.11107">
        <ele>84.7</ele>
        <time>2022-08-10T07:22:55Z</time>
      </trkpt>
      <trkpt lat="49.93028" lon="2.11109">
        <ele>84.6</ele>
        <time>2022-08-10T07:22:56Z</time>
      </trkpt>
      <trkpt lat="49.93029" lon="2.1111">
        <ele>84.6</ele>
        <time>2022-08-10T07:22:57Z</time>
      </trkpt>
      <trkpt lat="49.93031" lon="2.11111">
        <ele>84.5</ele>
        <time>2022-08-10T07:22:58Z</time>
      </trkpt>
      <trkpt lat="49.93032" lon="2.11112">
        <ele>84.5</ele>
        <time>2022-08-10T07:22:59Z</time>
      </trkpt>
      <trkpt lat="49.93033" lon="2.11112">
        <ele>84.5</ele>
        <time>2022-08-10T07:23:00Z</time>
      </trkpt>
      <trkpt lat="49.93035" lon="2.11114">
        <ele>84.4</ele>
        <time>2022-08-10T07:23:01Z</time>
      </trkpt>
      <trkpt lat="49.93036" lon="2.11115">
        <ele>84.4</ele>
        <time>2022-08-10T07:23:03Z</time>
      </trkpt>
      <trkpt lat="49.93037" lon="2.11116">
        <ele>84.3</ele>
        <time>2022-08-10T07:23:04Z</time>
      </trkpt>
      <trkpt lat="49.93037" lon="2.11117">
        <ele>84.3</ele>
        <time>2022-08-10T07:23:05Z</time>
      </trkpt>
      <trkpt lat="49.93038" lon="2.11118">
        <ele>84.3</ele>
        <time>2022-08-10T07:23:06Z</time>
      </trkpt>
      <trkpt lat="49.93039" lon="2.11118">
        <ele>84.2</ele>
        <time>2022-08-10T07:23:07Z</time>
      </trkpt>
      <trkpt lat="49.93041" lon="2.11119">
        <ele>84.2</ele>
        <time>2022-08-10T07:23:08Z</time>
      </trkpt>
      <trkpt lat="49.93042" lon="2.1112">
        <ele>84.2</ele>
        <time>2022-08-10T07:23:09Z</time>
      </trkpt>
      <trkpt lat="49.93043" lon="2.11121">
        <ele>84.1</ele>
        <time>2022-08-10T07:23:10Z</time>
      </trkpt>
      <trkpt lat="49.93044" lon="2.11122">
        <ele>84.1</ele>
        <time>2022-08-10T07:23:12Z</time>
      </trkpt>
      <trkpt lat="49.93046" lon="2.11123">
        <ele>84</ele>
        <time>2022-08-10T07:23:13Z</time>
      </trkpt>
      <trkpt lat="49.93047" lon="2.11125">
        <ele>84</ele>
        <time>2022-08-10T07:23:14Z</time>
      </trkpt>
      <trkpt lat="49.93048" lon="2.11125">
        <ele>84</ele>
        <time>2022-08-10T07:23:15Z</time>
      </trkpt>
      <trkpt lat="49.93049" lon="2.11126">
        <ele>83.9</ele>
        <time>2022-08-10T07:23:16Z</time>
      </trkpt>
      <trkpt lat="49.9305" lon="2.11127">
        <ele>83.9</ele>
        <time>2022-08-10T07:23:17Z</time>
      </trkpt>
      <trkpt lat="49.93051" lon="2.11128">
        <ele>83.9</ele>
        <time>2022-08-10T07:23:18Z</time>
      </trkpt>
      <trkpt lat="49.93052" lon="2.11128">
        <ele>83.8</ele>
        <time>2022-08-10T07:23:20Z</time>
      </trkpt>
      <trkpt lat="49.93053" lon="2.11129">
        <ele>83.8</ele>
        <time>2022-08-10T07:23:21Z</time>
      </trkpt>
      <trkpt lat="49.93053" lon="2.1113">
        <ele>83.8</ele>
        <time>2022-08-10T07:23:22Z</time>
      </trkpt>
      <trkpt lat="49.93054" lon="2.11131">
        <ele>83.8</ele>
        <time>2022-08-10T07:23:23Z</time>
      </trkpt>
      <trkpt lat="49.93056" lon="2.11132">
        <ele>83.7</ele>
        <time>2022-08-10T07:23:24Z</time>
      </trkpt>
      <trkpt lat="49.93056" lon="2.11133">
        <ele>83.7</ele>
        <time>2022-08-10T07:23:25Z</time>
      </trkpt>
      <trkpt lat="49.93057" lon="2.11134">
        <ele>83.7</ele>
        <time>2022-08-10T07:23:26Z</time>
      </trkpt>
      <trkpt lat="49.93059" lon="2.11136">
        <ele>83.6</ele>
        <time>2022-08-10T07:23:28Z</time>
      </trkpt>
      <trkpt lat="49.9306" lon="2.11138">
        <ele>83.5</ele>
        <time>2022-08-10T07:23:29Z</time>
      </trkpt>
      <trkpt lat="49.93061" lon="2.11138">
        <ele>83.5</ele>
        <time>2022-08-10T07:23:30Z</time>
      </trkpt>
      <trkpt lat="49.93061" lon="2.11139">
        <ele>83.5</ele>
        <time>2022-08-10T07:23:31Z</time>
      </trkpt>
      <trkpt lat="49.93062" lon="2.1114">
        <ele>83.5</ele>
        <time>2022-08-10T07:23:32Z</time>
      </trkpt>
      <trkpt lat="49.93063" lon="2.11141">
        <ele>83.5</ele>
        <time>2022-08-10T07:23:33Z</time>
      </trkpt>
      <trkpt lat="49.93064" lon="2.11142">
        <ele>83.4</ele>
        <time>2022-08-10T07:23:34Z</time>
      </trkpt>
      <trkpt lat="49.93065" lon="2.11144">
        <ele>83.4</ele>
        <time>2022-08-10T07:23:35Z</time>
      </trkpt>
      <trkpt lat="49.93066" lon="2.11144">
        <ele>83.4</ele>
        <time>2022-08-10T07:23:36Z</time>
      </trkpt>
      <trkpt lat="49.93067" lon="2.11145">
        <ele>83.3</ele>
        <time>2022-08-10T07:23:37Z</time>
      </trkpt>
      <trkpt lat="49.93068" lon="2.11146">
        <ele>83.3</ele>
        <time>2022-08-10T07:23:38Z</time>
      </trkpt>
      <trkpt lat="49.93069" lon="2.11148">
        <ele>83.3</ele>
        <time>2022-08-10T07:23:39Z</time>
      </trkpt>
      <trkpt lat="49.93071" lon="2.11149">
        <ele>83.2</ele>
        <time>2022-08-10T07:23:40Z</time>
      </trkpt>
      <trkpt lat="49.93072" lon="2.1115">
        <ele>83.2</ele>
        <time>2022-08-10T07:23:41Z</time>
      </trkpt>
      <trkpt lat="49.93074" lon="2.11152">
        <ele>83.1</ele>
        <time>2022-08-10T07:23:43Z</time>
      </trkpt>
      <trkpt lat="49.93075" lon="2.11152">
        <ele>83.1</ele>
        <time>2022-08-10T07:23:44Z</time>
      </trkpt>
      <trkpt lat="49.93076" lon="2.11153">
        <ele>83.1</ele>
        <time>2022-08-10T07:23:45Z</time>
      </trkpt>
      <trkpt lat="49.93078" lon="2.11154">
        <ele>83</ele>
        <time>2022-08-10T07:23:46Z</time>
      </trkpt>
      <trkpt lat="49.93078" lon="2.11154">
        <ele>83</ele>
        <time>2022-08-10T07:23:47Z</time>
      </trkpt>
      <trkpt lat="49.93079" lon="2.11154">
        <ele>83</ele>
        <time>2022-08-10T07:23:48Z</time>
      </trkpt>
      <trkpt lat="49.93081" lon="2.11156">
        <ele>83</ele>
        <time>2022-08-10T07:23:49Z</time>
      </trkpt>
      <trkpt lat="49.93082" lon="2.11156">
        <ele>82.9</ele>
        <time>2022-08-10T07:23:50Z</time>
      </trkpt>
      <trkpt lat="49.93083" lon="2.11157">
        <ele>82.9</ele>
        <time>2022-08-10T07:23:51Z</time>
      </trkpt>
      <trkpt lat="49.93084" lon="2.11158">
        <ele>82.9</ele>
        <time>2022-08-10T07:23:52Z</time>
      </trkpt>
      <trkpt lat="49.93085" lon="2.11159">
        <ele>82.9</ele>
        <time>2022-08-10T07:23:53Z</time>
      </trkpt>
      <trkpt lat="49.93086" lon="2.1116">
        <ele>82.8</ele>
        <time>2022-08-10T07:23:55Z</time>
      </trkpt>
      <trkpt lat="49.93087" lon="2.11161">
        <ele>82.8</ele>
        <time>2022-08-10T07:23:56Z</time>
      </trkpt>
      <trkpt lat="49.93088" lon="2.11162">
        <ele>82.8</ele>
        <time>2022-08-10T07:23:57Z</time>
      </trkpt>
      <trkpt lat="49.9309" lon="2.11162">
        <ele>82.7</ele>
        <time>2022-08-10T07:23:58Z</time>
      </trkpt>
      <trkpt lat="49.93091" lon="2.11164">
        <ele>82.7</ele>
        <time>2022-08-10T07:23:59Z</time>
      </trkpt>
      <trkpt lat="49.93093" lon="2.11165">
        <ele>82.7</ele>
        <time>2022-08-10T07:24:00Z</time>
      </trkpt>
      <trkpt lat="49.93094" lon="2.11165">
        <ele>82.6</ele>
        <time>2022-08-10T07:24:01Z</time>
      </trkpt>
      <trkpt lat="49.93095" lon="2.11166">
        <ele>82.6</ele>
        <time>2022-08-10T07:24:02Z</time>
      </trkpt>
      <trkpt lat="49.93097" lon="2.11167">
        <ele>82.6</ele>
        <time>2022-08-10T07:24:03Z</time>
      </trkpt>
      <trkpt lat="49.93098" lon="2.11167">
        <ele>82.5</ele>
        <time>2022-08-10T07:24:04Z</time>
      </trkpt>
      <trkpt lat="49.931" lon="2.11167">
        <ele>82.5</ele>
        <time>2022-08-10T07:24:06Z</time>
      </trkpt>
      <trkpt lat="49.93102" lon="2.11168">
        <ele>82.5</ele>
        <time>2022-08-10T07:24:07Z</time>
      </trkpt>
      <trkpt lat="49.93103" lon="2.11169">
        <ele>82.4</ele>
        <time>2022-08-10T07:24:08Z</time>
      </trkpt>
      <trkpt lat="49.93104" lon="2.11169">
        <ele>82.4</ele>
        <time>2022-08-10T07:24:09Z</time>
      </trkpt>
      <trkpt lat="49.93106" lon="2.1117">
        <ele>82.4</ele>
        <time>2022-08-10T07:24:11Z</time>
      </trkpt>
      <trkpt lat="49.93107" lon="2.1117">
        <ele>82.3</ele>
        <time>2022-08-10T07:24:12Z</time>
      </trkpt>
      <trkpt lat="49.93108" lon="2.11171">
        <ele>82.3</ele>
        <time>2022-08-10T07:24:13Z</time>
      </trkpt>
      <trkpt lat="49.9311" lon="2.11172">
        <ele>82.3</ele>
        <time>2022-08-10T07:24:14Z</time>
      </trkpt>
      <trkpt lat="49.93111" lon="2.11173">
        <ele>82.3</ele>
        <time>2022-08-10T07:24:16Z</time>
      </trkpt>
      <trkpt lat="49.93112" lon="2.11173">
        <ele>82.2</ele>
        <time>2022-08-10T07:24:17Z</time>
      </trkpt>
      <trkpt lat="49.93114" lon="2.11174">
        <ele>82.2</ele>
        <time>2022-08-10T07:24:18Z</time>
      </trkpt>
      <trkpt lat="49.93115" lon="2.11174">
        <ele>82.2</ele>
        <time>2022-08-10T07:24:19Z</time>
      </trkpt>
      <trkpt lat="49.93116" lon="2.11175">
        <ele>82.2</ele>
        <time>2022-08-10T07:24:20Z</time>
      </trkpt>
      <trkpt lat="49.93117" lon="2.11175">
        <ele>82.1</ele>
        <time>2022-08-10T07:24:21Z</time>
      </trkpt>
      <trkpt lat="49.93119" lon="2.11177">
        <ele>82.1</ele>
        <time>2022-08-10T07:24:23Z</time>
      </trkpt>
      <trkpt lat="49.93121" lon="2.11177">
        <ele>82.1</ele>
        <time>2022-08-10T07:24:24Z</time>
      </trkpt>
      <trkpt lat="49.93122" lon="2.11178">
        <ele>82</ele>
        <time>2022-08-10T07:24:25Z</time>
      </trkpt>
      <trkpt lat="49.93123" lon="2.11178">
        <ele>82</ele>
        <time>2022-08-10T07:24:27Z</time>
      </trkpt>
      <trkpt lat="49.93124" lon="2.11179">
        <ele>82</ele>
        <time>2022-08-10T07:24:28Z</time>
      </trkpt>
      <trkpt lat="49.93126" lon="2.1118">
        <ele>82</ele>
        <time>2022-08-10T07:24:29Z</time>
      </trkpt>
      <trkpt lat="49.93126" lon="2.11181">
        <ele>81.9</ele>
        <time>2022-08-10T07:24:30Z</time>
      </trkpt>
      <trkpt lat="49.93128" lon="2.11182">
        <ele>81.9</ele>
        <time>2022-08-10T07:24:31Z</time>
      </trkpt>
      <trkpt lat="49.93129" lon="2.11183">
        <ele>81.9</ele>
        <time>2022-08-10T07:24:32Z</time>
      </trkpt>
      <trkpt lat="49.9313" lon="2.11184">
        <ele>81.8</ele>
        <time>2022-08-10T07:24:33Z</time>
      </trkpt>
      <trkpt lat="49.93131" lon="2.11184">
        <ele>81.8</ele>
        <time>2022-08-10T07:24:34Z</time>
      </trkpt>
      <trkpt lat="49.93132" lon="2.11185">
        <ele>81.8</ele>
        <time>2022-08-10T07:24:36Z</time>
      </trkpt>
      <trkpt lat="49.93133" lon="2.11186">
        <ele>81.8</ele>
        <time>2022-08-10T07:24:37Z</time>
      </trkpt>
      <trkpt lat="49.93134" lon="2.11187">
        <ele>81.7</ele>
        <time>2022-08-10T07:24:38Z</time>
      </trkpt>
      <trkpt lat="49.93135" lon="2.11188">
        <ele>81.7</ele>
        <time>2022-08-10T07:24:39Z</time>
      </trkpt>
      <trkpt lat="49.93136" lon="2.11188">
        <ele>81.7</ele>
        <time>2022-08-10T07:24:40Z</time>
      </trkpt>
      <trkpt lat="49.93137" lon="2.11189">
        <ele>81.7</ele>
        <time>2022-08-10T07:24:41Z</time>
      </trkpt>
      <trkpt lat="49.93138" lon="2.1119">
        <ele>81.6</ele>
        <time>2022-08-10T07:24:42Z</time>
      </trkpt>
      <trkpt lat="49.9314" lon="2.11191">
        <ele>81.6</ele>
        <time>2022-08-10T07:24:44Z</time>
      </trkpt>
      <trkpt lat="49.93141" lon="2.11192">
        <ele>81.6</ele>
        <time>2022-08-10T07:24:45Z</time>
      </trkpt>
      <trkpt lat="49.93142" lon="2.11193">
        <ele>81.6</ele>
        <time>2022-08-10T07:24:46Z</time>
      </trkpt>
      <trkpt lat="49.93143" lon="2.11193">
        <ele>81.6</ele>
        <time>2022-08-10T07:24:47Z</time>
      </trkpt>
      <trkpt lat="49.93144" lon="2.11194">
        <ele>81.5</ele>
        <time>2022-08-10T07:24:48Z</time>
      </trkpt>
      <trkpt lat="49.93145" lon="2.11195">
        <ele>81.5</ele>
        <time>2022-08-10T07:24:49Z</time>
      </trkpt>
      <trkpt lat="49.93146" lon="2.11196">
        <ele>81.5</ele>
        <time>2022-08-10T07:24:50Z</time>
      </trkpt>
      <trkpt lat="49.93148" lon="2.11197">
        <ele>81.5</ele>
        <time>2022-08-10T07:24:51Z</time>
      </trkpt>
      <trkpt lat="49.93149" lon="2.11198">
        <ele>81.4</ele>
        <time>2022-08-10T07:24:53Z</time>
      </trkpt>
      <trkpt lat="49.93151" lon="2.11199">
        <ele>81.4</ele>
        <time>2022-08-10T07:24:54Z</time>
      </trkpt>
      <trkpt lat="49.93152" lon="2.112">
        <ele>81.4</ele>
        <time>2022-08-10T07:24:55Z</time>
      </trkpt>
      <trkpt lat="49.93154" lon="2.11202">
        <ele>81.4</ele>
        <time>2022-08-10T07:24:56Z</time>
      </trkpt>
      <trkpt lat="49.93154" lon="2.11202">
        <ele>81.4</ele>
        <time>2022-08-10T07:24:58Z</time>
      </trkpt>
      <trkpt lat="49.93155" lon="2.11203">
        <ele>81.3</ele>
        <time>2022-08-10T07:24:59Z</time>
      </trkpt>
      <trkpt lat="49.93156" lon="2.11203">
        <ele>81.3</ele>
        <time>2022-08-10T07:25:00Z</time>
      </trkpt>
      <trkpt lat="49.93157" lon="2.11204">
        <ele>81.3</ele>
        <time>2022-08-10T07:25:01Z</time>
      </trkpt>
      <trkpt lat="49.93158" lon="2.11205">
        <ele>81.3</ele>
        <time>2022-08-10T07:25:02Z</time>
      </trkpt>
      <trkpt lat="49.9316" lon="2.11207">
        <ele>81.3</ele>
        <time>2022-08-10T07:25:04Z</time>
      </trkpt>
      <trkpt lat="49.9316" lon="2.11207">
        <ele>81.3</ele>
        <time>2022-08-10T07:25:05Z</time>
      </trkpt>
      <trkpt lat="49.93161" lon="2.11208">
        <ele>81.3</ele>
        <time>2022-08-10T07:25:06Z</time>
      </trkpt>
      <trkpt lat="49.93162" lon="2.11209">
        <ele>81.2</ele>
        <time>2022-08-10T07:25:07Z</time>
      </trkpt>
      <trkpt lat="49.93163" lon="2.1121">
        <ele>81.2</ele>
        <time>2022-08-10T07:25:08Z</time>
      </trkpt>
      <trkpt lat="49.93164" lon="2.11212">
        <ele>81.2</ele>
        <time>2022-08-10T07:25:09Z</time>
      </trkpt>
      <trkpt lat="49.93165" lon="2.11212">
        <ele>81.2</ele>
        <time>2022-08-10T07:25:10Z</time>
      </trkpt>
      <trkpt lat="49.93167" lon="2.11214">
        <ele>81.2</ele>
        <time>2022-08-10T07:25:12Z</time>
      </trkpt>
      <trkpt lat="49.93168" lon="2.11214">
        <ele>81.2</ele>
        <time>2022-08-10T07:25:13Z</time>
      </trkpt>
      <trkpt lat="49.9317" lon="2.11216">
        <ele>81.1</ele>
        <time>2022-08-10T07:25:14Z</time>
      </trkpt>
      <trkpt lat="49.93172" lon="2.11217">
        <ele>81.1</ele>
        <time>2022-08-10T07:25:15Z</time>
      </trkpt>
      <trkpt lat="49.93173" lon="2.11217">
        <ele>81.1</ele>
        <time>2022-08-10T07:25:16Z</time>
      </trkpt>
      <trkpt lat="49.93174" lon="2.11218">
        <ele>81.1</ele>
        <time>2022-08-10T07:25:18Z</time>
      </trkpt>
      <trkpt lat="49.93175" lon="2.11218">
        <ele>81.1</ele>
        <time>2022-08-10T07:25:19Z</time>
      </trkpt>
      <trkpt lat="49.93176" lon="2.11218">
        <ele>81.1</ele>
        <time>2022-08-10T07:25:20Z</time>
      </trkpt>
      <trkpt lat="49.93177" lon="2.11219">
        <ele>81.1</ele>
        <time>2022-08-10T07:25:21Z</time>
      </trkpt>
      <trkpt lat="49.93179" lon="2.1122">
        <ele>81.1</ele>
        <time>2022-08-10T07:25:22Z</time>
      </trkpt>
      <trkpt lat="49.9318" lon="2.1122">
        <ele>81.1</ele>
        <time>2022-08-10T07:25:23Z</time>
      </trkpt>
      <trkpt lat="49.93181" lon="2.11221">
        <ele>81.1</ele>
        <time>2022-08-10T07:25:24Z</time>
      </trkpt>
      <trkpt lat="49.93182" lon="2.11222">
        <ele>81.1</ele>
        <time>2022-08-10T07:25:25Z</time>
      </trkpt>
      <trkpt lat="49.93183" lon="2.11222">
        <ele>81.1</ele>
        <time>2022-08-10T07:25:26Z</time>
      </trkpt>
      <trkpt lat="49.93184" lon="2.11223">
        <ele>81</ele>
        <time>2022-08-10T07:25:27Z</time>
      </trkpt>
      <trkpt lat="49.93185" lon="2.11224">
        <ele>81</ele>
        <time>2022-08-10T07:25:28Z</time>
      </trkpt>
      <trkpt lat="49.93186" lon="2.11224">
        <ele>81</ele>
        <time>2022-08-10T07:25:30Z</time>
      </trkpt>
      <trkpt lat="49.93187" lon="2.11225">
        <ele>81</ele>
        <time>2022-08-10T07:25:31Z</time>
      </trkpt>
      <trkpt lat="49.93189" lon="2.11226">
        <ele>81</ele>
        <time>2022-08-10T07:25:32Z</time>
      </trkpt>
      <trkpt lat="49.9319" lon="2.11227">
        <ele>81</ele>
        <time>2022-08-10T07:25:33Z</time>
      </trkpt>
      <trkpt lat="49.93191" lon="2.11227">
        <ele>81</ele>
        <time>2022-08-10T07:25:34Z</time>
      </trkpt>
      <trkpt lat="49.93192" lon="2.11228">
        <ele>81</ele>
        <time>2022-08-10T07:25:35Z</time>
      </trkpt>
      <trkpt lat="49.93193" lon="2.11228">
        <ele>81</ele>
        <time>2022-08-10T07:25:36Z</time>
      </trkpt>
      <trkpt lat="49.93194" lon="2.11229">
        <ele>81</ele>
        <time>2022-08-10T07:25:37Z</time>
      </trkpt>
      <trkpt lat="49.93196" lon="2.11231">
        <ele>80.9</ele>
        <time>2022-08-10T07:25:39Z</time>
      </trkpt>
      <trkpt lat="49.93197" lon="2.11232">
        <ele>80.9</ele>
        <time>2022-08-10T07:25:40Z</time>
      </trkpt>
      <trkpt lat="49.93198" lon="2.11233">
        <ele>80.9</ele>
        <time>2022-08-10T07:25:41Z</time>
      </trkpt>
      <trkpt lat="49.93199" lon="2.11233">
        <ele>80.9</ele>
        <time>2022-08-10T07:25:42Z</time>
      </trkpt>
      <trkpt lat="49.932" lon="2.11234">
        <ele>80.9</ele>
        <time>2022-08-10T07:25:43Z</time>
      </trkpt>
      <trkpt lat="49.93201" lon="2.11236">
        <ele>80.9</ele>
        <time>2022-08-10T07:25:44Z</time>
      </trkpt>
      <trkpt lat="49.93202" lon="2.11237">
        <ele>80.9</ele>
        <time>2022-08-10T07:25:45Z</time>
      </trkpt>
      <trkpt lat="49.93203" lon="2.11238">
        <ele>80.9</ele>
        <time>2022-08-10T07:25:47Z</time>
      </trkpt>
      <trkpt lat="49.93204" lon="2.11238">
        <ele>80.9</ele>
        <time>2022-08-10T07:25:48Z</time>
      </trkpt>
      <trkpt lat="49.93206" lon="2.11239">
        <ele>80.9</ele>
        <time>2022-08-10T07:25:49Z</time>
      </trkpt>
      <trkpt lat="49.93206" lon="2.1124">
        <ele>80.9</ele>
        <time>2022-08-10T07:25:50Z</time>
      </trkpt>
      <trkpt lat="49.93207" lon="2.1124">
        <ele>80.9</ele>
        <time>2022-08-10T07:25:51Z</time>
      </trkpt>
      <trkpt lat="49.93209" lon="2.11241">
        <ele>80.9</ele>
        <time>2022-08-10T07:25:52Z</time>
      </trkpt>
      <trkpt lat="49.9321" lon="2.11241">
        <ele>80.9</ele>
        <time>2022-08-10T07:25:53Z</time>
      </trkpt>
      <trkpt lat="49.93211" lon="2.11242">
        <ele>80.9</ele>
        <time>2022-08-10T07:25:54Z</time>
      </trkpt>
      <trkpt lat="49.93212" lon="2.11243">
        <ele>80.9</ele>
        <time>2022-08-10T07:25:55Z</time>
      </trkpt>
      <trkpt lat="49.93213" lon="2.11244">
        <ele>80.9</ele>
        <time>2022-08-10T07:25:56Z</time>
      </trkpt>
      <trkpt lat="49.93214" lon="2.11244">
        <ele>80.9</ele>
        <time>2022-08-10T07:25:58Z</time>
      </trkpt>
      <trkpt lat="49.93215" lon="2.11245">
        <ele>80.9</ele>
        <time>2022-08-10T07:25:59Z</time>
      </trkpt>
      <trkpt lat="49.93217" lon="2.11246">
        <ele>80.9</ele>
        <time>2022-08-10T07:26:00Z</time>
      </trkpt>
      <trkpt lat="49.93217" lon="2.11246">
        <ele>80.9</ele>
        <time>2022-08-10T07:26:01Z</time>
      </trkpt>
      <trkpt lat="49.9322" lon="2.11247">
        <ele>80.9</ele>
        <time>2022-08-10T07:26:02Z</time>
      </trkpt>
      <trkpt lat="49.93221" lon="2.11247">
        <ele>80.9</ele>
        <time>2022-08-10T07:26:04Z</time>
      </trkpt>
      <trkpt lat="49.93222" lon="2.11248">
        <ele>80.9</ele>
        <time>2022-08-10T07:26:05Z</time>
      </trkpt>
      <trkpt lat="49.93223" lon="2.11248">
        <ele>80.9</ele>
        <time>2022-08-10T07:26:06Z</time>
      </trkpt>
      <trkpt lat="49.93224" lon="2.11248">
        <ele>80.9</ele>
        <time>2022-08-10T07:26:07Z</time>
      </trkpt>
      <trkpt lat="49.93226" lon="2.11249">
        <ele>80.9</ele>
        <time>2022-08-10T07:26:08Z</time>
      </trkpt>
      <trkpt lat="49.93227" lon="2.1125">
        <ele>80.9</ele>
        <time>2022-08-10T07:26:09Z</time>
      </trkpt>
      <trkpt lat="49.93228" lon="2.11251">
        <ele>80.9</ele>
        <time>2022-08-10T07:26:11Z</time>
      </trkpt>
      <trkpt lat="49.9323" lon="2.11252">
        <ele>80.9</ele>
        <time>2022-08-10T07:26:12Z</time>
      </trkpt>
      <trkpt lat="49.93231" lon="2.11253">
        <ele>80.9</ele>
        <time>2022-08-10T07:26:13Z</time>
      </trkpt>
      <trkpt lat="49.93233" lon="2.11253">
        <ele>80.9</ele>
        <time>2022-08-10T07:26:14Z</time>
      </trkpt>
      <trkpt lat="49.93234" lon="2.11254">
        <ele>80.9</ele>
        <time>2022-08-10T07:26:15Z</time>
      </trkpt>
      <trkpt lat="49.93235" lon="2.11254">
        <ele>80.9</ele>
        <time>2022-08-10T07:26:16Z</time>
      </trkpt>
      <trkpt lat="49.93236" lon="2.11255">
        <ele>80.9</ele>
        <time>2022-08-10T07:26:18Z</time>
      </trkpt>
      <trkpt lat="49.93239" lon="2.11256">
        <ele>80.9</ele>
        <time>2022-08-10T07:26:19Z</time>
      </trkpt>
      <trkpt lat="49.9324" lon="2.11256">
        <ele>80.9</ele>
        <time>2022-08-10T07:26:21Z</time>
      </trkpt>
      <trkpt lat="49.93242" lon="2.11257">
        <ele>80.9</ele>
        <time>2022-08-10T07:26:22Z</time>
      </trkpt>
      <trkpt lat="49.93244" lon="2.11258">
        <ele>80.9</ele>
        <time>2022-08-10T07:26:24Z</time>
      </trkpt>
      <trkpt lat="49.93246" lon="2.11259">
        <ele>80.9</ele>
        <time>2022-08-10T07:26:25Z</time>
      </trkpt>
      <trkpt lat="49.93247" lon="2.1126">
        <ele>81</ele>
        <time>2022-08-10T07:26:26Z</time>
      </trkpt>
      <trkpt lat="49.93249" lon="2.11261">
        <ele>81</ele>
        <time>2022-08-10T07:26:27Z</time>
      </trkpt>
      <trkpt lat="49.9325" lon="2.11261">
        <ele>81</ele>
        <time>2022-08-10T07:26:28Z</time>
      </trkpt>
      <trkpt lat="49.93251" lon="2.11262">
        <ele>81</ele>
        <time>2022-08-10T07:26:29Z</time>
      </trkpt>
      <trkpt lat="49.93251" lon="2.11262">
        <ele>81</ele>
        <time>2022-08-10T07:26:30Z</time>
      </trkpt>
      <trkpt lat="49.93252" lon="2.11263">
        <ele>81</ele>
        <time>2022-08-10T07:26:31Z</time>
      </trkpt>
      <trkpt lat="49.93254" lon="2.11264">
        <ele>81</ele>
        <time>2022-08-10T07:26:32Z</time>
      </trkpt>
      <trkpt lat="49.93255" lon="2.11264">
        <ele>81</ele>
        <time>2022-08-10T07:26:33Z</time>
      </trkpt>
      <trkpt lat="49.93256" lon="2.11265">
        <ele>81</ele>
        <time>2022-08-10T07:26:35Z</time>
      </trkpt>
      <trkpt lat="49.93257" lon="2.11266">
        <ele>81</ele>
        <time>2022-08-10T07:26:36Z</time>
      </trkpt>
      <trkpt lat="49.93258" lon="2.11266">
        <ele>81</ele>
        <time>2022-08-10T07:26:37Z</time>
      </trkpt>
      <trkpt lat="49.93259" lon="2.11267">
        <ele>81</ele>
        <time>2022-08-10T07:26:38Z</time>
      </trkpt>
      <trkpt lat="49.93261" lon="2.11268">
        <ele>81</ele>
        <time>2022-08-10T07:26:39Z</time>
      </trkpt>
      <trkpt lat="49.93262" lon="2.11269">
        <ele>81</ele>
        <time>2022-08-10T07:26:40Z</time>
      </trkpt>
      <trkpt lat="49.93263" lon="2.1127">
        <ele>81</ele>
        <time>2022-08-10T07:26:42Z</time>
      </trkpt>
      <trkpt lat="49.93264" lon="2.11271">
        <ele>81</ele>
        <time>2022-08-10T07:26:43Z</time>
      </trkpt>
      <trkpt lat="49.93265" lon="2.11271">
        <ele>81</ele>
        <time>2022-08-10T07:26:44Z</time>
      </trkpt>
      <trkpt lat="49.93266" lon="2.11272">
        <ele>81</ele>
        <time>2022-08-10T07:26:45Z</time>
      </trkpt>
      <trkpt lat="49.93267" lon="2.11273">
        <ele>81</ele>
        <time>2022-08-10T07:26:46Z</time>
      </trkpt>
      <trkpt lat="49.93268" lon="2.11274">
        <ele>81</ele>
        <time>2022-08-10T07:26:47Z</time>
      </trkpt>
      <trkpt lat="49.93269" lon="2.11275">
        <ele>81</ele>
        <time>2022-08-10T07:26:48Z</time>
      </trkpt>
      <trkpt lat="49.93271" lon="2.11277">
        <ele>81</ele>
        <time>2022-08-10T07:26:49Z</time>
      </trkpt>
      <trkpt lat="49.93272" lon="2.11278">
        <ele>81</ele>
        <time>2022-08-10T07:26:50Z</time>
      </trkpt>
      <trkpt lat="49.93273" lon="2.11279">
        <ele>81.1</ele>
        <time>2022-08-10T07:26:52Z</time>
      </trkpt>
      <trkpt lat="49.93273" lon="2.1128">
        <ele>81.1</ele>
        <time>2022-08-10T07:26:53Z</time>
      </trkpt>
      <trkpt lat="49.93274" lon="2.1128">
        <ele>81.1</ele>
        <time>2022-08-10T07:26:54Z</time>
      </trkpt>
      <trkpt lat="49.93275" lon="2.11281">
        <ele>81.1</ele>
        <time>2022-08-10T07:26:55Z</time>
      </trkpt>
      <trkpt lat="49.93276" lon="2.11282">
        <ele>81.1</ele>
        <time>2022-08-10T07:26:57Z</time>
      </trkpt>
      <trkpt lat="49.93277" lon="2.11282">
        <ele>81.1</ele>
        <time>2022-08-10T07:26:58Z</time>
      </trkpt>
      <trkpt lat="49.93278" lon="2.11283">
        <ele>81.1</ele>
        <time>2022-08-10T07:26:59Z</time>
      </trkpt>
      <trkpt lat="49.93279" lon="2.11283">
        <ele>81.1</ele>
        <time>2022-08-10T07:27:00Z</time>
      </trkpt>
      <trkpt lat="49.9328" lon="2.11284">
        <ele>81.1</ele>
        <time>2022-08-10T07:27:01Z</time>
      </trkpt>
      <trkpt lat="49.93281" lon="2.11284">
        <ele>81.1</ele>
        <time>2022-08-10T07:27:02Z</time>
      </trkpt>
      <trkpt lat="49.93282" lon="2.11285">
        <ele>81.1</ele>
        <time>2022-08-10T07:27:03Z</time>
      </trkpt>
      <trkpt lat="49.93284" lon="2.11285">
        <ele>81.1</ele>
        <time>2022-08-10T07:27:04Z</time>
      </trkpt>
      <trkpt lat="49.93285" lon="2.11286">
        <ele>81.1</ele>
        <time>2022-08-10T07:27:05Z</time>
      </trkpt>
      <trkpt lat="49.93286" lon="2.11286">
        <ele>81.1</ele>
        <time>2022-08-10T07:27:06Z</time>
      </trkpt>
      <trkpt lat="49.93287" lon="2.11287">
        <ele>81.1</ele>
        <time>2022-08-10T07:27:08Z</time>
      </trkpt>
      <trkpt lat="49.93288" lon="2.11288">
        <ele>81.1</ele>
        <time>2022-08-10T07:27:09Z</time>
      </trkpt>
      <trkpt lat="49.9329" lon="2.11288">
        <ele>81.1</ele>
        <time>2022-08-10T07:27:10Z</time>
      </trkpt>
      <trkpt lat="49.9329" lon="2.11289">
        <ele>81.1</ele>
        <time>2022-08-10T07:27:11Z</time>
      </trkpt>
      <trkpt lat="49.93292" lon="2.1129">
        <ele>81.2</ele>
        <time>2022-08-10T07:27:12Z</time>
      </trkpt>
      <trkpt lat="49.93293" lon="2.1129">
        <ele>81.2</ele>
        <time>2022-08-10T07:27:13Z</time>
      </trkpt>
      <trkpt lat="49.93294" lon="2.11291">
        <ele>81.2</ele>
        <time>2022-08-10T07:27:14Z</time>
      </trkpt>
      <trkpt lat="49.93295" lon="2.11291">
        <ele>81.2</ele>
        <time>2022-08-10T07:27:15Z</time>
      </trkpt>
      <trkpt lat="49.93297" lon="2.11291">
        <ele>81.2</ele>
        <time>2022-08-10T07:27:17Z</time>
      </trkpt>
      <trkpt lat="49.93298" lon="2.11292">
        <ele>81.2</ele>
        <time>2022-08-10T07:27:18Z</time>
      </trkpt>
      <trkpt lat="49.933" lon="2.11292">
        <ele>81.2</ele>
        <time>2022-08-10T07:27:19Z</time>
      </trkpt>
      <trkpt lat="49.93301" lon="2.11292">
        <ele>81.2</ele>
        <time>2022-08-10T07:27:20Z</time>
      </trkpt>
      <trkpt lat="49.93302" lon="2.11292">
        <ele>81.2</ele>
        <time>2022-08-10T07:27:21Z</time>
      </trkpt>
      <trkpt lat="49.93304" lon="2.11293">
        <ele>81.2</ele>
        <time>2022-08-10T07:27:22Z</time>
      </trkpt>
      <trkpt lat="49.93305" lon="2.11294">
        <ele>81.2</ele>
        <time>2022-08-10T07:27:23Z</time>
      </trkpt>
      <trkpt lat="49.93306" lon="2.11294">
        <ele>81.2</ele>
        <time>2022-08-10T07:27:24Z</time>
      </trkpt>
      <trkpt lat="49.93307" lon="2.11295">
        <ele>81.2</ele>
        <time>2022-08-10T07:27:26Z</time>
      </trkpt>
      <trkpt lat="49.93308" lon="2.11295">
        <ele>81.2</ele>
        <time>2022-08-10T07:27:27Z</time>
      </trkpt>
      <trkpt lat="49.93309" lon="2.11296">
        <ele>81.2</ele>
        <time>2022-08-10T07:27:28Z</time>
      </trkpt>
      <trkpt lat="49.9331" lon="2.11296">
        <ele>81.2</ele>
        <time>2022-08-10T07:27:29Z</time>
      </trkpt>
      <trkpt lat="49.93312" lon="2.11297">
        <ele>81.2</ele>
        <time>2022-08-10T07:27:30Z</time>
      </trkpt>
      <trkpt lat="49.93313" lon="2.11298">
        <ele>81.2</ele>
        <time>2022-08-10T07:27:31Z</time>
      </trkpt>
      <trkpt lat="49.93314" lon="2.11298">
        <ele>81.2</ele>
        <time>2022-08-10T07:27:32Z</time>
      </trkpt>
      <trkpt lat="49.93315" lon="2.11299">
        <ele>81.2</ele>
        <time>2022-08-10T07:27:33Z</time>
      </trkpt>
      <trkpt lat="49.93316" lon="2.113">
        <ele>81.2</ele>
        <time>2022-08-10T07:27:35Z</time>
      </trkpt>
      <trkpt lat="49.93317" lon="2.113">
        <ele>81.2</ele>
        <time>2022-08-10T07:27:36Z</time>
      </trkpt>
      <trkpt lat="49.9332" lon="2.11301">
        <ele>81.1</ele>
        <time>2022-08-10T07:27:37Z</time>
      </trkpt>
      <trkpt lat="49.9332" lon="2.11301">
        <ele>81.1</ele>
        <time>2022-08-10T07:27:38Z</time>
      </trkpt>
      <trkpt lat="49.93322" lon="2.11302">
        <ele>81.1</ele>
        <time>2022-08-10T07:27:39Z</time>
      </trkpt>
      <trkpt lat="49.93323" lon="2.11303">
        <ele>81.1</ele>
        <time>2022-08-10T07:27:40Z</time>
      </trkpt>
      <trkpt lat="49.93324" lon="2.11303">
        <ele>81.1</ele>
        <time>2022-08-10T07:27:41Z</time>
      </trkpt>
      <trkpt lat="49.93326" lon="2.11304">
        <ele>81.1</ele>
        <time>2022-08-10T07:27:43Z</time>
      </trkpt>
      <trkpt lat="49.93327" lon="2.11304">
        <ele>81.1</ele>
        <time>2022-08-10T07:27:44Z</time>
      </trkpt>
      <trkpt lat="49.93328" lon="2.11305">
        <ele>81.1</ele>
        <time>2022-08-10T07:27:45Z</time>
      </trkpt>
      <trkpt lat="49.93329" lon="2.11305">
        <ele>81.1</ele>
        <time>2022-08-10T07:27:46Z</time>
      </trkpt>
      <trkpt lat="49.93331" lon="2.11305">
        <ele>81.1</ele>
        <time>2022-08-10T07:27:47Z</time>
      </trkpt>
      <trkpt lat="49.93333" lon="2.11306">
        <ele>81.1</ele>
        <time>2022-08-10T07:27:48Z</time>
      </trkpt>
      <trkpt lat="49.93334" lon="2.11306">
        <ele>81.1</ele>
        <time>2022-08-10T07:27:49Z</time>
      </trkpt>
      <trkpt lat="49.93335" lon="2.11306">
        <ele>81.1</ele>
        <time>2022-08-10T07:27:50Z</time>
      </trkpt>
      <trkpt lat="49.93337" lon="2.11307">
        <ele>81.1</ele>
        <time>2022-08-10T07:27:52Z</time>
      </trkpt>
      <trkpt lat="49.93338" lon="2.11307">
        <ele>81.1</ele>
        <time>2022-08-10T07:27:53Z</time>
      </trkpt>
      <trkpt lat="49.93338" lon="2.11307">
        <ele>81</ele>
        <time>2022-08-10T07:27:54Z</time>
      </trkpt>
      <trkpt lat="49.9334" lon="2.11307">
        <ele>81</ele>
        <time>2022-08-10T07:27:55Z</time>
      </trkpt>
      <trkpt lat="49.93341" lon="2.11308">
        <ele>81</ele>
        <time>2022-08-10T07:27:56Z</time>
      </trkpt>
      <trkpt lat="49.93342" lon="2.11308">
        <ele>81</ele>
        <time>2022-08-10T07:27:57Z</time>
      </trkpt>
      <trkpt lat="49.93343" lon="2.11308">
        <ele>81</ele>
        <time>2022-08-10T07:27:58Z</time>
      </trkpt>
      <trkpt lat="49.93344" lon="2.11308">
        <ele>81</ele>
        <time>2022-08-10T07:27:59Z</time>
      </trkpt>
      <trkpt lat="49.93345" lon="2.11308">
        <ele>81</ele>
        <time>2022-08-10T07:28:01Z</time>
      </trkpt>
      <trkpt lat="49.93347" lon="2.11309">
        <ele>81</ele>
        <time>2022-08-10T07:28:02Z</time>
      </trkpt>
      <trkpt lat="49.93348" lon="2.11309">
        <ele>81</ele>
        <time>2022-08-10T07:28:03Z</time>
      </trkpt>
      <trkpt lat="49.93349" lon="2.11309">
        <ele>81</ele>
        <time>2022-08-10T07:28:04Z</time>
      </trkpt>
      <trkpt lat="49.9335" lon="2.11309">
        <ele>81</ele>
        <time>2022-08-10T07:28:05Z</time>
      </trkpt>
      <trkpt lat="49.9335" lon="2.1131">
        <ele>81</ele>
        <time>2022-08-10T07:28:06Z</time>
      </trkpt>
      <trkpt lat="49.93352" lon="2.11311">
        <ele>81</ele>
        <time>2022-08-10T07:28:07Z</time>
      </trkpt>
      <trkpt lat="49.93353" lon="2.11312">
        <ele>81</ele>
        <time>2022-08-10T07:28:08Z</time>
      </trkpt>
      <trkpt lat="49.93353" lon="2.11313">
        <ele>81</ele>
        <time>2022-08-10T07:28:09Z</time>
      </trkpt>
      <trkpt lat="49.93354" lon="2.11313">
        <ele>81</ele>
        <time>2022-08-10T07:28:11Z</time>
      </trkpt>
      <trkpt lat="49.93356" lon="2.11314">
        <ele>80.9</ele>
        <time>2022-08-10T07:28:12Z</time>
      </trkpt>
      <trkpt lat="49.93356" lon="2.11315">
        <ele>80.9</ele>
        <time>2022-08-10T07:28:13Z</time>
      </trkpt>
      <trkpt lat="49.93357" lon="2.11316">
        <ele>80.9</ele>
        <time>2022-08-10T07:28:14Z</time>
      </trkpt>
      <trkpt lat="49.93359" lon="2.11317">
        <ele>80.9</ele>
        <time>2022-08-10T07:28:15Z</time>
      </trkpt>
      <trkpt lat="49.9336" lon="2.11317">
        <ele>80.9</ele>
        <time>2022-08-10T07:28:16Z</time>
      </trkpt>
      <trkpt lat="49.93361" lon="2.11318">
        <ele>80.9</ele>
        <time>2022-08-10T07:28:17Z</time>
      </trkpt>
      <trkpt lat="49.93361" lon="2.11318">
        <ele>80.9</ele>
        <time>2022-08-10T07:28:18Z</time>
      </trkpt>
      <trkpt lat="49.93362" lon="2.11319">
        <ele>80.9</ele>
        <time>2022-08-10T07:28:19Z</time>
      </trkpt>
      <trkpt lat="49.93363" lon="2.11319">
        <ele>80.9</ele>
        <time>2022-08-10T07:28:20Z</time>
      </trkpt>
      <trkpt lat="49.93364" lon="2.1132">
        <ele>80.9</ele>
        <time>2022-08-10T07:28:21Z</time>
      </trkpt>
      <trkpt lat="49.93366" lon="2.11321">
        <ele>80.9</ele>
        <time>2022-08-10T07:28:22Z</time>
      </trkpt>
      <trkpt lat="49.93367" lon="2.11322">
        <ele>80.9</ele>
        <time>2022-08-10T07:28:23Z</time>
      </trkpt>
      <trkpt lat="49.93367" lon="2.11322">
        <ele>80.8</ele>
        <time>2022-08-10T07:28:24Z</time>
      </trkpt>
      <trkpt lat="49.93369" lon="2.11323">
        <ele>80.8</ele>
        <time>2022-08-10T07:28:25Z</time>
      </trkpt>
      <trkpt lat="49.93371" lon="2.11325">
        <ele>80.8</ele>
        <time>2022-08-10T07:28:27Z</time>
      </trkpt>
      <trkpt lat="49.93371" lon="2.11326">
        <ele>80.8</ele>
        <time>2022-08-10T07:28:28Z</time>
      </trkpt>
      <trkpt lat="49.93372" lon="2.11327">
        <ele>80.8</ele>
        <time>2022-08-10T07:28:29Z</time>
      </trkpt>
      <trkpt lat="49.93373" lon="2.11328">
        <ele>80.8</ele>
        <time>2022-08-10T07:28:30Z</time>
      </trkpt>
      <trkpt lat="49.93375" lon="2.1133">
        <ele>80.8</ele>
        <time>2022-08-10T07:28:32Z</time>
      </trkpt>
      <trkpt lat="49.93376" lon="2.11331">
        <ele>80.8</ele>
        <time>2022-08-10T07:28:33Z</time>
      </trkpt>
      <trkpt lat="49.93377" lon="2.11332">
        <ele>80.8</ele>
        <time>2022-08-10T07:28:34Z</time>
      </trkpt>
      <trkpt lat="49.93378" lon="2.11332">
        <ele>80.8</ele>
        <time>2022-08-10T07:28:35Z</time>
      </trkpt>
      <trkpt lat="49.9338" lon="2.11333">
        <ele>80.7</ele>
        <time>2022-08-10T07:28:36Z</time>
      </trkpt>
      <trkpt lat="49.93381" lon="2.11334">
        <ele>80.7</ele>
        <time>2022-08-10T07:28:37Z</time>
      </trkpt>
      <trkpt lat="49.93382" lon="2.11334">
        <ele>80.7</ele>
        <time>2022-08-10T07:28:38Z</time>
      </trkpt>
      <trkpt lat="49.93383" lon="2.11334">
        <ele>80.7</ele>
        <time>2022-08-10T07:28:40Z</time>
      </trkpt>
      <trkpt lat="49.93384" lon="2.11335">
        <ele>80.7</ele>
        <time>2022-08-10T07:28:41Z</time>
      </trkpt>
      <trkpt lat="49.93386" lon="2.11336">
        <ele>80.7</ele>
        <time>2022-08-10T07:28:42Z</time>
      </trkpt>
      <trkpt lat="49.93387" lon="2.11336">
        <ele>80.7</ele>
        <time>2022-08-10T07:28:43Z</time>
      </trkpt>
      <trkpt lat="49.93389" lon="2.11336">
        <ele>80.7</ele>
        <time>2022-08-10T07:28:44Z</time>
      </trkpt>
      <trkpt lat="49.9339" lon="2.11337">
        <ele>80.7</ele>
        <time>2022-08-10T07:28:45Z</time>
      </trkpt>
      <trkpt lat="49.93391" lon="2.11337">
        <ele>80.7</ele>
        <time>2022-08-10T07:28:46Z</time>
      </trkpt>
      <trkpt lat="49.93394" lon="2.11338">
        <ele>80.7</ele>
        <time>2022-08-10T07:28:47Z</time>
      </trkpt>
      <trkpt lat="49.93395" lon="2.11338">
        <ele>80.7</ele>
        <time>2022-08-10T07:28:49Z</time>
      </trkpt>
      <trkpt lat="49.93396" lon="2.11339">
        <ele>80.7</ele>
        <time>2022-08-10T07:28:50Z</time>
      </trkpt>
      <trkpt lat="49.93397" lon="2.11339">
        <ele>80.7</ele>
        <time>2022-08-10T07:28:51Z</time>
      </trkpt>
      <trkpt lat="49.93398" lon="2.1134">
        <ele>80.7</ele>
        <time>2022-08-10T07:28:52Z</time>
      </trkpt>
      <trkpt lat="49.93398" lon="2.1134">
        <ele>80.7</ele>
        <time>2022-08-10T07:28:53Z</time>
      </trkpt>
      <trkpt lat="49.93399" lon="2.11341">
        <ele>80.7</ele>
        <time>2022-08-10T07:28:54Z</time>
      </trkpt>
      <trkpt lat="49.934" lon="2.11342">
        <ele>80.7</ele>
        <time>2022-08-10T07:28:55Z</time>
      </trkpt>
      <trkpt lat="49.93402" lon="2.11343">
        <ele>80.7</ele>
        <time>2022-08-10T07:28:56Z</time>
      </trkpt>
      <trkpt lat="49.93402" lon="2.11344">
        <ele>80.7</ele>
        <time>2022-08-10T07:28:58Z</time>
      </trkpt>
      <trkpt lat="49.93403" lon="2.11345">
        <ele>80.7</ele>
        <time>2022-08-10T07:28:59Z</time>
      </trkpt>
      <trkpt lat="49.93405" lon="2.11346">
        <ele>80.7</ele>
        <time>2022-08-10T07:29:00Z</time>
      </trkpt>
      <trkpt lat="49.93406" lon="2.11347">
        <ele>80.7</ele>
        <time>2022-08-10T07:29:01Z</time>
      </trkpt>
      <trkpt lat="49.93406" lon="2.11348">
        <ele>80.7</ele>
        <time>2022-08-10T07:29:02Z</time>
      </trkpt>
      <trkpt lat="49.93407" lon="2.11349">
        <ele>80.7</ele>
        <time>2022-08-10T07:29:03Z</time>
      </trkpt>
      <trkpt lat="49.93409" lon="2.1135">
        <ele>80.8</ele>
        <time>2022-08-10T07:29:04Z</time>
      </trkpt>
      <trkpt lat="49.9341" lon="2.11351">
        <ele>80.8</ele>
        <time>2022-08-10T07:29:06Z</time>
      </trkpt>
      <trkpt lat="49.93411" lon="2.11352">
        <ele>80.8</ele>
        <time>2022-08-10T07:29:07Z</time>
      </trkpt>
      <trkpt lat="49.93412" lon="2.11353">
        <ele>80.8</ele>
        <time>2022-08-10T07:29:08Z</time>
      </trkpt>
      <trkpt lat="49.93414" lon="2.11354">
        <ele>80.8</ele>
        <time>2022-08-10T07:29:10Z</time>
      </trkpt>
      <trkpt lat="49.93415" lon="2.11355">
        <ele>80.8</ele>
        <time>2022-08-10T07:29:11Z</time>
      </trkpt>
      <trkpt lat="49.93418" lon="2.11356">
        <ele>80.8</ele>
        <time>2022-08-10T07:29:12Z</time>
      </trkpt>
      <trkpt lat="49.93418" lon="2.11356">
        <ele>80.8</ele>
        <time>2022-08-10T07:29:13Z</time>
      </trkpt>
      <trkpt lat="49.93419" lon="2.11356">
        <ele>80.8</ele>
        <time>2022-08-10T07:29:14Z</time>
      </trkpt>
      <trkpt lat="49.9342" lon="2.11357">
        <ele>80.8</ele>
        <time>2022-08-10T07:29:15Z</time>
      </trkpt>
      <trkpt lat="49.93422" lon="2.11358">
        <ele>80.8</ele>
        <time>2022-08-10T07:29:16Z</time>
      </trkpt>
      <trkpt lat="49.93424" lon="2.11359">
        <ele>80.8</ele>
        <time>2022-08-10T07:29:17Z</time>
      </trkpt>
      <trkpt lat="49.93425" lon="2.11359">
        <ele>80.8</ele>
        <time>2022-08-10T07:29:19Z</time>
      </trkpt>
      <trkpt lat="49.93425" lon="2.1136">
        <ele>80.8</ele>
        <time>2022-08-10T07:29:20Z</time>
      </trkpt>
      <trkpt lat="49.93426" lon="2.1136">
        <ele>80.8</ele>
        <time>2022-08-10T07:29:21Z</time>
      </trkpt>
      <trkpt lat="49.93428" lon="2.11361">
        <ele>80.8</ele>
        <time>2022-08-10T07:29:22Z</time>
      </trkpt>
      <trkpt lat="49.93428" lon="2.11362">
        <ele>80.8</ele>
        <time>2022-08-10T07:29:23Z</time>
      </trkpt>
      <trkpt lat="49.93429" lon="2.11362">
        <ele>80.8</ele>
        <time>2022-08-10T07:29:24Z</time>
      </trkpt>
      <trkpt lat="49.9343" lon="2.11363">
        <ele>80.8</ele>
        <time>2022-08-10T07:29:25Z</time>
      </trkpt>
      <trkpt lat="49.93431" lon="2.11363">
        <ele>80.8</ele>
        <time>2022-08-10T07:29:26Z</time>
      </trkpt>
      <trkpt lat="49.93432" lon="2.11364">
        <ele>80.8</ele>
        <time>2022-08-10T07:29:28Z</time>
      </trkpt>
      <trkpt lat="49.93433" lon="2.11365">
        <ele>80.8</ele>
        <time>2022-08-10T07:29:29Z</time>
      </trkpt>
      <trkpt lat="49.93434" lon="2.11366">
        <ele>80.8</ele>
        <time>2022-08-10T07:29:30Z</time>
      </trkpt>
      <trkpt lat="49.93435" lon="2.11367">
        <ele>80.8</ele>
        <time>2022-08-10T07:29:31Z</time>
      </trkpt>
      <trkpt lat="49.93436" lon="2.11368">
        <ele>80.8</ele>
        <time>2022-08-10T07:29:32Z</time>
      </trkpt>
      <trkpt lat="49.93437" lon="2.1137">
        <ele>80.8</ele>
        <time>2022-08-10T07:29:34Z</time>
      </trkpt>
      <trkpt lat="49.93439" lon="2.11371">
        <ele>80.8</ele>
        <time>2022-08-10T07:29:35Z</time>
      </trkpt>
      <trkpt lat="49.9344" lon="2.11372">
        <ele>80.8</ele>
        <time>2022-08-10T07:29:36Z</time>
      </trkpt>
      <trkpt lat="49.93441" lon="2.11372">
        <ele>80.8</ele>
        <time>2022-08-10T07:29:37Z</time>
      </trkpt>
      <trkpt lat="49.93442" lon="2.11373">
        <ele>80.8</ele>
        <time>2022-08-10T07:29:38Z</time>
      </trkpt>
      <trkpt lat="49.93443" lon="2.11373">
        <ele>80.8</ele>
        <time>2022-08-10T07:29:39Z</time>
      </trkpt>
      <trkpt lat="49.93444" lon="2.11374">
        <ele>80.8</ele>
        <time>2022-08-10T07:29:40Z</time>
      </trkpt>
      <trkpt lat="49.93446" lon="2.11375">
        <ele>80.8</ele>
        <time>2022-08-10T07:29:42Z</time>
      </trkpt>
      <trkpt lat="49.93447" lon="2.11375">
        <ele>80.8</ele>
        <time>2022-08-10T07:29:43Z</time>
      </trkpt>
      <trkpt lat="49.93448" lon="2.11375">
        <ele>80.8</ele>
        <time>2022-08-10T07:29:44Z</time>
      </trkpt>
      <trkpt lat="49.9345" lon="2.11376">
        <ele>80.9</ele>
        <time>2022-08-10T07:29:45Z</time>
      </trkpt>
      <trkpt lat="49.93451" lon="2.11377">
        <ele>80.9</ele>
        <time>2022-08-10T07:29:46Z</time>
      </trkpt>
      <trkpt lat="49.93452" lon="2.11377">
        <ele>80.9</ele>
        <time>2022-08-10T07:29:47Z</time>
      </trkpt>
      <trkpt lat="49.93453" lon="2.11378">
        <ele>80.9</ele>
        <time>2022-08-10T07:29:48Z</time>
      </trkpt>
      <trkpt lat="49.93454" lon="2.11378">
        <ele>80.9</ele>
        <time>2022-08-10T07:29:49Z</time>
      </trkpt>
      <trkpt lat="49.93455" lon="2.11379">
        <ele>80.9</ele>
        <time>2022-08-10T07:29:51Z</time>
      </trkpt>
      <trkpt lat="49.93456" lon="2.1138">
        <ele>80.9</ele>
        <time>2022-08-10T07:29:52Z</time>
      </trkpt>
      <trkpt lat="49.93457" lon="2.11381">
        <ele>80.9</ele>
        <time>2022-08-10T07:29:53Z</time>
      </trkpt>
      <trkpt lat="49.93458" lon="2.11381">
        <ele>80.9</ele>
        <time>2022-08-10T07:29:54Z</time>
      </trkpt>
      <trkpt lat="49.93459" lon="2.11382">
        <ele>80.9</ele>
        <time>2022-08-10T07:29:55Z</time>
      </trkpt>
      <trkpt lat="49.9346" lon="2.11382">
        <ele>80.9</ele>
        <time>2022-08-10T07:29:56Z</time>
      </trkpt>
      <trkpt lat="49.93462" lon="2.11384">
        <ele>80.9</ele>
        <time>2022-08-10T07:29:57Z</time>
      </trkpt>
      <trkpt lat="49.93463" lon="2.11384">
        <ele>80.9</ele>
        <time>2022-08-10T07:29:58Z</time>
      </trkpt>
      <trkpt lat="49.93464" lon="2.11385">
        <ele>80.9</ele>
        <time>2022-08-10T07:29:59Z</time>
      </trkpt>
      <trkpt lat="49.93465" lon="2.11385">
        <ele>80.9</ele>
        <time>2022-08-10T07:30:01Z</time>
      </trkpt>
      <trkpt lat="49.93466" lon="2.11386">
        <ele>80.9</ele>
        <time>2022-08-10T07:30:02Z</time>
      </trkpt>
      <trkpt lat="49.93468" lon="2.11386">
        <ele>80.9</ele>
        <time>2022-08-10T07:30:03Z</time>
      </trkpt>
      <trkpt lat="49.93469" lon="2.11387">
        <ele>81</ele>
        <time>2022-08-10T07:30:04Z</time>
      </trkpt>
      <trkpt lat="49.93471" lon="2.11388">
        <ele>81</ele>
        <time>2022-08-10T07:30:05Z</time>
      </trkpt>
      <trkpt lat="49.93472" lon="2.11388">
        <ele>81</ele>
        <time>2022-08-10T07:30:06Z</time>
      </trkpt>
      <trkpt lat="49.93473" lon="2.11389">
        <ele>81</ele>
        <time>2022-08-10T07:30:07Z</time>
      </trkpt>
      <trkpt lat="49.93474" lon="2.11389">
        <ele>81</ele>
        <time>2022-08-10T07:30:08Z</time>
      </trkpt>
      <trkpt lat="49.93475" lon="2.11389">
        <ele>81</ele>
        <time>2022-08-10T07:30:09Z</time>
      </trkpt>
      <trkpt lat="49.93476" lon="2.1139">
        <ele>81</ele>
        <time>2022-08-10T07:30:10Z</time>
      </trkpt>
      <trkpt lat="49.93477" lon="2.1139">
        <ele>81</ele>
        <time>2022-08-10T07:30:12Z</time>
      </trkpt>
      <trkpt lat="49.93478" lon="2.11391">
        <ele>81.1</ele>
        <time>2022-08-10T07:30:13Z</time>
      </trkpt>
      <trkpt lat="49.9348" lon="2.11392">
        <ele>81.1</ele>
        <time>2022-08-10T07:30:14Z</time>
      </trkpt>
      <trkpt lat="49.9348" lon="2.11393">
        <ele>81.1</ele>
        <time>2022-08-10T07:30:15Z</time>
      </trkpt>
      <trkpt lat="49.93481" lon="2.11393">
        <ele>81.1</ele>
        <time>2022-08-10T07:30:16Z</time>
      </trkpt>
      <trkpt lat="49.93482" lon="2.11394">
        <ele>81.1</ele>
        <time>2022-08-10T07:30:17Z</time>
      </trkpt>
      <trkpt lat="49.93483" lon="2.11394">
        <ele>81.1</ele>
        <time>2022-08-10T07:30:19Z</time>
      </trkpt>
      <trkpt lat="49.93483" lon="2.11395">
        <ele>81.1</ele>
        <time>2022-08-10T07:30:20Z</time>
      </trkpt>
      <trkpt lat="49.93484" lon="2.11396">
        <ele>81.2</ele>
        <time>2022-08-10T07:30:21Z</time>
      </trkpt>
      <trkpt lat="49.93485" lon="2.11396">
        <ele>81.2</ele>
        <time>2022-08-10T07:30:22Z</time>
      </trkpt>
      <trkpt lat="49.93486" lon="2.11397">
        <ele>81.2</ele>
        <time>2022-08-10T07:30:23Z</time>
      </trkpt>
      <trkpt lat="49.93487" lon="2.11398">
        <ele>81.2</ele>
        <time>2022-08-10T07:30:24Z</time>
      </trkpt>
      <trkpt lat="49.93488" lon="2.11399">
        <ele>81.2</ele>
        <time>2022-08-10T07:30:25Z</time>
      </trkpt>
      <trkpt lat="49.93489" lon="2.114">
        <ele>81.2</ele>
        <time>2022-08-10T07:30:26Z</time>
      </trkpt>
      <trkpt lat="49.93491" lon="2.11401">
        <ele>81.3</ele>
        <time>2022-08-10T07:30:27Z</time>
      </trkpt>
      <trkpt lat="49.93491" lon="2.11402">
        <ele>81.3</ele>
        <time>2022-08-10T07:30:29Z</time>
      </trkpt>
      <trkpt lat="49.93492" lon="2.11403">
        <ele>81.3</ele>
        <time>2022-08-10T07:30:30Z</time>
      </trkpt>
      <trkpt lat="49.93493" lon="2.11404">
        <ele>81.4</ele>
        <time>2022-08-10T07:30:31Z</time>
      </trkpt>
      <trkpt lat="49.93494" lon="2.11406">
        <ele>81.4</ele>
        <time>2022-08-10T07:30:32Z</time>
      </trkpt>
      <trkpt lat="49.93495" lon="2.11407">
        <ele>81.4</ele>
        <time>2022-08-10T07:30:34Z</time>
      </trkpt>
      <trkpt lat="49.93495" lon="2.11408">
        <ele>81.4</ele>
        <time>2022-08-10T07:30:35Z</time>
      </trkpt>
      <trkpt lat="49.93496" lon="2.11409">
        <ele>81.4</ele>
        <time>2022-08-10T07:30:36Z</time>
      </trkpt>
      <trkpt lat="49.93497" lon="2.11412">
        <ele>81.4</ele>
        <time>2022-08-10T07:30:37Z</time>
      </trkpt>
      <trkpt lat="49.93497" lon="2.11413">
        <ele>81.5</ele>
        <time>2022-08-10T07:30:39Z</time>
      </trkpt>
      <trkpt lat="49.93497" lon="2.11413">
        <ele>81.5</ele>
        <time>2022-08-10T07:30:40Z</time>
      </trkpt>
      <trkpt lat="49.93498" lon="2.11413">
        <ele>81.5</ele>
        <time>2022-08-10T07:30:41Z</time>
      </trkpt>
      <trkpt lat="49.93499" lon="2.11414">
        <ele>81.6</ele>
        <time>2022-08-10T07:30:42Z</time>
      </trkpt>
      <trkpt lat="49.935" lon="2.11414">
        <ele>81.6</ele>
        <time>2022-08-10T07:30:43Z</time>
      </trkpt>
      <trkpt lat="49.935" lon="2.11416">
        <ele>81.6</ele>
        <time>2022-08-10T07:30:45Z</time>
      </trkpt>
      <trkpt lat="49.93501" lon="2.11416">
        <ele>81.7</ele>
        <time>2022-08-10T07:30:46Z</time>
      </trkpt>
      <trkpt lat="49.93502" lon="2.11416">
        <ele>81.7</ele>
        <time>2022-08-10T07:30:47Z</time>
      </trkpt>
      <trkpt lat="49.93504" lon="2.11416">
        <ele>81.7</ele>
        <time>2022-08-10T07:30:48Z</time>
      </trkpt>
      <trkpt lat="49.93505" lon="2.11415">
        <ele>81.8</ele>
        <time>2022-08-10T07:30:49Z</time>
      </trkpt>
      <trkpt lat="49.93507" lon="2.11413">
        <ele>81.8</ele>
        <time>2022-08-10T07:30:51Z</time>
      </trkpt>
      <trkpt lat="49.93508" lon="2.11412">
        <ele>81.8</ele>
        <time>2022-08-10T07:30:52Z</time>
      </trkpt>
      <trkpt lat="49.93509" lon="2.11411">
        <ele>81.7</ele>
        <time>2022-08-10T07:30:53Z</time>
      </trkpt>
      <trkpt lat="49.93509" lon="2.11409">
        <ele>81.7</ele>
        <time>2022-08-10T07:30:54Z</time>
      </trkpt>
      <trkpt lat="49.93509" lon="2.11407">
        <ele>81.7</ele>
        <time>2022-08-10T07:30:56Z</time>
      </trkpt>
      <trkpt lat="49.93509" lon="2.11406">
        <ele>81.7</ele>
        <time>2022-08-10T07:30:57Z</time>
      </trkpt>
      <trkpt lat="49.93508" lon="2.11405">
        <ele>81.7</ele>
        <time>2022-08-10T07:30:58Z</time>
      </trkpt>
      <trkpt lat="49.93508" lon="2.11404">
        <ele>81.7</ele>
        <time>2022-08-10T07:31:00Z</time>
      </trkpt>
      <trkpt lat="49.93508" lon="2.11403">
        <ele>81.7</ele>
        <time>2022-08-10T07:31:01Z</time>
      </trkpt>
      <trkpt lat="49.93508" lon="2.11403">
        <ele>81.7</ele>
        <time>2022-08-10T07:31:02Z</time>
      </trkpt>
      <trkpt lat="49.93508" lon="2.11403">
        <ele>81.7</ele>
        <time>2022-08-10T07:31:03Z</time>
      </trkpt>
      <trkpt lat="49.93508" lon="2.11403">
        <ele>81.7</ele>
        <time>2022-08-10T07:31:04Z</time>
      </trkpt>
      <trkpt lat="49.93508" lon="2.11403">
        <ele>81.7</ele>
        <time>2022-08-10T07:31:05Z</time>
      </trkpt>
      <trkpt lat="49.93508" lon="2.11403">
        <ele>81.7</ele>
        <time>2022-08-10T07:31:06Z</time>
      </trkpt>
      <trkpt lat="49.93508" lon="2.11403">
        <ele>81.7</ele>
        <time>2022-08-10T07:31:07Z</time>
      </trkpt>
      <trkpt lat="49.93508" lon="2.11403">
        <ele>81.7</ele>
        <time>2022-08-10T07:31:08Z</time>
      </trkpt>
      <trkpt lat="49.93508" lon="2.11403">
        <ele>81.7</ele>
        <time>2022-08-10T07:31:09Z</time>
      </trkpt>
      <trkpt lat="49.93508" lon="2.11402">
        <ele>81.7</ele>
        <time>2022-08-10T07:31:10Z</time>
      </trkpt>
      <trkpt lat="49.93508" lon="2.11402">
        <ele>81.7</ele>
        <time>2022-08-10T07:31:11Z</time>
      </trkpt>
      <trkpt lat="49.93508" lon="2.11402">
        <ele>81.7</ele>
        <time>2022-08-10T07:31:12Z</time>
      </trkpt>
      <trkpt lat="49.93508" lon="2.11402">
        <ele>81.7</ele>
        <time>2022-08-10T07:31:13Z</time>
      </trkpt>
      <trkpt lat="49.93508" lon="2.11402">
        <ele>81.7</ele>
        <time>2022-08-10T07:31:14Z</time>
      </trkpt>
      <trkpt lat="49.93508" lon="2.11402">
        <ele>81.7</ele>
        <time>2022-08-10T07:31:15Z</time>
      </trkpt>
      <trkpt lat="49.93508" lon="2.11402">
        <ele>81.7</ele>
        <time>2022-08-10T07:31:16Z</time>
      </trkpt>
      <trkpt lat="49.93508" lon="2.11403">
        <ele>81.7</ele>
        <time>2022-08-10T07:31:17Z</time>
      </trkpt>
      <trkpt lat="49.93508" lon="2.11403">
        <ele>81.7</ele>
        <time>2022-08-10T07:31:18Z</time>
      </trkpt>
      <trkpt lat="49.93508" lon="2.11403">
        <ele>81.7</ele>
        <time>2022-08-10T07:31:19Z</time>
      </trkpt>
      <trkpt lat="49.93508" lon="2.11403">
        <ele>81.7</ele>
        <time>2022-08-10T07:31:20Z</time>
      </trkpt>
      <trkpt lat="49.93507" lon="2.11403">
        <ele>81.7</ele>
        <time>2022-08-10T07:31:21Z</time>
      </trkpt>
      <trkpt lat="49.93506" lon="2.11403">
        <ele>81.6</ele>
        <time>2022-08-10T07:31:22Z</time>
      </trkpt>
      <trkpt lat="49.93506" lon="2.11402">
        <ele>81.6</ele>
        <time>2022-08-10T07:31:23Z</time>
      </trkpt>
      <trkpt lat="49.93506" lon="2.11401">
        <ele>81.6</ele>
        <time>2022-08-10T07:31:24Z</time>
      </trkpt>
      <trkpt lat="49.93505" lon="2.11401">
        <ele>81.6</ele>
        <time>2022-08-10T07:31:25Z</time>
      </trkpt>
      <trkpt lat="49.93505" lon="2.11401">
        <ele>81.6</ele>
        <time>2022-08-10T07:31:26Z</time>
      </trkpt>
      <trkpt lat="49.93505" lon="2.11401">
        <ele>81.6</ele>
        <time>2022-08-10T07:31:27Z</time>
      </trkpt>
      <trkpt lat="49.93505" lon="2.11401">
        <ele>81.6</ele>
        <time>2022-08-10T07:31:28Z</time>
      </trkpt>
      <trkpt lat="49.93505" lon="2.11401">
        <ele>81.6</ele>
        <time>2022-08-10T07:31:29Z</time>
      </trkpt>
      <trkpt lat="49.93505" lon="2.11401">
        <ele>81.6</ele>
        <time>2022-08-10T07:31:30Z</time>
      </trkpt>
      <trkpt lat="49.93505" lon="2.11401">
        <ele>81.6</ele>
        <time>2022-08-10T07:31:31Z</time>
      </trkpt>
      <trkpt lat="49.93505" lon="2.11401">
        <ele>81.6</ele>
        <time>2022-08-10T07:31:32Z</time>
      </trkpt>
      <trkpt lat="49.93505" lon="2.11401">
        <ele>81.6</ele>
        <time>2022-08-10T07:31:33Z</time>
      </trkpt>
      <trkpt lat="49.93505" lon="2.11401">
        <ele>81.6</ele>
        <time>2022-08-10T07:31:34Z</time>
      </trkpt>
      <trkpt lat="49.93505" lon="2.11401">
        <ele>81.6</ele>
        <time>2022-08-10T07:31:35Z</time>
      </trkpt>
      <trkpt lat="49.93505" lon="2.11401">
        <ele>81.6</ele>
        <time>2022-08-10T07:31:36Z</time>
      </trkpt>
      <trkpt lat="49.93505" lon="2.11401">
        <ele>81.6</ele>
        <time>2022-08-10T07:31:37Z</time>
      </trkpt>
      <trkpt lat="49.93505" lon="2.11401">
        <ele>81.6</ele>
        <time>2022-08-10T07:31:38Z</time>
      </trkpt>
      <trkpt lat="49.93505" lon="2.11401">
        <ele>81.6</ele>
        <time>2022-08-10T07:31:39Z</time>
      </trkpt>
      <trkpt lat="49.93505" lon="2.11401">
        <ele>81.6</ele>
        <time>2022-08-10T07:31:40Z</time>
      </trkpt>
      <trkpt lat="49.93505" lon="2.11401">
        <ele>81.6</ele>
        <time>2022-08-10T07:31:41Z</time>
      </trkpt>
      <trkpt lat="49.93505" lon="2.11401">
        <ele>81.6</ele>
        <time>2022-08-10T07:31:42Z</time>
      </trkpt>
      <trkpt lat="49.93505" lon="2.11401">
        <ele>81.6</ele>
        <time>2022-08-10T07:31:43Z</time>
      </trkpt>
      <trkpt lat="49.93505" lon="2.11401">
        <ele>81.6</ele>
        <time>2022-08-10T07:31:44Z</time>
      </trkpt>
      <trkpt lat="49.93505" lon="2.11401">
        <ele>81.6</ele>
        <time>2022-08-10T07:31:45Z</time>
      </trkpt>
      <trkpt lat="49.93505" lon="2.11401">
        <ele>81.6</ele>
        <time>2022-08-10T07:31:46Z</time>
      </trkpt>
      <trkpt lat="49.93505" lon="2.11401">
        <ele>81.6</ele>
        <time>2022-08-10T07:31:47Z</time>
      </trkpt>
      <trkpt lat="49.93505" lon="2.11401">
        <ele>81.6</ele>
        <time>2022-08-10T07:31:48Z</time>
      </trkpt>
      <trkpt lat="49.93505" lon="2.11401">
        <ele>81.6</ele>
        <time>2022-08-10T07:31:49Z</time>
      </trkpt>
      <trkpt lat="49.93505" lon="2.11401">
        <ele>81.6</ele>
        <time>2022-08-10T07:31:50Z</time>
      </trkpt>
      <trkpt lat="49.93505" lon="2.11401">
        <ele>81.6</ele>
        <time>2022-08-10T07:31:51Z</time>
      </trkpt>
      <trkpt lat="49.93505" lon="2.11401">
        <ele>81.6</ele>
        <time>2022-08-10T07:31:52Z</time>
      </trkpt>
      <trkpt lat="49.93505" lon="2.11401">
        <ele>81.6</ele>
        <time>2022-08-10T07:31:53Z</time>
      </trkpt>
      <trkpt lat="49.93505" lon="2.11401">
        <ele>81.6</ele>
        <time>2022-08-10T07:31:54Z</time>
      </trkpt>
      <trkpt lat="49.93505" lon="2.11401">
        <ele>81.6</ele>
        <time>2022-08-10T07:31:55Z</time>
      </trkpt>
      <trkpt lat="49.93505" lon="2.11401">
        <ele>81.6</ele>
        <time>2022-08-10T07:31:56Z</time>
      </trkpt>
      <trkpt lat="49.93505" lon="2.11401">
        <ele>81.6</ele>
        <time>2022-08-10T07:31:57Z</time>
      </trkpt>
      <trkpt lat="49.93505" lon="2.11403">
        <ele>81.5</ele>
        <time>2022-08-10T07:31:58Z</time>
      </trkpt>
      <trkpt lat="49.93505" lon="2.11403">
        <ele>81.5</ele>
        <time>2022-08-10T07:31:59Z</time>
      </trkpt>
      <trkpt lat="49.93505" lon="2.11404">
        <ele>81.5</ele>
        <time>2022-08-10T07:32:00Z</time>
      </trkpt>
      <trkpt lat="49.93504" lon="2.11404">
        <ele>81.5</ele>
        <time>2022-08-10T07:32:01Z</time>
      </trkpt>
      <trkpt lat="49.93504" lon="2.11404">
        <ele>81.5</ele>
        <time>2022-08-10T07:32:02Z</time>
      </trkpt>
      <trkpt lat="49.93504" lon="2.11404">
        <ele>81.5</ele>
        <time>2022-08-10T07:32:03Z</time>
      </trkpt>
      <trkpt lat="49.93504" lon="2.11404">
        <ele>81.5</ele>
        <time>2022-08-10T07:32:04Z</time>
      </trkpt>
      <trkpt lat="49.93504" lon="2.11404">
        <ele>81.5</ele>
        <time>2022-08-10T07:32:05Z</time>
      </trkpt>
      <trkpt lat="49.93504" lon="2.11404">
        <ele>81.5</ele>
        <time>2022-08-10T07:32:06Z</time>
      </trkpt>
      <trkpt lat="49.93504" lon="2.11404">
        <ele>81.4</ele>
        <time>2022-08-10T07:32:07Z</time>
      </trkpt>
      <trkpt lat="49.93504" lon="2.11405">
        <ele>81.4</ele>
        <time>2022-08-10T07:32:08Z</time>
      </trkpt>
      <trkpt lat="49.93504" lon="2.11405">
        <ele>81.4</ele>
        <time>2022-08-10T07:32:09Z</time>
      </trkpt>
      <trkpt lat="49.93504" lon="2.11405">
        <ele>81.4</ele>
        <time>2022-08-10T07:32:10Z</time>
      </trkpt>
      <trkpt lat="49.93504" lon="2.11405">
        <ele>81.4</ele>
        <time>2022-08-10T07:32:11Z</time>
      </trkpt>
      <trkpt lat="49.93504" lon="2.11405">
        <ele>81.4</ele>
        <time>2022-08-10T07:32:12Z</time>
      </trkpt>
      <trkpt lat="49.93504" lon="2.11405">
        <ele>81.4</ele>
        <time>2022-08-10T07:32:13Z</time>
      </trkpt>
      <trkpt lat="49.93504" lon="2.11405">
        <ele>81.4</ele>
        <time>2022-08-10T07:32:14Z</time>
      </trkpt>
      <trkpt lat="49.93504" lon="2.11405">
        <ele>81.4</ele>
        <time>2022-08-10T07:32:15Z</time>
      </trkpt>
      <trkpt lat="49.93504" lon="2.11405">
        <ele>81.4</ele>
        <time>2022-08-10T07:32:16Z</time>
      </trkpt>
      <trkpt lat="49.93504" lon="2.11405">
        <ele>81.4</ele>
        <time>2022-08-10T07:32:17Z</time>
      </trkpt>
      <trkpt lat="49.93504" lon="2.11405">
        <ele>81.4</ele>
        <time>2022-08-10T07:32:18Z</time>
      </trkpt>
      <trkpt lat="49.93504" lon="2.11405">
        <ele>81.4</ele>
        <time>2022-08-10T07:32:19Z</time>
      </trkpt>
      <trkpt lat="49.93504" lon="2.11405">
        <ele>81.4</ele>
        <time>2022-08-10T07:32:20Z</time>
      </trkpt>
      <trkpt lat="49.93504" lon="2.11405">
        <ele>81.4</ele>
        <time>2022-08-10T07:32:21Z</time>
      </trkpt>
      <trkpt lat="49.93504" lon="2.11405">
        <ele>81.4</ele>
        <time>2022-08-10T07:32:22Z</time>
      </trkpt>
      <trkpt lat="49.93504" lon="2.11405">
        <ele>81.4</ele>
        <time>2022-08-10T07:32:23Z</time>
      </trkpt>
      <trkpt lat="49.93504" lon="2.11405">
        <ele>81.4</ele>
        <time>2022-08-10T07:32:24Z</time>
      </trkpt>
      <trkpt lat="49.93504" lon="2.11405">
        <ele>81.4</ele>
        <time>2022-08-10T07:32:25Z</time>
      </trkpt>
      <trkpt lat="49.93504" lon="2.11404">
        <ele>81.4</ele>
        <time>2022-08-10T07:32:26Z</time>
      </trkpt>
      <trkpt lat="49.93505" lon="2.11404">
        <ele>81.4</ele>
        <time>2022-08-10T07:32:27Z</time>
      </trkpt>
      <trkpt lat="49.93505" lon="2.11404">
        <ele>81.4</ele>
        <time>2022-08-10T07:32:28Z</time>
      </trkpt>
      <trkpt lat="49.93505" lon="2.11404">
        <ele>81.4</ele>
        <time>2022-08-10T07:32:29Z</time>
      </trkpt>
      <trkpt lat="49.93505" lon="2.11404">
        <ele>81.4</ele>
        <time>2022-08-10T07:32:30Z</time>
      </trkpt>
      <trkpt lat="49.93505" lon="2.11404">
        <ele>81.4</ele>
        <time>2022-08-10T07:32:31Z</time>
      </trkpt>
      <trkpt lat="49.93505" lon="2.11404">
        <ele>81.4</ele>
        <time>2022-08-10T07:32:32Z</time>
      </trkpt>
      <trkpt lat="49.93505" lon="2.11404">
        <ele>81.4</ele>
        <time>2022-08-10T07:32:33Z</time>
      </trkpt>
      <trkpt lat="49.93505" lon="2.11404">
        <ele>81.4</ele>
        <time>2022-08-10T07:32:34Z</time>
      </trkpt>
      <trkpt lat="49.93505" lon="2.11404">
        <ele>81.4</ele>
        <time>2022-08-10T07:32:35Z</time>
      </trkpt>
      <trkpt lat="49.93505" lon="2.11404">
        <ele>81.4</ele>
        <time>2022-08-10T07:32:36Z</time>
      </trkpt>
      <trkpt lat="49.93505" lon="2.11404">
        <ele>81.4</ele>
        <time>2022-08-10T07:32:37Z</time>
      </trkpt>
      <trkpt lat="49.93505" lon="2.11404">
        <ele>81.4</ele>
        <time>2022-08-10T07:32:38Z</time>
      </trkpt>
      <trkpt lat="49.93505" lon="2.11404">
        <ele>81.4</ele>
        <time>2022-08-10T07:32:39Z</time>
      </trkpt>
      <trkpt lat="49.93505" lon="2.11404">
        <ele>81.4</ele>
        <time>2022-08-10T07:32:40Z</time>
      </trkpt>
      <trkpt lat="49.93505" lon="2.11404">
        <ele>81.4</ele>
        <time>2022-08-10T07:32:41Z</time>
      </trkpt>
      <trkpt lat="49.93505" lon="2.11404">
        <ele>81.4</ele>
        <time>2022-08-10T07:32:42Z</time>
      </trkpt>
      <trkpt lat="49.93505" lon="2.11404">
        <ele>81.4</ele>
        <time>2022-08-10T07:32:43Z</time>
      </trkpt>
      <trkpt lat="49.93505" lon="2.11404">
        <ele>81.4</ele>
        <time>2022-08-10T07:32:44Z</time>
      </trkpt>
      <trkpt lat="49.93505" lon="2.11404">
        <ele>81.4</ele>
        <time>2022-08-10T07:32:45Z</time>
      </trkpt>
      <trkpt lat="49.93505" lon="2.11404">
        <ele>81.4</ele>
        <time>2022-08-10T07:32:46Z</time>
      </trkpt>
      <trkpt lat="49.93505" lon="2.11404">
        <ele>81.4</ele>
        <time>2022-08-10T07:32:47Z</time>
      </trkpt>
      <trkpt lat="49.93505" lon="2.11404">
        <ele>81.4</ele>
        <time>2022-08-10T07:32:48Z</time>
      </trkpt>
      <trkpt lat="49.93505" lon="2.11404">
        <ele>81.4</ele>
        <time>2022-08-10T07:32:49Z</time>
      </trkpt>
      <trkpt lat="49.93505" lon="2.11404">
        <ele>81.4</ele>
        <time>2022-08-10T07:32:50Z</time>
      </trkpt>
      <trkpt lat="49.93505" lon="2.11404">
        <ele>81.4</ele>
        <time>2022-08-10T07:32:51Z</time>
      </trkpt>
      <trkpt lat="49.93505" lon="2.11404">
        <ele>81.4</ele>
        <time>2022-08-10T07:32:52Z</time>
      </trkpt>
      <trkpt lat="49.93505" lon="2.11403">
        <ele>81.4</ele>
        <time>2022-08-10T07:32:53Z</time>
      </trkpt>
      <trkpt lat="49.93505" lon="2.11403">
        <ele>81.4</ele>
        <time>2022-08-10T07:32:54Z</time>
      </trkpt>
      <trkpt lat="49.93505" lon="2.11403">
        <ele>81.4</ele>
        <time>2022-08-10T07:32:55Z</time>
      </trkpt>
      <trkpt lat="49.93505" lon="2.11403">
        <ele>81.4</ele>
        <time>2022-08-10T07:32:56Z</time>
      </trkpt>
      <trkpt lat="49.93505" lon="2.11403">
        <ele>81.4</ele>
        <time>2022-08-10T07:32:57Z</time>
      </trkpt>
      <trkpt lat="49.93505" lon="2.11403">
        <ele>81.4</ele>
        <time>2022-08-10T07:32:58Z</time>
      </trkpt>
      <trkpt lat="49.93505" lon="2.11403">
        <ele>81.4</ele>
        <time>2022-08-10T07:32:59Z</time>
      </trkpt>
      <trkpt lat="49.93505" lon="2.11403">
        <ele>81.4</ele>
        <time>2022-08-10T07:33:00Z</time>
      </trkpt>
      <trkpt lat="49.93505" lon="2.11403">
        <ele>81.4</ele>
        <time>2022-08-10T07:33:01Z</time>
      </trkpt>
      <trkpt lat="49.93505" lon="2.11404">
        <ele>81.4</ele>
        <time>2022-08-10T07:33:02Z</time>
      </trkpt>
      <trkpt lat="49.93506" lon="2.11404">
        <ele>81.3</ele>
        <time>2022-08-10T07:33:03Z</time>
      </trkpt>
      <trkpt lat="49.93506" lon="2.11405">
        <ele>81.3</ele>
        <time>2022-08-10T07:33:04Z</time>
      </trkpt>
      <trkpt lat="49.93506" lon="2.11405">
        <ele>81.3</ele>
        <time>2022-08-10T07:33:05Z</time>
      </trkpt>
      <trkpt lat="49.93506" lon="2.11405">
        <ele>81.3</ele>
        <time>2022-08-10T07:33:07Z</time>
      </trkpt>
      <trkpt lat="49.93506" lon="2.11406">
        <ele>81.3</ele>
        <time>2022-08-10T07:33:08Z</time>
      </trkpt>
      <trkpt lat="49.93506" lon="2.11405">
        <ele>81.3</ele>
        <time>2022-08-10T07:33:09Z</time>
      </trkpt>
      <trkpt lat="49.93506" lon="2.11405">
        <ele>81.3</ele>
        <time>2022-08-10T07:33:10Z</time>
      </trkpt>
      <trkpt lat="49.93506" lon="2.11405">
        <ele>81.3</ele>
        <time>2022-08-10T07:33:11Z</time>
      </trkpt>
      <trkpt lat="49.93506" lon="2.11405">
        <ele>81.3</ele>
        <time>2022-08-10T07:33:12Z</time>
      </trkpt>
      <trkpt lat="49.93506" lon="2.11404">
        <ele>81.3</ele>
        <time>2022-08-10T07:33:13Z</time>
      </trkpt>
      <trkpt lat="49.93506" lon="2.11404">
        <ele>81.3</ele>
        <time>2022-08-10T07:33:14Z</time>
      </trkpt>
      <trkpt lat="49.93506" lon="2.11404">
        <ele>81.3</ele>
        <time>2022-08-10T07:33:15Z</time>
      </trkpt>
      <trkpt lat="49.93506" lon="2.11404">
        <ele>81.3</ele>
        <time>2022-08-10T07:33:16Z</time>
      </trkpt>
      <trkpt lat="49.93506" lon="2.11404">
        <ele>81.3</ele>
        <time>2022-08-10T07:33:17Z</time>
      </trkpt>
      <trkpt lat="49.93506" lon="2.11404">
        <ele>81.2</ele>
        <time>2022-08-10T07:33:18Z</time>
      </trkpt>
      <trkpt lat="49.93506" lon="2.11404">
        <ele>81.2</ele>
        <time>2022-08-10T07:33:19Z</time>
      </trkpt>
      <trkpt lat="49.93506" lon="2.11404">
        <ele>81.2</ele>
        <time>2022-08-10T07:33:20Z</time>
      </trkpt>
      <trkpt lat="49.93506" lon="2.11404">
        <ele>81.2</ele>
        <time>2022-08-10T07:33:21Z</time>
      </trkpt>
      <trkpt lat="49.93506" lon="2.11404">
        <ele>81.2</ele>
        <time>2022-08-10T07:33:22Z</time>
      </trkpt>
      <trkpt lat="49.93505" lon="2.11404">
        <ele>81.2</ele>
        <time>2022-08-10T07:33:23Z</time>
      </trkpt>
      <trkpt lat="49.93505" lon="2.11403">
        <ele>81.2</ele>
        <time>2022-08-10T07:33:24Z</time>
      </trkpt>
      <trkpt lat="49.93505" lon="2.11403">
        <ele>81.2</ele>
        <time>2022-08-10T07:33:25Z</time>
      </trkpt>
      <trkpt lat="49.93505" lon="2.11403">
        <ele>81.2</ele>
        <time>2022-08-10T07:33:26Z</time>
      </trkpt>
      <trkpt lat="49.93505" lon="2.11403">
        <ele>81.2</ele>
        <time>2022-08-10T07:33:27Z</time>
      </trkpt>
      <trkpt lat="49.93505" lon="2.11403">
        <ele>81.2</ele>
        <time>2022-08-10T07:33:28Z</time>
      </trkpt>
      <trkpt lat="49.93505" lon="2.11403">
        <ele>81.2</ele>
        <time>2022-08-10T07:33:29Z</time>
      </trkpt>
      <trkpt lat="49.93505" lon="2.11403">
        <ele>81.2</ele>
        <time>2022-08-10T07:33:30Z</time>
      </trkpt>
      <trkpt lat="49.93505" lon="2.11403">
        <ele>81.2</ele>
        <time>2022-08-10T07:33:31Z</time>
      </trkpt>
      <trkpt lat="49.93505" lon="2.11403">
        <ele>81.2</ele>
        <time>2022-08-10T07:33:32Z</time>
      </trkpt>
      <trkpt lat="49.93505" lon="2.11403">
        <ele>81.2</ele>
        <time>2022-08-10T07:33:33Z</time>
      </trkpt>
      <trkpt lat="49.93505" lon="2.11403">
        <ele>81.2</ele>
        <time>2022-08-10T07:33:34Z</time>
      </trkpt>
      <trkpt lat="49.93505" lon="2.11403">
        <ele>81.2</ele>
        <time>2022-08-10T07:33:35Z</time>
      </trkpt>
      <trkpt lat="49.93505" lon="2.11403">
        <ele>81.2</ele>
        <time>2022-08-10T07:33:36Z</time>
      </trkpt>
      <trkpt lat="49.93505" lon="2.11403">
        <ele>81.2</ele>
        <time>2022-08-10T07:33:37Z</time>
      </trkpt>
      <trkpt lat="49.93506" lon="2.11404">
        <ele>81.2</ele>
        <time>2022-08-10T07:33:38Z</time>
      </trkpt>
      <trkpt lat="49.93506" lon="2.11404">
        <ele>81.2</ele>
        <time>2022-08-10T07:33:39Z</time>
      </trkpt>
      <trkpt lat="49.93507" lon="2.11405">
        <ele>81.1</ele>
        <time>2022-08-10T07:33:41Z</time>
      </trkpt>
      <trkpt lat="49.93508" lon="2.11405">
        <ele>81.1</ele>
        <time>2022-08-10T07:33:42Z</time>
      </trkpt>
      <trkpt lat="49.93509" lon="2.11404">
        <ele>81.1</ele>
        <time>2022-08-10T07:33:43Z</time>
      </trkpt>
      <trkpt lat="49.9351" lon="2.11404">
        <ele>81</ele>
        <time>2022-08-10T07:33:45Z</time>
      </trkpt>
      <trkpt lat="49.9351" lon="2.11403">
        <ele>81</ele>
        <time>2022-08-10T07:33:46Z</time>
      </trkpt>
      <trkpt lat="49.9351" lon="2.11403">
        <ele>81</ele>
        <time>2022-08-10T07:33:47Z</time>
      </trkpt>
      <trkpt lat="49.9351" lon="2.11403">
        <ele>81</ele>
        <time>2022-08-10T07:33:49Z</time>
      </trkpt>
      <trkpt lat="49.93511" lon="2.11403">
        <ele>81</ele>
        <time>2022-08-10T07:33:50Z</time>
      </trkpt>
      <trkpt lat="49.93514" lon="2.11402">
        <ele>80.8</ele>
        <time>2022-08-10T07:33:51Z</time>
      </trkpt>
      <trkpt lat="49.93514" lon="2.11401">
        <ele>80.8</ele>
        <time>2022-08-10T07:33:52Z</time>
      </trkpt>
      <trkpt lat="49.93515" lon="2.11399">
        <ele>80.8</ele>
        <time>2022-08-10T07:33:53Z</time>
      </trkpt>
      <trkpt lat="49.93516" lon="2.11397">
        <ele>80.7</ele>
        <time>2022-08-10T07:33:54Z</time>
      </trkpt>
      <trkpt lat="49.93517" lon="2.11393">
        <ele>80.6</ele>
        <time>2022-08-10T07:33:55Z</time>
      </trkpt>
      <trkpt lat="49.93517" lon="2.11391">
        <ele>80.6</ele>
        <time>2022-08-10T07:33:56Z</time>
      </trkpt>
      <trkpt lat="49.93517" lon="2.11389">
        <ele>80.5</ele>
        <time>2022-08-10T07:33:57Z</time>
      </trkpt>
      <trkpt lat="49.93518" lon="2.11387">
        <ele>80.5</ele>
        <time>2022-08-10T07:33:58Z</time>
      </trkpt>
      <trkpt lat="49.93519" lon="2.11384">
        <ele>80.4</ele>
        <time>2022-08-10T07:33:59Z</time>
      </trkpt>
      <trkpt lat="49.93519" lon="2.11383">
        <ele>80.4</ele>
        <time>2022-08-10T07:34:01Z</time>
      </trkpt>
      <trkpt lat="49.93519" lon="2.11382">
        <ele>80.3</ele>
        <time>2022-08-10T07:34:02Z</time>
      </trkpt>
      <trkpt lat="49.93521" lon="2.11379">
        <ele>80.3</ele>
        <time>2022-08-10T07:34:03Z</time>
      </trkpt>
      <trkpt lat="49.93521" lon="2.11378">
        <ele>80.2</ele>
        <time>2022-08-10T07:34:04Z</time>
      </trkpt>
      <trkpt lat="49.93522" lon="2.11377">
        <ele>80.2</ele>
        <time>2022-08-10T07:34:05Z</time>
      </trkpt>
      <trkpt lat="49.93523" lon="2.11374">
        <ele>80.2</ele>
        <time>2022-08-10T07:34:06Z</time>
      </trkpt>
      <trkpt lat="49.93523" lon="2.11372">
        <ele>80.1</ele>
        <time>2022-08-10T07:34:07Z</time>
      </trkpt>
      <trkpt lat="49.93524" lon="2.1137">
        <ele>80.1</ele>
        <time>2022-08-10T07:34:08Z</time>
      </trkpt>
      <trkpt lat="49.93525" lon="2.11368">
        <ele>80</ele>
        <time>2022-08-10T07:34:09Z</time>
      </trkpt>
      <trkpt lat="49.93526" lon="2.11366">
        <ele>80</ele>
        <time>2022-08-10T07:34:10Z</time>
      </trkpt>
      <trkpt lat="49.93527" lon="2.11364">
        <ele>79.9</ele>
        <time>2022-08-10T07:34:11Z</time>
      </trkpt>
      <trkpt lat="49.93528" lon="2.11362">
        <ele>79.9</ele>
        <time>2022-08-10T07:34:12Z</time>
      </trkpt>
      <trkpt lat="49.93529" lon="2.1136">
        <ele>79.8</ele>
        <time>2022-08-10T07:34:13Z</time>
      </trkpt>
      <trkpt lat="49.9353" lon="2.11358">
        <ele>79.7</ele>
        <time>2022-08-10T07:34:14Z</time>
      </trkpt>
      <trkpt lat="49.93531" lon="2.11357">
        <ele>79.7</ele>
        <time>2022-08-10T07:34:16Z</time>
      </trkpt>
      <trkpt lat="49.93531" lon="2.11356">
        <ele>79.7</ele>
        <time>2022-08-10T07:34:17Z</time>
      </trkpt>
      <trkpt lat="49.93533" lon="2.11354">
        <ele>79.6</ele>
        <time>2022-08-10T07:34:18Z</time>
      </trkpt>
      <trkpt lat="49.93534" lon="2.11353">
        <ele>79.6</ele>
        <time>2022-08-10T07:34:19Z</time>
      </trkpt>
      <trkpt lat="49.93534" lon="2.11352">
        <ele>79.6</ele>
        <time>2022-08-10T07:34:20Z</time>
      </trkpt>
      <trkpt lat="49.93535" lon="2.1135">
        <ele>79.5</ele>
        <time>2022-08-10T07:34:21Z</time>
      </trkpt>
      <trkpt lat="49.93536" lon="2.11349">
        <ele>79.5</ele>
        <time>2022-08-10T07:34:22Z</time>
      </trkpt>
      <trkpt lat="49.93539" lon="2.11346">
        <ele>79.4</ele>
        <time>2022-08-10T07:34:23Z</time>
      </trkpt>
      <trkpt lat="49.93539" lon="2.11345">
        <ele>79.4</ele>
        <time>2022-08-10T07:34:24Z</time>
      </trkpt>
      <trkpt lat="49.93541" lon="2.11343">
        <ele>79.3</ele>
        <time>2022-08-10T07:34:25Z</time>
      </trkpt>
      <trkpt lat="49.93542" lon="2.11341">
        <ele>79.3</ele>
        <time>2022-08-10T07:34:26Z</time>
      </trkpt>
      <trkpt lat="49.93543" lon="2.11339">
        <ele>79.2</ele>
        <time>2022-08-10T07:34:27Z</time>
      </trkpt>
      <trkpt lat="49.93544" lon="2.11337">
        <ele>79.2</ele>
        <time>2022-08-10T07:34:28Z</time>
      </trkpt>
      <trkpt lat="49.93544" lon="2.11335">
        <ele>79.2</ele>
        <time>2022-08-10T07:34:29Z</time>
      </trkpt>
      <trkpt lat="49.93545" lon="2.11333">
        <ele>79.1</ele>
        <time>2022-08-10T07:34:31Z</time>
      </trkpt>
      <trkpt lat="49.93546" lon="2.11331">
        <ele>79.1</ele>
        <time>2022-08-10T07:34:32Z</time>
      </trkpt>
      <trkpt lat="49.93547" lon="2.11329">
        <ele>79.1</ele>
        <time>2022-08-10T07:34:33Z</time>
      </trkpt>
      <trkpt lat="49.93547" lon="2.11328">
        <ele>79</ele>
        <time>2022-08-10T07:34:34Z</time>
      </trkpt>
      <trkpt lat="49.93548" lon="2.11326">
        <ele>79</ele>
        <time>2022-08-10T07:34:35Z</time>
      </trkpt>
      <trkpt lat="49.93549" lon="2.11325">
        <ele>79</ele>
        <time>2022-08-10T07:34:36Z</time>
      </trkpt>
      <trkpt lat="49.9355" lon="2.11324">
        <ele>79</ele>
        <time>2022-08-10T07:34:37Z</time>
      </trkpt>
      <trkpt lat="49.93551" lon="2.11323">
        <ele>78.9</ele>
        <time>2022-08-10T07:34:38Z</time>
      </trkpt>
      <trkpt lat="49.93552" lon="2.11322">
        <ele>78.9</ele>
        <time>2022-08-10T07:34:39Z</time>
      </trkpt>
      <trkpt lat="49.93553" lon="2.11321">
        <ele>78.9</ele>
        <time>2022-08-10T07:34:40Z</time>
      </trkpt>
      <trkpt lat="49.93554" lon="2.11319">
        <ele>78.8</ele>
        <time>2022-08-10T07:34:41Z</time>
      </trkpt>
      <trkpt lat="49.93555" lon="2.11318">
        <ele>78.8</ele>
        <time>2022-08-10T07:34:42Z</time>
      </trkpt>
      <trkpt lat="49.93555" lon="2.11316">
        <ele>78.8</ele>
        <time>2022-08-10T07:34:44Z</time>
      </trkpt>
      <trkpt lat="49.93555" lon="2.11314">
        <ele>78.7</ele>
        <time>2022-08-10T07:34:45Z</time>
      </trkpt>
      <trkpt lat="49.93556" lon="2.11313">
        <ele>78.7</ele>
        <time>2022-08-10T07:34:46Z</time>
      </trkpt>
      <trkpt lat="49.93558" lon="2.11311">
        <ele>78.7</ele>
        <time>2022-08-10T07:34:47Z</time>
      </trkpt>
      <trkpt lat="49.9356" lon="2.1131">
        <ele>78.6</ele>
        <time>2022-08-10T07:34:48Z</time>
      </trkpt>
      <trkpt lat="49.9356" lon="2.11309">
        <ele>78.6</ele>
        <time>2022-08-10T07:34:49Z</time>
      </trkpt>
      <trkpt lat="49.93561" lon="2.11308">
        <ele>78.6</ele>
        <time>2022-08-10T07:34:50Z</time>
      </trkpt>
      <trkpt lat="49.93563" lon="2.11307">
        <ele>78.5</ele>
        <time>2022-08-10T07:34:51Z</time>
      </trkpt>
      <trkpt lat="49.93564" lon="2.11307">
        <ele>78.5</ele>
        <time>2022-08-10T07:34:52Z</time>
      </trkpt>
      <trkpt lat="49.93565" lon="2.11306">
        <ele>78.4</ele>
        <time>2022-08-10T07:34:53Z</time>
      </trkpt>
      <trkpt lat="49.93566" lon="2.11305">
        <ele>78.4</ele>
        <time>2022-08-10T07:34:54Z</time>
      </trkpt>
      <trkpt lat="49.93567" lon="2.11305">
        <ele>78.4</ele>
        <time>2022-08-10T07:34:55Z</time>
      </trkpt>
      <trkpt lat="49.93569" lon="2.11304">
        <ele>78.3</ele>
        <time>2022-08-10T07:34:57Z</time>
      </trkpt>
      <trkpt lat="49.9357" lon="2.11303">
        <ele>78.3</ele>
        <time>2022-08-10T07:34:58Z</time>
      </trkpt>
      <trkpt lat="49.93572" lon="2.11301">
        <ele>78.2</ele>
        <time>2022-08-10T07:34:59Z</time>
      </trkpt>
      <trkpt lat="49.93573" lon="2.11301">
        <ele>78.2</ele>
        <time>2022-08-10T07:35:00Z</time>
      </trkpt>
      <trkpt lat="49.93574" lon="2.113">
        <ele>78.2</ele>
        <time>2022-08-10T07:35:01Z</time>
      </trkpt>
      <trkpt lat="49.93575" lon="2.11298">
        <ele>78.1</ele>
        <time>2022-08-10T07:35:02Z</time>
      </trkpt>
      <trkpt lat="49.93576" lon="2.11297">
        <ele>78.1</ele>
        <time>2022-08-10T07:35:03Z</time>
      </trkpt>
      <trkpt lat="49.93577" lon="2.11296">
        <ele>78.1</ele>
        <time>2022-08-10T07:35:04Z</time>
      </trkpt>
      <trkpt lat="49.93578" lon="2.11294">
        <ele>78</ele>
        <time>2022-08-10T07:35:06Z</time>
      </trkpt>
      <trkpt lat="49.93579" lon="2.11293">
        <ele>78</ele>
        <time>2022-08-10T07:35:07Z</time>
      </trkpt>
      <trkpt lat="49.93581" lon="2.11292">
        <ele>77.9</ele>
        <time>2022-08-10T07:35:08Z</time>
      </trkpt>
      <trkpt lat="49.93582" lon="2.11291">
        <ele>77.9</ele>
        <time>2022-08-10T07:35:10Z</time>
      </trkpt>
      <trkpt lat="49.93583" lon="2.1129">
        <ele>77.8</ele>
        <time>2022-08-10T07:35:11Z</time>
      </trkpt>
      <trkpt lat="49.93584" lon="2.11288">
        <ele>77.8</ele>
        <time>2022-08-10T07:35:12Z</time>
      </trkpt>
      <trkpt lat="49.93586" lon="2.11286">
        <ele>77.7</ele>
        <time>2022-08-10T07:35:13Z</time>
      </trkpt>
      <trkpt lat="49.93587" lon="2.11286">
        <ele>77.7</ele>
        <time>2022-08-10T07:35:14Z</time>
      </trkpt>
      <trkpt lat="49.93587" lon="2.11285">
        <ele>77.7</ele>
        <time>2022-08-10T07:35:15Z</time>
      </trkpt>
      <trkpt lat="49.93589" lon="2.11283">
        <ele>77.7</ele>
        <time>2022-08-10T07:35:16Z</time>
      </trkpt>
      <trkpt lat="49.9359" lon="2.11283">
        <ele>77.6</ele>
        <time>2022-08-10T07:35:17Z</time>
      </trkpt>
      <trkpt lat="49.93591" lon="2.11282">
        <ele>77.6</ele>
        <time>2022-08-10T07:35:18Z</time>
      </trkpt>
      <trkpt lat="49.93592" lon="2.11281">
        <ele>77.6</ele>
        <time>2022-08-10T07:35:19Z</time>
      </trkpt>
      <trkpt lat="49.93593" lon="2.1128">
        <ele>77.5</ele>
        <time>2022-08-10T07:35:21Z</time>
      </trkpt>
      <trkpt lat="49.93595" lon="2.11279">
        <ele>77.5</ele>
        <time>2022-08-10T07:35:22Z</time>
      </trkpt>
      <trkpt lat="49.93596" lon="2.11279">
        <ele>77.4</ele>
        <time>2022-08-10T07:35:23Z</time>
      </trkpt>
      <trkpt lat="49.93598" lon="2.11278">
        <ele>77.3</ele>
        <time>2022-08-10T07:35:24Z</time>
      </trkpt>
      <trkpt lat="49.93599" lon="2.11277">
        <ele>77.3</ele>
        <time>2022-08-10T07:35:25Z</time>
      </trkpt>
      <trkpt lat="49.93601" lon="2.11276">
        <ele>77.2</ele>
        <time>2022-08-10T07:35:26Z</time>
      </trkpt>
      <trkpt lat="49.93602" lon="2.11275">
        <ele>77.1</ele>
        <time>2022-08-10T07:35:27Z</time>
      </trkpt>
      <trkpt lat="49.93603" lon="2.11274">
        <ele>77.1</ele>
        <time>2022-08-10T07:35:28Z</time>
      </trkpt>
      <trkpt lat="49.93605" lon="2.11274">
        <ele>77</ele>
        <time>2022-08-10T07:35:29Z</time>
      </trkpt>
      <trkpt lat="49.93606" lon="2.11272">
        <ele>77</ele>
        <time>2022-08-10T07:35:31Z</time>
      </trkpt>
      <trkpt lat="49.93608" lon="2.11271">
        <ele>76.9</ele>
        <time>2022-08-10T07:35:32Z</time>
      </trkpt>
      <trkpt lat="49.93609" lon="2.11269">
        <ele>76.8</ele>
        <time>2022-08-10T07:35:33Z</time>
      </trkpt>
      <trkpt lat="49.9361" lon="2.11269">
        <ele>76.8</ele>
        <time>2022-08-10T07:35:34Z</time>
      </trkpt>
      <trkpt lat="49.93611" lon="2.11268">
        <ele>76.7</ele>
        <time>2022-08-10T07:35:35Z</time>
      </trkpt>
      <trkpt lat="49.93613" lon="2.11266">
        <ele>76.6</ele>
        <time>2022-08-10T07:35:36Z</time>
      </trkpt>
      <trkpt lat="49.93614" lon="2.11266">
        <ele>76.6</ele>
        <time>2022-08-10T07:35:37Z</time>
      </trkpt>
      <trkpt lat="49.93614" lon="2.11265">
        <ele>76.6</ele>
        <time>2022-08-10T07:35:38Z</time>
      </trkpt>
      <trkpt lat="49.93616" lon="2.11264">
        <ele>76.5</ele>
        <time>2022-08-10T07:35:39Z</time>
      </trkpt>
      <trkpt lat="49.93617" lon="2.11263">
        <ele>76.5</ele>
        <time>2022-08-10T07:35:41Z</time>
      </trkpt>
      <trkpt lat="49.93618" lon="2.11262">
        <ele>76.4</ele>
        <time>2022-08-10T07:35:42Z</time>
      </trkpt>
      <trkpt lat="49.93619" lon="2.11262">
        <ele>76.4</ele>
        <time>2022-08-10T07:35:43Z</time>
      </trkpt>
      <trkpt lat="49.9362" lon="2.11261">
        <ele>76.4</ele>
        <time>2022-08-10T07:35:44Z</time>
      </trkpt>
      <trkpt lat="49.93621" lon="2.11261">
        <ele>76.4</ele>
        <time>2022-08-10T07:35:45Z</time>
      </trkpt>
      <trkpt lat="49.93623" lon="2.11259">
        <ele>76.3</ele>
        <time>2022-08-10T07:35:47Z</time>
      </trkpt>
      <trkpt lat="49.93624" lon="2.11259">
        <ele>76.3</ele>
        <time>2022-08-10T07:35:48Z</time>
      </trkpt>
      <trkpt lat="49.93624" lon="2.11258">
        <ele>76.2</ele>
        <time>2022-08-10T07:35:49Z</time>
      </trkpt>
      <trkpt lat="49.93626" lon="2.11257">
        <ele>76.2</ele>
        <time>2022-08-10T07:35:50Z</time>
      </trkpt>
      <trkpt lat="49.93627" lon="2.11256">
        <ele>76.1</ele>
        <time>2022-08-10T07:35:51Z</time>
      </trkpt>
      <trkpt lat="49.93627" lon="2.11255">
        <ele>76.1</ele>
        <time>2022-08-10T07:35:52Z</time>
      </trkpt>
      <trkpt lat="49.93628" lon="2.11255">
        <ele>76.1</ele>
        <time>2022-08-10T07:35:53Z</time>
      </trkpt>
      <trkpt lat="49.93629" lon="2.11254">
        <ele>76</ele>
        <time>2022-08-10T07:35:54Z</time>
      </trkpt>
      <trkpt lat="49.9363" lon="2.11253">
        <ele>76</ele>
        <time>2022-08-10T07:35:55Z</time>
      </trkpt>
      <trkpt lat="49.93632" lon="2.11252">
        <ele>75.9</ele>
        <time>2022-08-10T07:35:56Z</time>
      </trkpt>
      <trkpt lat="49.93632" lon="2.11252">
        <ele>75.9</ele>
        <time>2022-08-10T07:35:57Z</time>
      </trkpt>
      <trkpt lat="49.93633" lon="2.11251">
        <ele>75.9</ele>
        <time>2022-08-10T07:35:58Z</time>
      </trkpt>
      <trkpt lat="49.93635" lon="2.1125">
        <ele>75.8</ele>
        <time>2022-08-10T07:36:00Z</time>
      </trkpt>
      <trkpt lat="49.93636" lon="2.11249">
        <ele>75.7</ele>
        <time>2022-08-10T07:36:01Z</time>
      </trkpt>
      <trkpt lat="49.93637" lon="2.11248">
        <ele>75.7</ele>
        <time>2022-08-10T07:36:02Z</time>
      </trkpt>
      <trkpt lat="49.93638" lon="2.11248">
        <ele>75.7</ele>
        <time>2022-08-10T07:36:03Z</time>
      </trkpt>
      <trkpt lat="49.93639" lon="2.11247">
        <ele>75.6</ele>
        <time>2022-08-10T07:36:04Z</time>
      </trkpt>
      <trkpt lat="49.9364" lon="2.11246">
        <ele>75.6</ele>
        <time>2022-08-10T07:36:05Z</time>
      </trkpt>
      <trkpt lat="49.93641" lon="2.11245">
        <ele>75.5</ele>
        <time>2022-08-10T07:36:06Z</time>
      </trkpt>
      <trkpt lat="49.93642" lon="2.11244">
        <ele>75.5</ele>
        <time>2022-08-10T07:36:07Z</time>
      </trkpt>
      <trkpt lat="49.93643" lon="2.11243">
        <ele>75.4</ele>
        <time>2022-08-10T07:36:08Z</time>
      </trkpt>
      <trkpt lat="49.93644" lon="2.11242">
        <ele>75.4</ele>
        <time>2022-08-10T07:36:09Z</time>
      </trkpt>
      <trkpt lat="49.93645" lon="2.11241">
        <ele>75.3</ele>
        <time>2022-08-10T07:36:10Z</time>
      </trkpt>
      <trkpt lat="49.93646" lon="2.11239">
        <ele>75.3</ele>
        <time>2022-08-10T07:36:12Z</time>
      </trkpt>
      <trkpt lat="49.93647" lon="2.11238">
        <ele>75.2</ele>
        <time>2022-08-10T07:36:13Z</time>
      </trkpt>
      <trkpt lat="49.93648" lon="2.11236">
        <ele>75.2</ele>
        <time>2022-08-10T07:36:14Z</time>
      </trkpt>
      <trkpt lat="49.93649" lon="2.11235">
        <ele>75.1</ele>
        <time>2022-08-10T07:36:15Z</time>
      </trkpt>
      <trkpt lat="49.9365" lon="2.11233">
        <ele>75</ele>
        <time>2022-08-10T07:36:16Z</time>
      </trkpt>
      <trkpt lat="49.93651" lon="2.11232">
        <ele>75</ele>
        <time>2022-08-10T07:36:17Z</time>
      </trkpt>
      <trkpt lat="49.93652" lon="2.1123">
        <ele>74.9</ele>
        <time>2022-08-10T07:36:19Z</time>
      </trkpt>
      <trkpt lat="49.93653" lon="2.11229">
        <ele>74.9</ele>
        <time>2022-08-10T07:36:20Z</time>
      </trkpt>
      <trkpt lat="49.93654" lon="2.11228">
        <ele>74.8</ele>
        <time>2022-08-10T07:36:21Z</time>
      </trkpt>
      <trkpt lat="49.93655" lon="2.11226">
        <ele>74.8</ele>
        <time>2022-08-10T07:36:22Z</time>
      </trkpt>
      <trkpt lat="49.93655" lon="2.11225">
        <ele>74.7</ele>
        <time>2022-08-10T07:36:23Z</time>
      </trkpt>
      <trkpt lat="49.93656" lon="2.11224">
        <ele>74.7</ele>
        <time>2022-08-10T07:36:24Z</time>
      </trkpt>
      <trkpt lat="49.93657" lon="2.11221">
        <ele>74.6</ele>
        <time>2022-08-10T07:36:25Z</time>
      </trkpt>
      <trkpt lat="49.93658" lon="2.11221">
        <ele>74.6</ele>
        <time>2022-08-10T07:36:26Z</time>
      </trkpt>
      <trkpt lat="49.93659" lon="2.1122">
        <ele>74.6</ele>
        <time>2022-08-10T07:36:27Z</time>
      </trkpt>
      <trkpt lat="49.9366" lon="2.11218">
        <ele>74.5</ele>
        <time>2022-08-10T07:36:28Z</time>
      </trkpt>
      <trkpt lat="49.93661" lon="2.11217">
        <ele>74.4</ele>
        <time>2022-08-10T07:36:29Z</time>
      </trkpt>
      <trkpt lat="49.93662" lon="2.11216">
        <ele>74.4</ele>
        <time>2022-08-10T07:36:30Z</time>
      </trkpt>
      <trkpt lat="49.93664" lon="2.11214">
        <ele>74.3</ele>
        <time>2022-08-10T07:36:31Z</time>
      </trkpt>
      <trkpt lat="49.93664" lon="2.11213">
        <ele>74.3</ele>
        <time>2022-08-10T07:36:33Z</time>
      </trkpt>
      <trkpt lat="49.93665" lon="2.11212">
        <ele>74.2</ele>
        <time>2022-08-10T07:36:34Z</time>
      </trkpt>
      <trkpt lat="49.93667" lon="2.11211">
        <ele>74.1</ele>
        <time>2022-08-10T07:36:35Z</time>
      </trkpt>
      <trkpt lat="49.93667" lon="2.1121">
        <ele>74.1</ele>
        <time>2022-08-10T07:36:36Z</time>
      </trkpt>
      <trkpt lat="49.93668" lon="2.11209">
        <ele>74.1</ele>
        <time>2022-08-10T07:36:37Z</time>
      </trkpt>
      <trkpt lat="49.93669" lon="2.11208">
        <ele>74</ele>
        <time>2022-08-10T07:36:38Z</time>
      </trkpt>
      <trkpt lat="49.93669" lon="2.11207">
        <ele>74</ele>
        <time>2022-08-10T07:36:39Z</time>
      </trkpt>
      <trkpt lat="49.9367" lon="2.11205">
        <ele>73.9</ele>
        <time>2022-08-10T07:36:40Z</time>
      </trkpt>
      <trkpt lat="49.93672" lon="2.11204">
        <ele>73.8</ele>
        <time>2022-08-10T07:36:41Z</time>
      </trkpt>
      <trkpt lat="49.93673" lon="2.11202">
        <ele>73.8</ele>
        <time>2022-08-10T07:36:42Z</time>
      </trkpt>
      <trkpt lat="49.93674" lon="2.11201">
        <ele>73.7</ele>
        <time>2022-08-10T07:36:43Z</time>
      </trkpt>
      <trkpt lat="49.93675" lon="2.112">
        <ele>73.6</ele>
        <time>2022-08-10T07:36:45Z</time>
      </trkpt>
      <trkpt lat="49.93676" lon="2.11199">
        <ele>73.5</ele>
        <time>2022-08-10T07:36:46Z</time>
      </trkpt>
      <trkpt lat="49.93677" lon="2.11197">
        <ele>73.4</ele>
        <time>2022-08-10T07:36:47Z</time>
      </trkpt>
      <trkpt lat="49.93678" lon="2.11196">
        <ele>73.4</ele>
        <time>2022-08-10T07:36:48Z</time>
      </trkpt>
      <trkpt lat="49.93679" lon="2.11194">
        <ele>73.3</ele>
        <time>2022-08-10T07:36:49Z</time>
      </trkpt>
      <trkpt lat="49.9368" lon="2.11193">
        <ele>73.2</ele>
        <time>2022-08-10T07:36:50Z</time>
      </trkpt>
      <trkpt lat="49.93681" lon="2.11192">
        <ele>73.2</ele>
        <time>2022-08-10T07:36:51Z</time>
      </trkpt>
      <trkpt lat="49.93682" lon="2.1119">
        <ele>73.1</ele>
        <time>2022-08-10T07:36:52Z</time>
      </trkpt>
      <trkpt lat="49.93683" lon="2.11189">
        <ele>73</ele>
        <time>2022-08-10T07:36:54Z</time>
      </trkpt>
      <trkpt lat="49.93684" lon="2.11188">
        <ele>73</ele>
        <time>2022-08-10T07:36:55Z</time>
      </trkpt>
      <trkpt lat="49.93685" lon="2.11187">
        <ele>72.9</ele>
        <time>2022-08-10T07:36:56Z</time>
      </trkpt>
      <trkpt lat="49.93687" lon="2.11184">
        <ele>72.7</ele>
        <time>2022-08-10T07:36:57Z</time>
      </trkpt>
      <trkpt lat="49.93687" lon="2.11183">
        <ele>72.7</ele>
        <time>2022-08-10T07:36:58Z</time>
      </trkpt>
      <trkpt lat="49.93687" lon="2.11183">
        <ele>72.7</ele>
        <time>2022-08-10T07:36:59Z</time>
      </trkpt>
      <trkpt lat="49.93688" lon="2.11181">
        <ele>72.6</ele>
        <time>2022-08-10T07:37:00Z</time>
      </trkpt>
      <trkpt lat="49.9369" lon="2.11179">
        <ele>72.5</ele>
        <time>2022-08-10T07:37:02Z</time>
      </trkpt>
      <trkpt lat="49.9369" lon="2.11178">
        <ele>72.4</ele>
        <time>2022-08-10T07:37:03Z</time>
      </trkpt>
      <trkpt lat="49.93691" lon="2.11177">
        <ele>72.4</ele>
        <time>2022-08-10T07:37:04Z</time>
      </trkpt>
      <trkpt lat="49.93692" lon="2.11176">
        <ele>72.3</ele>
        <time>2022-08-10T07:37:05Z</time>
      </trkpt>
      <trkpt lat="49.93693" lon="2.11175">
        <ele>72.3</ele>
        <time>2022-08-10T07:37:06Z</time>
      </trkpt>
      <trkpt lat="49.93694" lon="2.11173">
        <ele>72.2</ele>
        <time>2022-08-10T07:37:07Z</time>
      </trkpt>
      <trkpt lat="49.93694" lon="2.11172">
        <ele>72.1</ele>
        <time>2022-08-10T07:37:08Z</time>
      </trkpt>
      <trkpt lat="49.93695" lon="2.11171">
        <ele>72.1</ele>
        <time>2022-08-10T07:37:09Z</time>
      </trkpt>
      <trkpt lat="49.93696" lon="2.11169">
        <ele>72</ele>
        <time>2022-08-10T07:37:11Z</time>
      </trkpt>
      <trkpt lat="49.93697" lon="2.11167">
        <ele>71.9</ele>
        <time>2022-08-10T07:37:12Z</time>
      </trkpt>
      <trkpt lat="49.93698" lon="2.11166">
        <ele>71.8</ele>
        <time>2022-08-10T07:37:13Z</time>
      </trkpt>
      <trkpt lat="49.93699" lon="2.11165">
        <ele>71.8</ele>
        <time>2022-08-10T07:37:14Z</time>
      </trkpt>
      <trkpt lat="49.937" lon="2.11162">
        <ele>71.6</ele>
        <time>2022-08-10T07:37:15Z</time>
      </trkpt>
      <trkpt lat="49.93701" lon="2.11161">
        <ele>71.5</ele>
        <time>2022-08-10T07:37:16Z</time>
      </trkpt>
      <trkpt lat="49.93701" lon="2.11159">
        <ele>71.5</ele>
        <time>2022-08-10T07:37:17Z</time>
      </trkpt>
      <trkpt lat="49.93702" lon="2.11158">
        <ele>71.4</ele>
        <time>2022-08-10T07:37:18Z</time>
      </trkpt>
      <trkpt lat="49.93702" lon="2.11156">
        <ele>71.3</ele>
        <time>2022-08-10T07:37:19Z</time>
      </trkpt>
      <trkpt lat="49.93703" lon="2.11155">
        <ele>71.2</ele>
        <time>2022-08-10T07:37:20Z</time>
      </trkpt>
      <trkpt lat="49.93703" lon="2.11153">
        <ele>71.1</ele>
        <time>2022-08-10T07:37:21Z</time>
      </trkpt>
      <trkpt lat="49.93704" lon="2.11151">
        <ele>71.1</ele>
        <time>2022-08-10T07:37:22Z</time>
      </trkpt>
      <trkpt lat="49.93705" lon="2.11149">
        <ele>70.9</ele>
        <time>2022-08-10T07:37:24Z</time>
      </trkpt>
      <trkpt lat="49.93706" lon="2.11148">
        <ele>70.8</ele>
        <time>2022-08-10T07:37:25Z</time>
      </trkpt>
      <trkpt lat="49.93707" lon="2.11147">
        <ele>70.8</ele>
        <time>2022-08-10T07:37:26Z</time>
      </trkpt>
      <trkpt lat="49.93708" lon="2.11143">
        <ele>70.6</ele>
        <time>2022-08-10T07:37:27Z</time>
      </trkpt>
      <trkpt lat="49.93708" lon="2.11142">
        <ele>70.5</ele>
        <time>2022-08-10T07:37:28Z</time>
      </trkpt>
      <trkpt lat="49.93709" lon="2.11142">
        <ele>70.5</ele>
        <time>2022-08-10T07:37:29Z</time>
      </trkpt>
      <trkpt lat="49.9371" lon="2.11139">
        <ele>70.3</ele>
        <time>2022-08-10T07:37:30Z</time>
      </trkpt>
      <trkpt lat="49.9371" lon="2.11138">
        <ele>70.2</ele>
        <time>2022-08-10T07:37:31Z</time>
      </trkpt>
      <trkpt lat="49.93711" lon="2.11137">
        <ele>70.1</ele>
        <time>2022-08-10T07:37:32Z</time>
      </trkpt>
      <trkpt lat="49.93712" lon="2.11134">
        <ele>70</ele>
        <time>2022-08-10T07:37:33Z</time>
      </trkpt>
      <trkpt lat="49.93713" lon="2.11133">
        <ele>69.9</ele>
        <time>2022-08-10T07:37:34Z</time>
      </trkpt>
      <trkpt lat="49.93714" lon="2.11132">
        <ele>69.8</ele>
        <time>2022-08-10T07:37:36Z</time>
      </trkpt>
      <trkpt lat="49.93714" lon="2.1113">
        <ele>69.7</ele>
        <time>2022-08-10T07:37:37Z</time>
      </trkpt>
      <trkpt lat="49.93715" lon="2.11129">
        <ele>69.6</ele>
        <time>2022-08-10T07:37:38Z</time>
      </trkpt>
      <trkpt lat="49.93716" lon="2.11128">
        <ele>69.5</ele>
        <time>2022-08-10T07:37:39Z</time>
      </trkpt>
      <trkpt lat="49.93717" lon="2.11126">
        <ele>69.4</ele>
        <time>2022-08-10T07:37:40Z</time>
      </trkpt>
      <trkpt lat="49.93718" lon="2.11124">
        <ele>69.2</ele>
        <time>2022-08-10T07:37:41Z</time>
      </trkpt>
      <trkpt lat="49.93719" lon="2.11122">
        <ele>69.1</ele>
        <time>2022-08-10T07:37:42Z</time>
      </trkpt>
      <trkpt lat="49.9372" lon="2.11121">
        <ele>69</ele>
        <time>2022-08-10T07:37:43Z</time>
      </trkpt>
      <trkpt lat="49.93721" lon="2.1112">
        <ele>68.9</ele>
        <time>2022-08-10T07:37:45Z</time>
      </trkpt>
      <trkpt lat="49.93722" lon="2.11119">
        <ele>68.8</ele>
        <time>2022-08-10T07:37:46Z</time>
      </trkpt>
      <trkpt lat="49.93722" lon="2.11118">
        <ele>68.7</ele>
        <time>2022-08-10T07:37:47Z</time>
      </trkpt>
      <trkpt lat="49.93723" lon="2.11116">
        <ele>68.6</ele>
        <time>2022-08-10T07:37:48Z</time>
      </trkpt>
      <trkpt lat="49.93724" lon="2.11115">
        <ele>68.5</ele>
        <time>2022-08-10T07:37:49Z</time>
      </trkpt>
      <trkpt lat="49.93724" lon="2.11113">
        <ele>68.4</ele>
        <time>2022-08-10T07:37:50Z</time>
      </trkpt>
      <trkpt lat="49.93725" lon="2.11111">
        <ele>68.2</ele>
        <time>2022-08-10T07:37:51Z</time>
      </trkpt>
      <trkpt lat="49.93726" lon="2.11109">
        <ele>68.1</ele>
        <time>2022-08-10T07:37:52Z</time>
      </trkpt>
      <trkpt lat="49.93727" lon="2.11108">
        <ele>68</ele>
        <time>2022-08-10T07:37:53Z</time>
      </trkpt>
      <trkpt lat="49.93728" lon="2.11105">
        <ele>67.8</ele>
        <time>2022-08-10T07:37:54Z</time>
      </trkpt>
      <trkpt lat="49.93728" lon="2.11104">
        <ele>67.8</ele>
        <time>2022-08-10T07:37:55Z</time>
      </trkpt>
      <trkpt lat="49.93728" lon="2.11102">
        <ele>67.7</ele>
        <time>2022-08-10T07:37:56Z</time>
      </trkpt>
      <trkpt lat="49.9373" lon="2.11099">
        <ele>67.4</ele>
        <time>2022-08-10T07:37:57Z</time>
      </trkpt>
      <trkpt lat="49.93731" lon="2.11098">
        <ele>67.3</ele>
        <time>2022-08-10T07:37:59Z</time>
      </trkpt>
      <trkpt lat="49.93732" lon="2.11097">
        <ele>67.3</ele>
        <time>2022-08-10T07:38:00Z</time>
      </trkpt>
      <trkpt lat="49.93732" lon="2.11096">
        <ele>67.2</ele>
        <time>2022-08-10T07:38:01Z</time>
      </trkpt>
      <trkpt lat="49.93733" lon="2.11095">
        <ele>67.1</ele>
        <time>2022-08-10T07:38:02Z</time>
      </trkpt>
      <trkpt lat="49.93735" lon="2.11092">
        <ele>66.8</ele>
        <time>2022-08-10T07:38:03Z</time>
      </trkpt>
      <trkpt lat="49.93735" lon="2.11091">
        <ele>66.8</ele>
        <time>2022-08-10T07:38:04Z</time>
      </trkpt>
      <trkpt lat="49.93735" lon="2.11091">
        <ele>66.7</ele>
        <time>2022-08-10T07:38:05Z</time>
      </trkpt>
      <trkpt lat="49.93737" lon="2.11088">
        <ele>66.5</ele>
        <time>2022-08-10T07:38:06Z</time>
      </trkpt>
      <trkpt lat="49.93737" lon="2.11087">
        <ele>66.4</ele>
        <time>2022-08-10T07:38:07Z</time>
      </trkpt>
      <trkpt lat="49.93738" lon="2.11086">
        <ele>66.3</ele>
        <time>2022-08-10T07:38:08Z</time>
      </trkpt>
      <trkpt lat="49.93739" lon="2.11084">
        <ele>66.2</ele>
        <time>2022-08-10T07:38:10Z</time>
      </trkpt>
      <trkpt lat="49.9374" lon="2.11082">
        <ele>66.1</ele>
        <time>2022-08-10T07:38:11Z</time>
      </trkpt>
      <trkpt lat="49.93742" lon="2.1108">
        <ele>65.9</ele>
        <time>2022-08-10T07:38:12Z</time>
      </trkpt>
      <trkpt lat="49.93742" lon="2.11079">
        <ele>65.8</ele>
        <time>2022-08-10T07:38:13Z</time>
      </trkpt>
      <trkpt lat="49.93743" lon="2.11078">
        <ele>65.7</ele>
        <time>2022-08-10T07:38:14Z</time>
      </trkpt>
      <trkpt lat="49.93745" lon="2.11076">
        <ele>65.5</ele>
        <time>2022-08-10T07:38:16Z</time>
      </trkpt>
      <trkpt lat="49.93745" lon="2.11075">
        <ele>65.4</ele>
        <time>2022-08-10T07:38:17Z</time>
      </trkpt>
      <trkpt lat="49.93746" lon="2.11074">
        <ele>65.3</ele>
        <time>2022-08-10T07:38:18Z</time>
      </trkpt>
      <trkpt lat="49.93747" lon="2.11073">
        <ele>65.3</ele>
        <time>2022-08-10T07:38:19Z</time>
      </trkpt>
      <trkpt lat="49.93747" lon="2.11072">
        <ele>65.2</ele>
        <time>2022-08-10T07:38:20Z</time>
      </trkpt>
      <trkpt lat="49.93748" lon="2.11071">
        <ele>65.1</ele>
        <time>2022-08-10T07:38:21Z</time>
      </trkpt>
      <trkpt lat="49.93749" lon="2.1107">
        <ele>65</ele>
        <time>2022-08-10T07:38:22Z</time>
      </trkpt>
      <trkpt lat="49.9375" lon="2.11068">
        <ele>64.8</ele>
        <time>2022-08-10T07:38:23Z</time>
      </trkpt>
      <trkpt lat="49.93751" lon="2.11067">
        <ele>64.7</ele>
        <time>2022-08-10T07:38:25Z</time>
      </trkpt>
      <trkpt lat="49.93752" lon="2.11066">
        <ele>64.6</ele>
        <time>2022-08-10T07:38:26Z</time>
      </trkpt>
      <trkpt lat="49.93753" lon="2.11065">
        <ele>64.5</ele>
        <time>2022-08-10T07:38:27Z</time>
      </trkpt>
      <trkpt lat="49.93754" lon="2.11063">
        <ele>64.4</ele>
        <time>2022-08-10T07:38:28Z</time>
      </trkpt>
      <trkpt lat="49.93755" lon="2.11062">
        <ele>64.3</ele>
        <time>2022-08-10T07:38:29Z</time>
      </trkpt>
      <trkpt lat="49.93755" lon="2.11061">
        <ele>64.2</ele>
        <time>2022-08-10T07:38:30Z</time>
      </trkpt>
      <trkpt lat="49.93756" lon="2.1106">
        <ele>64.1</ele>
        <time>2022-08-10T07:38:32Z</time>
      </trkpt>
      <trkpt lat="49.93758" lon="2.11059">
        <ele>63.9</ele>
        <time>2022-08-10T07:38:33Z</time>
      </trkpt>
      <trkpt lat="49.9376" lon="2.11057">
        <ele>63.7</ele>
        <time>2022-08-10T07:38:34Z</time>
      </trkpt>
      <trkpt lat="49.93761" lon="2.11056">
        <ele>63.6</ele>
        <time>2022-08-10T07:38:35Z</time>
      </trkpt>
      <trkpt lat="49.93761" lon="2.11055">
        <ele>63.5</ele>
        <time>2022-08-10T07:38:36Z</time>
      </trkpt>
      <trkpt lat="49.93762" lon="2.11053">
        <ele>63.4</ele>
        <time>2022-08-10T07:38:37Z</time>
      </trkpt>
      <trkpt lat="49.93763" lon="2.11051">
        <ele>63.2</ele>
        <time>2022-08-10T07:38:38Z</time>
      </trkpt>
      <trkpt lat="49.93763" lon="2.1105">
        <ele>63.1</ele>
        <time>2022-08-10T07:38:40Z</time>
      </trkpt>
      <trkpt lat="49.93764" lon="2.11049">
        <ele>63</ele>
        <time>2022-08-10T07:38:41Z</time>
      </trkpt>
      <trkpt lat="49.93765" lon="2.11047">
        <ele>62.9</ele>
        <time>2022-08-10T07:38:42Z</time>
      </trkpt>
      <trkpt lat="49.93766" lon="2.11045">
        <ele>62.7</ele>
        <time>2022-08-10T07:38:43Z</time>
      </trkpt>
      <trkpt lat="49.93766" lon="2.11044">
        <ele>62.6</ele>
        <time>2022-08-10T07:38:44Z</time>
      </trkpt>
      <trkpt lat="49.93767" lon="2.11042">
        <ele>62.5</ele>
        <time>2022-08-10T07:38:45Z</time>
      </trkpt>
      <trkpt lat="49.93767" lon="2.1104">
        <ele>62.4</ele>
        <time>2022-08-10T07:38:46Z</time>
      </trkpt>
      <trkpt lat="49.93768" lon="2.11039">
        <ele>62.3</ele>
        <time>2022-08-10T07:38:47Z</time>
      </trkpt>
      <trkpt lat="49.93768" lon="2.11037">
        <ele>62.2</ele>
        <time>2022-08-10T07:38:48Z</time>
      </trkpt>
      <trkpt lat="49.93769" lon="2.11036">
        <ele>62.1</ele>
        <time>2022-08-10T07:38:49Z</time>
      </trkpt>
      <trkpt lat="49.9377" lon="2.11035">
        <ele>62</ele>
        <time>2022-08-10T07:38:50Z</time>
      </trkpt>
      <trkpt lat="49.9377" lon="2.11033">
        <ele>61.9</ele>
        <time>2022-08-10T07:38:51Z</time>
      </trkpt>
      <trkpt lat="49.93771" lon="2.11032">
        <ele>61.7</ele>
        <time>2022-08-10T07:38:53Z</time>
      </trkpt>
      <trkpt lat="49.93772" lon="2.1103">
        <ele>61.6</ele>
        <time>2022-08-10T07:38:54Z</time>
      </trkpt>
      <trkpt lat="49.93773" lon="2.11028">
        <ele>61.5</ele>
        <time>2022-08-10T07:38:55Z</time>
      </trkpt>
      <trkpt lat="49.93773" lon="2.11027">
        <ele>61.4</ele>
        <time>2022-08-10T07:38:56Z</time>
      </trkpt>
      <trkpt lat="49.93774" lon="2.11026">
        <ele>61.3</ele>
        <time>2022-08-10T07:38:57Z</time>
      </trkpt>
      <trkpt lat="49.93775" lon="2.11023">
        <ele>61</ele>
        <time>2022-08-10T07:38:58Z</time>
      </trkpt>
      <trkpt lat="49.93775" lon="2.11022">
        <ele>60.9</ele>
        <time>2022-08-10T07:39:00Z</time>
      </trkpt>
      <trkpt lat="49.93776" lon="2.1102">
        <ele>60.8</ele>
        <time>2022-08-10T07:39:01Z</time>
      </trkpt>
      <trkpt lat="49.93776" lon="2.11019">
        <ele>60.7</ele>
        <time>2022-08-10T07:39:02Z</time>
      </trkpt>
      <trkpt lat="49.93777" lon="2.11016">
        <ele>60.5</ele>
        <time>2022-08-10T07:39:03Z</time>
      </trkpt>
      <trkpt lat="49.93778" lon="2.11014">
        <ele>60.3</ele>
        <time>2022-08-10T07:39:04Z</time>
      </trkpt>
      <trkpt lat="49.93779" lon="2.11013">
        <ele>60.2</ele>
        <time>2022-08-10T07:39:05Z</time>
      </trkpt>
      <trkpt lat="49.93779" lon="2.11011">
        <ele>60</ele>
        <time>2022-08-10T07:39:07Z</time>
      </trkpt>
      <trkpt lat="49.9378" lon="2.11009">
        <ele>59.9</ele>
        <time>2022-08-10T07:39:08Z</time>
      </trkpt>
      <trkpt lat="49.93781" lon="2.11007">
        <ele>59.7</ele>
        <time>2022-08-10T07:39:09Z</time>
      </trkpt>
      <trkpt lat="49.93782" lon="2.11006">
        <ele>59.6</ele>
        <time>2022-08-10T07:39:10Z</time>
      </trkpt>
      <trkpt lat="49.93783" lon="2.11005">
        <ele>59.5</ele>
        <time>2022-08-10T07:39:11Z</time>
      </trkpt>
      <trkpt lat="49.93783" lon="2.11004">
        <ele>59.4</ele>
        <time>2022-08-10T07:39:12Z</time>
      </trkpt>
      <trkpt lat="49.93785" lon="2.11001">
        <ele>59.1</ele>
        <time>2022-08-10T07:39:13Z</time>
      </trkpt>
      <trkpt lat="49.93785" lon="2.11001">
        <ele>59</ele>
        <time>2022-08-10T07:39:14Z</time>
      </trkpt>
      <trkpt lat="49.93785" lon="2.11">
        <ele>59</ele>
        <time>2022-08-10T07:39:15Z</time>
      </trkpt>
      <trkpt lat="49.93787" lon="2.10997">
        <ele>58.7</ele>
        <time>2022-08-10T07:39:16Z</time>
      </trkpt>
      <trkpt lat="49.93787" lon="2.10996">
        <ele>58.6</ele>
        <time>2022-08-10T07:39:17Z</time>
      </trkpt>
      <trkpt lat="49.93788" lon="2.10995">
        <ele>58.5</ele>
        <time>2022-08-10T07:39:18Z</time>
      </trkpt>
      <trkpt lat="49.93789" lon="2.10992">
        <ele>58.3</ele>
        <time>2022-08-10T07:39:19Z</time>
      </trkpt>
      <trkpt lat="49.9379" lon="2.10991">
        <ele>58.2</ele>
        <time>2022-08-10T07:39:21Z</time>
      </trkpt>
      <trkpt lat="49.9379" lon="2.1099">
        <ele>58.1</ele>
        <time>2022-08-10T07:39:22Z</time>
      </trkpt>
      <trkpt lat="49.93791" lon="2.10989">
        <ele>57.9</ele>
        <time>2022-08-10T07:39:23Z</time>
      </trkpt>
      <trkpt lat="49.93792" lon="2.10987">
        <ele>57.8</ele>
        <time>2022-08-10T07:39:24Z</time>
      </trkpt>
      <trkpt lat="49.93792" lon="2.10986">
        <ele>57.7</ele>
        <time>2022-08-10T07:39:25Z</time>
      </trkpt>
      <trkpt lat="49.93794" lon="2.10984">
        <ele>57.4</ele>
        <time>2022-08-10T07:39:26Z</time>
      </trkpt>
      <trkpt lat="49.93794" lon="2.10983">
        <ele>57.3</ele>
        <time>2022-08-10T07:39:27Z</time>
      </trkpt>
      <trkpt lat="49.93795" lon="2.10982">
        <ele>57.2</ele>
        <time>2022-08-10T07:39:28Z</time>
      </trkpt>
      <trkpt lat="49.93796" lon="2.1098">
        <ele>57</ele>
        <time>2022-08-10T07:39:29Z</time>
      </trkpt>
      <trkpt lat="49.93796" lon="2.10978">
        <ele>56.9</ele>
        <time>2022-08-10T07:39:30Z</time>
      </trkpt>
      <trkpt lat="49.93797" lon="2.10977">
        <ele>56.7</ele>
        <time>2022-08-10T07:39:32Z</time>
      </trkpt>
      <trkpt lat="49.93798" lon="2.10975">
        <ele>56.5</ele>
        <time>2022-08-10T07:39:33Z</time>
      </trkpt>
      <trkpt lat="49.93799" lon="2.10974">
        <ele>56.3</ele>
        <time>2022-08-10T07:39:34Z</time>
      </trkpt>
      <trkpt lat="49.93799" lon="2.10973">
        <ele>56.2</ele>
        <time>2022-08-10T07:39:35Z</time>
      </trkpt>
      <trkpt lat="49.938" lon="2.1097">
        <ele>55.9</ele>
        <time>2022-08-10T07:39:36Z</time>
      </trkpt>
      <trkpt lat="49.93801" lon="2.10969">
        <ele>55.8</ele>
        <time>2022-08-10T07:39:37Z</time>
      </trkpt>
      <trkpt lat="49.93801" lon="2.10968">
        <ele>55.7</ele>
        <time>2022-08-10T07:39:38Z</time>
      </trkpt>
      <trkpt lat="49.93802" lon="2.10966">
        <ele>55.5</ele>
        <time>2022-08-10T07:39:39Z</time>
      </trkpt>
      <trkpt lat="49.93803" lon="2.10965">
        <ele>55.4</ele>
        <time>2022-08-10T07:39:40Z</time>
      </trkpt>
      <trkpt lat="49.93803" lon="2.10963">
        <ele>55.1</ele>
        <time>2022-08-10T07:39:42Z</time>
      </trkpt>
      <trkpt lat="49.93804" lon="2.1096">
        <ele>54.9</ele>
        <time>2022-08-10T07:39:44Z</time>
      </trkpt>
      <trkpt lat="49.93805" lon="2.10959">
        <ele>54.7</ele>
        <time>2022-08-10T07:39:45Z</time>
      </trkpt>
      <trkpt lat="49.93805" lon="2.10957">
        <ele>54.6</ele>
        <time>2022-08-10T07:39:46Z</time>
      </trkpt>
      <trkpt lat="49.93806" lon="2.10956">
        <ele>54.5</ele>
        <time>2022-08-10T07:39:47Z</time>
      </trkpt>
      <trkpt lat="49.93806" lon="2.10955">
        <ele>54.3</ele>
        <time>2022-08-10T07:39:48Z</time>
      </trkpt>
      <trkpt lat="49.93807" lon="2.10953">
        <ele>54</ele>
        <time>2022-08-10T07:39:49Z</time>
      </trkpt>
      <trkpt lat="49.93808" lon="2.10951">
        <ele>53.9</ele>
        <time>2022-08-10T07:39:51Z</time>
      </trkpt>
      <trkpt lat="49.93809" lon="2.1095">
        <ele>53.7</ele>
        <time>2022-08-10T07:39:52Z</time>
      </trkpt>
      <trkpt lat="49.93811" lon="2.10948">
        <ele>53.4</ele>
        <time>2022-08-10T07:39:53Z</time>
      </trkpt>
      <trkpt lat="49.93812" lon="2.10947">
        <ele>53.2</ele>
        <time>2022-08-10T07:39:54Z</time>
      </trkpt>
      <trkpt lat="49.93813" lon="2.10946">
        <ele>53</ele>
        <time>2022-08-10T07:39:55Z</time>
      </trkpt>
      <trkpt lat="49.93814" lon="2.10945">
        <ele>52.8</ele>
        <time>2022-08-10T07:39:56Z</time>
      </trkpt>
      <trkpt lat="49.93815" lon="2.10944">
        <ele>52.6</ele>
        <time>2022-08-10T07:39:58Z</time>
      </trkpt>
      <trkpt lat="49.93816" lon="2.10943">
        <ele>52.4</ele>
        <time>2022-08-10T07:39:59Z</time>
      </trkpt>
      <trkpt lat="49.93817" lon="2.10942">
        <ele>52.3</ele>
        <time>2022-08-10T07:40:00Z</time>
      </trkpt>
      <trkpt lat="49.93818" lon="2.10941">
        <ele>52.1</ele>
        <time>2022-08-10T07:40:01Z</time>
      </trkpt>
      <trkpt lat="49.93819" lon="2.1094">
        <ele>51.9</ele>
        <time>2022-08-10T07:40:02Z</time>
      </trkpt>
      <trkpt lat="49.9382" lon="2.10938">
        <ele>51.7</ele>
        <time>2022-08-10T07:40:03Z</time>
      </trkpt>
      <trkpt lat="49.93821" lon="2.10937">
        <ele>51.6</ele>
        <time>2022-08-10T07:40:04Z</time>
      </trkpt>
      <trkpt lat="49.93822" lon="2.10935">
        <ele>51.4</ele>
        <time>2022-08-10T07:40:05Z</time>
      </trkpt>
      <trkpt lat="49.93823" lon="2.10934">
        <ele>51.3</ele>
        <time>2022-08-10T07:40:06Z</time>
      </trkpt>
      <trkpt lat="49.93824" lon="2.10933">
        <ele>51.1</ele>
        <time>2022-08-10T07:40:08Z</time>
      </trkpt>
      <trkpt lat="49.93824" lon="2.10932">
        <ele>50.9</ele>
        <time>2022-08-10T07:40:09Z</time>
      </trkpt>
      <trkpt lat="49.93825" lon="2.10931">
        <ele>50.9</ele>
        <time>2022-08-10T07:40:10Z</time>
      </trkpt>
      <trkpt lat="49.93826" lon="2.10931">
        <ele>50.8</ele>
        <time>2022-08-10T07:40:11Z</time>
      </trkpt>
      <trkpt lat="49.93826" lon="2.1093">
        <ele>50.7</ele>
        <time>2022-08-10T07:40:12Z</time>
      </trkpt>
      <trkpt lat="49.93827" lon="2.10929">
        <ele>50.6</ele>
        <time>2022-08-10T07:40:13Z</time>
      </trkpt>
      <trkpt lat="49.93828" lon="2.10927">
        <ele>50.4</ele>
        <time>2022-08-10T07:40:14Z</time>
      </trkpt>
      <trkpt lat="49.93828" lon="2.10926">
        <ele>50.3</ele>
        <time>2022-08-10T07:40:15Z</time>
      </trkpt>
      <trkpt lat="49.93829" lon="2.10925">
        <ele>50.2</ele>
        <time>2022-08-10T07:40:16Z</time>
      </trkpt>
      <trkpt lat="49.93829" lon="2.10924">
        <ele>50.1</ele>
        <time>2022-08-10T07:40:17Z</time>
      </trkpt>
      <trkpt lat="49.9383" lon="2.10922">
        <ele>49.9</ele>
        <time>2022-08-10T07:40:19Z</time>
      </trkpt>
      <trkpt lat="49.93831" lon="2.10921">
        <ele>49.8</ele>
        <time>2022-08-10T07:40:20Z</time>
      </trkpt>
      <trkpt lat="49.93831" lon="2.10919">
        <ele>49.7</ele>
        <time>2022-08-10T07:40:21Z</time>
      </trkpt>
      <trkpt lat="49.93832" lon="2.10918">
        <ele>49.6</ele>
        <time>2022-08-10T07:40:22Z</time>
      </trkpt>
      <trkpt lat="49.93832" lon="2.10917">
        <ele>49.6</ele>
        <time>2022-08-10T07:40:23Z</time>
      </trkpt>
      <trkpt lat="49.93833" lon="2.10916">
        <ele>49.4</ele>
        <time>2022-08-10T07:40:24Z</time>
      </trkpt>
      <trkpt lat="49.93834" lon="2.10914">
        <ele>49.3</ele>
        <time>2022-08-10T07:40:25Z</time>
      </trkpt>
      <trkpt lat="49.93835" lon="2.10913">
        <ele>49.2</ele>
        <time>2022-08-10T07:40:26Z</time>
      </trkpt>
      <trkpt lat="49.93835" lon="2.10911">
        <ele>49.1</ele>
        <time>2022-08-10T07:40:28Z</time>
      </trkpt>
      <trkpt lat="49.93836" lon="2.10909">
        <ele>48.9</ele>
        <time>2022-08-10T07:40:29Z</time>
      </trkpt>
      <trkpt lat="49.93836" lon="2.10908">
        <ele>48.9</ele>
        <time>2022-08-10T07:40:30Z</time>
      </trkpt>
      <trkpt lat="49.93837" lon="2.10906">
        <ele>48.8</ele>
        <time>2022-08-10T07:40:31Z</time>
      </trkpt>
      <trkpt lat="49.93837" lon="2.10905">
        <ele>48.7</ele>
        <time>2022-08-10T07:40:32Z</time>
      </trkpt>
      <trkpt lat="49.93839" lon="2.10901">
        <ele>48.5</ele>
        <time>2022-08-10T07:40:34Z</time>
      </trkpt>
      <trkpt lat="49.93839" lon="2.109">
        <ele>48.5</ele>
        <time>2022-08-10T07:40:35Z</time>
      </trkpt>
      <trkpt lat="49.9384" lon="2.10898">
        <ele>48.4</ele>
        <time>2022-08-10T07:40:36Z</time>
      </trkpt>
      <trkpt lat="49.9384" lon="2.10897">
        <ele>48.3</ele>
        <time>2022-08-10T07:40:37Z</time>
      </trkpt>
      <trkpt lat="49.93841" lon="2.10894">
        <ele>48.2</ele>
        <time>2022-08-10T07:40:39Z</time>
      </trkpt>
      <trkpt lat="49.93842" lon="2.10893">
        <ele>48.1</ele>
        <time>2022-08-10T07:40:40Z</time>
      </trkpt>
      <trkpt lat="49.93843" lon="2.10892">
        <ele>48.1</ele>
        <time>2022-08-10T07:40:41Z</time>
      </trkpt>
      <trkpt lat="49.93843" lon="2.1089">
        <ele>48</ele>
        <time>2022-08-10T07:40:42Z</time>
      </trkpt>
      <trkpt lat="49.93844" lon="2.10888">
        <ele>48</ele>
        <time>2022-08-10T07:40:43Z</time>
      </trkpt>
      <trkpt lat="49.93844" lon="2.10886">
        <ele>47.9</ele>
        <time>2022-08-10T07:40:44Z</time>
      </trkpt>
      <trkpt lat="49.93845" lon="2.10884">
        <ele>47.8</ele>
        <time>2022-08-10T07:40:45Z</time>
      </trkpt>
      <trkpt lat="49.93846" lon="2.10882">
        <ele>47.7</ele>
        <time>2022-08-10T07:40:46Z</time>
      </trkpt>
      <trkpt lat="49.93846" lon="2.10881">
        <ele>47.7</ele>
        <time>2022-08-10T07:40:48Z</time>
      </trkpt>
      <trkpt lat="49.93848" lon="2.10877">
        <ele>47.6</ele>
        <time>2022-08-10T07:40:49Z</time>
      </trkpt>
      <trkpt lat="49.93848" lon="2.10877">
        <ele>47.6</ele>
        <time>2022-08-10T07:40:50Z</time>
      </trkpt>
      <trkpt lat="49.93849" lon="2.10876">
        <ele>47.5</ele>
        <time>2022-08-10T07:40:51Z</time>
      </trkpt>
      <trkpt lat="49.93849" lon="2.10875">
        <ele>47.5</ele>
        <time>2022-08-10T07:40:52Z</time>
      </trkpt>
      <trkpt lat="49.9385" lon="2.10873">
        <ele>47.4</ele>
        <time>2022-08-10T07:40:53Z</time>
      </trkpt>
      <trkpt lat="49.93851" lon="2.10872">
        <ele>47.4</ele>
        <time>2022-08-10T07:40:54Z</time>
      </trkpt>
      <trkpt lat="49.93851" lon="2.10871">
        <ele>47.3</ele>
        <time>2022-08-10T07:40:55Z</time>
      </trkpt>
      <trkpt lat="49.93852" lon="2.10869">
        <ele>47.3</ele>
        <time>2022-08-10T07:40:56Z</time>
      </trkpt>
      <trkpt lat="49.93853" lon="2.10868">
        <ele>47.2</ele>
        <time>2022-08-10T07:40:57Z</time>
      </trkpt>
      <trkpt lat="49.93854" lon="2.10866">
        <ele>47.1</ele>
        <time>2022-08-10T07:40:59Z</time>
      </trkpt>
      <trkpt lat="49.93855" lon="2.10865">
        <ele>47.1</ele>
        <time>2022-08-10T07:41:00Z</time>
      </trkpt>
      <trkpt lat="49.93855" lon="2.10865">
        <ele>47.1</ele>
        <time>2022-08-10T07:41:01Z</time>
      </trkpt>
      <trkpt lat="49.93856" lon="2.10864">
        <ele>47.1</ele>
        <time>2022-08-10T07:41:02Z</time>
      </trkpt>
      <trkpt lat="49.93856" lon="2.10864">
        <ele>47.1</ele>
        <time>2022-08-10T07:41:03Z</time>
      </trkpt>
      <trkpt lat="49.93857" lon="2.10863">
        <ele>47.1</ele>
        <time>2022-08-10T07:41:04Z</time>
      </trkpt>
      <trkpt lat="49.93857" lon="2.10863">
        <ele>47.1</ele>
        <time>2022-08-10T07:41:05Z</time>
      </trkpt>
      <trkpt lat="49.93857" lon="2.10863">
        <ele>47.1</ele>
        <time>2022-08-10T07:41:06Z</time>
      </trkpt>
      <trkpt lat="49.93857" lon="2.10864">
        <ele>47.1</ele>
        <time>2022-08-10T07:41:07Z</time>
      </trkpt>
      <trkpt lat="49.93857" lon="2.10864">
        <ele>47.1</ele>
        <time>2022-08-10T07:41:08Z</time>
      </trkpt>
      <trkpt lat="49.93857" lon="2.10864">
        <ele>47.1</ele>
        <time>2022-08-10T07:41:09Z</time>
      </trkpt>
      <trkpt lat="49.93857" lon="2.10864">
        <ele>47.1</ele>
        <time>2022-08-10T07:41:10Z</time>
      </trkpt>
      <trkpt lat="49.93857" lon="2.10864">
        <ele>47.1</ele>
        <time>2022-08-10T07:41:11Z</time>
      </trkpt>
      <trkpt lat="49.93857" lon="2.10864">
        <ele>47.1</ele>
        <time>2022-08-10T07:41:12Z</time>
      </trkpt>
      <trkpt lat="49.93857" lon="2.10864">
        <ele>47.1</ele>
        <time>2022-08-10T07:41:13Z</time>
      </trkpt>
      <trkpt lat="49.93857" lon="2.10864">
        <ele>47.1</ele>
        <time>2022-08-10T07:41:14Z</time>
      </trkpt>
      <trkpt lat="49.93857" lon="2.10864">
        <ele>47.1</ele>
        <time>2022-08-10T07:41:15Z</time>
      </trkpt>
      <trkpt lat="49.93857" lon="2.10864">
        <ele>47.1</ele>
        <time>2022-08-10T07:41:16Z</time>
      </trkpt>
      <trkpt lat="49.93857" lon="2.10864">
        <ele>47.1</ele>
        <time>2022-08-10T07:41:17Z</time>
      </trkpt>
      <trkpt lat="49.93857" lon="2.10864">
        <ele>47</ele>
        <time>2022-08-10T07:41:18Z</time>
      </trkpt>
      <trkpt lat="49.93857" lon="2.10864">
        <ele>47</ele>
        <time>2022-08-10T07:41:19Z</time>
      </trkpt>
      <trkpt lat="49.93856" lon="2.10865">
        <ele>47</ele>
        <time>2022-08-10T07:41:20Z</time>
      </trkpt>
      <trkpt lat="49.93856" lon="2.10865">
        <ele>47</ele>
        <time>2022-08-10T07:41:21Z</time>
      </trkpt>
      <trkpt lat="49.93856" lon="2.10866">
        <ele>47</ele>
        <time>2022-08-10T07:41:22Z</time>
      </trkpt>
      <trkpt lat="49.93855" lon="2.10866">
        <ele>47</ele>
        <time>2022-08-10T07:41:23Z</time>
      </trkpt>
      <trkpt lat="49.93855" lon="2.10866">
        <ele>47</ele>
        <time>2022-08-10T07:41:24Z</time>
      </trkpt>
      <trkpt lat="49.93856" lon="2.10864">
        <ele>47</ele>
        <time>2022-08-10T07:41:25Z</time>
      </trkpt>
      <trkpt lat="49.93856" lon="2.10863">
        <ele>47</ele>
        <time>2022-08-10T07:41:26Z</time>
      </trkpt>
      <trkpt lat="49.93856" lon="2.10862">
        <ele>47</ele>
        <time>2022-08-10T07:41:27Z</time>
      </trkpt>
      <trkpt lat="49.93856" lon="2.10861">
        <ele>47</ele>
        <time>2022-08-10T07:41:29Z</time>
      </trkpt>
      <trkpt lat="49.93855" lon="2.1086">
        <ele>47</ele>
        <time>2022-08-10T07:41:30Z</time>
      </trkpt>
      <trkpt lat="49.93855" lon="2.10859">
        <ele>47</ele>
        <time>2022-08-10T07:41:31Z</time>
      </trkpt>
      <trkpt lat="49.93855" lon="2.10858">
        <ele>47</ele>
        <time>2022-08-10T07:41:32Z</time>
      </trkpt>
      <trkpt lat="49.93855" lon="2.10856">
        <ele>47</ele>
        <time>2022-08-10T07:41:34Z</time>
      </trkpt>
      <trkpt lat="49.93855" lon="2.10855">
        <ele>47</ele>
        <time>2022-08-10T07:41:35Z</time>
      </trkpt>
      <trkpt lat="49.93855" lon="2.10853">
        <ele>47</ele>
        <time>2022-08-10T07:41:36Z</time>
      </trkpt>
      <trkpt lat="49.93855" lon="2.10851">
        <ele>47</ele>
        <time>2022-08-10T07:41:37Z</time>
      </trkpt>
      <trkpt lat="49.93855" lon="2.1085">
        <ele>47</ele>
        <time>2022-08-10T07:41:39Z</time>
      </trkpt>
      <trkpt lat="49.93855" lon="2.10848">
        <ele>47</ele>
        <time>2022-08-10T07:41:40Z</time>
      </trkpt>
      <trkpt lat="49.93856" lon="2.10846">
        <ele>47</ele>
        <time>2022-08-10T07:41:42Z</time>
      </trkpt>
      <trkpt lat="49.93856" lon="2.10845">
        <ele>47</ele>
        <time>2022-08-10T07:41:43Z</time>
      </trkpt>
      <trkpt lat="49.93857" lon="2.10844">
        <ele>47</ele>
        <time>2022-08-10T07:41:44Z</time>
      </trkpt>
      <trkpt lat="49.93858" lon="2.10843">
        <ele>47</ele>
        <time>2022-08-10T07:41:45Z</time>
      </trkpt>
      <trkpt lat="49.93858" lon="2.10843">
        <ele>47</ele>
        <time>2022-08-10T07:41:46Z</time>
      </trkpt>
      <trkpt lat="49.93858" lon="2.10842">
        <ele>47</ele>
        <time>2022-08-10T07:41:47Z</time>
      </trkpt>
      <trkpt lat="49.93858" lon="2.10841">
        <ele>47</ele>
        <time>2022-08-10T07:41:48Z</time>
      </trkpt>
      <trkpt lat="49.93858" lon="2.10841">
        <ele>47</ele>
        <time>2022-08-10T07:41:49Z</time>
      </trkpt>
      <trkpt lat="49.93859" lon="2.1084">
        <ele>47</ele>
        <time>2022-08-10T07:41:50Z</time>
      </trkpt>
      <trkpt lat="49.93859" lon="2.1084">
        <ele>47</ele>
        <time>2022-08-10T07:41:51Z</time>
      </trkpt>
      <trkpt lat="49.93859" lon="2.10839">
        <ele>47</ele>
        <time>2022-08-10T07:41:52Z</time>
      </trkpt>
      <trkpt lat="49.93859" lon="2.10839">
        <ele>47</ele>
        <time>2022-08-10T07:41:53Z</time>
      </trkpt>
      <trkpt lat="49.93859" lon="2.10838">
        <ele>47</ele>
        <time>2022-08-10T07:41:54Z</time>
      </trkpt>
      <trkpt lat="49.93859" lon="2.10838">
        <ele>47</ele>
        <time>2022-08-10T07:41:55Z</time>
      </trkpt>
      <trkpt lat="49.9386" lon="2.10837">
        <ele>47</ele>
        <time>2022-08-10T07:41:56Z</time>
      </trkpt>
      <trkpt lat="49.9386" lon="2.10836">
        <ele>47</ele>
        <time>2022-08-10T07:41:58Z</time>
      </trkpt>
      <trkpt lat="49.9386" lon="2.10836">
        <ele>47</ele>
        <time>2022-08-10T07:41:59Z</time>
      </trkpt>
      <trkpt lat="49.9386" lon="2.10835">
        <ele>47</ele>
        <time>2022-08-10T07:42:00Z</time>
      </trkpt>
      <trkpt lat="49.9386" lon="2.10835">
        <ele>47</ele>
        <time>2022-08-10T07:42:01Z</time>
      </trkpt>
      <trkpt lat="49.9386" lon="2.10834">
        <ele>47</ele>
        <time>2022-08-10T07:42:03Z</time>
      </trkpt>
      <trkpt lat="49.9386" lon="2.10834">
        <ele>47</ele>
        <time>2022-08-10T07:42:04Z</time>
      </trkpt>
      <trkpt lat="49.93861" lon="2.10833">
        <ele>47</ele>
        <time>2022-08-10T07:42:05Z</time>
      </trkpt>
      <trkpt lat="49.93861" lon="2.10833">
        <ele>47</ele>
        <time>2022-08-10T07:42:06Z</time>
      </trkpt>
      <trkpt lat="49.93862" lon="2.1083">
        <ele>47</ele>
        <time>2022-08-10T07:42:08Z</time>
      </trkpt>
      <trkpt lat="49.93862" lon="2.10828">
        <ele>47</ele>
        <time>2022-08-10T07:42:09Z</time>
      </trkpt>
      <trkpt lat="49.93862" lon="2.10827">
        <ele>47</ele>
        <time>2022-08-10T07:42:10Z</time>
      </trkpt>
      <trkpt lat="49.93863" lon="2.10826">
        <ele>47</ele>
        <time>2022-08-10T07:42:11Z</time>
      </trkpt>
      <trkpt lat="49.93863" lon="2.10824">
        <ele>47</ele>
        <time>2022-08-10T07:42:13Z</time>
      </trkpt>
      <trkpt lat="49.93863" lon="2.10823">
        <ele>47</ele>
        <time>2022-08-10T07:42:14Z</time>
      </trkpt>
      <trkpt lat="49.93864" lon="2.10821">
        <ele>47</ele>
        <time>2022-08-10T07:42:15Z</time>
      </trkpt>
      <trkpt lat="49.93864" lon="2.1082">
        <ele>47</ele>
        <time>2022-08-10T07:42:16Z</time>
      </trkpt>
      <trkpt lat="49.93865" lon="2.10818">
        <ele>47.1</ele>
        <time>2022-08-10T07:42:17Z</time>
      </trkpt>
      <trkpt lat="49.93865" lon="2.10817">
        <ele>47.1</ele>
        <time>2022-08-10T07:42:18Z</time>
      </trkpt>
      <trkpt lat="49.93865" lon="2.10815">
        <ele>47.1</ele>
        <time>2022-08-10T07:42:19Z</time>
      </trkpt>
      <trkpt lat="49.93866" lon="2.10813">
        <ele>47.1</ele>
        <time>2022-08-10T07:42:20Z</time>
      </trkpt>
      <trkpt lat="49.93867" lon="2.10812">
        <ele>47.1</ele>
        <time>2022-08-10T07:42:21Z</time>
      </trkpt>
      <trkpt lat="49.93867" lon="2.10811">
        <ele>47.1</ele>
        <time>2022-08-10T07:42:22Z</time>
      </trkpt>
      <trkpt lat="49.93868" lon="2.10809">
        <ele>47.1</ele>
        <time>2022-08-10T07:42:23Z</time>
      </trkpt>
      <trkpt lat="49.93869" lon="2.10808">
        <ele>47.1</ele>
        <time>2022-08-10T07:42:24Z</time>
      </trkpt>
      <trkpt lat="49.9387" lon="2.10806">
        <ele>47.1</ele>
        <time>2022-08-10T07:42:25Z</time>
      </trkpt>
      <trkpt lat="49.9387" lon="2.10805">
        <ele>47.1</ele>
        <time>2022-08-10T07:42:27Z</time>
      </trkpt>
      <trkpt lat="49.93871" lon="2.10804">
        <ele>47.2</ele>
        <time>2022-08-10T07:42:28Z</time>
      </trkpt>
      <trkpt lat="49.93872" lon="2.10802">
        <ele>47.2</ele>
        <time>2022-08-10T07:42:29Z</time>
      </trkpt>
      <trkpt lat="49.93873" lon="2.10801">
        <ele>47.2</ele>
        <time>2022-08-10T07:42:30Z</time>
      </trkpt>
      <trkpt lat="49.93873" lon="2.108">
        <ele>47.2</ele>
        <time>2022-08-10T07:42:31Z</time>
      </trkpt>
      <trkpt lat="49.93874" lon="2.10798">
        <ele>47.2</ele>
        <time>2022-08-10T07:42:32Z</time>
      </trkpt>
      <trkpt lat="49.93875" lon="2.10795">
        <ele>47.2</ele>
        <time>2022-08-10T07:42:33Z</time>
      </trkpt>
      <trkpt lat="49.93875" lon="2.10794">
        <ele>47.2</ele>
        <time>2022-08-10T07:42:34Z</time>
      </trkpt>
      <trkpt lat="49.93876" lon="2.10793">
        <ele>47.2</ele>
        <time>2022-08-10T07:42:35Z</time>
      </trkpt>
      <trkpt lat="49.93877" lon="2.10791">
        <ele>47.3</ele>
        <time>2022-08-10T07:42:37Z</time>
      </trkpt>
      <trkpt lat="49.93878" lon="2.1079">
        <ele>47.3</ele>
        <time>2022-08-10T07:42:38Z</time>
      </trkpt>
      <trkpt lat="49.93878" lon="2.10789">
        <ele>47.3</ele>
        <time>2022-08-10T07:42:39Z</time>
      </trkpt>
      <trkpt lat="49.93879" lon="2.10787">
        <ele>47.3</ele>
        <time>2022-08-10T07:42:40Z</time>
      </trkpt>
      <trkpt lat="49.9388" lon="2.10786">
        <ele>47.3</ele>
        <time>2022-08-10T07:42:41Z</time>
      </trkpt>
      <trkpt lat="49.93881" lon="2.10785">
        <ele>47.3</ele>
        <time>2022-08-10T07:42:42Z</time>
      </trkpt>
      <trkpt lat="49.93881" lon="2.10783">
        <ele>47.3</ele>
        <time>2022-08-10T07:42:44Z</time>
      </trkpt>
      <trkpt lat="49.93882" lon="2.1078">
        <ele>47.3</ele>
        <time>2022-08-10T07:42:45Z</time>
      </trkpt>
      <trkpt lat="49.93882" lon="2.10779">
        <ele>47.4</ele>
        <time>2022-08-10T07:42:46Z</time>
      </trkpt>
      <trkpt lat="49.93883" lon="2.10778">
        <ele>47.4</ele>
        <time>2022-08-10T07:42:47Z</time>
      </trkpt>
      <trkpt lat="49.93883" lon="2.10776">
        <ele>47.4</ele>
        <time>2022-08-10T07:42:48Z</time>
      </trkpt>
      <trkpt lat="49.93883" lon="2.10775">
        <ele>47.4</ele>
        <time>2022-08-10T07:42:49Z</time>
      </trkpt>
      <trkpt lat="49.93884" lon="2.10772">
        <ele>47.4</ele>
        <time>2022-08-10T07:42:50Z</time>
      </trkpt>
      <trkpt lat="49.93884" lon="2.1077">
        <ele>47.4</ele>
        <time>2022-08-10T07:42:51Z</time>
      </trkpt>
      <trkpt lat="49.93885" lon="2.10769">
        <ele>47.4</ele>
        <time>2022-08-10T07:42:52Z</time>
      </trkpt>
      <trkpt lat="49.93886" lon="2.10766">
        <ele>47.4</ele>
        <time>2022-08-10T07:42:54Z</time>
      </trkpt>
      <trkpt lat="49.93886" lon="2.10764">
        <ele>47.4</ele>
        <time>2022-08-10T07:42:55Z</time>
      </trkpt>
      <trkpt lat="49.93887" lon="2.10763">
        <ele>47.4</ele>
        <time>2022-08-10T07:42:56Z</time>
      </trkpt>
      <trkpt lat="49.93887" lon="2.10761">
        <ele>47.4</ele>
        <time>2022-08-10T07:42:57Z</time>
      </trkpt>
      <trkpt lat="49.93888" lon="2.10759">
        <ele>47.3</ele>
        <time>2022-08-10T07:42:58Z</time>
      </trkpt>
      <trkpt lat="49.93889" lon="2.10757">
        <ele>47.3</ele>
        <time>2022-08-10T07:42:59Z</time>
      </trkpt>
      <trkpt lat="49.93889" lon="2.10756">
        <ele>47.3</ele>
        <time>2022-08-10T07:43:00Z</time>
      </trkpt>
      <trkpt lat="49.9389" lon="2.10755">
        <ele>47.3</ele>
        <time>2022-08-10T07:43:01Z</time>
      </trkpt>
      <trkpt lat="49.93891" lon="2.10753">
        <ele>47.2</ele>
        <time>2022-08-10T07:43:03Z</time>
      </trkpt>
      <trkpt lat="49.93891" lon="2.10752">
        <ele>47.2</ele>
        <time>2022-08-10T07:43:04Z</time>
      </trkpt>
      <trkpt lat="49.93893" lon="2.1075">
        <ele>47.2</ele>
        <time>2022-08-10T07:43:05Z</time>
      </trkpt>
      <trkpt lat="49.93893" lon="2.10749">
        <ele>47.2</ele>
        <time>2022-08-10T07:43:06Z</time>
      </trkpt>
      <trkpt lat="49.93894" lon="2.10748">
        <ele>47.2</ele>
        <time>2022-08-10T07:43:07Z</time>
      </trkpt>
      <trkpt lat="49.93895" lon="2.10746">
        <ele>47.1</ele>
        <time>2022-08-10T07:43:08Z</time>
      </trkpt>
      <trkpt lat="49.93896" lon="2.10744">
        <ele>47.1</ele>
        <time>2022-08-10T07:43:09Z</time>
      </trkpt>
      <trkpt lat="49.93896" lon="2.10743">
        <ele>47.1</ele>
        <time>2022-08-10T07:43:10Z</time>
      </trkpt>
      <trkpt lat="49.93897" lon="2.10742">
        <ele>47.1</ele>
        <time>2022-08-10T07:43:12Z</time>
      </trkpt>
      <trkpt lat="49.93898" lon="2.1074">
        <ele>47.1</ele>
        <time>2022-08-10T07:43:13Z</time>
      </trkpt>
      <trkpt lat="49.93898" lon="2.10739">
        <ele>47.1</ele>
        <time>2022-08-10T07:43:14Z</time>
      </trkpt>
      <trkpt lat="49.93899" lon="2.10737">
        <ele>47.1</ele>
        <time>2022-08-10T07:43:15Z</time>
      </trkpt>
      <trkpt lat="49.93899" lon="2.10736">
        <ele>47.1</ele>
        <time>2022-08-10T07:43:16Z</time>
      </trkpt>
      <trkpt lat="49.939" lon="2.10734">
        <ele>47.1</ele>
        <time>2022-08-10T07:43:17Z</time>
      </trkpt>
      <trkpt lat="49.939" lon="2.10733">
        <ele>47.1</ele>
        <time>2022-08-10T07:43:18Z</time>
      </trkpt>
      <trkpt lat="49.93901" lon="2.10731">
        <ele>47.1</ele>
        <time>2022-08-10T07:43:19Z</time>
      </trkpt>
      <trkpt lat="49.93902" lon="2.10729">
        <ele>47</ele>
        <time>2022-08-10T07:43:21Z</time>
      </trkpt>
      <trkpt lat="49.93902" lon="2.10728">
        <ele>47</ele>
        <time>2022-08-10T07:43:22Z</time>
      </trkpt>
      <trkpt lat="49.93903" lon="2.10726">
        <ele>47</ele>
        <time>2022-08-10T07:43:23Z</time>
      </trkpt>
      <trkpt lat="49.93903" lon="2.10725">
        <ele>47</ele>
        <time>2022-08-10T07:43:24Z</time>
      </trkpt>
      <trkpt lat="49.93904" lon="2.10722">
        <ele>47</ele>
        <time>2022-08-10T07:43:25Z</time>
      </trkpt>
      <trkpt lat="49.93905" lon="2.10721">
        <ele>47</ele>
        <time>2022-08-10T07:43:26Z</time>
      </trkpt>
      <trkpt lat="49.93905" lon="2.1072">
        <ele>47</ele>
        <time>2022-08-10T07:43:27Z</time>
      </trkpt>
      <trkpt lat="49.93907" lon="2.10718">
        <ele>47</ele>
        <time>2022-08-10T07:43:28Z</time>
      </trkpt>
      <trkpt lat="49.93907" lon="2.10717">
        <ele>47</ele>
        <time>2022-08-10T07:43:30Z</time>
      </trkpt>
      <trkpt lat="49.93908" lon="2.10716">
        <ele>47</ele>
        <time>2022-08-10T07:43:31Z</time>
      </trkpt>
      <trkpt lat="49.93908" lon="2.10714">
        <ele>47</ele>
        <time>2022-08-10T07:43:32Z</time>
      </trkpt>
      <trkpt lat="49.93909" lon="2.10713">
        <ele>47</ele>
        <time>2022-08-10T07:43:33Z</time>
      </trkpt>
      <trkpt lat="49.93909" lon="2.10712">
        <ele>47</ele>
        <time>2022-08-10T07:43:34Z</time>
      </trkpt>
      <trkpt lat="49.9391" lon="2.10711">
        <ele>47</ele>
        <time>2022-08-10T07:43:35Z</time>
      </trkpt>
      <trkpt lat="49.9391" lon="2.10709">
        <ele>47</ele>
        <time>2022-08-10T07:43:36Z</time>
      </trkpt>
      <trkpt lat="49.93911" lon="2.10708">
        <ele>47</ele>
        <time>2022-08-10T07:43:37Z</time>
      </trkpt>
      <trkpt lat="49.93912" lon="2.10706">
        <ele>47</ele>
        <time>2022-08-10T07:43:38Z</time>
      </trkpt>
      <trkpt lat="49.93913" lon="2.10703">
        <ele>47</ele>
        <time>2022-08-10T07:43:40Z</time>
      </trkpt>
      <trkpt lat="49.93913" lon="2.10702">
        <ele>47</ele>
        <time>2022-08-10T07:43:41Z</time>
      </trkpt>
      <trkpt lat="49.93914" lon="2.10701">
        <ele>47</ele>
        <time>2022-08-10T07:43:42Z</time>
      </trkpt>
      <trkpt lat="49.93915" lon="2.10699">
        <ele>47</ele>
        <time>2022-08-10T07:43:43Z</time>
      </trkpt>
      <trkpt lat="49.93915" lon="2.10698">
        <ele>47</ele>
        <time>2022-08-10T07:43:44Z</time>
      </trkpt>
      <trkpt lat="49.93916" lon="2.10697">
        <ele>47.1</ele>
        <time>2022-08-10T07:43:45Z</time>
      </trkpt>
      <trkpt lat="49.93917" lon="2.10695">
        <ele>47.1</ele>
        <time>2022-08-10T07:43:46Z</time>
      </trkpt>
      <trkpt lat="49.93917" lon="2.10694">
        <ele>47.1</ele>
        <time>2022-08-10T07:43:47Z</time>
      </trkpt>
      <trkpt lat="49.93918" lon="2.10693">
        <ele>47.1</ele>
        <time>2022-08-10T07:43:49Z</time>
      </trkpt>
      <trkpt lat="49.93919" lon="2.10691">
        <ele>47.1</ele>
        <time>2022-08-10T07:43:50Z</time>
      </trkpt>
      <trkpt lat="49.93919" lon="2.10689">
        <ele>47.1</ele>
        <time>2022-08-10T07:43:51Z</time>
      </trkpt>
      <trkpt lat="49.93919" lon="2.10688">
        <ele>47.1</ele>
        <time>2022-08-10T07:43:52Z</time>
      </trkpt>
      <trkpt lat="49.9392" lon="2.10685">
        <ele>47.1</ele>
        <time>2022-08-10T07:43:53Z</time>
      </trkpt>
      <trkpt lat="49.93921" lon="2.10684">
        <ele>47.2</ele>
        <time>2022-08-10T07:43:54Z</time>
      </trkpt>
      <trkpt lat="49.93921" lon="2.10683">
        <ele>47.2</ele>
        <time>2022-08-10T07:43:55Z</time>
      </trkpt>
      <trkpt lat="49.93922" lon="2.10682">
        <ele>47.2</ele>
        <time>2022-08-10T07:43:56Z</time>
      </trkpt>
      <trkpt lat="49.93922" lon="2.1068">
        <ele>47.2</ele>
        <time>2022-08-10T07:43:58Z</time>
      </trkpt>
      <trkpt lat="49.93923" lon="2.10679">
        <ele>47.2</ele>
        <time>2022-08-10T07:43:59Z</time>
      </trkpt>
      <trkpt lat="49.93923" lon="2.10677">
        <ele>47.2</ele>
        <time>2022-08-10T07:44:00Z</time>
      </trkpt>
      <trkpt lat="49.93924" lon="2.10675">
        <ele>47.2</ele>
        <time>2022-08-10T07:44:01Z</time>
      </trkpt>
      <trkpt lat="49.93925" lon="2.10674">
        <ele>47.2</ele>
        <time>2022-08-10T07:44:02Z</time>
      </trkpt>
      <trkpt lat="49.93926" lon="2.10672">
        <ele>47.3</ele>
        <time>2022-08-10T07:44:03Z</time>
      </trkpt>
      <trkpt lat="49.93927" lon="2.10671">
        <ele>47.3</ele>
        <time>2022-08-10T07:44:05Z</time>
      </trkpt>
      <trkpt lat="49.93927" lon="2.10669">
        <ele>47.3</ele>
        <time>2022-08-10T07:44:06Z</time>
      </trkpt>
      <trkpt lat="49.93929" lon="2.10667">
        <ele>47.4</ele>
        <time>2022-08-10T07:44:07Z</time>
      </trkpt>
      <trkpt lat="49.93929" lon="2.10666">
        <ele>47.4</ele>
        <time>2022-08-10T07:44:08Z</time>
      </trkpt>
      <trkpt lat="49.9393" lon="2.10665">
        <ele>47.4</ele>
        <time>2022-08-10T07:44:09Z</time>
      </trkpt>
      <trkpt lat="49.93931" lon="2.10662">
        <ele>47.4</ele>
        <time>2022-08-10T07:44:10Z</time>
      </trkpt>
      <trkpt lat="49.93931" lon="2.10661">
        <ele>47.4</ele>
        <time>2022-08-10T07:44:11Z</time>
      </trkpt>
      <trkpt lat="49.93932" lon="2.1066">
        <ele>47.5</ele>
        <time>2022-08-10T07:44:12Z</time>
      </trkpt>
      <trkpt lat="49.93933" lon="2.10659">
        <ele>47.5</ele>
        <time>2022-08-10T07:44:14Z</time>
      </trkpt>
      <trkpt lat="49.93933" lon="2.10658">
        <ele>47.5</ele>
        <time>2022-08-10T07:44:15Z</time>
      </trkpt>
      <trkpt lat="49.93935" lon="2.10655">
        <ele>47.6</ele>
        <time>2022-08-10T07:44:16Z</time>
      </trkpt>
      <trkpt lat="49.93936" lon="2.10654">
        <ele>47.6</ele>
        <time>2022-08-10T07:44:17Z</time>
      </trkpt>
      <trkpt lat="49.93936" lon="2.10654">
        <ele>47.6</ele>
        <time>2022-08-10T07:44:18Z</time>
      </trkpt>
      <trkpt lat="49.93937" lon="2.10652">
        <ele>47.7</ele>
        <time>2022-08-10T07:44:19Z</time>
      </trkpt>
      <trkpt lat="49.93938" lon="2.1065">
        <ele>47.7</ele>
        <time>2022-08-10T07:44:20Z</time>
      </trkpt>
      <trkpt lat="49.93939" lon="2.10649">
        <ele>47.7</ele>
        <time>2022-08-10T07:44:22Z</time>
      </trkpt>
      <trkpt lat="49.93939" lon="2.10648">
        <ele>47.8</ele>
        <time>2022-08-10T07:44:23Z</time>
      </trkpt>
      <trkpt lat="49.9394" lon="2.10647">
        <ele>47.8</ele>
        <time>2022-08-10T07:44:24Z</time>
      </trkpt>
      <trkpt lat="49.93941" lon="2.10646">
        <ele>47.8</ele>
        <time>2022-08-10T07:44:25Z</time>
      </trkpt>
      <trkpt lat="49.93942" lon="2.10645">
        <ele>47.9</ele>
        <time>2022-08-10T07:44:26Z</time>
      </trkpt>
      <trkpt lat="49.93943" lon="2.10644">
        <ele>47.9</ele>
        <time>2022-08-10T07:44:27Z</time>
      </trkpt>
      <trkpt lat="49.93944" lon="2.10643">
        <ele>47.9</ele>
        <time>2022-08-10T07:44:28Z</time>
      </trkpt>
      <trkpt lat="49.93944" lon="2.10642">
        <ele>48</ele>
        <time>2022-08-10T07:44:29Z</time>
      </trkpt>
      <trkpt lat="49.93946" lon="2.10641">
        <ele>48</ele>
        <time>2022-08-10T07:44:30Z</time>
      </trkpt>
      <trkpt lat="49.93946" lon="2.1064">
        <ele>48</ele>
        <time>2022-08-10T07:44:32Z</time>
      </trkpt>
      <trkpt lat="49.93947" lon="2.1064">
        <ele>48.1</ele>
        <time>2022-08-10T07:44:33Z</time>
      </trkpt>
      <trkpt lat="49.93948" lon="2.10639">
        <ele>48.1</ele>
        <time>2022-08-10T07:44:34Z</time>
      </trkpt>
      <trkpt lat="49.93948" lon="2.10637">
        <ele>48.1</ele>
        <time>2022-08-10T07:44:35Z</time>
      </trkpt>
      <trkpt lat="49.93949" lon="2.10636">
        <ele>48.2</ele>
        <time>2022-08-10T07:44:36Z</time>
      </trkpt>
      <trkpt lat="49.9395" lon="2.10635">
        <ele>48.2</ele>
        <time>2022-08-10T07:44:37Z</time>
      </trkpt>
      <trkpt lat="49.9395" lon="2.10634">
        <ele>48.3</ele>
        <time>2022-08-10T07:44:38Z</time>
      </trkpt>
      <trkpt lat="49.93951" lon="2.10633">
        <ele>48.3</ele>
        <time>2022-08-10T07:44:40Z</time>
      </trkpt>
      <trkpt lat="49.93952" lon="2.10631">
        <ele>48.4</ele>
        <time>2022-08-10T07:44:41Z</time>
      </trkpt>
      <trkpt lat="49.93953" lon="2.1063">
        <ele>48.4</ele>
        <time>2022-08-10T07:44:42Z</time>
      </trkpt>
      <trkpt lat="49.93954" lon="2.10629">
        <ele>48.4</ele>
        <time>2022-08-10T07:44:43Z</time>
      </trkpt>
      <trkpt lat="49.93954" lon="2.10628">
        <ele>48.5</ele>
        <time>2022-08-10T07:44:44Z</time>
      </trkpt>
      <trkpt lat="49.93956" lon="2.10626">
        <ele>48.5</ele>
        <time>2022-08-10T07:44:46Z</time>
      </trkpt>
      <trkpt lat="49.93956" lon="2.10625">
        <ele>48.6</ele>
        <time>2022-08-10T07:44:47Z</time>
      </trkpt>
      <trkpt lat="49.93957" lon="2.10624">
        <ele>48.6</ele>
        <time>2022-08-10T07:44:48Z</time>
      </trkpt>
      <trkpt lat="49.93958" lon="2.10622">
        <ele>48.7</ele>
        <time>2022-08-10T07:44:49Z</time>
      </trkpt>
      <trkpt lat="49.93959" lon="2.10621">
        <ele>48.7</ele>
        <time>2022-08-10T07:44:50Z</time>
      </trkpt>
      <trkpt lat="49.9396" lon="2.1062">
        <ele>48.8</ele>
        <time>2022-08-10T07:44:51Z</time>
      </trkpt>
      <trkpt lat="49.9396" lon="2.10619">
        <ele>48.8</ele>
        <time>2022-08-10T07:44:52Z</time>
      </trkpt>
      <trkpt lat="49.93961" lon="2.10618">
        <ele>48.9</ele>
        <time>2022-08-10T07:44:53Z</time>
      </trkpt>
      <trkpt lat="49.93962" lon="2.10617">
        <ele>48.9</ele>
        <time>2022-08-10T07:44:54Z</time>
      </trkpt>
      <trkpt lat="49.93962" lon="2.10615">
        <ele>49</ele>
        <time>2022-08-10T07:44:55Z</time>
      </trkpt>
      <trkpt lat="49.93963" lon="2.10613">
        <ele>49</ele>
        <time>2022-08-10T07:44:56Z</time>
      </trkpt>
      <trkpt lat="49.93964" lon="2.10611">
        <ele>49.1</ele>
        <time>2022-08-10T07:44:57Z</time>
      </trkpt>
      <trkpt lat="49.93965" lon="2.10608">
        <ele>49.2</ele>
        <time>2022-08-10T07:44:58Z</time>
      </trkpt>
      <trkpt lat="49.93966" lon="2.10607">
        <ele>49.2</ele>
        <time>2022-08-10T07:45:00Z</time>
      </trkpt>
      <trkpt lat="49.93967" lon="2.10606">
        <ele>49.3</ele>
        <time>2022-08-10T07:45:01Z</time>
      </trkpt>
      <trkpt lat="49.93968" lon="2.10604">
        <ele>49.3</ele>
        <time>2022-08-10T07:45:02Z</time>
      </trkpt>
      <trkpt lat="49.93968" lon="2.10602">
        <ele>49.4</ele>
        <time>2022-08-10T07:45:03Z</time>
      </trkpt>
      <trkpt lat="49.93969" lon="2.10601">
        <ele>49.4</ele>
        <time>2022-08-10T07:45:04Z</time>
      </trkpt>
      <trkpt lat="49.9397" lon="2.10599">
        <ele>49.5</ele>
        <time>2022-08-10T07:45:05Z</time>
      </trkpt>
      <trkpt lat="49.93971" lon="2.10598">
        <ele>49.5</ele>
        <time>2022-08-10T07:45:06Z</time>
      </trkpt>
      <trkpt lat="49.93972" lon="2.10596">
        <ele>49.6</ele>
        <time>2022-08-10T07:45:08Z</time>
      </trkpt>
      <trkpt lat="49.93973" lon="2.10595">
        <ele>49.7</ele>
        <time>2022-08-10T07:45:09Z</time>
      </trkpt>
      <trkpt lat="49.93974" lon="2.10594">
        <ele>49.7</ele>
        <time>2022-08-10T07:45:10Z</time>
      </trkpt>
      <trkpt lat="49.93974" lon="2.10592">
        <ele>49.8</ele>
        <time>2022-08-10T07:45:11Z</time>
      </trkpt>
      <trkpt lat="49.93975" lon="2.10591">
        <ele>49.8</ele>
        <time>2022-08-10T07:45:12Z</time>
      </trkpt>
      <trkpt lat="49.93976" lon="2.10589">
        <ele>49.9</ele>
        <time>2022-08-10T07:45:13Z</time>
      </trkpt>
      <trkpt lat="49.93976" lon="2.10588">
        <ele>49.9</ele>
        <time>2022-08-10T07:45:14Z</time>
      </trkpt>
      <trkpt lat="49.93977" lon="2.10586">
        <ele>50</ele>
        <time>2022-08-10T07:45:16Z</time>
      </trkpt>
      <trkpt lat="49.93978" lon="2.10584">
        <ele>50</ele>
        <time>2022-08-10T07:45:17Z</time>
      </trkpt>
      <trkpt lat="49.93978" lon="2.10583">
        <ele>50.1</ele>
        <time>2022-08-10T07:45:18Z</time>
      </trkpt>
      <trkpt lat="49.93979" lon="2.10581">
        <ele>50.2</ele>
        <time>2022-08-10T07:45:19Z</time>
      </trkpt>
      <trkpt lat="49.9398" lon="2.1058">
        <ele>50.2</ele>
        <time>2022-08-10T07:45:20Z</time>
      </trkpt>
      <trkpt lat="49.9398" lon="2.10578">
        <ele>50.3</ele>
        <time>2022-08-10T07:45:21Z</time>
      </trkpt>
      <trkpt lat="49.93981" lon="2.10577">
        <ele>50.3</ele>
        <time>2022-08-10T07:45:22Z</time>
      </trkpt>
      <trkpt lat="49.93982" lon="2.10576">
        <ele>50.4</ele>
        <time>2022-08-10T07:45:24Z</time>
      </trkpt>
      <trkpt lat="49.93983" lon="2.10574">
        <ele>50.5</ele>
        <time>2022-08-10T07:45:25Z</time>
      </trkpt>
      <trkpt lat="49.93984" lon="2.10572">
        <ele>50.6</ele>
        <time>2022-08-10T07:45:26Z</time>
      </trkpt>
      <trkpt lat="49.93985" lon="2.10571">
        <ele>50.6</ele>
        <time>2022-08-10T07:45:27Z</time>
      </trkpt>
      <trkpt lat="49.93985" lon="2.1057">
        <ele>50.7</ele>
        <time>2022-08-10T07:45:28Z</time>
      </trkpt>
      <trkpt lat="49.93986" lon="2.10569">
        <ele>50.7</ele>
        <time>2022-08-10T07:45:29Z</time>
      </trkpt>
      <trkpt lat="49.93987" lon="2.10567">
        <ele>50.8</ele>
        <time>2022-08-10T07:45:31Z</time>
      </trkpt>
      <trkpt lat="49.93988" lon="2.10566">
        <ele>50.9</ele>
        <time>2022-08-10T07:45:32Z</time>
      </trkpt>
      <trkpt lat="49.93988" lon="2.10564">
        <ele>50.9</ele>
        <time>2022-08-10T07:45:33Z</time>
      </trkpt>
      <trkpt lat="49.93989" lon="2.10563">
        <ele>51</ele>
        <time>2022-08-10T07:45:34Z</time>
      </trkpt>
      <trkpt lat="49.9399" lon="2.10561">
        <ele>51</ele>
        <time>2022-08-10T07:45:35Z</time>
      </trkpt>
      <trkpt lat="49.93991" lon="2.10559">
        <ele>51.1</ele>
        <time>2022-08-10T07:45:36Z</time>
      </trkpt>
      <trkpt lat="49.93992" lon="2.10557">
        <ele>51.2</ele>
        <time>2022-08-10T07:45:37Z</time>
      </trkpt>
      <trkpt lat="49.93993" lon="2.10556">
        <ele>51.3</ele>
        <time>2022-08-10T07:45:38Z</time>
      </trkpt>
      <trkpt lat="49.93993" lon="2.10555">
        <ele>51.3</ele>
        <time>2022-08-10T07:45:40Z</time>
      </trkpt>
      <trkpt lat="49.93994" lon="2.10554">
        <ele>51.4</ele>
        <time>2022-08-10T07:45:41Z</time>
      </trkpt>
      <trkpt lat="49.93995" lon="2.10552">
        <ele>51.5</ele>
        <time>2022-08-10T07:45:42Z</time>
      </trkpt>
      <trkpt lat="49.93995" lon="2.10551">
        <ele>51.5</ele>
        <time>2022-08-10T07:45:43Z</time>
      </trkpt>
      <trkpt lat="49.93997" lon="2.10549">
        <ele>51.6</ele>
        <time>2022-08-10T07:45:44Z</time>
      </trkpt>
      <trkpt lat="49.93997" lon="2.10548">
        <ele>51.7</ele>
        <time>2022-08-10T07:45:45Z</time>
      </trkpt>
      <trkpt lat="49.93998" lon="2.10547">
        <ele>51.7</ele>
        <time>2022-08-10T07:45:46Z</time>
      </trkpt>
      <trkpt lat="49.93999" lon="2.10546">
        <ele>51.8</ele>
        <time>2022-08-10T07:45:48Z</time>
      </trkpt>
      <trkpt lat="49.94" lon="2.10545">
        <ele>51.9</ele>
        <time>2022-08-10T07:45:49Z</time>
      </trkpt>
      <trkpt lat="49.94" lon="2.10544">
        <ele>51.9</ele>
        <time>2022-08-10T07:45:50Z</time>
      </trkpt>
      <trkpt lat="49.94002" lon="2.10541">
        <ele>52.1</ele>
        <time>2022-08-10T07:45:51Z</time>
      </trkpt>
      <trkpt lat="49.94002" lon="2.1054">
        <ele>52.1</ele>
        <time>2022-08-10T07:45:52Z</time>
      </trkpt>
      <trkpt lat="49.94003" lon="2.10539">
        <ele>52.2</ele>
        <time>2022-08-10T07:45:53Z</time>
      </trkpt>
      <trkpt lat="49.94003" lon="2.10538">
        <ele>52.2</ele>
        <time>2022-08-10T07:45:55Z</time>
      </trkpt>
      <trkpt lat="49.94004" lon="2.10536">
        <ele>52.3</ele>
        <time>2022-08-10T07:45:56Z</time>
      </trkpt>
      <trkpt lat="49.94005" lon="2.10536">
        <ele>52.4</ele>
        <time>2022-08-10T07:45:57Z</time>
      </trkpt>
      <trkpt lat="49.94006" lon="2.10535">
        <ele>52.4</ele>
        <time>2022-08-10T07:45:58Z</time>
      </trkpt>
      <trkpt lat="49.94007" lon="2.10534">
        <ele>52.5</ele>
        <time>2022-08-10T07:45:59Z</time>
      </trkpt>
      <trkpt lat="49.94008" lon="2.10532">
        <ele>52.6</ele>
        <time>2022-08-10T07:46:01Z</time>
      </trkpt>
      <trkpt lat="49.94009" lon="2.10531">
        <ele>52.6</ele>
        <time>2022-08-10T07:46:02Z</time>
      </trkpt>
      <trkpt lat="49.9401" lon="2.10531">
        <ele>52.7</ele>
        <time>2022-08-10T07:46:03Z</time>
      </trkpt>
      <trkpt lat="49.94011" lon="2.1053">
        <ele>52.8</ele>
        <time>2022-08-10T07:46:05Z</time>
      </trkpt>
      <trkpt lat="49.94013" lon="2.10529">
        <ele>54.9</ele>
        <time>2022-08-10T07:46:06Z</time>
      </trkpt>
      <trkpt lat="49.94013" lon="2.10528">
        <ele>54.9</ele>
        <time>2022-08-10T07:46:07Z</time>
      </trkpt>
      <trkpt lat="49.94014" lon="2.10528">
        <ele>55</ele>
        <time>2022-08-10T07:46:08Z</time>
      </trkpt>
      <trkpt lat="49.94015" lon="2.10528">
        <ele>55</ele>
        <time>2022-08-10T07:46:09Z</time>
      </trkpt>
      <trkpt lat="49.94016" lon="2.10527">
        <ele>55.1</ele>
        <time>2022-08-10T07:46:10Z</time>
      </trkpt>
      <trkpt lat="49.94017" lon="2.10527">
        <ele>55.2</ele>
        <time>2022-08-10T07:46:11Z</time>
      </trkpt>
      <trkpt lat="49.94018" lon="2.10527">
        <ele>55.2</ele>
        <time>2022-08-10T07:46:12Z</time>
      </trkpt>
      <trkpt lat="49.94019" lon="2.10526">
        <ele>55.3</ele>
        <time>2022-08-10T07:46:13Z</time>
      </trkpt>
      <trkpt lat="49.9402" lon="2.10525">
        <ele>55.4</ele>
        <time>2022-08-10T07:46:14Z</time>
      </trkpt>
      <trkpt lat="49.94021" lon="2.10524">
        <ele>55.5</ele>
        <time>2022-08-10T07:46:16Z</time>
      </trkpt>
      <trkpt lat="49.94022" lon="2.10523">
        <ele>55.5</ele>
        <time>2022-08-10T07:46:17Z</time>
      </trkpt>
      <trkpt lat="49.94022" lon="2.10521">
        <ele>55.6</ele>
        <time>2022-08-10T07:46:18Z</time>
      </trkpt>
      <trkpt lat="49.94023" lon="2.1052">
        <ele>55.7</ele>
        <time>2022-08-10T07:46:20Z</time>
      </trkpt>
      <trkpt lat="49.94024" lon="2.10518">
        <ele>55.8</ele>
        <time>2022-08-10T07:46:21Z</time>
      </trkpt>
      <trkpt lat="49.94025" lon="2.10518">
        <ele>55.8</ele>
        <time>2022-08-10T07:46:23Z</time>
      </trkpt>
      <trkpt lat="49.94026" lon="2.10517">
        <ele>55.9</ele>
        <time>2022-08-10T07:46:24Z</time>
      </trkpt>
      <trkpt lat="49.94026" lon="2.10516">
        <ele>55.9</ele>
        <time>2022-08-10T07:46:25Z</time>
      </trkpt>
      <trkpt lat="49.94026" lon="2.10514">
        <ele>56</ele>
        <time>2022-08-10T07:46:26Z</time>
      </trkpt>
      <trkpt lat="49.94027" lon="2.10511">
        <ele>56.2</ele>
        <time>2022-08-10T07:46:27Z</time>
      </trkpt>
      <trkpt lat="49.94027" lon="2.10509">
        <ele>56.2</ele>
        <time>2022-08-10T07:46:28Z</time>
      </trkpt>
      <trkpt lat="49.94027" lon="2.10507">
        <ele>56.3</ele>
        <time>2022-08-10T07:46:30Z</time>
      </trkpt>
      <trkpt lat="49.94027" lon="2.10505">
        <ele>56.4</ele>
        <time>2022-08-10T07:46:31Z</time>
      </trkpt>
      <trkpt lat="49.94027" lon="2.10503">
        <ele>56.5</ele>
        <time>2022-08-10T07:46:33Z</time>
      </trkpt>
      <trkpt lat="49.94027" lon="2.10502">
        <ele>56.6</ele>
        <time>2022-08-10T07:46:34Z</time>
      </trkpt>
      <trkpt lat="49.94027" lon="2.105">
        <ele>56.6</ele>
        <time>2022-08-10T07:46:35Z</time>
      </trkpt>
      <trkpt lat="49.94027" lon="2.10498">
        <ele>56.7</ele>
        <time>2022-08-10T07:46:36Z</time>
      </trkpt>
      <trkpt lat="49.94027" lon="2.10496">
        <ele>56.8</ele>
        <time>2022-08-10T07:46:37Z</time>
      </trkpt>
      <trkpt lat="49.94027" lon="2.10494">
        <ele>56.9</ele>
        <time>2022-08-10T07:46:38Z</time>
      </trkpt>
      <trkpt lat="49.94027" lon="2.10492">
        <ele>57</ele>
        <time>2022-08-10T07:46:40Z</time>
      </trkpt>
      <trkpt lat="49.94027" lon="2.10489">
        <ele>57.1</ele>
        <time>2022-08-10T07:46:41Z</time>
      </trkpt>
      <trkpt lat="49.94027" lon="2.10488">
        <ele>57.1</ele>
        <time>2022-08-10T07:46:42Z</time>
      </trkpt>
      <trkpt lat="49.94027" lon="2.10487">
        <ele>57.2</ele>
        <time>2022-08-10T07:46:43Z</time>
      </trkpt>
      <trkpt lat="49.94028" lon="2.10483">
        <ele>57.3</ele>
        <time>2022-08-10T07:46:44Z</time>
      </trkpt>
      <trkpt lat="49.94028" lon="2.10482">
        <ele>57.4</ele>
        <time>2022-08-10T07:46:45Z</time>
      </trkpt>
      <trkpt lat="49.94028" lon="2.10481">
        <ele>57.5</ele>
        <time>2022-08-10T07:46:46Z</time>
      </trkpt>
      <trkpt lat="49.94028" lon="2.10479">
        <ele>57.5</ele>
        <time>2022-08-10T07:46:48Z</time>
      </trkpt>
      <trkpt lat="49.94029" lon="2.10477">
        <ele>57.6</ele>
        <time>2022-08-10T07:46:49Z</time>
      </trkpt>
      <trkpt lat="49.94029" lon="2.10476">
        <ele>57.7</ele>
        <time>2022-08-10T07:46:50Z</time>
      </trkpt>
      <trkpt lat="49.9403" lon="2.10473">
        <ele>57.8</ele>
        <time>2022-08-10T07:46:51Z</time>
      </trkpt>
      <trkpt lat="49.9403" lon="2.10472">
        <ele>57.8</ele>
        <time>2022-08-10T07:46:52Z</time>
      </trkpt>
      <trkpt lat="49.9403" lon="2.10471">
        <ele>57.9</ele>
        <time>2022-08-10T07:46:54Z</time>
      </trkpt>
      <trkpt lat="49.9403" lon="2.1047">
        <ele>58</ele>
        <time>2022-08-10T07:46:55Z</time>
      </trkpt>
      <trkpt lat="49.94031" lon="2.10468">
        <ele>58.1</ele>
        <time>2022-08-10T07:46:56Z</time>
      </trkpt>
      <trkpt lat="49.94032" lon="2.10467">
        <ele>58.1</ele>
        <time>2022-08-10T07:46:57Z</time>
      </trkpt>
      <trkpt lat="49.94032" lon="2.10465">
        <ele>58.2</ele>
        <time>2022-08-10T07:46:58Z</time>
      </trkpt>
      <trkpt lat="49.94032" lon="2.10464">
        <ele>58.2</ele>
        <time>2022-08-10T07:47:00Z</time>
      </trkpt>
      <trkpt lat="49.94033" lon="2.10463">
        <ele>58.3</ele>
        <time>2022-08-10T07:47:01Z</time>
      </trkpt>
      <trkpt lat="49.94033" lon="2.10461">
        <ele>58.4</ele>
        <time>2022-08-10T07:47:02Z</time>
      </trkpt>
      <trkpt lat="49.94034" lon="2.10459">
        <ele>58.5</ele>
        <time>2022-08-10T07:47:03Z</time>
      </trkpt>
      <trkpt lat="49.94034" lon="2.10458">
        <ele>58.5</ele>
        <time>2022-08-10T07:47:04Z</time>
      </trkpt>
      <trkpt lat="49.94035" lon="2.10457">
        <ele>58.6</ele>
        <time>2022-08-10T07:47:05Z</time>
      </trkpt>
      <trkpt lat="49.94035" lon="2.10455">
        <ele>58.7</ele>
        <time>2022-08-10T07:47:06Z</time>
      </trkpt>
      <trkpt lat="49.94036" lon="2.10454">
        <ele>58.8</ele>
        <time>2022-08-10T07:47:08Z</time>
      </trkpt>
      <trkpt lat="49.94036" lon="2.10452">
        <ele>58.8</ele>
        <time>2022-08-10T07:47:09Z</time>
      </trkpt>
      <trkpt lat="49.94037" lon="2.10451">
        <ele>58.9</ele>
        <time>2022-08-10T07:47:10Z</time>
      </trkpt>
      <trkpt lat="49.94037" lon="2.10449">
        <ele>59</ele>
        <time>2022-08-10T07:47:11Z</time>
      </trkpt>
      <trkpt lat="49.94038" lon="2.10447">
        <ele>59.1</ele>
        <time>2022-08-10T07:47:12Z</time>
      </trkpt>
      <trkpt lat="49.94038" lon="2.10446">
        <ele>59.1</ele>
        <time>2022-08-10T07:47:13Z</time>
      </trkpt>
      <trkpt lat="49.94039" lon="2.10444">
        <ele>59.2</ele>
        <time>2022-08-10T07:47:14Z</time>
      </trkpt>
      <trkpt lat="49.94039" lon="2.10443">
        <ele>59.3</ele>
        <time>2022-08-10T07:47:16Z</time>
      </trkpt>
      <trkpt lat="49.9404" lon="2.10441">
        <ele>59.4</ele>
        <time>2022-08-10T07:47:17Z</time>
      </trkpt>
      <trkpt lat="49.9404" lon="2.10439">
        <ele>59.4</ele>
        <time>2022-08-10T07:47:18Z</time>
      </trkpt>
      <trkpt lat="49.94041" lon="2.10436">
        <ele>59.6</ele>
        <time>2022-08-10T07:47:19Z</time>
      </trkpt>
      <trkpt lat="49.94042" lon="2.10435">
        <ele>59.6</ele>
        <time>2022-08-10T07:47:20Z</time>
      </trkpt>
      <trkpt lat="49.94042" lon="2.10434">
        <ele>59.7</ele>
        <time>2022-08-10T07:47:21Z</time>
      </trkpt>
      <trkpt lat="49.94043" lon="2.10432">
        <ele>59.8</ele>
        <time>2022-08-10T07:47:22Z</time>
      </trkpt>
      <trkpt lat="49.94043" lon="2.10431">
        <ele>59.9</ele>
        <time>2022-08-10T07:47:24Z</time>
      </trkpt>
      <trkpt lat="49.94044" lon="2.1043">
        <ele>59.9</ele>
        <time>2022-08-10T07:47:25Z</time>
      </trkpt>
      <trkpt lat="49.94044" lon="2.10429">
        <ele>60</ele>
        <time>2022-08-10T07:47:26Z</time>
      </trkpt>
      <trkpt lat="49.94045" lon="2.10426">
        <ele>60.1</ele>
        <time>2022-08-10T07:47:27Z</time>
      </trkpt>
      <trkpt lat="49.94045" lon="2.10425">
        <ele>60.1</ele>
        <time>2022-08-10T07:47:28Z</time>
      </trkpt>
      <trkpt lat="49.94046" lon="2.10423">
        <ele>60.2</ele>
        <time>2022-08-10T07:47:29Z</time>
      </trkpt>
      <trkpt lat="49.94046" lon="2.10422">
        <ele>60.3</ele>
        <time>2022-08-10T07:47:30Z</time>
      </trkpt>
      <trkpt lat="49.94047" lon="2.1042">
        <ele>60.4</ele>
        <time>2022-08-10T07:47:32Z</time>
      </trkpt>
      <trkpt lat="49.94048" lon="2.10419">
        <ele>60.5</ele>
        <time>2022-08-10T07:47:33Z</time>
      </trkpt>
      <trkpt lat="49.94049" lon="2.10417">
        <ele>60.6</ele>
        <time>2022-08-10T07:47:34Z</time>
      </trkpt>
      <trkpt lat="49.94049" lon="2.10416">
        <ele>60.7</ele>
        <time>2022-08-10T07:47:35Z</time>
      </trkpt>
      <trkpt lat="49.9405" lon="2.10413">
        <ele>60.8</ele>
        <time>2022-08-10T07:47:36Z</time>
      </trkpt>
      <trkpt lat="49.94051" lon="2.10412">
        <ele>60.8</ele>
        <time>2022-08-10T07:47:37Z</time>
      </trkpt>
      <trkpt lat="49.94051" lon="2.10411">
        <ele>60.9</ele>
        <time>2022-08-10T07:47:38Z</time>
      </trkpt>
      <trkpt lat="49.94052" lon="2.1041">
        <ele>61</ele>
        <time>2022-08-10T07:47:40Z</time>
      </trkpt>
      <trkpt lat="49.94052" lon="2.10408">
        <ele>61.1</ele>
        <time>2022-08-10T07:47:41Z</time>
      </trkpt>
      <trkpt lat="49.94053" lon="2.10407">
        <ele>61.1</ele>
        <time>2022-08-10T07:47:42Z</time>
      </trkpt>
      <trkpt lat="49.94054" lon="2.10405">
        <ele>61.2</ele>
        <time>2022-08-10T07:47:43Z</time>
      </trkpt>
      <trkpt lat="49.94054" lon="2.10404">
        <ele>61.3</ele>
        <time>2022-08-10T07:47:44Z</time>
      </trkpt>
      <trkpt lat="49.94055" lon="2.10402">
        <ele>61.4</ele>
        <time>2022-08-10T07:47:45Z</time>
      </trkpt>
      <trkpt lat="49.94056" lon="2.104">
        <ele>61.5</ele>
        <time>2022-08-10T07:47:46Z</time>
      </trkpt>
      <trkpt lat="49.94056" lon="2.10399">
        <ele>61.5</ele>
        <time>2022-08-10T07:47:48Z</time>
      </trkpt>
      <trkpt lat="49.94056" lon="2.10397">
        <ele>61.6</ele>
        <time>2022-08-10T07:47:49Z</time>
      </trkpt>
      <trkpt lat="49.94057" lon="2.10394">
        <ele>61.8</ele>
        <time>2022-08-10T07:47:50Z</time>
      </trkpt>
      <trkpt lat="49.94057" lon="2.10393">
        <ele>61.8</ele>
        <time>2022-08-10T07:47:51Z</time>
      </trkpt>
      <trkpt lat="49.94058" lon="2.10392">
        <ele>61.9</ele>
        <time>2022-08-10T07:47:52Z</time>
      </trkpt>
      <trkpt lat="49.94058" lon="2.1039">
        <ele>62</ele>
        <time>2022-08-10T07:47:53Z</time>
      </trkpt>
      <trkpt lat="49.94059" lon="2.10389">
        <ele>62</ele>
        <time>2022-08-10T07:47:55Z</time>
      </trkpt>
      <trkpt lat="49.94059" lon="2.10387">
        <ele>62.1</ele>
        <time>2022-08-10T07:47:56Z</time>
      </trkpt>
      <trkpt lat="49.9406" lon="2.10385">
        <ele>62.2</ele>
        <time>2022-08-10T07:47:57Z</time>
      </trkpt>
      <trkpt lat="49.9406" lon="2.10384">
        <ele>62.3</ele>
        <time>2022-08-10T07:47:58Z</time>
      </trkpt>
      <trkpt lat="49.9406" lon="2.10382">
        <ele>62.3</ele>
        <time>2022-08-10T07:47:59Z</time>
      </trkpt>
      <trkpt lat="49.94061" lon="2.1038">
        <ele>62.4</ele>
        <time>2022-08-10T07:48:00Z</time>
      </trkpt>
      <trkpt lat="49.94061" lon="2.10378">
        <ele>62.5</ele>
        <time>2022-08-10T07:48:01Z</time>
      </trkpt>
      <trkpt lat="49.94061" lon="2.10377">
        <ele>62.6</ele>
        <time>2022-08-10T07:48:03Z</time>
      </trkpt>
      <trkpt lat="49.94062" lon="2.10375">
        <ele>62.7</ele>
        <time>2022-08-10T07:48:04Z</time>
      </trkpt>
      <trkpt lat="49.94062" lon="2.10373">
        <ele>62.8</ele>
        <time>2022-08-10T07:48:05Z</time>
      </trkpt>
      <trkpt lat="49.94062" lon="2.10371">
        <ele>62.8</ele>
        <time>2022-08-10T07:48:06Z</time>
      </trkpt>
      <trkpt lat="49.94063" lon="2.10369">
        <ele>63</ele>
        <time>2022-08-10T07:48:07Z</time>
      </trkpt>
      <trkpt lat="49.94063" lon="2.10367">
        <ele>63</ele>
        <time>2022-08-10T07:48:08Z</time>
      </trkpt>
      <trkpt lat="49.94063" lon="2.10365">
        <ele>63.1</ele>
        <time>2022-08-10T07:48:09Z</time>
      </trkpt>
      <trkpt lat="49.94064" lon="2.10364">
        <ele>63.2</ele>
        <time>2022-08-10T07:48:11Z</time>
      </trkpt>
      <trkpt lat="49.94064" lon="2.10361">
        <ele>63.3</ele>
        <time>2022-08-10T07:48:12Z</time>
      </trkpt>
      <trkpt lat="49.94065" lon="2.1036">
        <ele>63.4</ele>
        <time>2022-08-10T07:48:13Z</time>
      </trkpt>
      <trkpt lat="49.94065" lon="2.10359">
        <ele>63.4</ele>
        <time>2022-08-10T07:48:14Z</time>
      </trkpt>
      <trkpt lat="49.94065" lon="2.10357">
        <ele>63.5</ele>
        <time>2022-08-10T07:48:15Z</time>
      </trkpt>
      <trkpt lat="49.94066" lon="2.10356">
        <ele>63.6</ele>
        <time>2022-08-10T07:48:16Z</time>
      </trkpt>
      <trkpt lat="49.94066" lon="2.10354">
        <ele>63.6</ele>
        <time>2022-08-10T07:48:17Z</time>
      </trkpt>
      <trkpt lat="49.94066" lon="2.10353">
        <ele>63.7</ele>
        <time>2022-08-10T07:48:18Z</time>
      </trkpt>
      <trkpt lat="49.94067" lon="2.10352">
        <ele>63.8</ele>
        <time>2022-08-10T07:48:19Z</time>
      </trkpt>
      <trkpt lat="49.94067" lon="2.1035">
        <ele>63.9</ele>
        <time>2022-08-10T07:48:20Z</time>
      </trkpt>
      <trkpt lat="49.94068" lon="2.10348">
        <ele>63.9</ele>
        <time>2022-08-10T07:48:21Z</time>
      </trkpt>
      <trkpt lat="49.94069" lon="2.10346">
        <ele>64.1</ele>
        <time>2022-08-10T07:48:22Z</time>
      </trkpt>
      <trkpt lat="49.94069" lon="2.10345">
        <ele>64.1</ele>
        <time>2022-08-10T07:48:24Z</time>
      </trkpt>
      <trkpt lat="49.9407" lon="2.10343">
        <ele>64.2</ele>
        <time>2022-08-10T07:48:25Z</time>
      </trkpt>
      <trkpt lat="49.9407" lon="2.10342">
        <ele>64.3</ele>
        <time>2022-08-10T07:48:26Z</time>
      </trkpt>
      <trkpt lat="49.94071" lon="2.10339">
        <ele>64.4</ele>
        <time>2022-08-10T07:48:27Z</time>
      </trkpt>
      <trkpt lat="49.94072" lon="2.10338">
        <ele>64.5</ele>
        <time>2022-08-10T07:48:28Z</time>
      </trkpt>
      <trkpt lat="49.94073" lon="2.10335">
        <ele>64.6</ele>
        <time>2022-08-10T07:48:29Z</time>
      </trkpt>
      <trkpt lat="49.94073" lon="2.10333">
        <ele>64.7</ele>
        <time>2022-08-10T07:48:31Z</time>
      </trkpt>
      <trkpt lat="49.94074" lon="2.10332">
        <ele>64.8</ele>
        <time>2022-08-10T07:48:32Z</time>
      </trkpt>
      <trkpt lat="49.94074" lon="2.10331">
        <ele>64.8</ele>
        <time>2022-08-10T07:48:33Z</time>
      </trkpt>
      <trkpt lat="49.94075" lon="2.1033">
        <ele>64.9</ele>
        <time>2022-08-10T07:48:34Z</time>
      </trkpt>
      <trkpt lat="49.94076" lon="2.10328">
        <ele>65</ele>
        <time>2022-08-10T07:48:35Z</time>
      </trkpt>
      <trkpt lat="49.94076" lon="2.10327">
        <ele>65</ele>
        <time>2022-08-10T07:48:36Z</time>
      </trkpt>
      <trkpt lat="49.94077" lon="2.10325">
        <ele>65.1</ele>
        <time>2022-08-10T07:48:37Z</time>
      </trkpt>
      <trkpt lat="49.94078" lon="2.10324">
        <ele>65.2</ele>
        <time>2022-08-10T07:48:38Z</time>
      </trkpt>
      <trkpt lat="49.94078" lon="2.10323">
        <ele>65.2</ele>
        <time>2022-08-10T07:48:39Z</time>
      </trkpt>
      <trkpt lat="49.94079" lon="2.10321">
        <ele>65.3</ele>
        <time>2022-08-10T07:48:40Z</time>
      </trkpt>
      <trkpt lat="49.9408" lon="2.1032">
        <ele>65.4</ele>
        <time>2022-08-10T07:48:41Z</time>
      </trkpt>
      <trkpt lat="49.94081" lon="2.10318">
        <ele>65.5</ele>
        <time>2022-08-10T07:48:42Z</time>
      </trkpt>
      <trkpt lat="49.94081" lon="2.10316">
        <ele>65.6</ele>
        <time>2022-08-10T07:48:43Z</time>
      </trkpt>
      <trkpt lat="49.94082" lon="2.10315">
        <ele>65.7</ele>
        <time>2022-08-10T07:48:45Z</time>
      </trkpt>
      <trkpt lat="49.94082" lon="2.10314">
        <ele>65.7</ele>
        <time>2022-08-10T07:48:46Z</time>
      </trkpt>
      <trkpt lat="49.94083" lon="2.10311">
        <ele>65.8</ele>
        <time>2022-08-10T07:48:47Z</time>
      </trkpt>
      <trkpt lat="49.94084" lon="2.1031">
        <ele>65.9</ele>
        <time>2022-08-10T07:48:48Z</time>
      </trkpt>
      <trkpt lat="49.94084" lon="2.10309">
        <ele>66</ele>
        <time>2022-08-10T07:48:49Z</time>
      </trkpt>
      <trkpt lat="49.94085" lon="2.10308">
        <ele>66</ele>
        <time>2022-08-10T07:48:50Z</time>
      </trkpt>
      <trkpt lat="49.94085" lon="2.10306">
        <ele>66.1</ele>
        <time>2022-08-10T07:48:51Z</time>
      </trkpt>
      <trkpt lat="49.94086" lon="2.10304">
        <ele>66.2</ele>
        <time>2022-08-10T07:48:53Z</time>
      </trkpt>
      <trkpt lat="49.94086" lon="2.10303">
        <ele>66.3</ele>
        <time>2022-08-10T07:48:54Z</time>
      </trkpt>
      <trkpt lat="49.94087" lon="2.10302">
        <ele>66.3</ele>
        <time>2022-08-10T07:48:55Z</time>
      </trkpt>
      <trkpt lat="49.94088" lon="2.10301">
        <ele>66.4</ele>
        <time>2022-08-10T07:48:56Z</time>
      </trkpt>
      <trkpt lat="49.94089" lon="2.10299">
        <ele>66.5</ele>
        <time>2022-08-10T07:48:57Z</time>
      </trkpt>
      <trkpt lat="49.94089" lon="2.10298">
        <ele>66.5</ele>
        <time>2022-08-10T07:48:59Z</time>
      </trkpt>
      <trkpt lat="49.9409" lon="2.10297">
        <ele>66.6</ele>
        <time>2022-08-10T07:49:00Z</time>
      </trkpt>
      <trkpt lat="49.9409" lon="2.10295">
        <ele>66.7</ele>
        <time>2022-08-10T07:49:01Z</time>
      </trkpt>
      <trkpt lat="49.94092" lon="2.10292">
        <ele>66.8</ele>
        <time>2022-08-10T07:49:02Z</time>
      </trkpt>
      <trkpt lat="49.94092" lon="2.10291">
        <ele>66.9</ele>
        <time>2022-08-10T07:49:03Z</time>
      </trkpt>
      <trkpt lat="49.94092" lon="2.10291">
        <ele>66.9</ele>
        <time>2022-08-10T07:49:04Z</time>
      </trkpt>
      <trkpt lat="49.94093" lon="2.10289">
        <ele>67</ele>
        <time>2022-08-10T07:49:05Z</time>
      </trkpt>
      <trkpt lat="49.94094" lon="2.10287">
        <ele>67.1</ele>
        <time>2022-08-10T07:49:07Z</time>
      </trkpt>
      <trkpt lat="49.94094" lon="2.10286">
        <ele>67.1</ele>
        <time>2022-08-10T07:49:08Z</time>
      </trkpt>
      <trkpt lat="49.94095" lon="2.10284">
        <ele>67.2</ele>
        <time>2022-08-10T07:49:09Z</time>
      </trkpt>
      <trkpt lat="49.94096" lon="2.10282">
        <ele>67.3</ele>
        <time>2022-08-10T07:49:11Z</time>
      </trkpt>
      <trkpt lat="49.94096" lon="2.1028">
        <ele>67.4</ele>
        <time>2022-08-10T07:49:12Z</time>
      </trkpt>
      <trkpt lat="49.94097" lon="2.10279">
        <ele>67.5</ele>
        <time>2022-08-10T07:49:13Z</time>
      </trkpt>
      <trkpt lat="49.94097" lon="2.10278">
        <ele>67.5</ele>
        <time>2022-08-10T07:49:14Z</time>
      </trkpt>
      <trkpt lat="49.94097" lon="2.10277">
        <ele>67.6</ele>
        <time>2022-08-10T07:49:15Z</time>
      </trkpt>
      <trkpt lat="49.94098" lon="2.10275">
        <ele>67.6</ele>
        <time>2022-08-10T07:49:16Z</time>
      </trkpt>
      <trkpt lat="49.94099" lon="2.10273">
        <ele>67.7</ele>
        <time>2022-08-10T07:49:17Z</time>
      </trkpt>
      <trkpt lat="49.94099" lon="2.10272">
        <ele>67.8</ele>
        <time>2022-08-10T07:49:18Z</time>
      </trkpt>
      <trkpt lat="49.941" lon="2.1027">
        <ele>67.9</ele>
        <time>2022-08-10T07:49:20Z</time>
      </trkpt>
      <trkpt lat="49.94101" lon="2.10267">
        <ele>68.1</ele>
        <time>2022-08-10T07:49:22Z</time>
      </trkpt>
      <trkpt lat="49.94101" lon="2.10266">
        <ele>68.1</ele>
        <time>2022-08-10T07:49:23Z</time>
      </trkpt>
      <trkpt lat="49.94102" lon="2.10264">
        <ele>68.2</ele>
        <time>2022-08-10T07:49:24Z</time>
      </trkpt>
      <trkpt lat="49.94102" lon="2.10263">
        <ele>68.3</ele>
        <time>2022-08-10T07:49:25Z</time>
      </trkpt>
      <trkpt lat="49.94103" lon="2.10261">
        <ele>68.4</ele>
        <time>2022-08-10T07:49:26Z</time>
      </trkpt>
      <trkpt lat="49.94103" lon="2.10259">
        <ele>68.4</ele>
        <time>2022-08-10T07:49:28Z</time>
      </trkpt>
      <trkpt lat="49.94104" lon="2.10258">
        <ele>68.5</ele>
        <time>2022-08-10T07:49:29Z</time>
      </trkpt>
      <trkpt lat="49.94104" lon="2.10256">
        <ele>68.6</ele>
        <time>2022-08-10T07:49:30Z</time>
      </trkpt>
      <trkpt lat="49.94105" lon="2.10255">
        <ele>68.7</ele>
        <time>2022-08-10T07:49:31Z</time>
      </trkpt>
      <trkpt lat="49.94105" lon="2.10253">
        <ele>68.8</ele>
        <time>2022-08-10T07:49:32Z</time>
      </trkpt>
      <trkpt lat="49.94106" lon="2.10252">
        <ele>68.8</ele>
        <time>2022-08-10T07:49:33Z</time>
      </trkpt>
      <trkpt lat="49.94106" lon="2.1025">
        <ele>68.9</ele>
        <time>2022-08-10T07:49:34Z</time>
      </trkpt>
      <trkpt lat="49.94107" lon="2.10247">
        <ele>69.1</ele>
        <time>2022-08-10T07:49:35Z</time>
      </trkpt>
      <trkpt lat="49.94108" lon="2.10246">
        <ele>69.1</ele>
        <time>2022-08-10T07:49:37Z</time>
      </trkpt>
      <trkpt lat="49.94108" lon="2.10245">
        <ele>69.2</ele>
        <time>2022-08-10T07:49:38Z</time>
      </trkpt>
      <trkpt lat="49.94109" lon="2.10244">
        <ele>69.2</ele>
        <time>2022-08-10T07:49:39Z</time>
      </trkpt>
      <trkpt lat="49.94109" lon="2.10242">
        <ele>69.3</ele>
        <time>2022-08-10T07:49:40Z</time>
      </trkpt>
      <trkpt lat="49.94109" lon="2.1024">
        <ele>69.4</ele>
        <time>2022-08-10T07:49:41Z</time>
      </trkpt>
      <trkpt lat="49.9411" lon="2.10238">
        <ele>69.5</ele>
        <time>2022-08-10T07:49:42Z</time>
      </trkpt>
      <trkpt lat="49.9411" lon="2.10237">
        <ele>69.6</ele>
        <time>2022-08-10T07:49:43Z</time>
      </trkpt>
      <trkpt lat="49.9411" lon="2.10235">
        <ele>69.7</ele>
        <time>2022-08-10T07:49:45Z</time>
      </trkpt>
      <trkpt lat="49.9411" lon="2.10233">
        <ele>69.7</ele>
        <time>2022-08-10T07:49:46Z</time>
      </trkpt>
      <trkpt lat="49.94111" lon="2.10231">
        <ele>69.8</ele>
        <time>2022-08-10T07:49:47Z</time>
      </trkpt>
      <trkpt lat="49.94111" lon="2.1023">
        <ele>69.9</ele>
        <time>2022-08-10T07:49:48Z</time>
      </trkpt>
      <trkpt lat="49.94112" lon="2.10228">
        <ele>70</ele>
        <time>2022-08-10T07:49:49Z</time>
      </trkpt>
      <trkpt lat="49.94112" lon="2.10226">
        <ele>70</ele>
        <time>2022-08-10T07:49:50Z</time>
      </trkpt>
      <trkpt lat="49.94113" lon="2.10223">
        <ele>70.2</ele>
        <time>2022-08-10T07:49:51Z</time>
      </trkpt>
      <trkpt lat="49.94114" lon="2.10222">
        <ele>70.2</ele>
        <time>2022-08-10T07:49:53Z</time>
      </trkpt>
      <trkpt lat="49.94114" lon="2.10221">
        <ele>70.3</ele>
        <time>2022-08-10T07:49:54Z</time>
      </trkpt>
      <trkpt lat="49.94115" lon="2.10218">
        <ele>70.4</ele>
        <time>2022-08-10T07:49:55Z</time>
      </trkpt>
      <trkpt lat="49.94116" lon="2.10217">
        <ele>70.5</ele>
        <time>2022-08-10T07:49:56Z</time>
      </trkpt>
      <trkpt lat="49.94116" lon="2.10216">
        <ele>70.5</ele>
        <time>2022-08-10T07:49:57Z</time>
      </trkpt>
      <trkpt lat="49.94117" lon="2.10214">
        <ele>70.6</ele>
        <time>2022-08-10T07:49:58Z</time>
      </trkpt>
      <trkpt lat="49.94117" lon="2.10213">
        <ele>70.7</ele>
        <time>2022-08-10T07:50:00Z</time>
      </trkpt>
      <trkpt lat="49.94118" lon="2.10211">
        <ele>70.7</ele>
        <time>2022-08-10T07:50:01Z</time>
      </trkpt>
      <trkpt lat="49.94118" lon="2.1021">
        <ele>70.8</ele>
        <time>2022-08-10T07:50:02Z</time>
      </trkpt>
      <trkpt lat="49.94119" lon="2.10209">
        <ele>70.9</ele>
        <time>2022-08-10T07:50:03Z</time>
      </trkpt>
      <trkpt lat="49.94119" lon="2.10208">
        <ele>70.9</ele>
        <time>2022-08-10T07:50:04Z</time>
      </trkpt>
      <trkpt lat="49.9412" lon="2.10207">
        <ele>71</ele>
        <time>2022-08-10T07:50:05Z</time>
      </trkpt>
      <trkpt lat="49.9412" lon="2.10205">
        <ele>71</ele>
        <time>2022-08-10T07:50:06Z</time>
      </trkpt>
      <trkpt lat="49.9412" lon="2.10203">
        <ele>71</ele>
        <time>2022-08-10T07:50:07Z</time>
      </trkpt>
      <trkpt lat="49.94121" lon="2.10201">
        <ele>71</ele>
        <time>2022-08-10T07:50:08Z</time>
      </trkpt>
      <trkpt lat="49.94121" lon="2.102">
        <ele>71</ele>
        <time>2022-08-10T07:50:09Z</time>
      </trkpt>
      <trkpt lat="49.94121" lon="2.10198">
        <ele>71</ele>
        <time>2022-08-10T07:50:10Z</time>
      </trkpt>
      <trkpt lat="49.9412" lon="2.10195">
        <ele>70.9</ele>
        <time>2022-08-10T07:50:11Z</time>
      </trkpt>
      <trkpt lat="49.9412" lon="2.10194">
        <ele>70.9</ele>
        <time>2022-08-10T07:50:12Z</time>
      </trkpt>
      <trkpt lat="49.9412" lon="2.10193">
        <ele>70.9</ele>
        <time>2022-08-10T07:50:13Z</time>
      </trkpt>
      <trkpt lat="49.94119" lon="2.10191">
        <ele>70.9</ele>
        <time>2022-08-10T07:50:15Z</time>
      </trkpt>
      <trkpt lat="49.94118" lon="2.10189">
        <ele>70.9</ele>
        <time>2022-08-10T07:50:16Z</time>
      </trkpt>
      <trkpt lat="49.94118" lon="2.10188">
        <ele>70.9</ele>
        <time>2022-08-10T07:50:17Z</time>
      </trkpt>
      <trkpt lat="49.94117" lon="2.10186">
        <ele>70.9</ele>
        <time>2022-08-10T07:50:18Z</time>
      </trkpt>
      <trkpt lat="49.94116" lon="2.10184">
        <ele>70.8</ele>
        <time>2022-08-10T07:50:20Z</time>
      </trkpt>
      <trkpt lat="49.94116" lon="2.10183">
        <ele>70.8</ele>
        <time>2022-08-10T07:50:21Z</time>
      </trkpt>
      <trkpt lat="49.94116" lon="2.10182">
        <ele>70.8</ele>
        <time>2022-08-10T07:50:22Z</time>
      </trkpt>
      <trkpt lat="49.94115" lon="2.10181">
        <ele>70.8</ele>
        <time>2022-08-10T07:50:23Z</time>
      </trkpt>
      <trkpt lat="49.94114" lon="2.10182">
        <ele>70.8</ele>
        <time>2022-08-10T07:50:25Z</time>
      </trkpt>
      <trkpt lat="49.94114" lon="2.10183">
        <ele>70.8</ele>
        <time>2022-08-10T07:50:26Z</time>
      </trkpt>
      <trkpt lat="49.94115" lon="2.10184">
        <ele>70.8</ele>
        <time>2022-08-10T07:50:27Z</time>
      </trkpt>
      <trkpt lat="49.94115" lon="2.10185">
        <ele>70.8</ele>
        <time>2022-08-10T07:50:28Z</time>
      </trkpt>
      <trkpt lat="49.94115" lon="2.10186">
        <ele>70.8</ele>
        <time>2022-08-10T07:50:29Z</time>
      </trkpt>
      <trkpt lat="49.94115" lon="2.10186">
        <ele>70.8</ele>
        <time>2022-08-10T07:50:30Z</time>
      </trkpt>
      <trkpt lat="49.94115" lon="2.10186">
        <ele>70.8</ele>
        <time>2022-08-10T07:50:31Z</time>
      </trkpt>
      <trkpt lat="49.94116" lon="2.10187">
        <ele>70.9</ele>
        <time>2022-08-10T07:50:32Z</time>
      </trkpt>
      <trkpt lat="49.94116" lon="2.10187">
        <ele>70.9</ele>
        <time>2022-08-10T07:50:33Z</time>
      </trkpt>
      <trkpt lat="49.94116" lon="2.10187">
        <ele>70.9</ele>
        <time>2022-08-10T07:50:34Z</time>
      </trkpt>
      <trkpt lat="49.94116" lon="2.10187">
        <ele>70.9</ele>
        <time>2022-08-10T07:50:35Z</time>
      </trkpt>
      <trkpt lat="49.94116" lon="2.10188">
        <ele>70.9</ele>
        <time>2022-08-10T07:50:36Z</time>
      </trkpt>
      <trkpt lat="49.94117" lon="2.10188">
        <ele>70.9</ele>
        <time>2022-08-10T07:50:37Z</time>
      </trkpt>
      <trkpt lat="49.94117" lon="2.10188">
        <ele>70.9</ele>
        <time>2022-08-10T07:50:38Z</time>
      </trkpt>
      <trkpt lat="49.94117" lon="2.10188">
        <ele>70.9</ele>
        <time>2022-08-10T07:50:39Z</time>
      </trkpt>
      <trkpt lat="49.94117" lon="2.10188">
        <ele>70.9</ele>
        <time>2022-08-10T07:50:40Z</time>
      </trkpt>
      <trkpt lat="49.94118" lon="2.10188">
        <ele>70.9</ele>
        <time>2022-08-10T07:50:41Z</time>
      </trkpt>
      <trkpt lat="49.94118" lon="2.10188">
        <ele>70.9</ele>
        <time>2022-08-10T07:50:42Z</time>
      </trkpt>
      <trkpt lat="49.94118" lon="2.10188">
        <ele>70.9</ele>
        <time>2022-08-10T07:50:43Z</time>
      </trkpt>
      <trkpt lat="49.94119" lon="2.10187">
        <ele>70.9</ele>
        <time>2022-08-10T07:50:44Z</time>
      </trkpt>
      <trkpt lat="49.94119" lon="2.10186">
        <ele>70.9</ele>
        <time>2022-08-10T07:50:45Z</time>
      </trkpt>
      <trkpt lat="49.94119" lon="2.10186">
        <ele>70.9</ele>
        <time>2022-08-10T07:50:46Z</time>
      </trkpt>
      <trkpt lat="49.94119" lon="2.10186">
        <ele>70.9</ele>
        <time>2022-08-10T07:50:47Z</time>
      </trkpt>
      <trkpt lat="49.94119" lon="2.10186">
        <ele>70.9</ele>
        <time>2022-08-10T07:50:48Z</time>
      </trkpt>
      <trkpt lat="49.94119" lon="2.10186">
        <ele>70.9</ele>
        <time>2022-08-10T07:50:49Z</time>
      </trkpt>
      <trkpt lat="49.94119" lon="2.10185">
        <ele>70.9</ele>
        <time>2022-08-10T07:50:50Z</time>
      </trkpt>
      <trkpt lat="49.94119" lon="2.10185">
        <ele>70.9</ele>
        <time>2022-08-10T07:50:51Z</time>
      </trkpt>
      <trkpt lat="49.94119" lon="2.10185">
        <ele>70.9</ele>
        <time>2022-08-10T07:50:52Z</time>
      </trkpt>
      <trkpt lat="49.94119" lon="2.10185">
        <ele>70.9</ele>
        <time>2022-08-10T07:50:53Z</time>
      </trkpt>
      <trkpt lat="49.94119" lon="2.10185">
        <ele>70.9</ele>
        <time>2022-08-10T07:50:54Z</time>
      </trkpt>
      <trkpt lat="49.94119" lon="2.10185">
        <ele>70.9</ele>
        <time>2022-08-10T07:50:55Z</time>
      </trkpt>
      <trkpt lat="49.94119" lon="2.10185">
        <ele>70.9</ele>
        <time>2022-08-10T07:50:56Z</time>
      </trkpt>
      <trkpt lat="49.94119" lon="2.10185">
        <ele>70.9</ele>
        <time>2022-08-10T07:50:57Z</time>
      </trkpt>
      <trkpt lat="49.94119" lon="2.10186">
        <ele>70.9</ele>
        <time>2022-08-10T07:50:58Z</time>
      </trkpt>
      <trkpt lat="49.94119" lon="2.10186">
        <ele>70.9</ele>
        <time>2022-08-10T07:50:59Z</time>
      </trkpt>
      <trkpt lat="49.94118" lon="2.10187">
        <ele>70.9</ele>
        <time>2022-08-10T07:51:00Z</time>
      </trkpt>
      <trkpt lat="49.94118" lon="2.10188">
        <ele>70.9</ele>
        <time>2022-08-10T07:51:01Z</time>
      </trkpt>
      <trkpt lat="49.94118" lon="2.10189">
        <ele>70.9</ele>
        <time>2022-08-10T07:51:02Z</time>
      </trkpt>
      <trkpt lat="49.94118" lon="2.10189">
        <ele>70.9</ele>
        <time>2022-08-10T07:51:03Z</time>
      </trkpt>
      <trkpt lat="49.94118" lon="2.10189">
        <ele>70.9</ele>
        <time>2022-08-10T07:51:04Z</time>
      </trkpt>
      <trkpt lat="49.94118" lon="2.10189">
        <ele>70.9</ele>
        <time>2022-08-10T07:51:05Z</time>
      </trkpt>
      <trkpt lat="49.94118" lon="2.10189">
        <ele>70.9</ele>
        <time>2022-08-10T07:51:06Z</time>
      </trkpt>
      <trkpt lat="49.94118" lon="2.10189">
        <ele>70.9</ele>
        <time>2022-08-10T07:51:07Z</time>
      </trkpt>
      <trkpt lat="49.94118" lon="2.10189">
        <ele>70.9</ele>
        <time>2022-08-10T07:51:08Z</time>
      </trkpt>
      <trkpt lat="49.94118" lon="2.10189">
        <ele>70.9</ele>
        <time>2022-08-10T07:51:09Z</time>
      </trkpt>
      <trkpt lat="49.94118" lon="2.10189">
        <ele>70.9</ele>
        <time>2022-08-10T07:51:10Z</time>
      </trkpt>
      <trkpt lat="49.94118" lon="2.10189">
        <ele>70.9</ele>
        <time>2022-08-10T07:51:11Z</time>
      </trkpt>
      <trkpt lat="49.94118" lon="2.10189">
        <ele>70.9</ele>
        <time>2022-08-10T07:51:12Z</time>
      </trkpt>
      <trkpt lat="49.94118" lon="2.10189">
        <ele>70.9</ele>
        <time>2022-08-10T07:51:13Z</time>
      </trkpt>
      <trkpt lat="49.94118" lon="2.10189">
        <ele>70.9</ele>
        <time>2022-08-10T07:51:14Z</time>
      </trkpt>
      <trkpt lat="49.94118" lon="2.10189">
        <ele>70.9</ele>
        <time>2022-08-10T07:51:15Z</time>
      </trkpt>
      <trkpt lat="49.94118" lon="2.10189">
        <ele>70.9</ele>
        <time>2022-08-10T07:51:16Z</time>
      </trkpt>
      <trkpt lat="49.94118" lon="2.10189">
        <ele>70.9</ele>
        <time>2022-08-10T07:51:17Z</time>
      </trkpt>
      <trkpt lat="49.94118" lon="2.10189">
        <ele>70.9</ele>
        <time>2022-08-10T07:51:18Z</time>
      </trkpt>
      <trkpt lat="49.94118" lon="2.10189">
        <ele>70.9</ele>
        <time>2022-08-10T07:51:19Z</time>
      </trkpt>
      <trkpt lat="49.94118" lon="2.10189">
        <ele>70.9</ele>
        <time>2022-08-10T07:51:20Z</time>
      </trkpt>
      <trkpt lat="49.94118" lon="2.10189">
        <ele>70.9</ele>
        <time>2022-08-10T07:51:21Z</time>
      </trkpt>
      <trkpt lat="49.94118" lon="2.10189">
        <ele>70.9</ele>
        <time>2022-08-10T07:51:22Z</time>
      </trkpt>
      <trkpt lat="49.94118" lon="2.10189">
        <ele>70.9</ele>
        <time>2022-08-10T07:51:23Z</time>
      </trkpt>
      <trkpt lat="49.94118" lon="2.10189">
        <ele>70.9</ele>
        <time>2022-08-10T07:51:24Z</time>
      </trkpt>
      <trkpt lat="49.94118" lon="2.10189">
        <ele>70.9</ele>
        <time>2022-08-10T07:51:25Z</time>
      </trkpt>
      <trkpt lat="49.94118" lon="2.10189">
        <ele>70.9</ele>
        <time>2022-08-10T07:51:26Z</time>
      </trkpt>
      <trkpt lat="49.94118" lon="2.10189">
        <ele>70.9</ele>
        <time>2022-08-10T07:51:27Z</time>
      </trkpt>
      <trkpt lat="49.94118" lon="2.10189">
        <ele>70.9</ele>
        <time>2022-08-10T07:51:28Z</time>
      </trkpt>
      <trkpt lat="49.94118" lon="2.10189">
        <ele>70.9</ele>
        <time>2022-08-10T07:51:29Z</time>
      </trkpt>
      <trkpt lat="49.94118" lon="2.10189">
        <ele>70.9</ele>
        <time>2022-08-10T07:51:30Z</time>
      </trkpt>
      <trkpt lat="49.94118" lon="2.10189">
        <ele>70.9</ele>
        <time>2022-08-10T07:51:31Z</time>
      </trkpt>
      <trkpt lat="49.94118" lon="2.10189">
        <ele>70.9</ele>
        <time>2022-08-10T07:51:32Z</time>
      </trkpt>
      <trkpt lat="49.94118" lon="2.10189">
        <ele>70.9</ele>
        <time>2022-08-10T07:51:33Z</time>
      </trkpt>
      <trkpt lat="49.94118" lon="2.10189">
        <ele>70.9</ele>
        <time>2022-08-10T07:51:34Z</time>
      </trkpt>
      <trkpt lat="49.94118" lon="2.10189">
        <ele>70.9</ele>
        <time>2022-08-10T07:51:35Z</time>
      </trkpt>
      <trkpt lat="49.94118" lon="2.10189">
        <ele>70.9</ele>
        <time>2022-08-10T07:51:36Z</time>
      </trkpt>
      <trkpt lat="49.94118" lon="2.10189">
        <ele>70.9</ele>
        <time>2022-08-10T07:51:37Z</time>
      </trkpt>
      <trkpt lat="49.94118" lon="2.10189">
        <ele>70.9</ele>
        <time>2022-08-10T07:51:38Z</time>
      </trkpt>
      <trkpt lat="49.94118" lon="2.10189">
        <ele>70.9</ele>
        <time>2022-08-10T07:51:39Z</time>
      </trkpt>
      <trkpt lat="49.94118" lon="2.10189">
        <ele>70.9</ele>
        <time>2022-08-10T07:51:40Z</time>
      </trkpt>
      <trkpt lat="49.94118" lon="2.10189">
        <ele>70.9</ele>
        <time>2022-08-10T07:51:41Z</time>
      </trkpt>
      <trkpt lat="49.94118" lon="2.10189">
        <ele>70.9</ele>
        <time>2022-08-10T07:51:42Z</time>
      </trkpt>
      <trkpt lat="49.94118" lon="2.10189">
        <ele>70.9</ele>
        <time>2022-08-10T07:51:43Z</time>
      </trkpt>
      <trkpt lat="49.94118" lon="2.10189">
        <ele>70.9</ele>
        <time>2022-08-10T07:51:44Z</time>
      </trkpt>
      <trkpt lat="49.94118" lon="2.10189">
        <ele>70.9</ele>
        <time>2022-08-10T07:51:45Z</time>
      </trkpt>
      <trkpt lat="49.94118" lon="2.10189">
        <ele>70.9</ele>
        <time>2022-08-10T07:51:46Z</time>
      </trkpt>
      <trkpt lat="49.94118" lon="2.10189">
        <ele>70.9</ele>
        <time>2022-08-10T07:51:47Z</time>
      </trkpt>
      <trkpt lat="49.94118" lon="2.10189">
        <ele>70.9</ele>
        <time>2022-08-10T07:51:48Z</time>
      </trkpt>
      <trkpt lat="49.94118" lon="2.10189">
        <ele>70.9</ele>
        <time>2022-08-10T07:51:49Z</time>
      </trkpt>
      <trkpt lat="49.94118" lon="2.10189">
        <ele>70.9</ele>
        <time>2022-08-10T07:51:50Z</time>
      </trkpt>
      <trkpt lat="49.94118" lon="2.10189">
        <ele>70.9</ele>
        <time>2022-08-10T07:51:51Z</time>
      </trkpt>
      <trkpt lat="49.94118" lon="2.10189">
        <ele>70.9</ele>
        <time>2022-08-10T07:51:52Z</time>
      </trkpt>
      <trkpt lat="49.94118" lon="2.10189">
        <ele>70.9</ele>
        <time>2022-08-10T07:51:53Z</time>
      </trkpt>
      <trkpt lat="49.94118" lon="2.10189">
        <ele>70.9</ele>
        <time>2022-08-10T07:51:54Z</time>
      </trkpt>
      <trkpt lat="49.94118" lon="2.10188">
        <ele>70.9</ele>
        <time>2022-08-10T07:51:55Z</time>
      </trkpt>
      <trkpt lat="49.94118" lon="2.10187">
        <ele>70.9</ele>
        <time>2022-08-10T07:51:56Z</time>
      </trkpt>
      <trkpt lat="49.94117" lon="2.10187">
        <ele>70.9</ele>
        <time>2022-08-10T07:51:57Z</time>
      </trkpt>
      <trkpt lat="49.94116" lon="2.10185">
        <ele>71</ele>
        <time>2022-08-10T07:51:58Z</time>
      </trkpt>
      <trkpt lat="49.94116" lon="2.10184">
        <ele>71</ele>
        <time>2022-08-10T07:51:59Z</time>
      </trkpt>
      <trkpt lat="49.94115" lon="2.10182">
        <ele>71</ele>
        <time>2022-08-10T07:52:00Z</time>
      </trkpt>
      <trkpt lat="49.94115" lon="2.10181">
        <ele>71</ele>
        <time>2022-08-10T07:52:01Z</time>
      </trkpt>
      <trkpt lat="49.94115" lon="2.1018">
        <ele>71</ele>
        <time>2022-08-10T07:52:02Z</time>
      </trkpt>
      <trkpt lat="49.94114" lon="2.10179">
        <ele>71</ele>
        <time>2022-08-10T07:52:03Z</time>
      </trkpt>
      <trkpt lat="49.94114" lon="2.10178">
        <ele>71</ele>
        <time>2022-08-10T07:52:04Z</time>
      </trkpt>
      <trkpt lat="49.94113" lon="2.10176">
        <ele>71</ele>
        <time>2022-08-10T07:52:05Z</time>
      </trkpt>
      <trkpt lat="49.94113" lon="2.10175">
        <ele>71.1</ele>
        <time>2022-08-10T07:52:06Z</time>
      </trkpt>
      <trkpt lat="49.94113" lon="2.10176">
        <ele>71.1</ele>
        <time>2022-08-10T07:52:07Z</time>
      </trkpt>
      <trkpt lat="49.94113" lon="2.10174">
        <ele>71.1</ele>
        <time>2022-08-10T07:52:09Z</time>
      </trkpt>
      <trkpt lat="49.94112" lon="2.10172">
        <ele>71.1</ele>
        <time>2022-08-10T07:52:10Z</time>
      </trkpt>
      <trkpt lat="49.94112" lon="2.10171">
        <ele>71.2</ele>
        <time>2022-08-10T07:52:11Z</time>
      </trkpt>
      <trkpt lat="49.94112" lon="2.10169">
        <ele>71.2</ele>
        <time>2022-08-10T07:52:12Z</time>
      </trkpt>
      <trkpt lat="49.94111" lon="2.10168">
        <ele>71.2</ele>
        <time>2022-08-10T07:52:13Z</time>
      </trkpt>
      <trkpt lat="49.94111" lon="2.10166">
        <ele>71.2</ele>
        <time>2022-08-10T07:52:14Z</time>
      </trkpt>
      <trkpt lat="49.9411" lon="2.10164">
        <ele>71.3</ele>
        <time>2022-08-10T07:52:15Z</time>
      </trkpt>
      <trkpt lat="49.9411" lon="2.10162">
        <ele>71.3</ele>
        <time>2022-08-10T07:52:16Z</time>
      </trkpt>
      <trkpt lat="49.94109" lon="2.1016">
        <ele>71.3</ele>
        <time>2022-08-10T07:52:18Z</time>
      </trkpt>
      <trkpt lat="49.94109" lon="2.10159">
        <ele>71.3</ele>
        <time>2022-08-10T07:52:19Z</time>
      </trkpt>
      <trkpt lat="49.94109" lon="2.1016">
        <ele>71.3</ele>
        <time>2022-08-10T07:52:20Z</time>
      </trkpt>
      <trkpt lat="49.9411" lon="2.10159">
        <ele>71.4</ele>
        <time>2022-08-10T07:52:21Z</time>
      </trkpt>
      <trkpt lat="49.9411" lon="2.10157">
        <ele>71.4</ele>
        <time>2022-08-10T07:52:22Z</time>
      </trkpt>
      <trkpt lat="49.9411" lon="2.10155">
        <ele>71.4</ele>
        <time>2022-08-10T07:52:24Z</time>
      </trkpt>
      <trkpt lat="49.94111" lon="2.10154">
        <ele>71.5</ele>
        <time>2022-08-10T07:52:25Z</time>
      </trkpt>
      <trkpt lat="49.9411" lon="2.10152">
        <ele>71.5</ele>
        <time>2022-08-10T07:52:26Z</time>
      </trkpt>
      <trkpt lat="49.9411" lon="2.10151">
        <ele>71.5</ele>
        <time>2022-08-10T07:52:27Z</time>
      </trkpt>
      <trkpt lat="49.94109" lon="2.10147">
        <ele>71.6</ele>
        <time>2022-08-10T07:52:28Z</time>
      </trkpt>
      <trkpt lat="49.94109" lon="2.10146">
        <ele>71.6</ele>
        <time>2022-08-10T07:52:29Z</time>
      </trkpt>
      <trkpt lat="49.94108" lon="2.10145">
        <ele>71.6</ele>
        <time>2022-08-10T07:52:30Z</time>
      </trkpt>
      <trkpt lat="49.94108" lon="2.10144">
        <ele>71.6</ele>
        <time>2022-08-10T07:52:31Z</time>
      </trkpt>
      <trkpt lat="49.94107" lon="2.10143">
        <ele>71.7</ele>
        <time>2022-08-10T07:52:32Z</time>
      </trkpt>
      <trkpt lat="49.94106" lon="2.10142">
        <ele>71.7</ele>
        <time>2022-08-10T07:52:34Z</time>
      </trkpt>
      <trkpt lat="49.94106" lon="2.1014">
        <ele>71.7</ele>
        <time>2022-08-10T07:52:35Z</time>
      </trkpt>
      <trkpt lat="49.94105" lon="2.10138">
        <ele>71.8</ele>
        <time>2022-08-10T07:52:36Z</time>
      </trkpt>
      <trkpt lat="49.94105" lon="2.10137">
        <ele>71.8</ele>
        <time>2022-08-10T07:52:37Z</time>
      </trkpt>
      <trkpt lat="49.94104" lon="2.10135">
        <ele>71.8</ele>
        <time>2022-08-10T07:52:38Z</time>
      </trkpt>
      <trkpt lat="49.94104" lon="2.10133">
        <ele>71.9</ele>
        <time>2022-08-10T07:52:39Z</time>
      </trkpt>
      <trkpt lat="49.94103" lon="2.10131">
        <ele>71.9</ele>
        <time>2022-08-10T07:52:41Z</time>
      </trkpt>
      <trkpt lat="49.94103" lon="2.1013">
        <ele>71.9</ele>
        <time>2022-08-10T07:52:42Z</time>
      </trkpt>
      <trkpt lat="49.94103" lon="2.10129">
        <ele>72</ele>
        <time>2022-08-10T07:52:43Z</time>
      </trkpt>
      <trkpt lat="49.94102" lon="2.10128">
        <ele>72</ele>
        <time>2022-08-10T07:52:44Z</time>
      </trkpt>
      <trkpt lat="49.94102" lon="2.10126">
        <ele>72</ele>
        <time>2022-08-10T07:52:46Z</time>
      </trkpt>
      <trkpt lat="49.94102" lon="2.10127">
        <ele>72</ele>
        <time>2022-08-10T07:52:47Z</time>
      </trkpt>
      <trkpt lat="49.94101" lon="2.10125">
        <ele>72</ele>
        <time>2022-08-10T07:52:48Z</time>
      </trkpt>
      <trkpt lat="49.94101" lon="2.10124">
        <ele>72.1</ele>
        <time>2022-08-10T07:52:49Z</time>
      </trkpt>
      <trkpt lat="49.941" lon="2.10122">
        <ele>72.1</ele>
        <time>2022-08-10T07:52:50Z</time>
      </trkpt>
      <trkpt lat="49.941" lon="2.10121">
        <ele>72.1</ele>
        <time>2022-08-10T07:52:51Z</time>
      </trkpt>
      <trkpt lat="49.94099" lon="2.10119">
        <ele>72.1</ele>
        <time>2022-08-10T07:52:53Z</time>
      </trkpt>
      <trkpt lat="49.94099" lon="2.10119">
        <ele>72.2</ele>
        <time>2022-08-10T07:52:54Z</time>
      </trkpt>
      <trkpt lat="49.94098" lon="2.10117">
        <ele>72.2</ele>
        <time>2022-08-10T07:52:55Z</time>
      </trkpt>
      <trkpt lat="49.94098" lon="2.10116">
        <ele>72.2</ele>
        <time>2022-08-10T07:52:56Z</time>
      </trkpt>
      <trkpt lat="49.94098" lon="2.10115">
        <ele>72.2</ele>
        <time>2022-08-10T07:52:57Z</time>
      </trkpt>
      <trkpt lat="49.94098" lon="2.10114">
        <ele>72.2</ele>
        <time>2022-08-10T07:52:58Z</time>
      </trkpt>
      <trkpt lat="49.94097" lon="2.10113">
        <ele>72.3</ele>
        <time>2022-08-10T07:52:59Z</time>
      </trkpt>
      <trkpt lat="49.94097" lon="2.10112">
        <ele>72.3</ele>
        <time>2022-08-10T07:53:00Z</time>
      </trkpt>
      <trkpt lat="49.94097" lon="2.1011">
        <ele>72.3</ele>
        <time>2022-08-10T07:53:01Z</time>
      </trkpt>
      <trkpt lat="49.94097" lon="2.10109">
        <ele>72.3</ele>
        <time>2022-08-10T07:53:02Z</time>
      </trkpt>
      <trkpt lat="49.94096" lon="2.10106">
        <ele>72.4</ele>
        <time>2022-08-10T07:53:03Z</time>
      </trkpt>
      <trkpt lat="49.94096" lon="2.10104">
        <ele>72.4</ele>
        <time>2022-08-10T07:53:04Z</time>
      </trkpt>
      <trkpt lat="49.94095" lon="2.10103">
        <ele>72.4</ele>
        <time>2022-08-10T07:53:05Z</time>
      </trkpt>
      <trkpt lat="49.94095" lon="2.101">
        <ele>72.4</ele>
        <time>2022-08-10T07:53:06Z</time>
      </trkpt>
      <trkpt lat="49.94094" lon="2.10099">
        <ele>72.5</ele>
        <time>2022-08-10T07:53:07Z</time>
      </trkpt>
      <trkpt lat="49.94094" lon="2.10098">
        <ele>72.5</ele>
        <time>2022-08-10T07:53:08Z</time>
      </trkpt>
      <trkpt lat="49.94094" lon="2.10096">
        <ele>72.5</ele>
        <time>2022-08-10T07:53:09Z</time>
      </trkpt>
      <trkpt lat="49.94093" lon="2.10094">
        <ele>72.5</ele>
        <time>2022-08-10T07:53:10Z</time>
      </trkpt>
      <trkpt lat="49.94092" lon="2.1009">
        <ele>72.7</ele>
        <time>2022-08-10T07:53:11Z</time>
      </trkpt>
      <trkpt lat="49.94091" lon="2.10089">
        <ele>72.7</ele>
        <time>2022-08-10T07:53:13Z</time>
      </trkpt>
      <trkpt lat="49.94091" lon="2.10088">
        <ele>72.7</ele>
        <time>2022-08-10T07:53:14Z</time>
      </trkpt>
      <trkpt lat="49.9409" lon="2.10085">
        <ele>72.8</ele>
        <time>2022-08-10T07:53:15Z</time>
      </trkpt>
      <trkpt lat="49.94089" lon="2.10084">
        <ele>72.8</ele>
        <time>2022-08-10T07:53:16Z</time>
      </trkpt>
      <trkpt lat="49.94089" lon="2.10083">
        <ele>72.8</ele>
        <time>2022-08-10T07:53:17Z</time>
      </trkpt>
      <trkpt lat="49.94088" lon="2.10081">
        <ele>72.8</ele>
        <time>2022-08-10T07:53:18Z</time>
      </trkpt>
      <trkpt lat="49.94088" lon="2.1008">
        <ele>72.9</ele>
        <time>2022-08-10T07:53:19Z</time>
      </trkpt>
      <trkpt lat="49.94087" lon="2.10078">
        <ele>72.9</ele>
        <time>2022-08-10T07:53:21Z</time>
      </trkpt>
      <trkpt lat="49.94087" lon="2.10076">
        <ele>72.9</ele>
        <time>2022-08-10T07:53:22Z</time>
      </trkpt>
      <trkpt lat="49.94086" lon="2.10075">
        <ele>72.9</ele>
        <time>2022-08-10T07:53:23Z</time>
      </trkpt>
      <trkpt lat="49.94085" lon="2.10074">
        <ele>72.9</ele>
        <time>2022-08-10T07:53:24Z</time>
      </trkpt>
      <trkpt lat="49.94085" lon="2.10071">
        <ele>73</ele>
        <time>2022-08-10T07:53:25Z</time>
      </trkpt>
      <trkpt lat="49.94084" lon="2.1007">
        <ele>73</ele>
        <time>2022-08-10T07:53:26Z</time>
      </trkpt>
      <trkpt lat="49.94084" lon="2.10069">
        <ele>73</ele>
        <time>2022-08-10T07:53:27Z</time>
      </trkpt>
      <trkpt lat="49.94083" lon="2.10067">
        <ele>73</ele>
        <time>2022-08-10T07:53:28Z</time>
      </trkpt>
      <trkpt lat="49.94083" lon="2.10066">
        <ele>73.1</ele>
        <time>2022-08-10T07:53:29Z</time>
      </trkpt>
      <trkpt lat="49.94082" lon="2.10064">
        <ele>73.1</ele>
        <time>2022-08-10T07:53:31Z</time>
      </trkpt>
      <trkpt lat="49.94082" lon="2.10062">
        <ele>73.1</ele>
        <time>2022-08-10T07:53:32Z</time>
      </trkpt>
      <trkpt lat="49.94081" lon="2.10061">
        <ele>73.1</ele>
        <time>2022-08-10T07:53:33Z</time>
      </trkpt>
      <trkpt lat="49.94081" lon="2.10059">
        <ele>73.1</ele>
        <time>2022-08-10T07:53:34Z</time>
      </trkpt>
      <trkpt lat="49.9408" lon="2.10056">
        <ele>73.2</ele>
        <time>2022-08-10T07:53:35Z</time>
      </trkpt>
      <trkpt lat="49.9408" lon="2.10055">
        <ele>73.2</ele>
        <time>2022-08-10T07:53:36Z</time>
      </trkpt>
      <trkpt lat="49.9408" lon="2.10054">
        <ele>73.2</ele>
        <time>2022-08-10T07:53:37Z</time>
      </trkpt>
      <trkpt lat="49.94079" lon="2.10052">
        <ele>73.2</ele>
        <time>2022-08-10T07:53:38Z</time>
      </trkpt>
      <trkpt lat="49.94079" lon="2.1005">
        <ele>73.2</ele>
        <time>2022-08-10T07:53:39Z</time>
      </trkpt>
      <trkpt lat="49.94079" lon="2.10048">
        <ele>73.2</ele>
        <time>2022-08-10T07:53:41Z</time>
      </trkpt>
      <trkpt lat="49.94078" lon="2.10046">
        <ele>73.2</ele>
        <time>2022-08-10T07:53:42Z</time>
      </trkpt>
      <trkpt lat="49.94078" lon="2.10045">
        <ele>73.2</ele>
        <time>2022-08-10T07:53:43Z</time>
      </trkpt>
      <trkpt lat="49.94077" lon="2.10043">
        <ele>73.2</ele>
        <time>2022-08-10T07:53:44Z</time>
      </trkpt>
      <trkpt lat="49.94076" lon="2.1004">
        <ele>73.3</ele>
        <time>2022-08-10T07:53:45Z</time>
      </trkpt>
      <trkpt lat="49.94076" lon="2.10039">
        <ele>73.3</ele>
        <time>2022-08-10T07:53:46Z</time>
      </trkpt>
      <trkpt lat="49.94076" lon="2.10038">
        <ele>73.3</ele>
        <time>2022-08-10T07:53:47Z</time>
      </trkpt>
      <trkpt lat="49.94075" lon="2.10036">
        <ele>73.3</ele>
        <time>2022-08-10T07:53:48Z</time>
      </trkpt>
      <trkpt lat="49.94075" lon="2.10034">
        <ele>73.3</ele>
        <time>2022-08-10T07:53:49Z</time>
      </trkpt>
      <trkpt lat="49.94074" lon="2.10032">
        <ele>73.3</ele>
        <time>2022-08-10T07:53:51Z</time>
      </trkpt>
      <trkpt lat="49.94074" lon="2.1003">
        <ele>73.3</ele>
        <time>2022-08-10T07:53:52Z</time>
      </trkpt>
      <trkpt lat="49.94074" lon="2.10028">
        <ele>73.3</ele>
        <time>2022-08-10T07:53:53Z</time>
      </trkpt>
      <trkpt lat="49.94074" lon="2.10026">
        <ele>73.3</ele>
        <time>2022-08-10T07:53:54Z</time>
      </trkpt>
      <trkpt lat="49.94074" lon="2.10025">
        <ele>73.4</ele>
        <time>2022-08-10T07:53:55Z</time>
      </trkpt>
      <trkpt lat="49.94073" lon="2.10023">
        <ele>73.4</ele>
        <time>2022-08-10T07:53:56Z</time>
      </trkpt>
      <trkpt lat="49.94073" lon="2.10021">
        <ele>73.4</ele>
        <time>2022-08-10T07:53:57Z</time>
      </trkpt>
      <trkpt lat="49.94072" lon="2.10019">
        <ele>73.4</ele>
        <time>2022-08-10T07:53:58Z</time>
      </trkpt>
      <trkpt lat="49.94072" lon="2.10017">
        <ele>73.4</ele>
        <time>2022-08-10T07:53:59Z</time>
      </trkpt>
      <trkpt lat="49.94072" lon="2.10015">
        <ele>73.4</ele>
        <time>2022-08-10T07:54:00Z</time>
      </trkpt>
      <trkpt lat="49.94071" lon="2.10012">
        <ele>73.4</ele>
        <time>2022-08-10T07:54:02Z</time>
      </trkpt>
      <trkpt lat="49.94071" lon="2.1001">
        <ele>73.4</ele>
        <time>2022-08-10T07:54:03Z</time>
      </trkpt>
      <trkpt lat="49.94071" lon="2.10009">
        <ele>73.5</ele>
        <time>2022-08-10T07:54:04Z</time>
      </trkpt>
      <trkpt lat="49.9407" lon="2.10007">
        <ele>73.5</ele>
        <time>2022-08-10T07:54:05Z</time>
      </trkpt>
      <trkpt lat="49.9407" lon="2.10006">
        <ele>73.5</ele>
        <time>2022-08-10T07:54:06Z</time>
      </trkpt>
      <trkpt lat="49.9407" lon="2.10004">
        <ele>73.5</ele>
        <time>2022-08-10T07:54:07Z</time>
      </trkpt>
      <trkpt lat="49.94069" lon="2.10003">
        <ele>73.5</ele>
        <time>2022-08-10T07:54:08Z</time>
      </trkpt>
      <trkpt lat="49.94068" lon="2.1">
        <ele>73.5</ele>
        <time>2022-08-10T07:54:09Z</time>
      </trkpt>
      <trkpt lat="49.94068" lon="2.09999">
        <ele>73.5</ele>
        <time>2022-08-10T07:54:10Z</time>
      </trkpt>
      <trkpt lat="49.94068" lon="2.09997">
        <ele>73.5</ele>
        <time>2022-08-10T07:54:11Z</time>
      </trkpt>
      <trkpt lat="49.94067" lon="2.09995">
        <ele>73.5</ele>
        <time>2022-08-10T07:54:12Z</time>
      </trkpt>
      <trkpt lat="49.94067" lon="2.09994">
        <ele>73.6</ele>
        <time>2022-08-10T07:54:14Z</time>
      </trkpt>
      <trkpt lat="49.94066" lon="2.09992">
        <ele>73.6</ele>
        <time>2022-08-10T07:54:15Z</time>
      </trkpt>
      <trkpt lat="49.94066" lon="2.09991">
        <ele>73.6</ele>
        <time>2022-08-10T07:54:16Z</time>
      </trkpt>
      <trkpt lat="49.94065" lon="2.0999">
        <ele>73.6</ele>
        <time>2022-08-10T07:54:17Z</time>
      </trkpt>
      <trkpt lat="49.94065" lon="2.09988">
        <ele>73.6</ele>
        <time>2022-08-10T07:54:18Z</time>
      </trkpt>
      <trkpt lat="49.94064" lon="2.09986">
        <ele>73.6</ele>
        <time>2022-08-10T07:54:20Z</time>
      </trkpt>
      <trkpt lat="49.94064" lon="2.09984">
        <ele>73.6</ele>
        <time>2022-08-10T07:54:21Z</time>
      </trkpt>
      <trkpt lat="49.94063" lon="2.09982">
        <ele>73.6</ele>
        <time>2022-08-10T07:54:22Z</time>
      </trkpt>
      <trkpt lat="49.94063" lon="2.0998">
        <ele>73.6</ele>
        <time>2022-08-10T07:54:23Z</time>
      </trkpt>
      <trkpt lat="49.94062" lon="2.09978">
        <ele>73.6</ele>
        <time>2022-08-10T07:54:24Z</time>
      </trkpt>
      <trkpt lat="49.94062" lon="2.09976">
        <ele>73.6</ele>
        <time>2022-08-10T07:54:26Z</time>
      </trkpt>
      <trkpt lat="49.94062" lon="2.09973">
        <ele>73.6</ele>
        <time>2022-08-10T07:54:27Z</time>
      </trkpt>
      <trkpt lat="49.94062" lon="2.09971">
        <ele>73.6</ele>
        <time>2022-08-10T07:54:28Z</time>
      </trkpt>
      <trkpt lat="49.94062" lon="2.0997">
        <ele>73.6</ele>
        <time>2022-08-10T07:54:29Z</time>
      </trkpt>
      <trkpt lat="49.94062" lon="2.09968">
        <ele>73.6</ele>
        <time>2022-08-10T07:54:30Z</time>
      </trkpt>
      <trkpt lat="49.94062" lon="2.09966">
        <ele>73.7</ele>
        <time>2022-08-10T07:54:31Z</time>
      </trkpt>
      <trkpt lat="49.94061" lon="2.09964">
        <ele>73.7</ele>
        <time>2022-08-10T07:54:32Z</time>
      </trkpt>
      <trkpt lat="49.94061" lon="2.09962">
        <ele>73.7</ele>
        <time>2022-08-10T07:54:33Z</time>
      </trkpt>
      <trkpt lat="49.94061" lon="2.09959">
        <ele>73.7</ele>
        <time>2022-08-10T07:54:34Z</time>
      </trkpt>
      <trkpt lat="49.94061" lon="2.09957">
        <ele>73.7</ele>
        <time>2022-08-10T07:54:36Z</time>
      </trkpt>
      <trkpt lat="49.94061" lon="2.09956">
        <ele>73.7</ele>
        <time>2022-08-10T07:54:37Z</time>
      </trkpt>
      <trkpt lat="49.94061" lon="2.09954">
        <ele>73.7</ele>
        <time>2022-08-10T07:54:38Z</time>
      </trkpt>
      <trkpt lat="49.94061" lon="2.09953">
        <ele>73.7</ele>
        <time>2022-08-10T07:54:39Z</time>
      </trkpt>
      <trkpt lat="49.9406" lon="2.09951">
        <ele>73.7</ele>
        <time>2022-08-10T07:54:40Z</time>
      </trkpt>
      <trkpt lat="49.9406" lon="2.09949">
        <ele>73.7</ele>
        <time>2022-08-10T07:54:41Z</time>
      </trkpt>
      <trkpt lat="49.94059" lon="2.09947">
        <ele>73.7</ele>
        <time>2022-08-10T07:54:42Z</time>
      </trkpt>
      <trkpt lat="49.94059" lon="2.09945">
        <ele>73.7</ele>
        <time>2022-08-10T07:54:44Z</time>
      </trkpt>
      <trkpt lat="49.94058" lon="2.09942">
        <ele>73.7</ele>
        <time>2022-08-10T07:54:45Z</time>
      </trkpt>
      <trkpt lat="49.94058" lon="2.09941">
        <ele>73.7</ele>
        <time>2022-08-10T07:54:46Z</time>
      </trkpt>
      <trkpt lat="49.94058" lon="2.09939">
        <ele>73.8</ele>
        <time>2022-08-10T07:54:47Z</time>
      </trkpt>
      <trkpt lat="49.94057" lon="2.09938">
        <ele>73.8</ele>
        <time>2022-08-10T07:54:48Z</time>
      </trkpt>
      <trkpt lat="49.94057" lon="2.09937">
        <ele>73.8</ele>
        <time>2022-08-10T07:54:49Z</time>
      </trkpt>
      <trkpt lat="49.94056" lon="2.09935">
        <ele>73.8</ele>
        <time>2022-08-10T07:54:50Z</time>
      </trkpt>
      <trkpt lat="49.94055" lon="2.09932">
        <ele>73.8</ele>
        <time>2022-08-10T07:54:52Z</time>
      </trkpt>
      <trkpt lat="49.94055" lon="2.09931">
        <ele>73.8</ele>
        <time>2022-08-10T07:54:53Z</time>
      </trkpt>
      <trkpt lat="49.94054" lon="2.09929">
        <ele>73.8</ele>
        <time>2022-08-10T07:54:54Z</time>
      </trkpt>
      <trkpt lat="49.94053" lon="2.09927">
        <ele>73.8</ele>
        <time>2022-08-10T07:54:55Z</time>
      </trkpt>
      <trkpt lat="49.94053" lon="2.09925">
        <ele>73.8</ele>
        <time>2022-08-10T07:54:56Z</time>
      </trkpt>
      <trkpt lat="49.94053" lon="2.09924">
        <ele>73.8</ele>
        <time>2022-08-10T07:54:57Z</time>
      </trkpt>
      <trkpt lat="49.94052" lon="2.09922">
        <ele>73.9</ele>
        <time>2022-08-10T07:54:58Z</time>
      </trkpt>
      <trkpt lat="49.94052" lon="2.0992">
        <ele>73.9</ele>
        <time>2022-08-10T07:54:59Z</time>
      </trkpt>
      <trkpt lat="49.94051" lon="2.09918">
        <ele>73.9</ele>
        <time>2022-08-10T07:55:01Z</time>
      </trkpt>
      <trkpt lat="49.94051" lon="2.09916">
        <ele>73.9</ele>
        <time>2022-08-10T07:55:02Z</time>
      </trkpt>
      <trkpt lat="49.94051" lon="2.09915">
        <ele>73.9</ele>
        <time>2022-08-10T07:55:03Z</time>
      </trkpt>
      <trkpt lat="49.9405" lon="2.09913">
        <ele>73.9</ele>
        <time>2022-08-10T07:55:04Z</time>
      </trkpt>
      <trkpt lat="49.9405" lon="2.0991">
        <ele>73.9</ele>
        <time>2022-08-10T07:55:05Z</time>
      </trkpt>
      <trkpt lat="49.94049" lon="2.09909">
        <ele>73.9</ele>
        <time>2022-08-10T07:55:06Z</time>
      </trkpt>
      <trkpt lat="49.94049" lon="2.09908">
        <ele>73.9</ele>
        <time>2022-08-10T07:55:07Z</time>
      </trkpt>
      <trkpt lat="49.94048" lon="2.09906">
        <ele>73.9</ele>
        <time>2022-08-10T07:55:08Z</time>
      </trkpt>
      <trkpt lat="49.94048" lon="2.09904">
        <ele>73.9</ele>
        <time>2022-08-10T07:55:10Z</time>
      </trkpt>
      <trkpt lat="49.94047" lon="2.09903">
        <ele>73.9</ele>
        <time>2022-08-10T07:55:11Z</time>
      </trkpt>
      <trkpt lat="49.94047" lon="2.09901">
        <ele>73.9</ele>
        <time>2022-08-10T07:55:12Z</time>
      </trkpt>
      <trkpt lat="49.94046" lon="2.099">
        <ele>73.9</ele>
        <time>2022-08-10T07:55:13Z</time>
      </trkpt>
      <trkpt lat="49.94046" lon="2.09898">
        <ele>73.9</ele>
        <time>2022-08-10T07:55:14Z</time>
      </trkpt>
      <trkpt lat="49.94045" lon="2.09897">
        <ele>73.9</ele>
        <time>2022-08-10T07:55:15Z</time>
      </trkpt>
      <trkpt lat="49.94045" lon="2.09895">
        <ele>73.9</ele>
        <time>2022-08-10T07:55:16Z</time>
      </trkpt>
      <trkpt lat="49.94044" lon="2.09893">
        <ele>73.9</ele>
        <time>2022-08-10T07:55:18Z</time>
      </trkpt>
      <trkpt lat="49.94043" lon="2.09892">
        <ele>73.9</ele>
        <time>2022-08-10T07:55:19Z</time>
      </trkpt>
      <trkpt lat="49.94043" lon="2.0989">
        <ele>73.9</ele>
        <time>2022-08-10T07:55:20Z</time>
      </trkpt>
      <trkpt lat="49.94042" lon="2.09889">
        <ele>73.9</ele>
        <time>2022-08-10T07:55:21Z</time>
      </trkpt>
      <trkpt lat="49.94042" lon="2.09886">
        <ele>74</ele>
        <time>2022-08-10T07:55:22Z</time>
      </trkpt>
      <trkpt lat="49.94041" lon="2.09885">
        <ele>74</ele>
        <time>2022-08-10T07:55:23Z</time>
      </trkpt>
      <trkpt lat="49.94041" lon="2.09884">
        <ele>74</ele>
        <time>2022-08-10T07:55:24Z</time>
      </trkpt>
      <trkpt lat="49.9404" lon="2.09882">
        <ele>74</ele>
        <time>2022-08-10T07:55:25Z</time>
      </trkpt>
      <trkpt lat="49.9404" lon="2.0988">
        <ele>74</ele>
        <time>2022-08-10T07:55:27Z</time>
      </trkpt>
      <trkpt lat="49.94039" lon="2.09879">
        <ele>74</ele>
        <time>2022-08-10T07:55:28Z</time>
      </trkpt>
      <trkpt lat="49.94039" lon="2.09878">
        <ele>74</ele>
        <time>2022-08-10T07:55:29Z</time>
      </trkpt>
      <trkpt lat="49.94039" lon="2.09876">
        <ele>74</ele>
        <time>2022-08-10T07:55:30Z</time>
      </trkpt>
      <trkpt lat="49.94038" lon="2.09874">
        <ele>74</ele>
        <time>2022-08-10T07:55:31Z</time>
      </trkpt>
      <trkpt lat="49.94038" lon="2.09873">
        <ele>74</ele>
        <time>2022-08-10T07:55:32Z</time>
      </trkpt>
      <trkpt lat="49.94037" lon="2.09871">
        <ele>74</ele>
        <time>2022-08-10T07:55:34Z</time>
      </trkpt>
      <trkpt lat="49.94037" lon="2.09869">
        <ele>74</ele>
        <time>2022-08-10T07:55:35Z</time>
      </trkpt>
      <trkpt lat="49.94037" lon="2.09868">
        <ele>74</ele>
        <time>2022-08-10T07:55:36Z</time>
      </trkpt>
      <trkpt lat="49.94037" lon="2.09866">
        <ele>74</ele>
        <time>2022-08-10T07:55:37Z</time>
      </trkpt>
      <trkpt lat="49.94036" lon="2.09865">
        <ele>74.1</ele>
        <time>2022-08-10T07:55:38Z</time>
      </trkpt>
      <trkpt lat="49.94036" lon="2.09863">
        <ele>74.1</ele>
        <time>2022-08-10T07:55:39Z</time>
      </trkpt>
      <trkpt lat="49.94035" lon="2.09861">
        <ele>74.1</ele>
        <time>2022-08-10T07:55:40Z</time>
      </trkpt>
      <trkpt lat="49.94034" lon="2.09859">
        <ele>74.1</ele>
        <time>2022-08-10T07:55:42Z</time>
      </trkpt>
      <trkpt lat="49.94034" lon="2.09856">
        <ele>74.1</ele>
        <time>2022-08-10T07:55:43Z</time>
      </trkpt>
      <trkpt lat="49.94033" lon="2.09855">
        <ele>74.1</ele>
        <time>2022-08-10T07:55:44Z</time>
      </trkpt>
      <trkpt lat="49.94033" lon="2.09854">
        <ele>74.1</ele>
        <time>2022-08-10T07:55:45Z</time>
      </trkpt>
      <trkpt lat="49.94032" lon="2.09851">
        <ele>74.1</ele>
        <time>2022-08-10T07:55:46Z</time>
      </trkpt>
      <trkpt lat="49.94032" lon="2.0985">
        <ele>74.1</ele>
        <time>2022-08-10T07:55:47Z</time>
      </trkpt>
      <trkpt lat="49.94031" lon="2.09849">
        <ele>74.1</ele>
        <time>2022-08-10T07:55:48Z</time>
      </trkpt>
      <trkpt lat="49.94031" lon="2.09845">
        <ele>74.2</ele>
        <time>2022-08-10T07:55:49Z</time>
      </trkpt>
      <trkpt lat="49.94031" lon="2.09844">
        <ele>74.2</ele>
        <time>2022-08-10T07:55:51Z</time>
      </trkpt>
      <trkpt lat="49.9403" lon="2.09843">
        <ele>74.2</ele>
        <time>2022-08-10T07:55:52Z</time>
      </trkpt>
      <trkpt lat="49.9403" lon="2.0984">
        <ele>74.2</ele>
        <time>2022-08-10T07:55:53Z</time>
      </trkpt>
      <trkpt lat="49.94029" lon="2.09839">
        <ele>74.2</ele>
        <time>2022-08-10T07:55:54Z</time>
      </trkpt>
      <trkpt lat="49.94029" lon="2.09837">
        <ele>74.2</ele>
        <time>2022-08-10T07:55:55Z</time>
      </trkpt>
      <trkpt lat="49.94028" lon="2.09834">
        <ele>74.3</ele>
        <time>2022-08-10T07:55:56Z</time>
      </trkpt>
      <trkpt lat="49.94028" lon="2.09833">
        <ele>74.3</ele>
        <time>2022-08-10T07:55:58Z</time>
      </trkpt>
      <trkpt lat="49.94027" lon="2.09832">
        <ele>74.3</ele>
        <time>2022-08-10T07:55:59Z</time>
      </trkpt>
      <trkpt lat="49.94027" lon="2.0983">
        <ele>74.3</ele>
        <time>2022-08-10T07:56:00Z</time>
      </trkpt>
      <trkpt lat="49.94026" lon="2.09828">
        <ele>74.3</ele>
        <time>2022-08-10T07:56:01Z</time>
      </trkpt>
      <trkpt lat="49.94025" lon="2.09826">
        <ele>74.3</ele>
        <time>2022-08-10T07:56:02Z</time>
      </trkpt>
      <trkpt lat="49.94025" lon="2.09824">
        <ele>74.4</ele>
        <time>2022-08-10T07:56:03Z</time>
      </trkpt>
      <trkpt lat="49.94024" lon="2.09823">
        <ele>74.4</ele>
        <time>2022-08-10T07:56:05Z</time>
      </trkpt>
      <trkpt lat="49.94023" lon="2.09822">
        <ele>74.4</ele>
        <time>2022-08-10T07:56:06Z</time>
      </trkpt>
      <trkpt lat="49.94023" lon="2.0982">
        <ele>74.4</ele>
        <time>2022-08-10T07:56:07Z</time>
      </trkpt>
      <trkpt lat="49.94022" lon="2.09819">
        <ele>74.4</ele>
        <time>2022-08-10T07:56:08Z</time>
      </trkpt>
      <trkpt lat="49.94021" lon="2.09816">
        <ele>74.5</ele>
        <time>2022-08-10T07:56:09Z</time>
      </trkpt>
      <trkpt lat="49.9402" lon="2.09815">
        <ele>74.5</ele>
        <time>2022-08-10T07:56:10Z</time>
      </trkpt>
      <trkpt lat="49.9402" lon="2.09814">
        <ele>74.5</ele>
        <time>2022-08-10T07:56:11Z</time>
      </trkpt>
      <trkpt lat="49.94019" lon="2.09812">
        <ele>74.5</ele>
        <time>2022-08-10T07:56:12Z</time>
      </trkpt>
      <trkpt lat="49.94018" lon="2.09811">
        <ele>74.5</ele>
        <time>2022-08-10T07:56:14Z</time>
      </trkpt>
      <trkpt lat="49.94017" lon="2.0981">
        <ele>74.6</ele>
        <time>2022-08-10T07:56:15Z</time>
      </trkpt>
      <trkpt lat="49.94017" lon="2.09808">
        <ele>74.6</ele>
        <time>2022-08-10T07:56:16Z</time>
      </trkpt>
      <trkpt lat="49.94016" lon="2.09807">
        <ele>74.6</ele>
        <time>2022-08-10T07:56:17Z</time>
      </trkpt>
      <trkpt lat="49.94015" lon="2.09806">
        <ele>74.6</ele>
        <time>2022-08-10T07:56:18Z</time>
      </trkpt>
      <trkpt lat="49.94014" lon="2.09804">
        <ele>74.6</ele>
        <time>2022-08-10T07:56:19Z</time>
      </trkpt>
      <trkpt lat="49.94013" lon="2.09803">
        <ele>74.7</ele>
        <time>2022-08-10T07:56:20Z</time>
      </trkpt>
      <trkpt lat="49.94013" lon="2.09802">
        <ele>74.7</ele>
        <time>2022-08-10T07:56:21Z</time>
      </trkpt>
      <trkpt lat="49.94011" lon="2.09799">
        <ele>74.7</ele>
        <time>2022-08-10T07:56:22Z</time>
      </trkpt>
      <trkpt lat="49.94011" lon="2.09798">
        <ele>74.7</ele>
        <time>2022-08-10T07:56:23Z</time>
      </trkpt>
      <trkpt lat="49.9401" lon="2.09796">
        <ele>74.8</ele>
        <time>2022-08-10T07:56:25Z</time>
      </trkpt>
      <trkpt lat="49.9401" lon="2.09795">
        <ele>74.8</ele>
        <time>2022-08-10T07:56:26Z</time>
      </trkpt>
      <trkpt lat="49.94009" lon="2.09794">
        <ele>74.8</ele>
        <time>2022-08-10T07:56:27Z</time>
      </trkpt>
      <trkpt lat="49.94009" lon="2.09793">
        <ele>74.8</ele>
        <time>2022-08-10T07:56:28Z</time>
      </trkpt>
      <trkpt lat="49.94008" lon="2.09791">
        <ele>74.8</ele>
        <time>2022-08-10T07:56:29Z</time>
      </trkpt>
      <trkpt lat="49.94007" lon="2.09789">
        <ele>74.8</ele>
        <time>2022-08-10T07:56:30Z</time>
      </trkpt>
      <trkpt lat="49.94007" lon="2.09787">
        <ele>74.9</ele>
        <time>2022-08-10T07:56:32Z</time>
      </trkpt>
      <trkpt lat="49.94006" lon="2.09785">
        <ele>74.9</ele>
        <time>2022-08-10T07:56:33Z</time>
      </trkpt>
      <trkpt lat="49.94006" lon="2.09784">
        <ele>74.9</ele>
        <time>2022-08-10T07:56:34Z</time>
      </trkpt>
      <trkpt lat="49.94005" lon="2.09783">
        <ele>74.9</ele>
        <time>2022-08-10T07:56:35Z</time>
      </trkpt>
      <trkpt lat="49.94004" lon="2.0978">
        <ele>74.9</ele>
        <time>2022-08-10T07:56:36Z</time>
      </trkpt>
      <trkpt lat="49.94003" lon="2.09779">
        <ele>75</ele>
        <time>2022-08-10T07:56:37Z</time>
      </trkpt>
      <trkpt lat="49.94003" lon="2.09778">
        <ele>75</ele>
        <time>2022-08-10T07:56:38Z</time>
      </trkpt>
      <trkpt lat="49.94002" lon="2.09777">
        <ele>75</ele>
        <time>2022-08-10T07:56:39Z</time>
      </trkpt>
      <trkpt lat="49.94001" lon="2.09775">
        <ele>75</ele>
        <time>2022-08-10T07:56:40Z</time>
      </trkpt>
      <trkpt lat="49.94" lon="2.09774">
        <ele>75</ele>
        <time>2022-08-10T07:56:42Z</time>
      </trkpt>
      <trkpt lat="49.93999" lon="2.09772">
        <ele>75.1</ele>
        <time>2022-08-10T07:56:43Z</time>
      </trkpt>
      <trkpt lat="49.93999" lon="2.09771">
        <ele>75.1</ele>
        <time>2022-08-10T07:56:44Z</time>
      </trkpt>
      <trkpt lat="49.93998" lon="2.09769">
        <ele>75.1</ele>
        <time>2022-08-10T07:56:45Z</time>
      </trkpt>
      <trkpt lat="49.93998" lon="2.09768">
        <ele>75.1</ele>
        <time>2022-08-10T07:56:46Z</time>
      </trkpt>
      <trkpt lat="49.93997" lon="2.09767">
        <ele>75.1</ele>
        <time>2022-08-10T07:56:47Z</time>
      </trkpt>
      <trkpt lat="49.93996" lon="2.09765">
        <ele>75.1</ele>
        <time>2022-08-10T07:56:48Z</time>
      </trkpt>
      <trkpt lat="49.93995" lon="2.09764">
        <ele>75.2</ele>
        <time>2022-08-10T07:56:49Z</time>
      </trkpt>
      <trkpt lat="49.93995" lon="2.09762">
        <ele>75.2</ele>
        <time>2022-08-10T07:56:50Z</time>
      </trkpt>
      <trkpt lat="49.93994" lon="2.09761">
        <ele>75.2</ele>
        <time>2022-08-10T07:56:52Z</time>
      </trkpt>
      <trkpt lat="49.93994" lon="2.0976">
        <ele>75.2</ele>
        <time>2022-08-10T07:56:53Z</time>
      </trkpt>
      <trkpt lat="49.93993" lon="2.09758">
        <ele>75.2</ele>
        <time>2022-08-10T07:56:54Z</time>
      </trkpt>
      <trkpt lat="49.93992" lon="2.09757">
        <ele>75.3</ele>
        <time>2022-08-10T07:56:55Z</time>
      </trkpt>
      <trkpt lat="49.93992" lon="2.09756">
        <ele>75.3</ele>
        <time>2022-08-10T07:56:56Z</time>
      </trkpt>
      <trkpt lat="49.93991" lon="2.09754">
        <ele>75.3</ele>
        <time>2022-08-10T07:56:57Z</time>
      </trkpt>
      <trkpt lat="49.93991" lon="2.09753">
        <ele>75.3</ele>
        <time>2022-08-10T07:56:58Z</time>
      </trkpt>
      <trkpt lat="49.9399" lon="2.09751">
        <ele>75.3</ele>
        <time>2022-08-10T07:57:00Z</time>
      </trkpt>
      <trkpt lat="49.93989" lon="2.0975">
        <ele>75.4</ele>
        <time>2022-08-10T07:57:01Z</time>
      </trkpt>
      <trkpt lat="49.93989" lon="2.09748">
        <ele>75.4</ele>
        <time>2022-08-10T07:57:02Z</time>
      </trkpt>
      <trkpt lat="49.93988" lon="2.09746">
        <ele>75.4</ele>
        <time>2022-08-10T07:57:03Z</time>
      </trkpt>
      <trkpt lat="49.93988" lon="2.09745">
        <ele>75.4</ele>
        <time>2022-08-10T07:57:04Z</time>
      </trkpt>
      <trkpt lat="49.93987" lon="2.09743">
        <ele>75.5</ele>
        <time>2022-08-10T07:57:06Z</time>
      </trkpt>
      <trkpt lat="49.93987" lon="2.09741">
        <ele>75.5</ele>
        <time>2022-08-10T07:57:07Z</time>
      </trkpt>
      <trkpt lat="49.93986" lon="2.09737">
        <ele>75.5</ele>
        <time>2022-08-10T07:57:08Z</time>
      </trkpt>
      <trkpt lat="49.93986" lon="2.09736">
        <ele>75.6</ele>
        <time>2022-08-10T07:57:09Z</time>
      </trkpt>
      <trkpt lat="49.93986" lon="2.09735">
        <ele>75.6</ele>
        <time>2022-08-10T07:57:10Z</time>
      </trkpt>
      <trkpt lat="49.93986" lon="2.09732">
        <ele>75.6</ele>
        <time>2022-08-10T07:57:11Z</time>
      </trkpt>
      <trkpt lat="49.93985" lon="2.09731">
        <ele>75.6</ele>
        <time>2022-08-10T07:57:12Z</time>
      </trkpt>
      <trkpt lat="49.93985" lon="2.09729">
        <ele>75.7</ele>
        <time>2022-08-10T07:57:14Z</time>
      </trkpt>
      <trkpt lat="49.93985" lon="2.09727">
        <ele>75.7</ele>
        <time>2022-08-10T07:57:15Z</time>
      </trkpt>
      <trkpt lat="49.93984" lon="2.09725">
        <ele>75.7</ele>
        <time>2022-08-10T07:57:16Z</time>
      </trkpt>
      <trkpt lat="49.93983" lon="2.09723">
        <ele>75.8</ele>
        <time>2022-08-10T07:57:17Z</time>
      </trkpt>
      <trkpt lat="49.93983" lon="2.09721">
        <ele>75.8</ele>
        <time>2022-08-10T07:57:18Z</time>
      </trkpt>
      <trkpt lat="49.93982" lon="2.0972">
        <ele>75.8</ele>
        <time>2022-08-10T07:57:19Z</time>
      </trkpt>
      <trkpt lat="49.93981" lon="2.09717">
        <ele>75.9</ele>
        <time>2022-08-10T07:57:20Z</time>
      </trkpt>
      <trkpt lat="49.93981" lon="2.09716">
        <ele>75.9</ele>
        <time>2022-08-10T07:57:21Z</time>
      </trkpt>
      <trkpt lat="49.9398" lon="2.09714">
        <ele>75.9</ele>
        <time>2022-08-10T07:57:23Z</time>
      </trkpt>
      <trkpt lat="49.93979" lon="2.09713">
        <ele>76</ele>
        <time>2022-08-10T07:57:24Z</time>
      </trkpt>
      <trkpt lat="49.93979" lon="2.09712">
        <ele>76</ele>
        <time>2022-08-10T07:57:25Z</time>
      </trkpt>
      <trkpt lat="49.93978" lon="2.09711">
        <ele>76</ele>
        <time>2022-08-10T07:57:26Z</time>
      </trkpt>
      <trkpt lat="49.93978" lon="2.09709">
        <ele>76</ele>
        <time>2022-08-10T07:57:27Z</time>
      </trkpt>
      <trkpt lat="49.93977" lon="2.09708">
        <ele>76.1</ele>
        <time>2022-08-10T07:57:28Z</time>
      </trkpt>
      <trkpt lat="49.93976" lon="2.09706">
        <ele>76.1</ele>
        <time>2022-08-10T07:57:29Z</time>
      </trkpt>
      <trkpt lat="49.93975" lon="2.09704">
        <ele>76.2</ele>
        <time>2022-08-10T07:57:31Z</time>
      </trkpt>
      <trkpt lat="49.93974" lon="2.09703">
        <ele>76.2</ele>
        <time>2022-08-10T07:57:32Z</time>
      </trkpt>
      <trkpt lat="49.93974" lon="2.09702">
        <ele>76.2</ele>
        <time>2022-08-10T07:57:33Z</time>
      </trkpt>
      <trkpt lat="49.93973" lon="2.097">
        <ele>76.2</ele>
        <time>2022-08-10T07:57:34Z</time>
      </trkpt>
      <trkpt lat="49.93972" lon="2.09698">
        <ele>76.3</ele>
        <time>2022-08-10T07:57:35Z</time>
      </trkpt>
      <trkpt lat="49.93971" lon="2.09697">
        <ele>76.3</ele>
        <time>2022-08-10T07:57:36Z</time>
      </trkpt>
      <trkpt lat="49.93971" lon="2.09696">
        <ele>76.3</ele>
        <time>2022-08-10T07:57:37Z</time>
      </trkpt>
      <trkpt lat="49.9397" lon="2.09695">
        <ele>76.4</ele>
        <time>2022-08-10T07:57:39Z</time>
      </trkpt>
      <trkpt lat="49.9397" lon="2.09693">
        <ele>76.4</ele>
        <time>2022-08-10T07:57:40Z</time>
      </trkpt>
      <trkpt lat="49.93969" lon="2.09692">
        <ele>76.4</ele>
        <time>2022-08-10T07:57:41Z</time>
      </trkpt>
      <trkpt lat="49.93968" lon="2.0969">
        <ele>76.5</ele>
        <time>2022-08-10T07:57:42Z</time>
      </trkpt>
      <trkpt lat="49.93968" lon="2.09689">
        <ele>76.5</ele>
        <time>2022-08-10T07:57:43Z</time>
      </trkpt>
      <trkpt lat="49.93967" lon="2.09687">
        <ele>76.5</ele>
        <time>2022-08-10T07:57:44Z</time>
      </trkpt>
      <trkpt lat="49.93967" lon="2.09686">
        <ele>76.6</ele>
        <time>2022-08-10T07:57:46Z</time>
      </trkpt>
      <trkpt lat="49.93966" lon="2.09685">
        <ele>76.6</ele>
        <time>2022-08-10T07:57:47Z</time>
      </trkpt>
      <trkpt lat="49.93965" lon="2.09683">
        <ele>76.6</ele>
        <time>2022-08-10T07:57:48Z</time>
      </trkpt>
      <trkpt lat="49.93965" lon="2.09682">
        <ele>76.7</ele>
        <time>2022-08-10T07:57:49Z</time>
      </trkpt>
      <trkpt lat="49.93965" lon="2.0968">
        <ele>76.7</ele>
        <time>2022-08-10T07:57:50Z</time>
      </trkpt>
      <trkpt lat="49.93964" lon="2.09678">
        <ele>76.8</ele>
        <time>2022-08-10T07:57:51Z</time>
      </trkpt>
      <trkpt lat="49.93964" lon="2.09677">
        <ele>76.8</ele>
        <time>2022-08-10T07:57:53Z</time>
      </trkpt>
      <trkpt lat="49.93964" lon="2.09675">
        <ele>76.8</ele>
        <time>2022-08-10T07:57:54Z</time>
      </trkpt>
      <trkpt lat="49.93963" lon="2.09674">
        <ele>76.9</ele>
        <time>2022-08-10T07:57:55Z</time>
      </trkpt>
      <trkpt lat="49.93963" lon="2.09673">
        <ele>76.9</ele>
        <time>2022-08-10T07:57:56Z</time>
      </trkpt>
      <trkpt lat="49.93963" lon="2.09671">
        <ele>76.9</ele>
        <time>2022-08-10T07:57:57Z</time>
      </trkpt>
      <trkpt lat="49.93962" lon="2.0967">
        <ele>77</ele>
        <time>2022-08-10T07:57:58Z</time>
      </trkpt>
      <trkpt lat="49.93962" lon="2.09669">
        <ele>77</ele>
        <time>2022-08-10T07:57:59Z</time>
      </trkpt>
      <trkpt lat="49.93962" lon="2.09668">
        <ele>77</ele>
        <time>2022-08-10T07:58:00Z</time>
      </trkpt>
      <trkpt lat="49.93961" lon="2.09666">
        <ele>77.1</ele>
        <time>2022-08-10T07:58:01Z</time>
      </trkpt>
      <trkpt lat="49.9396" lon="2.09664">
        <ele>77.1</ele>
        <time>2022-08-10T07:58:02Z</time>
      </trkpt>
      <trkpt lat="49.9396" lon="2.09663">
        <ele>77.2</ele>
        <time>2022-08-10T07:58:04Z</time>
      </trkpt>
      <trkpt lat="49.93959" lon="2.09661">
        <ele>77.2</ele>
        <time>2022-08-10T07:58:05Z</time>
      </trkpt>
      <trkpt lat="49.93959" lon="2.0966">
        <ele>77.3</ele>
        <time>2022-08-10T07:58:06Z</time>
      </trkpt>
      <trkpt lat="49.93958" lon="2.09658">
        <ele>77.3</ele>
        <time>2022-08-10T07:58:07Z</time>
      </trkpt>
      <trkpt lat="49.93957" lon="2.09656">
        <ele>77.4</ele>
        <time>2022-08-10T07:58:08Z</time>
      </trkpt>
      <trkpt lat="49.93956" lon="2.09654">
        <ele>77.4</ele>
        <time>2022-08-10T07:58:09Z</time>
      </trkpt>
      <trkpt lat="49.93956" lon="2.09653">
        <ele>77.5</ele>
        <time>2022-08-10T07:58:10Z</time>
      </trkpt>
      <trkpt lat="49.93956" lon="2.09652">
        <ele>77.5</ele>
        <time>2022-08-10T07:58:12Z</time>
      </trkpt>
      <trkpt lat="49.93955" lon="2.09651">
        <ele>77.5</ele>
        <time>2022-08-10T07:58:13Z</time>
      </trkpt>
      <trkpt lat="49.93955" lon="2.09649">
        <ele>77.6</ele>
        <time>2022-08-10T07:58:14Z</time>
      </trkpt>
      <trkpt lat="49.93954" lon="2.09647">
        <ele>77.6</ele>
        <time>2022-08-10T07:58:15Z</time>
      </trkpt>
      <trkpt lat="49.93954" lon="2.09646">
        <ele>77.7</ele>
        <time>2022-08-10T07:58:16Z</time>
      </trkpt>
      <trkpt lat="49.93953" lon="2.09644">
        <ele>77.7</ele>
        <time>2022-08-10T07:58:17Z</time>
      </trkpt>
      <trkpt lat="49.93953" lon="2.09642">
        <ele>77.8</ele>
        <time>2022-08-10T07:58:18Z</time>
      </trkpt>
      <trkpt lat="49.93952" lon="2.0964">
        <ele>77.9</ele>
        <time>2022-08-10T07:58:19Z</time>
      </trkpt>
      <trkpt lat="49.9395" lon="2.09638">
        <ele>77.9</ele>
        <time>2022-08-10T07:58:21Z</time>
      </trkpt>
      <trkpt lat="49.9395" lon="2.09637">
        <ele>78</ele>
        <time>2022-08-10T07:58:22Z</time>
      </trkpt>
      <trkpt lat="49.93949" lon="2.09636">
        <ele>78</ele>
        <time>2022-08-10T07:58:23Z</time>
      </trkpt>
      <trkpt lat="49.93948" lon="2.09635">
        <ele>78</ele>
        <time>2022-08-10T07:58:24Z</time>
      </trkpt>
      <trkpt lat="49.93948" lon="2.09633">
        <ele>78.1</ele>
        <time>2022-08-10T07:58:25Z</time>
      </trkpt>
      <trkpt lat="49.93947" lon="2.09632">
        <ele>78.1</ele>
        <time>2022-08-10T07:58:26Z</time>
      </trkpt>
      <trkpt lat="49.93946" lon="2.0963">
        <ele>78.2</ele>
        <time>2022-08-10T07:58:27Z</time>
      </trkpt>
      <trkpt lat="49.93946" lon="2.09629">
        <ele>78.2</ele>
        <time>2022-08-10T07:58:28Z</time>
      </trkpt>
      <trkpt lat="49.93945" lon="2.09627">
        <ele>78.3</ele>
        <time>2022-08-10T07:58:30Z</time>
      </trkpt>
      <trkpt lat="49.93945" lon="2.09625">
        <ele>78.3</ele>
        <time>2022-08-10T07:58:31Z</time>
      </trkpt>
      <trkpt lat="49.93944" lon="2.09624">
        <ele>78.4</ele>
        <time>2022-08-10T07:58:32Z</time>
      </trkpt>
      <trkpt lat="49.93944" lon="2.09623">
        <ele>78.4</ele>
        <time>2022-08-10T07:58:33Z</time>
      </trkpt>
      <trkpt lat="49.93942" lon="2.0962">
        <ele>78.5</ele>
        <time>2022-08-10T07:58:34Z</time>
      </trkpt>
      <trkpt lat="49.93942" lon="2.09619">
        <ele>78.6</ele>
        <time>2022-08-10T07:58:35Z</time>
      </trkpt>
      <trkpt lat="49.93941" lon="2.09617">
        <ele>78.6</ele>
        <time>2022-08-10T07:58:36Z</time>
      </trkpt>
      <trkpt lat="49.93941" lon="2.09616">
        <ele>78.6</ele>
        <time>2022-08-10T07:58:38Z</time>
      </trkpt>
      <trkpt lat="49.9394" lon="2.09615">
        <ele>78.7</ele>
        <time>2022-08-10T07:58:39Z</time>
      </trkpt>
      <trkpt lat="49.93939" lon="2.09613">
        <ele>78.7</ele>
        <time>2022-08-10T07:58:40Z</time>
      </trkpt>
      <trkpt lat="49.93939" lon="2.09612">
        <ele>78.8</ele>
        <time>2022-08-10T07:58:41Z</time>
      </trkpt>
      <trkpt lat="49.93938" lon="2.0961">
        <ele>78.8</ele>
        <time>2022-08-10T07:58:42Z</time>
      </trkpt>
      <trkpt lat="49.93937" lon="2.09609">
        <ele>78.9</ele>
        <time>2022-08-10T07:58:43Z</time>
      </trkpt>
      <trkpt lat="49.93937" lon="2.09607">
        <ele>78.9</ele>
        <time>2022-08-10T07:58:44Z</time>
      </trkpt>
      <trkpt lat="49.93936" lon="2.09606">
        <ele>79</ele>
        <time>2022-08-10T07:58:46Z</time>
      </trkpt>
      <trkpt lat="49.93936" lon="2.09604">
        <ele>79</ele>
        <time>2022-08-10T07:58:47Z</time>
      </trkpt>
      <trkpt lat="49.93935" lon="2.09602">
        <ele>79.1</ele>
        <time>2022-08-10T07:58:48Z</time>
      </trkpt>
      <trkpt lat="49.93935" lon="2.09601">
        <ele>79.1</ele>
        <time>2022-08-10T07:58:49Z</time>
      </trkpt>
      <trkpt lat="49.93934" lon="2.096">
        <ele>79.2</ele>
        <time>2022-08-10T07:58:50Z</time>
      </trkpt>
      <trkpt lat="49.93933" lon="2.09598">
        <ele>79.2</ele>
        <time>2022-08-10T07:58:51Z</time>
      </trkpt>
      <trkpt lat="49.93933" lon="2.09597">
        <ele>79.3</ele>
        <time>2022-08-10T07:58:52Z</time>
      </trkpt>
      <trkpt lat="49.93932" lon="2.09596">
        <ele>79.3</ele>
        <time>2022-08-10T07:58:54Z</time>
      </trkpt>
      <trkpt lat="49.93931" lon="2.09594">
        <ele>79.4</ele>
        <time>2022-08-10T07:58:55Z</time>
      </trkpt>
      <trkpt lat="49.93931" lon="2.09593">
        <ele>79.5</ele>
        <time>2022-08-10T07:58:56Z</time>
      </trkpt>
      <trkpt lat="49.9393" lon="2.09591">
        <ele>79.5</ele>
        <time>2022-08-10T07:58:57Z</time>
      </trkpt>
      <trkpt lat="49.9393" lon="2.0959">
        <ele>79.5</ele>
        <time>2022-08-10T07:58:58Z</time>
      </trkpt>
      <trkpt lat="49.93929" lon="2.09589">
        <ele>79.6</ele>
        <time>2022-08-10T07:58:59Z</time>
      </trkpt>
      <trkpt lat="49.93929" lon="2.09588">
        <ele>79.6</ele>
        <time>2022-08-10T07:59:00Z</time>
      </trkpt>
      <trkpt lat="49.93928" lon="2.09587">
        <ele>79.7</ele>
        <time>2022-08-10T07:59:01Z</time>
      </trkpt>
      <trkpt lat="49.93928" lon="2.09585">
        <ele>79.7</ele>
        <time>2022-08-10T07:59:02Z</time>
      </trkpt>
      <trkpt lat="49.93927" lon="2.09584">
        <ele>79.8</ele>
        <time>2022-08-10T07:59:03Z</time>
      </trkpt>
      <trkpt lat="49.93927" lon="2.09582">
        <ele>79.8</ele>
        <time>2022-08-10T07:59:04Z</time>
      </trkpt>
      <trkpt lat="49.93926" lon="2.0958">
        <ele>79.9</ele>
        <time>2022-08-10T07:59:05Z</time>
      </trkpt>
      <trkpt lat="49.93926" lon="2.09579">
        <ele>79.9</ele>
        <time>2022-08-10T07:59:07Z</time>
      </trkpt>
      <trkpt lat="49.93925" lon="2.09577">
        <ele>80</ele>
        <time>2022-08-10T07:59:08Z</time>
      </trkpt>
      <trkpt lat="49.93925" lon="2.09576">
        <ele>80</ele>
        <time>2022-08-10T07:59:09Z</time>
      </trkpt>
      <trkpt lat="49.93924" lon="2.09574">
        <ele>80.1</ele>
        <time>2022-08-10T07:59:10Z</time>
      </trkpt>
      <trkpt lat="49.93924" lon="2.09573">
        <ele>80.2</ele>
        <time>2022-08-10T07:59:11Z</time>
      </trkpt>
      <trkpt lat="49.93923" lon="2.09571">
        <ele>80.2</ele>
        <time>2022-08-10T07:59:12Z</time>
      </trkpt>
      <trkpt lat="49.93923" lon="2.0957">
        <ele>80.3</ele>
        <time>2022-08-10T07:59:14Z</time>
      </trkpt>
      <trkpt lat="49.93922" lon="2.09569">
        <ele>80.3</ele>
        <time>2022-08-10T07:59:15Z</time>
      </trkpt>
      <trkpt lat="49.93921" lon="2.09567">
        <ele>80.4</ele>
        <time>2022-08-10T07:59:16Z</time>
      </trkpt>
      <trkpt lat="49.93921" lon="2.09566">
        <ele>80.4</ele>
        <time>2022-08-10T07:59:17Z</time>
      </trkpt>
      <trkpt lat="49.9392" lon="2.09565">
        <ele>80.4</ele>
        <time>2022-08-10T07:59:18Z</time>
      </trkpt>
      <trkpt lat="49.9392" lon="2.09564">
        <ele>80.5</ele>
        <time>2022-08-10T07:59:19Z</time>
      </trkpt>
      <trkpt lat="49.93919" lon="2.09562">
        <ele>80.6</ele>
        <time>2022-08-10T07:59:20Z</time>
      </trkpt>
      <trkpt lat="49.93919" lon="2.09561">
        <ele>80.6</ele>
        <time>2022-08-10T07:59:21Z</time>
      </trkpt>
      <trkpt lat="49.93917" lon="2.09558">
        <ele>80.7</ele>
        <time>2022-08-10T07:59:22Z</time>
      </trkpt>
      <trkpt lat="49.93917" lon="2.09557">
        <ele>80.7</ele>
        <time>2022-08-10T07:59:23Z</time>
      </trkpt>
      <trkpt lat="49.93916" lon="2.09556">
        <ele>80.8</ele>
        <time>2022-08-10T07:59:24Z</time>
      </trkpt>
      <trkpt lat="49.93916" lon="2.09555">
        <ele>80.8</ele>
        <time>2022-08-10T07:59:25Z</time>
      </trkpt>
      <trkpt lat="49.93915" lon="2.09553">
        <ele>80.9</ele>
        <time>2022-08-10T07:59:27Z</time>
      </trkpt>
      <trkpt lat="49.93915" lon="2.09551">
        <ele>80.9</ele>
        <time>2022-08-10T07:59:28Z</time>
      </trkpt>
      <trkpt lat="49.93914" lon="2.0955">
        <ele>81</ele>
        <time>2022-08-10T07:59:29Z</time>
      </trkpt>
      <trkpt lat="49.93914" lon="2.09548">
        <ele>81</ele>
        <time>2022-08-10T07:59:30Z</time>
      </trkpt>
      <trkpt lat="49.93913" lon="2.09547">
        <ele>81.1</ele>
        <time>2022-08-10T07:59:31Z</time>
      </trkpt>
      <trkpt lat="49.93912" lon="2.09544">
        <ele>81.1</ele>
        <time>2022-08-10T07:59:32Z</time>
      </trkpt>
      <trkpt lat="49.93912" lon="2.09543">
        <ele>81.2</ele>
        <time>2022-08-10T07:59:33Z</time>
      </trkpt>
      <trkpt lat="49.93911" lon="2.09542">
        <ele>81.2</ele>
        <time>2022-08-10T07:59:35Z</time>
      </trkpt>
      <trkpt lat="49.93911" lon="2.0954">
        <ele>81.3</ele>
        <time>2022-08-10T07:59:36Z</time>
      </trkpt>
      <trkpt lat="49.9391" lon="2.09538">
        <ele>81.3</ele>
        <time>2022-08-10T07:59:37Z</time>
      </trkpt>
      <trkpt lat="49.9391" lon="2.09537">
        <ele>81.4</ele>
        <time>2022-08-10T07:59:38Z</time>
      </trkpt>
      <trkpt lat="49.93909" lon="2.09534">
        <ele>81.4</ele>
        <time>2022-08-10T07:59:39Z</time>
      </trkpt>
      <trkpt lat="49.93908" lon="2.09533">
        <ele>81.5</ele>
        <time>2022-08-10T07:59:40Z</time>
      </trkpt>
      <trkpt lat="49.93908" lon="2.09532">
        <ele>81.5</ele>
        <time>2022-08-10T07:59:42Z</time>
      </trkpt>
      <trkpt lat="49.93907" lon="2.0953">
        <ele>81.6</ele>
        <time>2022-08-10T07:59:43Z</time>
      </trkpt>
      <trkpt lat="49.93907" lon="2.09529">
        <ele>81.6</ele>
        <time>2022-08-10T07:59:44Z</time>
      </trkpt>
      <trkpt lat="49.93906" lon="2.09527">
        <ele>81.6</ele>
        <time>2022-08-10T07:59:45Z</time>
      </trkpt>
      <trkpt lat="49.93905" lon="2.09525">
        <ele>81.7</ele>
        <time>2022-08-10T07:59:46Z</time>
      </trkpt>
      <trkpt lat="49.93905" lon="2.09524">
        <ele>81.7</ele>
        <time>2022-08-10T07:59:47Z</time>
      </trkpt>
      <trkpt lat="49.93904" lon="2.09522">
        <ele>81.8</ele>
        <time>2022-08-10T07:59:48Z</time>
      </trkpt>
      <trkpt lat="49.93904" lon="2.09521">
        <ele>81.8</ele>
        <time>2022-08-10T07:59:50Z</time>
      </trkpt>
      <trkpt lat="49.93903" lon="2.09519">
        <ele>81.9</ele>
        <time>2022-08-10T07:59:51Z</time>
      </trkpt>
      <trkpt lat="49.93903" lon="2.09518">
        <ele>81.9</ele>
        <time>2022-08-10T07:59:52Z</time>
      </trkpt>
      <trkpt lat="49.93902" lon="2.09517">
        <ele>81.9</ele>
        <time>2022-08-10T07:59:53Z</time>
      </trkpt>
      <trkpt lat="49.93902" lon="2.09515">
        <ele>82</ele>
        <time>2022-08-10T07:59:54Z</time>
      </trkpt>
      <trkpt lat="49.93901" lon="2.09514">
        <ele>82</ele>
        <time>2022-08-10T07:59:55Z</time>
      </trkpt>
      <trkpt lat="49.939" lon="2.09511">
        <ele>82.1</ele>
        <time>2022-08-10T07:59:56Z</time>
      </trkpt>
      <trkpt lat="49.939" lon="2.0951">
        <ele>82.2</ele>
        <time>2022-08-10T07:59:58Z</time>
      </trkpt>
      <trkpt lat="49.93899" lon="2.09509">
        <ele>82.2</ele>
        <time>2022-08-10T07:59:59Z</time>
      </trkpt>
      <trkpt lat="49.93899" lon="2.09507">
        <ele>82.2</ele>
        <time>2022-08-10T08:00:00Z</time>
      </trkpt>
      <trkpt lat="49.93898" lon="2.09506">
        <ele>82.3</ele>
        <time>2022-08-10T08:00:01Z</time>
      </trkpt>
      <trkpt lat="49.93898" lon="2.09505">
        <ele>82.3</ele>
        <time>2022-08-10T08:00:02Z</time>
      </trkpt>
      <trkpt lat="49.93897" lon="2.09503">
        <ele>82.4</ele>
        <time>2022-08-10T08:00:03Z</time>
      </trkpt>
      <trkpt lat="49.93897" lon="2.09501">
        <ele>82.4</ele>
        <time>2022-08-10T08:00:04Z</time>
      </trkpt>
      <trkpt lat="49.93896" lon="2.095">
        <ele>82.5</ele>
        <time>2022-08-10T08:00:05Z</time>
      </trkpt>
      <trkpt lat="49.93895" lon="2.09497">
        <ele>82.6</ele>
        <time>2022-08-10T08:00:07Z</time>
      </trkpt>
      <trkpt lat="49.93895" lon="2.09496">
        <ele>82.6</ele>
        <time>2022-08-10T08:00:08Z</time>
      </trkpt>
      <trkpt lat="49.93895" lon="2.09495">
        <ele>82.6</ele>
        <time>2022-08-10T08:00:09Z</time>
      </trkpt>
      <trkpt lat="49.93894" lon="2.09493">
        <ele>82.7</ele>
        <time>2022-08-10T08:00:10Z</time>
      </trkpt>
      <trkpt lat="49.93893" lon="2.09492">
        <ele>82.7</ele>
        <time>2022-08-10T08:00:11Z</time>
      </trkpt>
      <trkpt lat="49.93893" lon="2.0949">
        <ele>82.8</ele>
        <time>2022-08-10T08:00:12Z</time>
      </trkpt>
      <trkpt lat="49.93892" lon="2.09489">
        <ele>82.9</ele>
        <time>2022-08-10T08:00:14Z</time>
      </trkpt>
      <trkpt lat="49.93891" lon="2.09487">
        <ele>82.9</ele>
        <time>2022-08-10T08:00:15Z</time>
      </trkpt>
      <trkpt lat="49.93891" lon="2.09486">
        <ele>82.9</ele>
        <time>2022-08-10T08:00:16Z</time>
      </trkpt>
      <trkpt lat="49.9389" lon="2.09485">
        <ele>83</ele>
        <time>2022-08-10T08:00:17Z</time>
      </trkpt>
      <trkpt lat="49.93889" lon="2.09483">
        <ele>83.1</ele>
        <time>2022-08-10T08:00:18Z</time>
      </trkpt>
      <trkpt lat="49.93889" lon="2.09482">
        <ele>83.1</ele>
        <time>2022-08-10T08:00:19Z</time>
      </trkpt>
      <trkpt lat="49.93888" lon="2.09481">
        <ele>83.2</ele>
        <time>2022-08-10T08:00:21Z</time>
      </trkpt>
      <trkpt lat="49.93888" lon="2.09479">
        <ele>83.2</ele>
        <time>2022-08-10T08:00:22Z</time>
      </trkpt>
      <trkpt lat="49.93887" lon="2.09478">
        <ele>83.2</ele>
        <time>2022-08-10T08:00:23Z</time>
      </trkpt>
      <trkpt lat="49.93887" lon="2.09477">
        <ele>83.3</ele>
        <time>2022-08-10T08:00:24Z</time>
      </trkpt>
      <trkpt lat="49.93887" lon="2.09475">
        <ele>83.3</ele>
        <time>2022-08-10T08:00:25Z</time>
      </trkpt>
      <trkpt lat="49.93886" lon="2.09472">
        <ele>83.4</ele>
        <time>2022-08-10T08:00:27Z</time>
      </trkpt>
      <trkpt lat="49.93885" lon="2.09471">
        <ele>83.5</ele>
        <time>2022-08-10T08:00:28Z</time>
      </trkpt>
      <trkpt lat="49.93885" lon="2.09469">
        <ele>83.5</ele>
        <time>2022-08-10T08:00:29Z</time>
      </trkpt>
      <trkpt lat="49.93884" lon="2.09468">
        <ele>83.6</ele>
        <time>2022-08-10T08:00:30Z</time>
      </trkpt>
      <trkpt lat="49.93884" lon="2.09467">
        <ele>83.6</ele>
        <time>2022-08-10T08:00:32Z</time>
      </trkpt>
      <trkpt lat="49.93883" lon="2.09465">
        <ele>83.7</ele>
        <time>2022-08-10T08:00:33Z</time>
      </trkpt>
      <trkpt lat="49.93883" lon="2.09464">
        <ele>83.7</ele>
        <time>2022-08-10T08:00:34Z</time>
      </trkpt>
      <trkpt lat="49.93882" lon="2.09462">
        <ele>83.8</ele>
        <time>2022-08-10T08:00:35Z</time>
      </trkpt>
      <trkpt lat="49.93882" lon="2.09461">
        <ele>83.8</ele>
        <time>2022-08-10T08:00:36Z</time>
      </trkpt>
      <trkpt lat="49.93881" lon="2.09459">
        <ele>83.8</ele>
        <time>2022-08-10T08:00:37Z</time>
      </trkpt>
      <trkpt lat="49.93881" lon="2.09458">
        <ele>83.9</ele>
        <time>2022-08-10T08:00:38Z</time>
      </trkpt>
      <trkpt lat="49.9388" lon="2.09456">
        <ele>83.9</ele>
        <time>2022-08-10T08:00:39Z</time>
      </trkpt>
      <trkpt lat="49.9388" lon="2.09454">
        <ele>84</ele>
        <time>2022-08-10T08:00:41Z</time>
      </trkpt>
      <trkpt lat="49.93879" lon="2.09453">
        <ele>84</ele>
        <time>2022-08-10T08:00:42Z</time>
      </trkpt>
      <trkpt lat="49.93879" lon="2.09451">
        <ele>84.3</ele>
        <time>2022-08-10T08:00:43Z</time>
      </trkpt>
      <trkpt lat="49.93878" lon="2.0945">
        <ele>84.3</ele>
        <time>2022-08-10T08:00:44Z</time>
      </trkpt>
      <trkpt lat="49.93878" lon="2.09448">
        <ele>84.5</ele>
        <time>2022-08-10T08:00:45Z</time>
      </trkpt>
      <trkpt lat="49.93878" lon="2.09446">
        <ele>84.5</ele>
        <time>2022-08-10T08:00:46Z</time>
      </trkpt>
      <trkpt lat="49.93877" lon="2.09445">
        <ele>84.5</ele>
        <time>2022-08-10T08:00:48Z</time>
      </trkpt>
      <trkpt lat="49.93876" lon="2.09443">
        <ele>84.8</ele>
        <time>2022-08-10T08:00:49Z</time>
      </trkpt>
      <trkpt lat="49.93876" lon="2.09442">
        <ele>84.8</ele>
        <time>2022-08-10T08:00:50Z</time>
      </trkpt>
      <trkpt lat="49.93875" lon="2.09441">
        <ele>84.8</ele>
        <time>2022-08-10T08:00:51Z</time>
      </trkpt>
      <trkpt lat="49.93874" lon="2.09439">
        <ele>85.2</ele>
        <time>2022-08-10T08:00:52Z</time>
      </trkpt>
      <trkpt lat="49.93873" lon="2.09438">
        <ele>85.2</ele>
        <time>2022-08-10T08:00:54Z</time>
      </trkpt>
      <trkpt lat="49.93873" lon="2.09437">
        <ele>85.2</ele>
        <time>2022-08-10T08:00:55Z</time>
      </trkpt>
      <trkpt lat="49.93872" lon="2.09435">
        <ele>85.4</ele>
        <time>2022-08-10T08:00:56Z</time>
      </trkpt>
      <trkpt lat="49.93871" lon="2.09434">
        <ele>85.5</ele>
        <time>2022-08-10T08:00:58Z</time>
      </trkpt>
      <trkpt lat="49.9387" lon="2.09433">
        <ele>85.5</ele>
        <time>2022-08-10T08:01:00Z</time>
      </trkpt>
      <trkpt lat="49.93869" lon="2.09432">
        <ele>85.5</ele>
        <time>2022-08-10T08:01:01Z</time>
      </trkpt>
      <trkpt lat="49.93869" lon="2.09431">
        <ele>85.5</ele>
        <time>2022-08-10T08:01:02Z</time>
      </trkpt>
      <trkpt lat="49.93868" lon="2.09431">
        <ele>85.7</ele>
        <time>2022-08-10T08:01:03Z</time>
      </trkpt>
      <trkpt lat="49.93867" lon="2.0943">
        <ele>85.9</ele>
        <time>2022-08-10T08:01:04Z</time>
      </trkpt>
      <trkpt lat="49.93867" lon="2.0943">
        <ele>85.9</ele>
        <time>2022-08-10T08:01:05Z</time>
      </trkpt>
      <trkpt lat="49.93866" lon="2.09429">
        <ele>85.9</ele>
        <time>2022-08-10T08:01:06Z</time>
      </trkpt>
      <trkpt lat="49.93866" lon="2.09428">
        <ele>85.9</ele>
        <time>2022-08-10T08:01:07Z</time>
      </trkpt>
      <trkpt lat="49.93865" lon="2.09427">
        <ele>86</ele>
        <time>2022-08-10T08:01:09Z</time>
      </trkpt>
      <trkpt lat="49.93865" lon="2.09427">
        <ele>86.2</ele>
        <time>2022-08-10T08:01:10Z</time>
      </trkpt>
      <trkpt lat="49.93864" lon="2.09426">
        <ele>86.2</ele>
        <time>2022-08-10T08:01:11Z</time>
      </trkpt>
      <trkpt lat="49.93864" lon="2.09426">
        <ele>86.2</ele>
        <time>2022-08-10T08:01:13Z</time>
      </trkpt>
      <trkpt lat="49.93863" lon="2.09425">
        <ele>86.2</ele>
        <time>2022-08-10T08:01:14Z</time>
      </trkpt>
      <trkpt lat="49.93863" lon="2.09425">
        <ele>86.2</ele>
        <time>2022-08-10T08:01:15Z</time>
      </trkpt>
      <trkpt lat="49.93863" lon="2.09424">
        <ele>86.2</ele>
        <time>2022-08-10T08:01:16Z</time>
      </trkpt>
      <trkpt lat="49.93864" lon="2.09424">
        <ele>86.2</ele>
        <time>2022-08-10T08:01:17Z</time>
      </trkpt>
      <trkpt lat="49.93864" lon="2.09423">
        <ele>86.2</ele>
        <time>2022-08-10T08:01:18Z</time>
      </trkpt>
      <trkpt lat="49.93865" lon="2.09424">
        <ele>86.2</ele>
        <time>2022-08-10T08:01:19Z</time>
      </trkpt>
      <trkpt lat="49.93865" lon="2.09424">
        <ele>86.2</ele>
        <time>2022-08-10T08:01:20Z</time>
      </trkpt>
      <trkpt lat="49.93866" lon="2.09424">
        <ele>86.1</ele>
        <time>2022-08-10T08:01:21Z</time>
      </trkpt>
      <trkpt lat="49.93866" lon="2.09424">
        <ele>86.1</ele>
        <time>2022-08-10T08:01:22Z</time>
      </trkpt>
      <trkpt lat="49.93866" lon="2.09424">
        <ele>86.1</ele>
        <time>2022-08-10T08:01:23Z</time>
      </trkpt>
      <trkpt lat="49.93866" lon="2.09424">
        <ele>86.1</ele>
        <time>2022-08-10T08:01:24Z</time>
      </trkpt>
      <trkpt lat="49.93866" lon="2.09424">
        <ele>86.1</ele>
        <time>2022-08-10T08:01:25Z</time>
      </trkpt>
      <trkpt lat="49.93866" lon="2.09424">
        <ele>86.1</ele>
        <time>2022-08-10T08:01:26Z</time>
      </trkpt>
      <trkpt lat="49.93866" lon="2.09424">
        <ele>86.1</ele>
        <time>2022-08-10T08:01:27Z</time>
      </trkpt>
      <trkpt lat="49.93866" lon="2.09424">
        <ele>86.1</ele>
        <time>2022-08-10T08:01:28Z</time>
      </trkpt>
      <trkpt lat="49.93866" lon="2.09424">
        <ele>86.1</ele>
        <time>2022-08-10T08:01:29Z</time>
      </trkpt>
      <trkpt lat="49.93867" lon="2.09424">
        <ele>86.1</ele>
        <time>2022-08-10T08:01:30Z</time>
      </trkpt>
      <trkpt lat="49.93867" lon="2.09424">
        <ele>86.1</ele>
        <time>2022-08-10T08:01:31Z</time>
      </trkpt>
      <trkpt lat="49.93866" lon="2.09423">
        <ele>86.1</ele>
        <time>2022-08-10T08:01:33Z</time>
      </trkpt>
      <trkpt lat="49.93866" lon="2.09423">
        <ele>86.1</ele>
        <time>2022-08-10T08:01:34Z</time>
      </trkpt>
      <trkpt lat="49.93866" lon="2.09423">
        <ele>86.1</ele>
        <time>2022-08-10T08:01:35Z</time>
      </trkpt>
      <trkpt lat="49.93866" lon="2.09424">
        <ele>86.1</ele>
        <time>2022-08-10T08:01:37Z</time>
      </trkpt>
      <trkpt lat="49.93866" lon="2.09424">
        <ele>86.1</ele>
        <time>2022-08-10T08:01:38Z</time>
      </trkpt>
      <trkpt lat="49.93867" lon="2.09424">
        <ele>86.1</ele>
        <time>2022-08-10T08:01:39Z</time>
      </trkpt>
      <trkpt lat="49.93868" lon="2.09425">
        <ele>86</ele>
        <time>2022-08-10T08:01:40Z</time>
      </trkpt>
      <trkpt lat="49.9387" lon="2.09425">
        <ele>86</ele>
        <time>2022-08-10T08:01:41Z</time>
      </trkpt>
      <trkpt lat="49.93871" lon="2.09426">
        <ele>86</ele>
        <time>2022-08-10T08:01:43Z</time>
      </trkpt>
      <trkpt lat="49.93872" lon="2.09425">
        <ele>85.9</ele>
        <time>2022-08-10T08:01:44Z</time>
      </trkpt>
      <trkpt lat="49.93873" lon="2.09425">
        <ele>85.9</ele>
        <time>2022-08-10T08:01:45Z</time>
      </trkpt>
      <trkpt lat="49.93872" lon="2.09422">
        <ele>86.1</ele>
        <time>2022-08-10T08:01:46Z</time>
      </trkpt>
      <trkpt lat="49.9387" lon="2.09419">
        <ele>86.2</ele>
        <time>2022-08-10T08:01:48Z</time>
      </trkpt>
      <trkpt lat="49.93869" lon="2.09417">
        <ele>86.5</ele>
        <time>2022-08-10T08:01:49Z</time>
      </trkpt>
      <trkpt lat="49.93867" lon="2.09415">
        <ele>86.6</ele>
        <time>2022-08-10T08:01:50Z</time>
      </trkpt>
      <trkpt lat="49.93865" lon="2.09414">
        <ele>87</ele>
        <time>2022-08-10T08:01:52Z</time>
      </trkpt>
      <trkpt lat="49.93864" lon="2.09413">
        <ele>87</ele>
        <time>2022-08-10T08:01:53Z</time>
      </trkpt>
      <trkpt lat="49.93864" lon="2.09413">
        <ele>87</ele>
        <time>2022-08-10T08:01:54Z</time>
      </trkpt>
      <trkpt lat="49.93863" lon="2.09413">
        <ele>87</ele>
        <time>2022-08-10T08:01:55Z</time>
      </trkpt>
      <trkpt lat="49.93863" lon="2.09413">
        <ele>87.1</ele>
        <time>2022-08-10T08:01:56Z</time>
      </trkpt>
      <trkpt lat="49.93862" lon="2.09413">
        <ele>87.1</ele>
        <time>2022-08-10T08:01:57Z</time>
      </trkpt>
      <trkpt lat="49.93862" lon="2.09414">
        <ele>87.1</ele>
        <time>2022-08-10T08:01:58Z</time>
      </trkpt>
      <trkpt lat="49.93861" lon="2.09414">
        <ele>87.1</ele>
        <time>2022-08-10T08:01:59Z</time>
      </trkpt>
      <trkpt lat="49.93861" lon="2.09414">
        <ele>87.1</ele>
        <time>2022-08-10T08:02:00Z</time>
      </trkpt>
      <trkpt lat="49.93861" lon="2.09414">
        <ele>86.8</ele>
        <time>2022-08-10T08:02:01Z</time>
      </trkpt>
      <trkpt lat="49.93861" lon="2.09414">
        <ele>86.8</ele>
        <time>2022-08-10T08:02:02Z</time>
      </trkpt>
      <trkpt lat="49.9386" lon="2.09414">
        <ele>86.8</ele>
        <time>2022-08-10T08:02:03Z</time>
      </trkpt>
      <trkpt lat="49.9386" lon="2.09415">
        <ele>86.8</ele>
        <time>2022-08-10T08:02:04Z</time>
      </trkpt>
      <trkpt lat="49.9386" lon="2.09415">
        <ele>86.8</ele>
        <time>2022-08-10T08:02:05Z</time>
      </trkpt>
      <trkpt lat="49.9386" lon="2.09416">
        <ele>86.9</ele>
        <time>2022-08-10T08:02:06Z</time>
      </trkpt>
      <trkpt lat="49.93859" lon="2.09416">
        <ele>86.9</ele>
        <time>2022-08-10T08:02:07Z</time>
      </trkpt>
      <trkpt lat="49.93859" lon="2.09417">
        <ele>86.9</ele>
        <time>2022-08-10T08:02:08Z</time>
      </trkpt>
      <trkpt lat="49.93859" lon="2.09418">
        <ele>86.9</ele>
        <time>2022-08-10T08:02:09Z</time>
      </trkpt>
      <trkpt lat="49.93859" lon="2.09418">
        <ele>86.9</ele>
        <time>2022-08-10T08:02:10Z</time>
      </trkpt>
      <trkpt lat="49.93859" lon="2.09419">
        <ele>86.7</ele>
        <time>2022-08-10T08:02:11Z</time>
      </trkpt>
      <trkpt lat="49.93859" lon="2.09419">
        <ele>86.7</ele>
        <time>2022-08-10T08:02:12Z</time>
      </trkpt>
      <trkpt lat="49.93859" lon="2.09419">
        <ele>86.7</ele>
        <time>2022-08-10T08:02:13Z</time>
      </trkpt>
      <trkpt lat="49.93859" lon="2.09419">
        <ele>86.7</ele>
        <time>2022-08-10T08:02:14Z</time>
      </trkpt>
      <trkpt lat="49.93859" lon="2.0942">
        <ele>86.7</ele>
        <time>2022-08-10T08:02:15Z</time>
      </trkpt>
      <trkpt lat="49.93859" lon="2.0942">
        <ele>86.7</ele>
        <time>2022-08-10T08:02:16Z</time>
      </trkpt>
      <trkpt lat="49.93859" lon="2.0942">
        <ele>86.7</ele>
        <time>2022-08-10T08:02:18Z</time>
      </trkpt>
      <trkpt lat="49.93859" lon="2.0942">
        <ele>86.7</ele>
        <time>2022-08-10T08:02:19Z</time>
      </trkpt>
      <trkpt lat="49.93859" lon="2.0942">
        <ele>86.7</ele>
        <time>2022-08-10T08:02:20Z</time>
      </trkpt>
      <trkpt lat="49.93859" lon="2.0942">
        <ele>86.7</ele>
        <time>2022-08-10T08:02:22Z</time>
      </trkpt>
      <trkpt lat="49.93859" lon="2.09421">
        <ele>86.7</ele>
        <time>2022-08-10T08:02:23Z</time>
      </trkpt>
      <trkpt lat="49.93859" lon="2.09421">
        <ele>86.7</ele>
        <time>2022-08-10T08:02:24Z</time>
      </trkpt>
      <trkpt lat="49.93859" lon="2.09421">
        <ele>86.7</ele>
        <time>2022-08-10T08:02:25Z</time>
      </trkpt>
      <trkpt lat="49.93859" lon="2.09421">
        <ele>86.7</ele>
        <time>2022-08-10T08:02:26Z</time>
      </trkpt>
      <trkpt lat="49.93859" lon="2.09421">
        <ele>86.7</ele>
        <time>2022-08-10T08:02:27Z</time>
      </trkpt>
      <trkpt lat="49.93859" lon="2.0942">
        <ele>86.7</ele>
        <time>2022-08-10T08:02:28Z</time>
      </trkpt>
      <trkpt lat="49.93859" lon="2.0942">
        <ele>86.7</ele>
        <time>2022-08-10T08:02:30Z</time>
      </trkpt>
      <trkpt lat="49.93859" lon="2.0942">
        <ele>86.7</ele>
        <time>2022-08-10T08:02:31Z</time>
      </trkpt>
      <trkpt lat="49.93859" lon="2.0942">
        <ele>86.7</ele>
        <time>2022-08-10T08:02:32Z</time>
      </trkpt>
      <trkpt lat="49.93858" lon="2.0942">
        <ele>86.7</ele>
        <time>2022-08-10T08:02:33Z</time>
      </trkpt>
      <trkpt lat="49.93858" lon="2.0942">
        <ele>86.7</ele>
        <time>2022-08-10T08:02:34Z</time>
      </trkpt>
      <trkpt lat="49.93858" lon="2.0942">
        <ele>86.7</ele>
        <time>2022-08-10T08:02:35Z</time>
      </trkpt>
      <trkpt lat="49.93857" lon="2.09419">
        <ele>86.7</ele>
        <time>2022-08-10T08:02:36Z</time>
      </trkpt>
      <trkpt lat="49.93857" lon="2.09419">
        <ele>86.7</ele>
        <time>2022-08-10T08:02:37Z</time>
      </trkpt>
      <trkpt lat="49.93857" lon="2.09419">
        <ele>86.8</ele>
        <time>2022-08-10T08:02:38Z</time>
      </trkpt>
      <trkpt lat="49.93857" lon="2.09419">
        <ele>86.8</ele>
        <time>2022-08-10T08:02:39Z</time>
      </trkpt>
      <trkpt lat="49.93857" lon="2.09419">
        <ele>86.8</ele>
        <time>2022-08-10T08:02:40Z</time>
      </trkpt>
      <trkpt lat="49.93857" lon="2.09419">
        <ele>86.8</ele>
        <time>2022-08-10T08:02:41Z</time>
      </trkpt>
      <trkpt lat="49.93857" lon="2.09419">
        <ele>86.8</ele>
        <time>2022-08-10T08:02:42Z</time>
      </trkpt>
      <trkpt lat="49.93857" lon="2.09419">
        <ele>86.8</ele>
        <time>2022-08-10T08:02:43Z</time>
      </trkpt>
      <trkpt lat="49.93857" lon="2.09419">
        <ele>86.8</ele>
        <time>2022-08-10T08:02:44Z</time>
      </trkpt>
      <trkpt lat="49.93857" lon="2.09419">
        <ele>86.8</ele>
        <time>2022-08-10T08:02:45Z</time>
      </trkpt>
      <trkpt lat="49.93857" lon="2.09418">
        <ele>86.8</ele>
        <time>2022-08-10T08:02:46Z</time>
      </trkpt>
      <trkpt lat="49.93857" lon="2.09418">
        <ele>86.8</ele>
        <time>2022-08-10T08:02:47Z</time>
      </trkpt>
      <trkpt lat="49.93857" lon="2.09418">
        <ele>86.8</ele>
        <time>2022-08-10T08:02:48Z</time>
      </trkpt>
      <trkpt lat="49.93857" lon="2.09417">
        <ele>86.9</ele>
        <time>2022-08-10T08:02:49Z</time>
      </trkpt>
      <trkpt lat="49.93857" lon="2.09417">
        <ele>86.9</ele>
        <time>2022-08-10T08:02:50Z</time>
      </trkpt>
      <trkpt lat="49.93857" lon="2.09416">
        <ele>86.9</ele>
        <time>2022-08-10T08:02:51Z</time>
      </trkpt>
      <trkpt lat="49.93857" lon="2.09416">
        <ele>86.9</ele>
        <time>2022-08-10T08:02:52Z</time>
      </trkpt>
      <trkpt lat="49.93857" lon="2.09416">
        <ele>86.9</ele>
        <time>2022-08-10T08:02:53Z</time>
      </trkpt>
      <trkpt lat="49.93857" lon="2.09416">
        <ele>86.9</ele>
        <time>2022-08-10T08:02:54Z</time>
      </trkpt>
      <trkpt lat="49.93857" lon="2.09416">
        <ele>86.9</ele>
        <time>2022-08-10T08:02:55Z</time>
      </trkpt>
      <trkpt lat="49.93857" lon="2.09416">
        <ele>86.9</ele>
        <time>2022-08-10T08:02:56Z</time>
      </trkpt>
      <trkpt lat="49.93857" lon="2.09416">
        <ele>86.9</ele>
        <time>2022-08-10T08:02:57Z</time>
      </trkpt>
      <trkpt lat="49.93857" lon="2.09416">
        <ele>86.9</ele>
        <time>2022-08-10T08:02:58Z</time>
      </trkpt>
      <trkpt lat="49.93857" lon="2.09416">
        <ele>86.9</ele>
        <time>2022-08-10T08:02:59Z</time>
      </trkpt>
      <trkpt lat="49.93857" lon="2.09416">
        <ele>86.9</ele>
        <time>2022-08-10T08:03:00Z</time>
      </trkpt>
      <trkpt lat="49.93857" lon="2.09416">
        <ele>86.9</ele>
        <time>2022-08-10T08:03:01Z</time>
      </trkpt>
      <trkpt lat="49.93858" lon="2.09416">
        <ele>86.9</ele>
        <time>2022-08-10T08:03:02Z</time>
      </trkpt>
      <trkpt lat="49.93858" lon="2.09416">
        <ele>86.9</ele>
        <time>2022-08-10T08:03:03Z</time>
      </trkpt>
      <trkpt lat="49.93858" lon="2.09416">
        <ele>86.9</ele>
        <time>2022-08-10T08:03:04Z</time>
      </trkpt>
      <trkpt lat="49.93858" lon="2.09416">
        <ele>86.9</ele>
        <time>2022-08-10T08:03:05Z</time>
      </trkpt>
      <trkpt lat="49.93858" lon="2.09416">
        <ele>86.9</ele>
        <time>2022-08-10T08:03:06Z</time>
      </trkpt>
      <trkpt lat="49.93858" lon="2.09416">
        <ele>86.9</ele>
        <time>2022-08-10T08:03:07Z</time>
      </trkpt>
      <trkpt lat="49.93857" lon="2.09418">
        <ele>86.9</ele>
        <time>2022-08-10T08:03:08Z</time>
      </trkpt>
      <trkpt lat="49.93857" lon="2.09419">
        <ele>86.7</ele>
        <time>2022-08-10T08:03:10Z</time>
      </trkpt>
      <trkpt lat="49.93858" lon="2.09419">
        <ele>86.7</ele>
        <time>2022-08-10T08:03:11Z</time>
      </trkpt>
      <trkpt lat="49.93858" lon="2.09419">
        <ele>86.7</ele>
        <time>2022-08-10T08:03:13Z</time>
      </trkpt>
      <trkpt lat="49.93858" lon="2.09419">
        <ele>86.7</ele>
        <time>2022-08-10T08:03:14Z</time>
      </trkpt>
      <trkpt lat="49.93858" lon="2.09419">
        <ele>86.7</ele>
        <time>2022-08-10T08:03:15Z</time>
      </trkpt>
      <trkpt lat="49.93858" lon="2.09419">
        <ele>86.7</ele>
        <time>2022-08-10T08:03:16Z</time>
      </trkpt>
      <trkpt lat="49.93858" lon="2.09419">
        <ele>86.7</ele>
        <time>2022-08-10T08:03:17Z</time>
      </trkpt>
      <trkpt lat="49.93858" lon="2.09419">
        <ele>86.7</ele>
        <time>2022-08-10T08:03:19Z</time>
      </trkpt>
      <trkpt lat="49.93858" lon="2.09419">
        <ele>86.7</ele>
        <time>2022-08-10T08:03:21Z</time>
      </trkpt>
      <trkpt lat="49.93858" lon="2.09419">
        <ele>86.7</ele>
        <time>2022-08-10T08:03:22Z</time>
      </trkpt>
      <trkpt lat="49.93858" lon="2.09418">
        <ele>86.7</ele>
        <time>2022-08-10T08:03:23Z</time>
      </trkpt>
      <trkpt lat="49.93858" lon="2.09418">
        <ele>86.9</ele>
        <time>2022-08-10T08:03:24Z</time>
      </trkpt>
      <trkpt lat="49.93858" lon="2.09418">
        <ele>86.9</ele>
        <time>2022-08-10T08:03:25Z</time>
      </trkpt>
      <trkpt lat="49.93859" lon="2.09417">
        <ele>86.9</ele>
        <time>2022-08-10T08:03:27Z</time>
      </trkpt>
      <trkpt lat="49.93859" lon="2.09417">
        <ele>86.9</ele>
        <time>2022-08-10T08:03:28Z</time>
      </trkpt>
      <trkpt lat="49.93859" lon="2.09417">
        <ele>86.9</ele>
        <time>2022-08-10T08:03:29Z</time>
      </trkpt>
      <trkpt lat="49.93859" lon="2.09416">
        <ele>86.9</ele>
        <time>2022-08-10T08:03:30Z</time>
      </trkpt>
      <trkpt lat="49.93859" lon="2.09416">
        <ele>86.9</ele>
        <time>2022-08-10T08:03:31Z</time>
      </trkpt>
      <trkpt lat="49.93859" lon="2.09416">
        <ele>86.9</ele>
        <time>2022-08-10T08:03:32Z</time>
      </trkpt>
      <trkpt lat="49.93858" lon="2.09416">
        <ele>86.9</ele>
        <time>2022-08-10T08:03:33Z</time>
      </trkpt>
      <trkpt lat="49.93859" lon="2.09415">
        <ele>86.9</ele>
        <time>2022-08-10T08:03:34Z</time>
      </trkpt>
      <trkpt lat="49.93858" lon="2.09415">
        <ele>86.9</ele>
        <time>2022-08-10T08:03:35Z</time>
      </trkpt>
      <trkpt lat="49.93858" lon="2.09414">
        <ele>86.9</ele>
        <time>2022-08-10T08:03:36Z</time>
      </trkpt>
      <trkpt lat="49.93858" lon="2.09414">
        <ele>86.9</ele>
        <time>2022-08-10T08:03:37Z</time>
      </trkpt>
      <trkpt lat="49.93858" lon="2.09414">
        <ele>87.2</ele>
        <time>2022-08-10T08:03:38Z</time>
      </trkpt>
      <trkpt lat="49.93858" lon="2.09414">
        <ele>87.2</ele>
        <time>2022-08-10T08:03:39Z</time>
      </trkpt>
      <trkpt lat="49.93859" lon="2.09412">
        <ele>87.2</ele>
        <time>2022-08-10T08:03:40Z</time>
      </trkpt>
      <trkpt lat="49.93859" lon="2.09411">
        <ele>87.2</ele>
        <time>2022-08-10T08:03:41Z</time>
      </trkpt>
      <trkpt lat="49.93859" lon="2.0941">
        <ele>87.2</ele>
        <time>2022-08-10T08:03:42Z</time>
      </trkpt>
      <trkpt lat="49.93858" lon="2.0941">
        <ele>87.4</ele>
        <time>2022-08-10T08:03:43Z</time>
      </trkpt>
      <trkpt lat="49.93858" lon="2.0941">
        <ele>87.2</ele>
        <time>2022-08-10T08:03:45Z</time>
      </trkpt>
      <trkpt lat="49.93858" lon="2.09411">
        <ele>87.2</ele>
        <time>2022-08-10T08:03:46Z</time>
      </trkpt>
      <trkpt lat="49.93859" lon="2.09411">
        <ele>87.2</ele>
        <time>2022-08-10T08:03:47Z</time>
      </trkpt>
      <trkpt lat="49.93859" lon="2.0941">
        <ele>87.2</ele>
        <time>2022-08-10T08:03:48Z</time>
      </trkpt>
      <trkpt lat="49.93858" lon="2.09408">
        <ele>87.4</ele>
        <time>2022-08-10T08:03:49Z</time>
      </trkpt>
      <trkpt lat="49.93858" lon="2.09407">
        <ele>87.4</ele>
        <time>2022-08-10T08:03:50Z</time>
      </trkpt>
      <trkpt lat="49.93857" lon="2.09405">
        <ele>87.7</ele>
        <time>2022-08-10T08:03:52Z</time>
      </trkpt>
      <trkpt lat="49.93856" lon="2.09403">
        <ele>87.8</ele>
        <time>2022-08-10T08:03:53Z</time>
      </trkpt>
      <trkpt lat="49.93855" lon="2.09399">
        <ele>88</ele>
        <time>2022-08-10T08:03:54Z</time>
      </trkpt>
      <trkpt lat="49.93854" lon="2.09398">
        <ele>88.1</ele>
        <time>2022-08-10T08:03:55Z</time>
      </trkpt>
      <trkpt lat="49.93853" lon="2.09397">
        <ele>88.4</ele>
        <time>2022-08-10T08:03:57Z</time>
      </trkpt>
      <trkpt lat="49.93852" lon="2.09395">
        <ele>88.4</ele>
        <time>2022-08-10T08:03:58Z</time>
      </trkpt>
      <trkpt lat="49.93851" lon="2.09394">
        <ele>88.5</ele>
        <time>2022-08-10T08:03:59Z</time>
      </trkpt>
      <trkpt lat="49.93851" lon="2.09392">
        <ele>88.7</ele>
        <time>2022-08-10T08:04:00Z</time>
      </trkpt>
      <trkpt lat="49.9385" lon="2.09391">
        <ele>88.7</ele>
        <time>2022-08-10T08:04:01Z</time>
      </trkpt>
      <trkpt lat="49.93849" lon="2.09389">
        <ele>88.7</ele>
        <time>2022-08-10T08:04:02Z</time>
      </trkpt>
      <trkpt lat="49.93849" lon="2.09387">
        <ele>88.9</ele>
        <time>2022-08-10T08:04:04Z</time>
      </trkpt>
      <trkpt lat="49.93849" lon="2.09386">
        <ele>88.9</ele>
        <time>2022-08-10T08:04:05Z</time>
      </trkpt>
      <trkpt lat="49.93849" lon="2.09385">
        <ele>89</ele>
        <time>2022-08-10T08:04:07Z</time>
      </trkpt>
      <trkpt lat="49.93849" lon="2.09384">
        <ele>89</ele>
        <time>2022-08-10T08:04:08Z</time>
      </trkpt>
      <trkpt lat="49.93849" lon="2.09383">
        <ele>89.2</ele>
        <time>2022-08-10T08:04:09Z</time>
      </trkpt>
      <trkpt lat="49.93848" lon="2.09382">
        <ele>89.2</ele>
        <time>2022-08-10T08:04:10Z</time>
      </trkpt>
      <trkpt lat="49.93848" lon="2.09381">
        <ele>89.2</ele>
        <time>2022-08-10T08:04:11Z</time>
      </trkpt>
      <trkpt lat="49.93847" lon="2.09381">
        <ele>89.2</ele>
        <time>2022-08-10T08:04:13Z</time>
      </trkpt>
      <trkpt lat="49.93847" lon="2.0938">
        <ele>89.2</ele>
        <time>2022-08-10T08:04:14Z</time>
      </trkpt>
      <trkpt lat="49.93847" lon="2.0938">
        <ele>89.2</ele>
        <time>2022-08-10T08:04:15Z</time>
      </trkpt>
      <trkpt lat="49.93847" lon="2.0938">
        <ele>89.4</ele>
        <time>2022-08-10T08:04:16Z</time>
      </trkpt>
      <trkpt lat="49.93847" lon="2.09379">
        <ele>89.4</ele>
        <time>2022-08-10T08:04:17Z</time>
      </trkpt>
      <trkpt lat="49.93847" lon="2.09379">
        <ele>89.4</ele>
        <time>2022-08-10T08:04:19Z</time>
      </trkpt>
      <trkpt lat="49.93847" lon="2.09379">
        <ele>89.4</ele>
        <time>2022-08-10T08:04:20Z</time>
      </trkpt>
      <trkpt lat="49.93846" lon="2.09379">
        <ele>89.4</ele>
        <time>2022-08-10T08:04:21Z</time>
      </trkpt>
      <trkpt lat="49.93846" lon="2.09378">
        <ele>89.4</ele>
        <time>2022-08-10T08:04:22Z</time>
      </trkpt>
      <trkpt lat="49.93846" lon="2.09378">
        <ele>89.4</ele>
        <time>2022-08-10T08:04:23Z</time>
      </trkpt>
      <trkpt lat="49.93846" lon="2.09377">
        <ele>89.4</ele>
        <time>2022-08-10T08:04:24Z</time>
      </trkpt>
      <trkpt lat="49.93846" lon="2.09376">
        <ele>89.4</ele>
        <time>2022-08-10T08:04:25Z</time>
      </trkpt>
      <trkpt lat="49.93846" lon="2.09376">
        <ele>89.4</ele>
        <time>2022-08-10T08:04:27Z</time>
      </trkpt>
      <trkpt lat="49.93846" lon="2.09375">
        <ele>89.7</ele>
        <time>2022-08-10T08:04:28Z</time>
      </trkpt>
      <trkpt lat="49.93846" lon="2.09374">
        <ele>89.7</ele>
        <time>2022-08-10T08:04:30Z</time>
      </trkpt>
      <trkpt lat="49.93845" lon="2.09373">
        <ele>89.7</ele>
        <time>2022-08-10T08:04:31Z</time>
      </trkpt>
      <trkpt lat="49.93845" lon="2.09371">
        <ele>89.7</ele>
        <time>2022-08-10T08:04:32Z</time>
      </trkpt>
      <trkpt lat="49.93845" lon="2.09369">
        <ele>89.9</ele>
        <time>2022-08-10T08:04:33Z</time>
      </trkpt>
      <trkpt lat="49.93845" lon="2.09368">
        <ele>89.9</ele>
        <time>2022-08-10T08:04:35Z</time>
      </trkpt>
      <trkpt lat="49.93844" lon="2.09366">
        <ele>90.1</ele>
        <time>2022-08-10T08:04:36Z</time>
      </trkpt>
      <trkpt lat="49.93844" lon="2.09364">
        <ele>90.1</ele>
        <time>2022-08-10T08:04:37Z</time>
      </trkpt>
      <trkpt lat="49.93844" lon="2.09363">
        <ele>90.1</ele>
        <time>2022-08-10T08:04:38Z</time>
      </trkpt>
      <trkpt lat="49.93844" lon="2.09361">
        <ele>90.3</ele>
        <time>2022-08-10T08:04:39Z</time>
      </trkpt>
      <trkpt lat="49.93843" lon="2.0936">
        <ele>90.3</ele>
        <time>2022-08-10T08:04:40Z</time>
      </trkpt>
      <trkpt lat="49.93843" lon="2.09359">
        <ele>90.4</ele>
        <time>2022-08-10T08:04:41Z</time>
      </trkpt>
      <trkpt lat="49.93843" lon="2.09358">
        <ele>90.6</ele>
        <time>2022-08-10T08:04:42Z</time>
      </trkpt>
      <trkpt lat="49.93842" lon="2.09357">
        <ele>90.6</ele>
        <time>2022-08-10T08:04:43Z</time>
      </trkpt>
      <trkpt lat="49.93841" lon="2.09357">
        <ele>90.6</ele>
        <time>2022-08-10T08:04:44Z</time>
      </trkpt>
      <trkpt lat="49.93841" lon="2.09355">
        <ele>90.6</ele>
        <time>2022-08-10T08:04:46Z</time>
      </trkpt>
      <trkpt lat="49.9384" lon="2.09353">
        <ele>90.8</ele>
        <time>2022-08-10T08:04:47Z</time>
      </trkpt>
      <trkpt lat="49.9384" lon="2.0935">
        <ele>90.8</ele>
        <time>2022-08-10T08:04:48Z</time>
      </trkpt>
      <trkpt lat="49.93839" lon="2.09348">
        <ele>91</ele>
        <time>2022-08-10T08:04:49Z</time>
      </trkpt>
      <trkpt lat="49.93839" lon="2.09345">
        <ele>91.2</ele>
        <time>2022-08-10T08:04:50Z</time>
      </trkpt>
      <trkpt lat="49.93838" lon="2.09344">
        <ele>91.2</ele>
        <time>2022-08-10T08:04:52Z</time>
      </trkpt>
      <trkpt lat="49.93838" lon="2.09342">
        <ele>91.2</ele>
        <time>2022-08-10T08:04:53Z</time>
      </trkpt>
      <trkpt lat="49.93837" lon="2.09341">
        <ele>91.4</ele>
        <time>2022-08-10T08:04:54Z</time>
      </trkpt>
      <trkpt lat="49.93837" lon="2.09339">
        <ele>91.4</ele>
        <time>2022-08-10T08:04:55Z</time>
      </trkpt>
      <trkpt lat="49.93837" lon="2.0934">
        <ele>91.4</ele>
        <time>2022-08-10T08:04:57Z</time>
      </trkpt>
      <trkpt lat="49.93837" lon="2.0934">
        <ele>91.4</ele>
        <time>2022-08-10T08:04:58Z</time>
      </trkpt>
      <trkpt lat="49.93837" lon="2.0934">
        <ele>91.4</ele>
        <time>2022-08-10T08:05:00Z</time>
      </trkpt>
      <trkpt lat="49.93837" lon="2.0934">
        <ele>91.4</ele>
        <time>2022-08-10T08:05:01Z</time>
      </trkpt>
      <trkpt lat="49.93838" lon="2.0934">
        <ele>91.4</ele>
        <time>2022-08-10T08:05:03Z</time>
      </trkpt>
      <trkpt lat="49.93838" lon="2.09341">
        <ele>91.3</ele>
        <time>2022-08-10T08:05:04Z</time>
      </trkpt>
      <trkpt lat="49.93838" lon="2.09341">
        <ele>91.4</ele>
        <time>2022-08-10T08:05:05Z</time>
      </trkpt>
      <trkpt lat="49.93837" lon="2.09341">
        <ele>91.4</ele>
        <time>2022-08-10T08:05:06Z</time>
      </trkpt>
      <trkpt lat="49.93836" lon="2.09341">
        <ele>91.4</ele>
        <time>2022-08-10T08:05:08Z</time>
      </trkpt>
      <trkpt lat="49.93835" lon="2.0934">
        <ele>91.4</ele>
        <time>2022-08-10T08:05:09Z</time>
      </trkpt>
      <trkpt lat="49.93835" lon="2.09339">
        <ele>91.4</ele>
        <time>2022-08-10T08:05:10Z</time>
      </trkpt>
      <trkpt lat="49.93834" lon="2.09338">
        <ele>91.4</ele>
        <time>2022-08-10T08:05:11Z</time>
      </trkpt>
      <trkpt lat="49.93834" lon="2.09336">
        <ele>91.6</ele>
        <time>2022-08-10T08:05:12Z</time>
      </trkpt>
      <trkpt lat="49.93835" lon="2.09333">
        <ele>91.6</ele>
        <time>2022-08-10T08:05:13Z</time>
      </trkpt>
      <trkpt lat="49.93835" lon="2.0933">
        <ele>91.7</ele>
        <time>2022-08-10T08:05:14Z</time>
      </trkpt>
      <trkpt lat="49.93835" lon="2.09329">
        <ele>91.7</ele>
        <time>2022-08-10T08:05:16Z</time>
      </trkpt>
      <trkpt lat="49.93835" lon="2.09328">
        <ele>91.9</ele>
        <time>2022-08-10T08:05:17Z</time>
      </trkpt>
      <trkpt lat="49.93835" lon="2.09326">
        <ele>91.9</ele>
        <time>2022-08-10T08:05:18Z</time>
      </trkpt>
      <trkpt lat="49.93835" lon="2.09325">
        <ele>91.9</ele>
        <time>2022-08-10T08:05:19Z</time>
      </trkpt>
      <trkpt lat="49.93836" lon="2.09324">
        <ele>91.9</ele>
        <time>2022-08-10T08:05:20Z</time>
      </trkpt>
      <trkpt lat="49.93836" lon="2.09323">
        <ele>92</ele>
        <time>2022-08-10T08:05:21Z</time>
      </trkpt>
      <trkpt lat="49.93836" lon="2.09322">
        <ele>92</ele>
        <time>2022-08-10T08:05:22Z</time>
      </trkpt>
      <trkpt lat="49.93836" lon="2.0932">
        <ele>92</ele>
        <time>2022-08-10T08:05:23Z</time>
      </trkpt>
      <trkpt lat="49.93836" lon="2.09318">
        <ele>92.2</ele>
        <time>2022-08-10T08:05:25Z</time>
      </trkpt>
      <trkpt lat="49.93836" lon="2.09317">
        <ele>92.2</ele>
        <time>2022-08-10T08:05:26Z</time>
      </trkpt>
      <trkpt lat="49.93836" lon="2.09315">
        <ele>92.2</ele>
        <time>2022-08-10T08:05:27Z</time>
      </trkpt>
      <trkpt lat="49.93837" lon="2.09314">
        <ele>92.3</ele>
        <time>2022-08-10T08:05:28Z</time>
      </trkpt>
      <trkpt lat="49.93838" lon="2.09315">
        <ele>92.3</ele>
        <time>2022-08-10T08:05:29Z</time>
      </trkpt>
      <trkpt lat="49.93839" lon="2.09314">
        <ele>92.3</ele>
        <time>2022-08-10T08:05:30Z</time>
      </trkpt>
      <trkpt lat="49.93839" lon="2.09313">
        <ele>92.3</ele>
        <time>2022-08-10T08:05:31Z</time>
      </trkpt>
      <trkpt lat="49.93839" lon="2.09311">
        <ele>92.3</ele>
        <time>2022-08-10T08:05:32Z</time>
      </trkpt>
      <trkpt lat="49.9384" lon="2.0931">
        <ele>92.5</ele>
        <time>2022-08-10T08:05:33Z</time>
      </trkpt>
      <trkpt lat="49.9384" lon="2.09308">
        <ele>92.5</ele>
        <time>2022-08-10T08:05:34Z</time>
      </trkpt>
      <trkpt lat="49.93839" lon="2.09307">
        <ele>92.5</ele>
        <time>2022-08-10T08:05:35Z</time>
      </trkpt>
      <trkpt lat="49.93838" lon="2.09306">
        <ele>92.6</ele>
        <time>2022-08-10T08:05:36Z</time>
      </trkpt>
      <trkpt lat="49.93838" lon="2.09303">
        <ele>92.6</ele>
        <time>2022-08-10T08:05:37Z</time>
      </trkpt>
      <trkpt lat="49.93838" lon="2.09302">
        <ele>92.8</ele>
        <time>2022-08-10T08:05:39Z</time>
      </trkpt>
      <trkpt lat="49.93838" lon="2.09301">
        <ele>92.8</ele>
        <time>2022-08-10T08:05:40Z</time>
      </trkpt>
      <trkpt lat="49.93838" lon="2.093">
        <ele>92.8</ele>
        <time>2022-08-10T08:05:41Z</time>
      </trkpt>
      <trkpt lat="49.93837" lon="2.09296">
        <ele>92.9</ele>
        <time>2022-08-10T08:05:42Z</time>
      </trkpt>
      <trkpt lat="49.93836" lon="2.09295">
        <ele>92.9</ele>
        <time>2022-08-10T08:05:43Z</time>
      </trkpt>
      <trkpt lat="49.93836" lon="2.09293">
        <ele>93.1</ele>
        <time>2022-08-10T08:05:44Z</time>
      </trkpt>
      <trkpt lat="49.93835" lon="2.09291">
        <ele>93.1</ele>
        <time>2022-08-10T08:05:46Z</time>
      </trkpt>
      <trkpt lat="49.93834" lon="2.09289">
        <ele>93.2</ele>
        <time>2022-08-10T08:05:47Z</time>
      </trkpt>
      <trkpt lat="49.93833" lon="2.09287">
        <ele>93.2</ele>
        <time>2022-08-10T08:05:48Z</time>
      </trkpt>
      <trkpt lat="49.93833" lon="2.09285">
        <ele>93.4</ele>
        <time>2022-08-10T08:05:49Z</time>
      </trkpt>
      <trkpt lat="49.93831" lon="2.09283">
        <ele>93.4</ele>
        <time>2022-08-10T08:05:50Z</time>
      </trkpt>
      <trkpt lat="49.93829" lon="2.0928">
        <ele>93.5</ele>
        <time>2022-08-10T08:05:51Z</time>
      </trkpt>
      <trkpt lat="49.93828" lon="2.09279">
        <ele>93.5</ele>
        <time>2022-08-10T08:05:52Z</time>
      </trkpt>
      <trkpt lat="49.93828" lon="2.09277">
        <ele>93.7</ele>
        <time>2022-08-10T08:05:54Z</time>
      </trkpt>
      <trkpt lat="49.93827" lon="2.09274">
        <ele>93.7</ele>
        <time>2022-08-10T08:05:55Z</time>
      </trkpt>
      <trkpt lat="49.93826" lon="2.0927">
        <ele>93.8</ele>
        <time>2022-08-10T08:05:56Z</time>
      </trkpt>
      <trkpt lat="49.93825" lon="2.09269">
        <ele>93.8</ele>
        <time>2022-08-10T08:05:57Z</time>
      </trkpt>
      <trkpt lat="49.93824" lon="2.09264">
        <ele>93.9</ele>
        <time>2022-08-10T08:05:58Z</time>
      </trkpt>
      <trkpt lat="49.93824" lon="2.09263">
        <ele>94</ele>
        <time>2022-08-10T08:05:59Z</time>
      </trkpt>
      <trkpt lat="49.93823" lon="2.09261">
        <ele>94</ele>
        <time>2022-08-10T08:06:00Z</time>
      </trkpt>
      <trkpt lat="49.93823" lon="2.09259">
        <ele>94.2</ele>
        <time>2022-08-10T08:06:02Z</time>
      </trkpt>
      <trkpt lat="49.93822" lon="2.09257">
        <ele>94.2</ele>
        <time>2022-08-10T08:06:03Z</time>
      </trkpt>
      <trkpt lat="49.93822" lon="2.09255">
        <ele>94.3</ele>
        <time>2022-08-10T08:06:04Z</time>
      </trkpt>
      <trkpt lat="49.93821" lon="2.09252">
        <ele>94.3</ele>
        <time>2022-08-10T08:06:05Z</time>
      </trkpt>
      <trkpt lat="49.9382" lon="2.09251">
        <ele>94.3</ele>
        <time>2022-08-10T08:06:06Z</time>
      </trkpt>
      <trkpt lat="49.9382" lon="2.0925">
        <ele>94.4</ele>
        <time>2022-08-10T08:06:07Z</time>
      </trkpt>
      <trkpt lat="49.93819" lon="2.09248">
        <ele>94.4</ele>
        <time>2022-08-10T08:06:08Z</time>
      </trkpt>
      <trkpt lat="49.93818" lon="2.09247">
        <ele>94.4</ele>
        <time>2022-08-10T08:06:09Z</time>
      </trkpt>
      <trkpt lat="49.93818" lon="2.09245">
        <ele>94.5</ele>
        <time>2022-08-10T08:06:11Z</time>
      </trkpt>
      <trkpt lat="49.93817" lon="2.09243">
        <ele>94.5</ele>
        <time>2022-08-10T08:06:12Z</time>
      </trkpt>
      <trkpt lat="49.93817" lon="2.09242">
        <ele>94.6</ele>
        <time>2022-08-10T08:06:13Z</time>
      </trkpt>
      <trkpt lat="49.93816" lon="2.0924">
        <ele>94.6</ele>
        <time>2022-08-10T08:06:14Z</time>
      </trkpt>
      <trkpt lat="49.93815" lon="2.09238">
        <ele>94.6</ele>
        <time>2022-08-10T08:06:15Z</time>
      </trkpt>
      <trkpt lat="49.93814" lon="2.09237">
        <ele>94.6</ele>
        <time>2022-08-10T08:06:16Z</time>
      </trkpt>
      <trkpt lat="49.93814" lon="2.09236">
        <ele>94.6</ele>
        <time>2022-08-10T08:06:17Z</time>
      </trkpt>
      <trkpt lat="49.93813" lon="2.09234">
        <ele>94.6</ele>
        <time>2022-08-10T08:06:18Z</time>
      </trkpt>
      <trkpt lat="49.93813" lon="2.09232">
        <ele>94.7</ele>
        <time>2022-08-10T08:06:20Z</time>
      </trkpt>
      <trkpt lat="49.93812" lon="2.09231">
        <ele>94.7</ele>
        <time>2022-08-10T08:06:21Z</time>
      </trkpt>
      <trkpt lat="49.93812" lon="2.09229">
        <ele>94.8</ele>
        <time>2022-08-10T08:06:22Z</time>
      </trkpt>
      <trkpt lat="49.93811" lon="2.09228">
        <ele>94.8</ele>
        <time>2022-08-10T08:06:23Z</time>
      </trkpt>
      <trkpt lat="49.93811" lon="2.09226">
        <ele>94.8</ele>
        <time>2022-08-10T08:06:24Z</time>
      </trkpt>
      <trkpt lat="49.9381" lon="2.09224">
        <ele>94.9</ele>
        <time>2022-08-10T08:06:25Z</time>
      </trkpt>
      <trkpt lat="49.9381" lon="2.09222">
        <ele>94.9</ele>
        <time>2022-08-10T08:06:26Z</time>
      </trkpt>
      <trkpt lat="49.93809" lon="2.09219">
        <ele>95</ele>
        <time>2022-08-10T08:06:28Z</time>
      </trkpt>
      <trkpt lat="49.93808" lon="2.09218">
        <ele>95</ele>
        <time>2022-08-10T08:06:29Z</time>
      </trkpt>
      <trkpt lat="49.93808" lon="2.09217">
        <ele>95</ele>
        <time>2022-08-10T08:06:30Z</time>
      </trkpt>
      <trkpt lat="49.93807" lon="2.09215">
        <ele>95</ele>
        <time>2022-08-10T08:06:31Z</time>
      </trkpt>
      <trkpt lat="49.93807" lon="2.09214">
        <ele>95</ele>
        <time>2022-08-10T08:06:32Z</time>
      </trkpt>
      <trkpt lat="49.93806" lon="2.09212">
        <ele>95.1</ele>
        <time>2022-08-10T08:06:33Z</time>
      </trkpt>
      <trkpt lat="49.93806" lon="2.09211">
        <ele>95.1</ele>
        <time>2022-08-10T08:06:34Z</time>
      </trkpt>
      <trkpt lat="49.93805" lon="2.09208">
        <ele>95.1</ele>
        <time>2022-08-10T08:06:35Z</time>
      </trkpt>
      <trkpt lat="49.93805" lon="2.09207">
        <ele>95.2</ele>
        <time>2022-08-10T08:06:36Z</time>
      </trkpt>
      <trkpt lat="49.93804" lon="2.09205">
        <ele>95.1</ele>
        <time>2022-08-10T08:06:38Z</time>
      </trkpt>
      <trkpt lat="49.93804" lon="2.09204">
        <ele>95.2</ele>
        <time>2022-08-10T08:06:39Z</time>
      </trkpt>
      <trkpt lat="49.93803" lon="2.09202">
        <ele>95.2</ele>
        <time>2022-08-10T08:06:40Z</time>
      </trkpt>
      <trkpt lat="49.93803" lon="2.09201">
        <ele>95.2</ele>
        <time>2022-08-10T08:06:41Z</time>
      </trkpt>
      <trkpt lat="49.93803" lon="2.09199">
        <ele>95.3</ele>
        <time>2022-08-10T08:06:42Z</time>
      </trkpt>
      <trkpt lat="49.93802" lon="2.09198">
        <ele>95.3</ele>
        <time>2022-08-10T08:06:43Z</time>
      </trkpt>
      <trkpt lat="49.93802" lon="2.09196">
        <ele>95.3</ele>
        <time>2022-08-10T08:06:44Z</time>
      </trkpt>
      <trkpt lat="49.93801" lon="2.09194">
        <ele>95.4</ele>
        <time>2022-08-10T08:06:46Z</time>
      </trkpt>
      <trkpt lat="49.93801" lon="2.09192">
        <ele>95.4</ele>
        <time>2022-08-10T08:06:47Z</time>
      </trkpt>
      <trkpt lat="49.93801" lon="2.09191">
        <ele>95.5</ele>
        <time>2022-08-10T08:06:48Z</time>
      </trkpt>
      <trkpt lat="49.938" lon="2.09189">
        <ele>95.5</ele>
        <time>2022-08-10T08:06:49Z</time>
      </trkpt>
      <trkpt lat="49.938" lon="2.09188">
        <ele>95.5</ele>
        <time>2022-08-10T08:06:50Z</time>
      </trkpt>
      <trkpt lat="49.938" lon="2.09187">
        <ele>95.5</ele>
        <time>2022-08-10T08:06:51Z</time>
      </trkpt>
      <trkpt lat="49.938" lon="2.09186">
        <ele>95.6</ele>
        <time>2022-08-10T08:06:52Z</time>
      </trkpt>
      <trkpt lat="49.93799" lon="2.09184">
        <ele>95.6</ele>
        <time>2022-08-10T08:06:54Z</time>
      </trkpt>
      <trkpt lat="49.93799" lon="2.09182">
        <ele>95.5</ele>
        <time>2022-08-10T08:06:55Z</time>
      </trkpt>
      <trkpt lat="49.93799" lon="2.09181">
        <ele>95.6</ele>
        <time>2022-08-10T08:06:56Z</time>
      </trkpt>
      <trkpt lat="49.93798" lon="2.0918">
        <ele>95.6</ele>
        <time>2022-08-10T08:06:57Z</time>
      </trkpt>
      <trkpt lat="49.93798" lon="2.09179">
        <ele>95.6</ele>
        <time>2022-08-10T08:06:58Z</time>
      </trkpt>
      <trkpt lat="49.93798" lon="2.09177">
        <ele>95.7</ele>
        <time>2022-08-10T08:06:59Z</time>
      </trkpt>
      <trkpt lat="49.93797" lon="2.09176">
        <ele>95.7</ele>
        <time>2022-08-10T08:07:00Z</time>
      </trkpt>
      <trkpt lat="49.93797" lon="2.09176">
        <ele>95.7</ele>
        <time>2022-08-10T08:07:02Z</time>
      </trkpt>
      <trkpt lat="49.93796" lon="2.09175">
        <ele>95.6</ele>
        <time>2022-08-10T08:07:03Z</time>
      </trkpt>
      <trkpt lat="49.93796" lon="2.09174">
        <ele>95.6</ele>
        <time>2022-08-10T08:07:04Z</time>
      </trkpt>
      <trkpt lat="49.93796" lon="2.09175">
        <ele>95.6</ele>
        <time>2022-08-10T08:07:05Z</time>
      </trkpt>
      <trkpt lat="49.93796" lon="2.09174">
        <ele>95.6</ele>
        <time>2022-08-10T08:07:06Z</time>
      </trkpt>
      <trkpt lat="49.93796" lon="2.09173">
        <ele>95.7</ele>
        <time>2022-08-10T08:07:07Z</time>
      </trkpt>
      <trkpt lat="49.93795" lon="2.09172">
        <ele>95.7</ele>
        <time>2022-08-10T08:07:08Z</time>
      </trkpt>
      <trkpt lat="49.93795" lon="2.09171">
        <ele>95.7</ele>
        <time>2022-08-10T08:07:09Z</time>
      </trkpt>
      <trkpt lat="49.93794" lon="2.09169">
        <ele>95.7</ele>
        <time>2022-08-10T08:07:11Z</time>
      </trkpt>
      <trkpt lat="49.93794" lon="2.09169">
        <ele>95.8</ele>
        <time>2022-08-10T08:07:12Z</time>
      </trkpt>
      <trkpt lat="49.93794" lon="2.09168">
        <ele>95.7</ele>
        <time>2022-08-10T08:07:13Z</time>
      </trkpt>
      <trkpt lat="49.93793" lon="2.09165">
        <ele>95.8</ele>
        <time>2022-08-10T08:07:14Z</time>
      </trkpt>
      <trkpt lat="49.93792" lon="2.09163">
        <ele>95.8</ele>
        <time>2022-08-10T08:07:15Z</time>
      </trkpt>
      <trkpt lat="49.93792" lon="2.09161">
        <ele>95.8</ele>
        <time>2022-08-10T08:07:16Z</time>
      </trkpt>
      <trkpt lat="49.93791" lon="2.09159">
        <ele>95.9</ele>
        <time>2022-08-10T08:07:17Z</time>
      </trkpt>
      <trkpt lat="49.93791" lon="2.09156">
        <ele>96</ele>
        <time>2022-08-10T08:07:18Z</time>
      </trkpt>
      <trkpt lat="49.93791" lon="2.09151">
        <ele>96</ele>
        <time>2022-08-10T08:07:20Z</time>
      </trkpt>
      <trkpt lat="49.9379" lon="2.09148">
        <ele>96</ele>
        <time>2022-08-10T08:07:21Z</time>
      </trkpt>
      <trkpt lat="49.9379" lon="2.09146">
        <ele>96.1</ele>
        <time>2022-08-10T08:07:22Z</time>
      </trkpt>
      <trkpt lat="49.9379" lon="2.09143">
        <ele>96.3</ele>
        <time>2022-08-10T08:07:23Z</time>
      </trkpt>
      <trkpt lat="49.93789" lon="2.09139">
        <ele>96.4</ele>
        <time>2022-08-10T08:07:24Z</time>
      </trkpt>
      <trkpt lat="49.93789" lon="2.09137">
        <ele>96.4</ele>
        <time>2022-08-10T08:07:25Z</time>
      </trkpt>
      <trkpt lat="49.93789" lon="2.09133">
        <ele>96.5</ele>
        <time>2022-08-10T08:07:26Z</time>
      </trkpt>
      <trkpt lat="49.93789" lon="2.09131">
        <ele>96.5</ele>
        <time>2022-08-10T08:07:27Z</time>
      </trkpt>
      <trkpt lat="49.93788" lon="2.09129">
        <ele>96.6</ele>
        <time>2022-08-10T08:07:29Z</time>
      </trkpt>
      <trkpt lat="49.93788" lon="2.09126">
        <ele>96.6</ele>
        <time>2022-08-10T08:07:30Z</time>
      </trkpt>
      <trkpt lat="49.93787" lon="2.09123">
        <ele>96.6</ele>
        <time>2022-08-10T08:07:31Z</time>
      </trkpt>
      <trkpt lat="49.93787" lon="2.09121">
        <ele>96.7</ele>
        <time>2022-08-10T08:07:32Z</time>
      </trkpt>
      <trkpt lat="49.93787" lon="2.09118">
        <ele>96.8</ele>
        <time>2022-08-10T08:07:33Z</time>
      </trkpt>
      <trkpt lat="49.93787" lon="2.09116">
        <ele>96.8</ele>
        <time>2022-08-10T08:07:34Z</time>
      </trkpt>
      <trkpt lat="49.93787" lon="2.09115">
        <ele>96.8</ele>
        <time>2022-08-10T08:07:35Z</time>
      </trkpt>
      <trkpt lat="49.93786" lon="2.09112">
        <ele>97</ele>
        <time>2022-08-10T08:07:36Z</time>
      </trkpt>
      <trkpt lat="49.93786" lon="2.0911">
        <ele>97</ele>
        <time>2022-08-10T08:07:38Z</time>
      </trkpt>
      <trkpt lat="49.93786" lon="2.09109">
        <ele>97.1</ele>
        <time>2022-08-10T08:07:39Z</time>
      </trkpt>
      <trkpt lat="49.93786" lon="2.09107">
        <ele>97.1</ele>
        <time>2022-08-10T08:07:40Z</time>
      </trkpt>
      <trkpt lat="49.93785" lon="2.09105">
        <ele>97.1</ele>
        <time>2022-08-10T08:07:41Z</time>
      </trkpt>
      <trkpt lat="49.93785" lon="2.09103">
        <ele>97.1</ele>
        <time>2022-08-10T08:07:42Z</time>
      </trkpt>
      <trkpt lat="49.93784" lon="2.09102">
        <ele>97.1</ele>
        <time>2022-08-10T08:07:43Z</time>
      </trkpt>
      <trkpt lat="49.93784" lon="2.09101">
        <ele>97.3</ele>
        <time>2022-08-10T08:07:44Z</time>
      </trkpt>
      <trkpt lat="49.93784" lon="2.091">
        <ele>97.3</ele>
        <time>2022-08-10T08:07:45Z</time>
      </trkpt>
      <trkpt lat="49.93783" lon="2.09096">
        <ele>97.4</ele>
        <time>2022-08-10T08:07:46Z</time>
      </trkpt>
      <trkpt lat="49.93783" lon="2.09095">
        <ele>97.4</ele>
        <time>2022-08-10T08:07:48Z</time>
      </trkpt>
      <trkpt lat="49.93782" lon="2.09094">
        <ele>97.4</ele>
        <time>2022-08-10T08:07:49Z</time>
      </trkpt>
      <trkpt lat="49.93782" lon="2.09093">
        <ele>97.4</ele>
        <time>2022-08-10T08:07:50Z</time>
      </trkpt>
      <trkpt lat="49.93782" lon="2.09091">
        <ele>97.5</ele>
        <time>2022-08-10T08:07:51Z</time>
      </trkpt>
      <trkpt lat="49.93781" lon="2.0909">
        <ele>97.5</ele>
        <time>2022-08-10T08:07:52Z</time>
      </trkpt>
      <trkpt lat="49.93781" lon="2.09088">
        <ele>97.5</ele>
        <time>2022-08-10T08:07:53Z</time>
      </trkpt>
      <trkpt lat="49.93781" lon="2.09087">
        <ele>97.7</ele>
        <time>2022-08-10T08:07:54Z</time>
      </trkpt>
      <trkpt lat="49.93781" lon="2.09085">
        <ele>97.7</ele>
        <time>2022-08-10T08:07:55Z</time>
      </trkpt>
      <trkpt lat="49.9378" lon="2.09083">
        <ele>97.9</ele>
        <time>2022-08-10T08:07:56Z</time>
      </trkpt>
      <trkpt lat="49.9378" lon="2.09082">
        <ele>97.9</ele>
        <time>2022-08-10T08:07:58Z</time>
      </trkpt>
      <trkpt lat="49.9378" lon="2.0908">
        <ele>97.8</ele>
        <time>2022-08-10T08:07:59Z</time>
      </trkpt>
      <trkpt lat="49.93779" lon="2.09079">
        <ele>98</ele>
        <time>2022-08-10T08:08:00Z</time>
      </trkpt>
      <trkpt lat="49.93779" lon="2.09078">
        <ele>98</ele>
        <time>2022-08-10T08:08:01Z</time>
      </trkpt>
      <trkpt lat="49.93778" lon="2.09077">
        <ele>98</ele>
        <time>2022-08-10T08:08:02Z</time>
      </trkpt>
      <trkpt lat="49.93777" lon="2.09076">
        <ele>97.9</ele>
        <time>2022-08-10T08:08:03Z</time>
      </trkpt>
      <trkpt lat="49.93776" lon="2.09075">
        <ele>98.1</ele>
        <time>2022-08-10T08:08:04Z</time>
      </trkpt>
      <trkpt lat="49.93775" lon="2.09074">
        <ele>98.1</ele>
        <time>2022-08-10T08:08:05Z</time>
      </trkpt>
      <trkpt lat="49.93774" lon="2.09073">
        <ele>98</ele>
        <time>2022-08-10T08:08:06Z</time>
      </trkpt>
      <trkpt lat="49.93773" lon="2.09071">
        <ele>98</ele>
        <time>2022-08-10T08:08:07Z</time>
      </trkpt>
      <trkpt lat="49.93772" lon="2.0907">
        <ele>98.2</ele>
        <time>2022-08-10T08:08:09Z</time>
      </trkpt>
      <trkpt lat="49.93772" lon="2.09068">
        <ele>98.2</ele>
        <time>2022-08-10T08:08:10Z</time>
      </trkpt>
      <trkpt lat="49.93771" lon="2.09067">
        <ele>98.1</ele>
        <time>2022-08-10T08:08:11Z</time>
      </trkpt>
      <trkpt lat="49.9377" lon="2.09064">
        <ele>98.3</ele>
        <time>2022-08-10T08:08:12Z</time>
      </trkpt>
      <trkpt lat="49.9377" lon="2.09062">
        <ele>98.3</ele>
        <time>2022-08-10T08:08:13Z</time>
      </trkpt>
      <trkpt lat="49.9377" lon="2.09061">
        <ele>98.5</ele>
        <time>2022-08-10T08:08:14Z</time>
      </trkpt>
      <trkpt lat="49.93769" lon="2.09059">
        <ele>98.5</ele>
        <time>2022-08-10T08:08:15Z</time>
      </trkpt>
      <trkpt lat="49.93769" lon="2.09057">
        <ele>98.6</ele>
        <time>2022-08-10T08:08:16Z</time>
      </trkpt>
      <trkpt lat="49.93768" lon="2.09055">
        <ele>98.6</ele>
        <time>2022-08-10T08:08:18Z</time>
      </trkpt>
      <trkpt lat="49.93767" lon="2.09053">
        <ele>98.9</ele>
        <time>2022-08-10T08:08:19Z</time>
      </trkpt>
      <trkpt lat="49.93766" lon="2.0905">
        <ele>98.9</ele>
        <time>2022-08-10T08:08:20Z</time>
      </trkpt>
      <trkpt lat="49.93766" lon="2.09049">
        <ele>99.1</ele>
        <time>2022-08-10T08:08:21Z</time>
      </trkpt>
      <trkpt lat="49.93766" lon="2.09048">
        <ele>99</ele>
        <time>2022-08-10T08:08:22Z</time>
      </trkpt>
      <trkpt lat="49.93765" lon="2.09047">
        <ele>99</ele>
        <time>2022-08-10T08:08:23Z</time>
      </trkpt>
      <trkpt lat="49.93765" lon="2.09045">
        <ele>99.2</ele>
        <time>2022-08-10T08:08:24Z</time>
      </trkpt>
      <trkpt lat="49.93764" lon="2.09043">
        <ele>99.2</ele>
        <time>2022-08-10T08:08:25Z</time>
      </trkpt>
      <trkpt lat="49.93764" lon="2.09041">
        <ele>99.2</ele>
        <time>2022-08-10T08:08:27Z</time>
      </trkpt>
      <trkpt lat="49.93763" lon="2.09039">
        <ele>99.3</ele>
        <time>2022-08-10T08:08:28Z</time>
      </trkpt>
      <trkpt lat="49.93762" lon="2.09038">
        <ele>99.3</ele>
        <time>2022-08-10T08:08:29Z</time>
      </trkpt>
      <trkpt lat="49.93762" lon="2.09037">
        <ele>99.3</ele>
        <time>2022-08-10T08:08:30Z</time>
      </trkpt>
      <trkpt lat="49.93761" lon="2.09036">
        <ele>99.5</ele>
        <time>2022-08-10T08:08:31Z</time>
      </trkpt>
      <trkpt lat="49.93761" lon="2.09034">
        <ele>99.5</ele>
        <time>2022-08-10T08:08:32Z</time>
      </trkpt>
      <trkpt lat="49.93761" lon="2.09033">
        <ele>99.5</ele>
        <time>2022-08-10T08:08:33Z</time>
      </trkpt>
      <trkpt lat="49.9376" lon="2.09031">
        <ele>99.6</ele>
        <time>2022-08-10T08:08:34Z</time>
      </trkpt>
      <trkpt lat="49.9376" lon="2.0903">
        <ele>99.6</ele>
        <time>2022-08-10T08:08:35Z</time>
      </trkpt>
      <trkpt lat="49.9376" lon="2.09028">
        <ele>99.6</ele>
        <time>2022-08-10T08:08:37Z</time>
      </trkpt>
      <trkpt lat="49.93759" lon="2.09027">
        <ele>99.8</ele>
        <time>2022-08-10T08:08:38Z</time>
      </trkpt>
      <trkpt lat="49.93759" lon="2.09025">
        <ele>99.8</ele>
        <time>2022-08-10T08:08:39Z</time>
      </trkpt>
      <trkpt lat="49.93759" lon="2.09024">
        <ele>99.8</ele>
        <time>2022-08-10T08:08:40Z</time>
      </trkpt>
      <trkpt lat="49.93759" lon="2.09023">
        <ele>100</ele>
        <time>2022-08-10T08:08:41Z</time>
      </trkpt>
      <trkpt lat="49.93758" lon="2.0902">
        <ele>100</ele>
        <time>2022-08-10T08:08:42Z</time>
      </trkpt>
      <trkpt lat="49.93758" lon="2.09019">
        <ele>100.1</ele>
        <time>2022-08-10T08:08:43Z</time>
      </trkpt>
      <trkpt lat="49.93758" lon="2.09016">
        <ele>100</ele>
        <time>2022-08-10T08:08:44Z</time>
      </trkpt>
      <trkpt lat="49.93757" lon="2.09014">
        <ele>100.2</ele>
        <time>2022-08-10T08:08:46Z</time>
      </trkpt>
      <trkpt lat="49.93757" lon="2.09013">
        <ele>100.2</ele>
        <time>2022-08-10T08:08:47Z</time>
      </trkpt>
      <trkpt lat="49.93757" lon="2.0901">
        <ele>100.3</ele>
        <time>2022-08-10T08:08:48Z</time>
      </trkpt>
      <trkpt lat="49.93757" lon="2.09009">
        <ele>100.3</ele>
        <time>2022-08-10T08:08:49Z</time>
      </trkpt>
      <trkpt lat="49.93756" lon="2.09007">
        <ele>100.3</ele>
        <time>2022-08-10T08:08:50Z</time>
      </trkpt>
      <trkpt lat="49.93756" lon="2.09005">
        <ele>100.4</ele>
        <time>2022-08-10T08:08:51Z</time>
      </trkpt>
      <trkpt lat="49.93756" lon="2.09002">
        <ele>100.4</ele>
        <time>2022-08-10T08:08:52Z</time>
      </trkpt>
      <trkpt lat="49.93755" lon="2.09">
        <ele>100.5</ele>
        <time>2022-08-10T08:08:53Z</time>
      </trkpt>
      <trkpt lat="49.93755" lon="2.08998">
        <ele>100.5</ele>
        <time>2022-08-10T08:08:55Z</time>
      </trkpt>
      <trkpt lat="49.93755" lon="2.08996">
        <ele>100.6</ele>
        <time>2022-08-10T08:08:56Z</time>
      </trkpt>
      <trkpt lat="49.93754" lon="2.08993">
        <ele>100.6</ele>
        <time>2022-08-10T08:08:57Z</time>
      </trkpt>
      <trkpt lat="49.93754" lon="2.08992">
        <ele>100.6</ele>
        <time>2022-08-10T08:08:58Z</time>
      </trkpt>
      <trkpt lat="49.93753" lon="2.0899">
        <ele>100.6</ele>
        <time>2022-08-10T08:08:59Z</time>
      </trkpt>
      <trkpt lat="49.93753" lon="2.08988">
        <ele>100.7</ele>
        <time>2022-08-10T08:09:00Z</time>
      </trkpt>
      <trkpt lat="49.93752" lon="2.08986">
        <ele>100.7</ele>
        <time>2022-08-10T08:09:01Z</time>
      </trkpt>
      <trkpt lat="49.93752" lon="2.08983">
        <ele>100.7</ele>
        <time>2022-08-10T08:09:02Z</time>
      </trkpt>
      <trkpt lat="49.93752" lon="2.08982">
        <ele>100.7</ele>
        <time>2022-08-10T08:09:04Z</time>
      </trkpt>
      <trkpt lat="49.93752" lon="2.08981">
        <ele>100.7</ele>
        <time>2022-08-10T08:09:05Z</time>
      </trkpt>
      <trkpt lat="49.93751" lon="2.08979">
        <ele>100.8</ele>
        <time>2022-08-10T08:09:06Z</time>
      </trkpt>
      <trkpt lat="49.93751" lon="2.08978">
        <ele>100.8</ele>
        <time>2022-08-10T08:09:07Z</time>
      </trkpt>
      <trkpt lat="49.93751" lon="2.08976">
        <ele>100.8</ele>
        <time>2022-08-10T08:09:08Z</time>
      </trkpt>
      <trkpt lat="49.9375" lon="2.08973">
        <ele>100.8</ele>
        <time>2022-08-10T08:09:09Z</time>
      </trkpt>
      <trkpt lat="49.9375" lon="2.08971">
        <ele>100.9</ele>
        <time>2022-08-10T08:09:10Z</time>
      </trkpt>
      <trkpt lat="49.9375" lon="2.0897">
        <ele>100.9</ele>
        <time>2022-08-10T08:09:11Z</time>
      </trkpt>
      <trkpt lat="49.9375" lon="2.08967">
        <ele>100.9</ele>
        <time>2022-08-10T08:09:12Z</time>
      </trkpt>
      <trkpt lat="49.9375" lon="2.08966">
        <ele>100.9</ele>
        <time>2022-08-10T08:09:14Z</time>
      </trkpt>
      <trkpt lat="49.93749" lon="2.08964">
        <ele>100.9</ele>
        <time>2022-08-10T08:09:15Z</time>
      </trkpt>
      <trkpt lat="49.93749" lon="2.08962">
        <ele>100.9</ele>
        <time>2022-08-10T08:09:16Z</time>
      </trkpt>
      <trkpt lat="49.93749" lon="2.08961">
        <ele>100.9</ele>
        <time>2022-08-10T08:09:17Z</time>
      </trkpt>
      <trkpt lat="49.93748" lon="2.08958">
        <ele>101</ele>
        <time>2022-08-10T08:09:18Z</time>
      </trkpt>
      <trkpt lat="49.93748" lon="2.08956">
        <ele>101</ele>
        <time>2022-08-10T08:09:19Z</time>
      </trkpt>
      <trkpt lat="49.93747" lon="2.08953">
        <ele>101</ele>
        <time>2022-08-10T08:09:20Z</time>
      </trkpt>
      <trkpt lat="49.93747" lon="2.08951">
        <ele>101</ele>
        <time>2022-08-10T08:09:22Z</time>
      </trkpt>
      <trkpt lat="49.93747" lon="2.0895">
        <ele>101</ele>
        <time>2022-08-10T08:09:23Z</time>
      </trkpt>
      <trkpt lat="49.93746" lon="2.08948">
        <ele>101</ele>
        <time>2022-08-10T08:09:24Z</time>
      </trkpt>
      <trkpt lat="49.93746" lon="2.08947">
        <ele>101</ele>
        <time>2022-08-10T08:09:25Z</time>
      </trkpt>
      <trkpt lat="49.93745" lon="2.08946">
        <ele>101</ele>
        <time>2022-08-10T08:09:26Z</time>
      </trkpt>
      <trkpt lat="49.93745" lon="2.08944">
        <ele>101</ele>
        <time>2022-08-10T08:09:27Z</time>
      </trkpt>
      <trkpt lat="49.93744" lon="2.08941">
        <ele>101.1</ele>
        <time>2022-08-10T08:09:28Z</time>
      </trkpt>
      <trkpt lat="49.93744" lon="2.08939">
        <ele>101</ele>
        <time>2022-08-10T08:09:29Z</time>
      </trkpt>
      <trkpt lat="49.93743" lon="2.08937">
        <ele>101.1</ele>
        <time>2022-08-10T08:09:31Z</time>
      </trkpt>
      <trkpt lat="49.93743" lon="2.08935">
        <ele>101.1</ele>
        <time>2022-08-10T08:09:32Z</time>
      </trkpt>
      <trkpt lat="49.93742" lon="2.08932">
        <ele>101.1</ele>
        <time>2022-08-10T08:09:33Z</time>
      </trkpt>
      <trkpt lat="49.93742" lon="2.08931">
        <ele>101.1</ele>
        <time>2022-08-10T08:09:34Z</time>
      </trkpt>
      <trkpt lat="49.93741" lon="2.08929">
        <ele>101.1</ele>
        <time>2022-08-10T08:09:35Z</time>
      </trkpt>
      <trkpt lat="49.93741" lon="2.08928">
        <ele>101.1</ele>
        <time>2022-08-10T08:09:36Z</time>
      </trkpt>
      <trkpt lat="49.93741" lon="2.08925">
        <ele>101.1</ele>
        <time>2022-08-10T08:09:38Z</time>
      </trkpt>
      <trkpt lat="49.9374" lon="2.08923">
        <ele>101.1</ele>
        <time>2022-08-10T08:09:39Z</time>
      </trkpt>
      <trkpt lat="49.9374" lon="2.08921">
        <ele>101.1</ele>
        <time>2022-08-10T08:09:40Z</time>
      </trkpt>
      <trkpt lat="49.9374" lon="2.0892">
        <ele>101.1</ele>
        <time>2022-08-10T08:09:41Z</time>
      </trkpt>
      <trkpt lat="49.93739" lon="2.08918">
        <ele>101.1</ele>
        <time>2022-08-10T08:09:43Z</time>
      </trkpt>
      <trkpt lat="49.93739" lon="2.08916">
        <ele>101.1</ele>
        <time>2022-08-10T08:09:44Z</time>
      </trkpt>
      <trkpt lat="49.93739" lon="2.08915">
        <ele>101.2</ele>
        <time>2022-08-10T08:09:45Z</time>
      </trkpt>
      <trkpt lat="49.93738" lon="2.08914">
        <ele>101.2</ele>
        <time>2022-08-10T08:09:46Z</time>
      </trkpt>
      <trkpt lat="49.93738" lon="2.08912">
        <ele>101.1</ele>
        <time>2022-08-10T08:09:47Z</time>
      </trkpt>
      <trkpt lat="49.93738" lon="2.08911">
        <ele>101.2</ele>
        <time>2022-08-10T08:09:48Z</time>
      </trkpt>
      <trkpt lat="49.93737" lon="2.08909">
        <ele>101.2</ele>
        <time>2022-08-10T08:09:49Z</time>
      </trkpt>
      <trkpt lat="49.93737" lon="2.08908">
        <ele>101.2</ele>
        <time>2022-08-10T08:09:50Z</time>
      </trkpt>
      <trkpt lat="49.93737" lon="2.08906">
        <ele>101.2</ele>
        <time>2022-08-10T08:09:52Z</time>
      </trkpt>
      <trkpt lat="49.93737" lon="2.08904">
        <ele>101.2</ele>
        <time>2022-08-10T08:09:53Z</time>
      </trkpt>
      <trkpt lat="49.93737" lon="2.08902">
        <ele>101.2</ele>
        <time>2022-08-10T08:09:54Z</time>
      </trkpt>
      <trkpt lat="49.93737" lon="2.08901">
        <ele>101.2</ele>
        <time>2022-08-10T08:09:55Z</time>
      </trkpt>
      <trkpt lat="49.93736" lon="2.08899">
        <ele>101.2</ele>
        <time>2022-08-10T08:09:56Z</time>
      </trkpt>
      <trkpt lat="49.93736" lon="2.08898">
        <ele>101.2</ele>
        <time>2022-08-10T08:09:57Z</time>
      </trkpt>
      <trkpt lat="49.93736" lon="2.08896">
        <ele>101.2</ele>
        <time>2022-08-10T08:09:58Z</time>
      </trkpt>
      <trkpt lat="49.93736" lon="2.08896">
        <ele>101.2</ele>
        <time>2022-08-10T08:09:59Z</time>
      </trkpt>
      <trkpt lat="49.93736" lon="2.08896">
        <ele>101.2</ele>
        <time>2022-08-10T08:10:00Z</time>
      </trkpt>
      <trkpt lat="49.93736" lon="2.08896">
        <ele>101.2</ele>
        <time>2022-08-10T08:10:01Z</time>
      </trkpt>
      <trkpt lat="49.93735" lon="2.08896">
        <ele>101.2</ele>
        <time>2022-08-10T08:10:02Z</time>
      </trkpt>
      <trkpt lat="49.93735" lon="2.08897">
        <ele>101.2</ele>
        <time>2022-08-10T08:10:03Z</time>
      </trkpt>
      <trkpt lat="49.93735" lon="2.08896">
        <ele>101.2</ele>
        <time>2022-08-10T08:10:04Z</time>
      </trkpt>
      <trkpt lat="49.93735" lon="2.08896">
        <ele>101.2</ele>
        <time>2022-08-10T08:10:05Z</time>
      </trkpt>
      <trkpt lat="49.93735" lon="2.08896">
        <ele>101.2</ele>
        <time>2022-08-10T08:10:06Z</time>
      </trkpt>
      <trkpt lat="49.93735" lon="2.08895">
        <ele>101.2</ele>
        <time>2022-08-10T08:10:07Z</time>
      </trkpt>
      <trkpt lat="49.93734" lon="2.08893">
        <ele>101.2</ele>
        <time>2022-08-10T08:10:09Z</time>
      </trkpt>
      <trkpt lat="49.93734" lon="2.08891">
        <ele>101.2</ele>
        <time>2022-08-10T08:10:10Z</time>
      </trkpt>
      <trkpt lat="49.93734" lon="2.08889">
        <ele>101.2</ele>
        <time>2022-08-10T08:10:11Z</time>
      </trkpt>
      <trkpt lat="49.93733" lon="2.08885">
        <ele>101.3</ele>
        <time>2022-08-10T08:10:12Z</time>
      </trkpt>
      <trkpt lat="49.93732" lon="2.08883">
        <ele>101.3</ele>
        <time>2022-08-10T08:10:13Z</time>
      </trkpt>
      <trkpt lat="49.93732" lon="2.08882">
        <ele>101.3</ele>
        <time>2022-08-10T08:10:14Z</time>
      </trkpt>
      <trkpt lat="49.93731" lon="2.08881">
        <ele>101.3</ele>
        <time>2022-08-10T08:10:15Z</time>
      </trkpt>
      <trkpt lat="49.93731" lon="2.08881">
        <ele>101.3</ele>
        <time>2022-08-10T08:10:16Z</time>
      </trkpt>
      <trkpt lat="49.9373" lon="2.0888">
        <ele>101.3</ele>
        <time>2022-08-10T08:10:17Z</time>
      </trkpt>
      <trkpt lat="49.93729" lon="2.08881">
        <ele>101.3</ele>
        <time>2022-08-10T08:10:18Z</time>
      </trkpt>
      <trkpt lat="49.93728" lon="2.0888">
        <ele>101.3</ele>
        <time>2022-08-10T08:10:19Z</time>
      </trkpt>
      <trkpt lat="49.93727" lon="2.08879">
        <ele>101.3</ele>
        <time>2022-08-10T08:10:21Z</time>
      </trkpt>
      <trkpt lat="49.93726" lon="2.08877">
        <ele>101.3</ele>
        <time>2022-08-10T08:10:22Z</time>
      </trkpt>
      <trkpt lat="49.93726" lon="2.08876">
        <ele>101.3</ele>
        <time>2022-08-10T08:10:23Z</time>
      </trkpt>
      <trkpt lat="49.93725" lon="2.08874">
        <ele>101.3</ele>
        <time>2022-08-10T08:10:24Z</time>
      </trkpt>
      <trkpt lat="49.93724" lon="2.08874">
        <ele>101.3</ele>
        <time>2022-08-10T08:10:25Z</time>
      </trkpt>
      <trkpt lat="49.93724" lon="2.08873">
        <ele>101.3</ele>
        <time>2022-08-10T08:10:26Z</time>
      </trkpt>
      <trkpt lat="49.93724" lon="2.08872">
        <ele>101.3</ele>
        <time>2022-08-10T08:10:27Z</time>
      </trkpt>
      <trkpt lat="49.93724" lon="2.08872">
        <ele>101.3</ele>
        <time>2022-08-10T08:10:28Z</time>
      </trkpt>
      <trkpt lat="49.93723" lon="2.08871">
        <ele>101.3</ele>
        <time>2022-08-10T08:10:29Z</time>
      </trkpt>
      <trkpt lat="49.93723" lon="2.08868">
        <ele>101.4</ele>
        <time>2022-08-10T08:10:30Z</time>
      </trkpt>
      <trkpt lat="49.93722" lon="2.08867">
        <ele>101.4</ele>
        <time>2022-08-10T08:10:32Z</time>
      </trkpt>
      <trkpt lat="49.93722" lon="2.08866">
        <ele>101.4</ele>
        <time>2022-08-10T08:10:33Z</time>
      </trkpt>
      <trkpt lat="49.93721" lon="2.08864">
        <ele>101.4</ele>
        <time>2022-08-10T08:10:34Z</time>
      </trkpt>
      <trkpt lat="49.9372" lon="2.08862">
        <ele>101.4</ele>
        <time>2022-08-10T08:10:35Z</time>
      </trkpt>
      <trkpt lat="49.9372" lon="2.08859">
        <ele>101.5</ele>
        <time>2022-08-10T08:10:36Z</time>
      </trkpt>
      <trkpt lat="49.9372" lon="2.08857">
        <ele>101.5</ele>
        <time>2022-08-10T08:10:37Z</time>
      </trkpt>
      <trkpt lat="49.93719" lon="2.08854">
        <ele>101.5</ele>
        <time>2022-08-10T08:10:38Z</time>
      </trkpt>
      <trkpt lat="49.93719" lon="2.08852">
        <ele>101.5</ele>
        <time>2022-08-10T08:10:39Z</time>
      </trkpt>
      <trkpt lat="49.93719" lon="2.08851">
        <ele>101.5</ele>
        <time>2022-08-10T08:10:40Z</time>
      </trkpt>
      <trkpt lat="49.93719" lon="2.08849">
        <ele>101.5</ele>
        <time>2022-08-10T08:10:41Z</time>
      </trkpt>
      <trkpt lat="49.93718" lon="2.08848">
        <ele>101.5</ele>
        <time>2022-08-10T08:10:43Z</time>
      </trkpt>
      <trkpt lat="49.93718" lon="2.08846">
        <ele>101.6</ele>
        <time>2022-08-10T08:10:44Z</time>
      </trkpt>
      <trkpt lat="49.93718" lon="2.08845">
        <ele>101.6</ele>
        <time>2022-08-10T08:10:45Z</time>
      </trkpt>
      <trkpt lat="49.93717" lon="2.08844">
        <ele>101.6</ele>
        <time>2022-08-10T08:10:46Z</time>
      </trkpt>
      <trkpt lat="49.93717" lon="2.08842">
        <ele>101.6</ele>
        <time>2022-08-10T08:10:47Z</time>
      </trkpt>
      <trkpt lat="49.93717" lon="2.08841">
        <ele>101.6</ele>
        <time>2022-08-10T08:10:48Z</time>
      </trkpt>
      <trkpt lat="49.93717" lon="2.0884">
        <ele>101.6</ele>
        <time>2022-08-10T08:10:49Z</time>
      </trkpt>
      <trkpt lat="49.93717" lon="2.0884">
        <ele>101.6</ele>
        <time>2022-08-10T08:10:51Z</time>
      </trkpt>
      <trkpt lat="49.93717" lon="2.08839">
        <ele>101.7</ele>
        <time>2022-08-10T08:10:52Z</time>
      </trkpt>
      <trkpt lat="49.93717" lon="2.08838">
        <ele>101.7</ele>
        <time>2022-08-10T08:10:53Z</time>
      </trkpt>
      <trkpt lat="49.93716" lon="2.08836">
        <ele>101.7</ele>
        <time>2022-08-10T08:10:54Z</time>
      </trkpt>
      <trkpt lat="49.93716" lon="2.08833">
        <ele>101.7</ele>
        <time>2022-08-10T08:10:55Z</time>
      </trkpt>
      <trkpt lat="49.93715" lon="2.08831">
        <ele>101.7</ele>
        <time>2022-08-10T08:10:56Z</time>
      </trkpt>
      <trkpt lat="49.93715" lon="2.08828">
        <ele>101.8</ele>
        <time>2022-08-10T08:10:57Z</time>
      </trkpt>
      <trkpt lat="49.93714" lon="2.08822">
        <ele>101.8</ele>
        <time>2022-08-10T08:10:59Z</time>
      </trkpt>
      <trkpt lat="49.93714" lon="2.0882">
        <ele>101.8</ele>
        <time>2022-08-10T08:11:00Z</time>
      </trkpt>
      <trkpt lat="49.93713" lon="2.08814">
        <ele>101.9</ele>
        <time>2022-08-10T08:11:01Z</time>
      </trkpt>
      <trkpt lat="49.93713" lon="2.08812">
        <ele>101.9</ele>
        <time>2022-08-10T08:11:02Z</time>
      </trkpt>
      <trkpt lat="49.93713" lon="2.08807">
        <ele>102</ele>
        <time>2022-08-10T08:11:03Z</time>
      </trkpt>
      <trkpt lat="49.93713" lon="2.08806">
        <ele>102</ele>
        <time>2022-08-10T08:11:04Z</time>
      </trkpt>
      <trkpt lat="49.93712" lon="2.08803">
        <ele>102</ele>
        <time>2022-08-10T08:11:05Z</time>
      </trkpt>
      <trkpt lat="49.93712" lon="2.088">
        <ele>102</ele>
        <time>2022-08-10T08:11:07Z</time>
      </trkpt>
      <trkpt lat="49.93711" lon="2.08798">
        <ele>102</ele>
        <time>2022-08-10T08:11:08Z</time>
      </trkpt>
      <trkpt lat="49.93711" lon="2.08797">
        <ele>102.1</ele>
        <time>2022-08-10T08:11:09Z</time>
      </trkpt>
      <trkpt lat="49.9371" lon="2.08795">
        <ele>102.1</ele>
        <time>2022-08-10T08:11:10Z</time>
      </trkpt>
      <trkpt lat="49.9371" lon="2.08792">
        <ele>102.1</ele>
        <time>2022-08-10T08:11:11Z</time>
      </trkpt>
      <trkpt lat="49.9371" lon="2.08791">
        <ele>102.2</ele>
        <time>2022-08-10T08:11:12Z</time>
      </trkpt>
      <trkpt lat="49.93709" lon="2.0879">
        <ele>102.2</ele>
        <time>2022-08-10T08:11:13Z</time>
      </trkpt>
      <trkpt lat="49.93709" lon="2.08789">
        <ele>102.2</ele>
        <time>2022-08-10T08:11:15Z</time>
      </trkpt>
      <trkpt lat="49.93708" lon="2.08788">
        <ele>102.2</ele>
        <time>2022-08-10T08:11:16Z</time>
      </trkpt>
      <trkpt lat="49.93708" lon="2.08786">
        <ele>102.2</ele>
        <time>2022-08-10T08:11:17Z</time>
      </trkpt>
      <trkpt lat="49.93708" lon="2.08786">
        <ele>102.2</ele>
        <time>2022-08-10T08:11:18Z</time>
      </trkpt>
      <trkpt lat="49.93708" lon="2.08785">
        <ele>102.3</ele>
        <time>2022-08-10T08:11:19Z</time>
      </trkpt>
      <trkpt lat="49.93708" lon="2.08783">
        <ele>102.3</ele>
        <time>2022-08-10T08:11:20Z</time>
      </trkpt>
      <trkpt lat="49.93707" lon="2.08781">
        <ele>102.3</ele>
        <time>2022-08-10T08:11:21Z</time>
      </trkpt>
      <trkpt lat="49.93707" lon="2.08781">
        <ele>102.3</ele>
        <time>2022-08-10T08:11:23Z</time>
      </trkpt>
      <trkpt lat="49.93707" lon="2.08779">
        <ele>102.3</ele>
        <time>2022-08-10T08:11:24Z</time>
      </trkpt>
      <trkpt lat="49.93706" lon="2.08778">
        <ele>102.4</ele>
        <time>2022-08-10T08:11:25Z</time>
      </trkpt>
      <trkpt lat="49.93706" lon="2.08776">
        <ele>102.4</ele>
        <time>2022-08-10T08:11:26Z</time>
      </trkpt>
      <trkpt lat="49.93705" lon="2.08773">
        <ele>102.5</ele>
        <time>2022-08-10T08:11:27Z</time>
      </trkpt>
      <trkpt lat="49.93704" lon="2.08772">
        <ele>102.5</ele>
        <time>2022-08-10T08:11:28Z</time>
      </trkpt>
      <trkpt lat="49.93704" lon="2.08771">
        <ele>102.5</ele>
        <time>2022-08-10T08:11:29Z</time>
      </trkpt>
      <trkpt lat="49.93703" lon="2.08769">
        <ele>102.5</ele>
        <time>2022-08-10T08:11:31Z</time>
      </trkpt>
      <trkpt lat="49.93702" lon="2.08767">
        <ele>102.6</ele>
        <time>2022-08-10T08:11:32Z</time>
      </trkpt>
      <trkpt lat="49.93701" lon="2.08765">
        <ele>102.6</ele>
        <time>2022-08-10T08:11:33Z</time>
      </trkpt>
      <trkpt lat="49.93701" lon="2.08764">
        <ele>102.6</ele>
        <time>2022-08-10T08:11:34Z</time>
      </trkpt>
      <trkpt lat="49.93701" lon="2.08763">
        <ele>102.6</ele>
        <time>2022-08-10T08:11:35Z</time>
      </trkpt>
      <trkpt lat="49.937" lon="2.08762">
        <ele>102.6</ele>
        <time>2022-08-10T08:11:36Z</time>
      </trkpt>
      <trkpt lat="49.937" lon="2.08761">
        <ele>102.7</ele>
        <time>2022-08-10T08:11:38Z</time>
      </trkpt>
      <trkpt lat="49.93699" lon="2.08761">
        <ele>102.7</ele>
        <time>2022-08-10T08:11:39Z</time>
      </trkpt>
      <trkpt lat="49.93698" lon="2.0876">
        <ele>102.7</ele>
        <time>2022-08-10T08:11:40Z</time>
      </trkpt>
      <trkpt lat="49.93698" lon="2.08759">
        <ele>102.7</ele>
        <time>2022-08-10T08:11:41Z</time>
      </trkpt>
      <trkpt lat="49.93697" lon="2.08757">
        <ele>102.8</ele>
        <time>2022-08-10T08:11:42Z</time>
      </trkpt>
      <trkpt lat="49.93696" lon="2.08756">
        <ele>102.8</ele>
        <time>2022-08-10T08:11:43Z</time>
      </trkpt>
      <trkpt lat="49.93696" lon="2.08755">
        <ele>102.8</ele>
        <time>2022-08-10T08:11:44Z</time>
      </trkpt>
      <trkpt lat="49.93695" lon="2.08754">
        <ele>102.8</ele>
        <time>2022-08-10T08:11:45Z</time>
      </trkpt>
      <trkpt lat="49.93695" lon="2.08752">
        <ele>102.8</ele>
        <time>2022-08-10T08:11:46Z</time>
      </trkpt>
      <trkpt lat="49.93694" lon="2.08751">
        <ele>102.8</ele>
        <time>2022-08-10T08:11:48Z</time>
      </trkpt>
      <trkpt lat="49.93694" lon="2.0875">
        <ele>102.9</ele>
        <time>2022-08-10T08:11:49Z</time>
      </trkpt>
      <trkpt lat="49.93693" lon="2.08747">
        <ele>103</ele>
        <time>2022-08-10T08:11:50Z</time>
      </trkpt>
      <trkpt lat="49.93693" lon="2.08746">
        <ele>103</ele>
        <time>2022-08-10T08:11:51Z</time>
      </trkpt>
      <trkpt lat="49.93692" lon="2.08745">
        <ele>103</ele>
        <time>2022-08-10T08:11:52Z</time>
      </trkpt>
      <trkpt lat="49.93692" lon="2.08743">
        <ele>103</ele>
        <time>2022-08-10T08:11:53Z</time>
      </trkpt>
      <trkpt lat="49.93691" lon="2.08742">
        <ele>103.1</ele>
        <time>2022-08-10T08:11:55Z</time>
      </trkpt>
      <trkpt lat="49.93691" lon="2.0874">
        <ele>103.1</ele>
        <time>2022-08-10T08:11:56Z</time>
      </trkpt>
      <trkpt lat="49.9369" lon="2.08739">
        <ele>103.1</ele>
        <time>2022-08-10T08:11:57Z</time>
      </trkpt>
      <trkpt lat="49.9369" lon="2.08738">
        <ele>103.1</ele>
        <time>2022-08-10T08:11:58Z</time>
      </trkpt>
      <trkpt lat="49.93689" lon="2.08736">
        <ele>103.1</ele>
        <time>2022-08-10T08:11:59Z</time>
      </trkpt>
      <trkpt lat="49.93689" lon="2.08734">
        <ele>103.2</ele>
        <time>2022-08-10T08:12:01Z</time>
      </trkpt>
      <trkpt lat="49.93688" lon="2.08732">
        <ele>103.2</ele>
        <time>2022-08-10T08:12:02Z</time>
      </trkpt>
      <trkpt lat="49.93688" lon="2.08731">
        <ele>103.2</ele>
        <time>2022-08-10T08:12:03Z</time>
      </trkpt>
      <trkpt lat="49.93687" lon="2.08729">
        <ele>103.2</ele>
        <time>2022-08-10T08:12:04Z</time>
      </trkpt>
      <trkpt lat="49.93687" lon="2.08728">
        <ele>103.2</ele>
        <time>2022-08-10T08:12:05Z</time>
      </trkpt>
      <trkpt lat="49.93686" lon="2.08726">
        <ele>103.2</ele>
        <time>2022-08-10T08:12:06Z</time>
      </trkpt>
      <trkpt lat="49.93686" lon="2.08722">
        <ele>103.3</ele>
        <time>2022-08-10T08:12:07Z</time>
      </trkpt>
      <trkpt lat="49.93685" lon="2.08721">
        <ele>103.3</ele>
        <time>2022-08-10T08:12:09Z</time>
      </trkpt>
      <trkpt lat="49.93685" lon="2.0872">
        <ele>103.3</ele>
        <time>2022-08-10T08:12:10Z</time>
      </trkpt>
      <trkpt lat="49.93684" lon="2.08718">
        <ele>103.3</ele>
        <time>2022-08-10T08:12:11Z</time>
      </trkpt>
      <trkpt lat="49.93684" lon="2.08716">
        <ele>103.3</ele>
        <time>2022-08-10T08:12:12Z</time>
      </trkpt>
      <trkpt lat="49.93683" lon="2.08713">
        <ele>103.4</ele>
        <time>2022-08-10T08:12:13Z</time>
      </trkpt>
      <trkpt lat="49.93683" lon="2.08711">
        <ele>103.4</ele>
        <time>2022-08-10T08:12:14Z</time>
      </trkpt>
      <trkpt lat="49.93682" lon="2.0871">
        <ele>103.4</ele>
        <time>2022-08-10T08:12:15Z</time>
      </trkpt>
      <trkpt lat="49.93682" lon="2.08707">
        <ele>103.4</ele>
        <time>2022-08-10T08:12:17Z</time>
      </trkpt>
      <trkpt lat="49.93681" lon="2.08706">
        <ele>103.4</ele>
        <time>2022-08-10T08:12:18Z</time>
      </trkpt>
      <trkpt lat="49.93681" lon="2.08705">
        <ele>103.4</ele>
        <time>2022-08-10T08:12:19Z</time>
      </trkpt>
      <trkpt lat="49.9368" lon="2.08703">
        <ele>103.5</ele>
        <time>2022-08-10T08:12:20Z</time>
      </trkpt>
      <trkpt lat="49.9368" lon="2.08701">
        <ele>103.5</ele>
        <time>2022-08-10T08:12:21Z</time>
      </trkpt>
      <trkpt lat="49.93679" lon="2.087">
        <ele>103.5</ele>
        <time>2022-08-10T08:12:22Z</time>
      </trkpt>
      <trkpt lat="49.93679" lon="2.08698">
        <ele>103.5</ele>
        <time>2022-08-10T08:12:23Z</time>
      </trkpt>
      <trkpt lat="49.93678" lon="2.08696">
        <ele>103.5</ele>
        <time>2022-08-10T08:12:25Z</time>
      </trkpt>
      <trkpt lat="49.93678" lon="2.08695">
        <ele>103.5</ele>
        <time>2022-08-10T08:12:26Z</time>
      </trkpt>
      <trkpt lat="49.93677" lon="2.08693">
        <ele>103.6</ele>
        <time>2022-08-10T08:12:27Z</time>
      </trkpt>
      <trkpt lat="49.93677" lon="2.08692">
        <ele>103.6</ele>
        <time>2022-08-10T08:12:28Z</time>
      </trkpt>
      <trkpt lat="49.93677" lon="2.0869">
        <ele>103.6</ele>
        <time>2022-08-10T08:12:29Z</time>
      </trkpt>
      <trkpt lat="49.93676" lon="2.08689">
        <ele>103.6</ele>
        <time>2022-08-10T08:12:30Z</time>
      </trkpt>
      <trkpt lat="49.93676" lon="2.08687">
        <ele>103.6</ele>
        <time>2022-08-10T08:12:31Z</time>
      </trkpt>
      <trkpt lat="49.93677" lon="2.08685">
        <ele>103.6</ele>
        <time>2022-08-10T08:12:33Z</time>
      </trkpt>
      <trkpt lat="49.93677" lon="2.08684">
        <ele>103.7</ele>
        <time>2022-08-10T08:12:34Z</time>
      </trkpt>
      <trkpt lat="49.93677" lon="2.08682">
        <ele>103.7</ele>
        <time>2022-08-10T08:12:35Z</time>
      </trkpt>
      <trkpt lat="49.93677" lon="2.08681">
        <ele>103.7</ele>
        <time>2022-08-10T08:12:36Z</time>
      </trkpt>
      <trkpt lat="49.93676" lon="2.08679">
        <ele>103.7</ele>
        <time>2022-08-10T08:12:37Z</time>
      </trkpt>
      <trkpt lat="49.93676" lon="2.08677">
        <ele>103.7</ele>
        <time>2022-08-10T08:12:38Z</time>
      </trkpt>
      <trkpt lat="49.93676" lon="2.08676">
        <ele>103.7</ele>
        <time>2022-08-10T08:12:39Z</time>
      </trkpt>
      <trkpt lat="49.93676" lon="2.08674">
        <ele>103.7</ele>
        <time>2022-08-10T08:12:40Z</time>
      </trkpt>
      <trkpt lat="49.93675" lon="2.08673">
        <ele>103.7</ele>
        <time>2022-08-10T08:12:42Z</time>
      </trkpt>
      <trkpt lat="49.93675" lon="2.08671">
        <ele>103.7</ele>
        <time>2022-08-10T08:12:43Z</time>
      </trkpt>
      <trkpt lat="49.93674" lon="2.08668">
        <ele>103.8</ele>
        <time>2022-08-10T08:12:45Z</time>
      </trkpt>
      <trkpt lat="49.93674" lon="2.08667">
        <ele>103.9</ele>
        <time>2022-08-10T08:12:46Z</time>
      </trkpt>
      <trkpt lat="49.93674" lon="2.08665">
        <ele>103.9</ele>
        <time>2022-08-10T08:12:47Z</time>
      </trkpt>
      <trkpt lat="49.93673" lon="2.08663">
        <ele>103.9</ele>
        <time>2022-08-10T08:12:48Z</time>
      </trkpt>
      <trkpt lat="49.93673" lon="2.0866">
        <ele>103.9</ele>
        <time>2022-08-10T08:12:49Z</time>
      </trkpt>
      <trkpt lat="49.93672" lon="2.08658">
        <ele>103.9</ele>
        <time>2022-08-10T08:12:51Z</time>
      </trkpt>
      <trkpt lat="49.93672" lon="2.08657">
        <ele>104</ele>
        <time>2022-08-10T08:12:52Z</time>
      </trkpt>
      <trkpt lat="49.93671" lon="2.08654">
        <ele>104.1</ele>
        <time>2022-08-10T08:12:53Z</time>
      </trkpt>
      <trkpt lat="49.9367" lon="2.08652">
        <ele>104.1</ele>
        <time>2022-08-10T08:12:54Z</time>
      </trkpt>
      <trkpt lat="49.9367" lon="2.08651">
        <ele>104.1</ele>
        <time>2022-08-10T08:12:55Z</time>
      </trkpt>
      <trkpt lat="49.93669" lon="2.08648">
        <ele>104.2</ele>
        <time>2022-08-10T08:12:56Z</time>
      </trkpt>
      <trkpt lat="49.93668" lon="2.08646">
        <ele>104.2</ele>
        <time>2022-08-10T08:12:57Z</time>
      </trkpt>
      <trkpt lat="49.93667" lon="2.08644">
        <ele>104.2</ele>
        <time>2022-08-10T08:12:58Z</time>
      </trkpt>
      <trkpt lat="49.93666" lon="2.08641">
        <ele>104.4</ele>
        <time>2022-08-10T08:13:00Z</time>
      </trkpt>
      <trkpt lat="49.93666" lon="2.08639">
        <ele>104.4</ele>
        <time>2022-08-10T08:13:01Z</time>
      </trkpt>
      <trkpt lat="49.93665" lon="2.08635">
        <ele>104.4</ele>
        <time>2022-08-10T08:13:02Z</time>
      </trkpt>
      <trkpt lat="49.93665" lon="2.08634">
        <ele>104.4</ele>
        <time>2022-08-10T08:13:03Z</time>
      </trkpt>
      <trkpt lat="49.93664" lon="2.08632">
        <ele>104.5</ele>
        <time>2022-08-10T08:13:04Z</time>
      </trkpt>
      <trkpt lat="49.93663" lon="2.0863">
        <ele>104.5</ele>
        <time>2022-08-10T08:13:05Z</time>
      </trkpt>
      <trkpt lat="49.93663" lon="2.08628">
        <ele>104.6</ele>
        <time>2022-08-10T08:13:06Z</time>
      </trkpt>
      <trkpt lat="49.93662" lon="2.08625">
        <ele>104.6</ele>
        <time>2022-08-10T08:13:07Z</time>
      </trkpt>
      <trkpt lat="49.93661" lon="2.08623">
        <ele>104.7</ele>
        <time>2022-08-10T08:13:08Z</time>
      </trkpt>
      <trkpt lat="49.9366" lon="2.08622">
        <ele>104.7</ele>
        <time>2022-08-10T08:13:10Z</time>
      </trkpt>
      <trkpt lat="49.9366" lon="2.0862">
        <ele>104.7</ele>
        <time>2022-08-10T08:13:11Z</time>
      </trkpt>
      <trkpt lat="49.93659" lon="2.08618">
        <ele>104.7</ele>
        <time>2022-08-10T08:13:12Z</time>
      </trkpt>
      <trkpt lat="49.93658" lon="2.08616">
        <ele>104.7</ele>
        <time>2022-08-10T08:13:13Z</time>
      </trkpt>
      <trkpt lat="49.93658" lon="2.08615">
        <ele>104.9</ele>
        <time>2022-08-10T08:13:14Z</time>
      </trkpt>
      <trkpt lat="49.93658" lon="2.08613">
        <ele>104.9</ele>
        <time>2022-08-10T08:13:15Z</time>
      </trkpt>
      <trkpt lat="49.93658" lon="2.08612">
        <ele>104.9</ele>
        <time>2022-08-10T08:13:16Z</time>
      </trkpt>
      <trkpt lat="49.93657" lon="2.08609">
        <ele>104.9</ele>
        <time>2022-08-10T08:13:18Z</time>
      </trkpt>
      <trkpt lat="49.93657" lon="2.08608">
        <ele>104.9</ele>
        <time>2022-08-10T08:13:19Z</time>
      </trkpt>
      <trkpt lat="49.93657" lon="2.08607">
        <ele>105</ele>
        <time>2022-08-10T08:13:20Z</time>
      </trkpt>
      <trkpt lat="49.93656" lon="2.08604">
        <ele>105</ele>
        <time>2022-08-10T08:13:21Z</time>
      </trkpt>
      <trkpt lat="49.93656" lon="2.08603">
        <ele>105</ele>
        <time>2022-08-10T08:13:22Z</time>
      </trkpt>
      <trkpt lat="49.93656" lon="2.08602">
        <ele>105</ele>
        <time>2022-08-10T08:13:23Z</time>
      </trkpt>
      <trkpt lat="49.93656" lon="2.08601">
        <ele>105</ele>
        <time>2022-08-10T08:13:24Z</time>
      </trkpt>
      <trkpt lat="49.93656" lon="2.08598">
        <ele>105.1</ele>
        <time>2022-08-10T08:13:25Z</time>
      </trkpt>
      <trkpt lat="49.93656" lon="2.08597">
        <ele>105.1</ele>
        <time>2022-08-10T08:13:26Z</time>
      </trkpt>
      <trkpt lat="49.93656" lon="2.08595">
        <ele>105.1</ele>
        <time>2022-08-10T08:13:27Z</time>
      </trkpt>
      <trkpt lat="49.93656" lon="2.08594">
        <ele>105.1</ele>
        <time>2022-08-10T08:13:29Z</time>
      </trkpt>
      <trkpt lat="49.93655" lon="2.08592">
        <ele>105.2</ele>
        <time>2022-08-10T08:13:30Z</time>
      </trkpt>
      <trkpt lat="49.93655" lon="2.0859">
        <ele>105.2</ele>
        <time>2022-08-10T08:13:31Z</time>
      </trkpt>
      <trkpt lat="49.93654" lon="2.08588">
        <ele>105.2</ele>
        <time>2022-08-10T08:13:32Z</time>
      </trkpt>
      <trkpt lat="49.93654" lon="2.08586">
        <ele>105.2</ele>
        <time>2022-08-10T08:13:33Z</time>
      </trkpt>
      <trkpt lat="49.93654" lon="2.08583">
        <ele>105.3</ele>
        <time>2022-08-10T08:13:34Z</time>
      </trkpt>
      <trkpt lat="49.93654" lon="2.08581">
        <ele>105.3</ele>
        <time>2022-08-10T08:13:35Z</time>
      </trkpt>
      <trkpt lat="49.93653" lon="2.0858">
        <ele>105.3</ele>
        <time>2022-08-10T08:13:36Z</time>
      </trkpt>
      <trkpt lat="49.93653" lon="2.08576">
        <ele>105.4</ele>
        <time>2022-08-10T08:13:37Z</time>
      </trkpt>
      <trkpt lat="49.93652" lon="2.08574">
        <ele>105.4</ele>
        <time>2022-08-10T08:13:38Z</time>
      </trkpt>
      <trkpt lat="49.93652" lon="2.08573">
        <ele>105.4</ele>
        <time>2022-08-10T08:13:40Z</time>
      </trkpt>
      <trkpt lat="49.93652" lon="2.08572">
        <ele>105.5</ele>
        <time>2022-08-10T08:13:41Z</time>
      </trkpt>
      <trkpt lat="49.93652" lon="2.0857">
        <ele>105.5</ele>
        <time>2022-08-10T08:13:42Z</time>
      </trkpt>
      <trkpt lat="49.93652" lon="2.08569">
        <ele>105.5</ele>
        <time>2022-08-10T08:13:43Z</time>
      </trkpt>
      <trkpt lat="49.93651" lon="2.08568">
        <ele>105.5</ele>
        <time>2022-08-10T08:13:44Z</time>
      </trkpt>
      <trkpt lat="49.93651" lon="2.08566">
        <ele>105.5</ele>
        <time>2022-08-10T08:13:45Z</time>
      </trkpt>
      <trkpt lat="49.9365" lon="2.08564">
        <ele>105.6</ele>
        <time>2022-08-10T08:13:46Z</time>
      </trkpt>
      <trkpt lat="49.9365" lon="2.08562">
        <ele>105.7</ele>
        <time>2022-08-10T08:13:47Z</time>
      </trkpt>
      <trkpt lat="49.9365" lon="2.08561">
        <ele>105.7</ele>
        <time>2022-08-10T08:13:49Z</time>
      </trkpt>
      <trkpt lat="49.93649" lon="2.08559">
        <ele>105.7</ele>
        <time>2022-08-10T08:13:50Z</time>
      </trkpt>
      <trkpt lat="49.93649" lon="2.08558">
        <ele>105.7</ele>
        <time>2022-08-10T08:13:51Z</time>
      </trkpt>
      <trkpt lat="49.93649" lon="2.08557">
        <ele>105.7</ele>
        <time>2022-08-10T08:13:52Z</time>
      </trkpt>
      <trkpt lat="49.93648" lon="2.08555">
        <ele>105.8</ele>
        <time>2022-08-10T08:13:53Z</time>
      </trkpt>
      <trkpt lat="49.93648" lon="2.08553">
        <ele>105.8</ele>
        <time>2022-08-10T08:13:54Z</time>
      </trkpt>
      <trkpt lat="49.93648" lon="2.08552">
        <ele>105.8</ele>
        <time>2022-08-10T08:13:55Z</time>
      </trkpt>
      <trkpt lat="49.93647" lon="2.0855">
        <ele>105.8</ele>
        <time>2022-08-10T08:13:57Z</time>
      </trkpt>
      <trkpt lat="49.93647" lon="2.08548">
        <ele>105.9</ele>
        <time>2022-08-10T08:13:58Z</time>
      </trkpt>
      <trkpt lat="49.93647" lon="2.08547">
        <ele>105.9</ele>
        <time>2022-08-10T08:13:59Z</time>
      </trkpt>
      <trkpt lat="49.93647" lon="2.08546">
        <ele>105.9</ele>
        <time>2022-08-10T08:14:00Z</time>
      </trkpt>
      <trkpt lat="49.93646" lon="2.08544">
        <ele>105.9</ele>
        <time>2022-08-10T08:14:01Z</time>
      </trkpt>
      <trkpt lat="49.93645" lon="2.08543">
        <ele>106</ele>
        <time>2022-08-10T08:14:02Z</time>
      </trkpt>
      <trkpt lat="49.93645" lon="2.08541">
        <ele>106</ele>
        <time>2022-08-10T08:14:03Z</time>
      </trkpt>
      <trkpt lat="49.93644" lon="2.08539">
        <ele>106</ele>
        <time>2022-08-10T08:14:04Z</time>
      </trkpt>
      <trkpt lat="49.93643" lon="2.08538">
        <ele>106.1</ele>
        <time>2022-08-10T08:14:05Z</time>
      </trkpt>
      <trkpt lat="49.93643" lon="2.08537">
        <ele>106.1</ele>
        <time>2022-08-10T08:14:07Z</time>
      </trkpt>
      <trkpt lat="49.93643" lon="2.08536">
        <ele>106.1</ele>
        <time>2022-08-10T08:14:08Z</time>
      </trkpt>
      <trkpt lat="49.93642" lon="2.08533">
        <ele>106.2</ele>
        <time>2022-08-10T08:14:09Z</time>
      </trkpt>
      <trkpt lat="49.93641" lon="2.08532">
        <ele>106.2</ele>
        <time>2022-08-10T08:14:10Z</time>
      </trkpt>
      <trkpt lat="49.93641" lon="2.08531">
        <ele>106.2</ele>
        <time>2022-08-10T08:14:11Z</time>
      </trkpt>
      <trkpt lat="49.9364" lon="2.08529">
        <ele>106.3</ele>
        <time>2022-08-10T08:14:12Z</time>
      </trkpt>
      <trkpt lat="49.93639" lon="2.08527">
        <ele>106.3</ele>
        <time>2022-08-10T08:14:13Z</time>
      </trkpt>
      <trkpt lat="49.93639" lon="2.08526">
        <ele>106.3</ele>
        <time>2022-08-10T08:14:15Z</time>
      </trkpt>
      <trkpt lat="49.93639" lon="2.08524">
        <ele>106.4</ele>
        <time>2022-08-10T08:14:16Z</time>
      </trkpt>
      <trkpt lat="49.93638" lon="2.08522">
        <ele>106.4</ele>
        <time>2022-08-10T08:14:17Z</time>
      </trkpt>
      <trkpt lat="49.93637" lon="2.08519">
        <ele>106.4</ele>
        <time>2022-08-10T08:14:18Z</time>
      </trkpt>
      <trkpt lat="49.93637" lon="2.08518">
        <ele>106.4</ele>
        <time>2022-08-10T08:14:19Z</time>
      </trkpt>
      <trkpt lat="49.93637" lon="2.08517">
        <ele>106.5</ele>
        <time>2022-08-10T08:14:20Z</time>
      </trkpt>
      <trkpt lat="49.93636" lon="2.08515">
        <ele>106.5</ele>
        <time>2022-08-10T08:14:21Z</time>
      </trkpt>
      <trkpt lat="49.93636" lon="2.08513">
        <ele>106.5</ele>
        <time>2022-08-10T08:14:22Z</time>
      </trkpt>
      <trkpt lat="49.93636" lon="2.08513">
        <ele>106.6</ele>
        <time>2022-08-10T08:14:24Z</time>
      </trkpt>
      <trkpt lat="49.93635" lon="2.08511">
        <ele>106.6</ele>
        <time>2022-08-10T08:14:25Z</time>
      </trkpt>
      <trkpt lat="49.93635" lon="2.0851">
        <ele>106.6</ele>
        <time>2022-08-10T08:14:26Z</time>
      </trkpt>
      <trkpt lat="49.93635" lon="2.08508">
        <ele>106.6</ele>
        <time>2022-08-10T08:14:27Z</time>
      </trkpt>
      <trkpt lat="49.93634" lon="2.08507">
        <ele>106.6</ele>
        <time>2022-08-10T08:14:28Z</time>
      </trkpt>
      <trkpt lat="49.93634" lon="2.08505">
        <ele>106.6</ele>
        <time>2022-08-10T08:14:29Z</time>
      </trkpt>
      <trkpt lat="49.93634" lon="2.08503">
        <ele>106.7</ele>
        <time>2022-08-10T08:14:30Z</time>
      </trkpt>
      <trkpt lat="49.93633" lon="2.08502">
        <ele>106.7</ele>
        <time>2022-08-10T08:14:31Z</time>
      </trkpt>
      <trkpt lat="49.93633" lon="2.085">
        <ele>106.8</ele>
        <time>2022-08-10T08:14:33Z</time>
      </trkpt>
      <trkpt lat="49.93632" lon="2.08499">
        <ele>106.8</ele>
        <time>2022-08-10T08:14:34Z</time>
      </trkpt>
      <trkpt lat="49.93632" lon="2.08497">
        <ele>106.8</ele>
        <time>2022-08-10T08:14:35Z</time>
      </trkpt>
      <trkpt lat="49.93631" lon="2.08496">
        <ele>106.8</ele>
        <time>2022-08-10T08:14:36Z</time>
      </trkpt>
      <trkpt lat="49.93631" lon="2.08494">
        <ele>106.8</ele>
        <time>2022-08-10T08:14:37Z</time>
      </trkpt>
      <trkpt lat="49.9363" lon="2.08491">
        <ele>107</ele>
        <time>2022-08-10T08:14:38Z</time>
      </trkpt>
      <trkpt lat="49.9363" lon="2.08489">
        <ele>107</ele>
        <time>2022-08-10T08:14:39Z</time>
      </trkpt>
      <trkpt lat="49.9363" lon="2.08488">
        <ele>107</ele>
        <time>2022-08-10T08:14:41Z</time>
      </trkpt>
      <trkpt lat="49.93629" lon="2.08487">
        <ele>107</ele>
        <time>2022-08-10T08:14:42Z</time>
      </trkpt>
      <trkpt lat="49.93629" lon="2.08485">
        <ele>107</ele>
        <time>2022-08-10T08:14:43Z</time>
      </trkpt>
      <trkpt lat="49.93629" lon="2.08484">
        <ele>107</ele>
        <time>2022-08-10T08:14:44Z</time>
      </trkpt>
      <trkpt lat="49.93628" lon="2.0848">
        <ele>107.1</ele>
        <time>2022-08-10T08:14:45Z</time>
      </trkpt>
      <trkpt lat="49.93628" lon="2.08479">
        <ele>107.1</ele>
        <time>2022-08-10T08:14:46Z</time>
      </trkpt>
      <trkpt lat="49.93628" lon="2.08478">
        <ele>107.1</ele>
        <time>2022-08-10T08:14:47Z</time>
      </trkpt>
      <trkpt lat="49.93627" lon="2.08476">
        <ele>107.1</ele>
        <time>2022-08-10T08:14:49Z</time>
      </trkpt>
      <trkpt lat="49.93627" lon="2.08475">
        <ele>107.1</ele>
        <time>2022-08-10T08:14:50Z</time>
      </trkpt>
      <trkpt lat="49.93627" lon="2.08473">
        <ele>107.2</ele>
        <time>2022-08-10T08:14:51Z</time>
      </trkpt>
      <trkpt lat="49.93627" lon="2.08471">
        <ele>107.2</ele>
        <time>2022-08-10T08:14:52Z</time>
      </trkpt>
      <trkpt lat="49.93626" lon="2.08469">
        <ele>107.2</ele>
        <time>2022-08-10T08:14:53Z</time>
      </trkpt>
      <trkpt lat="49.93626" lon="2.08468">
        <ele>107.2</ele>
        <time>2022-08-10T08:14:54Z</time>
      </trkpt>
      <trkpt lat="49.93626" lon="2.08465">
        <ele>107.3</ele>
        <time>2022-08-10T08:14:55Z</time>
      </trkpt>
      <trkpt lat="49.93625" lon="2.08463">
        <ele>107.3</ele>
        <time>2022-08-10T08:14:57Z</time>
      </trkpt>
      <trkpt lat="49.93625" lon="2.08462">
        <ele>107.3</ele>
        <time>2022-08-10T08:14:58Z</time>
      </trkpt>
      <trkpt lat="49.93625" lon="2.08461">
        <ele>107.3</ele>
        <time>2022-08-10T08:14:59Z</time>
      </trkpt>
      <trkpt lat="49.93624" lon="2.08459">
        <ele>107.3</ele>
        <time>2022-08-10T08:15:00Z</time>
      </trkpt>
      <trkpt lat="49.93624" lon="2.08457">
        <ele>107.3</ele>
        <time>2022-08-10T08:15:01Z</time>
      </trkpt>
      <trkpt lat="49.93623" lon="2.08455">
        <ele>107.4</ele>
        <time>2022-08-10T08:15:02Z</time>
      </trkpt>
      <trkpt lat="49.93622" lon="2.08452">
        <ele>107.4</ele>
        <time>2022-08-10T08:15:03Z</time>
      </trkpt>
      <trkpt lat="49.93621" lon="2.08448">
        <ele>107.4</ele>
        <time>2022-08-10T08:15:04Z</time>
      </trkpt>
      <trkpt lat="49.9362" lon="2.08447">
        <ele>107.4</ele>
        <time>2022-08-10T08:15:06Z</time>
      </trkpt>
      <trkpt lat="49.9362" lon="2.08445">
        <ele>107.4</ele>
        <time>2022-08-10T08:15:07Z</time>
      </trkpt>
      <trkpt lat="49.93619" lon="2.08443">
        <ele>107.4</ele>
        <time>2022-08-10T08:15:08Z</time>
      </trkpt>
      <trkpt lat="49.93619" lon="2.08441">
        <ele>107.4</ele>
        <time>2022-08-10T08:15:09Z</time>
      </trkpt>
      <trkpt lat="49.93618" lon="2.08439">
        <ele>107.4</ele>
        <time>2022-08-10T08:15:10Z</time>
      </trkpt>
      <trkpt lat="49.93617" lon="2.08437">
        <ele>107.4</ele>
        <time>2022-08-10T08:15:11Z</time>
      </trkpt>
      <trkpt lat="49.93616" lon="2.08435">
        <ele>107.4</ele>
        <time>2022-08-10T08:15:12Z</time>
      </trkpt>
      <trkpt lat="49.93615" lon="2.08432">
        <ele>107.4</ele>
        <time>2022-08-10T08:15:14Z</time>
      </trkpt>
      <trkpt lat="49.93615" lon="2.08431">
        <ele>107.4</ele>
        <time>2022-08-10T08:15:15Z</time>
      </trkpt>
      <trkpt lat="49.93614" lon="2.0843">
        <ele>107.4</ele>
        <time>2022-08-10T08:15:16Z</time>
      </trkpt>
      <trkpt lat="49.93614" lon="2.08428">
        <ele>107.4</ele>
        <time>2022-08-10T08:15:17Z</time>
      </trkpt>
      <trkpt lat="49.93613" lon="2.08426">
        <ele>107.4</ele>
        <time>2022-08-10T08:15:18Z</time>
      </trkpt>
      <trkpt lat="49.93612" lon="2.08425">
        <ele>107.4</ele>
        <time>2022-08-10T08:15:19Z</time>
      </trkpt>
      <trkpt lat="49.93612" lon="2.08423">
        <ele>107.4</ele>
        <time>2022-08-10T08:15:20Z</time>
      </trkpt>
      <trkpt lat="49.93611" lon="2.08422">
        <ele>107.3</ele>
        <time>2022-08-10T08:15:21Z</time>
      </trkpt>
      <trkpt lat="49.93611" lon="2.0842">
        <ele>107.3</ele>
        <time>2022-08-10T08:15:23Z</time>
      </trkpt>
      <trkpt lat="49.9361" lon="2.08419">
        <ele>107.2</ele>
        <time>2022-08-10T08:15:24Z</time>
      </trkpt>
      <trkpt lat="49.9361" lon="2.08417">
        <ele>107.1</ele>
        <time>2022-08-10T08:15:25Z</time>
      </trkpt>
      <trkpt lat="49.9361" lon="2.08416">
        <ele>107.1</ele>
        <time>2022-08-10T08:15:26Z</time>
      </trkpt>
      <trkpt lat="49.93609" lon="2.08415">
        <ele>107.1</ele>
        <time>2022-08-10T08:15:27Z</time>
      </trkpt>
      <trkpt lat="49.93608" lon="2.08413">
        <ele>107.1</ele>
        <time>2022-08-10T08:15:28Z</time>
      </trkpt>
      <trkpt lat="49.93607" lon="2.08412">
        <ele>107.1</ele>
        <time>2022-08-10T08:15:29Z</time>
      </trkpt>
      <trkpt lat="49.93607" lon="2.08411">
        <ele>107.1</ele>
        <time>2022-08-10T08:15:31Z</time>
      </trkpt>
      <trkpt lat="49.93606" lon="2.08409">
        <ele>106.8</ele>
        <time>2022-08-10T08:15:32Z</time>
      </trkpt>
      <trkpt lat="49.93605" lon="2.08408">
        <ele>106.9</ele>
        <time>2022-08-10T08:15:33Z</time>
      </trkpt>
      <trkpt lat="49.93605" lon="2.08406">
        <ele>106.9</ele>
        <time>2022-08-10T08:15:34Z</time>
      </trkpt>
      <trkpt lat="49.93604" lon="2.08405">
        <ele>106.8</ele>
        <time>2022-08-10T08:15:35Z</time>
      </trkpt>
      <trkpt lat="49.93604" lon="2.08404">
        <ele>106.8</ele>
        <time>2022-08-10T08:15:36Z</time>
      </trkpt>
      <trkpt lat="49.93603" lon="2.08402">
        <ele>106.8</ele>
        <time>2022-08-10T08:15:37Z</time>
      </trkpt>
      <trkpt lat="49.93603" lon="2.084">
        <ele>106.6</ele>
        <time>2022-08-10T08:15:38Z</time>
      </trkpt>
      <trkpt lat="49.93603" lon="2.08399">
        <ele>106.5</ele>
        <time>2022-08-10T08:15:40Z</time>
      </trkpt>
      <trkpt lat="49.93603" lon="2.08398">
        <ele>106.5</ele>
        <time>2022-08-10T08:15:41Z</time>
      </trkpt>
      <trkpt lat="49.93603" lon="2.08396">
        <ele>106.4</ele>
        <time>2022-08-10T08:15:42Z</time>
      </trkpt>
      <trkpt lat="49.93603" lon="2.08395">
        <ele>106.4</ele>
        <time>2022-08-10T08:15:43Z</time>
      </trkpt>
      <trkpt lat="49.93603" lon="2.08393">
        <ele>106.4</ele>
        <time>2022-08-10T08:15:44Z</time>
      </trkpt>
      <trkpt lat="49.93602" lon="2.08392">
        <ele>106.3</ele>
        <time>2022-08-10T08:15:45Z</time>
      </trkpt>
      <trkpt lat="49.93602" lon="2.0839">
        <ele>106.3</ele>
        <time>2022-08-10T08:15:46Z</time>
      </trkpt>
      <trkpt lat="49.93602" lon="2.08389">
        <ele>106.2</ele>
        <time>2022-08-10T08:15:47Z</time>
      </trkpt>
      <trkpt lat="49.93601" lon="2.08386">
        <ele>106</ele>
        <time>2022-08-10T08:15:48Z</time>
      </trkpt>
      <trkpt lat="49.93601" lon="2.08385">
        <ele>106</ele>
        <time>2022-08-10T08:15:50Z</time>
      </trkpt>
      <trkpt lat="49.93601" lon="2.08383">
        <ele>105.9</ele>
        <time>2022-08-10T08:15:51Z</time>
      </trkpt>
      <trkpt lat="49.93601" lon="2.08381">
        <ele>105.9</ele>
        <time>2022-08-10T08:15:52Z</time>
      </trkpt>
      <trkpt lat="49.93601" lon="2.08379">
        <ele>105.7</ele>
        <time>2022-08-10T08:15:53Z</time>
      </trkpt>
      <trkpt lat="49.936" lon="2.08377">
        <ele>105.7</ele>
        <time>2022-08-10T08:15:54Z</time>
      </trkpt>
      <trkpt lat="49.936" lon="2.08376">
        <ele>105.7</ele>
        <time>2022-08-10T08:15:55Z</time>
      </trkpt>
      <trkpt lat="49.936" lon="2.08374">
        <ele>105.5</ele>
        <time>2022-08-10T08:15:56Z</time>
      </trkpt>
      <trkpt lat="49.93599" lon="2.08372">
        <ele>105.5</ele>
        <time>2022-08-10T08:15:57Z</time>
      </trkpt>
      <trkpt lat="49.93599" lon="2.0837">
        <ele>105.3</ele>
        <time>2022-08-10T08:15:58Z</time>
      </trkpt>
      <trkpt lat="49.93598" lon="2.08369">
        <ele>105.3</ele>
        <time>2022-08-10T08:16:00Z</time>
      </trkpt>
      <trkpt lat="49.93598" lon="2.08367">
        <ele>105.3</ele>
        <time>2022-08-10T08:16:01Z</time>
      </trkpt>
      <trkpt lat="49.93597" lon="2.08365">
        <ele>105.2</ele>
        <time>2022-08-10T08:16:02Z</time>
      </trkpt>
      <trkpt lat="49.93597" lon="2.08364">
        <ele>105.2</ele>
        <time>2022-08-10T08:16:03Z</time>
      </trkpt>
      <trkpt lat="49.93596" lon="2.08362">
        <ele>104.9</ele>
        <time>2022-08-10T08:16:04Z</time>
      </trkpt>
      <trkpt lat="49.93596" lon="2.08361">
        <ele>104.9</ele>
        <time>2022-08-10T08:16:05Z</time>
      </trkpt>
      <trkpt lat="49.93595" lon="2.08359">
        <ele>104.9</ele>
        <time>2022-08-10T08:16:06Z</time>
      </trkpt>
      <trkpt lat="49.93595" lon="2.08358">
        <ele>104.7</ele>
        <time>2022-08-10T08:16:07Z</time>
      </trkpt>
      <trkpt lat="49.93594" lon="2.08356">
        <ele>104.8</ele>
        <time>2022-08-10T08:16:08Z</time>
      </trkpt>
      <trkpt lat="49.93594" lon="2.08355">
        <ele>104.8</ele>
        <time>2022-08-10T08:16:10Z</time>
      </trkpt>
      <trkpt lat="49.93594" lon="2.08353">
        <ele>104.6</ele>
        <time>2022-08-10T08:16:11Z</time>
      </trkpt>
      <trkpt lat="49.93593" lon="2.08351">
        <ele>104.5</ele>
        <time>2022-08-10T08:16:12Z</time>
      </trkpt>
      <trkpt lat="49.93592" lon="2.08349">
        <ele>104.3</ele>
        <time>2022-08-10T08:16:13Z</time>
      </trkpt>
      <trkpt lat="49.93592" lon="2.08348">
        <ele>104.4</ele>
        <time>2022-08-10T08:16:14Z</time>
      </trkpt>
      <trkpt lat="49.93592" lon="2.08347">
        <ele>104.4</ele>
        <time>2022-08-10T08:16:15Z</time>
      </trkpt>
      <trkpt lat="49.93591" lon="2.08345">
        <ele>104.1</ele>
        <time>2022-08-10T08:16:17Z</time>
      </trkpt>
      <trkpt lat="49.93591" lon="2.08344">
        <ele>104.1</ele>
        <time>2022-08-10T08:16:18Z</time>
      </trkpt>
      <trkpt lat="49.93591" lon="2.08341">
        <ele>104.1</ele>
        <time>2022-08-10T08:16:19Z</time>
      </trkpt>
      <trkpt lat="49.93591" lon="2.0834">
        <ele>103.8</ele>
        <time>2022-08-10T08:16:20Z</time>
      </trkpt>
      <trkpt lat="49.93591" lon="2.08338">
        <ele>103.8</ele>
        <time>2022-08-10T08:16:21Z</time>
      </trkpt>
      <trkpt lat="49.93591" lon="2.08336">
        <ele>103.6</ele>
        <time>2022-08-10T08:16:22Z</time>
      </trkpt>
      <trkpt lat="49.93591" lon="2.08333">
        <ele>103.6</ele>
        <time>2022-08-10T08:16:23Z</time>
      </trkpt>
      <trkpt lat="49.93591" lon="2.08332">
        <ele>103.4</ele>
        <time>2022-08-10T08:16:25Z</time>
      </trkpt>
      <trkpt lat="49.93591" lon="2.0833">
        <ele>103.4</ele>
        <time>2022-08-10T08:16:26Z</time>
      </trkpt>
      <trkpt lat="49.9359" lon="2.08328">
        <ele>103.2</ele>
        <time>2022-08-10T08:16:27Z</time>
      </trkpt>
      <trkpt lat="49.9359" lon="2.08326">
        <ele>103.1</ele>
        <time>2022-08-10T08:16:28Z</time>
      </trkpt>
      <trkpt lat="49.9359" lon="2.08323">
        <ele>102.9</ele>
        <time>2022-08-10T08:16:29Z</time>
      </trkpt>
      <trkpt lat="49.93589" lon="2.08321">
        <ele>102.9</ele>
        <time>2022-08-10T08:16:30Z</time>
      </trkpt>
      <trkpt lat="49.93589" lon="2.08319">
        <ele>102.7</ele>
        <time>2022-08-10T08:16:31Z</time>
      </trkpt>
      <trkpt lat="49.93589" lon="2.08317">
        <ele>102.7</ele>
        <time>2022-08-10T08:16:33Z</time>
      </trkpt>
      <trkpt lat="49.93589" lon="2.08314">
        <ele>102.5</ele>
        <time>2022-08-10T08:16:34Z</time>
      </trkpt>
      <trkpt lat="49.93588" lon="2.08313">
        <ele>102.5</ele>
        <time>2022-08-10T08:16:35Z</time>
      </trkpt>
      <trkpt lat="49.93588" lon="2.08311">
        <ele>102.1</ele>
        <time>2022-08-10T08:16:36Z</time>
      </trkpt>
      <trkpt lat="49.93587" lon="2.08309">
        <ele>102.1</ele>
        <time>2022-08-10T08:16:37Z</time>
      </trkpt>
      <trkpt lat="49.93587" lon="2.08308">
        <ele>102.1</ele>
        <time>2022-08-10T08:16:38Z</time>
      </trkpt>
      <trkpt lat="49.93586" lon="2.08305">
        <ele>102</ele>
        <time>2022-08-10T08:16:39Z</time>
      </trkpt>
      <trkpt lat="49.93585" lon="2.08302">
        <ele>101.8</ele>
        <time>2022-08-10T08:16:40Z</time>
      </trkpt>
      <trkpt lat="49.93585" lon="2.08301">
        <ele>101.8</ele>
        <time>2022-08-10T08:16:42Z</time>
      </trkpt>
      <trkpt lat="49.93584" lon="2.083">
        <ele>101.8</ele>
        <time>2022-08-10T08:16:43Z</time>
      </trkpt>
      <trkpt lat="49.93584" lon="2.08297">
        <ele>101.6</ele>
        <time>2022-08-10T08:16:44Z</time>
      </trkpt>
      <trkpt lat="49.93583" lon="2.08296">
        <ele>101.5</ele>
        <time>2022-08-10T08:16:45Z</time>
      </trkpt>
      <trkpt lat="49.93582" lon="2.08294">
        <ele>101.3</ele>
        <time>2022-08-10T08:16:46Z</time>
      </trkpt>
      <trkpt lat="49.93582" lon="2.08292">
        <ele>101.3</ele>
        <time>2022-08-10T08:16:47Z</time>
      </trkpt>
      <trkpt lat="49.93581" lon="2.08289">
        <ele>101.2</ele>
        <time>2022-08-10T08:16:49Z</time>
      </trkpt>
      <trkpt lat="49.9358" lon="2.08287">
        <ele>101.2</ele>
        <time>2022-08-10T08:16:50Z</time>
      </trkpt>
      <trkpt lat="49.9358" lon="2.08286">
        <ele>101.2</ele>
        <time>2022-08-10T08:16:51Z</time>
      </trkpt>
      <trkpt lat="49.9358" lon="2.08284">
        <ele>101</ele>
        <time>2022-08-10T08:16:52Z</time>
      </trkpt>
      <trkpt lat="49.93579" lon="2.08281">
        <ele>100.9</ele>
        <time>2022-08-10T08:16:54Z</time>
      </trkpt>
      <trkpt lat="49.93579" lon="2.0828">
        <ele>100.7</ele>
        <time>2022-08-10T08:16:55Z</time>
      </trkpt>
      <trkpt lat="49.93578" lon="2.08278">
        <ele>100.7</ele>
        <time>2022-08-10T08:16:56Z</time>
      </trkpt>
      <trkpt lat="49.93578" lon="2.08277">
        <ele>100.8</ele>
        <time>2022-08-10T08:16:57Z</time>
      </trkpt>
      <trkpt lat="49.93576" lon="2.08275">
        <ele>100.6</ele>
        <time>2022-08-10T08:16:58Z</time>
      </trkpt>
      <trkpt lat="49.93576" lon="2.08274">
        <ele>100.6</ele>
        <time>2022-08-10T08:16:59Z</time>
      </trkpt>
      <trkpt lat="49.93575" lon="2.08273">
        <ele>100.7</ele>
        <time>2022-08-10T08:17:00Z</time>
      </trkpt>
      <trkpt lat="49.93574" lon="2.0827">
        <ele>100.4</ele>
        <time>2022-08-10T08:17:01Z</time>
      </trkpt>
      <trkpt lat="49.93574" lon="2.08268">
        <ele>100.4</ele>
        <time>2022-08-10T08:17:03Z</time>
      </trkpt>
      <trkpt lat="49.93573" lon="2.08267">
        <ele>100.2</ele>
        <time>2022-08-10T08:17:04Z</time>
      </trkpt>
      <trkpt lat="49.93573" lon="2.08266">
        <ele>100.2</ele>
        <time>2022-08-10T08:17:05Z</time>
      </trkpt>
      <trkpt lat="49.93573" lon="2.08264">
        <ele>100.2</ele>
        <time>2022-08-10T08:17:06Z</time>
      </trkpt>
      <trkpt lat="49.93573" lon="2.08262">
        <ele>100</ele>
        <time>2022-08-10T08:17:07Z</time>
      </trkpt>
      <trkpt lat="49.93572" lon="2.0826">
        <ele>100.2</ele>
        <time>2022-08-10T08:17:08Z</time>
      </trkpt>
      <trkpt lat="49.93572" lon="2.08258">
        <ele>99.9</ele>
        <time>2022-08-10T08:17:09Z</time>
      </trkpt>
      <trkpt lat="49.93572" lon="2.08256">
        <ele>99.9</ele>
        <time>2022-08-10T08:17:11Z</time>
      </trkpt>
      <trkpt lat="49.93571" lon="2.08255">
        <ele>99.7</ele>
        <time>2022-08-10T08:17:12Z</time>
      </trkpt>
      <trkpt lat="49.93571" lon="2.08253">
        <ele>99.7</ele>
        <time>2022-08-10T08:17:13Z</time>
      </trkpt>
      <trkpt lat="49.93571" lon="2.08251">
        <ele>99.7</ele>
        <time>2022-08-10T08:17:14Z</time>
      </trkpt>
      <trkpt lat="49.93571" lon="2.0825">
        <ele>99.5</ele>
        <time>2022-08-10T08:17:15Z</time>
      </trkpt>
      <trkpt lat="49.93571" lon="2.08248">
        <ele>99.5</ele>
        <time>2022-08-10T08:17:16Z</time>
      </trkpt>
      <trkpt lat="49.93571" lon="2.08247">
        <ele>99.5</ele>
        <time>2022-08-10T08:17:18Z</time>
      </trkpt>
      <trkpt lat="49.93571" lon="2.08245">
        <ele>99.3</ele>
        <time>2022-08-10T08:17:19Z</time>
      </trkpt>
      <trkpt lat="49.93571" lon="2.08245">
        <ele>99.3</ele>
        <time>2022-08-10T08:17:20Z</time>
      </trkpt>
      <trkpt lat="49.93571" lon="2.08244">
        <ele>99.3</ele>
        <time>2022-08-10T08:17:21Z</time>
      </trkpt>
      <trkpt lat="49.93571" lon="2.08243">
        <ele>99.3</ele>
        <time>2022-08-10T08:17:22Z</time>
      </trkpt>
      <trkpt lat="49.9357" lon="2.08241">
        <ele>99.2</ele>
        <time>2022-08-10T08:17:23Z</time>
      </trkpt>
      <trkpt lat="49.9357" lon="2.08239">
        <ele>99.3</ele>
        <time>2022-08-10T08:17:24Z</time>
      </trkpt>
      <trkpt lat="49.93569" lon="2.08238">
        <ele>99.1</ele>
        <time>2022-08-10T08:17:26Z</time>
      </trkpt>
      <trkpt lat="49.93569" lon="2.08236">
        <ele>99.1</ele>
        <time>2022-08-10T08:17:27Z</time>
      </trkpt>
      <trkpt lat="49.93569" lon="2.08235">
        <ele>99.1</ele>
        <time>2022-08-10T08:17:28Z</time>
      </trkpt>
      <trkpt lat="49.93568" lon="2.08233">
        <ele>99</ele>
        <time>2022-08-10T08:17:29Z</time>
      </trkpt>
      <trkpt lat="49.93568" lon="2.08232">
        <ele>99</ele>
        <time>2022-08-10T08:17:30Z</time>
      </trkpt>
      <trkpt lat="49.93567" lon="2.0823">
        <ele>99</ele>
        <time>2022-08-10T08:17:31Z</time>
      </trkpt>
      <trkpt lat="49.93567" lon="2.08227">
        <ele>99</ele>
        <time>2022-08-10T08:17:32Z</time>
      </trkpt>
      <trkpt lat="49.93566" lon="2.08226">
        <ele>99</ele>
        <time>2022-08-10T08:17:34Z</time>
      </trkpt>
      <trkpt lat="49.93566" lon="2.08225">
        <ele>98.8</ele>
        <time>2022-08-10T08:17:35Z</time>
      </trkpt>
      <trkpt lat="49.93565" lon="2.08223">
        <ele>98.8</ele>
        <time>2022-08-10T08:17:36Z</time>
      </trkpt>
      <trkpt lat="49.93564" lon="2.08222">
        <ele>99</ele>
        <time>2022-08-10T08:17:37Z</time>
      </trkpt>
      <trkpt lat="49.93564" lon="2.08221">
        <ele>98.8</ele>
        <time>2022-08-10T08:17:38Z</time>
      </trkpt>
      <trkpt lat="49.93563" lon="2.08219">
        <ele>98.8</ele>
        <time>2022-08-10T08:17:39Z</time>
      </trkpt>
      <trkpt lat="49.93562" lon="2.08217">
        <ele>98.8</ele>
        <time>2022-08-10T08:17:40Z</time>
      </trkpt>
      <trkpt lat="49.93561" lon="2.08213">
        <ele>98.8</ele>
        <time>2022-08-10T08:17:42Z</time>
      </trkpt>
      <trkpt lat="49.93561" lon="2.08211">
        <ele>98.6</ele>
        <time>2022-08-10T08:17:43Z</time>
      </trkpt>
      <trkpt lat="49.9356" lon="2.08208">
        <ele>98.6</ele>
        <time>2022-08-10T08:17:44Z</time>
      </trkpt>
      <trkpt lat="49.9356" lon="2.08207">
        <ele>98.5</ele>
        <time>2022-08-10T08:17:45Z</time>
      </trkpt>
      <trkpt lat="49.93559" lon="2.08203">
        <ele>98.3</ele>
        <time>2022-08-10T08:17:47Z</time>
      </trkpt>
      <trkpt lat="49.93559" lon="2.08202">
        <ele>98.3</ele>
        <time>2022-08-10T08:17:48Z</time>
      </trkpt>
      <trkpt lat="49.93559" lon="2.082">
        <ele>98.3</ele>
        <time>2022-08-10T08:17:49Z</time>
      </trkpt>
      <trkpt lat="49.93559" lon="2.08199">
        <ele>98.1</ele>
        <time>2022-08-10T08:17:50Z</time>
      </trkpt>
      <trkpt lat="49.93559" lon="2.08198">
        <ele>98.3</ele>
        <time>2022-08-10T08:17:51Z</time>
      </trkpt>
      <trkpt lat="49.93559" lon="2.08196">
        <ele>98.3</ele>
        <time>2022-08-10T08:17:52Z</time>
      </trkpt>
      <trkpt lat="49.93558" lon="2.08194">
        <ele>98.1</ele>
        <time>2022-08-10T08:17:54Z</time>
      </trkpt>
      <trkpt lat="49.93558" lon="2.08193">
        <ele>98.1</ele>
        <time>2022-08-10T08:17:55Z</time>
      </trkpt>
      <trkpt lat="49.93558" lon="2.08191">
        <ele>98.1</ele>
        <time>2022-08-10T08:17:56Z</time>
      </trkpt>
      <trkpt lat="49.93557" lon="2.08188">
        <ele>97.9</ele>
        <time>2022-08-10T08:17:57Z</time>
      </trkpt>
      <trkpt lat="49.93557" lon="2.08187">
        <ele>97.8</ele>
        <time>2022-08-10T08:17:58Z</time>
      </trkpt>
      <trkpt lat="49.93556" lon="2.08185">
        <ele>97.8</ele>
        <time>2022-08-10T08:17:59Z</time>
      </trkpt>
      <trkpt lat="49.93556" lon="2.08184">
        <ele>97.8</ele>
        <time>2022-08-10T08:18:01Z</time>
      </trkpt>
      <trkpt lat="49.93556" lon="2.08183">
        <ele>97.9</ele>
        <time>2022-08-10T08:18:02Z</time>
      </trkpt>
      <trkpt lat="49.93556" lon="2.08182">
        <ele>97.8</ele>
        <time>2022-08-10T08:18:03Z</time>
      </trkpt>
      <trkpt lat="49.93556" lon="2.08181">
        <ele>97.8</ele>
        <time>2022-08-10T08:18:04Z</time>
      </trkpt>
      <trkpt lat="49.93555" lon="2.08179">
        <ele>97.8</ele>
        <time>2022-08-10T08:18:05Z</time>
      </trkpt>
      <trkpt lat="49.93555" lon="2.08178">
        <ele>97.8</ele>
        <time>2022-08-10T08:18:06Z</time>
      </trkpt>
      <trkpt lat="49.93554" lon="2.08177">
        <ele>97.6</ele>
        <time>2022-08-10T08:18:07Z</time>
      </trkpt>
      <trkpt lat="49.93554" lon="2.08176">
        <ele>97.6</ele>
        <time>2022-08-10T08:18:09Z</time>
      </trkpt>
      <trkpt lat="49.93554" lon="2.08174">
        <ele>97.6</ele>
        <time>2022-08-10T08:18:10Z</time>
      </trkpt>
      <trkpt lat="49.93554" lon="2.08173">
        <ele>97.4</ele>
        <time>2022-08-10T08:18:11Z</time>
      </trkpt>
      <trkpt lat="49.93554" lon="2.08172">
        <ele>97.4</ele>
        <time>2022-08-10T08:18:12Z</time>
      </trkpt>
      <trkpt lat="49.93553" lon="2.08171">
        <ele>97.4</ele>
        <time>2022-08-10T08:18:13Z</time>
      </trkpt>
      <trkpt lat="49.93553" lon="2.0817">
        <ele>97.6</ele>
        <time>2022-08-10T08:18:14Z</time>
      </trkpt>
      <trkpt lat="49.93553" lon="2.08168">
        <ele>97.4</ele>
        <time>2022-08-10T08:18:15Z</time>
      </trkpt>
      <trkpt lat="49.93552" lon="2.08168">
        <ele>97.4</ele>
        <time>2022-08-10T08:18:16Z</time>
      </trkpt>
      <trkpt lat="49.93552" lon="2.08167">
        <ele>97.4</ele>
        <time>2022-08-10T08:18:17Z</time>
      </trkpt>
      <trkpt lat="49.93552" lon="2.08166">
        <ele>97.4</ele>
        <time>2022-08-10T08:18:18Z</time>
      </trkpt>
      <trkpt lat="49.93552" lon="2.08164">
        <ele>97.2</ele>
        <time>2022-08-10T08:18:19Z</time>
      </trkpt>
      <trkpt lat="49.93552" lon="2.08163">
        <ele>97.2</ele>
        <time>2022-08-10T08:18:20Z</time>
      </trkpt>
      <trkpt lat="49.93551" lon="2.08161">
        <ele>97.2</ele>
        <time>2022-08-10T08:18:21Z</time>
      </trkpt>
      <trkpt lat="49.93551" lon="2.0816">
        <ele>97</ele>
        <time>2022-08-10T08:18:23Z</time>
      </trkpt>
      <trkpt lat="49.93551" lon="2.08158">
        <ele>97</ele>
        <time>2022-08-10T08:18:24Z</time>
      </trkpt>
      <trkpt lat="49.93551" lon="2.08156">
        <ele>96.8</ele>
        <time>2022-08-10T08:18:25Z</time>
      </trkpt>
      <trkpt lat="49.93551" lon="2.08155">
        <ele>96.8</ele>
        <time>2022-08-10T08:18:26Z</time>
      </trkpt>
      <trkpt lat="49.93552" lon="2.08154">
        <ele>96.8</ele>
        <time>2022-08-10T08:18:27Z</time>
      </trkpt>
      <trkpt lat="49.93552" lon="2.08153">
        <ele>96.8</ele>
        <time>2022-08-10T08:18:28Z</time>
      </trkpt>
      <trkpt lat="49.93552" lon="2.08151">
        <ele>96.6</ele>
        <time>2022-08-10T08:18:29Z</time>
      </trkpt>
      <trkpt lat="49.93552" lon="2.08149">
        <ele>96.6</ele>
        <time>2022-08-10T08:18:30Z</time>
      </trkpt>
      <trkpt lat="49.93551" lon="2.08146">
        <ele>96.4</ele>
        <time>2022-08-10T08:18:32Z</time>
      </trkpt>
      <trkpt lat="49.9355" lon="2.08145">
        <ele>96.6</ele>
        <time>2022-08-10T08:18:33Z</time>
      </trkpt>
      <trkpt lat="49.9355" lon="2.08144">
        <ele>96.6</ele>
        <time>2022-08-10T08:18:34Z</time>
      </trkpt>
      <trkpt lat="49.93549" lon="2.08142">
        <ele>96.4</ele>
        <time>2022-08-10T08:18:35Z</time>
      </trkpt>
      <trkpt lat="49.93548" lon="2.08142">
        <ele>96.4</ele>
        <time>2022-08-10T08:18:36Z</time>
      </trkpt>
      <trkpt lat="49.93547" lon="2.08142">
        <ele>96.4</ele>
        <time>2022-08-10T08:18:37Z</time>
      </trkpt>
      <trkpt lat="49.93546" lon="2.08142">
        <ele>96.4</ele>
        <time>2022-08-10T08:18:38Z</time>
      </trkpt>
      <trkpt lat="49.93546" lon="2.08142">
        <ele>96.4</ele>
        <time>2022-08-10T08:18:39Z</time>
      </trkpt>
      <trkpt lat="49.93545" lon="2.08142">
        <ele>96.4</ele>
        <time>2022-08-10T08:18:40Z</time>
      </trkpt>
      <trkpt lat="49.93545" lon="2.08142">
        <ele>96.4</ele>
        <time>2022-08-10T08:18:41Z</time>
      </trkpt>
      <trkpt lat="49.93545" lon="2.08142">
        <ele>96.5</ele>
        <time>2022-08-10T08:18:42Z</time>
      </trkpt>
      <trkpt lat="49.93544" lon="2.08141">
        <ele>96.5</ele>
        <time>2022-08-10T08:18:43Z</time>
      </trkpt>
      <trkpt lat="49.93544" lon="2.08142">
        <ele>96.5</ele>
        <time>2022-08-10T08:18:44Z</time>
      </trkpt>
      <trkpt lat="49.93544" lon="2.08142">
        <ele>96.5</ele>
        <time>2022-08-10T08:18:45Z</time>
      </trkpt>
      <trkpt lat="49.93544" lon="2.08142">
        <ele>96.5</ele>
        <time>2022-08-10T08:18:46Z</time>
      </trkpt>
      <trkpt lat="49.93545" lon="2.08143">
        <ele>96.5</ele>
        <time>2022-08-10T08:18:47Z</time>
      </trkpt>
      <trkpt lat="49.93545" lon="2.08143">
        <ele>96.5</ele>
        <time>2022-08-10T08:18:48Z</time>
      </trkpt>
      <trkpt lat="49.93545" lon="2.08143">
        <ele>96.5</ele>
        <time>2022-08-10T08:18:49Z</time>
      </trkpt>
      <trkpt lat="49.93545" lon="2.08144">
        <ele>96.5</ele>
        <time>2022-08-10T08:18:50Z</time>
      </trkpt>
      <trkpt lat="49.93545" lon="2.08144">
        <ele>96.5</ele>
        <time>2022-08-10T08:18:51Z</time>
      </trkpt>
      <trkpt lat="49.93545" lon="2.08144">
        <ele>96.5</ele>
        <time>2022-08-10T08:18:52Z</time>
      </trkpt>
      <trkpt lat="49.93545" lon="2.08145">
        <ele>96.5</ele>
        <time>2022-08-10T08:18:53Z</time>
      </trkpt>
      <trkpt lat="49.93545" lon="2.08145">
        <ele>96.5</ele>
        <time>2022-08-10T08:18:54Z</time>
      </trkpt>
      <trkpt lat="49.93546" lon="2.08146">
        <ele>96.6</ele>
        <time>2022-08-10T08:18:55Z</time>
      </trkpt>
      <trkpt lat="49.93546" lon="2.08146">
        <ele>96.6</ele>
        <time>2022-08-10T08:18:56Z</time>
      </trkpt>
      <trkpt lat="49.93546" lon="2.08147">
        <ele>96.6</ele>
        <time>2022-08-10T08:18:57Z</time>
      </trkpt>
      <trkpt lat="49.93548" lon="2.08148">
        <ele>96.6</ele>
        <time>2022-08-10T08:18:58Z</time>
      </trkpt>
      <trkpt lat="49.93549" lon="2.08149">
        <ele>96.7</ele>
        <time>2022-08-10T08:18:59Z</time>
      </trkpt>
      <trkpt lat="49.9355" lon="2.0815">
        <ele>96.7</ele>
        <time>2022-08-10T08:19:00Z</time>
      </trkpt>
      <trkpt lat="49.9355" lon="2.0815">
        <ele>96.7</ele>
        <time>2022-08-10T08:19:01Z</time>
      </trkpt>
      <trkpt lat="49.93551" lon="2.08151">
        <ele>96.7</ele>
        <time>2022-08-10T08:19:02Z</time>
      </trkpt>
      <trkpt lat="49.93551" lon="2.08151">
        <ele>96.7</ele>
        <time>2022-08-10T08:19:03Z</time>
      </trkpt>
      <trkpt lat="49.93552" lon="2.08152">
        <ele>96.7</ele>
        <time>2022-08-10T08:19:04Z</time>
      </trkpt>
      <trkpt lat="49.93552" lon="2.08152">
        <ele>96.8</ele>
        <time>2022-08-10T08:19:05Z</time>
      </trkpt>
      <trkpt lat="49.93552" lon="2.08152">
        <ele>96.8</ele>
        <time>2022-08-10T08:19:06Z</time>
      </trkpt>
      <trkpt lat="49.93553" lon="2.08152">
        <ele>96.8</ele>
        <time>2022-08-10T08:19:07Z</time>
      </trkpt>
      <trkpt lat="49.93553" lon="2.08152">
        <ele>96.8</ele>
        <time>2022-08-10T08:19:08Z</time>
      </trkpt>
      <trkpt lat="49.93553" lon="2.08153">
        <ele>96.8</ele>
        <time>2022-08-10T08:19:09Z</time>
      </trkpt>
      <trkpt lat="49.93553" lon="2.08153">
        <ele>96.8</ele>
        <time>2022-08-10T08:19:10Z</time>
      </trkpt>
      <trkpt lat="49.93553" lon="2.08153">
        <ele>96.8</ele>
        <time>2022-08-10T08:19:11Z</time>
      </trkpt>
      <trkpt lat="49.93553" lon="2.08153">
        <ele>96.8</ele>
        <time>2022-08-10T08:19:12Z</time>
      </trkpt>
      <trkpt lat="49.93553" lon="2.08153">
        <ele>96.8</ele>
        <time>2022-08-10T08:19:13Z</time>
      </trkpt>
      <trkpt lat="49.93553" lon="2.08153">
        <ele>96.8</ele>
        <time>2022-08-10T08:19:14Z</time>
      </trkpt>
      <trkpt lat="49.93553" lon="2.08153">
        <ele>96.8</ele>
        <time>2022-08-10T08:19:15Z</time>
      </trkpt>
      <trkpt lat="49.93553" lon="2.08153">
        <ele>96.8</ele>
        <time>2022-08-10T08:19:16Z</time>
      </trkpt>
      <trkpt lat="49.93553" lon="2.08153">
        <ele>96.8</ele>
        <time>2022-08-10T08:19:17Z</time>
      </trkpt>
      <trkpt lat="49.93553" lon="2.08153">
        <ele>96.8</ele>
        <time>2022-08-10T08:19:18Z</time>
      </trkpt>
      <trkpt lat="49.93553" lon="2.08153">
        <ele>96.8</ele>
        <time>2022-08-10T08:19:19Z</time>
      </trkpt>
      <trkpt lat="49.93553" lon="2.08153">
        <ele>96.8</ele>
        <time>2022-08-10T08:19:20Z</time>
      </trkpt>
      <trkpt lat="49.93553" lon="2.08153">
        <ele>96.8</ele>
        <time>2022-08-10T08:19:21Z</time>
      </trkpt>
      <trkpt lat="49.93553" lon="2.08153">
        <ele>96.8</ele>
        <time>2022-08-10T08:19:22Z</time>
      </trkpt>
      <trkpt lat="49.93553" lon="2.08153">
        <ele>96.8</ele>
        <time>2022-08-10T08:19:23Z</time>
      </trkpt>
      <trkpt lat="49.93553" lon="2.08153">
        <ele>96.8</ele>
        <time>2022-08-10T08:19:24Z</time>
      </trkpt>
      <trkpt lat="49.93553" lon="2.08153">
        <ele>96.8</ele>
        <time>2022-08-10T08:19:25Z</time>
      </trkpt>
      <trkpt lat="49.93553" lon="2.08153">
        <ele>96.8</ele>
        <time>2022-08-10T08:19:26Z</time>
      </trkpt>
      <trkpt lat="49.93553" lon="2.08153">
        <ele>96.8</ele>
        <time>2022-08-10T08:19:27Z</time>
      </trkpt>
      <trkpt lat="49.93553" lon="2.08153">
        <ele>96.8</ele>
        <time>2022-08-10T08:19:28Z</time>
      </trkpt>
      <trkpt lat="49.93553" lon="2.08153">
        <ele>96.8</ele>
        <time>2022-08-10T08:19:29Z</time>
      </trkpt>
      <trkpt lat="49.93553" lon="2.08153">
        <ele>96.8</ele>
        <time>2022-08-10T08:19:30Z</time>
      </trkpt>
      <trkpt lat="49.93553" lon="2.08153">
        <ele>96.8</ele>
        <time>2022-08-10T08:19:31Z</time>
      </trkpt>
      <trkpt lat="49.93553" lon="2.08153">
        <ele>96.8</ele>
        <time>2022-08-10T08:19:32Z</time>
      </trkpt>
      <trkpt lat="49.93553" lon="2.08153">
        <ele>96.8</ele>
        <time>2022-08-10T08:19:33Z</time>
      </trkpt>
      <trkpt lat="49.93553" lon="2.08153">
        <ele>96.8</ele>
        <time>2022-08-10T08:19:34Z</time>
      </trkpt>
      <trkpt lat="49.93553" lon="2.08153">
        <ele>96.8</ele>
        <time>2022-08-10T08:19:35Z</time>
      </trkpt>
      <trkpt lat="49.93553" lon="2.08153">
        <ele>96.8</ele>
        <time>2022-08-10T08:19:36Z</time>
      </trkpt>
      <trkpt lat="49.93553" lon="2.08153">
        <ele>96.8</ele>
        <time>2022-08-10T08:19:37Z</time>
      </trkpt>
      <trkpt lat="49.93553" lon="2.08153">
        <ele>96.8</ele>
        <time>2022-08-10T08:19:38Z</time>
      </trkpt>
      <trkpt lat="49.93553" lon="2.08153">
        <ele>96.8</ele>
        <time>2022-08-10T08:19:39Z</time>
      </trkpt>
      <trkpt lat="49.93553" lon="2.08153">
        <ele>96.8</ele>
        <time>2022-08-10T08:19:40Z</time>
      </trkpt>
      <trkpt lat="49.93553" lon="2.08153">
        <ele>96.8</ele>
        <time>2022-08-10T08:19:41Z</time>
      </trkpt>
      <trkpt lat="49.93553" lon="2.08153">
        <ele>96.8</ele>
        <time>2022-08-10T08:19:42Z</time>
      </trkpt>
      <trkpt lat="49.93553" lon="2.08153">
        <ele>96.8</ele>
        <time>2022-08-10T08:19:43Z</time>
      </trkpt>
      <trkpt lat="49.93553" lon="2.08153">
        <ele>96.8</ele>
        <time>2022-08-10T08:19:44Z</time>
      </trkpt>
      <trkpt lat="49.93553" lon="2.08153">
        <ele>96.8</ele>
        <time>2022-08-10T08:19:45Z</time>
      </trkpt>
      <trkpt lat="49.93553" lon="2.08153">
        <ele>96.8</ele>
        <time>2022-08-10T08:19:46Z</time>
      </trkpt>
      <trkpt lat="49.93553" lon="2.08153">
        <ele>96.8</ele>
        <time>2022-08-10T08:19:47Z</time>
      </trkpt>
      <trkpt lat="49.93553" lon="2.08153">
        <ele>96.8</ele>
        <time>2022-08-10T08:19:48Z</time>
      </trkpt>
      <trkpt lat="49.93553" lon="2.08153">
        <ele>96.8</ele>
        <time>2022-08-10T08:19:49Z</time>
      </trkpt>
      <trkpt lat="49.93553" lon="2.08153">
        <ele>96.8</ele>
        <time>2022-08-10T08:19:50Z</time>
      </trkpt>
      <trkpt lat="49.93553" lon="2.08153">
        <ele>96.8</ele>
        <time>2022-08-10T08:19:51Z</time>
      </trkpt>
      <trkpt lat="49.93553" lon="2.08153">
        <ele>96.8</ele>
        <time>2022-08-10T08:19:52Z</time>
      </trkpt>
      <trkpt lat="49.93553" lon="2.08153">
        <ele>96.8</ele>
        <time>2022-08-10T08:19:53Z</time>
      </trkpt>
      <trkpt lat="49.93553" lon="2.08153">
        <ele>96.8</ele>
        <time>2022-08-10T08:19:54Z</time>
      </trkpt>
      <trkpt lat="49.93553" lon="2.08153">
        <ele>96.8</ele>
        <time>2022-08-10T08:19:55Z</time>
      </trkpt>
      <trkpt lat="49.93553" lon="2.08153">
        <ele>96.8</ele>
        <time>2022-08-10T08:19:56Z</time>
      </trkpt>
      <trkpt lat="49.93553" lon="2.08153">
        <ele>96.8</ele>
        <time>2022-08-10T08:19:57Z</time>
      </trkpt>
      <trkpt lat="49.93553" lon="2.08153">
        <ele>96.8</ele>
        <time>2022-08-10T08:19:58Z</time>
      </trkpt>
      <trkpt lat="49.93553" lon="2.08153">
        <ele>96.8</ele>
        <time>2022-08-10T08:19:59Z</time>
      </trkpt>
      <trkpt lat="49.93553" lon="2.08153">
        <ele>96.8</ele>
        <time>2022-08-10T08:20:00Z</time>
      </trkpt>
      <trkpt lat="49.93553" lon="2.08153">
        <ele>96.8</ele>
        <time>2022-08-10T08:20:01Z</time>
      </trkpt>
      <trkpt lat="49.93553" lon="2.08153">
        <ele>96.8</ele>
        <time>2022-08-10T08:20:02Z</time>
      </trkpt>
      <trkpt lat="49.93553" lon="2.08153">
        <ele>96.8</ele>
        <time>2022-08-10T08:20:03Z</time>
      </trkpt>
      <trkpt lat="49.93553" lon="2.08153">
        <ele>96.8</ele>
        <time>2022-08-10T08:20:04Z</time>
      </trkpt>
      <trkpt lat="49.93554" lon="2.08153">
        <ele>96.8</ele>
        <time>2022-08-10T08:20:06Z</time>
      </trkpt>
      <trkpt lat="49.93554" lon="2.08153">
        <ele>96.8</ele>
        <time>2022-08-10T08:20:07Z</time>
      </trkpt>
      <trkpt lat="49.93554" lon="2.08153">
        <ele>96.8</ele>
        <time>2022-08-10T08:20:08Z</time>
      </trkpt>
      <trkpt lat="49.93554" lon="2.08153">
        <ele>96.8</ele>
        <time>2022-08-10T08:20:09Z</time>
      </trkpt>
      <trkpt lat="49.93554" lon="2.08153">
        <ele>96.8</ele>
        <time>2022-08-10T08:20:11Z</time>
      </trkpt>
      <trkpt lat="49.93554" lon="2.08153">
        <ele>96.8</ele>
        <time>2022-08-10T08:20:12Z</time>
      </trkpt>
      <trkpt lat="49.93554" lon="2.08153">
        <ele>96.8</ele>
        <time>2022-08-10T08:20:13Z</time>
      </trkpt>
      <trkpt lat="49.93554" lon="2.08153">
        <ele>96.8</ele>
        <time>2022-08-10T08:20:15Z</time>
      </trkpt>
      <trkpt lat="49.93554" lon="2.08153">
        <ele>96.8</ele>
        <time>2022-08-10T08:20:17Z</time>
      </trkpt>
      <trkpt lat="49.93554" lon="2.08153">
        <ele>96.8</ele>
        <time>2022-08-10T08:20:18Z</time>
      </trkpt>
      <trkpt lat="49.93554" lon="2.08153">
        <ele>96.8</ele>
        <time>2022-08-10T08:20:19Z</time>
      </trkpt>
      <trkpt lat="49.93553" lon="2.08153">
        <ele>96.8</ele>
        <time>2022-08-10T08:20:21Z</time>
      </trkpt>
      <trkpt lat="49.93553" lon="2.08153">
        <ele>96.8</ele>
        <time>2022-08-10T08:20:22Z</time>
      </trkpt>
      <trkpt lat="49.93553" lon="2.08153">
        <ele>96.8</ele>
        <time>2022-08-10T08:20:23Z</time>
      </trkpt>
      <trkpt lat="49.93553" lon="2.08153">
        <ele>96.8</ele>
        <time>2022-08-10T08:20:24Z</time>
      </trkpt>
      <trkpt lat="49.93553" lon="2.08153">
        <ele>96.8</ele>
        <time>2022-08-10T08:20:25Z</time>
      </trkpt>
      <trkpt lat="49.93553" lon="2.08153">
        <ele>96.8</ele>
        <time>2022-08-10T08:20:26Z</time>
      </trkpt>
      <trkpt lat="49.93553" lon="2.08153">
        <ele>96.8</ele>
        <time>2022-08-10T08:20:27Z</time>
      </trkpt>
      <trkpt lat="49.93553" lon="2.08153">
        <ele>96.8</ele>
        <time>2022-08-10T08:20:28Z</time>
      </trkpt>
      <trkpt lat="49.93553" lon="2.08153">
        <ele>96.8</ele>
        <time>2022-08-10T08:20:29Z</time>
      </trkpt>
      <trkpt lat="49.93553" lon="2.08153">
        <ele>96.8</ele>
        <time>2022-08-10T08:20:30Z</time>
      </trkpt>
      <trkpt lat="49.93553" lon="2.08153">
        <ele>96.8</ele>
        <time>2022-08-10T08:20:31Z</time>
      </trkpt>
      <trkpt lat="49.93553" lon="2.08153">
        <ele>96.8</ele>
        <time>2022-08-10T08:20:32Z</time>
      </trkpt>
      <trkpt lat="49.93553" lon="2.08153">
        <ele>96.8</ele>
        <time>2022-08-10T08:20:33Z</time>
      </trkpt>
      <trkpt lat="49.93553" lon="2.08153">
        <ele>96.8</ele>
        <time>2022-08-10T08:20:34Z</time>
      </trkpt>
      <trkpt lat="49.93553" lon="2.08153">
        <ele>96.8</ele>
        <time>2022-08-10T08:20:35Z</time>
      </trkpt>
      <trkpt lat="49.93553" lon="2.08153">
        <ele>96.8</ele>
        <time>2022-08-10T08:20:36Z</time>
      </trkpt>
      <trkpt lat="49.93553" lon="2.08153">
        <ele>96.8</ele>
        <time>2022-08-10T08:20:37Z</time>
      </trkpt>
      <trkpt lat="49.93553" lon="2.08153">
        <ele>96.8</ele>
        <time>2022-08-10T08:20:38Z</time>
      </trkpt>
      <trkpt lat="49.93553" lon="2.08153">
        <ele>96.8</ele>
        <time>2022-08-10T08:20:39Z</time>
      </trkpt>
      <trkpt lat="49.93553" lon="2.08153">
        <ele>96.8</ele>
        <time>2022-08-10T08:20:40Z</time>
      </trkpt>
      <trkpt lat="49.93553" lon="2.08153">
        <ele>96.8</ele>
        <time>2022-08-10T08:20:41Z</time>
      </trkpt>
      <trkpt lat="49.93553" lon="2.08153">
        <ele>96.8</ele>
        <time>2022-08-10T08:20:42Z</time>
      </trkpt>
      <trkpt lat="49.93553" lon="2.08153">
        <ele>96.8</ele>
        <time>2022-08-10T08:20:43Z</time>
      </trkpt>
      <trkpt lat="49.93552" lon="2.08152">
        <ele>96.9</ele>
        <time>2022-08-10T08:20:44Z</time>
      </trkpt>
      <trkpt lat="49.93551" lon="2.08151">
        <ele>96.9</ele>
        <time>2022-08-10T08:20:45Z</time>
      </trkpt>
      <trkpt lat="49.9355" lon="2.0815">
        <ele>96.9</ele>
        <time>2022-08-10T08:20:46Z</time>
      </trkpt>
      <trkpt lat="49.93549" lon="2.0815">
        <ele>96.9</ele>
        <time>2022-08-10T08:20:47Z</time>
      </trkpt>
      <trkpt lat="49.93549" lon="2.0815">
        <ele>96.9</ele>
        <time>2022-08-10T08:20:48Z</time>
      </trkpt>
      <trkpt lat="49.93549" lon="2.0815">
        <ele>96.9</ele>
        <time>2022-08-10T08:20:49Z</time>
      </trkpt>
      <trkpt lat="49.93549" lon="2.0815">
        <ele>96.9</ele>
        <time>2022-08-10T08:20:50Z</time>
      </trkpt>
      <trkpt lat="49.93549" lon="2.0815">
        <ele>96.9</ele>
        <time>2022-08-10T08:20:51Z</time>
      </trkpt>
      <trkpt lat="49.93549" lon="2.0815">
        <ele>96.9</ele>
        <time>2022-08-10T08:20:52Z</time>
      </trkpt>
      <trkpt lat="49.93549" lon="2.0815">
        <ele>96.9</ele>
        <time>2022-08-10T08:20:53Z</time>
      </trkpt>
      <trkpt lat="49.93549" lon="2.0815">
        <ele>96.9</ele>
        <time>2022-08-10T08:20:54Z</time>
      </trkpt>
      <trkpt lat="49.93549" lon="2.0815">
        <ele>96.9</ele>
        <time>2022-08-10T08:20:55Z</time>
      </trkpt>
      <trkpt lat="49.93549" lon="2.0815">
        <ele>96.9</ele>
        <time>2022-08-10T08:20:56Z</time>
      </trkpt>
      <trkpt lat="49.93549" lon="2.0815">
        <ele>96.9</ele>
        <time>2022-08-10T08:20:57Z</time>
      </trkpt>
      <trkpt lat="49.93549" lon="2.0815">
        <ele>96.9</ele>
        <time>2022-08-10T08:20:58Z</time>
      </trkpt>
      <trkpt lat="49.93549" lon="2.0815">
        <ele>96.9</ele>
        <time>2022-08-10T08:20:59Z</time>
      </trkpt>
      <trkpt lat="49.93549" lon="2.0815">
        <ele>96.9</ele>
        <time>2022-08-10T08:21:00Z</time>
      </trkpt>
      <trkpt lat="49.93549" lon="2.0815">
        <ele>96.9</ele>
        <time>2022-08-10T08:21:01Z</time>
      </trkpt>
      <trkpt lat="49.93549" lon="2.0815">
        <ele>96.9</ele>
        <time>2022-08-10T08:21:02Z</time>
      </trkpt>
      <trkpt lat="49.93549" lon="2.0815">
        <ele>96.9</ele>
        <time>2022-08-10T08:21:03Z</time>
      </trkpt>
      <trkpt lat="49.93549" lon="2.0815">
        <ele>96.9</ele>
        <time>2022-08-10T08:21:04Z</time>
      </trkpt>
      <trkpt lat="49.93549" lon="2.0815">
        <ele>96.9</ele>
        <time>2022-08-10T08:21:05Z</time>
      </trkpt>
      <trkpt lat="49.93549" lon="2.0815">
        <ele>96.9</ele>
        <time>2022-08-10T08:21:06Z</time>
      </trkpt>
      <trkpt lat="49.93549" lon="2.0815">
        <ele>96.9</ele>
        <time>2022-08-10T08:21:07Z</time>
      </trkpt>
      <trkpt lat="49.93549" lon="2.0815">
        <ele>96.9</ele>
        <time>2022-08-10T08:21:08Z</time>
      </trkpt>
      <trkpt lat="49.93549" lon="2.0815">
        <ele>96.9</ele>
        <time>2022-08-10T08:21:09Z</time>
      </trkpt>
      <trkpt lat="49.93549" lon="2.0815">
        <ele>96.9</ele>
        <time>2022-08-10T08:21:10Z</time>
      </trkpt>
      <trkpt lat="49.93549" lon="2.0815">
        <ele>96.9</ele>
        <time>2022-08-10T08:21:11Z</time>
      </trkpt>
      <trkpt lat="49.93549" lon="2.0815">
        <ele>96.9</ele>
        <time>2022-08-10T08:21:12Z</time>
      </trkpt>
      <trkpt lat="49.93549" lon="2.0815">
        <ele>96.9</ele>
        <time>2022-08-10T08:21:13Z</time>
      </trkpt>
      <trkpt lat="49.93549" lon="2.0815">
        <ele>96.9</ele>
        <time>2022-08-10T08:21:14Z</time>
      </trkpt>
      <trkpt lat="49.93549" lon="2.08149">
        <ele>97</ele>
        <time>2022-08-10T08:21:15Z</time>
      </trkpt>
      <trkpt lat="49.93548" lon="2.08148">
        <ele>97</ele>
        <time>2022-08-10T08:21:16Z</time>
      </trkpt>
      <trkpt lat="49.93548" lon="2.08148">
        <ele>97</ele>
        <time>2022-08-10T08:21:17Z</time>
      </trkpt>
      <trkpt lat="49.93546" lon="2.08146">
        <ele>97</ele>
        <time>2022-08-10T08:21:19Z</time>
      </trkpt>
      <trkpt lat="49.93546" lon="2.08144">
        <ele>97.1</ele>
        <time>2022-08-10T08:21:20Z</time>
      </trkpt>
      <trkpt lat="49.93545" lon="2.08141">
        <ele>97.1</ele>
        <time>2022-08-10T08:21:21Z</time>
      </trkpt>
      <trkpt lat="49.93545" lon="2.0814">
        <ele>97.2</ele>
        <time>2022-08-10T08:21:22Z</time>
      </trkpt>
      <trkpt lat="49.93544" lon="2.08138">
        <ele>97.2</ele>
        <time>2022-08-10T08:21:23Z</time>
      </trkpt>
      <trkpt lat="49.93543" lon="2.08136">
        <ele>97.2</ele>
        <time>2022-08-10T08:21:25Z</time>
      </trkpt>
      <trkpt lat="49.93542" lon="2.08133">
        <ele>97.3</ele>
        <time>2022-08-10T08:21:26Z</time>
      </trkpt>
      <trkpt lat="49.93542" lon="2.08132">
        <ele>97.3</ele>
        <time>2022-08-10T08:21:27Z</time>
      </trkpt>
      <trkpt lat="49.93542" lon="2.08131">
        <ele>97.3</ele>
        <time>2022-08-10T08:21:28Z</time>
      </trkpt>
      <trkpt lat="49.93541" lon="2.0813">
        <ele>97.3</ele>
        <time>2022-08-10T08:21:29Z</time>
      </trkpt>
      <trkpt lat="49.93541" lon="2.08129">
        <ele>97.4</ele>
        <time>2022-08-10T08:21:30Z</time>
      </trkpt>
      <trkpt lat="49.9354" lon="2.08128">
        <ele>97.4</ele>
        <time>2022-08-10T08:21:31Z</time>
      </trkpt>
      <trkpt lat="49.93539" lon="2.08128">
        <ele>97.4</ele>
        <time>2022-08-10T08:21:33Z</time>
      </trkpt>
      <trkpt lat="49.93538" lon="2.08127">
        <ele>97.4</ele>
        <time>2022-08-10T08:21:34Z</time>
      </trkpt>
      <trkpt lat="49.93538" lon="2.08126">
        <ele>97.4</ele>
        <time>2022-08-10T08:21:35Z</time>
      </trkpt>
      <trkpt lat="49.93537" lon="2.08125">
        <ele>97.5</ele>
        <time>2022-08-10T08:21:37Z</time>
      </trkpt>
      <trkpt lat="49.93536" lon="2.08125">
        <ele>97.5</ele>
        <time>2022-08-10T08:21:38Z</time>
      </trkpt>
      <trkpt lat="49.93535" lon="2.08124">
        <ele>97.5</ele>
        <time>2022-08-10T08:21:39Z</time>
      </trkpt>
      <trkpt lat="49.93534" lon="2.08123">
        <ele>97.5</ele>
        <time>2022-08-10T08:21:40Z</time>
      </trkpt>
      <trkpt lat="49.93534" lon="2.08122">
        <ele>97.6</ele>
        <time>2022-08-10T08:21:42Z</time>
      </trkpt>
      <trkpt lat="49.93533" lon="2.08122">
        <ele>97.6</ele>
        <time>2022-08-10T08:21:43Z</time>
      </trkpt>
      <trkpt lat="49.93532" lon="2.08121">
        <ele>97.6</ele>
        <time>2022-08-10T08:21:44Z</time>
      </trkpt>
      <trkpt lat="49.93531" lon="2.0812">
        <ele>97.6</ele>
        <time>2022-08-10T08:21:45Z</time>
      </trkpt>
      <trkpt lat="49.93529" lon="2.08119">
        <ele>97.7</ele>
        <time>2022-08-10T08:21:46Z</time>
      </trkpt>
      <trkpt lat="49.93528" lon="2.08119">
        <ele>97.7</ele>
        <time>2022-08-10T08:21:47Z</time>
      </trkpt>
      <trkpt lat="49.93527" lon="2.08118">
        <ele>97.8</ele>
        <time>2022-08-10T08:21:49Z</time>
      </trkpt>
      <trkpt lat="49.93527" lon="2.08118">
        <ele>97.8</ele>
        <time>2022-08-10T08:21:50Z</time>
      </trkpt>
      <trkpt lat="49.93526" lon="2.08118">
        <ele>97.8</ele>
        <time>2022-08-10T08:21:51Z</time>
      </trkpt>
      <trkpt lat="49.93526" lon="2.08117">
        <ele>97.8</ele>
        <time>2022-08-10T08:21:52Z</time>
      </trkpt>
      <trkpt lat="49.93524" lon="2.08117">
        <ele>97.8</ele>
        <time>2022-08-10T08:21:53Z</time>
      </trkpt>
      <trkpt lat="49.93523" lon="2.08117">
        <ele>97.9</ele>
        <time>2022-08-10T08:21:54Z</time>
      </trkpt>
      <trkpt lat="49.93522" lon="2.08116">
        <ele>97.9</ele>
        <time>2022-08-10T08:21:55Z</time>
      </trkpt>
      <trkpt lat="49.9352" lon="2.08116">
        <ele>98</ele>
        <time>2022-08-10T08:21:56Z</time>
      </trkpt>
      <trkpt lat="49.93518" lon="2.08116">
        <ele>98</ele>
        <time>2022-08-10T08:21:57Z</time>
      </trkpt>
      <trkpt lat="49.93516" lon="2.08116">
        <ele>98.1</ele>
        <time>2022-08-10T08:21:59Z</time>
      </trkpt>
      <trkpt lat="49.93515" lon="2.08116">
        <ele>98.1</ele>
        <time>2022-08-10T08:22:00Z</time>
      </trkpt>
      <trkpt lat="49.93513" lon="2.08115">
        <ele>98.2</ele>
        <time>2022-08-10T08:22:01Z</time>
      </trkpt>
      <trkpt lat="49.93511" lon="2.08115">
        <ele>98.2</ele>
        <time>2022-08-10T08:22:02Z</time>
      </trkpt>
      <trkpt lat="49.9351" lon="2.08115">
        <ele>98.3</ele>
        <time>2022-08-10T08:22:03Z</time>
      </trkpt>
      <trkpt lat="49.93509" lon="2.08115">
        <ele>98.3</ele>
        <time>2022-08-10T08:22:04Z</time>
      </trkpt>
      <trkpt lat="49.93508" lon="2.08114">
        <ele>98.3</ele>
        <time>2022-08-10T08:22:05Z</time>
      </trkpt>
      <trkpt lat="49.93507" lon="2.08114">
        <ele>98.4</ele>
        <time>2022-08-10T08:22:06Z</time>
      </trkpt>
      <trkpt lat="49.93506" lon="2.08114">
        <ele>98.4</ele>
        <time>2022-08-10T08:22:08Z</time>
      </trkpt>
      <trkpt lat="49.93505" lon="2.08113">
        <ele>98.4</ele>
        <time>2022-08-10T08:22:09Z</time>
      </trkpt>
      <trkpt lat="49.93504" lon="2.08113">
        <ele>98.5</ele>
        <time>2022-08-10T08:22:10Z</time>
      </trkpt>
      <trkpt lat="49.93503" lon="2.08112">
        <ele>98.5</ele>
        <time>2022-08-10T08:22:11Z</time>
      </trkpt>
      <trkpt lat="49.93501" lon="2.08111">
        <ele>98.6</ele>
        <time>2022-08-10T08:22:12Z</time>
      </trkpt>
      <trkpt lat="49.935" lon="2.08111">
        <ele>98.6</ele>
        <time>2022-08-10T08:22:13Z</time>
      </trkpt>
      <trkpt lat="49.93499" lon="2.0811">
        <ele>98.6</ele>
        <time>2022-08-10T08:22:14Z</time>
      </trkpt>
      <trkpt lat="49.93497" lon="2.08109">
        <ele>98.7</ele>
        <time>2022-08-10T08:22:15Z</time>
      </trkpt>
      <trkpt lat="49.93496" lon="2.08109">
        <ele>98.8</ele>
        <time>2022-08-10T08:22:17Z</time>
      </trkpt>
      <trkpt lat="49.93495" lon="2.08108">
        <ele>98.8</ele>
        <time>2022-08-10T08:22:18Z</time>
      </trkpt>
      <trkpt lat="49.93495" lon="2.08107">
        <ele>98.8</ele>
        <time>2022-08-10T08:22:19Z</time>
      </trkpt>
      <trkpt lat="49.93494" lon="2.08106">
        <ele>98.8</ele>
        <time>2022-08-10T08:22:20Z</time>
      </trkpt>
      <trkpt lat="49.93493" lon="2.08105">
        <ele>98.9</ele>
        <time>2022-08-10T08:22:21Z</time>
      </trkpt>
      <trkpt lat="49.93491" lon="2.08104">
        <ele>98.9</ele>
        <time>2022-08-10T08:22:22Z</time>
      </trkpt>
      <trkpt lat="49.93491" lon="2.08103">
        <ele>99</ele>
        <time>2022-08-10T08:22:23Z</time>
      </trkpt>
      <trkpt lat="49.9349" lon="2.08103">
        <ele>99</ele>
        <time>2022-08-10T08:22:24Z</time>
      </trkpt>
      <trkpt lat="49.93489" lon="2.08102">
        <ele>99</ele>
        <time>2022-08-10T08:22:26Z</time>
      </trkpt>
      <trkpt lat="49.93488" lon="2.08101">
        <ele>99.1</ele>
        <time>2022-08-10T08:22:27Z</time>
      </trkpt>
      <trkpt lat="49.93487" lon="2.081">
        <ele>99.1</ele>
        <time>2022-08-10T08:22:28Z</time>
      </trkpt>
      <trkpt lat="49.93486" lon="2.08099">
        <ele>99.2</ele>
        <time>2022-08-10T08:22:29Z</time>
      </trkpt>
      <trkpt lat="49.93485" lon="2.08099">
        <ele>99.2</ele>
        <time>2022-08-10T08:22:30Z</time>
      </trkpt>
      <trkpt lat="49.93484" lon="2.08097">
        <ele>99.2</ele>
        <time>2022-08-10T08:22:31Z</time>
      </trkpt>
      <trkpt lat="49.93483" lon="2.08096">
        <ele>99.3</ele>
        <time>2022-08-10T08:22:32Z</time>
      </trkpt>
      <trkpt lat="49.93482" lon="2.08095">
        <ele>99.3</ele>
        <time>2022-08-10T08:22:33Z</time>
      </trkpt>
      <trkpt lat="49.93481" lon="2.08095">
        <ele>99.4</ele>
        <time>2022-08-10T08:22:35Z</time>
      </trkpt>
      <trkpt lat="49.93479" lon="2.08094">
        <ele>99.4</ele>
        <time>2022-08-10T08:22:36Z</time>
      </trkpt>
      <trkpt lat="49.93478" lon="2.08093">
        <ele>99.5</ele>
        <time>2022-08-10T08:22:37Z</time>
      </trkpt>
      <trkpt lat="49.93477" lon="2.08093">
        <ele>99.5</ele>
        <time>2022-08-10T08:22:38Z</time>
      </trkpt>
      <trkpt lat="49.93476" lon="2.08093">
        <ele>99.5</ele>
        <time>2022-08-10T08:22:39Z</time>
      </trkpt>
      <trkpt lat="49.93475" lon="2.08093">
        <ele>99.6</ele>
        <time>2022-08-10T08:22:40Z</time>
      </trkpt>
      <trkpt lat="49.93474" lon="2.08093">
        <ele>99.6</ele>
        <time>2022-08-10T08:22:41Z</time>
      </trkpt>
      <trkpt lat="49.93472" lon="2.08092">
        <ele>99.6</ele>
        <time>2022-08-10T08:22:42Z</time>
      </trkpt>
      <trkpt lat="49.93471" lon="2.08092">
        <ele>99.7</ele>
        <time>2022-08-10T08:22:43Z</time>
      </trkpt>
      <trkpt lat="49.93469" lon="2.08092">
        <ele>99.7</ele>
        <time>2022-08-10T08:22:44Z</time>
      </trkpt>
      <trkpt lat="49.93468" lon="2.08092">
        <ele>99.8</ele>
        <time>2022-08-10T08:22:46Z</time>
      </trkpt>
      <trkpt lat="49.93467" lon="2.08092">
        <ele>99.8</ele>
        <time>2022-08-10T08:22:47Z</time>
      </trkpt>
      <trkpt lat="49.93465" lon="2.08092">
        <ele>99.9</ele>
        <time>2022-08-10T08:22:48Z</time>
      </trkpt>
      <trkpt lat="49.93464" lon="2.08092">
        <ele>99.9</ele>
        <time>2022-08-10T08:22:49Z</time>
      </trkpt>
      <trkpt lat="49.93464" lon="2.08092">
        <ele>99.9</ele>
        <time>2022-08-10T08:22:50Z</time>
      </trkpt>
      <trkpt lat="49.93462" lon="2.08092">
        <ele>100</ele>
        <time>2022-08-10T08:22:51Z</time>
      </trkpt>
      <trkpt lat="49.9346" lon="2.08092">
        <ele>100</ele>
        <time>2022-08-10T08:22:52Z</time>
      </trkpt>
      <trkpt lat="49.93459" lon="2.08091">
        <ele>100</ele>
        <time>2022-08-10T08:22:53Z</time>
      </trkpt>
      <trkpt lat="49.93458" lon="2.08091">
        <ele>100.1</ele>
        <time>2022-08-10T08:22:55Z</time>
      </trkpt>
      <trkpt lat="49.93457" lon="2.08091">
        <ele>100.1</ele>
        <time>2022-08-10T08:22:56Z</time>
      </trkpt>
      <trkpt lat="49.93456" lon="2.0809">
        <ele>100.1</ele>
        <time>2022-08-10T08:22:57Z</time>
      </trkpt>
      <trkpt lat="49.93455" lon="2.08089">
        <ele>100.2</ele>
        <time>2022-08-10T08:22:58Z</time>
      </trkpt>
      <trkpt lat="49.93454" lon="2.08088">
        <ele>100.2</ele>
        <time>2022-08-10T08:22:59Z</time>
      </trkpt>
      <trkpt lat="49.93453" lon="2.08086">
        <ele>100.3</ele>
        <time>2022-08-10T08:23:00Z</time>
      </trkpt>
      <trkpt lat="49.93453" lon="2.08084">
        <ele>100.3</ele>
        <time>2022-08-10T08:23:02Z</time>
      </trkpt>
      <trkpt lat="49.93453" lon="2.08083">
        <ele>100.3</ele>
        <time>2022-08-10T08:23:03Z</time>
      </trkpt>
      <trkpt lat="49.93451" lon="2.08082">
        <ele>100.4</ele>
        <time>2022-08-10T08:23:04Z</time>
      </trkpt>
      <trkpt lat="49.9345" lon="2.08081">
        <ele>100.4</ele>
        <time>2022-08-10T08:23:05Z</time>
      </trkpt>
      <trkpt lat="49.93449" lon="2.08081">
        <ele>100.4</ele>
        <time>2022-08-10T08:23:06Z</time>
      </trkpt>
      <trkpt lat="49.93447" lon="2.08081">
        <ele>100.5</ele>
        <time>2022-08-10T08:23:07Z</time>
      </trkpt>
      <trkpt lat="49.93446" lon="2.08081">
        <ele>100.5</ele>
        <time>2022-08-10T08:23:08Z</time>
      </trkpt>
      <trkpt lat="49.93445" lon="2.0808">
        <ele>100.6</ele>
        <time>2022-08-10T08:23:10Z</time>
      </trkpt>
      <trkpt lat="49.93443" lon="2.0808">
        <ele>100.6</ele>
        <time>2022-08-10T08:23:11Z</time>
      </trkpt>
      <trkpt lat="49.93442" lon="2.0808">
        <ele>100.6</ele>
        <time>2022-08-10T08:23:12Z</time>
      </trkpt>
      <trkpt lat="49.93442" lon="2.0808">
        <ele>100.7</ele>
        <time>2022-08-10T08:23:13Z</time>
      </trkpt>
      <trkpt lat="49.9344" lon="2.0808">
        <ele>100.7</ele>
        <time>2022-08-10T08:23:14Z</time>
      </trkpt>
      <trkpt lat="49.93439" lon="2.0808">
        <ele>100.8</ele>
        <time>2022-08-10T08:23:15Z</time>
      </trkpt>
      <trkpt lat="49.93437" lon="2.0808">
        <ele>100.8</ele>
        <time>2022-08-10T08:23:17Z</time>
      </trkpt>
      <trkpt lat="49.93436" lon="2.0808">
        <ele>100.8</ele>
        <time>2022-08-10T08:23:18Z</time>
      </trkpt>
      <trkpt lat="49.93435" lon="2.0808">
        <ele>100.9</ele>
        <time>2022-08-10T08:23:19Z</time>
      </trkpt>
      <trkpt lat="49.93433" lon="2.0808">
        <ele>100.9</ele>
        <time>2022-08-10T08:23:20Z</time>
      </trkpt>
      <trkpt lat="49.93432" lon="2.0808">
        <ele>100.9</ele>
        <time>2022-08-10T08:23:21Z</time>
      </trkpt>
      <trkpt lat="49.9343" lon="2.0808">
        <ele>101</ele>
        <time>2022-08-10T08:23:22Z</time>
      </trkpt>
      <trkpt lat="49.93428" lon="2.0808">
        <ele>101</ele>
        <time>2022-08-10T08:23:23Z</time>
      </trkpt>
      <trkpt lat="49.93427" lon="2.0808">
        <ele>101.1</ele>
        <time>2022-08-10T08:23:24Z</time>
      </trkpt>
      <trkpt lat="49.93426" lon="2.0808">
        <ele>101.1</ele>
        <time>2022-08-10T08:23:25Z</time>
      </trkpt>
      <trkpt lat="49.93424" lon="2.0808">
        <ele>101.1</ele>
        <time>2022-08-10T08:23:26Z</time>
      </trkpt>
      <trkpt lat="49.93423" lon="2.0808">
        <ele>101.2</ele>
        <time>2022-08-10T08:23:27Z</time>
      </trkpt>
      <trkpt lat="49.93422" lon="2.08079">
        <ele>101.2</ele>
        <time>2022-08-10T08:23:28Z</time>
      </trkpt>
      <trkpt lat="49.93422" lon="2.08079">
        <ele>101.2</ele>
        <time>2022-08-10T08:23:29Z</time>
      </trkpt>
      <trkpt lat="49.93421" lon="2.08079">
        <ele>101.2</ele>
        <time>2022-08-10T08:23:30Z</time>
      </trkpt>
      <trkpt lat="49.9342" lon="2.08078">
        <ele>101.3</ele>
        <time>2022-08-10T08:23:31Z</time>
      </trkpt>
      <trkpt lat="49.93419" lon="2.08078">
        <ele>101.3</ele>
        <time>2022-08-10T08:23:32Z</time>
      </trkpt>
      <trkpt lat="49.93418" lon="2.08077">
        <ele>101.3</ele>
        <time>2022-08-10T08:23:34Z</time>
      </trkpt>
      <trkpt lat="49.93417" lon="2.08076">
        <ele>101.4</ele>
        <time>2022-08-10T08:23:35Z</time>
      </trkpt>
      <trkpt lat="49.93416" lon="2.08075">
        <ele>101.4</ele>
        <time>2022-08-10T08:23:36Z</time>
      </trkpt>
      <trkpt lat="49.93415" lon="2.08075">
        <ele>101.4</ele>
        <time>2022-08-10T08:23:37Z</time>
      </trkpt>
      <trkpt lat="49.93414" lon="2.08074">
        <ele>101.4</ele>
        <time>2022-08-10T08:23:38Z</time>
      </trkpt>
      <trkpt lat="49.93413" lon="2.08073">
        <ele>101.5</ele>
        <time>2022-08-10T08:23:39Z</time>
      </trkpt>
      <trkpt lat="49.93412" lon="2.08072">
        <ele>101.5</ele>
        <time>2022-08-10T08:23:40Z</time>
      </trkpt>
      <trkpt lat="49.93411" lon="2.08071">
        <ele>101.5</ele>
        <time>2022-08-10T08:23:41Z</time>
      </trkpt>
      <trkpt lat="49.9341" lon="2.08071">
        <ele>101.5</ele>
        <time>2022-08-10T08:23:42Z</time>
      </trkpt>
      <trkpt lat="49.93409" lon="2.0807">
        <ele>101.6</ele>
        <time>2022-08-10T08:23:43Z</time>
      </trkpt>
      <trkpt lat="49.93407" lon="2.08069">
        <ele>101.6</ele>
        <time>2022-08-10T08:23:44Z</time>
      </trkpt>
      <trkpt lat="49.93407" lon="2.08069">
        <ele>101.6</ele>
        <time>2022-08-10T08:23:45Z</time>
      </trkpt>
      <trkpt lat="49.93406" lon="2.08068">
        <ele>101.7</ele>
        <time>2022-08-10T08:23:46Z</time>
      </trkpt>
      <trkpt lat="49.93405" lon="2.08067">
        <ele>101.7</ele>
        <time>2022-08-10T08:23:48Z</time>
      </trkpt>
      <trkpt lat="49.93404" lon="2.08066">
        <ele>101.7</ele>
        <time>2022-08-10T08:23:49Z</time>
      </trkpt>
      <trkpt lat="49.93403" lon="2.08065">
        <ele>101.8</ele>
        <time>2022-08-10T08:23:50Z</time>
      </trkpt>
      <trkpt lat="49.93402" lon="2.08064">
        <ele>101.8</ele>
        <time>2022-08-10T08:23:51Z</time>
      </trkpt>
      <trkpt lat="49.93401" lon="2.08064">
        <ele>101.8</ele>
        <time>2022-08-10T08:23:52Z</time>
      </trkpt>
      <trkpt lat="49.934" lon="2.08063">
        <ele>101.9</ele>
        <time>2022-08-10T08:23:53Z</time>
      </trkpt>
      <trkpt lat="49.93398" lon="2.08062">
        <ele>101.9</ele>
        <time>2022-08-10T08:23:54Z</time>
      </trkpt>
      <trkpt lat="49.93397" lon="2.08062">
        <ele>101.9</ele>
        <time>2022-08-10T08:23:55Z</time>
      </trkpt>
      <trkpt lat="49.93396" lon="2.08061">
        <ele>102</ele>
        <time>2022-08-10T08:23:56Z</time>
      </trkpt>
      <trkpt lat="49.93394" lon="2.0806">
        <ele>102</ele>
        <time>2022-08-10T08:23:57Z</time>
      </trkpt>
      <trkpt lat="49.93393" lon="2.0806">
        <ele>102</ele>
        <time>2022-08-10T08:23:58Z</time>
      </trkpt>
      <trkpt lat="49.93392" lon="2.0806">
        <ele>102.1</ele>
        <time>2022-08-10T08:23:59Z</time>
      </trkpt>
      <trkpt lat="49.93391" lon="2.08059">
        <ele>102.1</ele>
        <time>2022-08-10T08:24:00Z</time>
      </trkpt>
      <trkpt lat="49.9339" lon="2.08059">
        <ele>102.1</ele>
        <time>2022-08-10T08:24:01Z</time>
      </trkpt>
      <trkpt lat="49.9339" lon="2.08058">
        <ele>102.1</ele>
        <time>2022-08-10T08:24:02Z</time>
      </trkpt>
      <trkpt lat="49.93389" lon="2.08058">
        <ele>102.2</ele>
        <time>2022-08-10T08:24:04Z</time>
      </trkpt>
      <trkpt lat="49.93386" lon="2.08056">
        <ele>102.2</ele>
        <time>2022-08-10T08:24:05Z</time>
      </trkpt>
      <trkpt lat="49.93386" lon="2.08056">
        <ele>102.3</ele>
        <time>2022-08-10T08:24:06Z</time>
      </trkpt>
      <trkpt lat="49.93385" lon="2.08056">
        <ele>102.3</ele>
        <time>2022-08-10T08:24:07Z</time>
      </trkpt>
      <trkpt lat="49.93383" lon="2.08055">
        <ele>102.3</ele>
        <time>2022-08-10T08:24:08Z</time>
      </trkpt>
      <trkpt lat="49.93382" lon="2.08055">
        <ele>102.4</ele>
        <time>2022-08-10T08:24:09Z</time>
      </trkpt>
      <trkpt lat="49.93382" lon="2.08054">
        <ele>102.4</ele>
        <time>2022-08-10T08:24:10Z</time>
      </trkpt>
      <trkpt lat="49.93379" lon="2.08053">
        <ele>102.4</ele>
        <time>2022-08-10T08:24:12Z</time>
      </trkpt>
      <trkpt lat="49.93379" lon="2.08053">
        <ele>102.5</ele>
        <time>2022-08-10T08:24:13Z</time>
      </trkpt>
      <trkpt lat="49.93378" lon="2.08053">
        <ele>102.5</ele>
        <time>2022-08-10T08:24:14Z</time>
      </trkpt>
      <trkpt lat="49.93377" lon="2.08052">
        <ele>102.5</ele>
        <time>2022-08-10T08:24:15Z</time>
      </trkpt>
      <trkpt lat="49.93376" lon="2.08052">
        <ele>102.5</ele>
        <time>2022-08-10T08:24:16Z</time>
      </trkpt>
      <trkpt lat="49.93375" lon="2.08051">
        <ele>102.6</ele>
        <time>2022-08-10T08:24:17Z</time>
      </trkpt>
      <trkpt lat="49.93373" lon="2.0805">
        <ele>102.6</ele>
        <time>2022-08-10T08:24:18Z</time>
      </trkpt>
      <trkpt lat="49.93372" lon="2.0805">
        <ele>102.6</ele>
        <time>2022-08-10T08:24:19Z</time>
      </trkpt>
      <trkpt lat="49.93371" lon="2.08049">
        <ele>102.7</ele>
        <time>2022-08-10T08:24:20Z</time>
      </trkpt>
      <trkpt lat="49.93369" lon="2.08048">
        <ele>102.7</ele>
        <time>2022-08-10T08:24:21Z</time>
      </trkpt>
      <trkpt lat="49.93368" lon="2.08048">
        <ele>102.8</ele>
        <time>2022-08-10T08:24:22Z</time>
      </trkpt>
      <trkpt lat="49.93367" lon="2.08048">
        <ele>102.8</ele>
        <time>2022-08-10T08:24:23Z</time>
      </trkpt>
      <trkpt lat="49.93366" lon="2.08047">
        <ele>102.8</ele>
        <time>2022-08-10T08:24:25Z</time>
      </trkpt>
      <trkpt lat="49.93365" lon="2.08047">
        <ele>102.9</ele>
        <time>2022-08-10T08:24:26Z</time>
      </trkpt>
      <trkpt lat="49.93362" lon="2.08046">
        <ele>102.9</ele>
        <time>2022-08-10T08:24:27Z</time>
      </trkpt>
      <trkpt lat="49.93361" lon="2.08045">
        <ele>102.9</ele>
        <time>2022-08-10T08:24:28Z</time>
      </trkpt>
      <trkpt lat="49.9336" lon="2.08044">
        <ele>103</ele>
        <time>2022-08-10T08:24:29Z</time>
      </trkpt>
      <trkpt lat="49.9336" lon="2.08044">
        <ele>103</ele>
        <time>2022-08-10T08:24:31Z</time>
      </trkpt>
      <trkpt lat="49.93359" lon="2.08043">
        <ele>103</ele>
        <time>2022-08-10T08:24:32Z</time>
      </trkpt>
      <trkpt lat="49.93358" lon="2.08042">
        <ele>103.1</ele>
        <time>2022-08-10T08:24:33Z</time>
      </trkpt>
      <trkpt lat="49.93356" lon="2.08042">
        <ele>103.1</ele>
        <time>2022-08-10T08:24:34Z</time>
      </trkpt>
      <trkpt lat="49.93355" lon="2.08041">
        <ele>103.1</ele>
        <time>2022-08-10T08:24:35Z</time>
      </trkpt>
      <trkpt lat="49.93354" lon="2.08041">
        <ele>103.2</ele>
        <time>2022-08-10T08:24:36Z</time>
      </trkpt>
      <trkpt lat="49.93353" lon="2.0804">
        <ele>103.2</ele>
        <time>2022-08-10T08:24:37Z</time>
      </trkpt>
      <trkpt lat="49.93352" lon="2.0804">
        <ele>103.2</ele>
        <time>2022-08-10T08:24:38Z</time>
      </trkpt>
      <trkpt lat="49.93351" lon="2.08039">
        <ele>103.3</ele>
        <time>2022-08-10T08:24:39Z</time>
      </trkpt>
      <trkpt lat="49.9335" lon="2.08038">
        <ele>103.3</ele>
        <time>2022-08-10T08:24:41Z</time>
      </trkpt>
      <trkpt lat="49.93349" lon="2.08038">
        <ele>103.3</ele>
        <time>2022-08-10T08:24:42Z</time>
      </trkpt>
      <trkpt lat="49.93348" lon="2.08038">
        <ele>103.4</ele>
        <time>2022-08-10T08:24:43Z</time>
      </trkpt>
      <trkpt lat="49.93347" lon="2.08038">
        <ele>103.4</ele>
        <time>2022-08-10T08:24:44Z</time>
      </trkpt>
      <trkpt lat="49.93346" lon="2.08039">
        <ele>103.4</ele>
        <time>2022-08-10T08:24:45Z</time>
      </trkpt>
      <trkpt lat="49.93344" lon="2.08039">
        <ele>103.4</ele>
        <time>2022-08-10T08:24:46Z</time>
      </trkpt>
      <trkpt lat="49.93343" lon="2.08039">
        <ele>103.5</ele>
        <time>2022-08-10T08:24:47Z</time>
      </trkpt>
      <trkpt lat="49.93342" lon="2.08039">
        <ele>103.5</ele>
        <time>2022-08-10T08:24:48Z</time>
      </trkpt>
      <trkpt lat="49.9334" lon="2.08039">
        <ele>103.6</ele>
        <time>2022-08-10T08:24:49Z</time>
      </trkpt>
      <trkpt lat="49.93339" lon="2.08039">
        <ele>103.6</ele>
        <time>2022-08-10T08:24:50Z</time>
      </trkpt>
      <trkpt lat="49.93339" lon="2.08039">
        <ele>103.6</ele>
        <time>2022-08-10T08:24:51Z</time>
      </trkpt>
      <trkpt lat="49.93336" lon="2.08039">
        <ele>103.7</ele>
        <time>2022-08-10T08:24:53Z</time>
      </trkpt>
      <trkpt lat="49.93335" lon="2.08038">
        <ele>103.7</ele>
        <time>2022-08-10T08:24:54Z</time>
      </trkpt>
      <trkpt lat="49.93334" lon="2.08038">
        <ele>103.7</ele>
        <time>2022-08-10T08:24:55Z</time>
      </trkpt>
      <trkpt lat="49.93334" lon="2.08037">
        <ele>103.8</ele>
        <time>2022-08-10T08:24:56Z</time>
      </trkpt>
      <trkpt lat="49.93333" lon="2.08037">
        <ele>103.8</ele>
        <time>2022-08-10T08:24:57Z</time>
      </trkpt>
      <trkpt lat="49.93332" lon="2.08036">
        <ele>103.8</ele>
        <time>2022-08-10T08:24:58Z</time>
      </trkpt>
      <trkpt lat="49.93331" lon="2.08036">
        <ele>103.8</ele>
        <time>2022-08-10T08:24:59Z</time>
      </trkpt>
      <trkpt lat="49.93329" lon="2.08036">
        <ele>103.9</ele>
        <time>2022-08-10T08:25:00Z</time>
      </trkpt>
      <trkpt lat="49.93327" lon="2.08036">
        <ele>103.9</ele>
        <time>2022-08-10T08:25:01Z</time>
      </trkpt>
      <trkpt lat="49.93326" lon="2.08036">
        <ele>104</ele>
        <time>2022-08-10T08:25:02Z</time>
      </trkpt>
      <trkpt lat="49.93325" lon="2.08036">
        <ele>104</ele>
        <time>2022-08-10T08:25:03Z</time>
      </trkpt>
      <trkpt lat="49.93324" lon="2.08036">
        <ele>104</ele>
        <time>2022-08-10T08:25:05Z</time>
      </trkpt>
      <trkpt lat="49.93323" lon="2.08036">
        <ele>104.1</ele>
        <time>2022-08-10T08:25:06Z</time>
      </trkpt>
      <trkpt lat="49.93321" lon="2.08036">
        <ele>104.1</ele>
        <time>2022-08-10T08:25:07Z</time>
      </trkpt>
      <trkpt lat="49.9332" lon="2.08035">
        <ele>104.1</ele>
        <time>2022-08-10T08:25:08Z</time>
      </trkpt>
      <trkpt lat="49.93319" lon="2.08035">
        <ele>104.2</ele>
        <time>2022-08-10T08:25:09Z</time>
      </trkpt>
      <trkpt lat="49.93317" lon="2.08035">
        <ele>104.2</ele>
        <time>2022-08-10T08:25:10Z</time>
      </trkpt>
      <trkpt lat="49.93316" lon="2.08034">
        <ele>104.3</ele>
        <time>2022-08-10T08:25:11Z</time>
      </trkpt>
      <trkpt lat="49.93315" lon="2.08034">
        <ele>104.3</ele>
        <time>2022-08-10T08:25:12Z</time>
      </trkpt>
      <trkpt lat="49.93314" lon="2.08034">
        <ele>104.3</ele>
        <time>2022-08-10T08:25:13Z</time>
      </trkpt>
      <trkpt lat="49.93312" lon="2.08033">
        <ele>104.4</ele>
        <time>2022-08-10T08:25:14Z</time>
      </trkpt>
      <trkpt lat="49.93311" lon="2.08033">
        <ele>104.4</ele>
        <time>2022-08-10T08:25:15Z</time>
      </trkpt>
      <trkpt lat="49.9331" lon="2.08032">
        <ele>104.4</ele>
        <time>2022-08-10T08:25:16Z</time>
      </trkpt>
      <trkpt lat="49.93308" lon="2.08032">
        <ele>104.5</ele>
        <time>2022-08-10T08:25:18Z</time>
      </trkpt>
      <trkpt lat="49.93307" lon="2.08032">
        <ele>104.5</ele>
        <time>2022-08-10T08:25:19Z</time>
      </trkpt>
      <trkpt lat="49.93305" lon="2.08031">
        <ele>104.6</ele>
        <time>2022-08-10T08:25:20Z</time>
      </trkpt>
      <trkpt lat="49.93305" lon="2.08031">
        <ele>104.6</ele>
        <time>2022-08-10T08:25:21Z</time>
      </trkpt>
      <trkpt lat="49.93304" lon="2.0803">
        <ele>104.6</ele>
        <time>2022-08-10T08:25:22Z</time>
      </trkpt>
      <trkpt lat="49.93302" lon="2.0803">
        <ele>104.6</ele>
        <time>2022-08-10T08:25:23Z</time>
      </trkpt>
      <trkpt lat="49.93301" lon="2.0803">
        <ele>104.7</ele>
        <time>2022-08-10T08:25:24Z</time>
      </trkpt>
      <trkpt lat="49.933" lon="2.08029">
        <ele>104.7</ele>
        <time>2022-08-10T08:25:25Z</time>
      </trkpt>
      <trkpt lat="49.93298" lon="2.08029">
        <ele>104.7</ele>
        <time>2022-08-10T08:25:26Z</time>
      </trkpt>
      <trkpt lat="49.93297" lon="2.08029">
        <ele>104.8</ele>
        <time>2022-08-10T08:25:27Z</time>
      </trkpt>
      <trkpt lat="49.93296" lon="2.08029">
        <ele>104.8</ele>
        <time>2022-08-10T08:25:28Z</time>
      </trkpt>
      <trkpt lat="49.93294" lon="2.08028">
        <ele>104.8</ele>
        <time>2022-08-10T08:25:30Z</time>
      </trkpt>
      <trkpt lat="49.93293" lon="2.08028">
        <ele>104.9</ele>
        <time>2022-08-10T08:25:31Z</time>
      </trkpt>
      <trkpt lat="49.93292" lon="2.08028">
        <ele>104.9</ele>
        <time>2022-08-10T08:25:32Z</time>
      </trkpt>
      <trkpt lat="49.93291" lon="2.08028">
        <ele>104.9</ele>
        <time>2022-08-10T08:25:33Z</time>
      </trkpt>
      <trkpt lat="49.9329" lon="2.08028">
        <ele>104.9</ele>
        <time>2022-08-10T08:25:34Z</time>
      </trkpt>
      <trkpt lat="49.93287" lon="2.08028">
        <ele>105</ele>
        <time>2022-08-10T08:25:35Z</time>
      </trkpt>
      <trkpt lat="49.93286" lon="2.08028">
        <ele>105</ele>
        <time>2022-08-10T08:25:36Z</time>
      </trkpt>
      <trkpt lat="49.93286" lon="2.08028">
        <ele>105</ele>
        <time>2022-08-10T08:25:37Z</time>
      </trkpt>
      <trkpt lat="49.93284" lon="2.08028">
        <ele>105.1</ele>
        <time>2022-08-10T08:25:38Z</time>
      </trkpt>
      <trkpt lat="49.93283" lon="2.08028">
        <ele>105.1</ele>
        <time>2022-08-10T08:25:39Z</time>
      </trkpt>
      <trkpt lat="49.93282" lon="2.08028">
        <ele>105.1</ele>
        <time>2022-08-10T08:25:41Z</time>
      </trkpt>
      <trkpt lat="49.9328" lon="2.08028">
        <ele>105.1</ele>
        <time>2022-08-10T08:25:42Z</time>
      </trkpt>
      <trkpt lat="49.93279" lon="2.08029">
        <ele>105.2</ele>
        <time>2022-08-10T08:25:43Z</time>
      </trkpt>
      <trkpt lat="49.93278" lon="2.08029">
        <ele>105.2</ele>
        <time>2022-08-10T08:25:44Z</time>
      </trkpt>
      <trkpt lat="49.93277" lon="2.08029">
        <ele>105.2</ele>
        <time>2022-08-10T08:25:45Z</time>
      </trkpt>
      <trkpt lat="49.93276" lon="2.08029">
        <ele>105.2</ele>
        <time>2022-08-10T08:25:46Z</time>
      </trkpt>
      <trkpt lat="49.93274" lon="2.08029">
        <ele>105.3</ele>
        <time>2022-08-10T08:25:47Z</time>
      </trkpt>
      <trkpt lat="49.93273" lon="2.08029">
        <ele>105.3</ele>
        <time>2022-08-10T08:25:48Z</time>
      </trkpt>
      <trkpt lat="49.93272" lon="2.08029">
        <ele>105.3</ele>
        <time>2022-08-10T08:25:49Z</time>
      </trkpt>
      <trkpt lat="49.9327" lon="2.08029">
        <ele>105.4</ele>
        <time>2022-08-10T08:25:50Z</time>
      </trkpt>
      <trkpt lat="49.93269" lon="2.08029">
        <ele>105.4</ele>
        <time>2022-08-10T08:25:51Z</time>
      </trkpt>
      <trkpt lat="49.93268" lon="2.08029">
        <ele>105.4</ele>
        <time>2022-08-10T08:25:52Z</time>
      </trkpt>
      <trkpt lat="49.93267" lon="2.08029">
        <ele>105.4</ele>
        <time>2022-08-10T08:25:54Z</time>
      </trkpt>
      <trkpt lat="49.93265" lon="2.08028">
        <ele>105.5</ele>
        <time>2022-08-10T08:25:55Z</time>
      </trkpt>
      <trkpt lat="49.93264" lon="2.08028">
        <ele>105.5</ele>
        <time>2022-08-10T08:25:56Z</time>
      </trkpt>
      <trkpt lat="49.93263" lon="2.08028">
        <ele>105.5</ele>
        <time>2022-08-10T08:25:57Z</time>
      </trkpt>
      <trkpt lat="49.93262" lon="2.08028">
        <ele>105.5</ele>
        <time>2022-08-10T08:25:58Z</time>
      </trkpt>
      <trkpt lat="49.93261" lon="2.08028">
        <ele>105.5</ele>
        <time>2022-08-10T08:25:59Z</time>
      </trkpt>
      <trkpt lat="49.93259" lon="2.08028">
        <ele>105.6</ele>
        <time>2022-08-10T08:26:00Z</time>
      </trkpt>
      <trkpt lat="49.93258" lon="2.08028">
        <ele>105.6</ele>
        <time>2022-08-10T08:26:01Z</time>
      </trkpt>
      <trkpt lat="49.93256" lon="2.08028">
        <ele>105.6</ele>
        <time>2022-08-10T08:26:02Z</time>
      </trkpt>
      <trkpt lat="49.93255" lon="2.08028">
        <ele>105.7</ele>
        <time>2022-08-10T08:26:03Z</time>
      </trkpt>
      <trkpt lat="49.93254" lon="2.08028">
        <ele>105.7</ele>
        <time>2022-08-10T08:26:04Z</time>
      </trkpt>
      <trkpt lat="49.93252" lon="2.08028">
        <ele>105.7</ele>
        <time>2022-08-10T08:26:05Z</time>
      </trkpt>
      <trkpt lat="49.93251" lon="2.08028">
        <ele>105.7</ele>
        <time>2022-08-10T08:26:06Z</time>
      </trkpt>
      <trkpt lat="49.9325" lon="2.08028">
        <ele>105.8</ele>
        <time>2022-08-10T08:26:07Z</time>
      </trkpt>
      <trkpt lat="49.93249" lon="2.08028">
        <ele>105.8</ele>
        <time>2022-08-10T08:26:09Z</time>
      </trkpt>
      <trkpt lat="49.93247" lon="2.08028">
        <ele>105.8</ele>
        <time>2022-08-10T08:26:10Z</time>
      </trkpt>
      <trkpt lat="49.93246" lon="2.08028">
        <ele>105.8</ele>
        <time>2022-08-10T08:26:11Z</time>
      </trkpt>
      <trkpt lat="49.93245" lon="2.08028">
        <ele>105.9</ele>
        <time>2022-08-10T08:26:12Z</time>
      </trkpt>
      <trkpt lat="49.93244" lon="2.08028">
        <ele>105.9</ele>
        <time>2022-08-10T08:26:13Z</time>
      </trkpt>
      <trkpt lat="49.93243" lon="2.08028">
        <ele>105.9</ele>
        <time>2022-08-10T08:26:14Z</time>
      </trkpt>
      <trkpt lat="49.93241" lon="2.08028">
        <ele>105.9</ele>
        <time>2022-08-10T08:26:15Z</time>
      </trkpt>
      <trkpt lat="49.9324" lon="2.08028">
        <ele>106</ele>
        <time>2022-08-10T08:26:16Z</time>
      </trkpt>
      <trkpt lat="49.93239" lon="2.08028">
        <ele>106</ele>
        <time>2022-08-10T08:26:17Z</time>
      </trkpt>
      <trkpt lat="49.93238" lon="2.08028">
        <ele>106</ele>
        <time>2022-08-10T08:26:18Z</time>
      </trkpt>
      <trkpt lat="49.93237" lon="2.08029">
        <ele>106</ele>
        <time>2022-08-10T08:26:19Z</time>
      </trkpt>
      <trkpt lat="49.93235" lon="2.08029">
        <ele>106</ele>
        <time>2022-08-10T08:26:20Z</time>
      </trkpt>
      <trkpt lat="49.93233" lon="2.08029">
        <ele>106.1</ele>
        <time>2022-08-10T08:26:21Z</time>
      </trkpt>
      <trkpt lat="49.93232" lon="2.08029">
        <ele>106.1</ele>
        <time>2022-08-10T08:26:23Z</time>
      </trkpt>
      <trkpt lat="49.93231" lon="2.08029">
        <ele>106.1</ele>
        <time>2022-08-10T08:26:24Z</time>
      </trkpt>
      <trkpt lat="49.9323" lon="2.08029">
        <ele>106.1</ele>
        <time>2022-08-10T08:26:25Z</time>
      </trkpt>
      <trkpt lat="49.93229" lon="2.08029">
        <ele>106.1</ele>
        <time>2022-08-10T08:26:26Z</time>
      </trkpt>
      <trkpt lat="49.93228" lon="2.08029">
        <ele>106.1</ele>
        <time>2022-08-10T08:26:28Z</time>
      </trkpt>
      <trkpt lat="49.93227" lon="2.08029">
        <ele>106.2</ele>
        <time>2022-08-10T08:26:29Z</time>
      </trkpt>
      <trkpt lat="49.93225" lon="2.08029">
        <ele>106.2</ele>
        <time>2022-08-10T08:26:30Z</time>
      </trkpt>
      <trkpt lat="49.93224" lon="2.08029">
        <ele>106.2</ele>
        <time>2022-08-10T08:26:31Z</time>
      </trkpt>
      <trkpt lat="49.93223" lon="2.08029">
        <ele>106.2</ele>
        <time>2022-08-10T08:26:32Z</time>
      </trkpt>
      <trkpt lat="49.93221" lon="2.08029">
        <ele>106.2</ele>
        <time>2022-08-10T08:26:34Z</time>
      </trkpt>
      <trkpt lat="49.9322" lon="2.08029">
        <ele>106.3</ele>
        <time>2022-08-10T08:26:35Z</time>
      </trkpt>
      <trkpt lat="49.93219" lon="2.0803">
        <ele>106.3</ele>
        <time>2022-08-10T08:26:36Z</time>
      </trkpt>
      <trkpt lat="49.93218" lon="2.0803">
        <ele>106.3</ele>
        <time>2022-08-10T08:26:37Z</time>
      </trkpt>
      <trkpt lat="49.93216" lon="2.0803">
        <ele>106.3</ele>
        <time>2022-08-10T08:26:38Z</time>
      </trkpt>
      <trkpt lat="49.93215" lon="2.0803">
        <ele>106.3</ele>
        <time>2022-08-10T08:26:39Z</time>
      </trkpt>
      <trkpt lat="49.93214" lon="2.0803">
        <ele>106.3</ele>
        <time>2022-08-10T08:26:40Z</time>
      </trkpt>
      <trkpt lat="49.93213" lon="2.0803">
        <ele>106.4</ele>
        <time>2022-08-10T08:26:41Z</time>
      </trkpt>
      <trkpt lat="49.93212" lon="2.0803">
        <ele>106.4</ele>
        <time>2022-08-10T08:26:42Z</time>
      </trkpt>
      <trkpt lat="49.93211" lon="2.08031">
        <ele>106.4</ele>
        <time>2022-08-10T08:26:43Z</time>
      </trkpt>
      <trkpt lat="49.9321" lon="2.08031">
        <ele>106.4</ele>
        <time>2022-08-10T08:26:45Z</time>
      </trkpt>
      <trkpt lat="49.93208" lon="2.08031">
        <ele>106.4</ele>
        <time>2022-08-10T08:26:46Z</time>
      </trkpt>
      <trkpt lat="49.93208" lon="2.08031">
        <ele>106.4</ele>
        <time>2022-08-10T08:26:47Z</time>
      </trkpt>
      <trkpt lat="49.93207" lon="2.08032">
        <ele>106.4</ele>
        <time>2022-08-10T08:26:48Z</time>
      </trkpt>
      <trkpt lat="49.93205" lon="2.08032">
        <ele>106.5</ele>
        <time>2022-08-10T08:26:49Z</time>
      </trkpt>
      <trkpt lat="49.93204" lon="2.08033">
        <ele>106.5</ele>
        <time>2022-08-10T08:26:50Z</time>
      </trkpt>
      <trkpt lat="49.93203" lon="2.08033">
        <ele>106.5</ele>
        <time>2022-08-10T08:26:52Z</time>
      </trkpt>
      <trkpt lat="49.93202" lon="2.08034">
        <ele>106.5</ele>
        <time>2022-08-10T08:26:53Z</time>
      </trkpt>
      <trkpt lat="49.93201" lon="2.08034">
        <ele>106.5</ele>
        <time>2022-08-10T08:26:54Z</time>
      </trkpt>
      <trkpt lat="49.932" lon="2.08034">
        <ele>106.5</ele>
        <time>2022-08-10T08:26:55Z</time>
      </trkpt>
      <trkpt lat="49.93199" lon="2.08034">
        <ele>106.5</ele>
        <time>2022-08-10T08:26:56Z</time>
      </trkpt>
      <trkpt lat="49.93198" lon="2.08034">
        <ele>106.6</ele>
        <time>2022-08-10T08:26:57Z</time>
      </trkpt>
      <trkpt lat="49.93197" lon="2.08034">
        <ele>106.6</ele>
        <time>2022-08-10T08:26:59Z</time>
      </trkpt>
      <trkpt lat="49.93196" lon="2.08032">
        <ele>106.6</ele>
        <time>2022-08-10T08:27:01Z</time>
      </trkpt>
      <trkpt lat="49.93196" lon="2.08032">
        <ele>106.6</ele>
        <time>2022-08-10T08:27:02Z</time>
      </trkpt>
      <trkpt lat="49.93197" lon="2.08031">
        <ele>106.6</ele>
        <time>2022-08-10T08:27:03Z</time>
      </trkpt>
      <trkpt lat="49.93197" lon="2.0803">
        <ele>106.6</ele>
        <time>2022-08-10T08:27:04Z</time>
      </trkpt>
      <trkpt lat="49.93198" lon="2.08031">
        <ele>106.6</ele>
        <time>2022-08-10T08:27:06Z</time>
      </trkpt>
      <trkpt lat="49.93198" lon="2.08031">
        <ele>106.6</ele>
        <time>2022-08-10T08:27:07Z</time>
      </trkpt>
      <trkpt lat="49.93198" lon="2.08032">
        <ele>106.6</ele>
        <time>2022-08-10T08:27:08Z</time>
      </trkpt>
      <trkpt lat="49.93198" lon="2.08033">
        <ele>106.6</ele>
        <time>2022-08-10T08:27:09Z</time>
      </trkpt>
      <trkpt lat="49.93198" lon="2.08034">
        <ele>106.6</ele>
        <time>2022-08-10T08:27:11Z</time>
      </trkpt>
      <trkpt lat="49.93198" lon="2.08034">
        <ele>106.6</ele>
        <time>2022-08-10T08:27:12Z</time>
      </trkpt>
      <trkpt lat="49.93199" lon="2.08034">
        <ele>106.6</ele>
        <time>2022-08-10T08:27:13Z</time>
      </trkpt>
      <trkpt lat="49.93199" lon="2.08034">
        <ele>106.6</ele>
        <time>2022-08-10T08:27:14Z</time>
      </trkpt>
      <trkpt lat="49.93199" lon="2.08034">
        <ele>106.6</ele>
        <time>2022-08-10T08:27:16Z</time>
      </trkpt>
      <trkpt lat="49.93199" lon="2.08034">
        <ele>106.7</ele>
        <time>2022-08-10T08:27:17Z</time>
      </trkpt>
      <trkpt lat="49.93199" lon="2.08034">
        <ele>106.7</ele>
        <time>2022-08-10T08:27:18Z</time>
      </trkpt>
      <trkpt lat="49.93199" lon="2.08033">
        <ele>106.7</ele>
        <time>2022-08-10T08:27:19Z</time>
      </trkpt>
      <trkpt lat="49.93199" lon="2.08033">
        <ele>106.7</ele>
        <time>2022-08-10T08:27:20Z</time>
      </trkpt>
      <trkpt lat="49.93199" lon="2.08033">
        <ele>106.7</ele>
        <time>2022-08-10T08:27:21Z</time>
      </trkpt>
      <trkpt lat="49.93199" lon="2.08033">
        <ele>106.7</ele>
        <time>2022-08-10T08:27:22Z</time>
      </trkpt>
      <trkpt lat="49.93199" lon="2.08033">
        <ele>106.7</ele>
        <time>2022-08-10T08:27:23Z</time>
      </trkpt>
      <trkpt lat="49.93199" lon="2.08033">
        <ele>106.7</ele>
        <time>2022-08-10T08:27:24Z</time>
      </trkpt>
      <trkpt lat="49.93199" lon="2.08033">
        <ele>106.7</ele>
        <time>2022-08-10T08:27:25Z</time>
      </trkpt>
      <trkpt lat="49.93199" lon="2.08033">
        <ele>106.7</ele>
        <time>2022-08-10T08:27:26Z</time>
      </trkpt>
      <trkpt lat="49.93199" lon="2.08033">
        <ele>106.7</ele>
        <time>2022-08-10T08:27:27Z</time>
      </trkpt>
      <trkpt lat="49.93199" lon="2.08033">
        <ele>106.7</ele>
        <time>2022-08-10T08:27:28Z</time>
      </trkpt>
      <trkpt lat="49.93199" lon="2.08033">
        <ele>106.7</ele>
        <time>2022-08-10T08:27:29Z</time>
      </trkpt>
      <trkpt lat="49.93199" lon="2.08033">
        <ele>106.7</ele>
        <time>2022-08-10T08:27:30Z</time>
      </trkpt>
      <trkpt lat="49.93199" lon="2.08033">
        <ele>106.7</ele>
        <time>2022-08-10T08:27:31Z</time>
      </trkpt>
      <trkpt lat="49.932" lon="2.08035">
        <ele>106.7</ele>
        <time>2022-08-10T08:27:32Z</time>
      </trkpt>
      <trkpt lat="49.93199" lon="2.08037">
        <ele>106.7</ele>
        <time>2022-08-10T08:27:33Z</time>
      </trkpt>
      <trkpt lat="49.93199" lon="2.08039">
        <ele>106.7</ele>
        <time>2022-08-10T08:27:35Z</time>
      </trkpt>
      <trkpt lat="49.93198" lon="2.08041">
        <ele>106.7</ele>
        <time>2022-08-10T08:27:36Z</time>
      </trkpt>
      <trkpt lat="49.93198" lon="2.08043">
        <ele>106.7</ele>
        <time>2022-08-10T08:27:37Z</time>
      </trkpt>
      <trkpt lat="49.93198" lon="2.08044">
        <ele>106.8</ele>
        <time>2022-08-10T08:27:38Z</time>
      </trkpt>
      <trkpt lat="49.93198" lon="2.08046">
        <ele>106.8</ele>
        <time>2022-08-10T08:27:39Z</time>
      </trkpt>
      <trkpt lat="49.93197" lon="2.08048">
        <ele>106.8</ele>
        <time>2022-08-10T08:27:40Z</time>
      </trkpt>
      <trkpt lat="49.93196" lon="2.0805">
        <ele>106.8</ele>
        <time>2022-08-10T08:27:41Z</time>
      </trkpt>
      <trkpt lat="49.93195" lon="2.08051">
        <ele>106.8</ele>
        <time>2022-08-10T08:27:42Z</time>
      </trkpt>
      <trkpt lat="49.93195" lon="2.08052">
        <ele>106.8</ele>
        <time>2022-08-10T08:27:43Z</time>
      </trkpt>
      <trkpt lat="49.93194" lon="2.08053">
        <ele>106.9</ele>
        <time>2022-08-10T08:27:45Z</time>
      </trkpt>
      <trkpt lat="49.93192" lon="2.08055">
        <ele>106.9</ele>
        <time>2022-08-10T08:27:47Z</time>
      </trkpt>
      <trkpt lat="49.93191" lon="2.08055">
        <ele>106.9</ele>
        <time>2022-08-10T08:27:48Z</time>
      </trkpt>
      <trkpt lat="49.9319" lon="2.08055">
        <ele>106.9</ele>
        <time>2022-08-10T08:27:49Z</time>
      </trkpt>
      <trkpt lat="49.93189" lon="2.08055">
        <ele>106.9</ele>
        <time>2022-08-10T08:27:50Z</time>
      </trkpt>
      <trkpt lat="49.93188" lon="2.08056">
        <ele>107</ele>
        <time>2022-08-10T08:27:51Z</time>
      </trkpt>
      <trkpt lat="49.93187" lon="2.08056">
        <ele>107</ele>
        <time>2022-08-10T08:27:53Z</time>
      </trkpt>
      <trkpt lat="49.93186" lon="2.08057">
        <ele>107</ele>
        <time>2022-08-10T08:27:54Z</time>
      </trkpt>
      <trkpt lat="49.93186" lon="2.08057">
        <ele>107</ele>
        <time>2022-08-10T08:27:55Z</time>
      </trkpt>
      <trkpt lat="49.93185" lon="2.08058">
        <ele>107</ele>
        <time>2022-08-10T08:27:56Z</time>
      </trkpt>
      <trkpt lat="49.93184" lon="2.08059">
        <ele>107</ele>
        <time>2022-08-10T08:27:57Z</time>
      </trkpt>
      <trkpt lat="49.93183" lon="2.08059">
        <ele>107.1</ele>
        <time>2022-08-10T08:27:58Z</time>
      </trkpt>
      <trkpt lat="49.93182" lon="2.0806">
        <ele>107.1</ele>
        <time>2022-08-10T08:27:59Z</time>
      </trkpt>
      <trkpt lat="49.93182" lon="2.0806">
        <ele>107.1</ele>
        <time>2022-08-10T08:28:00Z</time>
      </trkpt>
      <trkpt lat="49.93181" lon="2.08061">
        <ele>107.1</ele>
        <time>2022-08-10T08:28:02Z</time>
      </trkpt>
      <trkpt lat="49.9318" lon="2.08062">
        <ele>107.1</ele>
        <time>2022-08-10T08:28:03Z</time>
      </trkpt>
      <trkpt lat="49.9318" lon="2.08062">
        <ele>107.1</ele>
        <time>2022-08-10T08:28:04Z</time>
      </trkpt>
      <trkpt lat="49.93179" lon="2.08063">
        <ele>107.2</ele>
        <time>2022-08-10T08:28:05Z</time>
      </trkpt>
      <trkpt lat="49.93178" lon="2.08065">
        <ele>107.2</ele>
        <time>2022-08-10T08:28:06Z</time>
      </trkpt>
      <trkpt lat="49.93178" lon="2.08065">
        <ele>107.2</ele>
        <time>2022-08-10T08:28:07Z</time>
      </trkpt>
      <trkpt lat="49.93177" lon="2.08066">
        <ele>107.2</ele>
        <time>2022-08-10T08:28:09Z</time>
      </trkpt>
      <trkpt lat="49.93177" lon="2.08066">
        <ele>107.2</ele>
        <time>2022-08-10T08:28:10Z</time>
      </trkpt>
      <trkpt lat="49.93176" lon="2.08068">
        <ele>107.2</ele>
        <time>2022-08-10T08:28:11Z</time>
      </trkpt>
      <trkpt lat="49.93176" lon="2.08069">
        <ele>107.2</ele>
        <time>2022-08-10T08:28:13Z</time>
      </trkpt>
      <trkpt lat="49.93175" lon="2.08069">
        <ele>107.3</ele>
        <time>2022-08-10T08:28:14Z</time>
      </trkpt>
      <trkpt lat="49.93175" lon="2.0807">
        <ele>107.3</ele>
        <time>2022-08-10T08:28:15Z</time>
      </trkpt>
      <trkpt lat="49.93174" lon="2.08072">
        <ele>107.3</ele>
        <time>2022-08-10T08:28:16Z</time>
      </trkpt>
      <trkpt lat="49.93174" lon="2.08073">
        <ele>107.3</ele>
        <time>2022-08-10T08:28:17Z</time>
      </trkpt>
      <trkpt lat="49.93173" lon="2.08074">
        <ele>107.3</ele>
        <time>2022-08-10T08:28:18Z</time>
      </trkpt>
      <trkpt lat="49.93172" lon="2.08076">
        <ele>107.3</ele>
        <time>2022-08-10T08:28:19Z</time>
      </trkpt>
      <trkpt lat="49.93172" lon="2.08077">
        <ele>107.4</ele>
        <time>2022-08-10T08:28:21Z</time>
      </trkpt>
      <trkpt lat="49.93171" lon="2.08078">
        <ele>107.4</ele>
        <time>2022-08-10T08:28:22Z</time>
      </trkpt>
      <trkpt lat="49.9317" lon="2.0808">
        <ele>107.4</ele>
        <time>2022-08-10T08:28:24Z</time>
      </trkpt>
      <trkpt lat="49.9317" lon="2.0808">
        <ele>107.4</ele>
        <time>2022-08-10T08:28:25Z</time>
      </trkpt>
      <trkpt lat="49.93169" lon="2.08081">
        <ele>107.4</ele>
        <time>2022-08-10T08:28:26Z</time>
      </trkpt>
      <trkpt lat="49.93169" lon="2.08082">
        <ele>107.4</ele>
        <time>2022-08-10T08:28:27Z</time>
      </trkpt>
      <trkpt lat="49.93168" lon="2.08082">
        <ele>107.4</ele>
        <time>2022-08-10T08:28:29Z</time>
      </trkpt>
      <trkpt lat="49.93168" lon="2.08082">
        <ele>107.5</ele>
        <time>2022-08-10T08:28:30Z</time>
      </trkpt>
      <trkpt lat="49.93168" lon="2.08083">
        <ele>107.5</ele>
        <time>2022-08-10T08:28:31Z</time>
      </trkpt>
      <trkpt lat="49.93167" lon="2.08084">
        <ele>107.5</ele>
        <time>2022-08-10T08:28:32Z</time>
      </trkpt>
      <trkpt lat="49.93167" lon="2.08085">
        <ele>107.5</ele>
        <time>2022-08-10T08:28:34Z</time>
      </trkpt>
      <trkpt lat="49.93167" lon="2.08086">
        <ele>107.5</ele>
        <time>2022-08-10T08:28:35Z</time>
      </trkpt>
      <trkpt lat="49.93166" lon="2.08087">
        <ele>107.5</ele>
        <time>2022-08-10T08:28:36Z</time>
      </trkpt>
      <trkpt lat="49.93165" lon="2.08088">
        <ele>107.5</ele>
        <time>2022-08-10T08:28:37Z</time>
      </trkpt>
      <trkpt lat="49.93165" lon="2.08089">
        <ele>107.6</ele>
        <time>2022-08-10T08:28:38Z</time>
      </trkpt>
      <trkpt lat="49.93164" lon="2.08091">
        <ele>107.6</ele>
        <time>2022-08-10T08:28:40Z</time>
      </trkpt>
      <trkpt lat="49.93163" lon="2.08093">
        <ele>107.6</ele>
        <time>2022-08-10T08:28:41Z</time>
      </trkpt>
      <trkpt lat="49.93162" lon="2.08094">
        <ele>107.6</ele>
        <time>2022-08-10T08:28:42Z</time>
      </trkpt>
      <trkpt lat="49.93161" lon="2.08096">
        <ele>107.7</ele>
        <time>2022-08-10T08:28:44Z</time>
      </trkpt>
      <trkpt lat="49.93161" lon="2.08097">
        <ele>107.7</ele>
        <time>2022-08-10T08:28:45Z</time>
      </trkpt>
      <trkpt lat="49.9316" lon="2.08099">
        <ele>107.7</ele>
        <time>2022-08-10T08:28:46Z</time>
      </trkpt>
      <trkpt lat="49.93159" lon="2.08102">
        <ele>107.8</ele>
        <time>2022-08-10T08:28:47Z</time>
      </trkpt>
      <trkpt lat="49.93158" lon="2.08103">
        <ele>107.8</ele>
        <time>2022-08-10T08:28:48Z</time>
      </trkpt>
      <trkpt lat="49.93158" lon="2.08104">
        <ele>107.8</ele>
        <time>2022-08-10T08:28:49Z</time>
      </trkpt>
      <trkpt lat="49.93157" lon="2.08106">
        <ele>107.8</ele>
        <time>2022-08-10T08:28:50Z</time>
      </trkpt>
      <trkpt lat="49.93156" lon="2.08107">
        <ele>107.9</ele>
        <time>2022-08-10T08:28:51Z</time>
      </trkpt>
      <trkpt lat="49.93155" lon="2.08109">
        <ele>107.9</ele>
        <time>2022-08-10T08:28:53Z</time>
      </trkpt>
      <trkpt lat="49.93154" lon="2.0811">
        <ele>107.9</ele>
        <time>2022-08-10T08:28:54Z</time>
      </trkpt>
      <trkpt lat="49.93154" lon="2.08111">
        <ele>107.9</ele>
        <time>2022-08-10T08:28:55Z</time>
      </trkpt>
      <trkpt lat="49.93153" lon="2.08113">
        <ele>108</ele>
        <time>2022-08-10T08:28:56Z</time>
      </trkpt>
      <trkpt lat="49.93152" lon="2.08115">
        <ele>108</ele>
        <time>2022-08-10T08:28:57Z</time>
      </trkpt>
      <trkpt lat="49.93151" lon="2.08116">
        <ele>108</ele>
        <time>2022-08-10T08:28:59Z</time>
      </trkpt>
      <trkpt lat="49.93151" lon="2.08118">
        <ele>108</ele>
        <time>2022-08-10T08:29:00Z</time>
      </trkpt>
      <trkpt lat="49.9315" lon="2.0812">
        <ele>108.1</ele>
        <time>2022-08-10T08:29:01Z</time>
      </trkpt>
      <trkpt lat="49.9315" lon="2.08121">
        <ele>108.1</ele>
        <time>2022-08-10T08:29:03Z</time>
      </trkpt>
      <trkpt lat="49.93149" lon="2.08122">
        <ele>108.1</ele>
        <time>2022-08-10T08:29:04Z</time>
      </trkpt>
      <trkpt lat="49.93149" lon="2.08124">
        <ele>108.1</ele>
        <time>2022-08-10T08:29:05Z</time>
      </trkpt>
      <trkpt lat="49.93148" lon="2.08126">
        <ele>108.2</ele>
        <time>2022-08-10T08:29:06Z</time>
      </trkpt>
      <trkpt lat="49.93148" lon="2.08127">
        <ele>108.2</ele>
        <time>2022-08-10T08:29:07Z</time>
      </trkpt>
      <trkpt lat="49.93148" lon="2.08128">
        <ele>108.2</ele>
        <time>2022-08-10T08:29:08Z</time>
      </trkpt>
      <trkpt lat="49.93147" lon="2.08129">
        <ele>108.2</ele>
        <time>2022-08-10T08:29:09Z</time>
      </trkpt>
      <trkpt lat="49.93147" lon="2.08131">
        <ele>108.3</ele>
        <time>2022-08-10T08:29:10Z</time>
      </trkpt>
      <trkpt lat="49.93146" lon="2.08133">
        <ele>108.3</ele>
        <time>2022-08-10T08:29:11Z</time>
      </trkpt>
      <trkpt lat="49.93146" lon="2.08133">
        <ele>108.3</ele>
        <time>2022-08-10T08:29:12Z</time>
      </trkpt>
      <trkpt lat="49.93145" lon="2.08135">
        <ele>108.3</ele>
        <time>2022-08-10T08:29:13Z</time>
      </trkpt>
      <trkpt lat="49.93145" lon="2.08136">
        <ele>108.3</ele>
        <time>2022-08-10T08:29:14Z</time>
      </trkpt>
      <trkpt lat="49.93144" lon="2.08136">
        <ele>108.4</ele>
        <time>2022-08-10T08:29:15Z</time>
      </trkpt>
      <trkpt lat="49.93142" lon="2.08137">
        <ele>108.4</ele>
        <time>2022-08-10T08:29:16Z</time>
      </trkpt>
      <trkpt lat="49.93142" lon="2.08137">
        <ele>108.4</ele>
        <time>2022-08-10T08:29:17Z</time>
      </trkpt>
      <trkpt lat="49.93141" lon="2.08138">
        <ele>108.4</ele>
        <time>2022-08-10T08:29:18Z</time>
      </trkpt>
      <trkpt lat="49.93141" lon="2.0814">
        <ele>108.5</ele>
        <time>2022-08-10T08:29:20Z</time>
      </trkpt>
      <trkpt lat="49.9314" lon="2.08141">
        <ele>108.5</ele>
        <time>2022-08-10T08:29:21Z</time>
      </trkpt>
      <trkpt lat="49.9314" lon="2.08142">
        <ele>108.5</ele>
        <time>2022-08-10T08:29:22Z</time>
      </trkpt>
      <trkpt lat="49.9314" lon="2.08143">
        <ele>108.5</ele>
        <time>2022-08-10T08:29:23Z</time>
      </trkpt>
      <trkpt lat="49.93139" lon="2.08144">
        <ele>108.5</ele>
        <time>2022-08-10T08:29:24Z</time>
      </trkpt>
      <trkpt lat="49.93139" lon="2.08146">
        <ele>108.6</ele>
        <time>2022-08-10T08:29:26Z</time>
      </trkpt>
      <trkpt lat="49.93138" lon="2.08148">
        <ele>108.6</ele>
        <time>2022-08-10T08:29:27Z</time>
      </trkpt>
      <trkpt lat="49.93138" lon="2.08149">
        <ele>108.6</ele>
        <time>2022-08-10T08:29:28Z</time>
      </trkpt>
      <trkpt lat="49.93138" lon="2.08151">
        <ele>108.6</ele>
        <time>2022-08-10T08:29:29Z</time>
      </trkpt>
      <trkpt lat="49.93137" lon="2.08152">
        <ele>108.6</ele>
        <time>2022-08-10T08:29:30Z</time>
      </trkpt>
      <trkpt lat="49.93136" lon="2.08155">
        <ele>108.7</ele>
        <time>2022-08-10T08:29:32Z</time>
      </trkpt>
      <trkpt lat="49.93136" lon="2.08156">
        <ele>108.7</ele>
        <time>2022-08-10T08:29:33Z</time>
      </trkpt>
      <trkpt lat="49.93135" lon="2.08157">
        <ele>108.7</ele>
        <time>2022-08-10T08:29:34Z</time>
      </trkpt>
      <trkpt lat="49.93135" lon="2.08159">
        <ele>108.8</ele>
        <time>2022-08-10T08:29:35Z</time>
      </trkpt>
      <trkpt lat="49.93134" lon="2.08161">
        <ele>108.8</ele>
        <time>2022-08-10T08:29:36Z</time>
      </trkpt>
      <trkpt lat="49.93133" lon="2.08162">
        <ele>108.8</ele>
        <time>2022-08-10T08:29:37Z</time>
      </trkpt>
      <trkpt lat="49.93133" lon="2.08163">
        <ele>108.8</ele>
        <time>2022-08-10T08:29:38Z</time>
      </trkpt>
      <trkpt lat="49.93132" lon="2.08165">
        <ele>108.9</ele>
        <time>2022-08-10T08:29:40Z</time>
      </trkpt>
      <trkpt lat="49.93131" lon="2.08167">
        <ele>108.9</ele>
        <time>2022-08-10T08:29:41Z</time>
      </trkpt>
      <trkpt lat="49.93131" lon="2.08168">
        <ele>108.9</ele>
        <time>2022-08-10T08:29:42Z</time>
      </trkpt>
      <trkpt lat="49.9313" lon="2.08169">
        <ele>109</ele>
        <time>2022-08-10T08:29:43Z</time>
      </trkpt>
      <trkpt lat="49.93129" lon="2.08171">
        <ele>109</ele>
        <time>2022-08-10T08:29:44Z</time>
      </trkpt>
      <trkpt lat="49.93129" lon="2.08172">
        <ele>109</ele>
        <time>2022-08-10T08:29:45Z</time>
      </trkpt>
      <trkpt lat="49.93128" lon="2.08174">
        <ele>109.1</ele>
        <time>2022-08-10T08:29:46Z</time>
      </trkpt>
      <trkpt lat="49.93127" lon="2.08175">
        <ele>109.1</ele>
        <time>2022-08-10T08:29:48Z</time>
      </trkpt>
      <trkpt lat="49.93126" lon="2.08175">
        <ele>109.1</ele>
        <time>2022-08-10T08:29:49Z</time>
      </trkpt>
      <trkpt lat="49.93125" lon="2.08175">
        <ele>109.1</ele>
        <time>2022-08-10T08:29:50Z</time>
      </trkpt>
      <trkpt lat="49.93124" lon="2.08175">
        <ele>109.2</ele>
        <time>2022-08-10T08:29:51Z</time>
      </trkpt>
      <trkpt lat="49.93123" lon="2.08175">
        <ele>109.2</ele>
        <time>2022-08-10T08:29:52Z</time>
      </trkpt>
      <trkpt lat="49.93122" lon="2.08176">
        <ele>109.2</ele>
        <time>2022-08-10T08:29:53Z</time>
      </trkpt>
      <trkpt lat="49.93121" lon="2.08177">
        <ele>109.3</ele>
        <time>2022-08-10T08:29:54Z</time>
      </trkpt>
      <trkpt lat="49.9312" lon="2.08178">
        <ele>109.3</ele>
        <time>2022-08-10T08:29:56Z</time>
      </trkpt>
      <trkpt lat="49.93119" lon="2.08179">
        <ele>109.3</ele>
        <time>2022-08-10T08:29:57Z</time>
      </trkpt>
      <trkpt lat="49.93119" lon="2.0818">
        <ele>109.4</ele>
        <time>2022-08-10T08:29:58Z</time>
      </trkpt>
      <trkpt lat="49.93119" lon="2.08181">
        <ele>109.4</ele>
        <time>2022-08-10T08:29:59Z</time>
      </trkpt>
      <trkpt lat="49.93118" lon="2.08182">
        <ele>109.4</ele>
        <time>2022-08-10T08:30:00Z</time>
      </trkpt>
      <trkpt lat="49.93118" lon="2.08184">
        <ele>109.5</ele>
        <time>2022-08-10T08:30:01Z</time>
      </trkpt>
      <trkpt lat="49.93118" lon="2.08186">
        <ele>109.5</ele>
        <time>2022-08-10T08:30:02Z</time>
      </trkpt>
      <trkpt lat="49.93117" lon="2.08189">
        <ele>109.5</ele>
        <time>2022-08-10T08:30:03Z</time>
      </trkpt>
      <trkpt lat="49.93117" lon="2.0819">
        <ele>109.6</ele>
        <time>2022-08-10T08:30:04Z</time>
      </trkpt>
      <trkpt lat="49.93117" lon="2.08192">
        <ele>109.6</ele>
        <time>2022-08-10T08:30:05Z</time>
      </trkpt>
      <trkpt lat="49.93117" lon="2.08194">
        <ele>109.7</ele>
        <time>2022-08-10T08:30:06Z</time>
      </trkpt>
      <trkpt lat="49.93116" lon="2.08196">
        <ele>109.7</ele>
        <time>2022-08-10T08:30:07Z</time>
      </trkpt>
      <trkpt lat="49.93116" lon="2.08199">
        <ele>109.8</ele>
        <time>2022-08-10T08:30:09Z</time>
      </trkpt>
      <trkpt lat="49.93115" lon="2.08201">
        <ele>109.8</ele>
        <time>2022-08-10T08:30:10Z</time>
      </trkpt>
      <trkpt lat="49.93115" lon="2.08202">
        <ele>109.8</ele>
        <time>2022-08-10T08:30:11Z</time>
      </trkpt>
      <trkpt lat="49.93115" lon="2.08204">
        <ele>109.9</ele>
        <time>2022-08-10T08:30:12Z</time>
      </trkpt>
      <trkpt lat="49.93114" lon="2.08206">
        <ele>109.9</ele>
        <time>2022-08-10T08:30:13Z</time>
      </trkpt>
      <trkpt lat="49.93114" lon="2.08208">
        <ele>109.9</ele>
        <time>2022-08-10T08:30:15Z</time>
      </trkpt>
      <trkpt lat="49.93113" lon="2.08209">
        <ele>110</ele>
        <time>2022-08-10T08:30:16Z</time>
      </trkpt>
      <trkpt lat="49.93113" lon="2.08211">
        <ele>110</ele>
        <time>2022-08-10T08:30:17Z</time>
      </trkpt>
      <trkpt lat="49.93113" lon="2.08212">
        <ele>110</ele>
        <time>2022-08-10T08:30:18Z</time>
      </trkpt>
      <trkpt lat="49.93112" lon="2.08214">
        <ele>110.1</ele>
        <time>2022-08-10T08:30:20Z</time>
      </trkpt>
      <trkpt lat="49.93112" lon="2.08216">
        <ele>110.1</ele>
        <time>2022-08-10T08:30:21Z</time>
      </trkpt>
      <trkpt lat="49.93112" lon="2.08217">
        <ele>110.1</ele>
        <time>2022-08-10T08:30:22Z</time>
      </trkpt>
      <trkpt lat="49.93113" lon="2.08218">
        <ele>110.1</ele>
        <time>2022-08-10T08:30:23Z</time>
      </trkpt>
      <trkpt lat="49.93114" lon="2.0822">
        <ele>110.2</ele>
        <time>2022-08-10T08:30:25Z</time>
      </trkpt>
      <trkpt lat="49.93115" lon="2.08221">
        <ele>110.2</ele>
        <time>2022-08-10T08:30:26Z</time>
      </trkpt>
      <trkpt lat="49.93116" lon="2.08222">
        <ele>110.3</ele>
        <time>2022-08-10T08:30:27Z</time>
      </trkpt>
      <trkpt lat="49.93117" lon="2.08222">
        <ele>110.3</ele>
        <time>2022-08-10T08:30:28Z</time>
      </trkpt>
      <trkpt lat="49.93118" lon="2.08223">
        <ele>110.3</ele>
        <time>2022-08-10T08:30:29Z</time>
      </trkpt>
      <trkpt lat="49.93119" lon="2.08224">
        <ele>110.3</ele>
        <time>2022-08-10T08:30:30Z</time>
      </trkpt>
      <trkpt lat="49.93119" lon="2.08227">
        <ele>110.4</ele>
        <time>2022-08-10T08:30:32Z</time>
      </trkpt>
      <trkpt lat="49.93118" lon="2.08228">
        <ele>110.4</ele>
        <time>2022-08-10T08:30:33Z</time>
      </trkpt>
      <trkpt lat="49.93118" lon="2.08229">
        <ele>110.4</ele>
        <time>2022-08-10T08:30:34Z</time>
      </trkpt>
      <trkpt lat="49.93117" lon="2.08229">
        <ele>110.4</ele>
        <time>2022-08-10T08:30:35Z</time>
      </trkpt>
      <trkpt lat="49.93117" lon="2.0823">
        <ele>110.5</ele>
        <time>2022-08-10T08:30:36Z</time>
      </trkpt>
      <trkpt lat="49.93116" lon="2.08231">
        <ele>110.5</ele>
        <time>2022-08-10T08:30:37Z</time>
      </trkpt>
      <trkpt lat="49.93116" lon="2.08232">
        <ele>110.5</ele>
        <time>2022-08-10T08:30:38Z</time>
      </trkpt>
      <trkpt lat="49.93115" lon="2.08233">
        <ele>110.5</ele>
        <time>2022-08-10T08:30:39Z</time>
      </trkpt>
      <trkpt lat="49.93115" lon="2.08234">
        <ele>110.5</ele>
        <time>2022-08-10T08:30:40Z</time>
      </trkpt>
      <trkpt lat="49.93114" lon="2.08235">
        <ele>110.6</ele>
        <time>2022-08-10T08:30:42Z</time>
      </trkpt>
      <trkpt lat="49.93113" lon="2.08234">
        <ele>110.6</ele>
        <time>2022-08-10T08:30:43Z</time>
      </trkpt>
      <trkpt lat="49.93112" lon="2.08233">
        <ele>110.6</ele>
        <time>2022-08-10T08:30:44Z</time>
      </trkpt>
      <trkpt lat="49.93111" lon="2.08232">
        <ele>110.6</ele>
        <time>2022-08-10T08:30:45Z</time>
      </trkpt>
      <trkpt lat="49.93111" lon="2.08231">
        <ele>110.7</ele>
        <time>2022-08-10T08:30:46Z</time>
      </trkpt>
      <trkpt lat="49.9311" lon="2.08231">
        <ele>110.7</ele>
        <time>2022-08-10T08:30:47Z</time>
      </trkpt>
      <trkpt lat="49.93109" lon="2.08232">
        <ele>110.7</ele>
        <time>2022-08-10T08:30:48Z</time>
      </trkpt>
      <trkpt lat="49.93108" lon="2.08233">
        <ele>110.8</ele>
        <time>2022-08-10T08:30:49Z</time>
      </trkpt>
      <trkpt lat="49.93107" lon="2.08233">
        <ele>110.8</ele>
        <time>2022-08-10T08:30:50Z</time>
      </trkpt>
      <trkpt lat="49.93106" lon="2.08233">
        <ele>110.8</ele>
        <time>2022-08-10T08:30:51Z</time>
      </trkpt>
      <trkpt lat="49.93105" lon="2.08232">
        <ele>110.8</ele>
        <time>2022-08-10T08:30:52Z</time>
      </trkpt>
      <trkpt lat="49.93105" lon="2.08231">
        <ele>110.9</ele>
        <time>2022-08-10T08:30:53Z</time>
      </trkpt>
      <trkpt lat="49.93105" lon="2.0823">
        <ele>110.9</ele>
        <time>2022-08-10T08:30:54Z</time>
      </trkpt>
      <trkpt lat="49.93104" lon="2.0823">
        <ele>110.9</ele>
        <time>2022-08-10T08:30:55Z</time>
      </trkpt>
      <trkpt lat="49.93104" lon="2.08229">
        <ele>110.9</ele>
        <time>2022-08-10T08:30:56Z</time>
      </trkpt>
      <trkpt lat="49.93104" lon="2.08228">
        <ele>110.9</ele>
        <time>2022-08-10T08:30:57Z</time>
      </trkpt>
      <trkpt lat="49.93104" lon="2.08228">
        <ele>110.9</ele>
        <time>2022-08-10T08:30:58Z</time>
      </trkpt>
      <trkpt lat="49.93105" lon="2.08228">
        <ele>110.9</ele>
        <time>2022-08-10T08:30:59Z</time>
      </trkpt>
      <trkpt lat="49.93105" lon="2.08227">
        <ele>110.9</ele>
        <time>2022-08-10T08:31:00Z</time>
      </trkpt>
      <trkpt lat="49.93105" lon="2.08227">
        <ele>111</ele>
        <time>2022-08-10T08:31:01Z</time>
      </trkpt>
      <trkpt lat="49.93106" lon="2.08226">
        <ele>111</ele>
        <time>2022-08-10T08:31:03Z</time>
      </trkpt>
      <trkpt lat="49.93106" lon="2.08226">
        <ele>111</ele>
        <time>2022-08-10T08:31:04Z</time>
      </trkpt>
      <trkpt lat="49.93107" lon="2.08227">
        <ele>111</ele>
        <time>2022-08-10T08:31:05Z</time>
      </trkpt>
      <trkpt lat="49.93107" lon="2.08227">
        <ele>111</ele>
        <time>2022-08-10T08:31:06Z</time>
      </trkpt>
      <trkpt lat="49.93107" lon="2.08227">
        <ele>111</ele>
        <time>2022-08-10T08:31:07Z</time>
      </trkpt>
      <trkpt lat="49.93107" lon="2.08227">
        <ele>111</ele>
        <time>2022-08-10T08:31:08Z</time>
      </trkpt>
      <trkpt lat="49.93108" lon="2.08227">
        <ele>111</ele>
        <time>2022-08-10T08:31:09Z</time>
      </trkpt>
      <trkpt lat="49.93108" lon="2.08228">
        <ele>111</ele>
        <time>2022-08-10T08:31:10Z</time>
      </trkpt>
      <trkpt lat="49.93108" lon="2.08229">
        <ele>111.1</ele>
        <time>2022-08-10T08:31:12Z</time>
      </trkpt>
      <trkpt lat="49.93108" lon="2.0823">
        <ele>111.1</ele>
        <time>2022-08-10T08:31:13Z</time>
      </trkpt>
      <trkpt lat="49.93108" lon="2.08231">
        <ele>111.1</ele>
        <time>2022-08-10T08:31:14Z</time>
      </trkpt>
      <trkpt lat="49.93108" lon="2.08232">
        <ele>111.1</ele>
        <time>2022-08-10T08:31:15Z</time>
      </trkpt>
      <trkpt lat="49.93107" lon="2.08234">
        <ele>111.2</ele>
        <time>2022-08-10T08:31:16Z</time>
      </trkpt>
      <trkpt lat="49.93106" lon="2.08236">
        <ele>111.2</ele>
        <time>2022-08-10T08:31:18Z</time>
      </trkpt>
      <trkpt lat="49.93106" lon="2.08236">
        <ele>111.2</ele>
        <time>2022-08-10T08:31:19Z</time>
      </trkpt>
      <trkpt lat="49.93105" lon="2.08237">
        <ele>111.3</ele>
        <time>2022-08-10T08:31:20Z</time>
      </trkpt>
      <trkpt lat="49.93105" lon="2.08238">
        <ele>111.3</ele>
        <time>2022-08-10T08:31:21Z</time>
      </trkpt>
      <trkpt lat="49.93105" lon="2.08239">
        <ele>111.3</ele>
        <time>2022-08-10T08:31:22Z</time>
      </trkpt>
      <trkpt lat="49.93105" lon="2.08239">
        <ele>111.3</ele>
        <time>2022-08-10T08:31:23Z</time>
      </trkpt>
      <trkpt lat="49.93104" lon="2.08239">
        <ele>111.3</ele>
        <time>2022-08-10T08:31:24Z</time>
      </trkpt>
      <trkpt lat="49.93104" lon="2.08239">
        <ele>111.3</ele>
        <time>2022-08-10T08:31:25Z</time>
      </trkpt>
      <trkpt lat="49.93104" lon="2.08238">
        <ele>111.3</ele>
        <time>2022-08-10T08:31:26Z</time>
      </trkpt>
      <trkpt lat="49.93104" lon="2.08238">
        <ele>111.3</ele>
        <time>2022-08-10T08:31:27Z</time>
      </trkpt>
      <trkpt lat="49.93104" lon="2.08238">
        <ele>111.3</ele>
        <time>2022-08-10T08:31:28Z</time>
      </trkpt>
      <trkpt lat="49.93104" lon="2.08238">
        <ele>111.3</ele>
        <time>2022-08-10T08:31:29Z</time>
      </trkpt>
      <trkpt lat="49.93104" lon="2.08239">
        <ele>111.3</ele>
        <time>2022-08-10T08:31:30Z</time>
      </trkpt>
      <trkpt lat="49.93104" lon="2.08241">
        <ele>111.4</ele>
        <time>2022-08-10T08:31:32Z</time>
      </trkpt>
      <trkpt lat="49.93104" lon="2.08241">
        <ele>111.4</ele>
        <time>2022-08-10T08:31:33Z</time>
      </trkpt>
      <trkpt lat="49.93104" lon="2.08242">
        <ele>111.4</ele>
        <time>2022-08-10T08:31:34Z</time>
      </trkpt>
      <trkpt lat="49.93104" lon="2.08242">
        <ele>111.4</ele>
        <time>2022-08-10T08:31:35Z</time>
      </trkpt>
      <trkpt lat="49.93104" lon="2.08242">
        <ele>111.4</ele>
        <time>2022-08-10T08:31:36Z</time>
      </trkpt>
      <trkpt lat="49.93104" lon="2.08242">
        <ele>111.4</ele>
        <time>2022-08-10T08:31:37Z</time>
      </trkpt>
      <trkpt lat="49.93104" lon="2.08242">
        <ele>111.4</ele>
        <time>2022-08-10T08:31:38Z</time>
      </trkpt>
      <trkpt lat="49.93104" lon="2.08243">
        <ele>111.4</ele>
        <time>2022-08-10T08:31:39Z</time>
      </trkpt>
      <trkpt lat="49.93104" lon="2.08244">
        <ele>111.5</ele>
        <time>2022-08-10T08:31:40Z</time>
      </trkpt>
      <trkpt lat="49.93104" lon="2.08245">
        <ele>111.5</ele>
        <time>2022-08-10T08:31:41Z</time>
      </trkpt>
      <trkpt lat="49.93104" lon="2.08246">
        <ele>111.5</ele>
        <time>2022-08-10T08:31:43Z</time>
      </trkpt>
      <trkpt lat="49.93104" lon="2.08247">
        <ele>111.5</ele>
        <time>2022-08-10T08:31:44Z</time>
      </trkpt>
      <trkpt lat="49.93103" lon="2.08248">
        <ele>111.5</ele>
        <time>2022-08-10T08:31:45Z</time>
      </trkpt>
      <trkpt lat="49.93102" lon="2.0825">
        <ele>111.6</ele>
        <time>2022-08-10T08:31:46Z</time>
      </trkpt>
      <trkpt lat="49.93101" lon="2.08251">
        <ele>111.6</ele>
        <time>2022-08-10T08:31:47Z</time>
      </trkpt>
      <trkpt lat="49.93101" lon="2.08253">
        <ele>111.6</ele>
        <time>2022-08-10T08:31:49Z</time>
      </trkpt>
      <trkpt lat="49.931" lon="2.08254">
        <ele>111.7</ele>
        <time>2022-08-10T08:31:50Z</time>
      </trkpt>
      <trkpt lat="49.931" lon="2.08255">
        <ele>111.7</ele>
        <time>2022-08-10T08:31:51Z</time>
      </trkpt>
      <trkpt lat="49.931" lon="2.08256">
        <ele>111.7</ele>
        <time>2022-08-10T08:31:52Z</time>
      </trkpt>
      <trkpt lat="49.931" lon="2.08257">
        <ele>111.7</ele>
        <time>2022-08-10T08:31:53Z</time>
      </trkpt>
      <trkpt lat="49.931" lon="2.08257">
        <ele>111.7</ele>
        <time>2022-08-10T08:31:54Z</time>
      </trkpt>
      <trkpt lat="49.931" lon="2.08258">
        <ele>111.7</ele>
        <time>2022-08-10T08:31:55Z</time>
      </trkpt>
      <trkpt lat="49.931" lon="2.08261">
        <ele>111.8</ele>
        <time>2022-08-10T08:31:57Z</time>
      </trkpt>
      <trkpt lat="49.93099" lon="2.08263">
        <ele>111.8</ele>
        <time>2022-08-10T08:31:58Z</time>
      </trkpt>
      <trkpt lat="49.93099" lon="2.08263">
        <ele>111.8</ele>
        <time>2022-08-10T08:31:59Z</time>
      </trkpt>
      <trkpt lat="49.93098" lon="2.08264">
        <ele>111.8</ele>
        <time>2022-08-10T08:32:01Z</time>
      </trkpt>
      <trkpt lat="49.93097" lon="2.08264">
        <ele>111.9</ele>
        <time>2022-08-10T08:32:02Z</time>
      </trkpt>
      <trkpt lat="49.93097" lon="2.08265">
        <ele>111.9</ele>
        <time>2022-08-10T08:32:03Z</time>
      </trkpt>
      <trkpt lat="49.93096" lon="2.08267">
        <ele>111.9</ele>
        <time>2022-08-10T08:32:05Z</time>
      </trkpt>
      <trkpt lat="49.93096" lon="2.08268">
        <ele>111.9</ele>
        <time>2022-08-10T08:32:06Z</time>
      </trkpt>
      <trkpt lat="49.93096" lon="2.0827">
        <ele>112</ele>
        <time>2022-08-10T08:32:07Z</time>
      </trkpt>
      <trkpt lat="49.93096" lon="2.08271">
        <ele>112</ele>
        <time>2022-08-10T08:32:08Z</time>
      </trkpt>
      <trkpt lat="49.93096" lon="2.08272">
        <ele>112</ele>
        <time>2022-08-10T08:32:10Z</time>
      </trkpt>
      <trkpt lat="49.93096" lon="2.08274">
        <ele>112</ele>
        <time>2022-08-10T08:32:11Z</time>
      </trkpt>
      <trkpt lat="49.93095" lon="2.08274">
        <ele>112</ele>
        <time>2022-08-10T08:32:12Z</time>
      </trkpt>
      <trkpt lat="49.93095" lon="2.08275">
        <ele>112</ele>
        <time>2022-08-10T08:32:13Z</time>
      </trkpt>
      <trkpt lat="49.93095" lon="2.08276">
        <ele>112.1</ele>
        <time>2022-08-10T08:32:14Z</time>
      </trkpt>
      <trkpt lat="49.93094" lon="2.08277">
        <ele>112.1</ele>
        <time>2022-08-10T08:32:15Z</time>
      </trkpt>
      <trkpt lat="49.93093" lon="2.08278">
        <ele>112.1</ele>
        <time>2022-08-10T08:32:16Z</time>
      </trkpt>
      <trkpt lat="49.93093" lon="2.08278">
        <ele>112.1</ele>
        <time>2022-08-10T08:32:17Z</time>
      </trkpt>
      <trkpt lat="49.93093" lon="2.08279">
        <ele>112.1</ele>
        <time>2022-08-10T08:32:18Z</time>
      </trkpt>
      <trkpt lat="49.93093" lon="2.08281">
        <ele>112.1</ele>
        <time>2022-08-10T08:32:19Z</time>
      </trkpt>
      <trkpt lat="49.93093" lon="2.08282">
        <ele>112.2</ele>
        <time>2022-08-10T08:32:20Z</time>
      </trkpt>
      <trkpt lat="49.93093" lon="2.08282">
        <ele>112.2</ele>
        <time>2022-08-10T08:32:22Z</time>
      </trkpt>
      <trkpt lat="49.93092" lon="2.08283">
        <ele>112.2</ele>
        <time>2022-08-10T08:32:23Z</time>
      </trkpt>
      <trkpt lat="49.93091" lon="2.08283">
        <ele>112.2</ele>
        <time>2022-08-10T08:32:24Z</time>
      </trkpt>
      <trkpt lat="49.93091" lon="2.08283">
        <ele>112.2</ele>
        <time>2022-08-10T08:32:25Z</time>
      </trkpt>
      <trkpt lat="49.9309" lon="2.08284">
        <ele>112.2</ele>
        <time>2022-08-10T08:32:26Z</time>
      </trkpt>
      <trkpt lat="49.93089" lon="2.08284">
        <ele>112.3</ele>
        <time>2022-08-10T08:32:27Z</time>
      </trkpt>
      <trkpt lat="49.93088" lon="2.08285">
        <ele>112.3</ele>
        <time>2022-08-10T08:32:28Z</time>
      </trkpt>
      <trkpt lat="49.93088" lon="2.08287">
        <ele>112.3</ele>
        <time>2022-08-10T08:32:29Z</time>
      </trkpt>
      <trkpt lat="49.93087" lon="2.08288">
        <ele>112.3</ele>
        <time>2022-08-10T08:32:30Z</time>
      </trkpt>
      <trkpt lat="49.93086" lon="2.08288">
        <ele>112.3</ele>
        <time>2022-08-10T08:32:31Z</time>
      </trkpt>
      <trkpt lat="49.93086" lon="2.08288">
        <ele>112.4</ele>
        <time>2022-08-10T08:32:32Z</time>
      </trkpt>
      <trkpt lat="49.93085" lon="2.08289">
        <ele>112.4</ele>
        <time>2022-08-10T08:32:33Z</time>
      </trkpt>
      <trkpt lat="49.93085" lon="2.08291">
        <ele>112.4</ele>
        <time>2022-08-10T08:32:34Z</time>
      </trkpt>
      <trkpt lat="49.93085" lon="2.08294">
        <ele>112.4</ele>
        <time>2022-08-10T08:32:35Z</time>
      </trkpt>
      <trkpt lat="49.93085" lon="2.08297">
        <ele>112.5</ele>
        <time>2022-08-10T08:32:36Z</time>
      </trkpt>
      <trkpt lat="49.93084" lon="2.08299">
        <ele>112.5</ele>
        <time>2022-08-10T08:32:38Z</time>
      </trkpt>
      <trkpt lat="49.93084" lon="2.08301">
        <ele>112.6</ele>
        <time>2022-08-10T08:32:39Z</time>
      </trkpt>
      <trkpt lat="49.93083" lon="2.08304">
        <ele>112.6</ele>
        <time>2022-08-10T08:32:40Z</time>
      </trkpt>
      <trkpt lat="49.93082" lon="2.08307">
        <ele>112.6</ele>
        <time>2022-08-10T08:32:41Z</time>
      </trkpt>
      <trkpt lat="49.93082" lon="2.08309">
        <ele>112.7</ele>
        <time>2022-08-10T08:32:42Z</time>
      </trkpt>
      <trkpt lat="49.93081" lon="2.0831">
        <ele>112.7</ele>
        <time>2022-08-10T08:32:43Z</time>
      </trkpt>
      <trkpt lat="49.93081" lon="2.08312">
        <ele>112.7</ele>
        <time>2022-08-10T08:32:44Z</time>
      </trkpt>
      <trkpt lat="49.9308" lon="2.08313">
        <ele>112.7</ele>
        <time>2022-08-10T08:32:45Z</time>
      </trkpt>
      <trkpt lat="49.9308" lon="2.08314">
        <ele>112.8</ele>
        <time>2022-08-10T08:32:46Z</time>
      </trkpt>
      <trkpt lat="49.93079" lon="2.08315">
        <ele>112.8</ele>
        <time>2022-08-10T08:32:47Z</time>
      </trkpt>
      <trkpt lat="49.93079" lon="2.08316">
        <ele>112.8</ele>
        <time>2022-08-10T08:32:48Z</time>
      </trkpt>
      <trkpt lat="49.93078" lon="2.08318">
        <ele>112.8</ele>
        <time>2022-08-10T08:32:50Z</time>
      </trkpt>
      <trkpt lat="49.93077" lon="2.08319">
        <ele>112.9</ele>
        <time>2022-08-10T08:32:51Z</time>
      </trkpt>
      <trkpt lat="49.93077" lon="2.08319">
        <ele>112.9</ele>
        <time>2022-08-10T08:32:52Z</time>
      </trkpt>
      <trkpt lat="49.93076" lon="2.0832">
        <ele>112.9</ele>
        <time>2022-08-10T08:32:53Z</time>
      </trkpt>
      <trkpt lat="49.93077" lon="2.0832">
        <ele>112.9</ele>
        <time>2022-08-10T08:32:54Z</time>
      </trkpt>
      <trkpt lat="49.93077" lon="2.08321">
        <ele>112.9</ele>
        <time>2022-08-10T08:32:55Z</time>
      </trkpt>
      <trkpt lat="49.93077" lon="2.08322">
        <ele>112.9</ele>
        <time>2022-08-10T08:32:56Z</time>
      </trkpt>
      <trkpt lat="49.93077" lon="2.08325">
        <ele>113</ele>
        <time>2022-08-10T08:32:57Z</time>
      </trkpt>
      <trkpt lat="49.93077" lon="2.08326">
        <ele>113</ele>
        <time>2022-08-10T08:32:58Z</time>
      </trkpt>
      <trkpt lat="49.93077" lon="2.08328">
        <ele>113</ele>
        <time>2022-08-10T08:32:59Z</time>
      </trkpt>
      <trkpt lat="49.93076" lon="2.08328">
        <ele>113</ele>
        <time>2022-08-10T08:33:01Z</time>
      </trkpt>
      <trkpt lat="49.93076" lon="2.08329">
        <ele>113</ele>
        <time>2022-08-10T08:33:02Z</time>
      </trkpt>
      <trkpt lat="49.93075" lon="2.0833">
        <ele>113.1</ele>
        <time>2022-08-10T08:33:03Z</time>
      </trkpt>
      <trkpt lat="49.93074" lon="2.08331">
        <ele>113.1</ele>
        <time>2022-08-10T08:33:04Z</time>
      </trkpt>
      <trkpt lat="49.93073" lon="2.08332">
        <ele>113.1</ele>
        <time>2022-08-10T08:33:05Z</time>
      </trkpt>
      <trkpt lat="49.93072" lon="2.08332">
        <ele>113.1</ele>
        <time>2022-08-10T08:33:06Z</time>
      </trkpt>
      <trkpt lat="49.93071" lon="2.08333">
        <ele>113.2</ele>
        <time>2022-08-10T08:33:07Z</time>
      </trkpt>
      <trkpt lat="49.9307" lon="2.08333">
        <ele>113.2</ele>
        <time>2022-08-10T08:33:08Z</time>
      </trkpt>
      <trkpt lat="49.93069" lon="2.08335">
        <ele>113.2</ele>
        <time>2022-08-10T08:33:10Z</time>
      </trkpt>
      <trkpt lat="49.93068" lon="2.08336">
        <ele>113.2</ele>
        <time>2022-08-10T08:33:11Z</time>
      </trkpt>
      <trkpt lat="49.93068" lon="2.08336">
        <ele>113.2</ele>
        <time>2022-08-10T08:33:12Z</time>
      </trkpt>
      <trkpt lat="49.93067" lon="2.08337">
        <ele>113.3</ele>
        <time>2022-08-10T08:33:13Z</time>
      </trkpt>
      <trkpt lat="49.93066" lon="2.08338">
        <ele>113.3</ele>
        <time>2022-08-10T08:33:14Z</time>
      </trkpt>
      <trkpt lat="49.93065" lon="2.08338">
        <ele>113.3</ele>
        <time>2022-08-10T08:33:16Z</time>
      </trkpt>
      <trkpt lat="49.93065" lon="2.08339">
        <ele>113.3</ele>
        <time>2022-08-10T08:33:17Z</time>
      </trkpt>
      <trkpt lat="49.93065" lon="2.0834">
        <ele>113.3</ele>
        <time>2022-08-10T08:33:18Z</time>
      </trkpt>
      <trkpt lat="49.93065" lon="2.08341">
        <ele>113.4</ele>
        <time>2022-08-10T08:33:19Z</time>
      </trkpt>
      <trkpt lat="49.93066" lon="2.08342">
        <ele>113.4</ele>
        <time>2022-08-10T08:33:20Z</time>
      </trkpt>
      <trkpt lat="49.93066" lon="2.08343">
        <ele>113.4</ele>
        <time>2022-08-10T08:33:21Z</time>
      </trkpt>
      <trkpt lat="49.93065" lon="2.08344">
        <ele>113.4</ele>
        <time>2022-08-10T08:33:22Z</time>
      </trkpt>
      <trkpt lat="49.93065" lon="2.08345">
        <ele>113.4</ele>
        <time>2022-08-10T08:33:24Z</time>
      </trkpt>
      <trkpt lat="49.93064" lon="2.08346">
        <ele>113.4</ele>
        <time>2022-08-10T08:33:25Z</time>
      </trkpt>
      <trkpt lat="49.93063" lon="2.08346">
        <ele>113.4</ele>
        <time>2022-08-10T08:33:26Z</time>
      </trkpt>
      <trkpt lat="49.93063" lon="2.08347">
        <ele>113.5</ele>
        <time>2022-08-10T08:33:27Z</time>
      </trkpt>
      <trkpt lat="49.93062" lon="2.08347">
        <ele>113.5</ele>
        <time>2022-08-10T08:33:28Z</time>
      </trkpt>
      <trkpt lat="49.93061" lon="2.08347">
        <ele>113.5</ele>
        <time>2022-08-10T08:33:29Z</time>
      </trkpt>
      <trkpt lat="49.93061" lon="2.08349">
        <ele>113.5</ele>
        <time>2022-08-10T08:33:30Z</time>
      </trkpt>
      <trkpt lat="49.9306" lon="2.0835">
        <ele>113.5</ele>
        <time>2022-08-10T08:33:31Z</time>
      </trkpt>
      <trkpt lat="49.9306" lon="2.0835">
        <ele>113.5</ele>
        <time>2022-08-10T08:33:33Z</time>
      </trkpt>
      <trkpt lat="49.93059" lon="2.0835">
        <ele>113.6</ele>
        <time>2022-08-10T08:33:34Z</time>
      </trkpt>
      <trkpt lat="49.93058" lon="2.08348">
        <ele>113.6</ele>
        <time>2022-08-10T08:33:35Z</time>
      </trkpt>
      <trkpt lat="49.93057" lon="2.08349">
        <ele>113.6</ele>
        <time>2022-08-10T08:33:37Z</time>
      </trkpt>
      <trkpt lat="49.93057" lon="2.0835">
        <ele>113.6</ele>
        <time>2022-08-10T08:33:38Z</time>
      </trkpt>
      <trkpt lat="49.93056" lon="2.08351">
        <ele>113.6</ele>
        <time>2022-08-10T08:33:39Z</time>
      </trkpt>
      <trkpt lat="49.93056" lon="2.08353">
        <ele>113.6</ele>
        <time>2022-08-10T08:33:40Z</time>
      </trkpt>
      <trkpt lat="49.93055" lon="2.08356">
        <ele>113.7</ele>
        <time>2022-08-10T08:33:42Z</time>
      </trkpt>
      <trkpt lat="49.93055" lon="2.08357">
        <ele>113.7</ele>
        <time>2022-08-10T08:33:43Z</time>
      </trkpt>
      <trkpt lat="49.93054" lon="2.08358">
        <ele>113.7</ele>
        <time>2022-08-10T08:33:44Z</time>
      </trkpt>
      <trkpt lat="49.93052" lon="2.08359">
        <ele>113.7</ele>
        <time>2022-08-10T08:33:45Z</time>
      </trkpt>
      <trkpt lat="49.93051" lon="2.0836">
        <ele>113.8</ele>
        <time>2022-08-10T08:33:47Z</time>
      </trkpt>
      <trkpt lat="49.93049" lon="2.08361">
        <ele>113.8</ele>
        <time>2022-08-10T08:33:48Z</time>
      </trkpt>
      <trkpt lat="49.93047" lon="2.08362">
        <ele>113.8</ele>
        <time>2022-08-10T08:33:49Z</time>
      </trkpt>
      <trkpt lat="49.93046" lon="2.08364">
        <ele>113.8</ele>
        <time>2022-08-10T08:33:50Z</time>
      </trkpt>
      <trkpt lat="49.93044" lon="2.08365">
        <ele>113.9</ele>
        <time>2022-08-10T08:33:52Z</time>
      </trkpt>
      <trkpt lat="49.93041" lon="2.08366">
        <ele>113.9</ele>
        <time>2022-08-10T08:33:53Z</time>
      </trkpt>
      <trkpt lat="49.9304" lon="2.08366">
        <ele>113.9</ele>
        <time>2022-08-10T08:33:54Z</time>
      </trkpt>
      <trkpt lat="49.93039" lon="2.08367">
        <ele>113.9</ele>
        <time>2022-08-10T08:33:56Z</time>
      </trkpt>
      <trkpt lat="49.93038" lon="2.08368">
        <ele>113.9</ele>
        <time>2022-08-10T08:33:57Z</time>
      </trkpt>
      <trkpt lat="49.93037" lon="2.08369">
        <ele>113.8</ele>
        <time>2022-08-10T08:33:58Z</time>
      </trkpt>
      <trkpt lat="49.93036" lon="2.08372">
        <ele>113.8</ele>
        <time>2022-08-10T08:33:59Z</time>
      </trkpt>
      <trkpt lat="49.93035" lon="2.08373">
        <ele>113.8</ele>
        <time>2022-08-10T08:34:00Z</time>
      </trkpt>
      <trkpt lat="49.93034" lon="2.08375">
        <ele>113.8</ele>
        <time>2022-08-10T08:34:01Z</time>
      </trkpt>
      <trkpt lat="49.93033" lon="2.08376">
        <ele>113.8</ele>
        <time>2022-08-10T08:34:02Z</time>
      </trkpt>
      <trkpt lat="49.93032" lon="2.08378">
        <ele>113.8</ele>
        <time>2022-08-10T08:34:04Z</time>
      </trkpt>
      <trkpt lat="49.93031" lon="2.08379">
        <ele>113.7</ele>
        <time>2022-08-10T08:34:05Z</time>
      </trkpt>
      <trkpt lat="49.9303" lon="2.0838">
        <ele>113.7</ele>
        <time>2022-08-10T08:34:06Z</time>
      </trkpt>
      <trkpt lat="49.93028" lon="2.08381">
        <ele>113.7</ele>
        <time>2022-08-10T08:34:08Z</time>
      </trkpt>
      <trkpt lat="49.93027" lon="2.08382">
        <ele>113.7</ele>
        <time>2022-08-10T08:34:09Z</time>
      </trkpt>
      <trkpt lat="49.93026" lon="2.08382">
        <ele>113.7</ele>
        <time>2022-08-10T08:34:10Z</time>
      </trkpt>
      <trkpt lat="49.93026" lon="2.08383">
        <ele>113.7</ele>
        <time>2022-08-10T08:34:11Z</time>
      </trkpt>
      <trkpt lat="49.93025" lon="2.08385">
        <ele>113.7</ele>
        <time>2022-08-10T08:34:13Z</time>
      </trkpt>
      <trkpt lat="49.93024" lon="2.08386">
        <ele>113.7</ele>
        <time>2022-08-10T08:34:14Z</time>
      </trkpt>
      <trkpt lat="49.93023" lon="2.08387">
        <ele>113.7</ele>
        <time>2022-08-10T08:34:15Z</time>
      </trkpt>
      <trkpt lat="49.93021" lon="2.08389">
        <ele>113.6</ele>
        <time>2022-08-10T08:34:16Z</time>
      </trkpt>
      <trkpt lat="49.9302" lon="2.08391">
        <ele>113.6</ele>
        <time>2022-08-10T08:34:17Z</time>
      </trkpt>
      <trkpt lat="49.93019" lon="2.08392">
        <ele>113.6</ele>
        <time>2022-08-10T08:34:19Z</time>
      </trkpt>
      <trkpt lat="49.93018" lon="2.08394">
        <ele>113.6</ele>
        <time>2022-08-10T08:34:20Z</time>
      </trkpt>
      <trkpt lat="49.93017" lon="2.08396">
        <ele>113.6</ele>
        <time>2022-08-10T08:34:21Z</time>
      </trkpt>
      <trkpt lat="49.93016" lon="2.08399">
        <ele>113.6</ele>
        <time>2022-08-10T08:34:23Z</time>
      </trkpt>
      <trkpt lat="49.93015" lon="2.084">
        <ele>113.5</ele>
        <time>2022-08-10T08:34:24Z</time>
      </trkpt>
      <trkpt lat="49.93014" lon="2.08401">
        <ele>113.5</ele>
        <time>2022-08-10T08:34:25Z</time>
      </trkpt>
      <trkpt lat="49.93013" lon="2.08402">
        <ele>113.5</ele>
        <time>2022-08-10T08:34:27Z</time>
      </trkpt>
      <trkpt lat="49.93013" lon="2.08402">
        <ele>113.5</ele>
        <time>2022-08-10T08:34:28Z</time>
      </trkpt>
      <trkpt lat="49.93012" lon="2.08403">
        <ele>113.5</ele>
        <time>2022-08-10T08:34:29Z</time>
      </trkpt>
      <trkpt lat="49.9301" lon="2.08405">
        <ele>113.5</ele>
        <time>2022-08-10T08:34:30Z</time>
      </trkpt>
      <trkpt lat="49.9301" lon="2.08405">
        <ele>113.5</ele>
        <time>2022-08-10T08:34:32Z</time>
      </trkpt>
      <trkpt lat="49.93009" lon="2.08406">
        <ele>113.5</ele>
        <time>2022-08-10T08:34:33Z</time>
      </trkpt>
      <trkpt lat="49.93008" lon="2.08407">
        <ele>113.5</ele>
        <time>2022-08-10T08:34:34Z</time>
      </trkpt>
      <trkpt lat="49.93008" lon="2.08408">
        <ele>113.5</ele>
        <time>2022-08-10T08:34:35Z</time>
      </trkpt>
      <trkpt lat="49.93007" lon="2.08409">
        <ele>113.4</ele>
        <time>2022-08-10T08:34:36Z</time>
      </trkpt>
      <trkpt lat="49.93006" lon="2.0841">
        <ele>113.4</ele>
        <time>2022-08-10T08:34:37Z</time>
      </trkpt>
      <trkpt lat="49.93005" lon="2.08411">
        <ele>113.4</ele>
        <time>2022-08-10T08:34:38Z</time>
      </trkpt>
      <trkpt lat="49.93004" lon="2.08412">
        <ele>113.4</ele>
        <time>2022-08-10T08:34:39Z</time>
      </trkpt>
      <trkpt lat="49.93003" lon="2.08413">
        <ele>113.4</ele>
        <time>2022-08-10T08:34:41Z</time>
      </trkpt>
      <trkpt lat="49.93003" lon="2.08413">
        <ele>113.4</ele>
        <time>2022-08-10T08:34:42Z</time>
      </trkpt>
      <trkpt lat="49.93002" lon="2.08413">
        <ele>113.4</ele>
        <time>2022-08-10T08:34:43Z</time>
      </trkpt>
      <trkpt lat="49.93002" lon="2.08412">
        <ele>113.4</ele>
        <time>2022-08-10T08:34:44Z</time>
      </trkpt>
      <trkpt lat="49.93002" lon="2.08411">
        <ele>113.4</ele>
        <time>2022-08-10T08:34:45Z</time>
      </trkpt>
      <trkpt lat="49.93001" lon="2.0841">
        <ele>113.4</ele>
        <time>2022-08-10T08:34:46Z</time>
      </trkpt>
      <trkpt lat="49.93001" lon="2.08411">
        <ele>113.4</ele>
        <time>2022-08-10T08:34:48Z</time>
      </trkpt>
      <trkpt lat="49.93001" lon="2.08412">
        <ele>113.3</ele>
        <time>2022-08-10T08:34:49Z</time>
      </trkpt>
      <trkpt lat="49.93" lon="2.08412">
        <ele>113.3</ele>
        <time>2022-08-10T08:34:50Z</time>
      </trkpt>
      <trkpt lat="49.92999" lon="2.08414">
        <ele>113.3</ele>
        <time>2022-08-10T08:34:51Z</time>
      </trkpt>
      <trkpt lat="49.92999" lon="2.08414">
        <ele>113.3</ele>
        <time>2022-08-10T08:34:52Z</time>
      </trkpt>
      <trkpt lat="49.92998" lon="2.08415">
        <ele>113.3</ele>
        <time>2022-08-10T08:34:53Z</time>
      </trkpt>
      <trkpt lat="49.92998" lon="2.08417">
        <ele>113.3</ele>
        <time>2022-08-10T08:34:54Z</time>
      </trkpt>
      <trkpt lat="49.92998" lon="2.08418">
        <ele>113.3</ele>
        <time>2022-08-10T08:34:56Z</time>
      </trkpt>
      <trkpt lat="49.92998" lon="2.08419">
        <ele>113.3</ele>
        <time>2022-08-10T08:34:57Z</time>
      </trkpt>
      <trkpt lat="49.92998" lon="2.0842">
        <ele>113.3</ele>
        <time>2022-08-10T08:34:58Z</time>
      </trkpt>
      <trkpt lat="49.92998" lon="2.08422">
        <ele>113.3</ele>
        <time>2022-08-10T08:34:59Z</time>
      </trkpt>
      <trkpt lat="49.92998" lon="2.08423">
        <ele>113.3</ele>
        <time>2022-08-10T08:35:00Z</time>
      </trkpt>
      <trkpt lat="49.92997" lon="2.08425">
        <ele>113.3</ele>
        <time>2022-08-10T08:35:01Z</time>
      </trkpt>
      <trkpt lat="49.92997" lon="2.08426">
        <ele>113.2</ele>
        <time>2022-08-10T08:35:02Z</time>
      </trkpt>
      <trkpt lat="49.92996" lon="2.08428">
        <ele>113.2</ele>
        <time>2022-08-10T08:35:04Z</time>
      </trkpt>
      <trkpt lat="49.92996" lon="2.08429">
        <ele>113.2</ele>
        <time>2022-08-10T08:35:05Z</time>
      </trkpt>
      <trkpt lat="49.92995" lon="2.08431">
        <ele>113.2</ele>
        <time>2022-08-10T08:35:06Z</time>
      </trkpt>
      <trkpt lat="49.92994" lon="2.08432">
        <ele>113.2</ele>
        <time>2022-08-10T08:35:08Z</time>
      </trkpt>
      <trkpt lat="49.92993" lon="2.08432">
        <ele>113.2</ele>
        <time>2022-08-10T08:35:09Z</time>
      </trkpt>
      <trkpt lat="49.92993" lon="2.08433">
        <ele>113.2</ele>
        <time>2022-08-10T08:35:10Z</time>
      </trkpt>
      <trkpt lat="49.92992" lon="2.08434">
        <ele>113.2</ele>
        <time>2022-08-10T08:35:11Z</time>
      </trkpt>
      <trkpt lat="49.92992" lon="2.08435">
        <ele>113.2</ele>
        <time>2022-08-10T08:35:12Z</time>
      </trkpt>
      <trkpt lat="49.92991" lon="2.08436">
        <ele>113.2</ele>
        <time>2022-08-10T08:35:14Z</time>
      </trkpt>
      <trkpt lat="49.92991" lon="2.08437">
        <ele>113.2</ele>
        <time>2022-08-10T08:35:15Z</time>
      </trkpt>
      <trkpt lat="49.9299" lon="2.08439">
        <ele>113.2</ele>
        <time>2022-08-10T08:35:17Z</time>
      </trkpt>
      <trkpt lat="49.92989" lon="2.08439">
        <ele>113.2</ele>
        <time>2022-08-10T08:35:18Z</time>
      </trkpt>
      <trkpt lat="49.92988" lon="2.0844">
        <ele>113.1</ele>
        <time>2022-08-10T08:35:19Z</time>
      </trkpt>
      <trkpt lat="49.92987" lon="2.08442">
        <ele>113.1</ele>
        <time>2022-08-10T08:35:20Z</time>
      </trkpt>
      <trkpt lat="49.92986" lon="2.08443">
        <ele>113.1</ele>
        <time>2022-08-10T08:35:22Z</time>
      </trkpt>
      <trkpt lat="49.92986" lon="2.08443">
        <ele>113.1</ele>
        <time>2022-08-10T08:35:23Z</time>
      </trkpt>
      <trkpt lat="49.92985" lon="2.08444">
        <ele>113.1</ele>
        <time>2022-08-10T08:35:24Z</time>
      </trkpt>
      <trkpt lat="49.92985" lon="2.08445">
        <ele>113.1</ele>
        <time>2022-08-10T08:35:25Z</time>
      </trkpt>
      <trkpt lat="49.92983" lon="2.08446">
        <ele>113.1</ele>
        <time>2022-08-10T08:35:26Z</time>
      </trkpt>
      <trkpt lat="49.92983" lon="2.08447">
        <ele>113.1</ele>
        <time>2022-08-10T08:35:27Z</time>
      </trkpt>
      <trkpt lat="49.92982" lon="2.08448">
        <ele>113.1</ele>
        <time>2022-08-10T08:35:28Z</time>
      </trkpt>
      <trkpt lat="49.92982" lon="2.08448">
        <ele>113.1</ele>
        <time>2022-08-10T08:35:30Z</time>
      </trkpt>
      <trkpt lat="49.92981" lon="2.08449">
        <ele>113.1</ele>
        <time>2022-08-10T08:35:31Z</time>
      </trkpt>
      <trkpt lat="49.92981" lon="2.08449">
        <ele>113.1</ele>
        <time>2022-08-10T08:35:32Z</time>
      </trkpt>
      <trkpt lat="49.9298" lon="2.08449">
        <ele>113.1</ele>
        <time>2022-08-10T08:35:33Z</time>
      </trkpt>
      <trkpt lat="49.9298" lon="2.0845">
        <ele>113.1</ele>
        <time>2022-08-10T08:35:34Z</time>
      </trkpt>
      <trkpt lat="49.9298" lon="2.08451">
        <ele>113.1</ele>
        <time>2022-08-10T08:35:35Z</time>
      </trkpt>
      <trkpt lat="49.92979" lon="2.08452">
        <ele>113.1</ele>
        <time>2022-08-10T08:35:36Z</time>
      </trkpt>
      <trkpt lat="49.92979" lon="2.08452">
        <ele>113.1</ele>
        <time>2022-08-10T08:35:38Z</time>
      </trkpt>
      <trkpt lat="49.92979" lon="2.08452">
        <ele>113.1</ele>
        <time>2022-08-10T08:35:39Z</time>
      </trkpt>
      <trkpt lat="49.92978" lon="2.08453">
        <ele>113.1</ele>
        <time>2022-08-10T08:35:40Z</time>
      </trkpt>
      <trkpt lat="49.92977" lon="2.08453">
        <ele>113.1</ele>
        <time>2022-08-10T08:35:41Z</time>
      </trkpt>
      <trkpt lat="49.92976" lon="2.08453">
        <ele>113.1</ele>
        <time>2022-08-10T08:35:42Z</time>
      </trkpt>
      <trkpt lat="49.92976" lon="2.08455">
        <ele>113.1</ele>
        <time>2022-08-10T08:35:43Z</time>
      </trkpt>
      <trkpt lat="49.92975" lon="2.08456">
        <ele>113.1</ele>
        <time>2022-08-10T08:35:45Z</time>
      </trkpt>
      <trkpt lat="49.92975" lon="2.08458">
        <ele>113.1</ele>
        <time>2022-08-10T08:35:46Z</time>
      </trkpt>
      <trkpt lat="49.92975" lon="2.08459">
        <ele>113.1</ele>
        <time>2022-08-10T08:35:47Z</time>
      </trkpt>
      <trkpt lat="49.92974" lon="2.0846">
        <ele>113.1</ele>
        <time>2022-08-10T08:35:48Z</time>
      </trkpt>
      <trkpt lat="49.92974" lon="2.08461">
        <ele>113.1</ele>
        <time>2022-08-10T08:35:49Z</time>
      </trkpt>
      <trkpt lat="49.92974" lon="2.08464">
        <ele>113.1</ele>
        <time>2022-08-10T08:35:50Z</time>
      </trkpt>
      <trkpt lat="49.92973" lon="2.08466">
        <ele>113.1</ele>
        <time>2022-08-10T08:35:51Z</time>
      </trkpt>
      <trkpt lat="49.92973" lon="2.08468">
        <ele>113.1</ele>
        <time>2022-08-10T08:35:52Z</time>
      </trkpt>
      <trkpt lat="49.92972" lon="2.08471">
        <ele>113.1</ele>
        <time>2022-08-10T08:35:53Z</time>
      </trkpt>
      <trkpt lat="49.92971" lon="2.08472">
        <ele>113</ele>
        <time>2022-08-10T08:35:55Z</time>
      </trkpt>
      <trkpt lat="49.9297" lon="2.08473">
        <ele>113</ele>
        <time>2022-08-10T08:35:56Z</time>
      </trkpt>
      <trkpt lat="49.9297" lon="2.08475">
        <ele>113</ele>
        <time>2022-08-10T08:35:58Z</time>
      </trkpt>
      <trkpt lat="49.9297" lon="2.08476">
        <ele>113</ele>
        <time>2022-08-10T08:35:59Z</time>
      </trkpt>
      <trkpt lat="49.92969" lon="2.08476">
        <ele>113</ele>
        <time>2022-08-10T08:36:00Z</time>
      </trkpt>
      <trkpt lat="49.92968" lon="2.08478">
        <ele>113</ele>
        <time>2022-08-10T08:36:01Z</time>
      </trkpt>
      <trkpt lat="49.92968" lon="2.08479">
        <ele>113</ele>
        <time>2022-08-10T08:36:03Z</time>
      </trkpt>
      <trkpt lat="49.92968" lon="2.08479">
        <ele>113</ele>
        <time>2022-08-10T08:36:04Z</time>
      </trkpt>
      <trkpt lat="49.92968" lon="2.0848">
        <ele>113</ele>
        <time>2022-08-10T08:36:05Z</time>
      </trkpt>
      <trkpt lat="49.92968" lon="2.0848">
        <ele>113</ele>
        <time>2022-08-10T08:36:06Z</time>
      </trkpt>
      <trkpt lat="49.92967" lon="2.08482">
        <ele>113</ele>
        <time>2022-08-10T08:36:07Z</time>
      </trkpt>
      <trkpt lat="49.92967" lon="2.08482">
        <ele>113</ele>
        <time>2022-08-10T08:36:08Z</time>
      </trkpt>
      <trkpt lat="49.92966" lon="2.08484">
        <ele>113</ele>
        <time>2022-08-10T08:36:09Z</time>
      </trkpt>
      <trkpt lat="49.92965" lon="2.08485">
        <ele>113</ele>
        <time>2022-08-10T08:36:11Z</time>
      </trkpt>
      <trkpt lat="49.92964" lon="2.08486">
        <ele>113</ele>
        <time>2022-08-10T08:36:12Z</time>
      </trkpt>
      <trkpt lat="49.92964" lon="2.08486">
        <ele>113</ele>
        <time>2022-08-10T08:36:13Z</time>
      </trkpt>
      <trkpt lat="49.92964" lon="2.08487">
        <ele>113</ele>
        <time>2022-08-10T08:36:14Z</time>
      </trkpt>
      <trkpt lat="49.92963" lon="2.08487">
        <ele>113</ele>
        <time>2022-08-10T08:36:15Z</time>
      </trkpt>
      <trkpt lat="49.92963" lon="2.08488">
        <ele>113</ele>
        <time>2022-08-10T08:36:16Z</time>
      </trkpt>
      <trkpt lat="49.92962" lon="2.08489">
        <ele>113</ele>
        <time>2022-08-10T08:36:17Z</time>
      </trkpt>
      <trkpt lat="49.92962" lon="2.0849">
        <ele>113</ele>
        <time>2022-08-10T08:36:18Z</time>
      </trkpt>
      <trkpt lat="49.92961" lon="2.0849">
        <ele>113</ele>
        <time>2022-08-10T08:36:19Z</time>
      </trkpt>
      <trkpt lat="49.92961" lon="2.08491">
        <ele>113</ele>
        <time>2022-08-10T08:36:21Z</time>
      </trkpt>
      <trkpt lat="49.9296" lon="2.08492">
        <ele>113</ele>
        <time>2022-08-10T08:36:22Z</time>
      </trkpt>
      <trkpt lat="49.9296" lon="2.08493">
        <ele>113</ele>
        <time>2022-08-10T08:36:23Z</time>
      </trkpt>
      <trkpt lat="49.92959" lon="2.08493">
        <ele>113</ele>
        <time>2022-08-10T08:36:24Z</time>
      </trkpt>
      <trkpt lat="49.92958" lon="2.08493">
        <ele>113</ele>
        <time>2022-08-10T08:36:25Z</time>
      </trkpt>
      <trkpt lat="49.92957" lon="2.08494">
        <ele>113</ele>
        <time>2022-08-10T08:36:27Z</time>
      </trkpt>
      <trkpt lat="49.92956" lon="2.08494">
        <ele>113</ele>
        <time>2022-08-10T08:36:28Z</time>
      </trkpt>
      <trkpt lat="49.92956" lon="2.08494">
        <ele>113</ele>
        <time>2022-08-10T08:36:29Z</time>
      </trkpt>
      <trkpt lat="49.92955" lon="2.08494">
        <ele>113</ele>
        <time>2022-08-10T08:36:30Z</time>
      </trkpt>
      <trkpt lat="49.92955" lon="2.08494">
        <ele>113</ele>
        <time>2022-08-10T08:36:32Z</time>
      </trkpt>
      <trkpt lat="49.92955" lon="2.08492">
        <ele>113</ele>
        <time>2022-08-10T08:36:34Z</time>
      </trkpt>
      <trkpt lat="49.92955" lon="2.0849">
        <ele>113</ele>
        <time>2022-08-10T08:36:35Z</time>
      </trkpt>
      <trkpt lat="49.92954" lon="2.08486">
        <ele>113</ele>
        <time>2022-08-10T08:36:36Z</time>
      </trkpt>
      <trkpt lat="49.92953" lon="2.08484">
        <ele>113</ele>
        <time>2022-08-10T08:36:37Z</time>
      </trkpt>
      <trkpt lat="49.92952" lon="2.08482">
        <ele>113</ele>
        <time>2022-08-10T08:36:39Z</time>
      </trkpt>
      <trkpt lat="49.92951" lon="2.08481">
        <ele>113</ele>
        <time>2022-08-10T08:36:40Z</time>
      </trkpt>
      <trkpt lat="49.92949" lon="2.0848">
        <ele>113</ele>
        <time>2022-08-10T08:36:41Z</time>
      </trkpt>
      <trkpt lat="49.92947" lon="2.08479">
        <ele>113</ele>
        <time>2022-08-10T08:36:42Z</time>
      </trkpt>
      <trkpt lat="49.92946" lon="2.08479">
        <ele>112.9</ele>
        <time>2022-08-10T08:36:43Z</time>
      </trkpt>
      <trkpt lat="49.92945" lon="2.08478">
        <ele>112.9</ele>
        <time>2022-08-10T08:36:44Z</time>
      </trkpt>
      <trkpt lat="49.92944" lon="2.08478">
        <ele>112.9</ele>
        <time>2022-08-10T08:36:46Z</time>
      </trkpt>
      <trkpt lat="49.92943" lon="2.08477">
        <ele>112.9</ele>
        <time>2022-08-10T08:36:47Z</time>
      </trkpt>
      <trkpt lat="49.92943" lon="2.08477">
        <ele>112.9</ele>
        <time>2022-08-10T08:36:48Z</time>
      </trkpt>
      <trkpt lat="49.92942" lon="2.08476">
        <ele>112.9</ele>
        <time>2022-08-10T08:36:49Z</time>
      </trkpt>
      <trkpt lat="49.92942" lon="2.08475">
        <ele>112.9</ele>
        <time>2022-08-10T08:36:51Z</time>
      </trkpt>
      <trkpt lat="49.92942" lon="2.08474">
        <ele>112.9</ele>
        <time>2022-08-10T08:36:52Z</time>
      </trkpt>
      <trkpt lat="49.92942" lon="2.08474">
        <ele>112.9</ele>
        <time>2022-08-10T08:36:53Z</time>
      </trkpt>
      <trkpt lat="49.92942" lon="2.08474">
        <ele>112.9</ele>
        <time>2022-08-10T08:36:54Z</time>
      </trkpt>
      <trkpt lat="49.92941" lon="2.08474">
        <ele>112.9</ele>
        <time>2022-08-10T08:36:56Z</time>
      </trkpt>
      <trkpt lat="49.92941" lon="2.08475">
        <ele>112.9</ele>
        <time>2022-08-10T08:36:57Z</time>
      </trkpt>
      <trkpt lat="49.9294" lon="2.08475">
        <ele>112.9</ele>
        <time>2022-08-10T08:36:59Z</time>
      </trkpt>
      <trkpt lat="49.9294" lon="2.08476">
        <ele>112.9</ele>
        <time>2022-08-10T08:37:00Z</time>
      </trkpt>
      <trkpt lat="49.92941" lon="2.08479">
        <ele>112.9</ele>
        <time>2022-08-10T08:37:01Z</time>
      </trkpt>
      <trkpt lat="49.92941" lon="2.08482">
        <ele>112.9</ele>
        <time>2022-08-10T08:37:02Z</time>
      </trkpt>
      <trkpt lat="49.92942" lon="2.08484">
        <ele>112.9</ele>
        <time>2022-08-10T08:37:03Z</time>
      </trkpt>
      <trkpt lat="49.92942" lon="2.08486">
        <ele>112.9</ele>
        <time>2022-08-10T08:37:04Z</time>
      </trkpt>
      <trkpt lat="49.92942" lon="2.08489">
        <ele>112.9</ele>
        <time>2022-08-10T08:37:05Z</time>
      </trkpt>
      <trkpt lat="49.92939" lon="2.08493">
        <ele>112.9</ele>
        <time>2022-08-10T08:37:07Z</time>
      </trkpt>
      <trkpt lat="49.92938" lon="2.08495">
        <ele>112.9</ele>
        <time>2022-08-10T08:37:08Z</time>
      </trkpt>
      <trkpt lat="49.92934" lon="2.08497">
        <ele>112.9</ele>
        <time>2022-08-10T08:37:09Z</time>
      </trkpt>
      <trkpt lat="49.92928" lon="2.08503">
        <ele>112.9</ele>
        <time>2022-08-10T08:37:10Z</time>
      </trkpt>
      <trkpt lat="49.92924" lon="2.08507">
        <ele>112.8</ele>
        <time>2022-08-10T08:37:11Z</time>
      </trkpt>
      <trkpt lat="49.92921" lon="2.08509">
        <ele>112.8</ele>
        <time>2022-08-10T08:37:13Z</time>
      </trkpt>
      <trkpt lat="49.9292" lon="2.08511">
        <ele>112.8</ele>
        <time>2022-08-10T08:37:14Z</time>
      </trkpt>
      <trkpt lat="49.92919" lon="2.08512">
        <ele>112.8</ele>
        <time>2022-08-10T08:37:15Z</time>
      </trkpt>
      <trkpt lat="49.92918" lon="2.08513">
        <ele>112.8</ele>
        <time>2022-08-10T08:37:16Z</time>
      </trkpt>
      <trkpt lat="49.92916" lon="2.08514">
        <ele>112.8</ele>
        <time>2022-08-10T08:37:17Z</time>
      </trkpt>
      <trkpt lat="49.92915" lon="2.08515">
        <ele>112.8</ele>
        <time>2022-08-10T08:37:19Z</time>
      </trkpt>
      <trkpt lat="49.92914" lon="2.08516">
        <ele>112.8</ele>
        <time>2022-08-10T08:37:20Z</time>
      </trkpt>
      <trkpt lat="49.92913" lon="2.08517">
        <ele>112.8</ele>
        <time>2022-08-10T08:37:21Z</time>
      </trkpt>
      <trkpt lat="49.92914" lon="2.0852">
        <ele>112.8</ele>
        <time>2022-08-10T08:37:23Z</time>
      </trkpt>
      <trkpt lat="49.92914" lon="2.08521">
        <ele>112.8</ele>
        <time>2022-08-10T08:37:24Z</time>
      </trkpt>
      <trkpt lat="49.92914" lon="2.08521">
        <ele>112.8</ele>
        <time>2022-08-10T08:37:25Z</time>
      </trkpt>
      <trkpt lat="49.92913" lon="2.08521">
        <ele>112.8</ele>
        <time>2022-08-10T08:37:26Z</time>
      </trkpt>
      <trkpt lat="49.92912" lon="2.0852">
        <ele>112.8</ele>
        <time>2022-08-10T08:37:27Z</time>
      </trkpt>
      <trkpt lat="49.92912" lon="2.0852">
        <ele>112.8</ele>
        <time>2022-08-10T08:37:28Z</time>
      </trkpt>
      <trkpt lat="49.92911" lon="2.0852">
        <ele>112.8</ele>
        <time>2022-08-10T08:37:29Z</time>
      </trkpt>
      <trkpt lat="49.92911" lon="2.0852">
        <ele>112.8</ele>
        <time>2022-08-10T08:37:30Z</time>
      </trkpt>
      <trkpt lat="49.9291" lon="2.08519">
        <ele>112.8</ele>
        <time>2022-08-10T08:37:31Z</time>
      </trkpt>
      <trkpt lat="49.92908" lon="2.08519">
        <ele>112.8</ele>
        <time>2022-08-10T08:37:33Z</time>
      </trkpt>
      <trkpt lat="49.92907" lon="2.08519">
        <ele>112.8</ele>
        <time>2022-08-10T08:37:34Z</time>
      </trkpt>
      <trkpt lat="49.92907" lon="2.08519">
        <ele>112.8</ele>
        <time>2022-08-10T08:37:35Z</time>
      </trkpt>
      <trkpt lat="49.92906" lon="2.08519">
        <ele>112.8</ele>
        <time>2022-08-10T08:37:36Z</time>
      </trkpt>
      <trkpt lat="49.92904" lon="2.0852">
        <ele>112.7</ele>
        <time>2022-08-10T08:37:38Z</time>
      </trkpt>
      <trkpt lat="49.92903" lon="2.08521">
        <ele>112.7</ele>
        <time>2022-08-10T08:37:39Z</time>
      </trkpt>
      <trkpt lat="49.92902" lon="2.08522">
        <ele>112.7</ele>
        <time>2022-08-10T08:37:40Z</time>
      </trkpt>
      <trkpt lat="49.92902" lon="2.08523">
        <ele>112.7</ele>
        <time>2022-08-10T08:37:41Z</time>
      </trkpt>
      <trkpt lat="49.92901" lon="2.08524">
        <ele>112.7</ele>
        <time>2022-08-10T08:37:42Z</time>
      </trkpt>
      <trkpt lat="49.92901" lon="2.08526">
        <ele>112.7</ele>
        <time>2022-08-10T08:37:43Z</time>
      </trkpt>
      <trkpt lat="49.929" lon="2.08527">
        <ele>112.7</ele>
        <time>2022-08-10T08:37:44Z</time>
      </trkpt>
      <trkpt lat="49.929" lon="2.0853">
        <ele>112.7</ele>
        <time>2022-08-10T08:37:46Z</time>
      </trkpt>
      <trkpt lat="49.92899" lon="2.08531">
        <ele>112.7</ele>
        <time>2022-08-10T08:37:47Z</time>
      </trkpt>
      <trkpt lat="49.92899" lon="2.08532">
        <ele>112.7</ele>
        <time>2022-08-10T08:37:48Z</time>
      </trkpt>
      <trkpt lat="49.92899" lon="2.08534">
        <ele>112.7</ele>
        <time>2022-08-10T08:37:49Z</time>
      </trkpt>
      <trkpt lat="49.92899" lon="2.08535">
        <ele>112.7</ele>
        <time>2022-08-10T08:37:50Z</time>
      </trkpt>
      <trkpt lat="49.92899" lon="2.08536">
        <ele>112.6</ele>
        <time>2022-08-10T08:37:51Z</time>
      </trkpt>
      <trkpt lat="49.92899" lon="2.08538">
        <ele>112.6</ele>
        <time>2022-08-10T08:37:52Z</time>
      </trkpt>
      <trkpt lat="49.92898" lon="2.0854">
        <ele>112.6</ele>
        <time>2022-08-10T08:37:53Z</time>
      </trkpt>
      <trkpt lat="49.92897" lon="2.08542">
        <ele>112.6</ele>
        <time>2022-08-10T08:37:54Z</time>
      </trkpt>
      <trkpt lat="49.92897" lon="2.08543">
        <ele>112.6</ele>
        <time>2022-08-10T08:37:55Z</time>
      </trkpt>
      <trkpt lat="49.92896" lon="2.08544">
        <ele>112.6</ele>
        <time>2022-08-10T08:37:57Z</time>
      </trkpt>
      <trkpt lat="49.92895" lon="2.08547">
        <ele>112.6</ele>
        <time>2022-08-10T08:37:58Z</time>
      </trkpt>
      <trkpt lat="49.92895" lon="2.08548">
        <ele>112.6</ele>
        <time>2022-08-10T08:37:59Z</time>
      </trkpt>
      <trkpt lat="49.92894" lon="2.08549">
        <ele>112.5</ele>
        <time>2022-08-10T08:38:01Z</time>
      </trkpt>
      <trkpt lat="49.92894" lon="2.08549">
        <ele>112.5</ele>
        <time>2022-08-10T08:38:02Z</time>
      </trkpt>
      <trkpt lat="49.92894" lon="2.0855">
        <ele>112.5</ele>
        <time>2022-08-10T08:38:03Z</time>
      </trkpt>
      <trkpt lat="49.92893" lon="2.08551">
        <ele>112.5</ele>
        <time>2022-08-10T08:38:04Z</time>
      </trkpt>
      <trkpt lat="49.92893" lon="2.08553">
        <ele>112.5</ele>
        <time>2022-08-10T08:38:05Z</time>
      </trkpt>
      <trkpt lat="49.92892" lon="2.08554">
        <ele>112.5</ele>
        <time>2022-08-10T08:38:07Z</time>
      </trkpt>
      <trkpt lat="49.92891" lon="2.08555">
        <ele>112.5</ele>
        <time>2022-08-10T08:38:08Z</time>
      </trkpt>
      <trkpt lat="49.92891" lon="2.08556">
        <ele>112.5</ele>
        <time>2022-08-10T08:38:09Z</time>
      </trkpt>
      <trkpt lat="49.9289" lon="2.08557">
        <ele>112.5</ele>
        <time>2022-08-10T08:38:10Z</time>
      </trkpt>
      <trkpt lat="49.9289" lon="2.08558">
        <ele>112.5</ele>
        <time>2022-08-10T08:38:11Z</time>
      </trkpt>
      <trkpt lat="49.92889" lon="2.08559">
        <ele>112.5</ele>
        <time>2022-08-10T08:38:12Z</time>
      </trkpt>
      <trkpt lat="49.92889" lon="2.0856">
        <ele>112.4</ele>
        <time>2022-08-10T08:38:13Z</time>
      </trkpt>
      <trkpt lat="49.92888" lon="2.08561">
        <ele>112.4</ele>
        <time>2022-08-10T08:38:14Z</time>
      </trkpt>
      <trkpt lat="49.92887" lon="2.08561">
        <ele>112.4</ele>
        <time>2022-08-10T08:38:16Z</time>
      </trkpt>
      <trkpt lat="49.92887" lon="2.08561">
        <ele>112.4</ele>
        <time>2022-08-10T08:38:17Z</time>
      </trkpt>
      <trkpt lat="49.92887" lon="2.0856">
        <ele>112.4</ele>
        <time>2022-08-10T08:38:18Z</time>
      </trkpt>
      <trkpt lat="49.92887" lon="2.08561">
        <ele>112.4</ele>
        <time>2022-08-10T08:38:19Z</time>
      </trkpt>
      <trkpt lat="49.92887" lon="2.08561">
        <ele>112.4</ele>
        <time>2022-08-10T08:38:21Z</time>
      </trkpt>
      <trkpt lat="49.92887" lon="2.08562">
        <ele>112.4</ele>
        <time>2022-08-10T08:38:22Z</time>
      </trkpt>
      <trkpt lat="49.92887" lon="2.08563">
        <ele>112.4</ele>
        <time>2022-08-10T08:38:23Z</time>
      </trkpt>
      <trkpt lat="49.92887" lon="2.08564">
        <ele>112.4</ele>
        <time>2022-08-10T08:38:24Z</time>
      </trkpt>
      <trkpt lat="49.92887" lon="2.08565">
        <ele>112.4</ele>
        <time>2022-08-10T08:38:25Z</time>
      </trkpt>
      <trkpt lat="49.92886" lon="2.08566">
        <ele>112.4</ele>
        <time>2022-08-10T08:38:27Z</time>
      </trkpt>
      <trkpt lat="49.92885" lon="2.08567">
        <ele>112.4</ele>
        <time>2022-08-10T08:38:28Z</time>
      </trkpt>
      <trkpt lat="49.92884" lon="2.08568">
        <ele>112.4</ele>
        <time>2022-08-10T08:38:29Z</time>
      </trkpt>
      <trkpt lat="49.92883" lon="2.08569">
        <ele>112.4</ele>
        <time>2022-08-10T08:38:30Z</time>
      </trkpt>
      <trkpt lat="49.92881" lon="2.0857">
        <ele>112.4</ele>
        <time>2022-08-10T08:38:31Z</time>
      </trkpt>
      <trkpt lat="49.9288" lon="2.08571">
        <ele>112.4</ele>
        <time>2022-08-10T08:38:32Z</time>
      </trkpt>
      <trkpt lat="49.92879" lon="2.08572">
        <ele>112.4</ele>
        <time>2022-08-10T08:38:33Z</time>
      </trkpt>
      <trkpt lat="49.92879" lon="2.08573">
        <ele>112.4</ele>
        <time>2022-08-10T08:38:35Z</time>
      </trkpt>
      <trkpt lat="49.92878" lon="2.08574">
        <ele>112.4</ele>
        <time>2022-08-10T08:38:36Z</time>
      </trkpt>
      <trkpt lat="49.92877" lon="2.08575">
        <ele>112.4</ele>
        <time>2022-08-10T08:38:37Z</time>
      </trkpt>
      <trkpt lat="49.92875" lon="2.08576">
        <ele>112.4</ele>
        <time>2022-08-10T08:38:38Z</time>
      </trkpt>
      <trkpt lat="49.92874" lon="2.08578">
        <ele>112.4</ele>
        <time>2022-08-10T08:38:39Z</time>
      </trkpt>
      <trkpt lat="49.92873" lon="2.08578">
        <ele>112.4</ele>
        <time>2022-08-10T08:38:40Z</time>
      </trkpt>
      <trkpt lat="49.92872" lon="2.08578">
        <ele>112.4</ele>
        <time>2022-08-10T08:38:42Z</time>
      </trkpt>
      <trkpt lat="49.92871" lon="2.08579">
        <ele>112.4</ele>
        <time>2022-08-10T08:38:43Z</time>
      </trkpt>
      <trkpt lat="49.92871" lon="2.08579">
        <ele>112.4</ele>
        <time>2022-08-10T08:38:44Z</time>
      </trkpt>
      <trkpt lat="49.9287" lon="2.08579">
        <ele>112.4</ele>
        <time>2022-08-10T08:38:45Z</time>
      </trkpt>
      <trkpt lat="49.92869" lon="2.0858">
        <ele>112.4</ele>
        <time>2022-08-10T08:38:46Z</time>
      </trkpt>
      <trkpt lat="49.92869" lon="2.0858">
        <ele>112.4</ele>
        <time>2022-08-10T08:38:48Z</time>
      </trkpt>
      <trkpt lat="49.92868" lon="2.0858">
        <ele>112.4</ele>
        <time>2022-08-10T08:38:49Z</time>
      </trkpt>
      <trkpt lat="49.92867" lon="2.08581">
        <ele>112.4</ele>
        <time>2022-08-10T08:38:50Z</time>
      </trkpt>
      <trkpt lat="49.92866" lon="2.08581">
        <ele>112.4</ele>
        <time>2022-08-10T08:38:51Z</time>
      </trkpt>
      <trkpt lat="49.92866" lon="2.08581">
        <ele>112.4</ele>
        <time>2022-08-10T08:38:52Z</time>
      </trkpt>
      <trkpt lat="49.92864" lon="2.08581">
        <ele>112.4</ele>
        <time>2022-08-10T08:38:53Z</time>
      </trkpt>
      <trkpt lat="49.92863" lon="2.08581">
        <ele>112.4</ele>
        <time>2022-08-10T08:38:55Z</time>
      </trkpt>
      <trkpt lat="49.92862" lon="2.08581">
        <ele>112.4</ele>
        <time>2022-08-10T08:38:56Z</time>
      </trkpt>
      <trkpt lat="49.9286" lon="2.08582">
        <ele>112.4</ele>
        <time>2022-08-10T08:38:57Z</time>
      </trkpt>
      <trkpt lat="49.92859" lon="2.08582">
        <ele>112.4</ele>
        <time>2022-08-10T08:38:58Z</time>
      </trkpt>
      <trkpt lat="49.92858" lon="2.08583">
        <ele>112.4</ele>
        <time>2022-08-10T08:38:59Z</time>
      </trkpt>
      <trkpt lat="49.92857" lon="2.08583">
        <ele>112.4</ele>
        <time>2022-08-10T08:39:01Z</time>
      </trkpt>
      <trkpt lat="49.92858" lon="2.08584">
        <ele>112.4</ele>
        <time>2022-08-10T08:39:02Z</time>
      </trkpt>
      <trkpt lat="49.92857" lon="2.08585">
        <ele>112.4</ele>
        <time>2022-08-10T08:39:03Z</time>
      </trkpt>
      <trkpt lat="49.92856" lon="2.08585">
        <ele>112.4</ele>
        <time>2022-08-10T08:39:04Z</time>
      </trkpt>
      <trkpt lat="49.92855" lon="2.08586">
        <ele>112.4</ele>
        <time>2022-08-10T08:39:05Z</time>
      </trkpt>
      <trkpt lat="49.92854" lon="2.08586">
        <ele>112.4</ele>
        <time>2022-08-10T08:39:06Z</time>
      </trkpt>
      <trkpt lat="49.92852" lon="2.08587">
        <ele>112.4</ele>
        <time>2022-08-10T08:39:07Z</time>
      </trkpt>
      <trkpt lat="49.92851" lon="2.08587">
        <ele>112.4</ele>
        <time>2022-08-10T08:39:08Z</time>
      </trkpt>
      <trkpt lat="49.9285" lon="2.08587">
        <ele>112.4</ele>
        <time>2022-08-10T08:39:09Z</time>
      </trkpt>
      <trkpt lat="49.9285" lon="2.08587">
        <ele>112.4</ele>
        <time>2022-08-10T08:39:10Z</time>
      </trkpt>
      <trkpt lat="49.92848" lon="2.08587">
        <ele>112.4</ele>
        <time>2022-08-10T08:39:11Z</time>
      </trkpt>
      <trkpt lat="49.92847" lon="2.08587">
        <ele>112.4</ele>
        <time>2022-08-10T08:39:12Z</time>
      </trkpt>
      <trkpt lat="49.92846" lon="2.08587">
        <ele>112.4</ele>
        <time>2022-08-10T08:39:13Z</time>
      </trkpt>
      <trkpt lat="49.92845" lon="2.08587">
        <ele>112.4</ele>
        <time>2022-08-10T08:39:15Z</time>
      </trkpt>
      <trkpt lat="49.92844" lon="2.08586">
        <ele>112.4</ele>
        <time>2022-08-10T08:39:16Z</time>
      </trkpt>
      <trkpt lat="49.92843" lon="2.08586">
        <ele>112.4</ele>
        <time>2022-08-10T08:39:17Z</time>
      </trkpt>
      <trkpt lat="49.92843" lon="2.08586">
        <ele>112.4</ele>
        <time>2022-08-10T08:39:18Z</time>
      </trkpt>
      <trkpt lat="49.92842" lon="2.08586">
        <ele>112.4</ele>
        <time>2022-08-10T08:39:19Z</time>
      </trkpt>
      <trkpt lat="49.92841" lon="2.08586">
        <ele>112.4</ele>
        <time>2022-08-10T08:39:20Z</time>
      </trkpt>
      <trkpt lat="49.9284" lon="2.08586">
        <ele>112.4</ele>
        <time>2022-08-10T08:39:22Z</time>
      </trkpt>
      <trkpt lat="49.92839" lon="2.08586">
        <ele>112.4</ele>
        <time>2022-08-10T08:39:23Z</time>
      </trkpt>
      <trkpt lat="49.92837" lon="2.08586">
        <ele>112.4</ele>
        <time>2022-08-10T08:39:24Z</time>
      </trkpt>
      <trkpt lat="49.92837" lon="2.08586">
        <ele>112.4</ele>
        <time>2022-08-10T08:39:25Z</time>
      </trkpt>
      <trkpt lat="49.92835" lon="2.08586">
        <ele>112.4</ele>
        <time>2022-08-10T08:39:26Z</time>
      </trkpt>
      <trkpt lat="49.92834" lon="2.08586">
        <ele>112.3</ele>
        <time>2022-08-10T08:39:27Z</time>
      </trkpt>
      <trkpt lat="49.92833" lon="2.08586">
        <ele>112.3</ele>
        <time>2022-08-10T08:39:29Z</time>
      </trkpt>
      <trkpt lat="49.92834" lon="2.08587">
        <ele>112.3</ele>
        <time>2022-08-10T08:39:30Z</time>
      </trkpt>
      <trkpt lat="49.92833" lon="2.08587">
        <ele>112.3</ele>
        <time>2022-08-10T08:39:31Z</time>
      </trkpt>
      <trkpt lat="49.92832" lon="2.08587">
        <ele>112.3</ele>
        <time>2022-08-10T08:39:32Z</time>
      </trkpt>
      <trkpt lat="49.92832" lon="2.08587">
        <ele>112.3</ele>
        <time>2022-08-10T08:39:33Z</time>
      </trkpt>
      <trkpt lat="49.92831" lon="2.08587">
        <ele>112.3</ele>
        <time>2022-08-10T08:39:35Z</time>
      </trkpt>
      <trkpt lat="49.9283" lon="2.08587">
        <ele>112.3</ele>
        <time>2022-08-10T08:39:36Z</time>
      </trkpt>
      <trkpt lat="49.9283" lon="2.08587">
        <ele>112.3</ele>
        <time>2022-08-10T08:39:37Z</time>
      </trkpt>
      <trkpt lat="49.92829" lon="2.08587">
        <ele>112.3</ele>
        <time>2022-08-10T08:39:38Z</time>
      </trkpt>
      <trkpt lat="49.92828" lon="2.08587">
        <ele>112.3</ele>
        <time>2022-08-10T08:39:39Z</time>
      </trkpt>
      <trkpt lat="49.92827" lon="2.08587">
        <ele>112.3</ele>
        <time>2022-08-10T08:39:40Z</time>
      </trkpt>
      <trkpt lat="49.92826" lon="2.08587">
        <ele>112.3</ele>
        <time>2022-08-10T08:39:41Z</time>
      </trkpt>
      <trkpt lat="49.92826" lon="2.08587">
        <ele>112.3</ele>
        <time>2022-08-10T08:39:43Z</time>
      </trkpt>
      <trkpt lat="49.92825" lon="2.08586">
        <ele>112.3</ele>
        <time>2022-08-10T08:39:44Z</time>
      </trkpt>
      <trkpt lat="49.92824" lon="2.08586">
        <ele>112.3</ele>
        <time>2022-08-10T08:39:45Z</time>
      </trkpt>
      <trkpt lat="49.92823" lon="2.08586">
        <ele>112.2</ele>
        <time>2022-08-10T08:39:46Z</time>
      </trkpt>
      <trkpt lat="49.92823" lon="2.08586">
        <ele>112.2</ele>
        <time>2022-08-10T08:39:47Z</time>
      </trkpt>
      <trkpt lat="49.92821" lon="2.08586">
        <ele>112.2</ele>
        <time>2022-08-10T08:39:48Z</time>
      </trkpt>
      <trkpt lat="49.9282" lon="2.08586">
        <ele>112.2</ele>
        <time>2022-08-10T08:39:49Z</time>
      </trkpt>
      <trkpt lat="49.92819" lon="2.08586">
        <ele>112.2</ele>
        <time>2022-08-10T08:39:50Z</time>
      </trkpt>
      <trkpt lat="49.92817" lon="2.08586">
        <ele>112.2</ele>
        <time>2022-08-10T08:39:52Z</time>
      </trkpt>
      <trkpt lat="49.92816" lon="2.08586">
        <ele>112.1</ele>
        <time>2022-08-10T08:39:53Z</time>
      </trkpt>
      <trkpt lat="49.92814" lon="2.08586">
        <ele>112.1</ele>
        <time>2022-08-10T08:39:54Z</time>
      </trkpt>
      <trkpt lat="49.92811" lon="2.08586">
        <ele>112.1</ele>
        <time>2022-08-10T08:39:55Z</time>
      </trkpt>
      <trkpt lat="49.9281" lon="2.08586">
        <ele>112.1</ele>
        <time>2022-08-10T08:39:56Z</time>
      </trkpt>
      <trkpt lat="49.92808" lon="2.08586">
        <ele>112</ele>
        <time>2022-08-10T08:39:57Z</time>
      </trkpt>
      <trkpt lat="49.92807" lon="2.08585">
        <ele>112</ele>
        <time>2022-08-10T08:39:59Z</time>
      </trkpt>
      <trkpt lat="49.92806" lon="2.08585">
        <ele>112</ele>
        <time>2022-08-10T08:40:00Z</time>
      </trkpt>
      <trkpt lat="49.92804" lon="2.08585">
        <ele>112</ele>
        <time>2022-08-10T08:40:01Z</time>
      </trkpt>
      <trkpt lat="49.92803" lon="2.08585">
        <ele>112</ele>
        <time>2022-08-10T08:40:02Z</time>
      </trkpt>
      <trkpt lat="49.92803" lon="2.08585">
        <ele>111.9</ele>
        <time>2022-08-10T08:40:03Z</time>
      </trkpt>
      <trkpt lat="49.92802" lon="2.08585">
        <ele>111.9</ele>
        <time>2022-08-10T08:40:04Z</time>
      </trkpt>
      <trkpt lat="49.92802" lon="2.08585">
        <ele>111.9</ele>
        <time>2022-08-10T08:40:05Z</time>
      </trkpt>
      <trkpt lat="49.92801" lon="2.08584">
        <ele>111.9</ele>
        <time>2022-08-10T08:40:07Z</time>
      </trkpt>
      <trkpt lat="49.928" lon="2.08584">
        <ele>111.9</ele>
        <time>2022-08-10T08:40:08Z</time>
      </trkpt>
      <trkpt lat="49.92799" lon="2.08584">
        <ele>111.9</ele>
        <time>2022-08-10T08:40:09Z</time>
      </trkpt>
      <trkpt lat="49.92798" lon="2.08585">
        <ele>111.9</ele>
        <time>2022-08-10T08:40:10Z</time>
      </trkpt>
      <trkpt lat="49.92798" lon="2.08585">
        <ele>111.9</ele>
        <time>2022-08-10T08:40:11Z</time>
      </trkpt>
      <trkpt lat="49.92798" lon="2.08586">
        <ele>111.9</ele>
        <time>2022-08-10T08:40:13Z</time>
      </trkpt>
      <trkpt lat="49.92798" lon="2.08586">
        <ele>111.9</ele>
        <time>2022-08-10T08:40:14Z</time>
      </trkpt>
      <trkpt lat="49.92796" lon="2.08586">
        <ele>111.8</ele>
        <time>2022-08-10T08:40:16Z</time>
      </trkpt>
      <trkpt lat="49.92797" lon="2.08587">
        <ele>111.8</ele>
        <time>2022-08-10T08:40:17Z</time>
      </trkpt>
      <trkpt lat="49.92797" lon="2.08587">
        <ele>111.8</ele>
        <time>2022-08-10T08:40:18Z</time>
      </trkpt>
      <trkpt lat="49.92798" lon="2.08587">
        <ele>111.8</ele>
        <time>2022-08-10T08:40:19Z</time>
      </trkpt>
      <trkpt lat="49.92798" lon="2.08588">
        <ele>111.8</ele>
        <time>2022-08-10T08:40:20Z</time>
      </trkpt>
      <trkpt lat="49.92798" lon="2.08588">
        <ele>111.8</ele>
        <time>2022-08-10T08:40:21Z</time>
      </trkpt>
      <trkpt lat="49.92797" lon="2.08589">
        <ele>111.8</ele>
        <time>2022-08-10T08:40:23Z</time>
      </trkpt>
      <trkpt lat="49.92796" lon="2.08589">
        <ele>111.8</ele>
        <time>2022-08-10T08:40:24Z</time>
      </trkpt>
      <trkpt lat="49.92796" lon="2.0859">
        <ele>111.8</ele>
        <time>2022-08-10T08:40:25Z</time>
      </trkpt>
      <trkpt lat="49.92794" lon="2.08591">
        <ele>111.7</ele>
        <time>2022-08-10T08:40:26Z</time>
      </trkpt>
      <trkpt lat="49.92793" lon="2.08591">
        <ele>111.7</ele>
        <time>2022-08-10T08:40:28Z</time>
      </trkpt>
      <trkpt lat="49.92792" lon="2.08591">
        <ele>111.7</ele>
        <time>2022-08-10T08:40:29Z</time>
      </trkpt>
      <trkpt lat="49.92791" lon="2.08592">
        <ele>111.7</ele>
        <time>2022-08-10T08:40:30Z</time>
      </trkpt>
      <trkpt lat="49.92789" lon="2.08593">
        <ele>111.7</ele>
        <time>2022-08-10T08:40:31Z</time>
      </trkpt>
      <trkpt lat="49.92787" lon="2.08593">
        <ele>111.6</ele>
        <time>2022-08-10T08:40:32Z</time>
      </trkpt>
      <trkpt lat="49.92786" lon="2.08594">
        <ele>111.6</ele>
        <time>2022-08-10T08:40:33Z</time>
      </trkpt>
      <trkpt lat="49.92782" lon="2.08594">
        <ele>111.5</ele>
        <time>2022-08-10T08:40:34Z</time>
      </trkpt>
      <trkpt lat="49.92781" lon="2.08594">
        <ele>111.5</ele>
        <time>2022-08-10T08:40:35Z</time>
      </trkpt>
      <trkpt lat="49.92779" lon="2.08595">
        <ele>111.4</ele>
        <time>2022-08-10T08:40:36Z</time>
      </trkpt>
      <trkpt lat="49.92777" lon="2.08595">
        <ele>111.4</ele>
        <time>2022-08-10T08:40:38Z</time>
      </trkpt>
      <trkpt lat="49.92776" lon="2.08595">
        <ele>111.4</ele>
        <time>2022-08-10T08:40:39Z</time>
      </trkpt>
      <trkpt lat="49.92774" lon="2.08595">
        <ele>111.4</ele>
        <time>2022-08-10T08:40:40Z</time>
      </trkpt>
      <trkpt lat="49.92773" lon="2.08595">
        <ele>111.3</ele>
        <time>2022-08-10T08:40:41Z</time>
      </trkpt>
      <trkpt lat="49.92772" lon="2.08595">
        <ele>111.3</ele>
        <time>2022-08-10T08:40:42Z</time>
      </trkpt>
      <trkpt lat="49.92771" lon="2.08596">
        <ele>111.3</ele>
        <time>2022-08-10T08:40:43Z</time>
      </trkpt>
      <trkpt lat="49.92771" lon="2.08596">
        <ele>111.3</ele>
        <time>2022-08-10T08:40:44Z</time>
      </trkpt>
      <trkpt lat="49.92771" lon="2.08596">
        <ele>111.3</ele>
        <time>2022-08-10T08:40:45Z</time>
      </trkpt>
      <trkpt lat="49.92771" lon="2.08596">
        <ele>111.3</ele>
        <time>2022-08-10T08:40:46Z</time>
      </trkpt>
      <trkpt lat="49.9277" lon="2.08597">
        <ele>111.3</ele>
        <time>2022-08-10T08:40:48Z</time>
      </trkpt>
      <trkpt lat="49.92769" lon="2.08597">
        <ele>111.2</ele>
        <time>2022-08-10T08:40:49Z</time>
      </trkpt>
      <trkpt lat="49.92768" lon="2.08598">
        <ele>111.2</ele>
        <time>2022-08-10T08:40:50Z</time>
      </trkpt>
      <trkpt lat="49.92767" lon="2.08598">
        <ele>111.2</ele>
        <time>2022-08-10T08:40:51Z</time>
      </trkpt>
      <trkpt lat="49.92765" lon="2.08599">
        <ele>111.2</ele>
        <time>2022-08-10T08:40:52Z</time>
      </trkpt>
      <trkpt lat="49.92765" lon="2.08599">
        <ele>111.2</ele>
        <time>2022-08-10T08:40:53Z</time>
      </trkpt>
      <trkpt lat="49.92764" lon="2.086">
        <ele>111.2</ele>
        <time>2022-08-10T08:40:54Z</time>
      </trkpt>
      <trkpt lat="49.92764" lon="2.08599">
        <ele>111.1</ele>
        <time>2022-08-10T08:40:56Z</time>
      </trkpt>
      <trkpt lat="49.92764" lon="2.086">
        <ele>111.1</ele>
        <time>2022-08-10T08:40:57Z</time>
      </trkpt>
      <trkpt lat="49.92763" lon="2.086">
        <ele>111.1</ele>
        <time>2022-08-10T08:40:58Z</time>
      </trkpt>
      <trkpt lat="49.92761" lon="2.08602">
        <ele>111.1</ele>
        <time>2022-08-10T08:40:59Z</time>
      </trkpt>
      <trkpt lat="49.9276" lon="2.08602">
        <ele>111.1</ele>
        <time>2022-08-10T08:41:00Z</time>
      </trkpt>
      <trkpt lat="49.92759" lon="2.08603">
        <ele>111.1</ele>
        <time>2022-08-10T08:41:01Z</time>
      </trkpt>
      <trkpt lat="49.92759" lon="2.08603">
        <ele>111</ele>
        <time>2022-08-10T08:41:03Z</time>
      </trkpt>
      <trkpt lat="49.92758" lon="2.08603">
        <ele>111</ele>
        <time>2022-08-10T08:41:04Z</time>
      </trkpt>
      <trkpt lat="49.92757" lon="2.08603">
        <ele>111</ele>
        <time>2022-08-10T08:41:05Z</time>
      </trkpt>
      <trkpt lat="49.92757" lon="2.08603">
        <ele>111</ele>
        <time>2022-08-10T08:41:06Z</time>
      </trkpt>
      <trkpt lat="49.92756" lon="2.08603">
        <ele>111</ele>
        <time>2022-08-10T08:41:07Z</time>
      </trkpt>
      <trkpt lat="49.92756" lon="2.08603">
        <ele>111</ele>
        <time>2022-08-10T08:41:08Z</time>
      </trkpt>
      <trkpt lat="49.92755" lon="2.08603">
        <ele>111</ele>
        <time>2022-08-10T08:41:09Z</time>
      </trkpt>
      <trkpt lat="49.92755" lon="2.08603">
        <ele>111</ele>
        <time>2022-08-10T08:41:10Z</time>
      </trkpt>
      <trkpt lat="49.92754" lon="2.08603">
        <ele>111</ele>
        <time>2022-08-10T08:41:12Z</time>
      </trkpt>
      <trkpt lat="49.92754" lon="2.08603">
        <ele>111</ele>
        <time>2022-08-10T08:41:13Z</time>
      </trkpt>
      <trkpt lat="49.92753" lon="2.08603">
        <ele>111</ele>
        <time>2022-08-10T08:41:14Z</time>
      </trkpt>
      <trkpt lat="49.92753" lon="2.08603">
        <ele>111</ele>
        <time>2022-08-10T08:41:15Z</time>
      </trkpt>
      <trkpt lat="49.92752" lon="2.08603">
        <ele>111</ele>
        <time>2022-08-10T08:41:16Z</time>
      </trkpt>
      <trkpt lat="49.92751" lon="2.08603">
        <ele>111</ele>
        <time>2022-08-10T08:41:18Z</time>
      </trkpt>
      <trkpt lat="49.92751" lon="2.08603">
        <ele>111</ele>
        <time>2022-08-10T08:41:19Z</time>
      </trkpt>
      <trkpt lat="49.9275" lon="2.08603">
        <ele>110.9</ele>
        <time>2022-08-10T08:41:20Z</time>
      </trkpt>
      <trkpt lat="49.9275" lon="2.08603">
        <ele>110.9</ele>
        <time>2022-08-10T08:41:21Z</time>
      </trkpt>
      <trkpt lat="49.92748" lon="2.08604">
        <ele>110.9</ele>
        <time>2022-08-10T08:41:22Z</time>
      </trkpt>
      <trkpt lat="49.92746" lon="2.08605">
        <ele>110.9</ele>
        <time>2022-08-10T08:41:24Z</time>
      </trkpt>
      <trkpt lat="49.92743" lon="2.08607">
        <ele>110.9</ele>
        <time>2022-08-10T08:41:25Z</time>
      </trkpt>
      <trkpt lat="49.92742" lon="2.08608">
        <ele>110.8</ele>
        <time>2022-08-10T08:41:26Z</time>
      </trkpt>
      <trkpt lat="49.92738" lon="2.0861">
        <ele>110.8</ele>
        <time>2022-08-10T08:41:27Z</time>
      </trkpt>
      <trkpt lat="49.92737" lon="2.08611">
        <ele>110.8</ele>
        <time>2022-08-10T08:41:28Z</time>
      </trkpt>
      <trkpt lat="49.92735" lon="2.08611">
        <ele>110.8</ele>
        <time>2022-08-10T08:41:29Z</time>
      </trkpt>
      <trkpt lat="49.92734" lon="2.08612">
        <ele>110.7</ele>
        <time>2022-08-10T08:41:30Z</time>
      </trkpt>
      <trkpt lat="49.92732" lon="2.08614">
        <ele>110.7</ele>
        <time>2022-08-10T08:41:32Z</time>
      </trkpt>
      <trkpt lat="49.92731" lon="2.08615">
        <ele>110.7</ele>
        <time>2022-08-10T08:41:33Z</time>
      </trkpt>
      <trkpt lat="49.92729" lon="2.08616">
        <ele>110.7</ele>
        <time>2022-08-10T08:41:34Z</time>
      </trkpt>
      <trkpt lat="49.92728" lon="2.08616">
        <ele>110.7</ele>
        <time>2022-08-10T08:41:35Z</time>
      </trkpt>
      <trkpt lat="49.92727" lon="2.08617">
        <ele>110.7</ele>
        <time>2022-08-10T08:41:36Z</time>
      </trkpt>
      <trkpt lat="49.92726" lon="2.08617">
        <ele>110.6</ele>
        <time>2022-08-10T08:41:37Z</time>
      </trkpt>
      <trkpt lat="49.92725" lon="2.08618">
        <ele>110.6</ele>
        <time>2022-08-10T08:41:38Z</time>
      </trkpt>
      <trkpt lat="49.92725" lon="2.08617">
        <ele>110.6</ele>
        <time>2022-08-10T08:41:40Z</time>
      </trkpt>
      <trkpt lat="49.92724" lon="2.08617">
        <ele>110.6</ele>
        <time>2022-08-10T08:41:41Z</time>
      </trkpt>
      <trkpt lat="49.92722" lon="2.08618">
        <ele>110.6</ele>
        <time>2022-08-10T08:41:42Z</time>
      </trkpt>
      <trkpt lat="49.92721" lon="2.08619">
        <ele>110.6</ele>
        <time>2022-08-10T08:41:43Z</time>
      </trkpt>
      <trkpt lat="49.92721" lon="2.08619">
        <ele>110.6</ele>
        <time>2022-08-10T08:41:44Z</time>
      </trkpt>
      <trkpt lat="49.92719" lon="2.08619">
        <ele>110.6</ele>
        <time>2022-08-10T08:41:45Z</time>
      </trkpt>
      <trkpt lat="49.92718" lon="2.08619">
        <ele>110.6</ele>
        <time>2022-08-10T08:41:46Z</time>
      </trkpt>
      <trkpt lat="49.92718" lon="2.08618">
        <ele>110.5</ele>
        <time>2022-08-10T08:41:48Z</time>
      </trkpt>
      <trkpt lat="49.92717" lon="2.08619">
        <ele>110.5</ele>
        <time>2022-08-10T08:41:49Z</time>
      </trkpt>
      <trkpt lat="49.92716" lon="2.08619">
        <ele>110.5</ele>
        <time>2022-08-10T08:41:50Z</time>
      </trkpt>
      <trkpt lat="49.92715" lon="2.0862">
        <ele>110.5</ele>
        <time>2022-08-10T08:41:51Z</time>
      </trkpt>
      <trkpt lat="49.92714" lon="2.08621">
        <ele>110.5</ele>
        <time>2022-08-10T08:41:52Z</time>
      </trkpt>
      <trkpt lat="49.92714" lon="2.08621">
        <ele>110.5</ele>
        <time>2022-08-10T08:41:53Z</time>
      </trkpt>
      <trkpt lat="49.92713" lon="2.08621">
        <ele>110.5</ele>
        <time>2022-08-10T08:41:55Z</time>
      </trkpt>
      <trkpt lat="49.92713" lon="2.08621">
        <ele>110.5</ele>
        <time>2022-08-10T08:41:56Z</time>
      </trkpt>
      <trkpt lat="49.92713" lon="2.08622">
        <ele>110.5</ele>
        <time>2022-08-10T08:41:57Z</time>
      </trkpt>
      <trkpt lat="49.92712" lon="2.08623">
        <ele>110.5</ele>
        <time>2022-08-10T08:41:58Z</time>
      </trkpt>
      <trkpt lat="49.92711" lon="2.08624">
        <ele>110.5</ele>
        <time>2022-08-10T08:41:59Z</time>
      </trkpt>
      <trkpt lat="49.9271" lon="2.08624">
        <ele>110.5</ele>
        <time>2022-08-10T08:42:00Z</time>
      </trkpt>
      <trkpt lat="49.9271" lon="2.08624">
        <ele>110.5</ele>
        <time>2022-08-10T08:42:02Z</time>
      </trkpt>
      <trkpt lat="49.92709" lon="2.08625">
        <ele>110.4</ele>
        <time>2022-08-10T08:42:03Z</time>
      </trkpt>
      <trkpt lat="49.92709" lon="2.08625">
        <ele>110.4</ele>
        <time>2022-08-10T08:42:04Z</time>
      </trkpt>
      <trkpt lat="49.92708" lon="2.08626">
        <ele>110.4</ele>
        <time>2022-08-10T08:42:05Z</time>
      </trkpt>
      <trkpt lat="49.92708" lon="2.08626">
        <ele>110.4</ele>
        <time>2022-08-10T08:42:07Z</time>
      </trkpt>
      <trkpt lat="49.92707" lon="2.08626">
        <ele>110.4</ele>
        <time>2022-08-10T08:42:08Z</time>
      </trkpt>
      <trkpt lat="49.92707" lon="2.08627">
        <ele>110.4</ele>
        <time>2022-08-10T08:42:09Z</time>
      </trkpt>
      <trkpt lat="49.92706" lon="2.08627">
        <ele>110.4</ele>
        <time>2022-08-10T08:42:10Z</time>
      </trkpt>
      <trkpt lat="49.92705" lon="2.08627">
        <ele>110.4</ele>
        <time>2022-08-10T08:42:12Z</time>
      </trkpt>
      <trkpt lat="49.92705" lon="2.08628">
        <ele>110.4</ele>
        <time>2022-08-10T08:42:13Z</time>
      </trkpt>
      <trkpt lat="49.92704" lon="2.08628">
        <ele>110.4</ele>
        <time>2022-08-10T08:42:14Z</time>
      </trkpt>
      <trkpt lat="49.92704" lon="2.08629">
        <ele>110.4</ele>
        <time>2022-08-10T08:42:15Z</time>
      </trkpt>
      <trkpt lat="49.92703" lon="2.0863">
        <ele>110.4</ele>
        <time>2022-08-10T08:42:16Z</time>
      </trkpt>
      <trkpt lat="49.92703" lon="2.0863">
        <ele>110.4</ele>
        <time>2022-08-10T08:42:17Z</time>
      </trkpt>
      <trkpt lat="49.92703" lon="2.08631">
        <ele>110.4</ele>
        <time>2022-08-10T08:42:18Z</time>
      </trkpt>
      <trkpt lat="49.92704" lon="2.08632">
        <ele>110.4</ele>
        <time>2022-08-10T08:42:19Z</time>
      </trkpt>
      <trkpt lat="49.92703" lon="2.08631">
        <ele>110.4</ele>
        <time>2022-08-10T08:42:20Z</time>
      </trkpt>
      <trkpt lat="49.92703" lon="2.08631">
        <ele>110.4</ele>
        <time>2022-08-10T08:42:21Z</time>
      </trkpt>
      <trkpt lat="49.92703" lon="2.08631">
        <ele>110.4</ele>
        <time>2022-08-10T08:42:22Z</time>
      </trkpt>
      <trkpt lat="49.92703" lon="2.08631">
        <ele>110.3</ele>
        <time>2022-08-10T08:42:23Z</time>
      </trkpt>
      <trkpt lat="49.92703" lon="2.0863">
        <ele>110.3</ele>
        <time>2022-08-10T08:42:24Z</time>
      </trkpt>
      <trkpt lat="49.92703" lon="2.0863">
        <ele>110.3</ele>
        <time>2022-08-10T08:42:25Z</time>
      </trkpt>
      <trkpt lat="49.92703" lon="2.0863">
        <ele>110.3</ele>
        <time>2022-08-10T08:42:26Z</time>
      </trkpt>
      <trkpt lat="49.92703" lon="2.0863">
        <ele>110.3</ele>
        <time>2022-08-10T08:42:27Z</time>
      </trkpt>
      <trkpt lat="49.92702" lon="2.08631">
        <ele>110.3</ele>
        <time>2022-08-10T08:42:28Z</time>
      </trkpt>
      <trkpt lat="49.92701" lon="2.08631">
        <ele>110.3</ele>
        <time>2022-08-10T08:42:29Z</time>
      </trkpt>
      <trkpt lat="49.92699" lon="2.08632">
        <ele>110.3</ele>
        <time>2022-08-10T08:42:30Z</time>
      </trkpt>
      <trkpt lat="49.92698" lon="2.08632">
        <ele>110.3</ele>
        <time>2022-08-10T08:42:32Z</time>
      </trkpt>
      <trkpt lat="49.92697" lon="2.08632">
        <ele>110.3</ele>
        <time>2022-08-10T08:42:33Z</time>
      </trkpt>
      <trkpt lat="49.92696" lon="2.08632">
        <ele>110.3</ele>
        <time>2022-08-10T08:42:34Z</time>
      </trkpt>
      <trkpt lat="49.92695" lon="2.08633">
        <ele>110.2</ele>
        <time>2022-08-10T08:42:35Z</time>
      </trkpt>
      <trkpt lat="49.92694" lon="2.08633">
        <ele>110.2</ele>
        <time>2022-08-10T08:42:36Z</time>
      </trkpt>
      <trkpt lat="49.92693" lon="2.08634">
        <ele>110.2</ele>
        <time>2022-08-10T08:42:37Z</time>
      </trkpt>
      <trkpt lat="49.92693" lon="2.08634">
        <ele>110.2</ele>
        <time>2022-08-10T08:42:38Z</time>
      </trkpt>
      <trkpt lat="49.92692" lon="2.08635">
        <ele>110.2</ele>
        <time>2022-08-10T08:42:39Z</time>
      </trkpt>
      <trkpt lat="49.92691" lon="2.08636">
        <ele>110.2</ele>
        <time>2022-08-10T08:42:40Z</time>
      </trkpt>
      <trkpt lat="49.9269" lon="2.08637">
        <ele>110.2</ele>
        <time>2022-08-10T08:42:41Z</time>
      </trkpt>
      <trkpt lat="49.92689" lon="2.08639">
        <ele>110.2</ele>
        <time>2022-08-10T08:42:42Z</time>
      </trkpt>
      <trkpt lat="49.92688" lon="2.0864">
        <ele>110.1</ele>
        <time>2022-08-10T08:42:44Z</time>
      </trkpt>
      <trkpt lat="49.92687" lon="2.08641">
        <ele>110.1</ele>
        <time>2022-08-10T08:42:45Z</time>
      </trkpt>
      <trkpt lat="49.92685" lon="2.08643">
        <ele>110.1</ele>
        <time>2022-08-10T08:42:46Z</time>
      </trkpt>
      <trkpt lat="49.92684" lon="2.08645">
        <ele>110.1</ele>
        <time>2022-08-10T08:42:47Z</time>
      </trkpt>
      <trkpt lat="49.92682" lon="2.08648">
        <ele>110</ele>
        <time>2022-08-10T08:42:49Z</time>
      </trkpt>
      <trkpt lat="49.92681" lon="2.0865">
        <ele>110</ele>
        <time>2022-08-10T08:42:50Z</time>
      </trkpt>
      <trkpt lat="49.9268" lon="2.08652">
        <ele>110</ele>
        <time>2022-08-10T08:42:51Z</time>
      </trkpt>
      <trkpt lat="49.92679" lon="2.08653">
        <ele>110</ele>
        <time>2022-08-10T08:42:52Z</time>
      </trkpt>
      <trkpt lat="49.9268" lon="2.08654">
        <ele>110</ele>
        <time>2022-08-10T08:42:53Z</time>
      </trkpt>
      <trkpt lat="49.92679" lon="2.08655">
        <ele>110</ele>
        <time>2022-08-10T08:42:54Z</time>
      </trkpt>
      <trkpt lat="49.92678" lon="2.08657">
        <ele>110</ele>
        <time>2022-08-10T08:42:55Z</time>
      </trkpt>
      <trkpt lat="49.92677" lon="2.08658">
        <ele>109.9</ele>
        <time>2022-08-10T08:42:56Z</time>
      </trkpt>
      <trkpt lat="49.92676" lon="2.08659">
        <ele>109.9</ele>
        <time>2022-08-10T08:42:57Z</time>
      </trkpt>
      <trkpt lat="49.92676" lon="2.0866">
        <ele>109.9</ele>
        <time>2022-08-10T08:42:58Z</time>
      </trkpt>
      <trkpt lat="49.92675" lon="2.0866">
        <ele>109.9</ele>
        <time>2022-08-10T08:43:00Z</time>
      </trkpt>
      <trkpt lat="49.92675" lon="2.08661">
        <ele>109.9</ele>
        <time>2022-08-10T08:43:01Z</time>
      </trkpt>
      <trkpt lat="49.92674" lon="2.08661">
        <ele>109.9</ele>
        <time>2022-08-10T08:43:02Z</time>
      </trkpt>
      <trkpt lat="49.92674" lon="2.08661">
        <ele>109.9</ele>
        <time>2022-08-10T08:43:03Z</time>
      </trkpt>
      <trkpt lat="49.92673" lon="2.08663">
        <ele>109.9</ele>
        <time>2022-08-10T08:43:04Z</time>
      </trkpt>
      <trkpt lat="49.92672" lon="2.08664">
        <ele>109.9</ele>
        <time>2022-08-10T08:43:05Z</time>
      </trkpt>
      <trkpt lat="49.92671" lon="2.08665">
        <ele>109.9</ele>
        <time>2022-08-10T08:43:06Z</time>
      </trkpt>
      <trkpt lat="49.9267" lon="2.08667">
        <ele>109.9</ele>
        <time>2022-08-10T08:43:07Z</time>
      </trkpt>
      <trkpt lat="49.92669" lon="2.08667">
        <ele>109.9</ele>
        <time>2022-08-10T08:43:08Z</time>
      </trkpt>
      <trkpt lat="49.92668" lon="2.08668">
        <ele>109.9</ele>
        <time>2022-08-10T08:43:10Z</time>
      </trkpt>
      <trkpt lat="49.92667" lon="2.08669">
        <ele>109.9</ele>
        <time>2022-08-10T08:43:11Z</time>
      </trkpt>
      <trkpt lat="49.92666" lon="2.0867">
        <ele>109.8</ele>
        <time>2022-08-10T08:43:12Z</time>
      </trkpt>
      <trkpt lat="49.92665" lon="2.08671">
        <ele>109.8</ele>
        <time>2022-08-10T08:43:13Z</time>
      </trkpt>
      <trkpt lat="49.92666" lon="2.08671">
        <ele>109.8</ele>
        <time>2022-08-10T08:43:14Z</time>
      </trkpt>
      <trkpt lat="49.92665" lon="2.08672">
        <ele>109.8</ele>
        <time>2022-08-10T08:43:15Z</time>
      </trkpt>
      <trkpt lat="49.92664" lon="2.08672">
        <ele>109.8</ele>
        <time>2022-08-10T08:43:16Z</time>
      </trkpt>
      <trkpt lat="49.92663" lon="2.08673">
        <ele>109.8</ele>
        <time>2022-08-10T08:43:17Z</time>
      </trkpt>
      <trkpt lat="49.92662" lon="2.08674">
        <ele>109.8</ele>
        <time>2022-08-10T08:43:18Z</time>
      </trkpt>
      <trkpt lat="49.92661" lon="2.08675">
        <ele>109.8</ele>
        <time>2022-08-10T08:43:19Z</time>
      </trkpt>
      <trkpt lat="49.92661" lon="2.08676">
        <ele>109.8</ele>
        <time>2022-08-10T08:43:20Z</time>
      </trkpt>
      <trkpt lat="49.9266" lon="2.08677">
        <ele>109.8</ele>
        <time>2022-08-10T08:43:22Z</time>
      </trkpt>
      <trkpt lat="49.92659" lon="2.08678">
        <ele>109.8</ele>
        <time>2022-08-10T08:43:23Z</time>
      </trkpt>
      <trkpt lat="49.92658" lon="2.08678">
        <ele>109.8</ele>
        <time>2022-08-10T08:43:24Z</time>
      </trkpt>
      <trkpt lat="49.92658" lon="2.08678">
        <ele>109.8</ele>
        <time>2022-08-10T08:43:25Z</time>
      </trkpt>
      <trkpt lat="49.92657" lon="2.08679">
        <ele>109.7</ele>
        <time>2022-08-10T08:43:26Z</time>
      </trkpt>
      <trkpt lat="49.92656" lon="2.08679">
        <ele>109.7</ele>
        <time>2022-08-10T08:43:27Z</time>
      </trkpt>
      <trkpt lat="49.92655" lon="2.0868">
        <ele>109.7</ele>
        <time>2022-08-10T08:43:28Z</time>
      </trkpt>
      <trkpt lat="49.92655" lon="2.0868">
        <ele>109.7</ele>
        <time>2022-08-10T08:43:29Z</time>
      </trkpt>
      <trkpt lat="49.92655" lon="2.0868">
        <ele>109.7</ele>
        <time>2022-08-10T08:43:30Z</time>
      </trkpt>
      <trkpt lat="49.92656" lon="2.0868">
        <ele>109.7</ele>
        <time>2022-08-10T08:43:31Z</time>
      </trkpt>
      <trkpt lat="49.92656" lon="2.0868">
        <ele>109.7</ele>
        <time>2022-08-10T08:43:32Z</time>
      </trkpt>
      <trkpt lat="49.92655" lon="2.0868">
        <ele>109.7</ele>
        <time>2022-08-10T08:43:33Z</time>
      </trkpt>
      <trkpt lat="49.92655" lon="2.0868">
        <ele>109.7</ele>
        <time>2022-08-10T08:43:34Z</time>
      </trkpt>
      <trkpt lat="49.92655" lon="2.0868">
        <ele>109.7</ele>
        <time>2022-08-10T08:43:35Z</time>
      </trkpt>
      <trkpt lat="49.92655" lon="2.0868">
        <ele>109.7</ele>
        <time>2022-08-10T08:43:36Z</time>
      </trkpt>
      <trkpt lat="49.92655" lon="2.0868">
        <ele>109.7</ele>
        <time>2022-08-10T08:43:37Z</time>
      </trkpt>
      <trkpt lat="49.92655" lon="2.0868">
        <ele>109.7</ele>
        <time>2022-08-10T08:43:38Z</time>
      </trkpt>
      <trkpt lat="49.92655" lon="2.0868">
        <ele>109.7</ele>
        <time>2022-08-10T08:43:39Z</time>
      </trkpt>
      <trkpt lat="49.92655" lon="2.0868">
        <ele>109.7</ele>
        <time>2022-08-10T08:43:40Z</time>
      </trkpt>
      <trkpt lat="49.92655" lon="2.0868">
        <ele>109.7</ele>
        <time>2022-08-10T08:43:41Z</time>
      </trkpt>
      <trkpt lat="49.92656" lon="2.0868">
        <ele>109.7</ele>
        <time>2022-08-10T08:43:42Z</time>
      </trkpt>
      <trkpt lat="49.92656" lon="2.0868">
        <ele>109.7</ele>
        <time>2022-08-10T08:43:43Z</time>
      </trkpt>
      <trkpt lat="49.92656" lon="2.0868">
        <ele>109.7</ele>
        <time>2022-08-10T08:43:44Z</time>
      </trkpt>
      <trkpt lat="49.92656" lon="2.0868">
        <ele>109.7</ele>
        <time>2022-08-10T08:43:45Z</time>
      </trkpt>
      <trkpt lat="49.92656" lon="2.0868">
        <ele>109.7</ele>
        <time>2022-08-10T08:43:46Z</time>
      </trkpt>
      <trkpt lat="49.92656" lon="2.0868">
        <ele>109.7</ele>
        <time>2022-08-10T08:43:47Z</time>
      </trkpt>
      <trkpt lat="49.92656" lon="2.0868">
        <ele>109.7</ele>
        <time>2022-08-10T08:43:48Z</time>
      </trkpt>
      <trkpt lat="49.92656" lon="2.0868">
        <ele>109.7</ele>
        <time>2022-08-10T08:43:49Z</time>
      </trkpt>
      <trkpt lat="49.92656" lon="2.0868">
        <ele>109.7</ele>
        <time>2022-08-10T08:43:50Z</time>
      </trkpt>
      <trkpt lat="49.92656" lon="2.0868">
        <ele>109.7</ele>
        <time>2022-08-10T08:43:51Z</time>
      </trkpt>
      <trkpt lat="49.92656" lon="2.0868">
        <ele>109.7</ele>
        <time>2022-08-10T08:43:52Z</time>
      </trkpt>
      <trkpt lat="49.92655" lon="2.08682">
        <ele>109.7</ele>
        <time>2022-08-10T08:43:53Z</time>
      </trkpt>
      <trkpt lat="49.92653" lon="2.08684">
        <ele>109.7</ele>
        <time>2022-08-10T08:43:54Z</time>
      </trkpt>
      <trkpt lat="49.92654" lon="2.08683">
        <ele>109.7</ele>
        <time>2022-08-10T08:43:55Z</time>
      </trkpt>
      <trkpt lat="49.92653" lon="2.08684">
        <ele>109.6</ele>
        <time>2022-08-10T08:43:56Z</time>
      </trkpt>
      <trkpt lat="49.92652" lon="2.08685">
        <ele>109.6</ele>
        <time>2022-08-10T08:43:57Z</time>
      </trkpt>
      <trkpt lat="49.9265" lon="2.08688">
        <ele>109.6</ele>
        <time>2022-08-10T08:43:58Z</time>
      </trkpt>
      <trkpt lat="49.9265" lon="2.0869">
        <ele>109.6</ele>
        <time>2022-08-10T08:43:59Z</time>
      </trkpt>
      <trkpt lat="49.92648" lon="2.08693">
        <ele>109.6</ele>
        <time>2022-08-10T08:44:00Z</time>
      </trkpt>
      <trkpt lat="49.92647" lon="2.08694">
        <ele>109.6</ele>
        <time>2022-08-10T08:44:02Z</time>
      </trkpt>
      <trkpt lat="49.92646" lon="2.08695">
        <ele>109.6</ele>
        <time>2022-08-10T08:44:03Z</time>
      </trkpt>
      <trkpt lat="49.92646" lon="2.08696">
        <ele>109.6</ele>
        <time>2022-08-10T08:44:04Z</time>
      </trkpt>
      <trkpt lat="49.92645" lon="2.08698">
        <ele>109.5</ele>
        <time>2022-08-10T08:44:05Z</time>
      </trkpt>
      <trkpt lat="49.92643" lon="2.08698">
        <ele>109.5</ele>
        <time>2022-08-10T08:44:06Z</time>
      </trkpt>
      <trkpt lat="49.92642" lon="2.08698">
        <ele>109.5</ele>
        <time>2022-08-10T08:44:07Z</time>
      </trkpt>
      <trkpt lat="49.92641" lon="2.08698">
        <ele>109.5</ele>
        <time>2022-08-10T08:44:08Z</time>
      </trkpt>
      <trkpt lat="49.92639" lon="2.087">
        <ele>109.5</ele>
        <time>2022-08-10T08:44:10Z</time>
      </trkpt>
      <trkpt lat="49.92638" lon="2.08701">
        <ele>109.5</ele>
        <time>2022-08-10T08:44:11Z</time>
      </trkpt>
      <trkpt lat="49.92637" lon="2.08702">
        <ele>109.5</ele>
        <time>2022-08-10T08:44:12Z</time>
      </trkpt>
      <trkpt lat="49.92636" lon="2.08703">
        <ele>109.5</ele>
        <time>2022-08-10T08:44:13Z</time>
      </trkpt>
      <trkpt lat="49.92635" lon="2.08704">
        <ele>109.5</ele>
        <time>2022-08-10T08:44:14Z</time>
      </trkpt>
      <trkpt lat="49.92633" lon="2.08705">
        <ele>109.5</ele>
        <time>2022-08-10T08:44:15Z</time>
      </trkpt>
      <trkpt lat="49.92633" lon="2.08705">
        <ele>109.4</ele>
        <time>2022-08-10T08:44:17Z</time>
      </trkpt>
      <trkpt lat="49.92632" lon="2.08705">
        <ele>109.4</ele>
        <time>2022-08-10T08:44:18Z</time>
      </trkpt>
      <trkpt lat="49.92631" lon="2.08706">
        <ele>109.4</ele>
        <time>2022-08-10T08:44:19Z</time>
      </trkpt>
      <trkpt lat="49.9263" lon="2.08707">
        <ele>109.4</ele>
        <time>2022-08-10T08:44:20Z</time>
      </trkpt>
      <trkpt lat="49.92629" lon="2.08707">
        <ele>109.4</ele>
        <time>2022-08-10T08:44:21Z</time>
      </trkpt>
      <trkpt lat="49.92629" lon="2.08708">
        <ele>109.4</ele>
        <time>2022-08-10T08:44:22Z</time>
      </trkpt>
      <trkpt lat="49.92628" lon="2.08708">
        <ele>109.4</ele>
        <time>2022-08-10T08:44:23Z</time>
      </trkpt>
      <trkpt lat="49.92628" lon="2.08708">
        <ele>109.4</ele>
        <time>2022-08-10T08:44:24Z</time>
      </trkpt>
      <trkpt lat="49.92628" lon="2.08708">
        <ele>109.4</ele>
        <time>2022-08-10T08:44:25Z</time>
      </trkpt>
      <trkpt lat="49.92627" lon="2.08709">
        <ele>109.4</ele>
        <time>2022-08-10T08:44:26Z</time>
      </trkpt>
      <trkpt lat="49.92626" lon="2.0871">
        <ele>109.4</ele>
        <time>2022-08-10T08:44:27Z</time>
      </trkpt>
      <trkpt lat="49.92625" lon="2.0871">
        <ele>109.4</ele>
        <time>2022-08-10T08:44:29Z</time>
      </trkpt>
      <trkpt lat="49.92624" lon="2.0871">
        <ele>109.4</ele>
        <time>2022-08-10T08:44:30Z</time>
      </trkpt>
      <trkpt lat="49.92624" lon="2.0871">
        <ele>109.4</ele>
        <time>2022-08-10T08:44:31Z</time>
      </trkpt>
      <trkpt lat="49.92623" lon="2.08711">
        <ele>109.4</ele>
        <time>2022-08-10T08:44:32Z</time>
      </trkpt>
      <trkpt lat="49.92622" lon="2.08711">
        <ele>109.4</ele>
        <time>2022-08-10T08:44:34Z</time>
      </trkpt>
      <trkpt lat="49.92623" lon="2.0871">
        <ele>109.4</ele>
        <time>2022-08-10T08:44:35Z</time>
      </trkpt>
      <trkpt lat="49.92622" lon="2.0871">
        <ele>109.4</ele>
        <time>2022-08-10T08:44:36Z</time>
      </trkpt>
      <trkpt lat="49.92622" lon="2.0871">
        <ele>109.4</ele>
        <time>2022-08-10T08:44:37Z</time>
      </trkpt>
      <trkpt lat="49.92622" lon="2.08709">
        <ele>109.4</ele>
        <time>2022-08-10T08:44:38Z</time>
      </trkpt>
      <trkpt lat="49.92622" lon="2.08708">
        <ele>109.4</ele>
        <time>2022-08-10T08:44:39Z</time>
      </trkpt>
      <trkpt lat="49.92622" lon="2.08708">
        <ele>109.4</ele>
        <time>2022-08-10T08:44:40Z</time>
      </trkpt>
      <trkpt lat="49.92623" lon="2.08708">
        <ele>109.4</ele>
        <time>2022-08-10T08:44:41Z</time>
      </trkpt>
      <trkpt lat="49.92623" lon="2.08708">
        <ele>109.4</ele>
        <time>2022-08-10T08:44:42Z</time>
      </trkpt>
      <trkpt lat="49.92624" lon="2.08708">
        <ele>109.3</ele>
        <time>2022-08-10T08:44:43Z</time>
      </trkpt>
      <trkpt lat="49.92624" lon="2.08708">
        <ele>109.3</ele>
        <time>2022-08-10T08:44:44Z</time>
      </trkpt>
      <trkpt lat="49.92625" lon="2.08708">
        <ele>109.3</ele>
        <time>2022-08-10T08:44:45Z</time>
      </trkpt>
      <trkpt lat="49.92625" lon="2.08708">
        <ele>109.3</ele>
        <time>2022-08-10T08:44:46Z</time>
      </trkpt>
      <trkpt lat="49.92625" lon="2.08708">
        <ele>109.3</ele>
        <time>2022-08-10T08:44:47Z</time>
      </trkpt>
      <trkpt lat="49.92625" lon="2.08708">
        <ele>109.3</ele>
        <time>2022-08-10T08:44:48Z</time>
      </trkpt>
      <trkpt lat="49.92624" lon="2.08708">
        <ele>109.3</ele>
        <time>2022-08-10T08:44:49Z</time>
      </trkpt>
      <trkpt lat="49.92624" lon="2.08709">
        <ele>109.3</ele>
        <time>2022-08-10T08:44:50Z</time>
      </trkpt>
      <trkpt lat="49.92624" lon="2.08709">
        <ele>109.3</ele>
        <time>2022-08-10T08:44:51Z</time>
      </trkpt>
      <trkpt lat="49.92624" lon="2.08709">
        <ele>109.3</ele>
        <time>2022-08-10T08:44:52Z</time>
      </trkpt>
      <trkpt lat="49.92624" lon="2.08709">
        <ele>109.3</ele>
        <time>2022-08-10T08:44:53Z</time>
      </trkpt>
      <trkpt lat="49.92624" lon="2.08709">
        <ele>109.3</ele>
        <time>2022-08-10T08:44:54Z</time>
      </trkpt>
      <trkpt lat="49.92624" lon="2.0871">
        <ele>109.3</ele>
        <time>2022-08-10T08:44:55Z</time>
      </trkpt>
      <trkpt lat="49.92624" lon="2.0871">
        <ele>109.3</ele>
        <time>2022-08-10T08:44:56Z</time>
      </trkpt>
      <trkpt lat="49.92624" lon="2.0871">
        <ele>109.3</ele>
        <time>2022-08-10T08:44:57Z</time>
      </trkpt>
      <trkpt lat="49.92624" lon="2.0871">
        <ele>109.3</ele>
        <time>2022-08-10T08:44:58Z</time>
      </trkpt>
      <trkpt lat="49.92624" lon="2.0871">
        <ele>109.3</ele>
        <time>2022-08-10T08:44:59Z</time>
      </trkpt>
      <trkpt lat="49.92624" lon="2.08711">
        <ele>109.3</ele>
        <time>2022-08-10T08:45:00Z</time>
      </trkpt>
      <trkpt lat="49.92624" lon="2.08711">
        <ele>109.3</ele>
        <time>2022-08-10T08:45:01Z</time>
      </trkpt>
      <trkpt lat="49.92624" lon="2.08711">
        <ele>109.3</ele>
        <time>2022-08-10T08:45:02Z</time>
      </trkpt>
      <trkpt lat="49.92623" lon="2.08711">
        <ele>109.3</ele>
        <time>2022-08-10T08:45:03Z</time>
      </trkpt>
      <trkpt lat="49.92623" lon="2.08711">
        <ele>109.3</ele>
        <time>2022-08-10T08:45:04Z</time>
      </trkpt>
      <trkpt lat="49.92623" lon="2.08712">
        <ele>109.3</ele>
        <time>2022-08-10T08:45:05Z</time>
      </trkpt>
      <trkpt lat="49.92623" lon="2.08712">
        <ele>109.3</ele>
        <time>2022-08-10T08:45:06Z</time>
      </trkpt>
      <trkpt lat="49.92623" lon="2.08712">
        <ele>109.3</ele>
        <time>2022-08-10T08:45:07Z</time>
      </trkpt>
      <trkpt lat="49.92623" lon="2.08712">
        <ele>109.3</ele>
        <time>2022-08-10T08:45:08Z</time>
      </trkpt>
      <trkpt lat="49.92623" lon="2.08712">
        <ele>109.3</ele>
        <time>2022-08-10T08:45:09Z</time>
      </trkpt>
      <trkpt lat="49.92623" lon="2.08713">
        <ele>109.3</ele>
        <time>2022-08-10T08:45:10Z</time>
      </trkpt>
      <trkpt lat="49.92623" lon="2.08713">
        <ele>109.3</ele>
        <time>2022-08-10T08:45:11Z</time>
      </trkpt>
      <trkpt lat="49.92623" lon="2.08713">
        <ele>109.3</ele>
        <time>2022-08-10T08:45:12Z</time>
      </trkpt>
      <trkpt lat="49.92623" lon="2.08713">
        <ele>109.3</ele>
        <time>2022-08-10T08:45:13Z</time>
      </trkpt>
      <trkpt lat="49.92623" lon="2.08713">
        <ele>109.3</ele>
        <time>2022-08-10T08:45:14Z</time>
      </trkpt>
      <trkpt lat="49.92623" lon="2.08713">
        <ele>109.3</ele>
        <time>2022-08-10T08:45:15Z</time>
      </trkpt>
      <trkpt lat="49.92623" lon="2.08714">
        <ele>109.3</ele>
        <time>2022-08-10T08:45:16Z</time>
      </trkpt>
      <trkpt lat="49.92622" lon="2.08714">
        <ele>109.3</ele>
        <time>2022-08-10T08:45:17Z</time>
      </trkpt>
      <trkpt lat="49.92622" lon="2.08717">
        <ele>109.3</ele>
        <time>2022-08-10T08:45:19Z</time>
      </trkpt>
      <trkpt lat="49.92622" lon="2.08718">
        <ele>109.3</ele>
        <time>2022-08-10T08:45:20Z</time>
      </trkpt>
      <trkpt lat="49.92621" lon="2.08719">
        <ele>109.3</ele>
        <time>2022-08-10T08:45:21Z</time>
      </trkpt>
      <trkpt lat="49.92621" lon="2.08721">
        <ele>109.3</ele>
        <time>2022-08-10T08:45:22Z</time>
      </trkpt>
      <trkpt lat="49.9262" lon="2.08724">
        <ele>109.3</ele>
        <time>2022-08-10T08:45:23Z</time>
      </trkpt>
      <trkpt lat="49.92619" lon="2.08726">
        <ele>109.3</ele>
        <time>2022-08-10T08:45:24Z</time>
      </trkpt>
      <trkpt lat="49.92618" lon="2.08728">
        <ele>109.3</ele>
        <time>2022-08-10T08:45:25Z</time>
      </trkpt>
      <trkpt lat="49.92617" lon="2.0873">
        <ele>109.2</ele>
        <time>2022-08-10T08:45:26Z</time>
      </trkpt>
      <trkpt lat="49.92616" lon="2.08732">
        <ele>109.2</ele>
        <time>2022-08-10T08:45:27Z</time>
      </trkpt>
      <trkpt lat="49.92616" lon="2.08733">
        <ele>109.2</ele>
        <time>2022-08-10T08:45:28Z</time>
      </trkpt>
      <trkpt lat="49.92615" lon="2.08735">
        <ele>109.2</ele>
        <time>2022-08-10T08:45:29Z</time>
      </trkpt>
      <trkpt lat="49.92614" lon="2.08736">
        <ele>109.2</ele>
        <time>2022-08-10T08:45:31Z</time>
      </trkpt>
      <trkpt lat="49.92613" lon="2.08738">
        <ele>109.2</ele>
        <time>2022-08-10T08:45:32Z</time>
      </trkpt>
      <trkpt lat="49.92612" lon="2.0874">
        <ele>109.2</ele>
        <time>2022-08-10T08:45:33Z</time>
      </trkpt>
      <trkpt lat="49.92611" lon="2.08742">
        <ele>109.2</ele>
        <time>2022-08-10T08:45:34Z</time>
      </trkpt>
      <trkpt lat="49.9261" lon="2.08743">
        <ele>109.2</ele>
        <time>2022-08-10T08:45:35Z</time>
      </trkpt>
      <trkpt lat="49.92609" lon="2.08744">
        <ele>109.2</ele>
        <time>2022-08-10T08:45:36Z</time>
      </trkpt>
      <trkpt lat="49.92608" lon="2.08745">
        <ele>109.2</ele>
        <time>2022-08-10T08:45:37Z</time>
      </trkpt>
      <trkpt lat="49.92607" lon="2.08747">
        <ele>109.2</ele>
        <time>2022-08-10T08:45:38Z</time>
      </trkpt>
      <trkpt lat="49.92607" lon="2.08748">
        <ele>109.2</ele>
        <time>2022-08-10T08:45:39Z</time>
      </trkpt>
      <trkpt lat="49.92606" lon="2.0875">
        <ele>109.2</ele>
        <time>2022-08-10T08:45:40Z</time>
      </trkpt>
      <trkpt lat="49.92605" lon="2.08751">
        <ele>109.1</ele>
        <time>2022-08-10T08:45:41Z</time>
      </trkpt>
      <trkpt lat="49.92604" lon="2.08753">
        <ele>109.1</ele>
        <time>2022-08-10T08:45:43Z</time>
      </trkpt>
      <trkpt lat="49.92603" lon="2.08755">
        <ele>109.1</ele>
        <time>2022-08-10T08:45:44Z</time>
      </trkpt>
      <trkpt lat="49.92602" lon="2.08757">
        <ele>109.1</ele>
        <time>2022-08-10T08:45:45Z</time>
      </trkpt>
      <trkpt lat="49.92601" lon="2.08759">
        <ele>109.1</ele>
        <time>2022-08-10T08:45:46Z</time>
      </trkpt>
      <trkpt lat="49.926" lon="2.08761">
        <ele>109.1</ele>
        <time>2022-08-10T08:45:47Z</time>
      </trkpt>
      <trkpt lat="49.92599" lon="2.08764">
        <ele>109.1</ele>
        <time>2022-08-10T08:45:48Z</time>
      </trkpt>
      <trkpt lat="49.92598" lon="2.08765">
        <ele>109</ele>
        <time>2022-08-10T08:45:49Z</time>
      </trkpt>
      <trkpt lat="49.92597" lon="2.08767">
        <ele>109</ele>
        <time>2022-08-10T08:45:50Z</time>
      </trkpt>
      <trkpt lat="49.92596" lon="2.0877">
        <ele>109</ele>
        <time>2022-08-10T08:45:52Z</time>
      </trkpt>
      <trkpt lat="49.92596" lon="2.08772">
        <ele>109</ele>
        <time>2022-08-10T08:45:53Z</time>
      </trkpt>
      <trkpt lat="49.92595" lon="2.08774">
        <ele>109</ele>
        <time>2022-08-10T08:45:54Z</time>
      </trkpt>
      <trkpt lat="49.92594" lon="2.08777">
        <ele>109</ele>
        <time>2022-08-10T08:45:55Z</time>
      </trkpt>
      <trkpt lat="49.92593" lon="2.08778">
        <ele>109</ele>
        <time>2022-08-10T08:45:56Z</time>
      </trkpt>
      <trkpt lat="49.92593" lon="2.08779">
        <ele>108.9</ele>
        <time>2022-08-10T08:45:57Z</time>
      </trkpt>
      <trkpt lat="49.92591" lon="2.08782">
        <ele>108.9</ele>
        <time>2022-08-10T08:45:58Z</time>
      </trkpt>
      <trkpt lat="49.92591" lon="2.08783">
        <ele>108.9</ele>
        <time>2022-08-10T08:45:59Z</time>
      </trkpt>
      <trkpt lat="49.9259" lon="2.08785">
        <ele>108.9</ele>
        <time>2022-08-10T08:46:00Z</time>
      </trkpt>
      <trkpt lat="49.92589" lon="2.08787">
        <ele>108.9</ele>
        <time>2022-08-10T08:46:01Z</time>
      </trkpt>
      <trkpt lat="49.92588" lon="2.08788">
        <ele>108.9</ele>
        <time>2022-08-10T08:46:03Z</time>
      </trkpt>
      <trkpt lat="49.92587" lon="2.0879">
        <ele>108.9</ele>
        <time>2022-08-10T08:46:04Z</time>
      </trkpt>
      <trkpt lat="49.92587" lon="2.08791">
        <ele>108.9</ele>
        <time>2022-08-10T08:46:05Z</time>
      </trkpt>
      <trkpt lat="49.92586" lon="2.08793">
        <ele>108.8</ele>
        <time>2022-08-10T08:46:06Z</time>
      </trkpt>
      <trkpt lat="49.92585" lon="2.08795">
        <ele>108.8</ele>
        <time>2022-08-10T08:46:07Z</time>
      </trkpt>
      <trkpt lat="49.92584" lon="2.08796">
        <ele>108.8</ele>
        <time>2022-08-10T08:46:08Z</time>
      </trkpt>
      <trkpt lat="49.92584" lon="2.08797">
        <ele>108.8</ele>
        <time>2022-08-10T08:46:09Z</time>
      </trkpt>
      <trkpt lat="49.92583" lon="2.08798">
        <ele>108.8</ele>
        <time>2022-08-10T08:46:10Z</time>
      </trkpt>
      <trkpt lat="49.92582" lon="2.088">
        <ele>108.8</ele>
        <time>2022-08-10T08:46:11Z</time>
      </trkpt>
      <trkpt lat="49.92582" lon="2.08801">
        <ele>108.8</ele>
        <time>2022-08-10T08:46:12Z</time>
      </trkpt>
      <trkpt lat="49.92581" lon="2.08803">
        <ele>108.7</ele>
        <time>2022-08-10T08:46:13Z</time>
      </trkpt>
      <trkpt lat="49.9258" lon="2.08804">
        <ele>108.7</ele>
        <time>2022-08-10T08:46:15Z</time>
      </trkpt>
      <trkpt lat="49.92579" lon="2.08805">
        <ele>108.7</ele>
        <time>2022-08-10T08:46:16Z</time>
      </trkpt>
      <trkpt lat="49.92578" lon="2.08807">
        <ele>108.7</ele>
        <time>2022-08-10T08:46:17Z</time>
      </trkpt>
      <trkpt lat="49.92577" lon="2.08808">
        <ele>108.7</ele>
        <time>2022-08-10T08:46:18Z</time>
      </trkpt>
      <trkpt lat="49.92577" lon="2.08809">
        <ele>108.7</ele>
        <time>2022-08-10T08:46:19Z</time>
      </trkpt>
      <trkpt lat="49.92576" lon="2.0881">
        <ele>108.7</ele>
        <time>2022-08-10T08:46:20Z</time>
      </trkpt>
      <trkpt lat="49.92575" lon="2.08811">
        <ele>108.7</ele>
        <time>2022-08-10T08:46:21Z</time>
      </trkpt>
      <trkpt lat="49.92574" lon="2.08812">
        <ele>108.6</ele>
        <time>2022-08-10T08:46:22Z</time>
      </trkpt>
      <trkpt lat="49.92572" lon="2.08815">
        <ele>108.6</ele>
        <time>2022-08-10T08:46:23Z</time>
      </trkpt>
      <trkpt lat="49.92572" lon="2.08815">
        <ele>108.6</ele>
        <time>2022-08-10T08:46:25Z</time>
      </trkpt>
      <trkpt lat="49.92571" lon="2.08816">
        <ele>108.6</ele>
        <time>2022-08-10T08:46:26Z</time>
      </trkpt>
      <trkpt lat="49.9257" lon="2.08817">
        <ele>108.6</ele>
        <time>2022-08-10T08:46:27Z</time>
      </trkpt>
      <trkpt lat="49.92569" lon="2.08819">
        <ele>108.5</ele>
        <time>2022-08-10T08:46:28Z</time>
      </trkpt>
      <trkpt lat="49.92569" lon="2.0882">
        <ele>108.5</ele>
        <time>2022-08-10T08:46:29Z</time>
      </trkpt>
      <trkpt lat="49.92568" lon="2.08821">
        <ele>108.5</ele>
        <time>2022-08-10T08:46:30Z</time>
      </trkpt>
      <trkpt lat="49.92567" lon="2.08822">
        <ele>108.5</ele>
        <time>2022-08-10T08:46:32Z</time>
      </trkpt>
      <trkpt lat="49.92567" lon="2.08822">
        <ele>108.5</ele>
        <time>2022-08-10T08:46:33Z</time>
      </trkpt>
      <trkpt lat="49.92566" lon="2.08823">
        <ele>108.5</ele>
        <time>2022-08-10T08:46:34Z</time>
      </trkpt>
      <trkpt lat="49.92565" lon="2.08824">
        <ele>108.5</ele>
        <time>2022-08-10T08:46:35Z</time>
      </trkpt>
      <trkpt lat="49.92565" lon="2.08824">
        <ele>108.4</ele>
        <time>2022-08-10T08:46:36Z</time>
      </trkpt>
      <trkpt lat="49.92564" lon="2.08825">
        <ele>108.4</ele>
        <time>2022-08-10T08:46:37Z</time>
      </trkpt>
      <trkpt lat="49.92563" lon="2.08826">
        <ele>108.4</ele>
        <time>2022-08-10T08:46:38Z</time>
      </trkpt>
      <trkpt lat="49.92562" lon="2.08827">
        <ele>108.4</ele>
        <time>2022-08-10T08:46:39Z</time>
      </trkpt>
      <trkpt lat="49.92562" lon="2.08828">
        <ele>108.4</ele>
        <time>2022-08-10T08:46:40Z</time>
      </trkpt>
      <trkpt lat="49.92561" lon="2.08828">
        <ele>108.4</ele>
        <time>2022-08-10T08:46:41Z</time>
      </trkpt>
      <trkpt lat="49.9256" lon="2.08829">
        <ele>108.3</ele>
        <time>2022-08-10T08:46:42Z</time>
      </trkpt>
      <trkpt lat="49.92559" lon="2.08831">
        <ele>108.3</ele>
        <time>2022-08-10T08:46:44Z</time>
      </trkpt>
      <trkpt lat="49.92558" lon="2.08832">
        <ele>108.3</ele>
        <time>2022-08-10T08:46:45Z</time>
      </trkpt>
      <trkpt lat="49.92558" lon="2.08832">
        <ele>108.3</ele>
        <time>2022-08-10T08:46:46Z</time>
      </trkpt>
      <trkpt lat="49.92558" lon="2.08833">
        <ele>108.3</ele>
        <time>2022-08-10T08:46:47Z</time>
      </trkpt>
      <trkpt lat="49.92557" lon="2.08834">
        <ele>108.3</ele>
        <time>2022-08-10T08:46:48Z</time>
      </trkpt>
      <trkpt lat="49.92557" lon="2.08835">
        <ele>108.2</ele>
        <time>2022-08-10T08:46:49Z</time>
      </trkpt>
      <trkpt lat="49.92556" lon="2.08836">
        <ele>108.2</ele>
        <time>2022-08-10T08:46:50Z</time>
      </trkpt>
      <trkpt lat="49.92556" lon="2.08837">
        <ele>108.2</ele>
        <time>2022-08-10T08:46:51Z</time>
      </trkpt>
      <trkpt lat="49.92555" lon="2.08838">
        <ele>108.2</ele>
        <time>2022-08-10T08:46:52Z</time>
      </trkpt>
      <trkpt lat="49.92554" lon="2.0884">
        <ele>108.2</ele>
        <time>2022-08-10T08:46:54Z</time>
      </trkpt>
      <trkpt lat="49.92554" lon="2.0884">
        <ele>108.2</ele>
        <time>2022-08-10T08:46:55Z</time>
      </trkpt>
      <trkpt lat="49.92554" lon="2.08841">
        <ele>108.1</ele>
        <time>2022-08-10T08:46:56Z</time>
      </trkpt>
      <trkpt lat="49.92555" lon="2.08841">
        <ele>108.1</ele>
        <time>2022-08-10T08:46:57Z</time>
      </trkpt>
      <trkpt lat="49.92555" lon="2.08842">
        <ele>108.1</ele>
        <time>2022-08-10T08:46:58Z</time>
      </trkpt>
      <trkpt lat="49.92554" lon="2.08843">
        <ele>108.1</ele>
        <time>2022-08-10T08:46:59Z</time>
      </trkpt>
      <trkpt lat="49.92554" lon="2.08843">
        <ele>108.1</ele>
        <time>2022-08-10T08:47:00Z</time>
      </trkpt>
      <trkpt lat="49.92553" lon="2.08844">
        <ele>108.1</ele>
        <time>2022-08-10T08:47:01Z</time>
      </trkpt>
      <trkpt lat="49.92552" lon="2.08845">
        <ele>108</ele>
        <time>2022-08-10T08:47:02Z</time>
      </trkpt>
      <trkpt lat="49.92551" lon="2.08846">
        <ele>108</ele>
        <time>2022-08-10T08:47:03Z</time>
      </trkpt>
      <trkpt lat="49.92551" lon="2.08847">
        <ele>108</ele>
        <time>2022-08-10T08:47:05Z</time>
      </trkpt>
      <trkpt lat="49.9255" lon="2.08848">
        <ele>108</ele>
        <time>2022-08-10T08:47:06Z</time>
      </trkpt>
      <trkpt lat="49.9255" lon="2.08848">
        <ele>108</ele>
        <time>2022-08-10T08:47:07Z</time>
      </trkpt>
      <trkpt lat="49.92549" lon="2.08848">
        <ele>107.9</ele>
        <time>2022-08-10T08:47:08Z</time>
      </trkpt>
      <trkpt lat="49.92549" lon="2.08849">
        <ele>107.9</ele>
        <time>2022-08-10T08:47:09Z</time>
      </trkpt>
      <trkpt lat="49.92548" lon="2.08849">
        <ele>107.9</ele>
        <time>2022-08-10T08:47:10Z</time>
      </trkpt>
      <trkpt lat="49.92548" lon="2.0885">
        <ele>107.9</ele>
        <time>2022-08-10T08:47:11Z</time>
      </trkpt>
      <trkpt lat="49.92547" lon="2.08851">
        <ele>107.9</ele>
        <time>2022-08-10T08:47:12Z</time>
      </trkpt>
      <trkpt lat="49.92546" lon="2.08852">
        <ele>107.8</ele>
        <time>2022-08-10T08:47:13Z</time>
      </trkpt>
      <trkpt lat="49.92544" lon="2.08854">
        <ele>107.8</ele>
        <time>2022-08-10T08:47:14Z</time>
      </trkpt>
      <trkpt lat="49.92543" lon="2.08855">
        <ele>107.7</ele>
        <time>2022-08-10T08:47:15Z</time>
      </trkpt>
      <trkpt lat="49.92542" lon="2.08856">
        <ele>107.7</ele>
        <time>2022-08-10T08:47:17Z</time>
      </trkpt>
      <trkpt lat="49.92541" lon="2.08857">
        <ele>107.6</ele>
        <time>2022-08-10T08:47:18Z</time>
      </trkpt>
      <trkpt lat="49.9254" lon="2.08858">
        <ele>107.6</ele>
        <time>2022-08-10T08:47:19Z</time>
      </trkpt>
      <trkpt lat="49.92538" lon="2.08858">
        <ele>107.5</ele>
        <time>2022-08-10T08:47:20Z</time>
      </trkpt>
      <trkpt lat="49.92537" lon="2.08859">
        <ele>107.5</ele>
        <time>2022-08-10T08:47:21Z</time>
      </trkpt>
      <trkpt lat="49.92536" lon="2.08859">
        <ele>107.5</ele>
        <time>2022-08-10T08:47:22Z</time>
      </trkpt>
      <trkpt lat="49.92535" lon="2.08859">
        <ele>107.4</ele>
        <time>2022-08-10T08:47:23Z</time>
      </trkpt>
      <trkpt lat="49.92533" lon="2.0886">
        <ele>107.4</ele>
        <time>2022-08-10T08:47:24Z</time>
      </trkpt>
      <trkpt lat="49.92531" lon="2.08862">
        <ele>107.3</ele>
        <time>2022-08-10T08:47:25Z</time>
      </trkpt>
      <trkpt lat="49.9253" lon="2.08862">
        <ele>107.3</ele>
        <time>2022-08-10T08:47:27Z</time>
      </trkpt>
      <trkpt lat="49.9253" lon="2.08863">
        <ele>107.2</ele>
        <time>2022-08-10T08:47:28Z</time>
      </trkpt>
      <trkpt lat="49.92528" lon="2.08864">
        <ele>107.2</ele>
        <time>2022-08-10T08:47:29Z</time>
      </trkpt>
      <trkpt lat="49.92527" lon="2.08864">
        <ele>107.1</ele>
        <time>2022-08-10T08:47:30Z</time>
      </trkpt>
      <trkpt lat="49.92526" lon="2.08864">
        <ele>107.1</ele>
        <time>2022-08-10T08:47:31Z</time>
      </trkpt>
      <trkpt lat="49.92524" lon="2.08865">
        <ele>107</ele>
        <time>2022-08-10T08:47:32Z</time>
      </trkpt>
      <trkpt lat="49.92522" lon="2.08866">
        <ele>107</ele>
        <time>2022-08-10T08:47:34Z</time>
      </trkpt>
      <trkpt lat="49.92521" lon="2.08867">
        <ele>106.9</ele>
        <time>2022-08-10T08:47:35Z</time>
      </trkpt>
      <trkpt lat="49.9252" lon="2.08868">
        <ele>106.9</ele>
        <time>2022-08-10T08:47:36Z</time>
      </trkpt>
      <trkpt lat="49.92519" lon="2.08868">
        <ele>106.8</ele>
        <time>2022-08-10T08:47:37Z</time>
      </trkpt>
      <trkpt lat="49.92518" lon="2.08869">
        <ele>106.8</ele>
        <time>2022-08-10T08:47:38Z</time>
      </trkpt>
      <trkpt lat="49.92516" lon="2.0887">
        <ele>106.7</ele>
        <time>2022-08-10T08:47:39Z</time>
      </trkpt>
      <trkpt lat="49.92515" lon="2.0887">
        <ele>106.7</ele>
        <time>2022-08-10T08:47:40Z</time>
      </trkpt>
      <trkpt lat="49.92514" lon="2.08871">
        <ele>106.6</ele>
        <time>2022-08-10T08:47:41Z</time>
      </trkpt>
      <trkpt lat="49.92512" lon="2.08872">
        <ele>106.6</ele>
        <time>2022-08-10T08:47:43Z</time>
      </trkpt>
      <trkpt lat="49.92509" lon="2.08872">
        <ele>106.4</ele>
        <time>2022-08-10T08:47:44Z</time>
      </trkpt>
      <trkpt lat="49.92509" lon="2.08872">
        <ele>106.4</ele>
        <time>2022-08-10T08:47:45Z</time>
      </trkpt>
      <trkpt lat="49.92507" lon="2.08872">
        <ele>106.3</ele>
        <time>2022-08-10T08:47:46Z</time>
      </trkpt>
      <trkpt lat="49.92505" lon="2.08872">
        <ele>106.3</ele>
        <time>2022-08-10T08:47:47Z</time>
      </trkpt>
      <trkpt lat="49.92502" lon="2.08873">
        <ele>106.1</ele>
        <time>2022-08-10T08:47:48Z</time>
      </trkpt>
      <trkpt lat="49.92498" lon="2.08873">
        <ele>106</ele>
        <time>2022-08-10T08:47:49Z</time>
      </trkpt>
      <trkpt lat="49.92497" lon="2.08873">
        <ele>105.9</ele>
        <time>2022-08-10T08:47:50Z</time>
      </trkpt>
      <trkpt lat="49.92493" lon="2.08872">
        <ele>105.7</ele>
        <time>2022-08-10T08:47:52Z</time>
      </trkpt>
      <trkpt lat="49.92491" lon="2.08871">
        <ele>105.7</ele>
        <time>2022-08-10T08:47:53Z</time>
      </trkpt>
      <trkpt lat="49.9249" lon="2.08871">
        <ele>105.6</ele>
        <time>2022-08-10T08:47:54Z</time>
      </trkpt>
      <trkpt lat="49.92488" lon="2.0887">
        <ele>105.5</ele>
        <time>2022-08-10T08:47:55Z</time>
      </trkpt>
      <trkpt lat="49.92487" lon="2.08869">
        <ele>105.5</ele>
        <time>2022-08-10T08:47:56Z</time>
      </trkpt>
      <trkpt lat="49.92486" lon="2.08869">
        <ele>105.5</ele>
        <time>2022-08-10T08:47:57Z</time>
      </trkpt>
      <trkpt lat="49.92486" lon="2.08869">
        <ele>105.4</ele>
        <time>2022-08-10T08:47:59Z</time>
      </trkpt>
      <trkpt lat="49.92485" lon="2.08869">
        <ele>105.4</ele>
        <time>2022-08-10T08:48:00Z</time>
      </trkpt>
      <trkpt lat="49.92484" lon="2.08869">
        <ele>105.4</ele>
        <time>2022-08-10T08:48:01Z</time>
      </trkpt>
      <trkpt lat="49.92484" lon="2.08868">
        <ele>105.4</ele>
        <time>2022-08-10T08:48:02Z</time>
      </trkpt>
      <trkpt lat="49.92483" lon="2.08868">
        <ele>105.3</ele>
        <time>2022-08-10T08:48:03Z</time>
      </trkpt>
      <trkpt lat="49.92484" lon="2.08867">
        <ele>105.3</ele>
        <time>2022-08-10T08:48:04Z</time>
      </trkpt>
      <trkpt lat="49.92484" lon="2.08867">
        <ele>105.3</ele>
        <time>2022-08-10T08:48:05Z</time>
      </trkpt>
      <trkpt lat="49.92484" lon="2.08867">
        <ele>105.3</ele>
        <time>2022-08-10T08:48:06Z</time>
      </trkpt>
      <trkpt lat="49.92485" lon="2.08867">
        <ele>105.3</ele>
        <time>2022-08-10T08:48:07Z</time>
      </trkpt>
      <trkpt lat="49.92485" lon="2.08867">
        <ele>105.3</ele>
        <time>2022-08-10T08:48:08Z</time>
      </trkpt>
      <trkpt lat="49.92486" lon="2.08867">
        <ele>105.3</ele>
        <time>2022-08-10T08:48:09Z</time>
      </trkpt>
      <trkpt lat="49.92486" lon="2.08867">
        <ele>105.3</ele>
        <time>2022-08-10T08:48:10Z</time>
      </trkpt>
      <trkpt lat="49.92486" lon="2.08867">
        <ele>105.2</ele>
        <time>2022-08-10T08:48:11Z</time>
      </trkpt>
      <trkpt lat="49.92486" lon="2.08867">
        <ele>105.2</ele>
        <time>2022-08-10T08:48:12Z</time>
      </trkpt>
      <trkpt lat="49.92486" lon="2.08867">
        <ele>105.2</ele>
        <time>2022-08-10T08:48:14Z</time>
      </trkpt>
      <trkpt lat="49.92486" lon="2.08867">
        <ele>105.2</ele>
        <time>2022-08-10T08:48:15Z</time>
      </trkpt>
      <trkpt lat="49.92486" lon="2.08868">
        <ele>105.2</ele>
        <time>2022-08-10T08:48:16Z</time>
      </trkpt>
      <trkpt lat="49.92486" lon="2.08868">
        <ele>105.2</ele>
        <time>2022-08-10T08:48:17Z</time>
      </trkpt>
      <trkpt lat="49.92486" lon="2.08868">
        <ele>105.2</ele>
        <time>2022-08-10T08:48:18Z</time>
      </trkpt>
      <trkpt lat="49.92486" lon="2.08869">
        <ele>105.2</ele>
        <time>2022-08-10T08:48:19Z</time>
      </trkpt>
      <trkpt lat="49.92486" lon="2.08869">
        <ele>105.2</ele>
        <time>2022-08-10T08:48:20Z</time>
      </trkpt>
      <trkpt lat="49.92485" lon="2.08869">
        <ele>105.2</ele>
        <time>2022-08-10T08:48:21Z</time>
      </trkpt>
      <trkpt lat="49.92485" lon="2.08869">
        <ele>105.2</ele>
        <time>2022-08-10T08:48:22Z</time>
      </trkpt>
      <trkpt lat="49.92485" lon="2.0887">
        <ele>105.1</ele>
        <time>2022-08-10T08:48:23Z</time>
      </trkpt>
      <trkpt lat="49.92485" lon="2.0887">
        <ele>105.1</ele>
        <time>2022-08-10T08:48:24Z</time>
      </trkpt>
      <trkpt lat="49.92484" lon="2.08871">
        <ele>105.1</ele>
        <time>2022-08-10T08:48:26Z</time>
      </trkpt>
      <trkpt lat="49.92484" lon="2.08871">
        <ele>105.1</ele>
        <time>2022-08-10T08:48:27Z</time>
      </trkpt>
      <trkpt lat="49.92484" lon="2.08872">
        <ele>105.1</ele>
        <time>2022-08-10T08:48:28Z</time>
      </trkpt>
      <trkpt lat="49.92484" lon="2.08872">
        <ele>105.1</ele>
        <time>2022-08-10T08:48:29Z</time>
      </trkpt>
      <trkpt lat="49.92484" lon="2.08872">
        <ele>105.1</ele>
        <time>2022-08-10T08:48:30Z</time>
      </trkpt>
      <trkpt lat="49.92485" lon="2.08873">
        <ele>105.1</ele>
        <time>2022-08-10T08:48:31Z</time>
      </trkpt>
      <trkpt lat="49.92485" lon="2.08873">
        <ele>105.1</ele>
        <time>2022-08-10T08:48:32Z</time>
      </trkpt>
      <trkpt lat="49.92485" lon="2.08872">
        <ele>105</ele>
        <time>2022-08-10T08:48:33Z</time>
      </trkpt>
      <trkpt lat="49.92485" lon="2.08872">
        <ele>105</ele>
        <time>2022-08-10T08:48:34Z</time>
      </trkpt>
      <trkpt lat="49.92485" lon="2.08872">
        <ele>105</ele>
        <time>2022-08-10T08:48:35Z</time>
      </trkpt>
      <trkpt lat="49.92485" lon="2.08872">
        <ele>105</ele>
        <time>2022-08-10T08:48:36Z</time>
      </trkpt>
      <trkpt lat="49.92485" lon="2.08872">
        <ele>105</ele>
        <time>2022-08-10T08:48:37Z</time>
      </trkpt>
      <trkpt lat="49.92486" lon="2.08873">
        <ele>105</ele>
        <time>2022-08-10T08:48:38Z</time>
      </trkpt>
      <trkpt lat="49.92486" lon="2.08873">
        <ele>105</ele>
        <time>2022-08-10T08:48:39Z</time>
      </trkpt>
      <trkpt lat="49.92486" lon="2.08873">
        <ele>105</ele>
        <time>2022-08-10T08:48:40Z</time>
      </trkpt>
      <trkpt lat="49.92486" lon="2.08873">
        <ele>105</ele>
        <time>2022-08-10T08:48:41Z</time>
      </trkpt>
      <trkpt lat="49.92486" lon="2.08873">
        <ele>105</ele>
        <time>2022-08-10T08:48:42Z</time>
      </trkpt>
      <trkpt lat="49.92486" lon="2.08873">
        <ele>105</ele>
        <time>2022-08-10T08:48:43Z</time>
      </trkpt>
      <trkpt lat="49.92486" lon="2.08873">
        <ele>105</ele>
        <time>2022-08-10T08:48:44Z</time>
      </trkpt>
      <trkpt lat="49.92487" lon="2.08873">
        <ele>104.9</ele>
        <time>2022-08-10T08:48:45Z</time>
      </trkpt>
      <trkpt lat="49.92487" lon="2.08873">
        <ele>104.9</ele>
        <time>2022-08-10T08:48:46Z</time>
      </trkpt>
      <trkpt lat="49.92487" lon="2.08873">
        <ele>104.9</ele>
        <time>2022-08-10T08:48:47Z</time>
      </trkpt>
      <trkpt lat="49.92487" lon="2.08873">
        <ele>104.9</ele>
        <time>2022-08-10T08:48:48Z</time>
      </trkpt>
      <trkpt lat="49.92487" lon="2.08872">
        <ele>104.9</ele>
        <time>2022-08-10T08:48:49Z</time>
      </trkpt>
      <trkpt lat="49.92487" lon="2.08872">
        <ele>104.9</ele>
        <time>2022-08-10T08:48:50Z</time>
      </trkpt>
      <trkpt lat="49.92488" lon="2.08872">
        <ele>104.9</ele>
        <time>2022-08-10T08:48:51Z</time>
      </trkpt>
      <trkpt lat="49.92488" lon="2.08872">
        <ele>104.9</ele>
        <time>2022-08-10T08:48:52Z</time>
      </trkpt>
      <trkpt lat="49.92488" lon="2.08872">
        <ele>104.9</ele>
        <time>2022-08-10T08:48:53Z</time>
      </trkpt>
      <trkpt lat="49.92488" lon="2.08872">
        <ele>104.9</ele>
        <time>2022-08-10T08:48:54Z</time>
      </trkpt>
      <trkpt lat="49.92488" lon="2.08872">
        <ele>104.9</ele>
        <time>2022-08-10T08:48:55Z</time>
      </trkpt>
      <trkpt lat="49.92489" lon="2.08872">
        <ele>104.9</ele>
        <time>2022-08-10T08:48:56Z</time>
      </trkpt>
      <trkpt lat="49.92489" lon="2.08872">
        <ele>104.9</ele>
        <time>2022-08-10T08:48:57Z</time>
      </trkpt>
      <trkpt lat="49.92489" lon="2.08872">
        <ele>104.9</ele>
        <time>2022-08-10T08:48:58Z</time>
      </trkpt>
      <trkpt lat="49.92489" lon="2.08872">
        <ele>104.8</ele>
        <time>2022-08-10T08:48:59Z</time>
      </trkpt>
      <trkpt lat="49.92489" lon="2.08872">
        <ele>104.8</ele>
        <time>2022-08-10T08:49:00Z</time>
      </trkpt>
      <trkpt lat="49.92489" lon="2.08872">
        <ele>104.8</ele>
        <time>2022-08-10T08:49:01Z</time>
      </trkpt>
      <trkpt lat="49.9249" lon="2.08872">
        <ele>104.8</ele>
        <time>2022-08-10T08:49:02Z</time>
      </trkpt>
      <trkpt lat="49.9249" lon="2.08872">
        <ele>104.8</ele>
        <time>2022-08-10T08:49:03Z</time>
      </trkpt>
      <trkpt lat="49.9249" lon="2.08872">
        <ele>104.8</ele>
        <time>2022-08-10T08:49:04Z</time>
      </trkpt>
      <trkpt lat="49.9249" lon="2.08872">
        <ele>104.8</ele>
        <time>2022-08-10T08:49:05Z</time>
      </trkpt>
      <trkpt lat="49.9249" lon="2.08872">
        <ele>104.8</ele>
        <time>2022-08-10T08:49:06Z</time>
      </trkpt>
      <trkpt lat="49.9249" lon="2.08872">
        <ele>104.8</ele>
        <time>2022-08-10T08:49:07Z</time>
      </trkpt>
      <trkpt lat="49.9249" lon="2.08872">
        <ele>104.8</ele>
        <time>2022-08-10T08:49:08Z</time>
      </trkpt>
      <trkpt lat="49.9249" lon="2.08872">
        <ele>104.8</ele>
        <time>2022-08-10T08:49:09Z</time>
      </trkpt>
      <trkpt lat="49.9249" lon="2.08872">
        <ele>104.8</ele>
        <time>2022-08-10T08:49:10Z</time>
      </trkpt>
      <trkpt lat="49.9249" lon="2.08872">
        <ele>104.8</ele>
        <time>2022-08-10T08:49:11Z</time>
      </trkpt>
      <trkpt lat="49.9249" lon="2.08872">
        <ele>104.8</ele>
        <time>2022-08-10T08:49:12Z</time>
      </trkpt>
      <trkpt lat="49.9249" lon="2.08872">
        <ele>104.8</ele>
        <time>2022-08-10T08:49:13Z</time>
      </trkpt>
      <trkpt lat="49.9249" lon="2.08872">
        <ele>104.8</ele>
        <time>2022-08-10T08:49:14Z</time>
      </trkpt>
      <trkpt lat="49.9249" lon="2.08872">
        <ele>104.8</ele>
        <time>2022-08-10T08:49:15Z</time>
      </trkpt>
      <trkpt lat="49.9249" lon="2.08872">
        <ele>104.8</ele>
        <time>2022-08-10T08:49:16Z</time>
      </trkpt>
      <trkpt lat="49.92491" lon="2.08873">
        <ele>104.8</ele>
        <time>2022-08-10T08:49:17Z</time>
      </trkpt>
      <trkpt lat="49.92491" lon="2.08873">
        <ele>104.8</ele>
        <time>2022-08-10T08:49:18Z</time>
      </trkpt>
      <trkpt lat="49.92491" lon="2.08873">
        <ele>104.8</ele>
        <time>2022-08-10T08:49:19Z</time>
      </trkpt>
      <trkpt lat="49.92491" lon="2.08873">
        <ele>104.8</ele>
        <time>2022-08-10T08:49:20Z</time>
      </trkpt>
      <trkpt lat="49.92491" lon="2.08872">
        <ele>104.8</ele>
        <time>2022-08-10T08:49:21Z</time>
      </trkpt>
      <trkpt lat="49.9249" lon="2.0887">
        <ele>104.7</ele>
        <time>2022-08-10T08:49:23Z</time>
      </trkpt>
      <trkpt lat="49.9249" lon="2.0887">
        <ele>104.7</ele>
        <time>2022-08-10T08:49:24Z</time>
      </trkpt>
      <trkpt lat="49.9249" lon="2.0887">
        <ele>104.7</ele>
        <time>2022-08-10T08:49:25Z</time>
      </trkpt>
      <trkpt lat="49.9249" lon="2.0887">
        <ele>104.7</ele>
        <time>2022-08-10T08:49:26Z</time>
      </trkpt>
      <trkpt lat="49.9249" lon="2.0887">
        <ele>104.7</ele>
        <time>2022-08-10T08:49:27Z</time>
      </trkpt>
      <trkpt lat="49.9249" lon="2.08871">
        <ele>104.7</ele>
        <time>2022-08-10T08:49:28Z</time>
      </trkpt>
      <trkpt lat="49.9249" lon="2.08871">
        <ele>104.7</ele>
        <time>2022-08-10T08:49:29Z</time>
      </trkpt>
      <trkpt lat="49.9249" lon="2.08871">
        <ele>104.7</ele>
        <time>2022-08-10T08:49:30Z</time>
      </trkpt>
      <trkpt lat="49.9249" lon="2.08871">
        <ele>104.7</ele>
        <time>2022-08-10T08:49:32Z</time>
      </trkpt>
      <trkpt lat="49.9249" lon="2.08871">
        <ele>104.7</ele>
        <time>2022-08-10T08:49:33Z</time>
      </trkpt>
      <trkpt lat="49.9249" lon="2.08871">
        <ele>104.7</ele>
        <time>2022-08-10T08:49:34Z</time>
      </trkpt>
      <trkpt lat="49.9249" lon="2.0887">
        <ele>104.7</ele>
        <time>2022-08-10T08:49:35Z</time>
      </trkpt>
      <trkpt lat="49.92489" lon="2.0887">
        <ele>104.6</ele>
        <time>2022-08-10T08:49:36Z</time>
      </trkpt>
      <trkpt lat="49.92488" lon="2.08871">
        <ele>104.6</ele>
        <time>2022-08-10T08:49:37Z</time>
      </trkpt>
      <trkpt lat="49.92487" lon="2.08872">
        <ele>104.6</ele>
        <time>2022-08-10T08:49:39Z</time>
      </trkpt>
      <trkpt lat="49.92487" lon="2.08872">
        <ele>104.6</ele>
        <time>2022-08-10T08:49:40Z</time>
      </trkpt>
      <trkpt lat="49.92487" lon="2.08872">
        <ele>104.6</ele>
        <time>2022-08-10T08:49:41Z</time>
      </trkpt>
      <trkpt lat="49.92487" lon="2.0887">
        <ele>104.6</ele>
        <time>2022-08-10T08:49:42Z</time>
      </trkpt>
      <trkpt lat="49.92487" lon="2.08869">
        <ele>104.5</ele>
        <time>2022-08-10T08:49:43Z</time>
      </trkpt>
      <trkpt lat="49.92487" lon="2.08868">
        <ele>104.5</ele>
        <time>2022-08-10T08:49:45Z</time>
      </trkpt>
      <trkpt lat="49.92486" lon="2.08867">
        <ele>104.5</ele>
        <time>2022-08-10T08:49:46Z</time>
      </trkpt>
      <trkpt lat="49.92483" lon="2.08868">
        <ele>104.4</ele>
        <time>2022-08-10T08:49:47Z</time>
      </trkpt>
      <trkpt lat="49.9248" lon="2.08868">
        <ele>104.3</ele>
        <time>2022-08-10T08:49:49Z</time>
      </trkpt>
      <trkpt lat="49.92478" lon="2.08869">
        <ele>104.3</ele>
        <time>2022-08-10T08:49:50Z</time>
      </trkpt>
      <trkpt lat="49.92477" lon="2.08868">
        <ele>104.3</ele>
        <time>2022-08-10T08:49:51Z</time>
      </trkpt>
      <trkpt lat="49.92475" lon="2.08868">
        <ele>104.2</ele>
        <time>2022-08-10T08:49:52Z</time>
      </trkpt>
      <trkpt lat="49.92473" lon="2.08867">
        <ele>104.2</ele>
        <time>2022-08-10T08:49:54Z</time>
      </trkpt>
      <trkpt lat="49.92471" lon="2.08867">
        <ele>104.1</ele>
        <time>2022-08-10T08:49:55Z</time>
      </trkpt>
      <trkpt lat="49.9247" lon="2.08867">
        <ele>104.1</ele>
        <time>2022-08-10T08:49:56Z</time>
      </trkpt>
      <trkpt lat="49.92467" lon="2.08868">
        <ele>104</ele>
        <time>2022-08-10T08:49:57Z</time>
      </trkpt>
      <trkpt lat="49.92466" lon="2.08869">
        <ele>103.9</ele>
        <time>2022-08-10T08:49:58Z</time>
      </trkpt>
      <trkpt lat="49.92464" lon="2.08869">
        <ele>103.9</ele>
        <time>2022-08-10T08:49:59Z</time>
      </trkpt>
      <trkpt lat="49.92464" lon="2.08867">
        <ele>103.9</ele>
        <time>2022-08-10T08:50:00Z</time>
      </trkpt>
      <trkpt lat="49.92463" lon="2.08866">
        <ele>103.8</ele>
        <time>2022-08-10T08:50:01Z</time>
      </trkpt>
      <trkpt lat="49.92462" lon="2.08865">
        <ele>103.8</ele>
        <time>2022-08-10T08:50:03Z</time>
      </trkpt>
      <trkpt lat="49.92462" lon="2.08865">
        <ele>103.8</ele>
        <time>2022-08-10T08:50:04Z</time>
      </trkpt>
      <trkpt lat="49.92461" lon="2.08864">
        <ele>103.8</ele>
        <time>2022-08-10T08:50:05Z</time>
      </trkpt>
      <trkpt lat="49.92461" lon="2.08864">
        <ele>103.8</ele>
        <time>2022-08-10T08:50:06Z</time>
      </trkpt>
      <trkpt lat="49.92461" lon="2.08864">
        <ele>103.8</ele>
        <time>2022-08-10T08:50:07Z</time>
      </trkpt>
      <trkpt lat="49.9246" lon="2.08863">
        <ele>103.7</ele>
        <time>2022-08-10T08:50:08Z</time>
      </trkpt>
      <trkpt lat="49.92459" lon="2.08863">
        <ele>103.7</ele>
        <time>2022-08-10T08:50:09Z</time>
      </trkpt>
      <trkpt lat="49.92459" lon="2.08863">
        <ele>103.7</ele>
        <time>2022-08-10T08:50:11Z</time>
      </trkpt>
      <trkpt lat="49.92458" lon="2.08862">
        <ele>103.7</ele>
        <time>2022-08-10T08:50:12Z</time>
      </trkpt>
      <trkpt lat="49.92458" lon="2.08862">
        <ele>103.7</ele>
        <time>2022-08-10T08:50:13Z</time>
      </trkpt>
      <trkpt lat="49.92457" lon="2.08862">
        <ele>103.7</ele>
        <time>2022-08-10T08:50:14Z</time>
      </trkpt>
      <trkpt lat="49.92457" lon="2.08863">
        <ele>103.6</ele>
        <time>2022-08-10T08:50:15Z</time>
      </trkpt>
      <trkpt lat="49.92456" lon="2.08864">
        <ele>103.6</ele>
        <time>2022-08-10T08:50:16Z</time>
      </trkpt>
      <trkpt lat="49.92456" lon="2.08865">
        <ele>103.6</ele>
        <time>2022-08-10T08:50:17Z</time>
      </trkpt>
      <trkpt lat="49.92455" lon="2.08866">
        <ele>103.6</ele>
        <time>2022-08-10T08:50:18Z</time>
      </trkpt>
      <trkpt lat="49.92454" lon="2.08867">
        <ele>103.5</ele>
        <time>2022-08-10T08:50:20Z</time>
      </trkpt>
      <trkpt lat="49.92454" lon="2.08867">
        <ele>103.5</ele>
        <time>2022-08-10T08:50:21Z</time>
      </trkpt>
      <trkpt lat="49.92453" lon="2.08868">
        <ele>103.5</ele>
        <time>2022-08-10T08:50:22Z</time>
      </trkpt>
      <trkpt lat="49.92453" lon="2.08869">
        <ele>103.5</ele>
        <time>2022-08-10T08:50:23Z</time>
      </trkpt>
      <trkpt lat="49.9245" lon="2.08869">
        <ele>103.4</ele>
        <time>2022-08-10T08:50:24Z</time>
      </trkpt>
      <trkpt lat="49.9245" lon="2.08869">
        <ele>103.4</ele>
        <time>2022-08-10T08:50:25Z</time>
      </trkpt>
      <trkpt lat="49.92449" lon="2.08869">
        <ele>103.4</ele>
        <time>2022-08-10T08:50:26Z</time>
      </trkpt>
      <trkpt lat="49.92448" lon="2.08868">
        <ele>103.3</ele>
        <time>2022-08-10T08:50:27Z</time>
      </trkpt>
      <trkpt lat="49.92446" lon="2.08869">
        <ele>103.3</ele>
        <time>2022-08-10T08:50:28Z</time>
      </trkpt>
      <trkpt lat="49.92443" lon="2.08869">
        <ele>103.2</ele>
        <time>2022-08-10T08:50:30Z</time>
      </trkpt>
      <trkpt lat="49.92442" lon="2.08869">
        <ele>103.2</ele>
        <time>2022-08-10T08:50:31Z</time>
      </trkpt>
      <trkpt lat="49.92439" lon="2.0887">
        <ele>103.1</ele>
        <time>2022-08-10T08:50:32Z</time>
      </trkpt>
      <trkpt lat="49.92438" lon="2.0887">
        <ele>103</ele>
        <time>2022-08-10T08:50:33Z</time>
      </trkpt>
      <trkpt lat="49.92435" lon="2.08871">
        <ele>103</ele>
        <time>2022-08-10T08:50:34Z</time>
      </trkpt>
      <trkpt lat="49.92434" lon="2.08871">
        <ele>102.9</ele>
        <time>2022-08-10T08:50:35Z</time>
      </trkpt>
      <trkpt lat="49.92431" lon="2.08871">
        <ele>102.8</ele>
        <time>2022-08-10T08:50:36Z</time>
      </trkpt>
      <trkpt lat="49.92427" lon="2.08872">
        <ele>102.7</ele>
        <time>2022-08-10T08:50:37Z</time>
      </trkpt>
      <trkpt lat="49.92426" lon="2.08872">
        <ele>102.7</ele>
        <time>2022-08-10T08:50:38Z</time>
      </trkpt>
      <trkpt lat="49.92423" lon="2.08872">
        <ele>102.6</ele>
        <time>2022-08-10T08:50:39Z</time>
      </trkpt>
      <trkpt lat="49.92422" lon="2.08872">
        <ele>102.6</ele>
        <time>2022-08-10T08:50:40Z</time>
      </trkpt>
      <trkpt lat="49.9242" lon="2.08871">
        <ele>102.5</ele>
        <time>2022-08-10T08:50:41Z</time>
      </trkpt>
      <trkpt lat="49.92419" lon="2.08871">
        <ele>102.5</ele>
        <time>2022-08-10T08:50:42Z</time>
      </trkpt>
      <trkpt lat="49.92418" lon="2.0887">
        <ele>102.4</ele>
        <time>2022-08-10T08:50:43Z</time>
      </trkpt>
      <trkpt lat="49.92416" lon="2.0887">
        <ele>102.4</ele>
        <time>2022-08-10T08:50:44Z</time>
      </trkpt>
      <trkpt lat="49.92415" lon="2.0887">
        <ele>102.3</ele>
        <time>2022-08-10T08:50:45Z</time>
      </trkpt>
      <trkpt lat="49.92413" lon="2.0887">
        <ele>102.3</ele>
        <time>2022-08-10T08:50:46Z</time>
      </trkpt>
      <trkpt lat="49.92412" lon="2.0887">
        <ele>102.2</ele>
        <time>2022-08-10T08:50:48Z</time>
      </trkpt>
      <trkpt lat="49.92411" lon="2.0887">
        <ele>102.2</ele>
        <time>2022-08-10T08:50:49Z</time>
      </trkpt>
      <trkpt lat="49.92411" lon="2.0887">
        <ele>102.2</ele>
        <time>2022-08-10T08:50:50Z</time>
      </trkpt>
      <trkpt lat="49.9241" lon="2.0887">
        <ele>102.2</ele>
        <time>2022-08-10T08:50:51Z</time>
      </trkpt>
      <trkpt lat="49.9241" lon="2.0887">
        <ele>102.1</ele>
        <time>2022-08-10T08:50:52Z</time>
      </trkpt>
      <trkpt lat="49.92409" lon="2.0887">
        <ele>102.1</ele>
        <time>2022-08-10T08:50:53Z</time>
      </trkpt>
      <trkpt lat="49.92408" lon="2.0887">
        <ele>102.1</ele>
        <time>2022-08-10T08:50:54Z</time>
      </trkpt>
      <trkpt lat="49.92408" lon="2.0887">
        <ele>102.1</ele>
        <time>2022-08-10T08:50:56Z</time>
      </trkpt>
      <trkpt lat="49.92407" lon="2.0887">
        <ele>102</ele>
        <time>2022-08-10T08:50:57Z</time>
      </trkpt>
      <trkpt lat="49.92407" lon="2.0887">
        <ele>102</ele>
        <time>2022-08-10T08:50:58Z</time>
      </trkpt>
      <trkpt lat="49.92406" lon="2.08869">
        <ele>102</ele>
        <time>2022-08-10T08:50:59Z</time>
      </trkpt>
      <trkpt lat="49.92406" lon="2.08869">
        <ele>102</ele>
        <time>2022-08-10T08:51:00Z</time>
      </trkpt>
      <trkpt lat="49.92406" lon="2.08869">
        <ele>101.9</ele>
        <time>2022-08-10T08:51:01Z</time>
      </trkpt>
      <trkpt lat="49.92406" lon="2.08869">
        <ele>101.9</ele>
        <time>2022-08-10T08:51:03Z</time>
      </trkpt>
      <trkpt lat="49.92405" lon="2.08869">
        <ele>101.9</ele>
        <time>2022-08-10T08:51:04Z</time>
      </trkpt>
      <trkpt lat="49.92404" lon="2.0887">
        <ele>101.9</ele>
        <time>2022-08-10T08:51:05Z</time>
      </trkpt>
      <trkpt lat="49.92404" lon="2.0887">
        <ele>101.8</ele>
        <time>2022-08-10T08:51:07Z</time>
      </trkpt>
      <trkpt lat="49.92403" lon="2.0887">
        <ele>101.8</ele>
        <time>2022-08-10T08:51:08Z</time>
      </trkpt>
      <trkpt lat="49.92403" lon="2.0887">
        <ele>101.8</ele>
        <time>2022-08-10T08:51:09Z</time>
      </trkpt>
      <trkpt lat="49.92402" lon="2.08869">
        <ele>101.8</ele>
        <time>2022-08-10T08:51:10Z</time>
      </trkpt>
      <trkpt lat="49.92402" lon="2.08869">
        <ele>101.7</ele>
        <time>2022-08-10T08:51:11Z</time>
      </trkpt>
      <trkpt lat="49.92401" lon="2.08869">
        <ele>101.7</ele>
        <time>2022-08-10T08:51:12Z</time>
      </trkpt>
      <trkpt lat="49.924" lon="2.08869">
        <ele>101.6</ele>
        <time>2022-08-10T08:51:13Z</time>
      </trkpt>
      <trkpt lat="49.92398" lon="2.08868">
        <ele>101.5</ele>
        <time>2022-08-10T08:51:15Z</time>
      </trkpt>
      <trkpt lat="49.92397" lon="2.08868">
        <ele>101.5</ele>
        <time>2022-08-10T08:51:16Z</time>
      </trkpt>
      <trkpt lat="49.92397" lon="2.08868">
        <ele>101.5</ele>
        <time>2022-08-10T08:51:17Z</time>
      </trkpt>
      <trkpt lat="49.92395" lon="2.08868">
        <ele>101.4</ele>
        <time>2022-08-10T08:51:18Z</time>
      </trkpt>
      <trkpt lat="49.92394" lon="2.08867">
        <ele>101.3</ele>
        <time>2022-08-10T08:51:19Z</time>
      </trkpt>
      <trkpt lat="49.92392" lon="2.08867">
        <ele>101.2</ele>
        <time>2022-08-10T08:51:20Z</time>
      </trkpt>
      <trkpt lat="49.92392" lon="2.08864">
        <ele>101.1</ele>
        <time>2022-08-10T08:51:22Z</time>
      </trkpt>
      <trkpt lat="49.92391" lon="2.08864">
        <ele>101</ele>
        <time>2022-08-10T08:51:23Z</time>
      </trkpt>
      <trkpt lat="49.9239" lon="2.08864">
        <ele>101</ele>
        <time>2022-08-10T08:51:24Z</time>
      </trkpt>
      <trkpt lat="49.92389" lon="2.08864">
        <ele>100.9</ele>
        <time>2022-08-10T08:51:25Z</time>
      </trkpt>
      <trkpt lat="49.92388" lon="2.08864">
        <ele>100.8</ele>
        <time>2022-08-10T08:51:26Z</time>
      </trkpt>
      <trkpt lat="49.92387" lon="2.08864">
        <ele>100.8</ele>
        <time>2022-08-10T08:51:28Z</time>
      </trkpt>
      <trkpt lat="49.92386" lon="2.08864">
        <ele>100.7</ele>
        <time>2022-08-10T08:51:29Z</time>
      </trkpt>
      <trkpt lat="49.92386" lon="2.08864">
        <ele>100.7</ele>
        <time>2022-08-10T08:51:30Z</time>
      </trkpt>
      <trkpt lat="49.92385" lon="2.08864">
        <ele>100.6</ele>
        <time>2022-08-10T08:51:31Z</time>
      </trkpt>
      <trkpt lat="49.92385" lon="2.08864">
        <ele>100.6</ele>
        <time>2022-08-10T08:51:32Z</time>
      </trkpt>
      <trkpt lat="49.92384" lon="2.08865">
        <ele>100.5</ele>
        <time>2022-08-10T08:51:33Z</time>
      </trkpt>
      <trkpt lat="49.92383" lon="2.08865">
        <ele>100.5</ele>
        <time>2022-08-10T08:51:34Z</time>
      </trkpt>
      <trkpt lat="49.92383" lon="2.08866">
        <ele>100.4</ele>
        <time>2022-08-10T08:51:35Z</time>
      </trkpt>
      <trkpt lat="49.92382" lon="2.08866">
        <ele>100.4</ele>
        <time>2022-08-10T08:51:36Z</time>
      </trkpt>
      <trkpt lat="49.92382" lon="2.08866">
        <ele>100.4</ele>
        <time>2022-08-10T08:51:37Z</time>
      </trkpt>
      <trkpt lat="49.92381" lon="2.08866">
        <ele>100.3</ele>
        <time>2022-08-10T08:51:38Z</time>
      </trkpt>
      <trkpt lat="49.9238" lon="2.08867">
        <ele>100.2</ele>
        <time>2022-08-10T08:51:39Z</time>
      </trkpt>
      <trkpt lat="49.9238" lon="2.08867">
        <ele>100.2</ele>
        <time>2022-08-10T08:51:40Z</time>
      </trkpt>
      <trkpt lat="49.9238" lon="2.0887">
        <ele>100</ele>
        <time>2022-08-10T08:51:41Z</time>
      </trkpt>
      <trkpt lat="49.92379" lon="2.0887">
        <ele>100</ele>
        <time>2022-08-10T08:51:43Z</time>
      </trkpt>
      <trkpt lat="49.92378" lon="2.08871">
        <ele>99.9</ele>
        <time>2022-08-10T08:51:44Z</time>
      </trkpt>
      <trkpt lat="49.92377" lon="2.08872">
        <ele>99.8</ele>
        <time>2022-08-10T08:51:45Z</time>
      </trkpt>
      <trkpt lat="49.92376" lon="2.08873">
        <ele>99.7</ele>
        <time>2022-08-10T08:51:46Z</time>
      </trkpt>
      <trkpt lat="49.92374" lon="2.08874">
        <ele>99.5</ele>
        <time>2022-08-10T08:51:47Z</time>
      </trkpt>
      <trkpt lat="49.92373" lon="2.08875">
        <ele>99.4</ele>
        <time>2022-08-10T08:51:48Z</time>
      </trkpt>
      <trkpt lat="49.92372" lon="2.08877">
        <ele>99.2</ele>
        <time>2022-08-10T08:51:50Z</time>
      </trkpt>
      <trkpt lat="49.9237" lon="2.08878">
        <ele>99.1</ele>
        <time>2022-08-10T08:51:51Z</time>
      </trkpt>
      <trkpt lat="49.92369" lon="2.08879">
        <ele>98.9</ele>
        <time>2022-08-10T08:51:52Z</time>
      </trkpt>
      <trkpt lat="49.92367" lon="2.08881">
        <ele>98.7</ele>
        <time>2022-08-10T08:51:53Z</time>
      </trkpt>
      <trkpt lat="49.92367" lon="2.08882">
        <ele>98.6</ele>
        <time>2022-08-10T08:51:54Z</time>
      </trkpt>
      <trkpt lat="49.92366" lon="2.08882">
        <ele>98.5</ele>
        <time>2022-08-10T08:51:55Z</time>
      </trkpt>
      <trkpt lat="49.92365" lon="2.08883">
        <ele>98.4</ele>
        <time>2022-08-10T08:51:56Z</time>
      </trkpt>
      <trkpt lat="49.92364" lon="2.08884">
        <ele>98.3</ele>
        <time>2022-08-10T08:51:58Z</time>
      </trkpt>
      <trkpt lat="49.92364" lon="2.08884">
        <ele>98.2</ele>
        <time>2022-08-10T08:51:59Z</time>
      </trkpt>
      <trkpt lat="49.92363" lon="2.08884">
        <ele>98.2</ele>
        <time>2022-08-10T08:52:00Z</time>
      </trkpt>
      <trkpt lat="49.92363" lon="2.08885">
        <ele>98.1</ele>
        <time>2022-08-10T08:52:01Z</time>
      </trkpt>
      <trkpt lat="49.92362" lon="2.08885">
        <ele>98</ele>
        <time>2022-08-10T08:52:02Z</time>
      </trkpt>
      <trkpt lat="49.92361" lon="2.08886">
        <ele>97.9</ele>
        <time>2022-08-10T08:52:03Z</time>
      </trkpt>
      <trkpt lat="49.9236" lon="2.08888">
        <ele>97.8</ele>
        <time>2022-08-10T08:52:05Z</time>
      </trkpt>
      <trkpt lat="49.92359" lon="2.08889">
        <ele>97.6</ele>
        <time>2022-08-10T08:52:06Z</time>
      </trkpt>
      <trkpt lat="49.92359" lon="2.0889">
        <ele>97.6</ele>
        <time>2022-08-10T08:52:07Z</time>
      </trkpt>
      <trkpt lat="49.92359" lon="2.0889">
        <ele>97.5</ele>
        <time>2022-08-10T08:52:08Z</time>
      </trkpt>
      <trkpt lat="49.92358" lon="2.08891">
        <ele>97.4</ele>
        <time>2022-08-10T08:52:09Z</time>
      </trkpt>
      <trkpt lat="49.92357" lon="2.08893">
        <ele>97.2</ele>
        <time>2022-08-10T08:52:10Z</time>
      </trkpt>
      <trkpt lat="49.92356" lon="2.08894">
        <ele>97.1</ele>
        <time>2022-08-10T08:52:12Z</time>
      </trkpt>
      <trkpt lat="49.92356" lon="2.08895">
        <ele>97</ele>
        <time>2022-08-10T08:52:13Z</time>
      </trkpt>
      <trkpt lat="49.92355" lon="2.08897">
        <ele>96.9</ele>
        <time>2022-08-10T08:52:14Z</time>
      </trkpt>
      <trkpt lat="49.92354" lon="2.08899">
        <ele>96.7</ele>
        <time>2022-08-10T08:52:15Z</time>
      </trkpt>
      <trkpt lat="49.92354" lon="2.08901">
        <ele>96.6</ele>
        <time>2022-08-10T08:52:16Z</time>
      </trkpt>
      <trkpt lat="49.92353" lon="2.08902">
        <ele>96.4</ele>
        <time>2022-08-10T08:52:18Z</time>
      </trkpt>
      <trkpt lat="49.92352" lon="2.08903">
        <ele>96.3</ele>
        <time>2022-08-10T08:52:19Z</time>
      </trkpt>
      <trkpt lat="49.9235" lon="2.08906">
        <ele>96</ele>
        <time>2022-08-10T08:52:20Z</time>
      </trkpt>
      <trkpt lat="49.92349" lon="2.08907">
        <ele>95.9</ele>
        <time>2022-08-10T08:52:21Z</time>
      </trkpt>
      <trkpt lat="49.92347" lon="2.08909">
        <ele>95.7</ele>
        <time>2022-08-10T08:52:22Z</time>
      </trkpt>
      <trkpt lat="49.92346" lon="2.08911">
        <ele>95.4</ele>
        <time>2022-08-10T08:52:24Z</time>
      </trkpt>
      <trkpt lat="49.92344" lon="2.08914">
        <ele>95.2</ele>
        <time>2022-08-10T08:52:25Z</time>
      </trkpt>
      <trkpt lat="49.92341" lon="2.08919">
        <ele>94.7</ele>
        <time>2022-08-10T08:52:26Z</time>
      </trkpt>
      <trkpt lat="49.9234" lon="2.08921">
        <ele>94.6</ele>
        <time>2022-08-10T08:52:27Z</time>
      </trkpt>
      <trkpt lat="49.92338" lon="2.08923">
        <ele>94.4</ele>
        <time>2022-08-10T08:52:28Z</time>
      </trkpt>
      <trkpt lat="49.92337" lon="2.08924">
        <ele>94.3</ele>
        <time>2022-08-10T08:52:29Z</time>
      </trkpt>
      <trkpt lat="49.92336" lon="2.08925">
        <ele>94.1</ele>
        <time>2022-08-10T08:52:30Z</time>
      </trkpt>
      <trkpt lat="49.92335" lon="2.08927">
        <ele>94</ele>
        <time>2022-08-10T08:52:31Z</time>
      </trkpt>
      <trkpt lat="49.92333" lon="2.08929">
        <ele>93.8</ele>
        <time>2022-08-10T08:52:32Z</time>
      </trkpt>
      <trkpt lat="49.92332" lon="2.0893">
        <ele>93.7</ele>
        <time>2022-08-10T08:52:33Z</time>
      </trkpt>
      <trkpt lat="49.92331" lon="2.08931">
        <ele>93.6</ele>
        <time>2022-08-10T08:52:34Z</time>
      </trkpt>
      <trkpt lat="49.9233" lon="2.08932">
        <ele>93.5</ele>
        <time>2022-08-10T08:52:35Z</time>
      </trkpt>
      <trkpt lat="49.92329" lon="2.08934">
        <ele>93.4</ele>
        <time>2022-08-10T08:52:36Z</time>
      </trkpt>
      <trkpt lat="49.92328" lon="2.08935">
        <ele>93.3</ele>
        <time>2022-08-10T08:52:37Z</time>
      </trkpt>
      <trkpt lat="49.92327" lon="2.08937">
        <ele>93.2</ele>
        <time>2022-08-10T08:52:38Z</time>
      </trkpt>
      <trkpt lat="49.92326" lon="2.08937">
        <ele>93.2</ele>
        <time>2022-08-10T08:52:40Z</time>
      </trkpt>
      <trkpt lat="49.92326" lon="2.08937">
        <ele>93.1</ele>
        <time>2022-08-10T08:52:41Z</time>
      </trkpt>
      <trkpt lat="49.92325" lon="2.08938">
        <ele>93.1</ele>
        <time>2022-08-10T08:52:42Z</time>
      </trkpt>
      <trkpt lat="49.92325" lon="2.08939">
        <ele>93</ele>
        <time>2022-08-10T08:52:43Z</time>
      </trkpt>
      <trkpt lat="49.92324" lon="2.08939">
        <ele>93</ele>
        <time>2022-08-10T08:52:44Z</time>
      </trkpt>
      <trkpt lat="49.92324" lon="2.0894">
        <ele>92.9</ele>
        <time>2022-08-10T08:52:46Z</time>
      </trkpt>
      <trkpt lat="49.92324" lon="2.0894">
        <ele>92.9</ele>
        <time>2022-08-10T08:52:47Z</time>
      </trkpt>
      <trkpt lat="49.92323" lon="2.0894">
        <ele>92.9</ele>
        <time>2022-08-10T08:52:48Z</time>
      </trkpt>
      <trkpt lat="49.92323" lon="2.0894">
        <ele>92.9</ele>
        <time>2022-08-10T08:52:49Z</time>
      </trkpt>
      <trkpt lat="49.92322" lon="2.08942">
        <ele>92.8</ele>
        <time>2022-08-10T08:52:50Z</time>
      </trkpt>
      <trkpt lat="49.92322" lon="2.08942">
        <ele>92.8</ele>
        <time>2022-08-10T08:52:51Z</time>
      </trkpt>
      <trkpt lat="49.92322" lon="2.08943">
        <ele>92.7</ele>
        <time>2022-08-10T08:52:52Z</time>
      </trkpt>
      <trkpt lat="49.92321" lon="2.08943">
        <ele>92.7</ele>
        <time>2022-08-10T08:52:54Z</time>
      </trkpt>
      <trkpt lat="49.92321" lon="2.08944">
        <ele>92.7</ele>
        <time>2022-08-10T08:52:55Z</time>
      </trkpt>
      <trkpt lat="49.92321" lon="2.08945">
        <ele>92.6</ele>
        <time>2022-08-10T08:52:56Z</time>
      </trkpt>
      <trkpt lat="49.92321" lon="2.08946">
        <ele>92.6</ele>
        <time>2022-08-10T08:52:57Z</time>
      </trkpt>
      <trkpt lat="49.92321" lon="2.08946">
        <ele>92.6</ele>
        <time>2022-08-10T08:52:58Z</time>
      </trkpt>
      <trkpt lat="49.92321" lon="2.08947">
        <ele>92.6</ele>
        <time>2022-08-10T08:53:00Z</time>
      </trkpt>
      <trkpt lat="49.9232" lon="2.08948">
        <ele>92.5</ele>
        <time>2022-08-10T08:53:01Z</time>
      </trkpt>
      <trkpt lat="49.9232" lon="2.08947">
        <ele>92.5</ele>
        <time>2022-08-10T08:53:02Z</time>
      </trkpt>
      <trkpt lat="49.9232" lon="2.08948">
        <ele>92.5</ele>
        <time>2022-08-10T08:53:03Z</time>
      </trkpt>
      <trkpt lat="49.9232" lon="2.08948">
        <ele>92.5</ele>
        <time>2022-08-10T08:53:05Z</time>
      </trkpt>
      <trkpt lat="49.92319" lon="2.08948">
        <ele>92.5</ele>
        <time>2022-08-10T08:53:06Z</time>
      </trkpt>
      <trkpt lat="49.92319" lon="2.08947">
        <ele>92.4</ele>
        <time>2022-08-10T08:53:07Z</time>
      </trkpt>
      <trkpt lat="49.92319" lon="2.08946">
        <ele>92.4</ele>
        <time>2022-08-10T08:53:08Z</time>
      </trkpt>
      <trkpt lat="49.92319" lon="2.08946">
        <ele>92.4</ele>
        <time>2022-08-10T08:53:09Z</time>
      </trkpt>
      <trkpt lat="49.92319" lon="2.08945">
        <ele>92.3</ele>
        <time>2022-08-10T08:53:10Z</time>
      </trkpt>
      <trkpt lat="49.9232" lon="2.08944">
        <ele>92.3</ele>
        <time>2022-08-10T08:53:11Z</time>
      </trkpt>
      <trkpt lat="49.9232" lon="2.08944">
        <ele>92.3</ele>
        <time>2022-08-10T08:53:12Z</time>
      </trkpt>
      <trkpt lat="49.9232" lon="2.08944">
        <ele>92.3</ele>
        <time>2022-08-10T08:53:13Z</time>
      </trkpt>
      <trkpt lat="49.9232" lon="2.08944">
        <ele>92.3</ele>
        <time>2022-08-10T08:53:14Z</time>
      </trkpt>
      <trkpt lat="49.9232" lon="2.08944">
        <ele>92.3</ele>
        <time>2022-08-10T08:53:15Z</time>
      </trkpt>
      <trkpt lat="49.92321" lon="2.08944">
        <ele>92.3</ele>
        <time>2022-08-10T08:53:16Z</time>
      </trkpt>
      <trkpt lat="49.92321" lon="2.08944">
        <ele>92.3</ele>
        <time>2022-08-10T08:53:17Z</time>
      </trkpt>
      <trkpt lat="49.92321" lon="2.08944">
        <ele>92.3</ele>
        <time>2022-08-10T08:53:18Z</time>
      </trkpt>
      <trkpt lat="49.92321" lon="2.08944">
        <ele>92.3</ele>
        <time>2022-08-10T08:53:19Z</time>
      </trkpt>
      <trkpt lat="49.92321" lon="2.08944">
        <ele>92.3</ele>
        <time>2022-08-10T08:53:20Z</time>
      </trkpt>
      <trkpt lat="49.92321" lon="2.08944">
        <ele>92.2</ele>
        <time>2022-08-10T08:53:21Z</time>
      </trkpt>
      <trkpt lat="49.92321" lon="2.08944">
        <ele>92.2</ele>
        <time>2022-08-10T08:53:22Z</time>
      </trkpt>
      <trkpt lat="49.92321" lon="2.08944">
        <ele>92.2</ele>
        <time>2022-08-10T08:53:23Z</time>
      </trkpt>
      <trkpt lat="49.92321" lon="2.08944">
        <ele>92.2</ele>
        <time>2022-08-10T08:53:24Z</time>
      </trkpt>
      <trkpt lat="49.92321" lon="2.08944">
        <ele>92.2</ele>
        <time>2022-08-10T08:53:25Z</time>
      </trkpt>
      <trkpt lat="49.92321" lon="2.08945">
        <ele>92.2</ele>
        <time>2022-08-10T08:53:26Z</time>
      </trkpt>
      <trkpt lat="49.92321" lon="2.08945">
        <ele>92.2</ele>
        <time>2022-08-10T08:53:27Z</time>
      </trkpt>
      <trkpt lat="49.9232" lon="2.08946">
        <ele>92.2</ele>
        <time>2022-08-10T08:53:28Z</time>
      </trkpt>
      <trkpt lat="49.9232" lon="2.08947">
        <ele>92.1</ele>
        <time>2022-08-10T08:53:29Z</time>
      </trkpt>
      <trkpt lat="49.92321" lon="2.08946">
        <ele>92.1</ele>
        <time>2022-08-10T08:53:31Z</time>
      </trkpt>
      <trkpt lat="49.92321" lon="2.08946">
        <ele>92.1</ele>
        <time>2022-08-10T08:53:32Z</time>
      </trkpt>
      <trkpt lat="49.92321" lon="2.08946">
        <ele>92.1</ele>
        <time>2022-08-10T08:53:33Z</time>
      </trkpt>
      <trkpt lat="49.9232" lon="2.08945">
        <ele>92</ele>
        <time>2022-08-10T08:53:35Z</time>
      </trkpt>
      <trkpt lat="49.9232" lon="2.08945">
        <ele>92</ele>
        <time>2022-08-10T08:53:36Z</time>
      </trkpt>
      <trkpt lat="49.92318" lon="2.08946">
        <ele>92</ele>
        <time>2022-08-10T08:53:37Z</time>
      </trkpt>
      <trkpt lat="49.92317" lon="2.08947">
        <ele>91.9</ele>
        <time>2022-08-10T08:53:38Z</time>
      </trkpt>
      <trkpt lat="49.92317" lon="2.08948">
        <ele>91.9</ele>
        <time>2022-08-10T08:53:39Z</time>
      </trkpt>
      <trkpt lat="49.92313" lon="2.08953">
        <ele>91.7</ele>
        <time>2022-08-10T08:53:41Z</time>
      </trkpt>
      <trkpt lat="49.92311" lon="2.08956">
        <ele>91.6</ele>
        <time>2022-08-10T08:53:42Z</time>
      </trkpt>
      <trkpt lat="49.92308" lon="2.08959">
        <ele>91.5</ele>
        <time>2022-08-10T08:53:43Z</time>
      </trkpt>
      <trkpt lat="49.92308" lon="2.0896">
        <ele>91.5</ele>
        <time>2022-08-10T08:53:44Z</time>
      </trkpt>
      <trkpt lat="49.92306" lon="2.08961">
        <ele>91.4</ele>
        <time>2022-08-10T08:53:45Z</time>
      </trkpt>
      <trkpt lat="49.92305" lon="2.08962">
        <ele>91.4</ele>
        <time>2022-08-10T08:53:46Z</time>
      </trkpt>
      <trkpt lat="49.92304" lon="2.08963">
        <ele>91.4</ele>
        <time>2022-08-10T08:53:47Z</time>
      </trkpt>
      <trkpt lat="49.92302" lon="2.08964">
        <ele>91.4</ele>
        <time>2022-08-10T08:53:48Z</time>
      </trkpt>
      <trkpt lat="49.92301" lon="2.08965">
        <ele>91.3</ele>
        <time>2022-08-10T08:53:49Z</time>
      </trkpt>
      <trkpt lat="49.923" lon="2.08966">
        <ele>91.3</ele>
        <time>2022-08-10T08:53:50Z</time>
      </trkpt>
      <trkpt lat="49.92299" lon="2.08968">
        <ele>91.3</ele>
        <time>2022-08-10T08:53:51Z</time>
      </trkpt>
      <trkpt lat="49.92298" lon="2.08969">
        <ele>91.3</ele>
        <time>2022-08-10T08:53:52Z</time>
      </trkpt>
      <trkpt lat="49.92296" lon="2.0897">
        <ele>91.2</ele>
        <time>2022-08-10T08:53:53Z</time>
      </trkpt>
      <trkpt lat="49.92295" lon="2.08971">
        <ele>91.2</ele>
        <time>2022-08-10T08:53:55Z</time>
      </trkpt>
      <trkpt lat="49.92295" lon="2.08972">
        <ele>91.2</ele>
        <time>2022-08-10T08:53:56Z</time>
      </trkpt>
      <trkpt lat="49.92294" lon="2.08972">
        <ele>91.2</ele>
        <time>2022-08-10T08:53:57Z</time>
      </trkpt>
      <trkpt lat="49.92295" lon="2.08972">
        <ele>91.2</ele>
        <time>2022-08-10T08:53:58Z</time>
      </trkpt>
      <trkpt lat="49.92294" lon="2.08972">
        <ele>91.2</ele>
        <time>2022-08-10T08:53:59Z</time>
      </trkpt>
      <trkpt lat="49.92295" lon="2.08971">
        <ele>91.2</ele>
        <time>2022-08-10T08:54:00Z</time>
      </trkpt>
      <trkpt lat="49.92295" lon="2.08971">
        <ele>91.2</ele>
        <time>2022-08-10T08:54:01Z</time>
      </trkpt>
      <trkpt lat="49.92294" lon="2.08971">
        <ele>91.2</ele>
        <time>2022-08-10T08:54:02Z</time>
      </trkpt>
      <trkpt lat="49.92294" lon="2.08971">
        <ele>91.2</ele>
        <time>2022-08-10T08:54:03Z</time>
      </trkpt>
      <trkpt lat="49.92294" lon="2.08971">
        <ele>91.2</ele>
        <time>2022-08-10T08:54:04Z</time>
      </trkpt>
      <trkpt lat="49.92293" lon="2.08971">
        <ele>91.2</ele>
        <time>2022-08-10T08:54:05Z</time>
      </trkpt>
      <trkpt lat="49.92295" lon="2.08973">
        <ele>91.1</ele>
        <time>2022-08-10T08:54:06Z</time>
      </trkpt>
      <trkpt lat="49.92295" lon="2.08974">
        <ele>91.1</ele>
        <time>2022-08-10T08:54:07Z</time>
      </trkpt>
      <trkpt lat="49.92295" lon="2.08974">
        <ele>91.1</ele>
        <time>2022-08-10T08:54:08Z</time>
      </trkpt>
      <trkpt lat="49.92294" lon="2.08975">
        <ele>91.1</ele>
        <time>2022-08-10T08:54:10Z</time>
      </trkpt>
      <trkpt lat="49.92294" lon="2.08975">
        <ele>91.1</ele>
        <time>2022-08-10T08:54:11Z</time>
      </trkpt>
      <trkpt lat="49.92294" lon="2.08974">
        <ele>91.1</ele>
        <time>2022-08-10T08:54:12Z</time>
      </trkpt>
      <trkpt lat="49.92294" lon="2.08974">
        <ele>91.1</ele>
        <time>2022-08-10T08:54:13Z</time>
      </trkpt>
      <trkpt lat="49.92294" lon="2.08974">
        <ele>91.1</ele>
        <time>2022-08-10T08:54:14Z</time>
      </trkpt>
      <trkpt lat="49.92295" lon="2.08974">
        <ele>91.1</ele>
        <time>2022-08-10T08:54:15Z</time>
      </trkpt>
      <trkpt lat="49.92295" lon="2.08973">
        <ele>91.1</ele>
        <time>2022-08-10T08:54:16Z</time>
      </trkpt>
      <trkpt lat="49.92295" lon="2.08973">
        <ele>91.1</ele>
        <time>2022-08-10T08:54:18Z</time>
      </trkpt>
      <trkpt lat="49.92295" lon="2.08973">
        <ele>91.1</ele>
        <time>2022-08-10T08:54:19Z</time>
      </trkpt>
      <trkpt lat="49.92295" lon="2.08973">
        <ele>91.1</ele>
        <time>2022-08-10T08:54:20Z</time>
      </trkpt>
      <trkpt lat="49.92295" lon="2.08973">
        <ele>91.1</ele>
        <time>2022-08-10T08:54:21Z</time>
      </trkpt>
      <trkpt lat="49.92295" lon="2.08973">
        <ele>91.1</ele>
        <time>2022-08-10T08:54:22Z</time>
      </trkpt>
      <trkpt lat="49.92295" lon="2.08973">
        <ele>91.1</ele>
        <time>2022-08-10T08:54:23Z</time>
      </trkpt>
      <trkpt lat="49.92295" lon="2.08973">
        <ele>91.1</ele>
        <time>2022-08-10T08:54:24Z</time>
      </trkpt>
      <trkpt lat="49.92295" lon="2.08973">
        <ele>91.1</ele>
        <time>2022-08-10T08:54:25Z</time>
      </trkpt>
      <trkpt lat="49.92295" lon="2.08973">
        <ele>91.1</ele>
        <time>2022-08-10T08:54:26Z</time>
      </trkpt>
      <trkpt lat="49.92295" lon="2.08973">
        <ele>91.1</ele>
        <time>2022-08-10T08:54:27Z</time>
      </trkpt>
      <trkpt lat="49.92296" lon="2.08973">
        <ele>91.1</ele>
        <time>2022-08-10T08:54:28Z</time>
      </trkpt>
      <trkpt lat="49.92296" lon="2.08973">
        <ele>91</ele>
        <time>2022-08-10T08:54:29Z</time>
      </trkpt>
      <trkpt lat="49.92296" lon="2.08973">
        <ele>91</ele>
        <time>2022-08-10T08:54:30Z</time>
      </trkpt>
      <trkpt lat="49.92296" lon="2.08973">
        <ele>91</ele>
        <time>2022-08-10T08:54:31Z</time>
      </trkpt>
      <trkpt lat="49.92296" lon="2.08973">
        <ele>91</ele>
        <time>2022-08-10T08:54:32Z</time>
      </trkpt>
      <trkpt lat="49.92296" lon="2.08973">
        <ele>91</ele>
        <time>2022-08-10T08:54:33Z</time>
      </trkpt>
      <trkpt lat="49.92296" lon="2.08973">
        <ele>91</ele>
        <time>2022-08-10T08:54:34Z</time>
      </trkpt>
      <trkpt lat="49.92296" lon="2.08973">
        <ele>91</ele>
        <time>2022-08-10T08:54:35Z</time>
      </trkpt>
      <trkpt lat="49.92296" lon="2.08973">
        <ele>91</ele>
        <time>2022-08-10T08:54:36Z</time>
      </trkpt>
      <trkpt lat="49.92296" lon="2.08973">
        <ele>91</ele>
        <time>2022-08-10T08:54:37Z</time>
      </trkpt>
      <trkpt lat="49.92296" lon="2.08973">
        <ele>91</ele>
        <time>2022-08-10T08:54:38Z</time>
      </trkpt>
      <trkpt lat="49.92296" lon="2.08973">
        <ele>91</ele>
        <time>2022-08-10T08:54:39Z</time>
      </trkpt>
      <trkpt lat="49.92296" lon="2.08973">
        <ele>91</ele>
        <time>2022-08-10T08:54:40Z</time>
      </trkpt>
      <trkpt lat="49.92296" lon="2.08973">
        <ele>91</ele>
        <time>2022-08-10T08:54:41Z</time>
      </trkpt>
      <trkpt lat="49.92296" lon="2.08973">
        <ele>91</ele>
        <time>2022-08-10T08:54:42Z</time>
      </trkpt>
      <trkpt lat="49.92296" lon="2.08973">
        <ele>91</ele>
        <time>2022-08-10T08:54:43Z</time>
      </trkpt>
      <trkpt lat="49.92296" lon="2.08973">
        <ele>91</ele>
        <time>2022-08-10T08:54:44Z</time>
      </trkpt>
      <trkpt lat="49.92296" lon="2.08973">
        <ele>91</ele>
        <time>2022-08-10T08:54:45Z</time>
      </trkpt>
      <trkpt lat="49.92296" lon="2.08973">
        <ele>91</ele>
        <time>2022-08-10T08:54:46Z</time>
      </trkpt>
      <trkpt lat="49.92296" lon="2.08973">
        <ele>91</ele>
        <time>2022-08-10T08:54:47Z</time>
      </trkpt>
      <trkpt lat="49.92296" lon="2.08973">
        <ele>91</ele>
        <time>2022-08-10T08:54:48Z</time>
      </trkpt>
      <trkpt lat="49.92296" lon="2.08973">
        <ele>91</ele>
        <time>2022-08-10T08:54:49Z</time>
      </trkpt>
      <trkpt lat="49.92296" lon="2.08973">
        <ele>91</ele>
        <time>2022-08-10T08:54:50Z</time>
      </trkpt>
      <trkpt lat="49.92296" lon="2.08973">
        <ele>91</ele>
        <time>2022-08-10T08:54:51Z</time>
      </trkpt>
      <trkpt lat="49.92296" lon="2.08973">
        <ele>91</ele>
        <time>2022-08-10T08:54:52Z</time>
      </trkpt>
      <trkpt lat="49.92296" lon="2.08973">
        <ele>91</ele>
        <time>2022-08-10T08:54:53Z</time>
      </trkpt>
      <trkpt lat="49.92296" lon="2.08973">
        <ele>91</ele>
        <time>2022-08-10T08:54:54Z</time>
      </trkpt>
      <trkpt lat="49.92296" lon="2.08973">
        <ele>91</ele>
        <time>2022-08-10T08:54:55Z</time>
      </trkpt>
      <trkpt lat="49.92296" lon="2.08973">
        <ele>91</ele>
        <time>2022-08-10T08:54:56Z</time>
      </trkpt>
      <trkpt lat="49.92296" lon="2.08973">
        <ele>91</ele>
        <time>2022-08-10T08:54:57Z</time>
      </trkpt>
      <trkpt lat="49.92296" lon="2.08973">
        <ele>91</ele>
        <time>2022-08-10T08:54:58Z</time>
      </trkpt>
      <trkpt lat="49.92296" lon="2.08973">
        <ele>91</ele>
        <time>2022-08-10T08:54:59Z</time>
      </trkpt>
      <trkpt lat="49.92296" lon="2.08973">
        <ele>91</ele>
        <time>2022-08-10T08:55:00Z</time>
      </trkpt>
      <trkpt lat="49.92296" lon="2.08973">
        <ele>91</ele>
        <time>2022-08-10T08:55:01Z</time>
      </trkpt>
      <trkpt lat="49.92296" lon="2.08973">
        <ele>91</ele>
        <time>2022-08-10T08:55:02Z</time>
      </trkpt>
      <trkpt lat="49.92296" lon="2.08973">
        <ele>91</ele>
        <time>2022-08-10T08:55:03Z</time>
      </trkpt>
      <trkpt lat="49.92296" lon="2.08973">
        <ele>91</ele>
        <time>2022-08-10T08:55:04Z</time>
      </trkpt>
      <trkpt lat="49.92295" lon="2.08972">
        <ele>91</ele>
        <time>2022-08-10T08:55:05Z</time>
      </trkpt>
      <trkpt lat="49.92295" lon="2.08971">
        <ele>91</ele>
        <time>2022-08-10T08:55:06Z</time>
      </trkpt>
      <trkpt lat="49.92295" lon="2.08971">
        <ele>91</ele>
        <time>2022-08-10T08:55:07Z</time>
      </trkpt>
      <trkpt lat="49.92295" lon="2.0897">
        <ele>91</ele>
        <time>2022-08-10T08:55:08Z</time>
      </trkpt>
      <trkpt lat="49.92294" lon="2.08971">
        <ele>91</ele>
        <time>2022-08-10T08:55:09Z</time>
      </trkpt>
      <trkpt lat="49.92294" lon="2.08971">
        <ele>91</ele>
        <time>2022-08-10T08:55:10Z</time>
      </trkpt>
      <trkpt lat="49.92294" lon="2.08972">
        <ele>91</ele>
        <time>2022-08-10T08:55:11Z</time>
      </trkpt>
      <trkpt lat="49.92294" lon="2.08973">
        <ele>91</ele>
        <time>2022-08-10T08:55:12Z</time>
      </trkpt>
      <trkpt lat="49.92294" lon="2.08973">
        <ele>91</ele>
        <time>2022-08-10T08:55:13Z</time>
      </trkpt>
      <trkpt lat="49.92294" lon="2.08974">
        <ele>90.9</ele>
        <time>2022-08-10T08:55:15Z</time>
      </trkpt>
      <trkpt lat="49.92294" lon="2.08975">
        <ele>90.9</ele>
        <time>2022-08-10T08:55:16Z</time>
      </trkpt>
      <trkpt lat="49.92294" lon="2.08976">
        <ele>90.9</ele>
        <time>2022-08-10T08:55:17Z</time>
      </trkpt>
      <trkpt lat="49.92293" lon="2.08977">
        <ele>90.9</ele>
        <time>2022-08-10T08:55:18Z</time>
      </trkpt>
      <trkpt lat="49.92293" lon="2.08978">
        <ele>90.9</ele>
        <time>2022-08-10T08:55:19Z</time>
      </trkpt>
      <trkpt lat="49.92293" lon="2.0898">
        <ele>90.9</ele>
        <time>2022-08-10T08:55:20Z</time>
      </trkpt>
      <trkpt lat="49.92293" lon="2.08981">
        <ele>90.9</ele>
        <time>2022-08-10T08:55:22Z</time>
      </trkpt>
      <trkpt lat="49.92292" lon="2.08983">
        <ele>90.8</ele>
        <time>2022-08-10T08:55:23Z</time>
      </trkpt>
      <trkpt lat="49.92292" lon="2.08984">
        <ele>90.8</ele>
        <time>2022-08-10T08:55:24Z</time>
      </trkpt>
      <trkpt lat="49.92292" lon="2.08985">
        <ele>90.8</ele>
        <time>2022-08-10T08:55:25Z</time>
      </trkpt>
      <trkpt lat="49.92292" lon="2.08986">
        <ele>90.8</ele>
        <time>2022-08-10T08:55:26Z</time>
      </trkpt>
      <trkpt lat="49.92292" lon="2.08989">
        <ele>90.8</ele>
        <time>2022-08-10T08:55:27Z</time>
      </trkpt>
      <trkpt lat="49.92292" lon="2.0899">
        <ele>90.8</ele>
        <time>2022-08-10T08:55:28Z</time>
      </trkpt>
      <trkpt lat="49.92292" lon="2.08991">
        <ele>90.8</ele>
        <time>2022-08-10T08:55:30Z</time>
      </trkpt>
      <trkpt lat="49.92292" lon="2.08993">
        <ele>90.9</ele>
        <time>2022-08-10T08:55:31Z</time>
      </trkpt>
      <trkpt lat="49.92292" lon="2.08994">
        <ele>90.9</ele>
        <time>2022-08-10T08:55:32Z</time>
      </trkpt>
      <trkpt lat="49.92292" lon="2.08995">
        <ele>90.9</ele>
        <time>2022-08-10T08:55:33Z</time>
      </trkpt>
      <trkpt lat="49.92292" lon="2.08996">
        <ele>91</ele>
        <time>2022-08-10T08:55:35Z</time>
      </trkpt>
      <trkpt lat="49.92292" lon="2.08997">
        <ele>91</ele>
        <time>2022-08-10T08:55:36Z</time>
      </trkpt>
      <trkpt lat="49.92292" lon="2.08998">
        <ele>91</ele>
        <time>2022-08-10T08:55:37Z</time>
      </trkpt>
      <trkpt lat="49.92292" lon="2.09">
        <ele>91.1</ele>
        <time>2022-08-10T08:55:38Z</time>
      </trkpt>
      <trkpt lat="49.92292" lon="2.09001">
        <ele>91.1</ele>
        <time>2022-08-10T08:55:39Z</time>
      </trkpt>
      <trkpt lat="49.92292" lon="2.09003">
        <ele>91.1</ele>
        <time>2022-08-10T08:55:40Z</time>
      </trkpt>
      <trkpt lat="49.92291" lon="2.09004">
        <ele>91.2</ele>
        <time>2022-08-10T08:55:41Z</time>
      </trkpt>
      <trkpt lat="49.92291" lon="2.09006">
        <ele>91.2</ele>
        <time>2022-08-10T08:55:42Z</time>
      </trkpt>
      <trkpt lat="49.92291" lon="2.09007">
        <ele>91.2</ele>
        <time>2022-08-10T08:55:43Z</time>
      </trkpt>
      <trkpt lat="49.92291" lon="2.09009">
        <ele>91.3</ele>
        <time>2022-08-10T08:55:44Z</time>
      </trkpt>
      <trkpt lat="49.92291" lon="2.0901">
        <ele>91.3</ele>
        <time>2022-08-10T08:55:45Z</time>
      </trkpt>
      <trkpt lat="49.9229" lon="2.09012">
        <ele>91.4</ele>
        <time>2022-08-10T08:55:46Z</time>
      </trkpt>
      <trkpt lat="49.9229" lon="2.09013">
        <ele>91.4</ele>
        <time>2022-08-10T08:55:47Z</time>
      </trkpt>
      <trkpt lat="49.9229" lon="2.09015">
        <ele>91.4</ele>
        <time>2022-08-10T08:55:48Z</time>
      </trkpt>
      <trkpt lat="49.9229" lon="2.09016">
        <ele>91.5</ele>
        <time>2022-08-10T08:55:49Z</time>
      </trkpt>
      <trkpt lat="49.92289" lon="2.09018">
        <ele>91.5</ele>
        <time>2022-08-10T08:55:50Z</time>
      </trkpt>
      <trkpt lat="49.92289" lon="2.0902">
        <ele>91.5</ele>
        <time>2022-08-10T08:55:51Z</time>
      </trkpt>
      <trkpt lat="49.92289" lon="2.09022">
        <ele>91.6</ele>
        <time>2022-08-10T08:55:52Z</time>
      </trkpt>
      <trkpt lat="49.92288" lon="2.09024">
        <ele>91.6</ele>
        <time>2022-08-10T08:55:53Z</time>
      </trkpt>
      <trkpt lat="49.92288" lon="2.09026">
        <ele>91.6</ele>
        <time>2022-08-10T08:55:55Z</time>
      </trkpt>
      <trkpt lat="49.92287" lon="2.09026">
        <ele>91.7</ele>
        <time>2022-08-10T08:55:56Z</time>
      </trkpt>
      <trkpt lat="49.92287" lon="2.09027">
        <ele>91.7</ele>
        <time>2022-08-10T08:55:57Z</time>
      </trkpt>
      <trkpt lat="49.92287" lon="2.09028">
        <ele>91.7</ele>
        <time>2022-08-10T08:55:58Z</time>
      </trkpt>
      <trkpt lat="49.92287" lon="2.0903">
        <ele>91.7</ele>
        <time>2022-08-10T08:55:59Z</time>
      </trkpt>
      <trkpt lat="49.92286" lon="2.09032">
        <ele>91.7</ele>
        <time>2022-08-10T08:56:00Z</time>
      </trkpt>
      <trkpt lat="49.92286" lon="2.09034">
        <ele>91.7</ele>
        <time>2022-08-10T08:56:02Z</time>
      </trkpt>
      <trkpt lat="49.92285" lon="2.09036">
        <ele>91.8</ele>
        <time>2022-08-10T08:56:03Z</time>
      </trkpt>
      <trkpt lat="49.92285" lon="2.09037">
        <ele>91.8</ele>
        <time>2022-08-10T08:56:04Z</time>
      </trkpt>
      <trkpt lat="49.92285" lon="2.09038">
        <ele>91.8</ele>
        <time>2022-08-10T08:56:05Z</time>
      </trkpt>
      <trkpt lat="49.92285" lon="2.0904">
        <ele>91.8</ele>
        <time>2022-08-10T08:56:06Z</time>
      </trkpt>
      <trkpt lat="49.92284" lon="2.09042">
        <ele>91.8</ele>
        <time>2022-08-10T08:56:07Z</time>
      </trkpt>
      <trkpt lat="49.92284" lon="2.09044">
        <ele>91.8</ele>
        <time>2022-08-10T08:56:09Z</time>
      </trkpt>
      <trkpt lat="49.92284" lon="2.09046">
        <ele>91.8</ele>
        <time>2022-08-10T08:56:10Z</time>
      </trkpt>
      <trkpt lat="49.92283" lon="2.09048">
        <ele>91.8</ele>
        <time>2022-08-10T08:56:11Z</time>
      </trkpt>
      <trkpt lat="49.92283" lon="2.0905">
        <ele>91.7</ele>
        <time>2022-08-10T08:56:12Z</time>
      </trkpt>
      <trkpt lat="49.92282" lon="2.09052">
        <ele>91.7</ele>
        <time>2022-08-10T08:56:13Z</time>
      </trkpt>
      <trkpt lat="49.92282" lon="2.09054">
        <ele>91.7</ele>
        <time>2022-08-10T08:56:14Z</time>
      </trkpt>
      <trkpt lat="49.92281" lon="2.09056">
        <ele>91.7</ele>
        <time>2022-08-10T08:56:15Z</time>
      </trkpt>
      <trkpt lat="49.92281" lon="2.09059">
        <ele>91.6</ele>
        <time>2022-08-10T08:56:16Z</time>
      </trkpt>
      <trkpt lat="49.9228" lon="2.09061">
        <ele>91.6</ele>
        <time>2022-08-10T08:56:17Z</time>
      </trkpt>
      <trkpt lat="49.9228" lon="2.09063">
        <ele>91.6</ele>
        <time>2022-08-10T08:56:18Z</time>
      </trkpt>
      <trkpt lat="49.92279" lon="2.09066">
        <ele>91.5</ele>
        <time>2022-08-10T08:56:19Z</time>
      </trkpt>
      <trkpt lat="49.92278" lon="2.09068">
        <ele>91.5</ele>
        <time>2022-08-10T08:56:21Z</time>
      </trkpt>
      <trkpt lat="49.92277" lon="2.09069">
        <ele>91.5</ele>
        <time>2022-08-10T08:56:22Z</time>
      </trkpt>
      <trkpt lat="49.92276" lon="2.09072">
        <ele>91.4</ele>
        <time>2022-08-10T08:56:23Z</time>
      </trkpt>
      <trkpt lat="49.92276" lon="2.09073">
        <ele>91.4</ele>
        <time>2022-08-10T08:56:24Z</time>
      </trkpt>
      <trkpt lat="49.92275" lon="2.09074">
        <ele>91.4</ele>
        <time>2022-08-10T08:56:25Z</time>
      </trkpt>
      <trkpt lat="49.92274" lon="2.09077">
        <ele>91.4</ele>
        <time>2022-08-10T08:56:26Z</time>
      </trkpt>
      <trkpt lat="49.92274" lon="2.09078">
        <ele>91.4</ele>
        <time>2022-08-10T08:56:27Z</time>
      </trkpt>
      <trkpt lat="49.92273" lon="2.09079">
        <ele>91.4</ele>
        <time>2022-08-10T08:56:28Z</time>
      </trkpt>
      <trkpt lat="49.92273" lon="2.09082">
        <ele>91.4</ele>
        <time>2022-08-10T08:56:29Z</time>
      </trkpt>
      <trkpt lat="49.92272" lon="2.09083">
        <ele>91.3</ele>
        <time>2022-08-10T08:56:30Z</time>
      </trkpt>
      <trkpt lat="49.92271" lon="2.09085">
        <ele>91.3</ele>
        <time>2022-08-10T08:56:31Z</time>
      </trkpt>
      <trkpt lat="49.92271" lon="2.09086">
        <ele>91.3</ele>
        <time>2022-08-10T08:56:33Z</time>
      </trkpt>
      <trkpt lat="49.9227" lon="2.09088">
        <ele>91.3</ele>
        <time>2022-08-10T08:56:34Z</time>
      </trkpt>
      <trkpt lat="49.92269" lon="2.09089">
        <ele>91.3</ele>
        <time>2022-08-10T08:56:35Z</time>
      </trkpt>
      <trkpt lat="49.92269" lon="2.09091">
        <ele>91.3</ele>
        <time>2022-08-10T08:56:36Z</time>
      </trkpt>
      <trkpt lat="49.92268" lon="2.09093">
        <ele>91.3</ele>
        <time>2022-08-10T08:56:37Z</time>
      </trkpt>
      <trkpt lat="49.92268" lon="2.09094">
        <ele>91.3</ele>
        <time>2022-08-10T08:56:38Z</time>
      </trkpt>
      <trkpt lat="49.92267" lon="2.09096">
        <ele>91.3</ele>
        <time>2022-08-10T08:56:39Z</time>
      </trkpt>
      <trkpt lat="49.92267" lon="2.09097">
        <ele>91.4</ele>
        <time>2022-08-10T08:56:41Z</time>
      </trkpt>
      <trkpt lat="49.92266" lon="2.09098">
        <ele>91.4</ele>
        <time>2022-08-10T08:56:42Z</time>
      </trkpt>
      <trkpt lat="49.92265" lon="2.091">
        <ele>91.4</ele>
        <time>2022-08-10T08:56:43Z</time>
      </trkpt>
      <trkpt lat="49.92264" lon="2.09101">
        <ele>91.4</ele>
        <time>2022-08-10T08:56:44Z</time>
      </trkpt>
      <trkpt lat="49.92264" lon="2.09103">
        <ele>91.4</ele>
        <time>2022-08-10T08:56:45Z</time>
      </trkpt>
      <trkpt lat="49.92263" lon="2.09105">
        <ele>91.4</ele>
        <time>2022-08-10T08:56:46Z</time>
      </trkpt>
      <trkpt lat="49.92263" lon="2.09106">
        <ele>91.4</ele>
        <time>2022-08-10T08:56:47Z</time>
      </trkpt>
      <trkpt lat="49.92262" lon="2.09108">
        <ele>91.4</ele>
        <time>2022-08-10T08:56:49Z</time>
      </trkpt>
      <trkpt lat="49.92261" lon="2.09109">
        <ele>91.5</ele>
        <time>2022-08-10T08:56:50Z</time>
      </trkpt>
      <trkpt lat="49.92261" lon="2.0911">
        <ele>91.5</ele>
        <time>2022-08-10T08:56:51Z</time>
      </trkpt>
      <trkpt lat="49.9226" lon="2.09112">
        <ele>91.5</ele>
        <time>2022-08-10T08:56:52Z</time>
      </trkpt>
      <trkpt lat="49.9226" lon="2.09113">
        <ele>91.5</ele>
        <time>2022-08-10T08:56:53Z</time>
      </trkpt>
      <trkpt lat="49.92259" lon="2.09116">
        <ele>91.6</ele>
        <time>2022-08-10T08:56:55Z</time>
      </trkpt>
      <trkpt lat="49.92259" lon="2.09117">
        <ele>91.6</ele>
        <time>2022-08-10T08:56:56Z</time>
      </trkpt>
      <trkpt lat="49.92258" lon="2.09118">
        <ele>91.6</ele>
        <time>2022-08-10T08:56:57Z</time>
      </trkpt>
      <trkpt lat="49.92258" lon="2.0912">
        <ele>91.6</ele>
        <time>2022-08-10T08:56:58Z</time>
      </trkpt>
      <trkpt lat="49.92257" lon="2.09122">
        <ele>91.7</ele>
        <time>2022-08-10T08:57:00Z</time>
      </trkpt>
      <trkpt lat="49.92257" lon="2.09124">
        <ele>91.7</ele>
        <time>2022-08-10T08:57:01Z</time>
      </trkpt>
      <trkpt lat="49.92257" lon="2.09126">
        <ele>91.8</ele>
        <time>2022-08-10T08:57:02Z</time>
      </trkpt>
      <trkpt lat="49.92256" lon="2.09128">
        <ele>91.8</ele>
        <time>2022-08-10T08:57:03Z</time>
      </trkpt>
      <trkpt lat="49.92256" lon="2.09129">
        <ele>91.9</ele>
        <time>2022-08-10T08:57:04Z</time>
      </trkpt>
      <trkpt lat="49.92256" lon="2.09131">
        <ele>91.9</ele>
        <time>2022-08-10T08:57:05Z</time>
      </trkpt>
      <trkpt lat="49.92256" lon="2.09132">
        <ele>92</ele>
        <time>2022-08-10T08:57:06Z</time>
      </trkpt>
      <trkpt lat="49.92255" lon="2.09134">
        <ele>92</ele>
        <time>2022-08-10T08:57:07Z</time>
      </trkpt>
      <trkpt lat="49.92255" lon="2.09136">
        <ele>92.1</ele>
        <time>2022-08-10T08:57:09Z</time>
      </trkpt>
      <trkpt lat="49.92255" lon="2.09137">
        <ele>92.1</ele>
        <time>2022-08-10T08:57:10Z</time>
      </trkpt>
      <trkpt lat="49.92255" lon="2.09139">
        <ele>92.2</ele>
        <time>2022-08-10T08:57:11Z</time>
      </trkpt>
      <trkpt lat="49.92254" lon="2.0914">
        <ele>92.2</ele>
        <time>2022-08-10T08:57:12Z</time>
      </trkpt>
      <trkpt lat="49.92254" lon="2.09142">
        <ele>92.3</ele>
        <time>2022-08-10T08:57:13Z</time>
      </trkpt>
      <trkpt lat="49.92254" lon="2.09143">
        <ele>92.3</ele>
        <time>2022-08-10T08:57:14Z</time>
      </trkpt>
      <trkpt lat="49.92254" lon="2.09145">
        <ele>92.4</ele>
        <time>2022-08-10T08:57:15Z</time>
      </trkpt>
      <trkpt lat="49.92253" lon="2.09147">
        <ele>92.5</ele>
        <time>2022-08-10T08:57:16Z</time>
      </trkpt>
      <trkpt lat="49.92253" lon="2.09148">
        <ele>92.5</ele>
        <time>2022-08-10T08:57:17Z</time>
      </trkpt>
      <trkpt lat="49.92253" lon="2.09149">
        <ele>92.6</ele>
        <time>2022-08-10T08:57:18Z</time>
      </trkpt>
      <trkpt lat="49.92253" lon="2.0915">
        <ele>92.6</ele>
        <time>2022-08-10T08:57:19Z</time>
      </trkpt>
      <trkpt lat="49.92253" lon="2.09151">
        <ele>92.7</ele>
        <time>2022-08-10T08:57:20Z</time>
      </trkpt>
      <trkpt lat="49.92252" lon="2.09153">
        <ele>92.8</ele>
        <time>2022-08-10T08:57:21Z</time>
      </trkpt>
      <trkpt lat="49.92252" lon="2.09155">
        <ele>92.8</ele>
        <time>2022-08-10T08:57:22Z</time>
      </trkpt>
      <trkpt lat="49.92252" lon="2.09156">
        <ele>92.9</ele>
        <time>2022-08-10T08:57:23Z</time>
      </trkpt>
      <trkpt lat="49.92251" lon="2.09158">
        <ele>93</ele>
        <time>2022-08-10T08:57:25Z</time>
      </trkpt>
      <trkpt lat="49.92251" lon="2.09159">
        <ele>93.1</ele>
        <time>2022-08-10T08:57:26Z</time>
      </trkpt>
      <trkpt lat="49.92251" lon="2.09162">
        <ele>93.2</ele>
        <time>2022-08-10T08:57:27Z</time>
      </trkpt>
      <trkpt lat="49.9225" lon="2.09163">
        <ele>93.2</ele>
        <time>2022-08-10T08:57:28Z</time>
      </trkpt>
      <trkpt lat="49.9225" lon="2.09164">
        <ele>93.3</ele>
        <time>2022-08-10T08:57:29Z</time>
      </trkpt>
      <trkpt lat="49.9225" lon="2.09165">
        <ele>93.3</ele>
        <time>2022-08-10T08:57:30Z</time>
      </trkpt>
      <trkpt lat="49.9225" lon="2.09166">
        <ele>93.4</ele>
        <time>2022-08-10T08:57:31Z</time>
      </trkpt>
      <trkpt lat="49.92249" lon="2.09168">
        <ele>93.5</ele>
        <time>2022-08-10T08:57:32Z</time>
      </trkpt>
      <trkpt lat="49.92249" lon="2.09169">
        <ele>93.5</ele>
        <time>2022-08-10T08:57:33Z</time>
      </trkpt>
      <trkpt lat="49.92249" lon="2.09172">
        <ele>93.7</ele>
        <time>2022-08-10T08:57:34Z</time>
      </trkpt>
      <trkpt lat="49.92249" lon="2.09174">
        <ele>93.8</ele>
        <time>2022-08-10T08:57:35Z</time>
      </trkpt>
      <trkpt lat="49.92249" lon="2.09175">
        <ele>93.8</ele>
        <time>2022-08-10T08:57:36Z</time>
      </trkpt>
      <trkpt lat="49.92249" lon="2.09178">
        <ele>94</ele>
        <time>2022-08-10T08:57:38Z</time>
      </trkpt>
      <trkpt lat="49.92249" lon="2.09179">
        <ele>94</ele>
        <time>2022-08-10T08:57:39Z</time>
      </trkpt>
      <trkpt lat="49.92248" lon="2.09181">
        <ele>94.1</ele>
        <time>2022-08-10T08:57:40Z</time>
      </trkpt>
      <trkpt lat="49.92248" lon="2.09182">
        <ele>94.2</ele>
        <time>2022-08-10T08:57:41Z</time>
      </trkpt>
      <trkpt lat="49.92248" lon="2.09184">
        <ele>94.3</ele>
        <time>2022-08-10T08:57:42Z</time>
      </trkpt>
      <trkpt lat="49.92248" lon="2.09186">
        <ele>94.4</ele>
        <time>2022-08-10T08:57:44Z</time>
      </trkpt>
      <trkpt lat="49.92247" lon="2.09188">
        <ele>94.5</ele>
        <time>2022-08-10T08:57:45Z</time>
      </trkpt>
      <trkpt lat="49.92247" lon="2.0919">
        <ele>94.6</ele>
        <time>2022-08-10T08:57:46Z</time>
      </trkpt>
      <trkpt lat="49.92247" lon="2.09192">
        <ele>94.6</ele>
        <time>2022-08-10T08:57:47Z</time>
      </trkpt>
      <trkpt lat="49.92247" lon="2.09193">
        <ele>94.7</ele>
        <time>2022-08-10T08:57:48Z</time>
      </trkpt>
      <trkpt lat="49.92247" lon="2.09195">
        <ele>94.8</ele>
        <time>2022-08-10T08:57:49Z</time>
      </trkpt>
      <trkpt lat="49.92247" lon="2.09197">
        <ele>94.9</ele>
        <time>2022-08-10T08:57:50Z</time>
      </trkpt>
      <trkpt lat="49.92246" lon="2.092">
        <ele>95.1</ele>
        <time>2022-08-10T08:57:51Z</time>
      </trkpt>
      <trkpt lat="49.92246" lon="2.09201">
        <ele>95.2</ele>
        <time>2022-08-10T08:57:53Z</time>
      </trkpt>
      <trkpt lat="49.92246" lon="2.09203">
        <ele>95.2</ele>
        <time>2022-08-10T08:57:54Z</time>
      </trkpt>
      <trkpt lat="49.92245" lon="2.09205">
        <ele>95.4</ele>
        <time>2022-08-10T08:57:55Z</time>
      </trkpt>
      <trkpt lat="49.92245" lon="2.09207">
        <ele>95.5</ele>
        <time>2022-08-10T08:57:56Z</time>
      </trkpt>
      <trkpt lat="49.92244" lon="2.09209">
        <ele>95.6</ele>
        <time>2022-08-10T08:57:57Z</time>
      </trkpt>
      <trkpt lat="49.92244" lon="2.0921">
        <ele>95.7</ele>
        <time>2022-08-10T08:57:59Z</time>
      </trkpt>
      <trkpt lat="49.92243" lon="2.09212">
        <ele>95.8</ele>
        <time>2022-08-10T08:58:00Z</time>
      </trkpt>
      <trkpt lat="49.92243" lon="2.09215">
        <ele>96</ele>
        <time>2022-08-10T08:58:01Z</time>
      </trkpt>
      <trkpt lat="49.92242" lon="2.09217">
        <ele>96.1</ele>
        <time>2022-08-10T08:58:02Z</time>
      </trkpt>
      <trkpt lat="49.92242" lon="2.09218">
        <ele>96.2</ele>
        <time>2022-08-10T08:58:04Z</time>
      </trkpt>
      <trkpt lat="49.92242" lon="2.0922">
        <ele>96.3</ele>
        <time>2022-08-10T08:58:05Z</time>
      </trkpt>
      <trkpt lat="49.92241" lon="2.09221">
        <ele>96.4</ele>
        <time>2022-08-10T08:58:06Z</time>
      </trkpt>
      <trkpt lat="49.92241" lon="2.09222">
        <ele>96.4</ele>
        <time>2022-08-10T08:58:07Z</time>
      </trkpt>
      <trkpt lat="49.92241" lon="2.09224">
        <ele>96.6</ele>
        <time>2022-08-10T08:58:08Z</time>
      </trkpt>
      <trkpt lat="49.92241" lon="2.09226">
        <ele>96.7</ele>
        <time>2022-08-10T08:58:09Z</time>
      </trkpt>
      <trkpt lat="49.9224" lon="2.09228">
        <ele>96.8</ele>
        <time>2022-08-10T08:58:10Z</time>
      </trkpt>
      <trkpt lat="49.9224" lon="2.09229">
        <ele>96.9</ele>
        <time>2022-08-10T08:58:12Z</time>
      </trkpt>
      <trkpt lat="49.9224" lon="2.0923">
        <ele>96.9</ele>
        <time>2022-08-10T08:58:13Z</time>
      </trkpt>
      <trkpt lat="49.92239" lon="2.09233">
        <ele>97.1</ele>
        <time>2022-08-10T08:58:14Z</time>
      </trkpt>
      <trkpt lat="49.92239" lon="2.09234">
        <ele>97.1</ele>
        <time>2022-08-10T08:58:16Z</time>
      </trkpt>
      <trkpt lat="49.92239" lon="2.09235">
        <ele>97.2</ele>
        <time>2022-08-10T08:58:17Z</time>
      </trkpt>
      <trkpt lat="49.92239" lon="2.09236">
        <ele>97.2</ele>
        <time>2022-08-10T08:58:18Z</time>
      </trkpt>
      <trkpt lat="49.92239" lon="2.09238">
        <ele>97.3</ele>
        <time>2022-08-10T08:58:19Z</time>
      </trkpt>
      <trkpt lat="49.92238" lon="2.09239">
        <ele>97.4</ele>
        <time>2022-08-10T08:58:21Z</time>
      </trkpt>
      <trkpt lat="49.92238" lon="2.0924">
        <ele>97.4</ele>
        <time>2022-08-10T08:58:22Z</time>
      </trkpt>
      <trkpt lat="49.92238" lon="2.09243">
        <ele>97.6</ele>
        <time>2022-08-10T08:58:23Z</time>
      </trkpt>
      <trkpt lat="49.92238" lon="2.09245">
        <ele>97.7</ele>
        <time>2022-08-10T08:58:24Z</time>
      </trkpt>
      <trkpt lat="49.92237" lon="2.09246">
        <ele>97.8</ele>
        <time>2022-08-10T08:58:26Z</time>
      </trkpt>
      <trkpt lat="49.92237" lon="2.09247">
        <ele>97.8</ele>
        <time>2022-08-10T08:58:28Z</time>
      </trkpt>
      <trkpt lat="49.92237" lon="2.09249">
        <ele>97.9</ele>
        <time>2022-08-10T08:58:29Z</time>
      </trkpt>
      <trkpt lat="49.92237" lon="2.0925">
        <ele>98</ele>
        <time>2022-08-10T08:58:30Z</time>
      </trkpt>
      <trkpt lat="49.92237" lon="2.09252">
        <ele>98.1</ele>
        <time>2022-08-10T08:58:31Z</time>
      </trkpt>
      <trkpt lat="49.92236" lon="2.09253">
        <ele>98.2</ele>
        <time>2022-08-10T08:58:33Z</time>
      </trkpt>
      <trkpt lat="49.92236" lon="2.09254">
        <ele>98.2</ele>
        <time>2022-08-10T08:58:34Z</time>
      </trkpt>
      <trkpt lat="49.92236" lon="2.09256">
        <ele>98.3</ele>
        <time>2022-08-10T08:58:35Z</time>
      </trkpt>
      <trkpt lat="49.92235" lon="2.09258">
        <ele>98.5</ele>
        <time>2022-08-10T08:58:36Z</time>
      </trkpt>
      <trkpt lat="49.92235" lon="2.09259">
        <ele>98.5</ele>
        <time>2022-08-10T08:58:38Z</time>
      </trkpt>
      <trkpt lat="49.92235" lon="2.0926">
        <ele>98.6</ele>
        <time>2022-08-10T08:58:39Z</time>
      </trkpt>
      <trkpt lat="49.92235" lon="2.09261">
        <ele>98.7</ele>
        <time>2022-08-10T08:58:40Z</time>
      </trkpt>
      <trkpt lat="49.92235" lon="2.09262">
        <ele>98.7</ele>
        <time>2022-08-10T08:58:41Z</time>
      </trkpt>
      <trkpt lat="49.92234" lon="2.09263">
        <ele>98.8</ele>
        <time>2022-08-10T08:58:42Z</time>
      </trkpt>
      <trkpt lat="49.92234" lon="2.09264">
        <ele>98.9</ele>
        <time>2022-08-10T08:58:43Z</time>
      </trkpt>
      <trkpt lat="49.92234" lon="2.09266">
        <ele>99</ele>
        <time>2022-08-10T08:58:44Z</time>
      </trkpt>
      <trkpt lat="49.92234" lon="2.09267">
        <ele>99</ele>
        <time>2022-08-10T08:58:45Z</time>
      </trkpt>
      <trkpt lat="49.92234" lon="2.09268">
        <ele>99.1</ele>
        <time>2022-08-10T08:58:46Z</time>
      </trkpt>
      <trkpt lat="49.92233" lon="2.09269">
        <ele>99.2</ele>
        <time>2022-08-10T08:58:47Z</time>
      </trkpt>
      <trkpt lat="49.92233" lon="2.0927">
        <ele>99.2</ele>
        <time>2022-08-10T08:58:49Z</time>
      </trkpt>
      <trkpt lat="49.92233" lon="2.09272">
        <ele>99.3</ele>
        <time>2022-08-10T08:58:50Z</time>
      </trkpt>
      <trkpt lat="49.92233" lon="2.09273">
        <ele>99.4</ele>
        <time>2022-08-10T08:58:51Z</time>
      </trkpt>
      <trkpt lat="49.92233" lon="2.09275">
        <ele>99.5</ele>
        <time>2022-08-10T08:58:52Z</time>
      </trkpt>
      <trkpt lat="49.92233" lon="2.09276">
        <ele>99.6</ele>
        <time>2022-08-10T08:58:54Z</time>
      </trkpt>
      <trkpt lat="49.92233" lon="2.09277">
        <ele>99.7</ele>
        <time>2022-08-10T08:58:55Z</time>
      </trkpt>
      <trkpt lat="49.92233" lon="2.0928">
        <ele>99.8</ele>
        <time>2022-08-10T08:58:57Z</time>
      </trkpt>
      <trkpt lat="49.92233" lon="2.09281">
        <ele>99.9</ele>
        <time>2022-08-10T08:58:58Z</time>
      </trkpt>
      <trkpt lat="49.92233" lon="2.09282">
        <ele>100</ele>
        <time>2022-08-10T08:59:00Z</time>
      </trkpt>
      <trkpt lat="49.92233" lon="2.09283">
        <ele>100</ele>
        <time>2022-08-10T08:59:01Z</time>
      </trkpt>
      <trkpt lat="49.92233" lon="2.09284">
        <ele>100.1</ele>
        <time>2022-08-10T08:59:02Z</time>
      </trkpt>
      <trkpt lat="49.92232" lon="2.09286">
        <ele>100.2</ele>
        <time>2022-08-10T08:59:03Z</time>
      </trkpt>
      <trkpt lat="49.92232" lon="2.09287">
        <ele>100.3</ele>
        <time>2022-08-10T08:59:04Z</time>
      </trkpt>
      <trkpt lat="49.92232" lon="2.09288">
        <ele>100.3</ele>
        <time>2022-08-10T08:59:05Z</time>
      </trkpt>
      <trkpt lat="49.92232" lon="2.09289">
        <ele>100.4</ele>
        <time>2022-08-10T08:59:06Z</time>
      </trkpt>
      <trkpt lat="49.92231" lon="2.0929">
        <ele>100.5</ele>
        <time>2022-08-10T08:59:07Z</time>
      </trkpt>
      <trkpt lat="49.92231" lon="2.09292">
        <ele>100.6</ele>
        <time>2022-08-10T08:59:09Z</time>
      </trkpt>
      <trkpt lat="49.92231" lon="2.09293">
        <ele>100.7</ele>
        <time>2022-08-10T08:59:10Z</time>
      </trkpt>
      <trkpt lat="49.9223" lon="2.09295">
        <ele>100.8</ele>
        <time>2022-08-10T08:59:11Z</time>
      </trkpt>
      <trkpt lat="49.9223" lon="2.09296">
        <ele>100.8</ele>
        <time>2022-08-10T08:59:12Z</time>
      </trkpt>
      <trkpt lat="49.92229" lon="2.09297">
        <ele>100.9</ele>
        <time>2022-08-10T08:59:14Z</time>
      </trkpt>
      <trkpt lat="49.92229" lon="2.09298">
        <ele>101</ele>
        <time>2022-08-10T08:59:15Z</time>
      </trkpt>
      <trkpt lat="49.92229" lon="2.09301">
        <ele>101.1</ele>
        <time>2022-08-10T08:59:16Z</time>
      </trkpt>
      <trkpt lat="49.92228" lon="2.09302">
        <ele>101.2</ele>
        <time>2022-08-10T08:59:18Z</time>
      </trkpt>
      <trkpt lat="49.92228" lon="2.09303">
        <ele>101.3</ele>
        <time>2022-08-10T08:59:19Z</time>
      </trkpt>
      <trkpt lat="49.92228" lon="2.09304">
        <ele>101.3</ele>
        <time>2022-08-10T08:59:20Z</time>
      </trkpt>
      <trkpt lat="49.92228" lon="2.09305">
        <ele>101.4</ele>
        <time>2022-08-10T08:59:21Z</time>
      </trkpt>
      <trkpt lat="49.92228" lon="2.09306">
        <ele>101.5</ele>
        <time>2022-08-10T08:59:22Z</time>
      </trkpt>
      <trkpt lat="49.92228" lon="2.09307">
        <ele>101.5</ele>
        <time>2022-08-10T08:59:23Z</time>
      </trkpt>
      <trkpt lat="49.92228" lon="2.09309">
        <ele>101.6</ele>
        <time>2022-08-10T08:59:24Z</time>
      </trkpt>
      <trkpt lat="49.92227" lon="2.0931">
        <ele>101.7</ele>
        <time>2022-08-10T08:59:26Z</time>
      </trkpt>
      <trkpt lat="49.92227" lon="2.09311">
        <ele>101.8</ele>
        <time>2022-08-10T08:59:27Z</time>
      </trkpt>
      <trkpt lat="49.92227" lon="2.09312">
        <ele>101.8</ele>
        <time>2022-08-10T08:59:28Z</time>
      </trkpt>
      <trkpt lat="49.92227" lon="2.09313">
        <ele>101.9</ele>
        <time>2022-08-10T08:59:29Z</time>
      </trkpt>
      <trkpt lat="49.92227" lon="2.09314">
        <ele>101.9</ele>
        <time>2022-08-10T08:59:31Z</time>
      </trkpt>
      <trkpt lat="49.92226" lon="2.09315">
        <ele>102</ele>
        <time>2022-08-10T08:59:32Z</time>
      </trkpt>
      <trkpt lat="49.92226" lon="2.09317">
        <ele>102.1</ele>
        <time>2022-08-10T08:59:33Z</time>
      </trkpt>
      <trkpt lat="49.92226" lon="2.09318">
        <ele>102.2</ele>
        <time>2022-08-10T08:59:35Z</time>
      </trkpt>
      <trkpt lat="49.92225" lon="2.09319">
        <ele>102.2</ele>
        <time>2022-08-10T08:59:36Z</time>
      </trkpt>
      <trkpt lat="49.92225" lon="2.0932">
        <ele>102.3</ele>
        <time>2022-08-10T08:59:38Z</time>
      </trkpt>
      <trkpt lat="49.92225" lon="2.09321">
        <ele>102.4</ele>
        <time>2022-08-10T08:59:39Z</time>
      </trkpt>
      <trkpt lat="49.92224" lon="2.09323">
        <ele>102.4</ele>
        <time>2022-08-10T08:59:40Z</time>
      </trkpt>
      <trkpt lat="49.92224" lon="2.09324">
        <ele>102.5</ele>
        <time>2022-08-10T08:59:42Z</time>
      </trkpt>
      <trkpt lat="49.92224" lon="2.09325">
        <ele>102.6</ele>
        <time>2022-08-10T08:59:43Z</time>
      </trkpt>
      <trkpt lat="49.92223" lon="2.09326">
        <ele>102.6</ele>
        <time>2022-08-10T08:59:44Z</time>
      </trkpt>
      <trkpt lat="49.92223" lon="2.09328">
        <ele>102.7</ele>
        <time>2022-08-10T08:59:46Z</time>
      </trkpt>
      <trkpt lat="49.92223" lon="2.09329">
        <ele>102.8</ele>
        <time>2022-08-10T08:59:47Z</time>
      </trkpt>
      <trkpt lat="49.92223" lon="2.0933">
        <ele>102.8</ele>
        <time>2022-08-10T08:59:48Z</time>
      </trkpt>
      <trkpt lat="49.92222" lon="2.09333">
        <ele>103</ele>
        <time>2022-08-10T08:59:50Z</time>
      </trkpt>
      <trkpt lat="49.92222" lon="2.09334">
        <ele>103</ele>
        <time>2022-08-10T08:59:51Z</time>
      </trkpt>
      <trkpt lat="49.92222" lon="2.09335">
        <ele>103.1</ele>
        <time>2022-08-10T08:59:53Z</time>
      </trkpt>
      <trkpt lat="49.92221" lon="2.09336">
        <ele>103.1</ele>
        <time>2022-08-10T08:59:54Z</time>
      </trkpt>
      <trkpt lat="49.92221" lon="2.09338">
        <ele>103.2</ele>
        <time>2022-08-10T08:59:55Z</time>
      </trkpt>
      <trkpt lat="49.92221" lon="2.0934">
        <ele>103.3</ele>
        <time>2022-08-10T08:59:57Z</time>
      </trkpt>
      <trkpt lat="49.92221" lon="2.09341">
        <ele>103.3</ele>
        <time>2022-08-10T08:59:58Z</time>
      </trkpt>
      <trkpt lat="49.92222" lon="2.09341">
        <ele>103.4</ele>
        <time>2022-08-10T08:59:59Z</time>
      </trkpt>
      <trkpt lat="49.92222" lon="2.09342">
        <ele>103.4</ele>
        <time>2022-08-10T09:00:00Z</time>
      </trkpt>
      <trkpt lat="49.92223" lon="2.09343">
        <ele>103.4</ele>
        <time>2022-08-10T09:00:01Z</time>
      </trkpt>
      <trkpt lat="49.92223" lon="2.09343">
        <ele>103.5</ele>
        <time>2022-08-10T09:00:02Z</time>
      </trkpt>
      <trkpt lat="49.92223" lon="2.09343">
        <ele>103.5</ele>
        <time>2022-08-10T09:00:03Z</time>
      </trkpt>
      <trkpt lat="49.92223" lon="2.09344">
        <ele>103.5</ele>
        <time>2022-08-10T09:00:04Z</time>
      </trkpt>
      <trkpt lat="49.92223" lon="2.09345">
        <ele>103.5</ele>
        <time>2022-08-10T09:00:05Z</time>
      </trkpt>
      <trkpt lat="49.92223" lon="2.09346">
        <ele>103.6</ele>
        <time>2022-08-10T09:00:06Z</time>
      </trkpt>
      <trkpt lat="49.92223" lon="2.09347">
        <ele>103.6</ele>
        <time>2022-08-10T09:00:08Z</time>
      </trkpt>
      <trkpt lat="49.92222" lon="2.09348">
        <ele>103.7</ele>
        <time>2022-08-10T09:00:09Z</time>
      </trkpt>
      <trkpt lat="49.92222" lon="2.09349">
        <ele>103.7</ele>
        <time>2022-08-10T09:00:10Z</time>
      </trkpt>
      <trkpt lat="49.92221" lon="2.0935">
        <ele>103.8</ele>
        <time>2022-08-10T09:00:12Z</time>
      </trkpt>
      <trkpt lat="49.92221" lon="2.09352">
        <ele>103.8</ele>
        <time>2022-08-10T09:00:13Z</time>
      </trkpt>
      <trkpt lat="49.92221" lon="2.09353">
        <ele>103.9</ele>
        <time>2022-08-10T09:00:14Z</time>
      </trkpt>
      <trkpt lat="49.9222" lon="2.09355">
        <ele>103.9</ele>
        <time>2022-08-10T09:00:16Z</time>
      </trkpt>
      <trkpt lat="49.9222" lon="2.09356">
        <ele>104</ele>
        <time>2022-08-10T09:00:17Z</time>
      </trkpt>
      <trkpt lat="49.9222" lon="2.09359">
        <ele>104</ele>
        <time>2022-08-10T09:00:18Z</time>
      </trkpt>
      <trkpt lat="49.9222" lon="2.0936">
        <ele>104.1</ele>
        <time>2022-08-10T09:00:20Z</time>
      </trkpt>
      <trkpt lat="49.92219" lon="2.09361">
        <ele>104.1</ele>
        <time>2022-08-10T09:00:21Z</time>
      </trkpt>
      <trkpt lat="49.92219" lon="2.09363">
        <ele>104.2</ele>
        <time>2022-08-10T09:00:22Z</time>
      </trkpt>
      <trkpt lat="49.92219" lon="2.09365">
        <ele>104.2</ele>
        <time>2022-08-10T09:00:23Z</time>
      </trkpt>
      <trkpt lat="49.92219" lon="2.09366">
        <ele>104.2</ele>
        <time>2022-08-10T09:00:24Z</time>
      </trkpt>
      <trkpt lat="49.92218" lon="2.09367">
        <ele>104.3</ele>
        <time>2022-08-10T09:00:25Z</time>
      </trkpt>
      <trkpt lat="49.92218" lon="2.09369">
        <ele>104.3</ele>
        <time>2022-08-10T09:00:26Z</time>
      </trkpt>
      <trkpt lat="49.92218" lon="2.09371">
        <ele>104.4</ele>
        <time>2022-08-10T09:00:27Z</time>
      </trkpt>
      <trkpt lat="49.92217" lon="2.09373">
        <ele>104.4</ele>
        <time>2022-08-10T09:00:29Z</time>
      </trkpt>
      <trkpt lat="49.92217" lon="2.09374">
        <ele>104.4</ele>
        <time>2022-08-10T09:00:30Z</time>
      </trkpt>
      <trkpt lat="49.92217" lon="2.09376">
        <ele>104.5</ele>
        <time>2022-08-10T09:00:31Z</time>
      </trkpt>
      <trkpt lat="49.92216" lon="2.09379">
        <ele>104.5</ele>
        <time>2022-08-10T09:00:32Z</time>
      </trkpt>
      <trkpt lat="49.92216" lon="2.09381">
        <ele>104.5</ele>
        <time>2022-08-10T09:00:33Z</time>
      </trkpt>
      <trkpt lat="49.92215" lon="2.09382">
        <ele>104.6</ele>
        <time>2022-08-10T09:00:34Z</time>
      </trkpt>
      <trkpt lat="49.92215" lon="2.09383">
        <ele>104.6</ele>
        <time>2022-08-10T09:00:36Z</time>
      </trkpt>
      <trkpt lat="49.92215" lon="2.09385">
        <ele>104.6</ele>
        <time>2022-08-10T09:00:37Z</time>
      </trkpt>
      <trkpt lat="49.92215" lon="2.09387">
        <ele>104.7</ele>
        <time>2022-08-10T09:00:38Z</time>
      </trkpt>
      <trkpt lat="49.92215" lon="2.09388">
        <ele>104.7</ele>
        <time>2022-08-10T09:00:39Z</time>
      </trkpt>
      <trkpt lat="49.92215" lon="2.09389">
        <ele>104.7</ele>
        <time>2022-08-10T09:00:40Z</time>
      </trkpt>
      <trkpt lat="49.92215" lon="2.0939">
        <ele>104.7</ele>
        <time>2022-08-10T09:00:41Z</time>
      </trkpt>
      <trkpt lat="49.92214" lon="2.09392">
        <ele>104.7</ele>
        <time>2022-08-10T09:00:42Z</time>
      </trkpt>
      <trkpt lat="49.92214" lon="2.09393">
        <ele>104.8</ele>
        <time>2022-08-10T09:00:43Z</time>
      </trkpt>
      <trkpt lat="49.92213" lon="2.09395">
        <ele>104.8</ele>
        <time>2022-08-10T09:00:44Z</time>
      </trkpt>
      <trkpt lat="49.92213" lon="2.09396">
        <ele>104.8</ele>
        <time>2022-08-10T09:00:45Z</time>
      </trkpt>
      <trkpt lat="49.92212" lon="2.09397">
        <ele>104.8</ele>
        <time>2022-08-10T09:00:46Z</time>
      </trkpt>
      <trkpt lat="49.92212" lon="2.09398">
        <ele>104.8</ele>
        <time>2022-08-10T09:00:47Z</time>
      </trkpt>
      <trkpt lat="49.92211" lon="2.094">
        <ele>104.9</ele>
        <time>2022-08-10T09:00:48Z</time>
      </trkpt>
      <trkpt lat="49.92211" lon="2.09402">
        <ele>104.9</ele>
        <time>2022-08-10T09:00:49Z</time>
      </trkpt>
      <trkpt lat="49.9221" lon="2.09404">
        <ele>104.9</ele>
        <time>2022-08-10T09:00:50Z</time>
      </trkpt>
      <trkpt lat="49.9221" lon="2.09405">
        <ele>104.9</ele>
        <time>2022-08-10T09:00:52Z</time>
      </trkpt>
      <trkpt lat="49.9221" lon="2.09406">
        <ele>104.9</ele>
        <time>2022-08-10T09:00:53Z</time>
      </trkpt>
      <trkpt lat="49.92209" lon="2.09408">
        <ele>105</ele>
        <time>2022-08-10T09:00:54Z</time>
      </trkpt>
      <trkpt lat="49.92209" lon="2.0941">
        <ele>105</ele>
        <time>2022-08-10T09:00:55Z</time>
      </trkpt>
      <trkpt lat="49.92209" lon="2.09411">
        <ele>105</ele>
        <time>2022-08-10T09:00:56Z</time>
      </trkpt>
      <trkpt lat="49.92208" lon="2.09413">
        <ele>105</ele>
        <time>2022-08-10T09:00:57Z</time>
      </trkpt>
      <trkpt lat="49.92208" lon="2.09415">
        <ele>105</ele>
        <time>2022-08-10T09:00:58Z</time>
      </trkpt>
      <trkpt lat="49.92207" lon="2.09416">
        <ele>105</ele>
        <time>2022-08-10T09:01:00Z</time>
      </trkpt>
      <trkpt lat="49.92207" lon="2.09418">
        <ele>105</ele>
        <time>2022-08-10T09:01:01Z</time>
      </trkpt>
      <trkpt lat="49.92206" lon="2.0942">
        <ele>105.1</ele>
        <time>2022-08-10T09:01:02Z</time>
      </trkpt>
      <trkpt lat="49.92206" lon="2.09423">
        <ele>105.1</ele>
        <time>2022-08-10T09:01:03Z</time>
      </trkpt>
      <trkpt lat="49.92205" lon="2.09424">
        <ele>105.1</ele>
        <time>2022-08-10T09:01:04Z</time>
      </trkpt>
      <trkpt lat="49.92205" lon="2.09426">
        <ele>105.1</ele>
        <time>2022-08-10T09:01:05Z</time>
      </trkpt>
      <trkpt lat="49.92205" lon="2.09427">
        <ele>105.1</ele>
        <time>2022-08-10T09:01:07Z</time>
      </trkpt>
      <trkpt lat="49.92205" lon="2.09428">
        <ele>105.1</ele>
        <time>2022-08-10T09:01:08Z</time>
      </trkpt>
      <trkpt lat="49.92205" lon="2.0943">
        <ele>105.2</ele>
        <time>2022-08-10T09:01:09Z</time>
      </trkpt>
      <trkpt lat="49.92204" lon="2.09432">
        <ele>105.2</ele>
        <time>2022-08-10T09:01:10Z</time>
      </trkpt>
      <trkpt lat="49.92204" lon="2.09434">
        <ele>105.2</ele>
        <time>2022-08-10T09:01:11Z</time>
      </trkpt>
      <trkpt lat="49.92204" lon="2.09435">
        <ele>105.2</ele>
        <time>2022-08-10T09:01:12Z</time>
      </trkpt>
      <trkpt lat="49.92204" lon="2.09436">
        <ele>105.2</ele>
        <time>2022-08-10T09:01:13Z</time>
      </trkpt>
      <trkpt lat="49.92204" lon="2.09438">
        <ele>105.2</ele>
        <time>2022-08-10T09:01:14Z</time>
      </trkpt>
      <trkpt lat="49.92203" lon="2.09439">
        <ele>105.2</ele>
        <time>2022-08-10T09:01:15Z</time>
      </trkpt>
      <trkpt lat="49.92203" lon="2.09441">
        <ele>105.2</ele>
        <time>2022-08-10T09:01:16Z</time>
      </trkpt>
      <trkpt lat="49.92203" lon="2.09442">
        <ele>105.2</ele>
        <time>2022-08-10T09:01:17Z</time>
      </trkpt>
      <trkpt lat="49.92203" lon="2.09444">
        <ele>105.3</ele>
        <time>2022-08-10T09:01:18Z</time>
      </trkpt>
      <trkpt lat="49.92203" lon="2.09446">
        <ele>105.3</ele>
        <time>2022-08-10T09:01:19Z</time>
      </trkpt>
      <trkpt lat="49.92203" lon="2.09447">
        <ele>105.3</ele>
        <time>2022-08-10T09:01:20Z</time>
      </trkpt>
      <trkpt lat="49.92203" lon="2.09449">
        <ele>105.3</ele>
        <time>2022-08-10T09:01:21Z</time>
      </trkpt>
      <trkpt lat="49.92203" lon="2.0945">
        <ele>105.3</ele>
        <time>2022-08-10T09:01:23Z</time>
      </trkpt>
      <trkpt lat="49.92202" lon="2.09451">
        <ele>105.3</ele>
        <time>2022-08-10T09:01:24Z</time>
      </trkpt>
      <trkpt lat="49.92202" lon="2.09454">
        <ele>105.3</ele>
        <time>2022-08-10T09:01:25Z</time>
      </trkpt>
      <trkpt lat="49.92202" lon="2.09455">
        <ele>105.3</ele>
        <time>2022-08-10T09:01:26Z</time>
      </trkpt>
      <trkpt lat="49.92201" lon="2.09456">
        <ele>105.3</ele>
        <time>2022-08-10T09:01:27Z</time>
      </trkpt>
      <trkpt lat="49.92201" lon="2.09458">
        <ele>105.3</ele>
        <time>2022-08-10T09:01:28Z</time>
      </trkpt>
      <trkpt lat="49.92201" lon="2.0946">
        <ele>105.3</ele>
        <time>2022-08-10T09:01:29Z</time>
      </trkpt>
      <trkpt lat="49.922" lon="2.09461">
        <ele>105.3</ele>
        <time>2022-08-10T09:01:31Z</time>
      </trkpt>
      <trkpt lat="49.922" lon="2.09463">
        <ele>105.3</ele>
        <time>2022-08-10T09:01:32Z</time>
      </trkpt>
      <trkpt lat="49.922" lon="2.09465">
        <ele>105.3</ele>
        <time>2022-08-10T09:01:33Z</time>
      </trkpt>
      <trkpt lat="49.92199" lon="2.09466">
        <ele>105.3</ele>
        <time>2022-08-10T09:01:34Z</time>
      </trkpt>
      <trkpt lat="49.92199" lon="2.09468">
        <ele>105.3</ele>
        <time>2022-08-10T09:01:35Z</time>
      </trkpt>
      <trkpt lat="49.92199" lon="2.0947">
        <ele>105.3</ele>
        <time>2022-08-10T09:01:36Z</time>
      </trkpt>
      <trkpt lat="49.92199" lon="2.09472">
        <ele>105.3</ele>
        <time>2022-08-10T09:01:38Z</time>
      </trkpt>
      <trkpt lat="49.92198" lon="2.09473">
        <ele>105.3</ele>
        <time>2022-08-10T09:01:39Z</time>
      </trkpt>
      <trkpt lat="49.92198" lon="2.09474">
        <ele>105.3</ele>
        <time>2022-08-10T09:01:40Z</time>
      </trkpt>
      <trkpt lat="49.92198" lon="2.09476">
        <ele>105.3</ele>
        <time>2022-08-10T09:01:41Z</time>
      </trkpt>
      <trkpt lat="49.92198" lon="2.09477">
        <ele>105.3</ele>
        <time>2022-08-10T09:01:42Z</time>
      </trkpt>
      <trkpt lat="49.92198" lon="2.09479">
        <ele>105.3</ele>
        <time>2022-08-10T09:01:43Z</time>
      </trkpt>
      <trkpt lat="49.92197" lon="2.0948">
        <ele>105.3</ele>
        <time>2022-08-10T09:01:44Z</time>
      </trkpt>
      <trkpt lat="49.92197" lon="2.09482">
        <ele>105.3</ele>
        <time>2022-08-10T09:01:45Z</time>
      </trkpt>
      <trkpt lat="49.92197" lon="2.09484">
        <ele>105.3</ele>
        <time>2022-08-10T09:01:46Z</time>
      </trkpt>
      <trkpt lat="49.92197" lon="2.09485">
        <ele>105.3</ele>
        <time>2022-08-10T09:01:47Z</time>
      </trkpt>
      <trkpt lat="49.92197" lon="2.09487">
        <ele>105.3</ele>
        <time>2022-08-10T09:01:48Z</time>
      </trkpt>
      <trkpt lat="49.92197" lon="2.09488">
        <ele>105.3</ele>
        <time>2022-08-10T09:01:49Z</time>
      </trkpt>
      <trkpt lat="49.92196" lon="2.0949">
        <ele>105.3</ele>
        <time>2022-08-10T09:01:50Z</time>
      </trkpt>
      <trkpt lat="49.92196" lon="2.09491">
        <ele>105.3</ele>
        <time>2022-08-10T09:01:51Z</time>
      </trkpt>
      <trkpt lat="49.92196" lon="2.09493">
        <ele>105.3</ele>
        <time>2022-08-10T09:01:52Z</time>
      </trkpt>
      <trkpt lat="49.92196" lon="2.09495">
        <ele>105.3</ele>
        <time>2022-08-10T09:01:53Z</time>
      </trkpt>
      <trkpt lat="49.92195" lon="2.09496">
        <ele>105.3</ele>
        <time>2022-08-10T09:01:54Z</time>
      </trkpt>
      <trkpt lat="49.92195" lon="2.09498">
        <ele>105.3</ele>
        <time>2022-08-10T09:01:55Z</time>
      </trkpt>
      <trkpt lat="49.92195" lon="2.095">
        <ele>105.3</ele>
        <time>2022-08-10T09:01:56Z</time>
      </trkpt>
      <trkpt lat="49.92194" lon="2.09503">
        <ele>105.3</ele>
        <time>2022-08-10T09:01:58Z</time>
      </trkpt>
      <trkpt lat="49.92194" lon="2.09504">
        <ele>105.3</ele>
        <time>2022-08-10T09:01:59Z</time>
      </trkpt>
      <trkpt lat="49.92194" lon="2.09506">
        <ele>105.3</ele>
        <time>2022-08-10T09:02:00Z</time>
      </trkpt>
      <trkpt lat="49.92194" lon="2.09507">
        <ele>105.3</ele>
        <time>2022-08-10T09:02:01Z</time>
      </trkpt>
      <trkpt lat="49.92193" lon="2.09509">
        <ele>105.3</ele>
        <time>2022-08-10T09:02:02Z</time>
      </trkpt>
      <trkpt lat="49.92193" lon="2.09512">
        <ele>105.3</ele>
        <time>2022-08-10T09:02:03Z</time>
      </trkpt>
      <trkpt lat="49.92192" lon="2.09515">
        <ele>105.3</ele>
        <time>2022-08-10T09:02:04Z</time>
      </trkpt>
      <trkpt lat="49.92192" lon="2.09516">
        <ele>105.3</ele>
        <time>2022-08-10T09:02:05Z</time>
      </trkpt>
      <trkpt lat="49.92191" lon="2.09518">
        <ele>105.3</ele>
        <time>2022-08-10T09:02:07Z</time>
      </trkpt>
      <trkpt lat="49.92191" lon="2.09519">
        <ele>105.3</ele>
        <time>2022-08-10T09:02:08Z</time>
      </trkpt>
      <trkpt lat="49.92191" lon="2.0952">
        <ele>105.3</ele>
        <time>2022-08-10T09:02:09Z</time>
      </trkpt>
      <trkpt lat="49.9219" lon="2.09522">
        <ele>105.3</ele>
        <time>2022-08-10T09:02:10Z</time>
      </trkpt>
      <trkpt lat="49.9219" lon="2.09524">
        <ele>105.3</ele>
        <time>2022-08-10T09:02:11Z</time>
      </trkpt>
      <trkpt lat="49.9219" lon="2.09526">
        <ele>105.3</ele>
        <time>2022-08-10T09:02:12Z</time>
      </trkpt>
      <trkpt lat="49.9219" lon="2.09527">
        <ele>105.3</ele>
        <time>2022-08-10T09:02:13Z</time>
      </trkpt>
      <trkpt lat="49.92189" lon="2.09528">
        <ele>105.3</ele>
        <time>2022-08-10T09:02:15Z</time>
      </trkpt>
      <trkpt lat="49.92189" lon="2.0953">
        <ele>105.3</ele>
        <time>2022-08-10T09:02:16Z</time>
      </trkpt>
      <trkpt lat="49.92188" lon="2.09532">
        <ele>105.3</ele>
        <time>2022-08-10T09:02:17Z</time>
      </trkpt>
      <trkpt lat="49.92188" lon="2.09534">
        <ele>105.3</ele>
        <time>2022-08-10T09:02:18Z</time>
      </trkpt>
      <trkpt lat="49.92188" lon="2.09535">
        <ele>105.3</ele>
        <time>2022-08-10T09:02:19Z</time>
      </trkpt>
      <trkpt lat="49.92187" lon="2.09537">
        <ele>105.3</ele>
        <time>2022-08-10T09:02:20Z</time>
      </trkpt>
      <trkpt lat="49.92187" lon="2.09538">
        <ele>105.3</ele>
        <time>2022-08-10T09:02:21Z</time>
      </trkpt>
      <trkpt lat="49.92186" lon="2.0954">
        <ele>105.4</ele>
        <time>2022-08-10T09:02:22Z</time>
      </trkpt>
      <trkpt lat="49.92186" lon="2.09541">
        <ele>105.4</ele>
        <time>2022-08-10T09:02:24Z</time>
      </trkpt>
      <trkpt lat="49.92185" lon="2.09543">
        <ele>105.4</ele>
        <time>2022-08-10T09:02:25Z</time>
      </trkpt>
      <trkpt lat="49.92185" lon="2.09544">
        <ele>105.4</ele>
        <time>2022-08-10T09:02:26Z</time>
      </trkpt>
      <trkpt lat="49.92185" lon="2.09546">
        <ele>105.4</ele>
        <time>2022-08-10T09:02:27Z</time>
      </trkpt>
      <trkpt lat="49.92184" lon="2.09547">
        <ele>105.4</ele>
        <time>2022-08-10T09:02:28Z</time>
      </trkpt>
      <trkpt lat="49.92184" lon="2.09549">
        <ele>105.4</ele>
        <time>2022-08-10T09:02:29Z</time>
      </trkpt>
      <trkpt lat="49.92184" lon="2.0955">
        <ele>105.4</ele>
        <time>2022-08-10T09:02:30Z</time>
      </trkpt>
      <trkpt lat="49.92183" lon="2.09552">
        <ele>105.4</ele>
        <time>2022-08-10T09:02:31Z</time>
      </trkpt>
      <trkpt lat="49.92183" lon="2.09554">
        <ele>105.4</ele>
        <time>2022-08-10T09:02:32Z</time>
      </trkpt>
      <trkpt lat="49.92183" lon="2.09555">
        <ele>105.4</ele>
        <time>2022-08-10T09:02:33Z</time>
      </trkpt>
      <trkpt lat="49.92182" lon="2.09556">
        <ele>105.4</ele>
        <time>2022-08-10T09:02:35Z</time>
      </trkpt>
      <trkpt lat="49.92182" lon="2.09558">
        <ele>105.4</ele>
        <time>2022-08-10T09:02:36Z</time>
      </trkpt>
      <trkpt lat="49.92181" lon="2.0956">
        <ele>105.4</ele>
        <time>2022-08-10T09:02:37Z</time>
      </trkpt>
      <trkpt lat="49.92181" lon="2.09563">
        <ele>105.5</ele>
        <time>2022-08-10T09:02:38Z</time>
      </trkpt>
      <trkpt lat="49.92181" lon="2.09564">
        <ele>105.5</ele>
        <time>2022-08-10T09:02:39Z</time>
      </trkpt>
      <trkpt lat="49.9218" lon="2.09566">
        <ele>105.5</ele>
        <time>2022-08-10T09:02:40Z</time>
      </trkpt>
      <trkpt lat="49.9218" lon="2.09569">
        <ele>105.5</ele>
        <time>2022-08-10T09:02:41Z</time>
      </trkpt>
      <trkpt lat="49.92179" lon="2.09571">
        <ele>105.5</ele>
        <time>2022-08-10T09:02:42Z</time>
      </trkpt>
      <trkpt lat="49.92179" lon="2.09572">
        <ele>105.5</ele>
        <time>2022-08-10T09:02:44Z</time>
      </trkpt>
      <trkpt lat="49.92179" lon="2.09574">
        <ele>105.6</ele>
        <time>2022-08-10T09:02:45Z</time>
      </trkpt>
      <trkpt lat="49.92179" lon="2.09575">
        <ele>105.6</ele>
        <time>2022-08-10T09:02:46Z</time>
      </trkpt>
      <trkpt lat="49.92178" lon="2.09577">
        <ele>105.6</ele>
        <time>2022-08-10T09:02:47Z</time>
      </trkpt>
      <trkpt lat="49.92178" lon="2.0958">
        <ele>105.6</ele>
        <time>2022-08-10T09:02:48Z</time>
      </trkpt>
      <trkpt lat="49.92177" lon="2.09581">
        <ele>105.6</ele>
        <time>2022-08-10T09:02:49Z</time>
      </trkpt>
      <trkpt lat="49.92177" lon="2.09582">
        <ele>105.6</ele>
        <time>2022-08-10T09:02:50Z</time>
      </trkpt>
      <trkpt lat="49.92177" lon="2.09584">
        <ele>105.6</ele>
        <time>2022-08-10T09:02:52Z</time>
      </trkpt>
      <trkpt lat="49.92176" lon="2.09585">
        <ele>105.6</ele>
        <time>2022-08-10T09:02:53Z</time>
      </trkpt>
      <trkpt lat="49.92176" lon="2.09587">
        <ele>105.7</ele>
        <time>2022-08-10T09:02:54Z</time>
      </trkpt>
      <trkpt lat="49.92176" lon="2.0959">
        <ele>105.7</ele>
        <time>2022-08-10T09:02:55Z</time>
      </trkpt>
      <trkpt lat="49.92175" lon="2.09592">
        <ele>105.7</ele>
        <time>2022-08-10T09:02:56Z</time>
      </trkpt>
      <trkpt lat="49.92175" lon="2.09593">
        <ele>105.7</ele>
        <time>2022-08-10T09:02:57Z</time>
      </trkpt>
      <trkpt lat="49.92175" lon="2.09595">
        <ele>105.7</ele>
        <time>2022-08-10T09:02:58Z</time>
      </trkpt>
      <trkpt lat="49.92174" lon="2.09596">
        <ele>105.7</ele>
        <time>2022-08-10T09:03:00Z</time>
      </trkpt>
      <trkpt lat="49.92174" lon="2.09597">
        <ele>105.7</ele>
        <time>2022-08-10T09:03:01Z</time>
      </trkpt>
      <trkpt lat="49.92174" lon="2.09599">
        <ele>105.7</ele>
        <time>2022-08-10T09:03:02Z</time>
      </trkpt>
      <trkpt lat="49.92173" lon="2.096">
        <ele>105.7</ele>
        <time>2022-08-10T09:03:03Z</time>
      </trkpt>
      <trkpt lat="49.92173" lon="2.09602">
        <ele>105.7</ele>
        <time>2022-08-10T09:03:04Z</time>
      </trkpt>
      <trkpt lat="49.92173" lon="2.09604">
        <ele>105.7</ele>
        <time>2022-08-10T09:03:05Z</time>
      </trkpt>
      <trkpt lat="49.92172" lon="2.09606">
        <ele>105.7</ele>
        <time>2022-08-10T09:03:07Z</time>
      </trkpt>
      <trkpt lat="49.92172" lon="2.09607">
        <ele>105.7</ele>
        <time>2022-08-10T09:03:08Z</time>
      </trkpt>
      <trkpt lat="49.92172" lon="2.09608">
        <ele>105.7</ele>
        <time>2022-08-10T09:03:09Z</time>
      </trkpt>
      <trkpt lat="49.92172" lon="2.0961">
        <ele>105.7</ele>
        <time>2022-08-10T09:03:10Z</time>
      </trkpt>
      <trkpt lat="49.92171" lon="2.09611">
        <ele>105.7</ele>
        <time>2022-08-10T09:03:11Z</time>
      </trkpt>
      <trkpt lat="49.92171" lon="2.09613">
        <ele>105.7</ele>
        <time>2022-08-10T09:03:12Z</time>
      </trkpt>
      <trkpt lat="49.92171" lon="2.09614">
        <ele>105.7</ele>
        <time>2022-08-10T09:03:13Z</time>
      </trkpt>
      <trkpt lat="49.9217" lon="2.09615">
        <ele>105.7</ele>
        <time>2022-08-10T09:03:14Z</time>
      </trkpt>
      <trkpt lat="49.9217" lon="2.09617">
        <ele>105.7</ele>
        <time>2022-08-10T09:03:15Z</time>
      </trkpt>
      <trkpt lat="49.9217" lon="2.09618">
        <ele>105.7</ele>
        <time>2022-08-10T09:03:16Z</time>
      </trkpt>
      <trkpt lat="49.92169" lon="2.09619">
        <ele>105.7</ele>
        <time>2022-08-10T09:03:17Z</time>
      </trkpt>
      <trkpt lat="49.92168" lon="2.09622">
        <ele>105.8</ele>
        <time>2022-08-10T09:03:18Z</time>
      </trkpt>
      <trkpt lat="49.92168" lon="2.09623">
        <ele>105.8</ele>
        <time>2022-08-10T09:03:19Z</time>
      </trkpt>
      <trkpt lat="49.92168" lon="2.09624">
        <ele>105.8</ele>
        <time>2022-08-10T09:03:20Z</time>
      </trkpt>
      <trkpt lat="49.92167" lon="2.09626">
        <ele>105.8</ele>
        <time>2022-08-10T09:03:22Z</time>
      </trkpt>
      <trkpt lat="49.92167" lon="2.09627">
        <ele>105.8</ele>
        <time>2022-08-10T09:03:23Z</time>
      </trkpt>
      <trkpt lat="49.92166" lon="2.09629">
        <ele>105.8</ele>
        <time>2022-08-10T09:03:24Z</time>
      </trkpt>
      <trkpt lat="49.92165" lon="2.09631">
        <ele>105.8</ele>
        <time>2022-08-10T09:03:25Z</time>
      </trkpt>
      <trkpt lat="49.92164" lon="2.09632">
        <ele>105.8</ele>
        <time>2022-08-10T09:03:26Z</time>
      </trkpt>
      <trkpt lat="49.92164" lon="2.09634">
        <ele>105.8</ele>
        <time>2022-08-10T09:03:27Z</time>
      </trkpt>
      <trkpt lat="49.92163" lon="2.09635">
        <ele>105.8</ele>
        <time>2022-08-10T09:03:28Z</time>
      </trkpt>
      <trkpt lat="49.92162" lon="2.09636">
        <ele>105.8</ele>
        <time>2022-08-10T09:03:30Z</time>
      </trkpt>
      <trkpt lat="49.92162" lon="2.09637">
        <ele>105.8</ele>
        <time>2022-08-10T09:03:31Z</time>
      </trkpt>
      <trkpt lat="49.92161" lon="2.09638">
        <ele>105.8</ele>
        <time>2022-08-10T09:03:32Z</time>
      </trkpt>
      <trkpt lat="49.9216" lon="2.0964">
        <ele>105.8</ele>
        <time>2022-08-10T09:03:33Z</time>
      </trkpt>
      <trkpt lat="49.92159" lon="2.09641">
        <ele>105.8</ele>
        <time>2022-08-10T09:03:34Z</time>
      </trkpt>
      <trkpt lat="49.92158" lon="2.09643">
        <ele>105.8</ele>
        <time>2022-08-10T09:03:35Z</time>
      </trkpt>
      <trkpt lat="49.92157" lon="2.09644">
        <ele>105.8</ele>
        <time>2022-08-10T09:03:36Z</time>
      </trkpt>
      <trkpt lat="49.92157" lon="2.09645">
        <ele>105.8</ele>
        <time>2022-08-10T09:03:38Z</time>
      </trkpt>
      <trkpt lat="49.92156" lon="2.09646">
        <ele>105.8</ele>
        <time>2022-08-10T09:03:39Z</time>
      </trkpt>
      <trkpt lat="49.92155" lon="2.09647">
        <ele>105.8</ele>
        <time>2022-08-10T09:03:40Z</time>
      </trkpt>
      <trkpt lat="49.92154" lon="2.09648">
        <ele>105.8</ele>
        <time>2022-08-10T09:03:41Z</time>
      </trkpt>
      <trkpt lat="49.92152" lon="2.0965">
        <ele>105.7</ele>
        <time>2022-08-10T09:03:42Z</time>
      </trkpt>
      <trkpt lat="49.92152" lon="2.09651">
        <ele>105.7</ele>
        <time>2022-08-10T09:03:43Z</time>
      </trkpt>
      <trkpt lat="49.92151" lon="2.09652">
        <ele>105.7</ele>
        <time>2022-08-10T09:03:44Z</time>
      </trkpt>
      <trkpt lat="49.92149" lon="2.09654">
        <ele>105.7</ele>
        <time>2022-08-10T09:03:46Z</time>
      </trkpt>
      <trkpt lat="49.92149" lon="2.09655">
        <ele>105.7</ele>
        <time>2022-08-10T09:03:47Z</time>
      </trkpt>
      <trkpt lat="49.92148" lon="2.09655">
        <ele>105.7</ele>
        <time>2022-08-10T09:03:48Z</time>
      </trkpt>
      <trkpt lat="49.92146" lon="2.09658">
        <ele>105.7</ele>
        <time>2022-08-10T09:03:49Z</time>
      </trkpt>
      <trkpt lat="49.92146" lon="2.09659">
        <ele>105.7</ele>
        <time>2022-08-10T09:03:50Z</time>
      </trkpt>
      <trkpt lat="49.92145" lon="2.09659">
        <ele>105.7</ele>
        <time>2022-08-10T09:03:51Z</time>
      </trkpt>
      <trkpt lat="49.92143" lon="2.09661">
        <ele>105.7</ele>
        <time>2022-08-10T09:03:52Z</time>
      </trkpt>
      <trkpt lat="49.92143" lon="2.09662">
        <ele>105.7</ele>
        <time>2022-08-10T09:03:54Z</time>
      </trkpt>
      <trkpt lat="49.92142" lon="2.09663">
        <ele>105.7</ele>
        <time>2022-08-10T09:03:55Z</time>
      </trkpt>
      <trkpt lat="49.9214" lon="2.09665">
        <ele>105.7</ele>
        <time>2022-08-10T09:03:56Z</time>
      </trkpt>
      <trkpt lat="49.9214" lon="2.09666">
        <ele>105.7</ele>
        <time>2022-08-10T09:03:57Z</time>
      </trkpt>
      <trkpt lat="49.92139" lon="2.09667">
        <ele>105.7</ele>
        <time>2022-08-10T09:03:58Z</time>
      </trkpt>
      <trkpt lat="49.92139" lon="2.09668">
        <ele>105.7</ele>
        <time>2022-08-10T09:03:59Z</time>
      </trkpt>
      <trkpt lat="49.92138" lon="2.09669">
        <ele>105.7</ele>
        <time>2022-08-10T09:04:00Z</time>
      </trkpt>
      <trkpt lat="49.92137" lon="2.0967">
        <ele>105.7</ele>
        <time>2022-08-10T09:04:01Z</time>
      </trkpt>
      <trkpt lat="49.92136" lon="2.09671">
        <ele>105.7</ele>
        <time>2022-08-10T09:04:02Z</time>
      </trkpt>
      <trkpt lat="49.92135" lon="2.09673">
        <ele>105.7</ele>
        <time>2022-08-10T09:04:03Z</time>
      </trkpt>
      <trkpt lat="49.92133" lon="2.09675">
        <ele>105.7</ele>
        <time>2022-08-10T09:04:05Z</time>
      </trkpt>
      <trkpt lat="49.92132" lon="2.09676">
        <ele>105.7</ele>
        <time>2022-08-10T09:04:06Z</time>
      </trkpt>
      <trkpt lat="49.92131" lon="2.09678">
        <ele>105.7</ele>
        <time>2022-08-10T09:04:07Z</time>
      </trkpt>
      <trkpt lat="49.9213" lon="2.09679">
        <ele>105.7</ele>
        <time>2022-08-10T09:04:09Z</time>
      </trkpt>
      <trkpt lat="49.9213" lon="2.0968">
        <ele>105.7</ele>
        <time>2022-08-10T09:04:10Z</time>
      </trkpt>
      <trkpt lat="49.92129" lon="2.09681">
        <ele>105.7</ele>
        <time>2022-08-10T09:04:11Z</time>
      </trkpt>
      <trkpt lat="49.92128" lon="2.09683">
        <ele>105.7</ele>
        <time>2022-08-10T09:04:12Z</time>
      </trkpt>
      <trkpt lat="49.92128" lon="2.09684">
        <ele>105.7</ele>
        <time>2022-08-10T09:04:13Z</time>
      </trkpt>
      <trkpt lat="49.92127" lon="2.09685">
        <ele>105.7</ele>
        <time>2022-08-10T09:04:14Z</time>
      </trkpt>
      <trkpt lat="49.92127" lon="2.09687">
        <ele>105.7</ele>
        <time>2022-08-10T09:04:15Z</time>
      </trkpt>
      <trkpt lat="49.92126" lon="2.09689">
        <ele>105.7</ele>
        <time>2022-08-10T09:04:16Z</time>
      </trkpt>
      <trkpt lat="49.92125" lon="2.0969">
        <ele>105.7</ele>
        <time>2022-08-10T09:04:17Z</time>
      </trkpt>
      <trkpt lat="49.92124" lon="2.09691">
        <ele>105.7</ele>
        <time>2022-08-10T09:04:18Z</time>
      </trkpt>
      <trkpt lat="49.92124" lon="2.09693">
        <ele>105.6</ele>
        <time>2022-08-10T09:04:20Z</time>
      </trkpt>
      <trkpt lat="49.92123" lon="2.09694">
        <ele>105.6</ele>
        <time>2022-08-10T09:04:21Z</time>
      </trkpt>
      <trkpt lat="49.92122" lon="2.09696">
        <ele>105.6</ele>
        <time>2022-08-10T09:04:22Z</time>
      </trkpt>
      <trkpt lat="49.92122" lon="2.09696">
        <ele>105.6</ele>
        <time>2022-08-10T09:04:23Z</time>
      </trkpt>
      <trkpt lat="49.92121" lon="2.09698">
        <ele>105.6</ele>
        <time>2022-08-10T09:04:24Z</time>
      </trkpt>
      <trkpt lat="49.9212" lon="2.09699">
        <ele>105.6</ele>
        <time>2022-08-10T09:04:25Z</time>
      </trkpt>
      <trkpt lat="49.92119" lon="2.09701">
        <ele>105.6</ele>
        <time>2022-08-10T09:04:26Z</time>
      </trkpt>
      <trkpt lat="49.92118" lon="2.09703">
        <ele>105.6</ele>
        <time>2022-08-10T09:04:28Z</time>
      </trkpt>
      <trkpt lat="49.92118" lon="2.09704">
        <ele>105.6</ele>
        <time>2022-08-10T09:04:29Z</time>
      </trkpt>
      <trkpt lat="49.92117" lon="2.09705">
        <ele>105.5</ele>
        <time>2022-08-10T09:04:30Z</time>
      </trkpt>
      <trkpt lat="49.92116" lon="2.09706">
        <ele>105.5</ele>
        <time>2022-08-10T09:04:31Z</time>
      </trkpt>
      <trkpt lat="49.92116" lon="2.09707">
        <ele>105.5</ele>
        <time>2022-08-10T09:04:32Z</time>
      </trkpt>
      <trkpt lat="49.92115" lon="2.09709">
        <ele>105.5</ele>
        <time>2022-08-10T09:04:33Z</time>
      </trkpt>
      <trkpt lat="49.92114" lon="2.0971">
        <ele>105.5</ele>
        <time>2022-08-10T09:04:34Z</time>
      </trkpt>
      <trkpt lat="49.92113" lon="2.09711">
        <ele>105.5</ele>
        <time>2022-08-10T09:04:36Z</time>
      </trkpt>
      <trkpt lat="49.92113" lon="2.09713">
        <ele>105.5</ele>
        <time>2022-08-10T09:04:37Z</time>
      </trkpt>
      <trkpt lat="49.92112" lon="2.09714">
        <ele>105.4</ele>
        <time>2022-08-10T09:04:38Z</time>
      </trkpt>
      <trkpt lat="49.92112" lon="2.09716">
        <ele>105.4</ele>
        <time>2022-08-10T09:04:39Z</time>
      </trkpt>
      <trkpt lat="49.92111" lon="2.09717">
        <ele>105.4</ele>
        <time>2022-08-10T09:04:40Z</time>
      </trkpt>
      <trkpt lat="49.9211" lon="2.09718">
        <ele>105.4</ele>
        <time>2022-08-10T09:04:41Z</time>
      </trkpt>
      <trkpt lat="49.9211" lon="2.0972">
        <ele>105.4</ele>
        <time>2022-08-10T09:04:42Z</time>
      </trkpt>
      <trkpt lat="49.92109" lon="2.09721">
        <ele>105.4</ele>
        <time>2022-08-10T09:04:43Z</time>
      </trkpt>
      <trkpt lat="49.92108" lon="2.09722">
        <ele>105.3</ele>
        <time>2022-08-10T09:04:45Z</time>
      </trkpt>
      <trkpt lat="49.92108" lon="2.09724">
        <ele>105.3</ele>
        <time>2022-08-10T09:04:46Z</time>
      </trkpt>
      <trkpt lat="49.92107" lon="2.09725">
        <ele>105.3</ele>
        <time>2022-08-10T09:04:47Z</time>
      </trkpt>
      <trkpt lat="49.92106" lon="2.09726">
        <ele>105.3</ele>
        <time>2022-08-10T09:04:48Z</time>
      </trkpt>
      <trkpt lat="49.92106" lon="2.09728">
        <ele>105.3</ele>
        <time>2022-08-10T09:04:49Z</time>
      </trkpt>
      <trkpt lat="49.92105" lon="2.09729">
        <ele>105.3</ele>
        <time>2022-08-10T09:04:50Z</time>
      </trkpt>
      <trkpt lat="49.92104" lon="2.0973">
        <ele>105.3</ele>
        <time>2022-08-10T09:04:51Z</time>
      </trkpt>
      <trkpt lat="49.92103" lon="2.09732">
        <ele>105.2</ele>
        <time>2022-08-10T09:04:52Z</time>
      </trkpt>
      <trkpt lat="49.92102" lon="2.09733">
        <ele>105.2</ele>
        <time>2022-08-10T09:04:54Z</time>
      </trkpt>
      <trkpt lat="49.92102" lon="2.09735">
        <ele>105.2</ele>
        <time>2022-08-10T09:04:55Z</time>
      </trkpt>
      <trkpt lat="49.92101" lon="2.09737">
        <ele>105.2</ele>
        <time>2022-08-10T09:04:56Z</time>
      </trkpt>
      <trkpt lat="49.92101" lon="2.09738">
        <ele>105.2</ele>
        <time>2022-08-10T09:04:57Z</time>
      </trkpt>
      <trkpt lat="49.921" lon="2.09739">
        <ele>105.2</ele>
        <time>2022-08-10T09:04:58Z</time>
      </trkpt>
      <trkpt lat="49.92099" lon="2.0974">
        <ele>105.2</ele>
        <time>2022-08-10T09:04:59Z</time>
      </trkpt>
      <trkpt lat="49.92098" lon="2.09742">
        <ele>105.1</ele>
        <time>2022-08-10T09:05:00Z</time>
      </trkpt>
      <trkpt lat="49.92097" lon="2.09743">
        <ele>105.1</ele>
        <time>2022-08-10T09:05:02Z</time>
      </trkpt>
      <trkpt lat="49.92096" lon="2.09744">
        <ele>105.1</ele>
        <time>2022-08-10T09:05:03Z</time>
      </trkpt>
      <trkpt lat="49.92096" lon="2.09745">
        <ele>105.1</ele>
        <time>2022-08-10T09:05:04Z</time>
      </trkpt>
      <trkpt lat="49.92095" lon="2.09746">
        <ele>105.1</ele>
        <time>2022-08-10T09:05:05Z</time>
      </trkpt>
      <trkpt lat="49.92094" lon="2.09747">
        <ele>105.1</ele>
        <time>2022-08-10T09:05:06Z</time>
      </trkpt>
      <trkpt lat="49.92093" lon="2.09748">
        <ele>105.1</ele>
        <time>2022-08-10T09:05:07Z</time>
      </trkpt>
      <trkpt lat="49.92092" lon="2.09751">
        <ele>105.1</ele>
        <time>2022-08-10T09:05:08Z</time>
      </trkpt>
      <trkpt lat="49.92091" lon="2.09752">
        <ele>105</ele>
        <time>2022-08-10T09:05:09Z</time>
      </trkpt>
      <trkpt lat="49.92091" lon="2.09752">
        <ele>105</ele>
        <time>2022-08-10T09:05:10Z</time>
      </trkpt>
      <trkpt lat="49.92089" lon="2.09755">
        <ele>105</ele>
        <time>2022-08-10T09:05:12Z</time>
      </trkpt>
      <trkpt lat="49.92089" lon="2.09756">
        <ele>105</ele>
        <time>2022-08-10T09:05:13Z</time>
      </trkpt>
      <trkpt lat="49.92088" lon="2.09757">
        <ele>105</ele>
        <time>2022-08-10T09:05:14Z</time>
      </trkpt>
      <trkpt lat="49.92087" lon="2.09759">
        <ele>104.9</ele>
        <time>2022-08-10T09:05:15Z</time>
      </trkpt>
      <trkpt lat="49.92086" lon="2.0976">
        <ele>104.9</ele>
        <time>2022-08-10T09:05:17Z</time>
      </trkpt>
      <trkpt lat="49.92085" lon="2.09761">
        <ele>104.9</ele>
        <time>2022-08-10T09:05:18Z</time>
      </trkpt>
      <trkpt lat="49.92084" lon="2.09762">
        <ele>104.9</ele>
        <time>2022-08-10T09:05:19Z</time>
      </trkpt>
      <trkpt lat="49.92084" lon="2.09764">
        <ele>104.9</ele>
        <time>2022-08-10T09:05:20Z</time>
      </trkpt>
      <trkpt lat="49.92082" lon="2.09766">
        <ele>104.9</ele>
        <time>2022-08-10T09:05:21Z</time>
      </trkpt>
      <trkpt lat="49.92081" lon="2.09767">
        <ele>104.8</ele>
        <time>2022-08-10T09:05:22Z</time>
      </trkpt>
      <trkpt lat="49.92081" lon="2.09767">
        <ele>104.8</ele>
        <time>2022-08-10T09:05:23Z</time>
      </trkpt>
      <trkpt lat="49.9208" lon="2.09768">
        <ele>104.8</ele>
        <time>2022-08-10T09:05:25Z</time>
      </trkpt>
      <trkpt lat="49.92079" lon="2.09769">
        <ele>104.8</ele>
        <time>2022-08-10T09:05:26Z</time>
      </trkpt>
      <trkpt lat="49.92078" lon="2.09771">
        <ele>104.8</ele>
        <time>2022-08-10T09:05:27Z</time>
      </trkpt>
      <trkpt lat="49.92077" lon="2.09771">
        <ele>104.7</ele>
        <time>2022-08-10T09:05:28Z</time>
      </trkpt>
      <trkpt lat="49.92076" lon="2.09772">
        <ele>104.7</ele>
        <time>2022-08-10T09:05:29Z</time>
      </trkpt>
      <trkpt lat="49.92075" lon="2.09773">
        <ele>104.7</ele>
        <time>2022-08-10T09:05:30Z</time>
      </trkpt>
      <trkpt lat="49.92074" lon="2.09774">
        <ele>104.7</ele>
        <time>2022-08-10T09:05:31Z</time>
      </trkpt>
      <trkpt lat="49.92073" lon="2.09775">
        <ele>104.6</ele>
        <time>2022-08-10T09:05:32Z</time>
      </trkpt>
      <trkpt lat="49.92073" lon="2.09776">
        <ele>104.6</ele>
        <time>2022-08-10T09:05:34Z</time>
      </trkpt>
      <trkpt lat="49.92072" lon="2.09777">
        <ele>104.6</ele>
        <time>2022-08-10T09:05:35Z</time>
      </trkpt>
      <trkpt lat="49.92071" lon="2.09779">
        <ele>104.5</ele>
        <time>2022-08-10T09:05:36Z</time>
      </trkpt>
      <trkpt lat="49.9207" lon="2.0978">
        <ele>104.5</ele>
        <time>2022-08-10T09:05:37Z</time>
      </trkpt>
      <trkpt lat="49.92069" lon="2.09782">
        <ele>104.4</ele>
        <time>2022-08-10T09:05:38Z</time>
      </trkpt>
      <trkpt lat="49.92068" lon="2.09783">
        <ele>104.4</ele>
        <time>2022-08-10T09:05:39Z</time>
      </trkpt>
      <trkpt lat="49.92067" lon="2.09784">
        <ele>104.4</ele>
        <time>2022-08-10T09:05:40Z</time>
      </trkpt>
      <trkpt lat="49.92067" lon="2.09786">
        <ele>104.3</ele>
        <time>2022-08-10T09:05:41Z</time>
      </trkpt>
      <trkpt lat="49.92066" lon="2.09787">
        <ele>104.3</ele>
        <time>2022-08-10T09:05:43Z</time>
      </trkpt>
      <trkpt lat="49.92066" lon="2.09788">
        <ele>104.3</ele>
        <time>2022-08-10T09:05:44Z</time>
      </trkpt>
      <trkpt lat="49.92065" lon="2.09789">
        <ele>104.2</ele>
        <time>2022-08-10T09:05:45Z</time>
      </trkpt>
      <trkpt lat="49.92064" lon="2.0979">
        <ele>104.2</ele>
        <time>2022-08-10T09:05:46Z</time>
      </trkpt>
      <trkpt lat="49.92064" lon="2.09791">
        <ele>104.2</ele>
        <time>2022-08-10T09:05:47Z</time>
      </trkpt>
      <trkpt lat="49.92063" lon="2.09793">
        <ele>104.1</ele>
        <time>2022-08-10T09:05:48Z</time>
      </trkpt>
      <trkpt lat="49.92062" lon="2.09794">
        <ele>104.1</ele>
        <time>2022-08-10T09:05:49Z</time>
      </trkpt>
      <trkpt lat="49.92062" lon="2.09796">
        <ele>104</ele>
        <time>2022-08-10T09:05:50Z</time>
      </trkpt>
      <trkpt lat="49.92061" lon="2.09797">
        <ele>104</ele>
        <time>2022-08-10T09:05:52Z</time>
      </trkpt>
      <trkpt lat="49.9206" lon="2.09798">
        <ele>104</ele>
        <time>2022-08-10T09:05:53Z</time>
      </trkpt>
      <trkpt lat="49.9206" lon="2.09799">
        <ele>103.9</ele>
        <time>2022-08-10T09:05:54Z</time>
      </trkpt>
      <trkpt lat="49.92059" lon="2.09801">
        <ele>103.9</ele>
        <time>2022-08-10T09:05:55Z</time>
      </trkpt>
      <trkpt lat="49.92058" lon="2.09802">
        <ele>103.8</ele>
        <time>2022-08-10T09:05:56Z</time>
      </trkpt>
      <trkpt lat="49.92058" lon="2.09804">
        <ele>103.8</ele>
        <time>2022-08-10T09:05:57Z</time>
      </trkpt>
      <trkpt lat="49.92057" lon="2.09805">
        <ele>103.7</ele>
        <time>2022-08-10T09:05:58Z</time>
      </trkpt>
      <trkpt lat="49.92056" lon="2.09807">
        <ele>103.7</ele>
        <time>2022-08-10T09:05:59Z</time>
      </trkpt>
      <trkpt lat="49.92055" lon="2.09808">
        <ele>103.7</ele>
        <time>2022-08-10T09:06:00Z</time>
      </trkpt>
      <trkpt lat="49.92055" lon="2.09809">
        <ele>103.6</ele>
        <time>2022-08-10T09:06:01Z</time>
      </trkpt>
      <trkpt lat="49.92054" lon="2.0981">
        <ele>103.6</ele>
        <time>2022-08-10T09:06:03Z</time>
      </trkpt>
      <trkpt lat="49.92053" lon="2.09812">
        <ele>103.6</ele>
        <time>2022-08-10T09:06:04Z</time>
      </trkpt>
      <trkpt lat="49.92053" lon="2.09813">
        <ele>103.5</ele>
        <time>2022-08-10T09:06:05Z</time>
      </trkpt>
      <trkpt lat="49.92052" lon="2.09814">
        <ele>103.5</ele>
        <time>2022-08-10T09:06:06Z</time>
      </trkpt>
      <trkpt lat="49.92051" lon="2.09816">
        <ele>103.4</ele>
        <time>2022-08-10T09:06:07Z</time>
      </trkpt>
      <trkpt lat="49.92051" lon="2.09817">
        <ele>103.4</ele>
        <time>2022-08-10T09:06:08Z</time>
      </trkpt>
      <trkpt lat="49.9205" lon="2.09818">
        <ele>103.3</ele>
        <time>2022-08-10T09:06:09Z</time>
      </trkpt>
      <trkpt lat="49.92049" lon="2.0982">
        <ele>103.3</ele>
        <time>2022-08-10T09:06:10Z</time>
      </trkpt>
      <trkpt lat="49.92048" lon="2.09821">
        <ele>103.2</ele>
        <time>2022-08-10T09:06:11Z</time>
      </trkpt>
      <trkpt lat="49.92047" lon="2.09822">
        <ele>103.2</ele>
        <time>2022-08-10T09:06:13Z</time>
      </trkpt>
      <trkpt lat="49.92047" lon="2.09823">
        <ele>103.1</ele>
        <time>2022-08-10T09:06:14Z</time>
      </trkpt>
      <trkpt lat="49.92045" lon="2.09823">
        <ele>103.1</ele>
        <time>2022-08-10T09:06:15Z</time>
      </trkpt>
      <trkpt lat="49.92044" lon="2.09824">
        <ele>103</ele>
        <time>2022-08-10T09:06:16Z</time>
      </trkpt>
      <trkpt lat="49.92043" lon="2.09825">
        <ele>103</ele>
        <time>2022-08-10T09:06:17Z</time>
      </trkpt>
      <trkpt lat="49.92042" lon="2.09826">
        <ele>102.9</ele>
        <time>2022-08-10T09:06:18Z</time>
      </trkpt>
      <trkpt lat="49.92041" lon="2.09827">
        <ele>102.9</ele>
        <time>2022-08-10T09:06:19Z</time>
      </trkpt>
      <trkpt lat="49.92041" lon="2.09827">
        <ele>102.8</ele>
        <time>2022-08-10T09:06:20Z</time>
      </trkpt>
      <trkpt lat="49.9204" lon="2.09828">
        <ele>102.8</ele>
        <time>2022-08-10T09:06:22Z</time>
      </trkpt>
      <trkpt lat="49.92039" lon="2.09829">
        <ele>102.7</ele>
        <time>2022-08-10T09:06:23Z</time>
      </trkpt>
      <trkpt lat="49.92038" lon="2.0983">
        <ele>102.7</ele>
        <time>2022-08-10T09:06:24Z</time>
      </trkpt>
      <trkpt lat="49.92037" lon="2.09831">
        <ele>102.6</ele>
        <time>2022-08-10T09:06:25Z</time>
      </trkpt>
      <trkpt lat="49.92036" lon="2.09833">
        <ele>102.5</ele>
        <time>2022-08-10T09:06:26Z</time>
      </trkpt>
      <trkpt lat="49.92035" lon="2.09833">
        <ele>102.4</ele>
        <time>2022-08-10T09:06:27Z</time>
      </trkpt>
      <trkpt lat="49.92034" lon="2.09834">
        <ele>102.4</ele>
        <time>2022-08-10T09:06:28Z</time>
      </trkpt>
      <trkpt lat="49.92033" lon="2.09835">
        <ele>102.3</ele>
        <time>2022-08-10T09:06:29Z</time>
      </trkpt>
      <trkpt lat="49.92032" lon="2.09836">
        <ele>102.2</ele>
        <time>2022-08-10T09:06:31Z</time>
      </trkpt>
      <trkpt lat="49.92031" lon="2.09837">
        <ele>102.1</ele>
        <time>2022-08-10T09:06:32Z</time>
      </trkpt>
      <trkpt lat="49.9203" lon="2.09838">
        <ele>102.1</ele>
        <time>2022-08-10T09:06:33Z</time>
      </trkpt>
      <trkpt lat="49.92029" lon="2.09839">
        <ele>102</ele>
        <time>2022-08-10T09:06:34Z</time>
      </trkpt>
      <trkpt lat="49.92029" lon="2.0984">
        <ele>101.9</ele>
        <time>2022-08-10T09:06:35Z</time>
      </trkpt>
      <trkpt lat="49.92028" lon="2.09841">
        <ele>101.8</ele>
        <time>2022-08-10T09:06:36Z</time>
      </trkpt>
      <trkpt lat="49.92027" lon="2.09842">
        <ele>101.7</ele>
        <time>2022-08-10T09:06:37Z</time>
      </trkpt>
      <trkpt lat="49.92026" lon="2.09843">
        <ele>101.7</ele>
        <time>2022-08-10T09:06:39Z</time>
      </trkpt>
      <trkpt lat="49.92025" lon="2.09843">
        <ele>101.6</ele>
        <time>2022-08-10T09:06:40Z</time>
      </trkpt>
      <trkpt lat="49.92024" lon="2.09844">
        <ele>101.5</ele>
        <time>2022-08-10T09:06:41Z</time>
      </trkpt>
      <trkpt lat="49.92024" lon="2.09845">
        <ele>101.4</ele>
        <time>2022-08-10T09:06:42Z</time>
      </trkpt>
      <trkpt lat="49.92023" lon="2.09846">
        <ele>101.3</ele>
        <time>2022-08-10T09:06:43Z</time>
      </trkpt>
      <trkpt lat="49.92022" lon="2.09846">
        <ele>101.3</ele>
        <time>2022-08-10T09:06:44Z</time>
      </trkpt>
      <trkpt lat="49.92021" lon="2.09847">
        <ele>101.2</ele>
        <time>2022-08-10T09:06:46Z</time>
      </trkpt>
      <trkpt lat="49.9202" lon="2.09848">
        <ele>101.1</ele>
        <time>2022-08-10T09:06:47Z</time>
      </trkpt>
      <trkpt lat="49.92019" lon="2.0985">
        <ele>101</ele>
        <time>2022-08-10T09:06:48Z</time>
      </trkpt>
      <trkpt lat="49.92019" lon="2.09851">
        <ele>100.9</ele>
        <time>2022-08-10T09:06:49Z</time>
      </trkpt>
      <trkpt lat="49.92018" lon="2.09853">
        <ele>100.8</ele>
        <time>2022-08-10T09:06:50Z</time>
      </trkpt>
      <trkpt lat="49.92017" lon="2.09854">
        <ele>100.7</ele>
        <time>2022-08-10T09:06:51Z</time>
      </trkpt>
      <trkpt lat="49.92016" lon="2.09856">
        <ele>100.5</ele>
        <time>2022-08-10T09:06:52Z</time>
      </trkpt>
      <trkpt lat="49.92015" lon="2.09857">
        <ele>100.4</ele>
        <time>2022-08-10T09:06:53Z</time>
      </trkpt>
      <trkpt lat="49.92015" lon="2.09858">
        <ele>100.3</ele>
        <time>2022-08-10T09:06:55Z</time>
      </trkpt>
      <trkpt lat="49.92014" lon="2.09859">
        <ele>100.2</ele>
        <time>2022-08-10T09:06:56Z</time>
      </trkpt>
      <trkpt lat="49.92013" lon="2.09861">
        <ele>100.1</ele>
        <time>2022-08-10T09:06:57Z</time>
      </trkpt>
      <trkpt lat="49.92013" lon="2.09862">
        <ele>100</ele>
        <time>2022-08-10T09:06:58Z</time>
      </trkpt>
      <trkpt lat="49.92012" lon="2.09863">
        <ele>99.8</ele>
        <time>2022-08-10T09:06:59Z</time>
      </trkpt>
      <trkpt lat="49.92011" lon="2.09864">
        <ele>99.7</ele>
        <time>2022-08-10T09:07:00Z</time>
      </trkpt>
      <trkpt lat="49.9201" lon="2.09866">
        <ele>99.6</ele>
        <time>2022-08-10T09:07:02Z</time>
      </trkpt>
      <trkpt lat="49.92009" lon="2.09867">
        <ele>99.4</ele>
        <time>2022-08-10T09:07:03Z</time>
      </trkpt>
      <trkpt lat="49.92009" lon="2.09868">
        <ele>99.3</ele>
        <time>2022-08-10T09:07:04Z</time>
      </trkpt>
      <trkpt lat="49.92008" lon="2.09869">
        <ele>99.1</ele>
        <time>2022-08-10T09:07:05Z</time>
      </trkpt>
      <trkpt lat="49.92007" lon="2.0987">
        <ele>99</ele>
        <time>2022-08-10T09:07:06Z</time>
      </trkpt>
      <trkpt lat="49.92006" lon="2.09872">
        <ele>98.9</ele>
        <time>2022-08-10T09:07:07Z</time>
      </trkpt>
      <trkpt lat="49.92005" lon="2.09873">
        <ele>98.7</ele>
        <time>2022-08-10T09:07:08Z</time>
      </trkpt>
      <trkpt lat="49.92005" lon="2.09874">
        <ele>98.6</ele>
        <time>2022-08-10T09:07:10Z</time>
      </trkpt>
      <trkpt lat="49.92003" lon="2.09875">
        <ele>98.4</ele>
        <time>2022-08-10T09:07:11Z</time>
      </trkpt>
      <trkpt lat="49.92002" lon="2.09876">
        <ele>98.3</ele>
        <time>2022-08-10T09:07:12Z</time>
      </trkpt>
      <trkpt lat="49.92002" lon="2.09877">
        <ele>98.2</ele>
        <time>2022-08-10T09:07:13Z</time>
      </trkpt>
      <trkpt lat="49.92001" lon="2.09878">
        <ele>98</ele>
        <time>2022-08-10T09:07:14Z</time>
      </trkpt>
      <trkpt lat="49.91999" lon="2.09879">
        <ele>97.7</ele>
        <time>2022-08-10T09:07:16Z</time>
      </trkpt>
      <trkpt lat="49.91998" lon="2.09879">
        <ele>97.6</ele>
        <time>2022-08-10T09:07:17Z</time>
      </trkpt>
      <trkpt lat="49.91997" lon="2.0988">
        <ele>97.5</ele>
        <time>2022-08-10T09:07:18Z</time>
      </trkpt>
      <trkpt lat="49.91996" lon="2.09881">
        <ele>97.3</ele>
        <time>2022-08-10T09:07:19Z</time>
      </trkpt>
      <trkpt lat="49.91995" lon="2.09882">
        <ele>97.1</ele>
        <time>2022-08-10T09:07:21Z</time>
      </trkpt>
      <trkpt lat="49.91994" lon="2.09883">
        <ele>97</ele>
        <time>2022-08-10T09:07:22Z</time>
      </trkpt>
      <trkpt lat="49.91994" lon="2.09884">
        <ele>96.9</ele>
        <time>2022-08-10T09:07:23Z</time>
      </trkpt>
      <trkpt lat="49.91993" lon="2.09886">
        <ele>96.7</ele>
        <time>2022-08-10T09:07:24Z</time>
      </trkpt>
      <trkpt lat="49.91992" lon="2.09887">
        <ele>96.6</ele>
        <time>2022-08-10T09:07:25Z</time>
      </trkpt>
      <trkpt lat="49.91992" lon="2.09887">
        <ele>96.5</ele>
        <time>2022-08-10T09:07:26Z</time>
      </trkpt>
      <trkpt lat="49.91991" lon="2.09888">
        <ele>96.4</ele>
        <time>2022-08-10T09:07:27Z</time>
      </trkpt>
      <trkpt lat="49.9199" lon="2.0989">
        <ele>96.1</ele>
        <time>2022-08-10T09:07:28Z</time>
      </trkpt>
      <trkpt lat="49.91989" lon="2.09891">
        <ele>96</ele>
        <time>2022-08-10T09:07:29Z</time>
      </trkpt>
      <trkpt lat="49.91989" lon="2.09892">
        <ele>96</ele>
        <time>2022-08-10T09:07:31Z</time>
      </trkpt>
      <trkpt lat="49.91989" lon="2.09893">
        <ele>95.9</ele>
        <time>2022-08-10T09:07:32Z</time>
      </trkpt>
      <trkpt lat="49.91988" lon="2.09894">
        <ele>95.7</ele>
        <time>2022-08-10T09:07:33Z</time>
      </trkpt>
      <trkpt lat="49.91987" lon="2.09895">
        <ele>95.6</ele>
        <time>2022-08-10T09:07:34Z</time>
      </trkpt>
      <trkpt lat="49.91987" lon="2.09897">
        <ele>95.4</ele>
        <time>2022-08-10T09:07:35Z</time>
      </trkpt>
      <trkpt lat="49.91987" lon="2.09898">
        <ele>95.3</ele>
        <time>2022-08-10T09:07:36Z</time>
      </trkpt>
      <trkpt lat="49.91986" lon="2.099">
        <ele>95.2</ele>
        <time>2022-08-10T09:07:37Z</time>
      </trkpt>
      <trkpt lat="49.91986" lon="2.09901">
        <ele>95.1</ele>
        <time>2022-08-10T09:07:38Z</time>
      </trkpt>
      <trkpt lat="49.91985" lon="2.09902">
        <ele>94.9</ele>
        <time>2022-08-10T09:07:40Z</time>
      </trkpt>
      <trkpt lat="49.91985" lon="2.09904">
        <ele>94.8</ele>
        <time>2022-08-10T09:07:41Z</time>
      </trkpt>
      <trkpt lat="49.91984" lon="2.09905">
        <ele>94.6</ele>
        <time>2022-08-10T09:07:42Z</time>
      </trkpt>
      <trkpt lat="49.91984" lon="2.09906">
        <ele>94.5</ele>
        <time>2022-08-10T09:07:43Z</time>
      </trkpt>
      <trkpt lat="49.91983" lon="2.09908">
        <ele>94.4</ele>
        <time>2022-08-10T09:07:44Z</time>
      </trkpt>
      <trkpt lat="49.91982" lon="2.09909">
        <ele>94.2</ele>
        <time>2022-08-10T09:07:45Z</time>
      </trkpt>
      <trkpt lat="49.91982" lon="2.09911">
        <ele>94.1</ele>
        <time>2022-08-10T09:07:46Z</time>
      </trkpt>
      <trkpt lat="49.91982" lon="2.09912">
        <ele>94</ele>
        <time>2022-08-10T09:07:48Z</time>
      </trkpt>
      <trkpt lat="49.91981" lon="2.09914">
        <ele>93.8</ele>
        <time>2022-08-10T09:07:49Z</time>
      </trkpt>
      <trkpt lat="49.91981" lon="2.09915">
        <ele>93.7</ele>
        <time>2022-08-10T09:07:50Z</time>
      </trkpt>
      <trkpt lat="49.9198" lon="2.09917">
        <ele>93.6</ele>
        <time>2022-08-10T09:07:51Z</time>
      </trkpt>
      <trkpt lat="49.9198" lon="2.09918">
        <ele>93.4</ele>
        <time>2022-08-10T09:07:52Z</time>
      </trkpt>
      <trkpt lat="49.91979" lon="2.09921">
        <ele>93.2</ele>
        <time>2022-08-10T09:07:53Z</time>
      </trkpt>
      <trkpt lat="49.91979" lon="2.09923">
        <ele>93.1</ele>
        <time>2022-08-10T09:07:55Z</time>
      </trkpt>
      <trkpt lat="49.91979" lon="2.09924">
        <ele>93</ele>
        <time>2022-08-10T09:07:56Z</time>
      </trkpt>
      <trkpt lat="49.91978" lon="2.09926">
        <ele>92.9</ele>
        <time>2022-08-10T09:07:57Z</time>
      </trkpt>
      <trkpt lat="49.91978" lon="2.09928">
        <ele>92.8</ele>
        <time>2022-08-10T09:07:59Z</time>
      </trkpt>
      <trkpt lat="49.91978" lon="2.09929">
        <ele>92.7</ele>
        <time>2022-08-10T09:08:00Z</time>
      </trkpt>
      <trkpt lat="49.91977" lon="2.09931">
        <ele>92.5</ele>
        <time>2022-08-10T09:08:01Z</time>
      </trkpt>
      <trkpt lat="49.91977" lon="2.09932">
        <ele>92.5</ele>
        <time>2022-08-10T09:08:02Z</time>
      </trkpt>
      <trkpt lat="49.91976" lon="2.09933">
        <ele>92.3</ele>
        <time>2022-08-10T09:08:03Z</time>
      </trkpt>
      <trkpt lat="49.91976" lon="2.09935">
        <ele>92.2</ele>
        <time>2022-08-10T09:08:04Z</time>
      </trkpt>
      <trkpt lat="49.91976" lon="2.09937">
        <ele>92.1</ele>
        <time>2022-08-10T09:08:06Z</time>
      </trkpt>
      <trkpt lat="49.91976" lon="2.09938">
        <ele>92.1</ele>
        <time>2022-08-10T09:08:07Z</time>
      </trkpt>
      <trkpt lat="49.91976" lon="2.09941">
        <ele>91.9</ele>
        <time>2022-08-10T09:08:08Z</time>
      </trkpt>
      <trkpt lat="49.91976" lon="2.09942">
        <ele>91.8</ele>
        <time>2022-08-10T09:08:09Z</time>
      </trkpt>
      <trkpt lat="49.91976" lon="2.09943">
        <ele>91.8</ele>
        <time>2022-08-10T09:08:10Z</time>
      </trkpt>
      <trkpt lat="49.91975" lon="2.09944">
        <ele>91.7</ele>
        <time>2022-08-10T09:08:11Z</time>
      </trkpt>
      <trkpt lat="49.91975" lon="2.09946">
        <ele>91.6</ele>
        <time>2022-08-10T09:08:13Z</time>
      </trkpt>
      <trkpt lat="49.91975" lon="2.09947">
        <ele>91.5</ele>
        <time>2022-08-10T09:08:14Z</time>
      </trkpt>
      <trkpt lat="49.91974" lon="2.09948">
        <ele>91.5</ele>
        <time>2022-08-10T09:08:15Z</time>
      </trkpt>
      <trkpt lat="49.91974" lon="2.09949">
        <ele>91.4</ele>
        <time>2022-08-10T09:08:16Z</time>
      </trkpt>
      <trkpt lat="49.91974" lon="2.0995">
        <ele>91.3</ele>
        <time>2022-08-10T09:08:17Z</time>
      </trkpt>
      <trkpt lat="49.91973" lon="2.09951">
        <ele>91.3</ele>
        <time>2022-08-10T09:08:18Z</time>
      </trkpt>
      <trkpt lat="49.91973" lon="2.09952">
        <ele>91.2</ele>
        <time>2022-08-10T09:08:19Z</time>
      </trkpt>
      <trkpt lat="49.91973" lon="2.09954">
        <ele>91.1</ele>
        <time>2022-08-10T09:08:20Z</time>
      </trkpt>
      <trkpt lat="49.91973" lon="2.09955">
        <ele>91.1</ele>
        <time>2022-08-10T09:08:21Z</time>
      </trkpt>
      <trkpt lat="49.91972" lon="2.09957">
        <ele>91</ele>
        <time>2022-08-10T09:08:22Z</time>
      </trkpt>
      <trkpt lat="49.91972" lon="2.09958">
        <ele>91</ele>
        <time>2022-08-10T09:08:23Z</time>
      </trkpt>
      <trkpt lat="49.91972" lon="2.09961">
        <ele>90.8</ele>
        <time>2022-08-10T09:08:25Z</time>
      </trkpt>
      <trkpt lat="49.91972" lon="2.09963">
        <ele>90.8</ele>
        <time>2022-08-10T09:08:26Z</time>
      </trkpt>
      <trkpt lat="49.91972" lon="2.09964">
        <ele>90.7</ele>
        <time>2022-08-10T09:08:27Z</time>
      </trkpt>
      <trkpt lat="49.91972" lon="2.09965">
        <ele>90.7</ele>
        <time>2022-08-10T09:08:28Z</time>
      </trkpt>
      <trkpt lat="49.91972" lon="2.09967">
        <ele>90.6</ele>
        <time>2022-08-10T09:08:29Z</time>
      </trkpt>
      <trkpt lat="49.91972" lon="2.09969">
        <ele>90.5</ele>
        <time>2022-08-10T09:08:30Z</time>
      </trkpt>
      <trkpt lat="49.91972" lon="2.09971">
        <ele>90.5</ele>
        <time>2022-08-10T09:08:31Z</time>
      </trkpt>
      <trkpt lat="49.91972" lon="2.09973">
        <ele>90.4</ele>
        <time>2022-08-10T09:08:32Z</time>
      </trkpt>
      <trkpt lat="49.91972" lon="2.09974">
        <ele>90.4</ele>
        <time>2022-08-10T09:08:34Z</time>
      </trkpt>
      <trkpt lat="49.91973" lon="2.09976">
        <ele>90.3</ele>
        <time>2022-08-10T09:08:35Z</time>
      </trkpt>
      <trkpt lat="49.91973" lon="2.09978">
        <ele>90.3</ele>
        <time>2022-08-10T09:08:36Z</time>
      </trkpt>
      <trkpt lat="49.91974" lon="2.0998">
        <ele>90.2</ele>
        <time>2022-08-10T09:08:37Z</time>
      </trkpt>
      <trkpt lat="49.91974" lon="2.09983">
        <ele>90.1</ele>
        <time>2022-08-10T09:08:38Z</time>
      </trkpt>
      <trkpt lat="49.91974" lon="2.09984">
        <ele>90.1</ele>
        <time>2022-08-10T09:08:39Z</time>
      </trkpt>
      <trkpt lat="49.91975" lon="2.09985">
        <ele>90.1</ele>
        <time>2022-08-10T09:08:40Z</time>
      </trkpt>
      <trkpt lat="49.91975" lon="2.09987">
        <ele>90.1</ele>
        <time>2022-08-10T09:08:42Z</time>
      </trkpt>
      <trkpt lat="49.91975" lon="2.09989">
        <ele>90</ele>
        <time>2022-08-10T09:08:43Z</time>
      </trkpt>
      <trkpt lat="49.91975" lon="2.0999">
        <ele>90</ele>
        <time>2022-08-10T09:08:44Z</time>
      </trkpt>
      <trkpt lat="49.91976" lon="2.09993">
        <ele>89.9</ele>
        <time>2022-08-10T09:08:45Z</time>
      </trkpt>
      <trkpt lat="49.91976" lon="2.09995">
        <ele>89.9</ele>
        <time>2022-08-10T09:08:46Z</time>
      </trkpt>
      <trkpt lat="49.91976" lon="2.09996">
        <ele>89.9</ele>
        <time>2022-08-10T09:08:47Z</time>
      </trkpt>
      <trkpt lat="49.91977" lon="2.09998">
        <ele>89.9</ele>
        <time>2022-08-10T09:08:48Z</time>
      </trkpt>
      <trkpt lat="49.91977" lon="2.09999">
        <ele>89.9</ele>
        <time>2022-08-10T09:08:49Z</time>
      </trkpt>
      <trkpt lat="49.91977" lon="2.1">
        <ele>89.8</ele>
        <time>2022-08-10T09:08:51Z</time>
      </trkpt>
      <trkpt lat="49.91978" lon="2.10002">
        <ele>89.8</ele>
        <time>2022-08-10T09:08:52Z</time>
      </trkpt>
      <trkpt lat="49.91978" lon="2.10004">
        <ele>89.8</ele>
        <time>2022-08-10T09:08:53Z</time>
      </trkpt>
      <trkpt lat="49.91978" lon="2.10005">
        <ele>89.8</ele>
        <time>2022-08-10T09:08:54Z</time>
      </trkpt>
      <trkpt lat="49.91979" lon="2.10007">
        <ele>89.7</ele>
        <time>2022-08-10T09:08:55Z</time>
      </trkpt>
      <trkpt lat="49.91979" lon="2.10008">
        <ele>89.7</ele>
        <time>2022-08-10T09:08:56Z</time>
      </trkpt>
      <trkpt lat="49.9198" lon="2.1001">
        <ele>89.7</ele>
        <time>2022-08-10T09:08:57Z</time>
      </trkpt>
      <trkpt lat="49.9198" lon="2.10011">
        <ele>89.7</ele>
        <time>2022-08-10T09:08:58Z</time>
      </trkpt>
      <trkpt lat="49.9198" lon="2.10013">
        <ele>89.7</ele>
        <time>2022-08-10T09:08:59Z</time>
      </trkpt>
      <trkpt lat="49.91981" lon="2.10014">
        <ele>89.6</ele>
        <time>2022-08-10T09:09:01Z</time>
      </trkpt>
      <trkpt lat="49.91981" lon="2.10016">
        <ele>89.6</ele>
        <time>2022-08-10T09:09:02Z</time>
      </trkpt>
      <trkpt lat="49.91982" lon="2.10018">
        <ele>89.6</ele>
        <time>2022-08-10T09:09:03Z</time>
      </trkpt>
      <trkpt lat="49.91982" lon="2.10019">
        <ele>89.6</ele>
        <time>2022-08-10T09:09:04Z</time>
      </trkpt>
      <trkpt lat="49.91982" lon="2.10023">
        <ele>89.6</ele>
        <time>2022-08-10T09:09:05Z</time>
      </trkpt>
      <trkpt lat="49.91982" lon="2.10024">
        <ele>89.5</ele>
        <time>2022-08-10T09:09:06Z</time>
      </trkpt>
      <trkpt lat="49.91982" lon="2.10026">
        <ele>89.5</ele>
        <time>2022-08-10T09:09:07Z</time>
      </trkpt>
      <trkpt lat="49.91983" lon="2.10028">
        <ele>89.5</ele>
        <time>2022-08-10T09:09:08Z</time>
      </trkpt>
      <trkpt lat="49.91983" lon="2.1003">
        <ele>89.5</ele>
        <time>2022-08-10T09:09:09Z</time>
      </trkpt>
      <trkpt lat="49.91983" lon="2.10031">
        <ele>89.5</ele>
        <time>2022-08-10T09:09:11Z</time>
      </trkpt>
      <trkpt lat="49.91983" lon="2.10033">
        <ele>89.5</ele>
        <time>2022-08-10T09:09:12Z</time>
      </trkpt>
      <trkpt lat="49.91983" lon="2.10034">
        <ele>89.5</ele>
        <time>2022-08-10T09:09:13Z</time>
      </trkpt>
      <trkpt lat="49.91983" lon="2.10036">
        <ele>89.5</ele>
        <time>2022-08-10T09:09:14Z</time>
      </trkpt>
      <trkpt lat="49.91983" lon="2.10038">
        <ele>89.5</ele>
        <time>2022-08-10T09:09:15Z</time>
      </trkpt>
      <trkpt lat="49.91983" lon="2.1004">
        <ele>89.5</ele>
        <time>2022-08-10T09:09:16Z</time>
      </trkpt>
      <trkpt lat="49.91983" lon="2.10041">
        <ele>89.5</ele>
        <time>2022-08-10T09:09:17Z</time>
      </trkpt>
      <trkpt lat="49.91983" lon="2.10043">
        <ele>89.4</ele>
        <time>2022-08-10T09:09:19Z</time>
      </trkpt>
      <trkpt lat="49.91984" lon="2.10045">
        <ele>89.4</ele>
        <time>2022-08-10T09:09:20Z</time>
      </trkpt>
      <trkpt lat="49.91984" lon="2.10047">
        <ele>89.4</ele>
        <time>2022-08-10T09:09:21Z</time>
      </trkpt>
      <trkpt lat="49.91984" lon="2.1005">
        <ele>89.4</ele>
        <time>2022-08-10T09:09:22Z</time>
      </trkpt>
      <trkpt lat="49.91985" lon="2.10051">
        <ele>89.4</ele>
        <time>2022-08-10T09:09:23Z</time>
      </trkpt>
      <trkpt lat="49.91985" lon="2.10052">
        <ele>89.4</ele>
        <time>2022-08-10T09:09:24Z</time>
      </trkpt>
      <trkpt lat="49.91985" lon="2.10054">
        <ele>89.4</ele>
        <time>2022-08-10T09:09:25Z</time>
      </trkpt>
      <trkpt lat="49.91985" lon="2.10055">
        <ele>89.4</ele>
        <time>2022-08-10T09:09:27Z</time>
      </trkpt>
      <trkpt lat="49.91985" lon="2.10057">
        <ele>89.4</ele>
        <time>2022-08-10T09:09:28Z</time>
      </trkpt>
      <trkpt lat="49.91986" lon="2.10058">
        <ele>89.4</ele>
        <time>2022-08-10T09:09:29Z</time>
      </trkpt>
      <trkpt lat="49.91986" lon="2.1006">
        <ele>89.4</ele>
        <time>2022-08-10T09:09:30Z</time>
      </trkpt>
      <trkpt lat="49.91987" lon="2.10062">
        <ele>89.4</ele>
        <time>2022-08-10T09:09:31Z</time>
      </trkpt>
      <trkpt lat="49.91988" lon="2.10065">
        <ele>89.4</ele>
        <time>2022-08-10T09:09:33Z</time>
      </trkpt>
      <trkpt lat="49.91988" lon="2.10066">
        <ele>89.5</ele>
        <time>2022-08-10T09:09:34Z</time>
      </trkpt>
      <trkpt lat="49.91988" lon="2.10067">
        <ele>89.5</ele>
        <time>2022-08-10T09:09:35Z</time>
      </trkpt>
      <trkpt lat="49.91988" lon="2.10069">
        <ele>89.5</ele>
        <time>2022-08-10T09:09:36Z</time>
      </trkpt>
      <trkpt lat="49.91989" lon="2.1007">
        <ele>89.5</ele>
        <time>2022-08-10T09:09:37Z</time>
      </trkpt>
      <trkpt lat="49.91989" lon="2.10072">
        <ele>89.5</ele>
        <time>2022-08-10T09:09:39Z</time>
      </trkpt>
      <trkpt lat="49.9199" lon="2.10075">
        <ele>89.5</ele>
        <time>2022-08-10T09:09:40Z</time>
      </trkpt>
      <trkpt lat="49.91991" lon="2.10076">
        <ele>89.5</ele>
        <time>2022-08-10T09:09:41Z</time>
      </trkpt>
      <trkpt lat="49.91991" lon="2.10077">
        <ele>89.5</ele>
        <time>2022-08-10T09:09:42Z</time>
      </trkpt>
      <trkpt lat="49.91992" lon="2.1008">
        <ele>89.6</ele>
        <time>2022-08-10T09:09:43Z</time>
      </trkpt>
      <trkpt lat="49.91992" lon="2.10081">
        <ele>89.6</ele>
        <time>2022-08-10T09:09:44Z</time>
      </trkpt>
      <trkpt lat="49.91993" lon="2.10082">
        <ele>89.6</ele>
        <time>2022-08-10T09:09:45Z</time>
      </trkpt>
      <trkpt lat="49.91993" lon="2.10084">
        <ele>89.6</ele>
        <time>2022-08-10T09:09:47Z</time>
      </trkpt>
      <trkpt lat="49.91993" lon="2.10086">
        <ele>89.7</ele>
        <time>2022-08-10T09:09:48Z</time>
      </trkpt>
      <trkpt lat="49.91994" lon="2.10089">
        <ele>89.7</ele>
        <time>2022-08-10T09:09:49Z</time>
      </trkpt>
      <trkpt lat="49.91994" lon="2.1009">
        <ele>89.7</ele>
        <time>2022-08-10T09:09:50Z</time>
      </trkpt>
      <trkpt lat="49.91994" lon="2.10091">
        <ele>89.7</ele>
        <time>2022-08-10T09:09:51Z</time>
      </trkpt>
      <trkpt lat="49.91994" lon="2.10092">
        <ele>89.7</ele>
        <time>2022-08-10T09:09:52Z</time>
      </trkpt>
      <trkpt lat="49.91995" lon="2.10096">
        <ele>89.8</ele>
        <time>2022-08-10T09:09:53Z</time>
      </trkpt>
      <trkpt lat="49.91995" lon="2.10097">
        <ele>89.8</ele>
        <time>2022-08-10T09:09:55Z</time>
      </trkpt>
      <trkpt lat="49.91995" lon="2.10098">
        <ele>89.8</ele>
        <time>2022-08-10T09:09:56Z</time>
      </trkpt>
      <trkpt lat="49.91995" lon="2.101">
        <ele>89.9</ele>
        <time>2022-08-10T09:09:57Z</time>
      </trkpt>
      <trkpt lat="49.91996" lon="2.10101">
        <ele>89.9</ele>
        <time>2022-08-10T09:09:58Z</time>
      </trkpt>
      <trkpt lat="49.91996" lon="2.10103">
        <ele>89.9</ele>
        <time>2022-08-10T09:09:59Z</time>
      </trkpt>
      <trkpt lat="49.91997" lon="2.10106">
        <ele>90</ele>
        <time>2022-08-10T09:10:00Z</time>
      </trkpt>
      <trkpt lat="49.91997" lon="2.10108">
        <ele>90.1</ele>
        <time>2022-08-10T09:10:02Z</time>
      </trkpt>
      <trkpt lat="49.91997" lon="2.10109">
        <ele>90.1</ele>
        <time>2022-08-10T09:10:03Z</time>
      </trkpt>
      <trkpt lat="49.91998" lon="2.10111">
        <ele>90.1</ele>
        <time>2022-08-10T09:10:05Z</time>
      </trkpt>
      <trkpt lat="49.91998" lon="2.10112">
        <ele>90.2</ele>
        <time>2022-08-10T09:10:06Z</time>
      </trkpt>
      <trkpt lat="49.91998" lon="2.10114">
        <ele>90.2</ele>
        <time>2022-08-10T09:10:07Z</time>
      </trkpt>
      <trkpt lat="49.91999" lon="2.10116">
        <ele>90.3</ele>
        <time>2022-08-10T09:10:08Z</time>
      </trkpt>
      <trkpt lat="49.91999" lon="2.10118">
        <ele>90.4</ele>
        <time>2022-08-10T09:10:09Z</time>
      </trkpt>
      <trkpt lat="49.91999" lon="2.10119">
        <ele>90.4</ele>
        <time>2022-08-10T09:10:11Z</time>
      </trkpt>
      <trkpt lat="49.91999" lon="2.10121">
        <ele>90.5</ele>
        <time>2022-08-10T09:10:12Z</time>
      </trkpt>
      <trkpt lat="49.91999" lon="2.10123">
        <ele>90.5</ele>
        <time>2022-08-10T09:10:13Z</time>
      </trkpt>
      <trkpt lat="49.92" lon="2.10124">
        <ele>90.6</ele>
        <time>2022-08-10T09:10:14Z</time>
      </trkpt>
      <trkpt lat="49.92" lon="2.10126">
        <ele>90.6</ele>
        <time>2022-08-10T09:10:15Z</time>
      </trkpt>
      <trkpt lat="49.92" lon="2.10127">
        <ele>90.7</ele>
        <time>2022-08-10T09:10:17Z</time>
      </trkpt>
      <trkpt lat="49.92001" lon="2.10129">
        <ele>90.8</ele>
        <time>2022-08-10T09:10:18Z</time>
      </trkpt>
      <trkpt lat="49.92001" lon="2.10131">
        <ele>90.9</ele>
        <time>2022-08-10T09:10:19Z</time>
      </trkpt>
      <trkpt lat="49.92001" lon="2.10133">
        <ele>90.9</ele>
        <time>2022-08-10T09:10:20Z</time>
      </trkpt>
      <trkpt lat="49.92002" lon="2.10134">
        <ele>91</ele>
        <time>2022-08-10T09:10:22Z</time>
      </trkpt>
      <trkpt lat="49.92003" lon="2.10137">
        <ele>91.1</ele>
        <time>2022-08-10T09:10:23Z</time>
      </trkpt>
      <trkpt lat="49.92003" lon="2.10138">
        <ele>91.2</ele>
        <time>2022-08-10T09:10:25Z</time>
      </trkpt>
      <trkpt lat="49.92004" lon="2.1014">
        <ele>91.3</ele>
        <time>2022-08-10T09:10:26Z</time>
      </trkpt>
      <trkpt lat="49.92004" lon="2.10141">
        <ele>91.4</ele>
        <time>2022-08-10T09:10:27Z</time>
      </trkpt>
      <trkpt lat="49.92004" lon="2.10142">
        <ele>91.4</ele>
        <time>2022-08-10T09:10:28Z</time>
      </trkpt>
      <trkpt lat="49.92004" lon="2.10144">
        <ele>91.5</ele>
        <time>2022-08-10T09:10:29Z</time>
      </trkpt>
      <trkpt lat="49.92005" lon="2.10145">
        <ele>91.6</ele>
        <time>2022-08-10T09:10:30Z</time>
      </trkpt>
      <trkpt lat="49.92005" lon="2.10147">
        <ele>91.7</ele>
        <time>2022-08-10T09:10:32Z</time>
      </trkpt>
      <trkpt lat="49.92005" lon="2.10149">
        <ele>91.8</ele>
        <time>2022-08-10T09:10:33Z</time>
      </trkpt>
      <trkpt lat="49.92006" lon="2.1015">
        <ele>91.8</ele>
        <time>2022-08-10T09:10:34Z</time>
      </trkpt>
      <trkpt lat="49.92006" lon="2.10152">
        <ele>91.9</ele>
        <time>2022-08-10T09:10:36Z</time>
      </trkpt>
      <trkpt lat="49.92006" lon="2.10153">
        <ele>92</ele>
        <time>2022-08-10T09:10:37Z</time>
      </trkpt>
      <trkpt lat="49.92007" lon="2.10154">
        <ele>92.1</ele>
        <time>2022-08-10T09:10:38Z</time>
      </trkpt>
      <trkpt lat="49.92007" lon="2.10156">
        <ele>92.2</ele>
        <time>2022-08-10T09:10:39Z</time>
      </trkpt>
      <trkpt lat="49.92008" lon="2.10157">
        <ele>92.3</ele>
        <time>2022-08-10T09:10:41Z</time>
      </trkpt>
      <trkpt lat="49.92008" lon="2.10159">
        <ele>92.4</ele>
        <time>2022-08-10T09:10:42Z</time>
      </trkpt>
      <trkpt lat="49.92009" lon="2.1016">
        <ele>92.4</ele>
        <time>2022-08-10T09:10:44Z</time>
      </trkpt>
      <trkpt lat="49.92009" lon="2.10162">
        <ele>92.5</ele>
        <time>2022-08-10T09:10:45Z</time>
      </trkpt>
      <trkpt lat="49.9201" lon="2.10164">
        <ele>92.6</ele>
        <time>2022-08-10T09:10:46Z</time>
      </trkpt>
      <trkpt lat="49.9201" lon="2.10165">
        <ele>92.7</ele>
        <time>2022-08-10T09:10:48Z</time>
      </trkpt>
      <trkpt lat="49.92011" lon="2.10166">
        <ele>92.8</ele>
        <time>2022-08-10T09:10:49Z</time>
      </trkpt>
      <trkpt lat="49.92011" lon="2.10166">
        <ele>92.8</ele>
        <time>2022-08-10T09:10:50Z</time>
      </trkpt>
      <trkpt lat="49.92012" lon="2.10166">
        <ele>92.9</ele>
        <time>2022-08-10T09:10:51Z</time>
      </trkpt>
      <trkpt lat="49.92012" lon="2.10166">
        <ele>92.9</ele>
        <time>2022-08-10T09:10:52Z</time>
      </trkpt>
      <trkpt lat="49.92013" lon="2.10166">
        <ele>92.9</ele>
        <time>2022-08-10T09:10:53Z</time>
      </trkpt>
      <trkpt lat="49.92013" lon="2.10167">
        <ele>93</ele>
        <time>2022-08-10T09:10:55Z</time>
      </trkpt>
      <trkpt lat="49.92013" lon="2.10169">
        <ele>93.1</ele>
        <time>2022-08-10T09:10:56Z</time>
      </trkpt>
      <trkpt lat="49.92013" lon="2.1017">
        <ele>93.1</ele>
        <time>2022-08-10T09:10:58Z</time>
      </trkpt>
      <trkpt lat="49.92013" lon="2.1017">
        <ele>93.1</ele>
        <time>2022-08-10T09:10:59Z</time>
      </trkpt>
      <trkpt lat="49.92013" lon="2.10171">
        <ele>93.2</ele>
        <time>2022-08-10T09:11:00Z</time>
      </trkpt>
      <trkpt lat="49.92014" lon="2.10172">
        <ele>93.2</ele>
        <time>2022-08-10T09:11:02Z</time>
      </trkpt>
      <trkpt lat="49.92014" lon="2.10172">
        <ele>93.3</ele>
        <time>2022-08-10T09:11:03Z</time>
      </trkpt>
      <trkpt lat="49.92014" lon="2.10172">
        <ele>93.3</ele>
        <time>2022-08-10T09:11:04Z</time>
      </trkpt>
      <trkpt lat="49.92014" lon="2.10173">
        <ele>93.3</ele>
        <time>2022-08-10T09:11:05Z</time>
      </trkpt>
      <trkpt lat="49.92014" lon="2.10174">
        <ele>93.4</ele>
        <time>2022-08-10T09:11:06Z</time>
      </trkpt>
      <trkpt lat="49.92014" lon="2.10174">
        <ele>93.4</ele>
        <time>2022-08-10T09:11:08Z</time>
      </trkpt>
      <trkpt lat="49.92014" lon="2.10175">
        <ele>93.5</ele>
        <time>2022-08-10T09:11:09Z</time>
      </trkpt>
      <trkpt lat="49.92014" lon="2.10178">
        <ele>93.6</ele>
        <time>2022-08-10T09:11:10Z</time>
      </trkpt>
      <trkpt lat="49.92014" lon="2.1018">
        <ele>93.7</ele>
        <time>2022-08-10T09:11:11Z</time>
      </trkpt>
      <trkpt lat="49.92014" lon="2.10181">
        <ele>93.7</ele>
        <time>2022-08-10T09:11:13Z</time>
      </trkpt>
      <trkpt lat="49.92014" lon="2.10182">
        <ele>93.8</ele>
        <time>2022-08-10T09:11:14Z</time>
      </trkpt>
      <trkpt lat="49.92014" lon="2.10183">
        <ele>93.9</ele>
        <time>2022-08-10T09:11:15Z</time>
      </trkpt>
      <trkpt lat="49.92014" lon="2.10185">
        <ele>93.9</ele>
        <time>2022-08-10T09:11:16Z</time>
      </trkpt>
      <trkpt lat="49.92014" lon="2.10186">
        <ele>94</ele>
        <time>2022-08-10T09:11:17Z</time>
      </trkpt>
      <trkpt lat="49.92013" lon="2.10187">
        <ele>94.1</ele>
        <time>2022-08-10T09:11:18Z</time>
      </trkpt>
      <trkpt lat="49.92013" lon="2.10188">
        <ele>94.1</ele>
        <time>2022-08-10T09:11:20Z</time>
      </trkpt>
      <trkpt lat="49.92013" lon="2.1019">
        <ele>94.2</ele>
        <time>2022-08-10T09:11:21Z</time>
      </trkpt>
      <trkpt lat="49.92012" lon="2.10191">
        <ele>94.3</ele>
        <time>2022-08-10T09:11:22Z</time>
      </trkpt>
      <trkpt lat="49.92012" lon="2.10192">
        <ele>94.3</ele>
        <time>2022-08-10T09:11:23Z</time>
      </trkpt>
      <trkpt lat="49.92012" lon="2.10193">
        <ele>94.4</ele>
        <time>2022-08-10T09:11:24Z</time>
      </trkpt>
      <trkpt lat="49.92011" lon="2.10195">
        <ele>94.5</ele>
        <time>2022-08-10T09:11:25Z</time>
      </trkpt>
      <trkpt lat="49.92011" lon="2.10197">
        <ele>94.6</ele>
        <time>2022-08-10T09:11:26Z</time>
      </trkpt>
      <trkpt lat="49.92011" lon="2.10198">
        <ele>94.7</ele>
        <time>2022-08-10T09:11:28Z</time>
      </trkpt>
      <trkpt lat="49.92011" lon="2.10199">
        <ele>94.7</ele>
        <time>2022-08-10T09:11:29Z</time>
      </trkpt>
      <trkpt lat="49.92011" lon="2.10204">
        <ele>94.9</ele>
        <time>2022-08-10T09:11:30Z</time>
      </trkpt>
      <trkpt lat="49.92011" lon="2.10205">
        <ele>95</ele>
        <time>2022-08-10T09:11:32Z</time>
      </trkpt>
      <trkpt lat="49.92011" lon="2.10207">
        <ele>95.1</ele>
        <time>2022-08-10T09:11:33Z</time>
      </trkpt>
      <trkpt lat="49.92011" lon="2.10208">
        <ele>95.1</ele>
        <time>2022-08-10T09:11:34Z</time>
      </trkpt>
      <trkpt lat="49.92011" lon="2.1021">
        <ele>95.2</ele>
        <time>2022-08-10T09:11:35Z</time>
      </trkpt>
      <trkpt lat="49.92012" lon="2.10211">
        <ele>95.2</ele>
        <time>2022-08-10T09:11:37Z</time>
      </trkpt>
      <trkpt lat="49.92012" lon="2.10212">
        <ele>95.3</ele>
        <time>2022-08-10T09:11:38Z</time>
      </trkpt>
      <trkpt lat="49.92012" lon="2.10214">
        <ele>95.4</ele>
        <time>2022-08-10T09:11:39Z</time>
      </trkpt>
      <trkpt lat="49.92012" lon="2.10215">
        <ele>95.4</ele>
        <time>2022-08-10T09:11:40Z</time>
      </trkpt>
      <trkpt lat="49.92012" lon="2.10217">
        <ele>95.5</ele>
        <time>2022-08-10T09:11:41Z</time>
      </trkpt>
      <trkpt lat="49.92012" lon="2.10218">
        <ele>95.5</ele>
        <time>2022-08-10T09:11:42Z</time>
      </trkpt>
      <trkpt lat="49.92012" lon="2.10219">
        <ele>95.6</ele>
        <time>2022-08-10T09:11:43Z</time>
      </trkpt>
      <trkpt lat="49.92013" lon="2.10222">
        <ele>95.7</ele>
        <time>2022-08-10T09:11:44Z</time>
      </trkpt>
      <trkpt lat="49.92013" lon="2.10224">
        <ele>95.8</ele>
        <time>2022-08-10T09:11:45Z</time>
      </trkpt>
      <trkpt lat="49.92013" lon="2.10225">
        <ele>95.8</ele>
        <time>2022-08-10T09:11:47Z</time>
      </trkpt>
      <trkpt lat="49.92013" lon="2.10227">
        <ele>95.9</ele>
        <time>2022-08-10T09:11:48Z</time>
      </trkpt>
      <trkpt lat="49.92013" lon="2.10229">
        <ele>95.9</ele>
        <time>2022-08-10T09:11:49Z</time>
      </trkpt>
      <trkpt lat="49.92014" lon="2.1023">
        <ele>96</ele>
        <time>2022-08-10T09:11:50Z</time>
      </trkpt>
      <trkpt lat="49.92014" lon="2.10233">
        <ele>96.1</ele>
        <time>2022-08-10T09:11:52Z</time>
      </trkpt>
      <trkpt lat="49.92014" lon="2.10234">
        <ele>96.1</ele>
        <time>2022-08-10T09:11:53Z</time>
      </trkpt>
      <trkpt lat="49.92014" lon="2.10235">
        <ele>96.2</ele>
        <time>2022-08-10T09:11:54Z</time>
      </trkpt>
      <trkpt lat="49.92014" lon="2.10237">
        <ele>96.2</ele>
        <time>2022-08-10T09:11:55Z</time>
      </trkpt>
      <trkpt lat="49.92014" lon="2.10238">
        <ele>96.3</ele>
        <time>2022-08-10T09:11:57Z</time>
      </trkpt>
      <trkpt lat="49.92014" lon="2.1024">
        <ele>96.3</ele>
        <time>2022-08-10T09:11:58Z</time>
      </trkpt>
      <trkpt lat="49.92014" lon="2.10241">
        <ele>96.4</ele>
        <time>2022-08-10T09:11:59Z</time>
      </trkpt>
      <trkpt lat="49.92015" lon="2.10241">
        <ele>96.4</ele>
        <time>2022-08-10T09:12:00Z</time>
      </trkpt>
      <trkpt lat="49.92015" lon="2.10242">
        <ele>96.4</ele>
        <time>2022-08-10T09:12:01Z</time>
      </trkpt>
      <trkpt lat="49.92015" lon="2.10243">
        <ele>96.5</ele>
        <time>2022-08-10T09:12:02Z</time>
      </trkpt>
      <trkpt lat="49.92015" lon="2.10243">
        <ele>96.5</ele>
        <time>2022-08-10T09:12:03Z</time>
      </trkpt>
      <trkpt lat="49.92015" lon="2.10244">
        <ele>96.5</ele>
        <time>2022-08-10T09:12:04Z</time>
      </trkpt>
      <trkpt lat="49.92015" lon="2.10245">
        <ele>96.5</ele>
        <time>2022-08-10T09:12:05Z</time>
      </trkpt>
      <trkpt lat="49.92015" lon="2.10246">
        <ele>96.6</ele>
        <time>2022-08-10T09:12:06Z</time>
      </trkpt>
      <trkpt lat="49.92015" lon="2.10248">
        <ele>96.6</ele>
        <time>2022-08-10T09:12:08Z</time>
      </trkpt>
      <trkpt lat="49.92015" lon="2.10248">
        <ele>96.6</ele>
        <time>2022-08-10T09:12:09Z</time>
      </trkpt>
      <trkpt lat="49.92016" lon="2.1025">
        <ele>96.7</ele>
        <time>2022-08-10T09:12:10Z</time>
      </trkpt>
      <trkpt lat="49.92016" lon="2.10251">
        <ele>96.7</ele>
        <time>2022-08-10T09:12:12Z</time>
      </trkpt>
      <trkpt lat="49.92016" lon="2.10252">
        <ele>96.7</ele>
        <time>2022-08-10T09:12:13Z</time>
      </trkpt>
      <trkpt lat="49.92016" lon="2.10252">
        <ele>96.8</ele>
        <time>2022-08-10T09:12:14Z</time>
      </trkpt>
      <trkpt lat="49.92017" lon="2.10252">
        <ele>96.8</ele>
        <time>2022-08-10T09:12:15Z</time>
      </trkpt>
      <trkpt lat="49.92018" lon="2.10252">
        <ele>96.9</ele>
        <time>2022-08-10T09:12:16Z</time>
      </trkpt>
      <trkpt lat="49.92019" lon="2.10251">
        <ele>96.9</ele>
        <time>2022-08-10T09:12:17Z</time>
      </trkpt>
      <trkpt lat="49.92019" lon="2.1025">
        <ele>96.9</ele>
        <time>2022-08-10T09:12:18Z</time>
      </trkpt>
      <trkpt lat="49.92018" lon="2.10249">
        <ele>97</ele>
        <time>2022-08-10T09:12:20Z</time>
      </trkpt>
      <trkpt lat="49.92018" lon="2.1025">
        <ele>97</ele>
        <time>2022-08-10T09:12:21Z</time>
      </trkpt>
      <trkpt lat="49.92018" lon="2.1025">
        <ele>97</ele>
        <time>2022-08-10T09:12:22Z</time>
      </trkpt>
      <trkpt lat="49.92018" lon="2.1025">
        <ele>97</ele>
        <time>2022-08-10T09:12:23Z</time>
      </trkpt>
      <trkpt lat="49.92018" lon="2.1025">
        <ele>97</ele>
        <time>2022-08-10T09:12:24Z</time>
      </trkpt>
      <trkpt lat="49.92018" lon="2.10249">
        <ele>97</ele>
        <time>2022-08-10T09:12:25Z</time>
      </trkpt>
      <trkpt lat="49.92018" lon="2.10248">
        <ele>97</ele>
        <time>2022-08-10T09:12:26Z</time>
      </trkpt>
      <trkpt lat="49.92018" lon="2.10248">
        <ele>97.1</ele>
        <time>2022-08-10T09:12:27Z</time>
      </trkpt>
      <trkpt lat="49.92018" lon="2.10248">
        <ele>97.1</ele>
        <time>2022-08-10T09:12:28Z</time>
      </trkpt>
      <trkpt lat="49.92018" lon="2.10248">
        <ele>97.1</ele>
        <time>2022-08-10T09:12:29Z</time>
      </trkpt>
      <trkpt lat="49.92018" lon="2.10248">
        <ele>97.1</ele>
        <time>2022-08-10T09:12:30Z</time>
      </trkpt>
      <trkpt lat="49.92018" lon="2.10249">
        <ele>97.1</ele>
        <time>2022-08-10T09:12:32Z</time>
      </trkpt>
      <trkpt lat="49.92018" lon="2.10249">
        <ele>97.1</ele>
        <time>2022-08-10T09:12:33Z</time>
      </trkpt>
      <trkpt lat="49.92019" lon="2.10249">
        <ele>97.1</ele>
        <time>2022-08-10T09:12:34Z</time>
      </trkpt>
      <trkpt lat="49.92019" lon="2.10249">
        <ele>97.1</ele>
        <time>2022-08-10T09:12:35Z</time>
      </trkpt>
      <trkpt lat="49.92019" lon="2.10248">
        <ele>97.1</ele>
        <time>2022-08-10T09:12:37Z</time>
      </trkpt>
      <trkpt lat="49.92019" lon="2.10248">
        <ele>97.1</ele>
        <time>2022-08-10T09:12:38Z</time>
      </trkpt>
      <trkpt lat="49.92019" lon="2.10248">
        <ele>97.1</ele>
        <time>2022-08-10T09:12:39Z</time>
      </trkpt>
      <trkpt lat="49.92019" lon="2.10248">
        <ele>97.1</ele>
        <time>2022-08-10T09:12:40Z</time>
      </trkpt>
      <trkpt lat="49.92019" lon="2.10247">
        <ele>97.2</ele>
        <time>2022-08-10T09:12:41Z</time>
      </trkpt>
      <trkpt lat="49.92018" lon="2.10247">
        <ele>97.2</ele>
        <time>2022-08-10T09:12:42Z</time>
      </trkpt>
      <trkpt lat="49.92018" lon="2.10247">
        <ele>97.2</ele>
        <time>2022-08-10T09:12:43Z</time>
      </trkpt>
      <trkpt lat="49.92018" lon="2.10247">
        <ele>97.2</ele>
        <time>2022-08-10T09:12:44Z</time>
      </trkpt>
      <trkpt lat="49.92018" lon="2.10247">
        <ele>97.2</ele>
        <time>2022-08-10T09:12:45Z</time>
      </trkpt>
      <trkpt lat="49.92018" lon="2.10247">
        <ele>97.2</ele>
        <time>2022-08-10T09:12:46Z</time>
      </trkpt>
      <trkpt lat="49.92018" lon="2.10247">
        <ele>97.2</ele>
        <time>2022-08-10T09:12:47Z</time>
      </trkpt>
      <trkpt lat="49.92018" lon="2.10247">
        <ele>97.2</ele>
        <time>2022-08-10T09:12:48Z</time>
      </trkpt>
      <trkpt lat="49.92018" lon="2.10247">
        <ele>97.2</ele>
        <time>2022-08-10T09:12:49Z</time>
      </trkpt>
      <trkpt lat="49.92018" lon="2.10247">
        <ele>97.2</ele>
        <time>2022-08-10T09:12:50Z</time>
      </trkpt>
      <trkpt lat="49.92018" lon="2.10247">
        <ele>97.2</ele>
        <time>2022-08-10T09:12:51Z</time>
      </trkpt>
      <trkpt lat="49.92018" lon="2.10247">
        <ele>97.2</ele>
        <time>2022-08-10T09:12:52Z</time>
      </trkpt>
      <trkpt lat="49.92018" lon="2.10247">
        <ele>97.2</ele>
        <time>2022-08-10T09:12:53Z</time>
      </trkpt>
      <trkpt lat="49.92018" lon="2.10247">
        <ele>97.2</ele>
        <time>2022-08-10T09:12:54Z</time>
      </trkpt>
      <trkpt lat="49.92018" lon="2.10247">
        <ele>97.2</ele>
        <time>2022-08-10T09:12:55Z</time>
      </trkpt>
      <trkpt lat="49.92018" lon="2.10247">
        <ele>97.2</ele>
        <time>2022-08-10T09:12:56Z</time>
      </trkpt>
      <trkpt lat="49.92018" lon="2.10247">
        <ele>97.2</ele>
        <time>2022-08-10T09:12:57Z</time>
      </trkpt>
      <trkpt lat="49.92018" lon="2.10247">
        <ele>97.2</ele>
        <time>2022-08-10T09:12:58Z</time>
      </trkpt>
      <trkpt lat="49.92018" lon="2.10247">
        <ele>97.2</ele>
        <time>2022-08-10T09:12:59Z</time>
      </trkpt>
      <trkpt lat="49.92018" lon="2.10247">
        <ele>97.2</ele>
        <time>2022-08-10T09:13:00Z</time>
      </trkpt>
      <trkpt lat="49.92018" lon="2.10247">
        <ele>97.2</ele>
        <time>2022-08-10T09:13:01Z</time>
      </trkpt>
      <trkpt lat="49.92018" lon="2.10247">
        <ele>97.2</ele>
        <time>2022-08-10T09:13:02Z</time>
      </trkpt>
      <trkpt lat="49.92018" lon="2.10247">
        <ele>97.2</ele>
        <time>2022-08-10T09:13:03Z</time>
      </trkpt>
      <trkpt lat="49.92018" lon="2.10247">
        <ele>97.2</ele>
        <time>2022-08-10T09:13:04Z</time>
      </trkpt>
      <trkpt lat="49.92018" lon="2.10247">
        <ele>97.2</ele>
        <time>2022-08-10T09:13:05Z</time>
      </trkpt>
      <trkpt lat="49.92018" lon="2.10247">
        <ele>97.2</ele>
        <time>2022-08-10T09:13:06Z</time>
      </trkpt>
      <trkpt lat="49.92018" lon="2.10247">
        <ele>97.2</ele>
        <time>2022-08-10T09:13:07Z</time>
      </trkpt>
      <trkpt lat="49.92018" lon="2.10247">
        <ele>97.2</ele>
        <time>2022-08-10T09:13:08Z</time>
      </trkpt>
      <trkpt lat="49.92018" lon="2.10247">
        <ele>97.2</ele>
        <time>2022-08-10T09:13:09Z</time>
      </trkpt>
      <trkpt lat="49.92018" lon="2.10247">
        <ele>97.2</ele>
        <time>2022-08-10T09:13:10Z</time>
      </trkpt>
      <trkpt lat="49.92018" lon="2.10247">
        <ele>97.2</ele>
        <time>2022-08-10T09:13:11Z</time>
      </trkpt>
      <trkpt lat="49.92018" lon="2.10247">
        <ele>97.2</ele>
        <time>2022-08-10T09:13:12Z</time>
      </trkpt>
      <trkpt lat="49.92018" lon="2.10247">
        <ele>97.2</ele>
        <time>2022-08-10T09:13:13Z</time>
      </trkpt>
      <trkpt lat="49.92018" lon="2.10247">
        <ele>97.2</ele>
        <time>2022-08-10T09:13:14Z</time>
      </trkpt>
      <trkpt lat="49.92018" lon="2.10247">
        <ele>97.2</ele>
        <time>2022-08-10T09:13:15Z</time>
      </trkpt>
      <trkpt lat="49.92018" lon="2.10247">
        <ele>97.2</ele>
        <time>2022-08-10T09:13:16Z</time>
      </trkpt>
      <trkpt lat="49.92018" lon="2.10247">
        <ele>97.2</ele>
        <time>2022-08-10T09:13:17Z</time>
      </trkpt>
      <trkpt lat="49.92018" lon="2.10247">
        <ele>97.2</ele>
        <time>2022-08-10T09:13:18Z</time>
      </trkpt>
      <trkpt lat="49.92018" lon="2.10247">
        <ele>97.2</ele>
        <time>2022-08-10T09:13:19Z</time>
      </trkpt>
      <trkpt lat="49.92018" lon="2.10247">
        <ele>97.2</ele>
        <time>2022-08-10T09:13:20Z</time>
      </trkpt>
      <trkpt lat="49.92018" lon="2.10247">
        <ele>97.2</ele>
        <time>2022-08-10T09:13:21Z</time>
      </trkpt>
      <trkpt lat="49.92018" lon="2.10247">
        <ele>97.2</ele>
        <time>2022-08-10T09:13:22Z</time>
      </trkpt>
      <trkpt lat="49.92018" lon="2.10247">
        <ele>97.2</ele>
        <time>2022-08-10T09:13:23Z</time>
      </trkpt>
      <trkpt lat="49.92018" lon="2.10247">
        <ele>97.2</ele>
        <time>2022-08-10T09:13:24Z</time>
      </trkpt>
      <trkpt lat="49.92018" lon="2.10247">
        <ele>97.2</ele>
        <time>2022-08-10T09:13:25Z</time>
      </trkpt>
      <trkpt lat="49.92018" lon="2.10247">
        <ele>97.2</ele>
        <time>2022-08-10T09:13:26Z</time>
      </trkpt>
      <trkpt lat="49.92018" lon="2.10247">
        <ele>97.2</ele>
        <time>2022-08-10T09:13:27Z</time>
      </trkpt>
      <trkpt lat="49.92018" lon="2.10247">
        <ele>97.2</ele>
        <time>2022-08-10T09:13:28Z</time>
      </trkpt>
      <trkpt lat="49.92018" lon="2.10247">
        <ele>97.2</ele>
        <time>2022-08-10T09:13:29Z</time>
      </trkpt>
      <trkpt lat="49.92018" lon="2.10247">
        <ele>97.2</ele>
        <time>2022-08-10T09:13:30Z</time>
      </trkpt>
      <trkpt lat="49.92018" lon="2.10247">
        <ele>97.2</ele>
        <time>2022-08-10T09:13:31Z</time>
      </trkpt>
      <trkpt lat="49.92018" lon="2.10247">
        <ele>97.2</ele>
        <time>2022-08-10T09:13:32Z</time>
      </trkpt>
      <trkpt lat="49.92018" lon="2.10247">
        <ele>97.2</ele>
        <time>2022-08-10T09:13:33Z</time>
      </trkpt>
      <trkpt lat="49.92018" lon="2.10247">
        <ele>97.2</ele>
        <time>2022-08-10T09:13:34Z</time>
      </trkpt>
      <trkpt lat="49.92018" lon="2.10247">
        <ele>97.2</ele>
        <time>2022-08-10T09:13:35Z</time>
      </trkpt>
      <trkpt lat="49.92018" lon="2.10247">
        <ele>97.2</ele>
        <time>2022-08-10T09:13:36Z</time>
      </trkpt>
      <trkpt lat="49.92018" lon="2.10247">
        <ele>97.2</ele>
        <time>2022-08-10T09:13:37Z</time>
      </trkpt>
      <trkpt lat="49.92018" lon="2.10247">
        <ele>97.2</ele>
        <time>2022-08-10T09:13:38Z</time>
      </trkpt>
      <trkpt lat="49.92018" lon="2.10247">
        <ele>97.2</ele>
        <time>2022-08-10T09:13:39Z</time>
      </trkpt>
      <trkpt lat="49.92018" lon="2.10247">
        <ele>97.2</ele>
        <time>2022-08-10T09:13:40Z</time>
      </trkpt>
      <trkpt lat="49.92018" lon="2.10247">
        <ele>97.2</ele>
        <time>2022-08-10T09:13:41Z</time>
      </trkpt>
      <trkpt lat="49.92018" lon="2.10247">
        <ele>97.2</ele>
        <time>2022-08-10T09:13:42Z</time>
      </trkpt>
      <trkpt lat="49.92018" lon="2.10247">
        <ele>97.2</ele>
        <time>2022-08-10T09:13:43Z</time>
      </trkpt>
      <trkpt lat="49.92018" lon="2.10247">
        <ele>97.2</ele>
        <time>2022-08-10T09:13:44Z</time>
      </trkpt>
      <trkpt lat="49.92018" lon="2.10247">
        <ele>97.2</ele>
        <time>2022-08-10T09:13:45Z</time>
      </trkpt>
      <trkpt lat="49.92018" lon="2.10247">
        <ele>97.2</ele>
        <time>2022-08-10T09:13:46Z</time>
      </trkpt>
      <trkpt lat="49.92018" lon="2.10247">
        <ele>97.2</ele>
        <time>2022-08-10T09:13:47Z</time>
      </trkpt>
      <trkpt lat="49.92018" lon="2.10247">
        <ele>97.2</ele>
        <time>2022-08-10T09:13:48Z</time>
      </trkpt>
      <trkpt lat="49.92018" lon="2.10247">
        <ele>97.2</ele>
        <time>2022-08-10T09:13:49Z</time>
      </trkpt>
      <trkpt lat="49.92018" lon="2.10247">
        <ele>97.2</ele>
        <time>2022-08-10T09:13:50Z</time>
      </trkpt>
      <trkpt lat="49.92018" lon="2.10247">
        <ele>97.2</ele>
        <time>2022-08-10T09:13:51Z</time>
      </trkpt>
      <trkpt lat="49.92018" lon="2.10247">
        <ele>97.2</ele>
        <time>2022-08-10T09:13:52Z</time>
      </trkpt>
      <trkpt lat="49.92018" lon="2.10247">
        <ele>97.2</ele>
        <time>2022-08-10T09:13:53Z</time>
      </trkpt>
      <trkpt lat="49.92018" lon="2.10247">
        <ele>97.2</ele>
        <time>2022-08-10T09:13:54Z</time>
      </trkpt>
      <trkpt lat="49.92018" lon="2.10247">
        <ele>97.2</ele>
        <time>2022-08-10T09:13:55Z</time>
      </trkpt>
      <trkpt lat="49.92018" lon="2.10247">
        <ele>97.2</ele>
        <time>2022-08-10T09:13:56Z</time>
      </trkpt>
      <trkpt lat="49.92018" lon="2.10247">
        <ele>97.2</ele>
        <time>2022-08-10T09:13:57Z</time>
      </trkpt>
      <trkpt lat="49.92018" lon="2.10247">
        <ele>97.2</ele>
        <time>2022-08-10T09:13:58Z</time>
      </trkpt>
      <trkpt lat="49.92018" lon="2.10247">
        <ele>97.2</ele>
        <time>2022-08-10T09:13:59Z</time>
      </trkpt>
      <trkpt lat="49.92018" lon="2.10247">
        <ele>97.2</ele>
        <time>2022-08-10T09:14:00Z</time>
      </trkpt>
      <trkpt lat="49.92018" lon="2.10247">
        <ele>97.2</ele>
        <time>2022-08-10T09:14:01Z</time>
      </trkpt>
      <trkpt lat="49.92018" lon="2.10247">
        <ele>97.2</ele>
        <time>2022-08-10T09:14:02Z</time>
      </trkpt>
      <trkpt lat="49.92018" lon="2.10247">
        <ele>97.2</ele>
        <time>2022-08-10T09:14:03Z</time>
      </trkpt>
      <trkpt lat="49.92018" lon="2.10247">
        <ele>97.2</ele>
        <time>2022-08-10T09:14:04Z</time>
      </trkpt>
      <trkpt lat="49.92018" lon="2.10247">
        <ele>97.2</ele>
        <time>2022-08-10T09:14:05Z</time>
      </trkpt>
      <trkpt lat="49.92018" lon="2.10247">
        <ele>97.2</ele>
        <time>2022-08-10T09:14:06Z</time>
      </trkpt>
      <trkpt lat="49.92019" lon="2.10248">
        <ele>97.2</ele>
        <time>2022-08-10T09:14:07Z</time>
      </trkpt>
      <trkpt lat="49.92018" lon="2.10248">
        <ele>97.2</ele>
        <time>2022-08-10T09:14:08Z</time>
      </trkpt>
      <trkpt lat="49.92018" lon="2.10248">
        <ele>97.3</ele>
        <time>2022-08-10T09:14:10Z</time>
      </trkpt>
      <trkpt lat="49.92018" lon="2.10247">
        <ele>97.3</ele>
        <time>2022-08-10T09:14:11Z</time>
      </trkpt>
      <trkpt lat="49.92018" lon="2.10247">
        <ele>97.3</ele>
        <time>2022-08-10T09:14:12Z</time>
      </trkpt>
      <trkpt lat="49.92017" lon="2.10247">
        <ele>97.3</ele>
        <time>2022-08-10T09:14:13Z</time>
      </trkpt>
      <trkpt lat="49.92018" lon="2.10247">
        <ele>97.3</ele>
        <time>2022-08-10T09:14:14Z</time>
      </trkpt>
      <trkpt lat="49.92018" lon="2.10247">
        <ele>97.3</ele>
        <time>2022-08-10T09:14:15Z</time>
      </trkpt>
      <trkpt lat="49.92018" lon="2.10247">
        <ele>97.3</ele>
        <time>2022-08-10T09:14:16Z</time>
      </trkpt>
      <trkpt lat="49.92018" lon="2.10247">
        <ele>97.3</ele>
        <time>2022-08-10T09:14:17Z</time>
      </trkpt>
      <trkpt lat="49.92018" lon="2.10247">
        <ele>97.3</ele>
        <time>2022-08-10T09:14:18Z</time>
      </trkpt>
      <trkpt lat="49.92018" lon="2.10247">
        <ele>97.3</ele>
        <time>2022-08-10T09:14:19Z</time>
      </trkpt>
      <trkpt lat="49.92018" lon="2.10247">
        <ele>97.3</ele>
        <time>2022-08-10T09:14:20Z</time>
      </trkpt>
      <trkpt lat="49.92018" lon="2.10247">
        <ele>97.3</ele>
        <time>2022-08-10T09:14:21Z</time>
      </trkpt>
      <trkpt lat="49.92018" lon="2.10247">
        <ele>97.3</ele>
        <time>2022-08-10T09:14:22Z</time>
      </trkpt>
      <trkpt lat="49.92018" lon="2.10247">
        <ele>97.3</ele>
        <time>2022-08-10T09:14:23Z</time>
      </trkpt>
      <trkpt lat="49.92018" lon="2.10247">
        <ele>97.3</ele>
        <time>2022-08-10T09:14:24Z</time>
      </trkpt>
      <trkpt lat="49.92018" lon="2.10247">
        <ele>97.3</ele>
        <time>2022-08-10T09:14:25Z</time>
      </trkpt>
      <trkpt lat="49.92018" lon="2.10247">
        <ele>97.3</ele>
        <time>2022-08-10T09:14:26Z</time>
      </trkpt>
      <trkpt lat="49.92018" lon="2.10247">
        <ele>97.3</ele>
        <time>2022-08-10T09:14:27Z</time>
      </trkpt>
      <trkpt lat="49.92018" lon="2.10247">
        <ele>97.3</ele>
        <time>2022-08-10T09:14:28Z</time>
      </trkpt>
      <trkpt lat="49.92018" lon="2.10247">
        <ele>97.3</ele>
        <time>2022-08-10T09:14:29Z</time>
      </trkpt>
      <trkpt lat="49.92018" lon="2.10247">
        <ele>97.3</ele>
        <time>2022-08-10T09:14:30Z</time>
      </trkpt>
      <trkpt lat="49.92018" lon="2.10247">
        <ele>97.3</ele>
        <time>2022-08-10T09:14:31Z</time>
      </trkpt>
      <trkpt lat="49.92018" lon="2.10247">
        <ele>97.3</ele>
        <time>2022-08-10T09:14:32Z</time>
      </trkpt>
      <trkpt lat="49.92018" lon="2.10247">
        <ele>97.3</ele>
        <time>2022-08-10T09:14:33Z</time>
      </trkpt>
      <trkpt lat="49.92018" lon="2.10247">
        <ele>97.3</ele>
        <time>2022-08-10T09:14:34Z</time>
      </trkpt>
      <trkpt lat="49.92018" lon="2.10247">
        <ele>97.3</ele>
        <time>2022-08-10T09:14:35Z</time>
      </trkpt>
      <trkpt lat="49.92018" lon="2.10247">
        <ele>97.3</ele>
        <time>2022-08-10T09:14:36Z</time>
      </trkpt>
      <trkpt lat="49.92018" lon="2.10247">
        <ele>97.3</ele>
        <time>2022-08-10T09:14:37Z</time>
      </trkpt>
      <trkpt lat="49.92018" lon="2.10247">
        <ele>97.3</ele>
        <time>2022-08-10T09:14:38Z</time>
      </trkpt>
      <trkpt lat="49.92018" lon="2.10247">
        <ele>97.3</ele>
        <time>2022-08-10T09:14:39Z</time>
      </trkpt>
      <trkpt lat="49.92018" lon="2.10247">
        <ele>97.3</ele>
        <time>2022-08-10T09:14:40Z</time>
      </trkpt>
      <trkpt lat="49.92018" lon="2.10247">
        <ele>97.4</ele>
        <time>2022-08-10T09:14:41Z</time>
      </trkpt>
      <trkpt lat="49.92018" lon="2.10247">
        <ele>97.4</ele>
        <time>2022-08-10T09:14:42Z</time>
      </trkpt>
      <trkpt lat="49.92019" lon="2.10247">
        <ele>97.4</ele>
        <time>2022-08-10T09:14:43Z</time>
      </trkpt>
      <trkpt lat="49.92019" lon="2.10247">
        <ele>97.4</ele>
        <time>2022-08-10T09:14:44Z</time>
      </trkpt>
      <trkpt lat="49.92019" lon="2.10247">
        <ele>97.4</ele>
        <time>2022-08-10T09:14:45Z</time>
      </trkpt>
      <trkpt lat="49.92019" lon="2.10247">
        <ele>97.4</ele>
        <time>2022-08-10T09:14:46Z</time>
      </trkpt>
      <trkpt lat="49.92018" lon="2.10247">
        <ele>97.4</ele>
        <time>2022-08-10T09:14:47Z</time>
      </trkpt>
      <trkpt lat="49.92018" lon="2.10247">
        <ele>97.4</ele>
        <time>2022-08-10T09:14:48Z</time>
      </trkpt>
      <trkpt lat="49.92018" lon="2.10247">
        <ele>97.4</ele>
        <time>2022-08-10T09:14:49Z</time>
      </trkpt>
      <trkpt lat="49.92018" lon="2.10247">
        <ele>97.4</ele>
        <time>2022-08-10T09:14:50Z</time>
      </trkpt>
      <trkpt lat="49.92018" lon="2.10247">
        <ele>97.4</ele>
        <time>2022-08-10T09:14:51Z</time>
      </trkpt>
      <trkpt lat="49.92018" lon="2.10247">
        <ele>97.4</ele>
        <time>2022-08-10T09:14:52Z</time>
      </trkpt>
      <trkpt lat="49.92018" lon="2.10247">
        <ele>97.4</ele>
        <time>2022-08-10T09:14:53Z</time>
      </trkpt>
      <trkpt lat="49.92018" lon="2.10247">
        <ele>97.4</ele>
        <time>2022-08-10T09:14:54Z</time>
      </trkpt>
      <trkpt lat="49.92018" lon="2.10247">
        <ele>97.4</ele>
        <time>2022-08-10T09:14:55Z</time>
      </trkpt>
      <trkpt lat="49.92018" lon="2.10247">
        <ele>97.4</ele>
        <time>2022-08-10T09:14:56Z</time>
      </trkpt>
      <trkpt lat="49.92018" lon="2.10247">
        <ele>97.4</ele>
        <time>2022-08-10T09:14:57Z</time>
      </trkpt>
      <trkpt lat="49.92019" lon="2.10246">
        <ele>97.4</ele>
        <time>2022-08-10T09:14:59Z</time>
      </trkpt>
      <trkpt lat="49.92019" lon="2.10247">
        <ele>97.5</ele>
        <time>2022-08-10T09:15:00Z</time>
      </trkpt>
      <trkpt lat="49.92019" lon="2.10248">
        <ele>97.5</ele>
        <time>2022-08-10T09:15:01Z</time>
      </trkpt>
      <trkpt lat="49.92019" lon="2.1025">
        <ele>97.5</ele>
        <time>2022-08-10T09:15:02Z</time>
      </trkpt>
      <trkpt lat="49.92018" lon="2.10251">
        <ele>97.6</ele>
        <time>2022-08-10T09:15:04Z</time>
      </trkpt>
      <trkpt lat="49.92018" lon="2.10253">
        <ele>97.6</ele>
        <time>2022-08-10T09:15:05Z</time>
      </trkpt>
      <trkpt lat="49.92018" lon="2.10254">
        <ele>97.7</ele>
        <time>2022-08-10T09:15:06Z</time>
      </trkpt>
      <trkpt lat="49.92017" lon="2.10256">
        <ele>97.7</ele>
        <time>2022-08-10T09:15:07Z</time>
      </trkpt>
      <trkpt lat="49.92017" lon="2.10257">
        <ele>97.7</ele>
        <time>2022-08-10T09:15:08Z</time>
      </trkpt>
      <trkpt lat="49.92017" lon="2.10258">
        <ele>97.8</ele>
        <time>2022-08-10T09:15:10Z</time>
      </trkpt>
      <trkpt lat="49.92017" lon="2.10259">
        <ele>97.8</ele>
        <time>2022-08-10T09:15:11Z</time>
      </trkpt>
      <trkpt lat="49.92017" lon="2.1026">
        <ele>97.8</ele>
        <time>2022-08-10T09:15:12Z</time>
      </trkpt>
      <trkpt lat="49.92017" lon="2.10262">
        <ele>97.9</ele>
        <time>2022-08-10T09:15:14Z</time>
      </trkpt>
      <trkpt lat="49.92018" lon="2.10263">
        <ele>97.9</ele>
        <time>2022-08-10T09:15:16Z</time>
      </trkpt>
      <trkpt lat="49.92018" lon="2.10264">
        <ele>97.9</ele>
        <time>2022-08-10T09:15:17Z</time>
      </trkpt>
      <trkpt lat="49.92018" lon="2.10265">
        <ele>98</ele>
        <time>2022-08-10T09:15:18Z</time>
      </trkpt>
      <trkpt lat="49.92018" lon="2.10266">
        <ele>98</ele>
        <time>2022-08-10T09:15:19Z</time>
      </trkpt>
      <trkpt lat="49.92018" lon="2.10267">
        <ele>98</ele>
        <time>2022-08-10T09:15:20Z</time>
      </trkpt>
      <trkpt lat="49.92018" lon="2.10268">
        <ele>98</ele>
        <time>2022-08-10T09:15:21Z</time>
      </trkpt>
      <trkpt lat="49.92018" lon="2.10269">
        <ele>98</ele>
        <time>2022-08-10T09:15:22Z</time>
      </trkpt>
      <trkpt lat="49.92017" lon="2.1027">
        <ele>98.1</ele>
        <time>2022-08-10T09:15:23Z</time>
      </trkpt>
      <trkpt lat="49.92017" lon="2.10271">
        <ele>98.1</ele>
        <time>2022-08-10T09:15:24Z</time>
      </trkpt>
      <trkpt lat="49.92017" lon="2.10273">
        <ele>98.1</ele>
        <time>2022-08-10T09:15:26Z</time>
      </trkpt>
      <trkpt lat="49.92016" lon="2.10274">
        <ele>98.2</ele>
        <time>2022-08-10T09:15:27Z</time>
      </trkpt>
      <trkpt lat="49.92016" lon="2.10276">
        <ele>98.2</ele>
        <time>2022-08-10T09:15:28Z</time>
      </trkpt>
      <trkpt lat="49.92016" lon="2.10278">
        <ele>98.2</ele>
        <time>2022-08-10T09:15:29Z</time>
      </trkpt>
      <trkpt lat="49.92015" lon="2.10279">
        <ele>98.3</ele>
        <time>2022-08-10T09:15:30Z</time>
      </trkpt>
      <trkpt lat="49.92015" lon="2.10282">
        <ele>98.3</ele>
        <time>2022-08-10T09:15:31Z</time>
      </trkpt>
      <trkpt lat="49.92015" lon="2.10284">
        <ele>98.3</ele>
        <time>2022-08-10T09:15:32Z</time>
      </trkpt>
      <trkpt lat="49.92014" lon="2.10285">
        <ele>98.4</ele>
        <time>2022-08-10T09:15:33Z</time>
      </trkpt>
      <trkpt lat="49.92014" lon="2.10288">
        <ele>98.4</ele>
        <time>2022-08-10T09:15:34Z</time>
      </trkpt>
      <trkpt lat="49.92013" lon="2.1029">
        <ele>98.5</ele>
        <time>2022-08-10T09:15:36Z</time>
      </trkpt>
      <trkpt lat="49.92013" lon="2.10292">
        <ele>98.5</ele>
        <time>2022-08-10T09:15:37Z</time>
      </trkpt>
      <trkpt lat="49.92013" lon="2.10292">
        <ele>98.5</ele>
        <time>2022-08-10T09:15:38Z</time>
      </trkpt>
      <trkpt lat="49.92013" lon="2.10293">
        <ele>98.5</ele>
        <time>2022-08-10T09:15:39Z</time>
      </trkpt>
      <trkpt lat="49.92013" lon="2.10294">
        <ele>98.5</ele>
        <time>2022-08-10T09:15:40Z</time>
      </trkpt>
      <trkpt lat="49.92013" lon="2.10296">
        <ele>98.6</ele>
        <time>2022-08-10T09:15:41Z</time>
      </trkpt>
      <trkpt lat="49.92013" lon="2.10297">
        <ele>98.6</ele>
        <time>2022-08-10T09:15:42Z</time>
      </trkpt>
      <trkpt lat="49.92013" lon="2.10299">
        <ele>98.6</ele>
        <time>2022-08-10T09:15:43Z</time>
      </trkpt>
      <trkpt lat="49.92013" lon="2.103">
        <ele>98.6</ele>
        <time>2022-08-10T09:15:44Z</time>
      </trkpt>
      <trkpt lat="49.92013" lon="2.10302">
        <ele>98.7</ele>
        <time>2022-08-10T09:15:45Z</time>
      </trkpt>
      <trkpt lat="49.92014" lon="2.10305">
        <ele>98.7</ele>
        <time>2022-08-10T09:15:46Z</time>
      </trkpt>
      <trkpt lat="49.92015" lon="2.10307">
        <ele>98.7</ele>
        <time>2022-08-10T09:15:47Z</time>
      </trkpt>
      <trkpt lat="49.92015" lon="2.10308">
        <ele>98.8</ele>
        <time>2022-08-10T09:15:49Z</time>
      </trkpt>
      <trkpt lat="49.92016" lon="2.1031">
        <ele>98.8</ele>
        <time>2022-08-10T09:15:50Z</time>
      </trkpt>
      <trkpt lat="49.92016" lon="2.10311">
        <ele>98.8</ele>
        <time>2022-08-10T09:15:51Z</time>
      </trkpt>
      <trkpt lat="49.92017" lon="2.10312">
        <ele>98.8</ele>
        <time>2022-08-10T09:15:52Z</time>
      </trkpt>
      <trkpt lat="49.92017" lon="2.10314">
        <ele>98.9</ele>
        <time>2022-08-10T09:15:53Z</time>
      </trkpt>
      <trkpt lat="49.92017" lon="2.10316">
        <ele>98.9</ele>
        <time>2022-08-10T09:15:54Z</time>
      </trkpt>
      <trkpt lat="49.92018" lon="2.10318">
        <ele>98.9</ele>
        <time>2022-08-10T09:15:56Z</time>
      </trkpt>
      <trkpt lat="49.92018" lon="2.10319">
        <ele>98.8</ele>
        <time>2022-08-10T09:15:57Z</time>
      </trkpt>
      <trkpt lat="49.92019" lon="2.1032">
        <ele>98.8</ele>
        <time>2022-08-10T09:15:58Z</time>
      </trkpt>
      <trkpt lat="49.92019" lon="2.10321">
        <ele>98.8</ele>
        <time>2022-08-10T09:15:59Z</time>
      </trkpt>
      <trkpt lat="49.92019" lon="2.10321">
        <ele>98.8</ele>
        <time>2022-08-10T09:16:00Z</time>
      </trkpt>
      <trkpt lat="49.92019" lon="2.10322">
        <ele>98.8</ele>
        <time>2022-08-10T09:16:01Z</time>
      </trkpt>
      <trkpt lat="49.92019" lon="2.10323">
        <ele>98.8</ele>
        <time>2022-08-10T09:16:02Z</time>
      </trkpt>
      <trkpt lat="49.92019" lon="2.10324">
        <ele>98.7</ele>
        <time>2022-08-10T09:16:03Z</time>
      </trkpt>
      <trkpt lat="49.92019" lon="2.10325">
        <ele>98.7</ele>
        <time>2022-08-10T09:16:04Z</time>
      </trkpt>
      <trkpt lat="49.92019" lon="2.10327">
        <ele>98.7</ele>
        <time>2022-08-10T09:16:05Z</time>
      </trkpt>
      <trkpt lat="49.92019" lon="2.10328">
        <ele>98.7</ele>
        <time>2022-08-10T09:16:06Z</time>
      </trkpt>
      <trkpt lat="49.92019" lon="2.10329">
        <ele>98.6</ele>
        <time>2022-08-10T09:16:07Z</time>
      </trkpt>
      <trkpt lat="49.92019" lon="2.1033">
        <ele>98.6</ele>
        <time>2022-08-10T09:16:08Z</time>
      </trkpt>
      <trkpt lat="49.92019" lon="2.10332">
        <ele>98.6</ele>
        <time>2022-08-10T09:16:09Z</time>
      </trkpt>
      <trkpt lat="49.92019" lon="2.10334">
        <ele>98.6</ele>
        <time>2022-08-10T09:16:10Z</time>
      </trkpt>
      <trkpt lat="49.92019" lon="2.10335">
        <ele>98.5</ele>
        <time>2022-08-10T09:16:11Z</time>
      </trkpt>
      <trkpt lat="49.92019" lon="2.10337">
        <ele>98.5</ele>
        <time>2022-08-10T09:16:12Z</time>
      </trkpt>
      <trkpt lat="49.92019" lon="2.10339">
        <ele>98.5</ele>
        <time>2022-08-10T09:16:13Z</time>
      </trkpt>
      <trkpt lat="49.9202" lon="2.1034">
        <ele>98.4</ele>
        <time>2022-08-10T09:16:14Z</time>
      </trkpt>
      <trkpt lat="49.9202" lon="2.10341">
        <ele>98.4</ele>
        <time>2022-08-10T09:16:15Z</time>
      </trkpt>
      <trkpt lat="49.9202" lon="2.10343">
        <ele>98.4</ele>
        <time>2022-08-10T09:16:16Z</time>
      </trkpt>
      <trkpt lat="49.92021" lon="2.10344">
        <ele>98.4</ele>
        <time>2022-08-10T09:16:17Z</time>
      </trkpt>
      <trkpt lat="49.92021" lon="2.10347">
        <ele>98.3</ele>
        <time>2022-08-10T09:16:18Z</time>
      </trkpt>
      <trkpt lat="49.92021" lon="2.10348">
        <ele>98.3</ele>
        <time>2022-08-10T09:16:19Z</time>
      </trkpt>
      <trkpt lat="49.92021" lon="2.1035">
        <ele>98.2</ele>
        <time>2022-08-10T09:16:20Z</time>
      </trkpt>
      <trkpt lat="49.92022" lon="2.10353">
        <ele>98.2</ele>
        <time>2022-08-10T09:16:21Z</time>
      </trkpt>
      <trkpt lat="49.92022" lon="2.10354">
        <ele>98.2</ele>
        <time>2022-08-10T09:16:22Z</time>
      </trkpt>
      <trkpt lat="49.92022" lon="2.10356">
        <ele>98.1</ele>
        <time>2022-08-10T09:16:24Z</time>
      </trkpt>
      <trkpt lat="49.92023" lon="2.10357">
        <ele>98.1</ele>
        <time>2022-08-10T09:16:25Z</time>
      </trkpt>
      <trkpt lat="49.92023" lon="2.10358">
        <ele>98.1</ele>
        <time>2022-08-10T09:16:26Z</time>
      </trkpt>
      <trkpt lat="49.92023" lon="2.1036">
        <ele>98.1</ele>
        <time>2022-08-10T09:16:27Z</time>
      </trkpt>
      <trkpt lat="49.92024" lon="2.10362">
        <ele>98</ele>
        <time>2022-08-10T09:16:28Z</time>
      </trkpt>
      <trkpt lat="49.92024" lon="2.10364">
        <ele>98</ele>
        <time>2022-08-10T09:16:29Z</time>
      </trkpt>
      <trkpt lat="49.92024" lon="2.10366">
        <ele>97.9</ele>
        <time>2022-08-10T09:16:31Z</time>
      </trkpt>
      <trkpt lat="49.92024" lon="2.10368">
        <ele>97.9</ele>
        <time>2022-08-10T09:16:32Z</time>
      </trkpt>
      <trkpt lat="49.92025" lon="2.1037">
        <ele>97.9</ele>
        <time>2022-08-10T09:16:33Z</time>
      </trkpt>
      <trkpt lat="49.92025" lon="2.10373">
        <ele>97.8</ele>
        <time>2022-08-10T09:16:34Z</time>
      </trkpt>
      <trkpt lat="49.92026" lon="2.10374">
        <ele>97.8</ele>
        <time>2022-08-10T09:16:35Z</time>
      </trkpt>
      <trkpt lat="49.92026" lon="2.10375">
        <ele>97.8</ele>
        <time>2022-08-10T09:16:36Z</time>
      </trkpt>
      <trkpt lat="49.92026" lon="2.10377">
        <ele>97.7</ele>
        <time>2022-08-10T09:16:37Z</time>
      </trkpt>
      <trkpt lat="49.92027" lon="2.10379">
        <ele>97.7</ele>
        <time>2022-08-10T09:16:39Z</time>
      </trkpt>
      <trkpt lat="49.92027" lon="2.10381">
        <ele>97.7</ele>
        <time>2022-08-10T09:16:40Z</time>
      </trkpt>
      <trkpt lat="49.92027" lon="2.10382">
        <ele>97.6</ele>
        <time>2022-08-10T09:16:41Z</time>
      </trkpt>
      <trkpt lat="49.92027" lon="2.10384">
        <ele>97.6</ele>
        <time>2022-08-10T09:16:42Z</time>
      </trkpt>
      <trkpt lat="49.92028" lon="2.10385">
        <ele>97.6</ele>
        <time>2022-08-10T09:16:43Z</time>
      </trkpt>
      <trkpt lat="49.92028" lon="2.10388">
        <ele>97.5</ele>
        <time>2022-08-10T09:16:44Z</time>
      </trkpt>
      <trkpt lat="49.92029" lon="2.10389">
        <ele>97.5</ele>
        <time>2022-08-10T09:16:45Z</time>
      </trkpt>
      <trkpt lat="49.92029" lon="2.10391">
        <ele>97.5</ele>
        <time>2022-08-10T09:16:46Z</time>
      </trkpt>
      <trkpt lat="49.92029" lon="2.10393">
        <ele>97.4</ele>
        <time>2022-08-10T09:16:47Z</time>
      </trkpt>
      <trkpt lat="49.9203" lon="2.10395">
        <ele>97.4</ele>
        <time>2022-08-10T09:16:48Z</time>
      </trkpt>
      <trkpt lat="49.92031" lon="2.10397">
        <ele>97.3</ele>
        <time>2022-08-10T09:16:50Z</time>
      </trkpt>
      <trkpt lat="49.92032" lon="2.10399">
        <ele>97.3</ele>
        <time>2022-08-10T09:16:51Z</time>
      </trkpt>
      <trkpt lat="49.92032" lon="2.104">
        <ele>97.3</ele>
        <time>2022-08-10T09:16:52Z</time>
      </trkpt>
      <trkpt lat="49.92033" lon="2.10401">
        <ele>97.2</ele>
        <time>2022-08-10T09:16:53Z</time>
      </trkpt>
      <trkpt lat="49.92034" lon="2.10405">
        <ele>97.2</ele>
        <time>2022-08-10T09:16:54Z</time>
      </trkpt>
      <trkpt lat="49.92034" lon="2.10405">
        <ele>97.2</ele>
        <time>2022-08-10T09:16:55Z</time>
      </trkpt>
      <trkpt lat="49.92034" lon="2.10407">
        <ele>97.1</ele>
        <time>2022-08-10T09:16:57Z</time>
      </trkpt>
      <trkpt lat="49.92035" lon="2.10409">
        <ele>97.1</ele>
        <time>2022-08-10T09:16:58Z</time>
      </trkpt>
      <trkpt lat="49.92035" lon="2.1041">
        <ele>97.1</ele>
        <time>2022-08-10T09:16:59Z</time>
      </trkpt>
      <trkpt lat="49.92036" lon="2.10412">
        <ele>97.1</ele>
        <time>2022-08-10T09:17:00Z</time>
      </trkpt>
      <trkpt lat="49.92037" lon="2.10413">
        <ele>97.1</ele>
        <time>2022-08-10T09:17:01Z</time>
      </trkpt>
      <trkpt lat="49.92038" lon="2.10414">
        <ele>97</ele>
        <time>2022-08-10T09:17:02Z</time>
      </trkpt>
      <trkpt lat="49.92038" lon="2.10415">
        <ele>97</ele>
        <time>2022-08-10T09:17:04Z</time>
      </trkpt>
      <trkpt lat="49.92039" lon="2.10417">
        <ele>97</ele>
        <time>2022-08-10T09:17:05Z</time>
      </trkpt>
      <trkpt lat="49.9204" lon="2.10418">
        <ele>97</ele>
        <time>2022-08-10T09:17:06Z</time>
      </trkpt>
      <trkpt lat="49.9204" lon="2.10419">
        <ele>97</ele>
        <time>2022-08-10T09:17:07Z</time>
      </trkpt>
      <trkpt lat="49.92041" lon="2.10421">
        <ele>97</ele>
        <time>2022-08-10T09:17:08Z</time>
      </trkpt>
      <trkpt lat="49.92042" lon="2.10423">
        <ele>97</ele>
        <time>2022-08-10T09:17:10Z</time>
      </trkpt>
      <trkpt lat="49.92042" lon="2.10424">
        <ele>97</ele>
        <time>2022-08-10T09:17:11Z</time>
      </trkpt>
      <trkpt lat="49.92042" lon="2.10425">
        <ele>96.9</ele>
        <time>2022-08-10T09:17:12Z</time>
      </trkpt>
      <trkpt lat="49.92043" lon="2.10426">
        <ele>96.9</ele>
        <time>2022-08-10T09:17:13Z</time>
      </trkpt>
      <trkpt lat="49.92043" lon="2.10428">
        <ele>96.9</ele>
        <time>2022-08-10T09:17:14Z</time>
      </trkpt>
      <trkpt lat="49.92044" lon="2.1043">
        <ele>96.9</ele>
        <time>2022-08-10T09:17:15Z</time>
      </trkpt>
      <trkpt lat="49.92044" lon="2.1043">
        <ele>96.9</ele>
        <time>2022-08-10T09:17:16Z</time>
      </trkpt>
      <trkpt lat="49.92045" lon="2.1043">
        <ele>96.9</ele>
        <time>2022-08-10T09:17:18Z</time>
      </trkpt>
      <trkpt lat="49.92045" lon="2.1043">
        <ele>96.9</ele>
        <time>2022-08-10T09:17:19Z</time>
      </trkpt>
      <trkpt lat="49.92046" lon="2.10431">
        <ele>96.9</ele>
        <time>2022-08-10T09:17:20Z</time>
      </trkpt>
      <trkpt lat="49.92046" lon="2.10431">
        <ele>96.9</ele>
        <time>2022-08-10T09:17:21Z</time>
      </trkpt>
      <trkpt lat="49.92047" lon="2.10431">
        <ele>96.9</ele>
        <time>2022-08-10T09:17:22Z</time>
      </trkpt>
      <trkpt lat="49.92047" lon="2.10432">
        <ele>96.9</ele>
        <time>2022-08-10T09:17:23Z</time>
      </trkpt>
      <trkpt lat="49.92048" lon="2.10433">
        <ele>96.9</ele>
        <time>2022-08-10T09:17:24Z</time>
      </trkpt>
      <trkpt lat="49.92048" lon="2.10434">
        <ele>96.9</ele>
        <time>2022-08-10T09:17:26Z</time>
      </trkpt>
      <trkpt lat="49.92048" lon="2.10435">
        <ele>96.9</ele>
        <time>2022-08-10T09:17:27Z</time>
      </trkpt>
      <trkpt lat="49.92048" lon="2.10437">
        <ele>96.8</ele>
        <time>2022-08-10T09:17:28Z</time>
      </trkpt>
      <trkpt lat="49.92047" lon="2.10438">
        <ele>96.8</ele>
        <time>2022-08-10T09:17:29Z</time>
      </trkpt>
      <trkpt lat="49.92047" lon="2.1044">
        <ele>96.8</ele>
        <time>2022-08-10T09:17:30Z</time>
      </trkpt>
      <trkpt lat="49.92047" lon="2.10441">
        <ele>96.8</ele>
        <time>2022-08-10T09:17:31Z</time>
      </trkpt>
      <trkpt lat="49.92047" lon="2.10442">
        <ele>96.8</ele>
        <time>2022-08-10T09:17:32Z</time>
      </trkpt>
      <trkpt lat="49.92047" lon="2.10444">
        <ele>96.8</ele>
        <time>2022-08-10T09:17:33Z</time>
      </trkpt>
      <trkpt lat="49.92047" lon="2.10446">
        <ele>96.8</ele>
        <time>2022-08-10T09:17:34Z</time>
      </trkpt>
      <trkpt lat="49.92046" lon="2.10448">
        <ele>96.9</ele>
        <time>2022-08-10T09:17:35Z</time>
      </trkpt>
      <trkpt lat="49.92046" lon="2.1045">
        <ele>97</ele>
        <time>2022-08-10T09:17:36Z</time>
      </trkpt>
      <trkpt lat="49.92046" lon="2.10453">
        <ele>97.2</ele>
        <time>2022-08-10T09:17:37Z</time>
      </trkpt>
      <trkpt lat="49.92046" lon="2.10454">
        <ele>97.2</ele>
        <time>2022-08-10T09:17:39Z</time>
      </trkpt>
      <trkpt lat="49.92046" lon="2.10456">
        <ele>97.3</ele>
        <time>2022-08-10T09:17:40Z</time>
      </trkpt>
      <trkpt lat="49.92046" lon="2.10457">
        <ele>97.4</ele>
        <time>2022-08-10T09:17:41Z</time>
      </trkpt>
      <trkpt lat="49.92046" lon="2.10458">
        <ele>97.4</ele>
        <time>2022-08-10T09:17:42Z</time>
      </trkpt>
      <trkpt lat="49.92046" lon="2.1046">
        <ele>97.5</ele>
        <time>2022-08-10T09:17:43Z</time>
      </trkpt>
      <trkpt lat="49.92046" lon="2.10461">
        <ele>97.5</ele>
        <time>2022-08-10T09:17:44Z</time>
      </trkpt>
      <trkpt lat="49.92046" lon="2.10463">
        <ele>97.6</ele>
        <time>2022-08-10T09:17:45Z</time>
      </trkpt>
      <trkpt lat="49.92046" lon="2.10465">
        <ele>97.7</ele>
        <time>2022-08-10T09:17:46Z</time>
      </trkpt>
      <trkpt lat="49.92045" lon="2.10468">
        <ele>97.8</ele>
        <time>2022-08-10T09:17:47Z</time>
      </trkpt>
      <trkpt lat="49.92045" lon="2.10469">
        <ele>97.8</ele>
        <time>2022-08-10T09:17:49Z</time>
      </trkpt>
      <trkpt lat="49.92045" lon="2.10471">
        <ele>97.9</ele>
        <time>2022-08-10T09:17:50Z</time>
      </trkpt>
      <trkpt lat="49.92045" lon="2.10472">
        <ele>97.9</ele>
        <time>2022-08-10T09:17:51Z</time>
      </trkpt>
      <trkpt lat="49.92045" lon="2.10474">
        <ele>98</ele>
        <time>2022-08-10T09:17:52Z</time>
      </trkpt>
      <trkpt lat="49.92045" lon="2.10475">
        <ele>98</ele>
        <time>2022-08-10T09:17:53Z</time>
      </trkpt>
      <trkpt lat="49.92045" lon="2.10477">
        <ele>98.1</ele>
        <time>2022-08-10T09:17:55Z</time>
      </trkpt>
      <trkpt lat="49.92044" lon="2.10479">
        <ele>98.1</ele>
        <time>2022-08-10T09:17:56Z</time>
      </trkpt>
      <trkpt lat="49.92044" lon="2.1048">
        <ele>98.2</ele>
        <time>2022-08-10T09:17:57Z</time>
      </trkpt>
      <trkpt lat="49.92043" lon="2.10481">
        <ele>98.2</ele>
        <time>2022-08-10T09:17:58Z</time>
      </trkpt>
      <trkpt lat="49.92043" lon="2.10483">
        <ele>98.2</ele>
        <time>2022-08-10T09:17:59Z</time>
      </trkpt>
      <trkpt lat="49.92042" lon="2.10484">
        <ele>98.3</ele>
        <time>2022-08-10T09:18:00Z</time>
      </trkpt>
      <trkpt lat="49.92041" lon="2.10486">
        <ele>98.3</ele>
        <time>2022-08-10T09:18:02Z</time>
      </trkpt>
      <trkpt lat="49.92041" lon="2.10487">
        <ele>98.4</ele>
        <time>2022-08-10T09:18:03Z</time>
      </trkpt>
      <trkpt lat="49.9204" lon="2.10489">
        <ele>98.4</ele>
        <time>2022-08-10T09:18:04Z</time>
      </trkpt>
      <trkpt lat="49.9204" lon="2.1049">
        <ele>98.5</ele>
        <time>2022-08-10T09:18:05Z</time>
      </trkpt>
      <trkpt lat="49.9204" lon="2.10491">
        <ele>98.5</ele>
        <time>2022-08-10T09:18:06Z</time>
      </trkpt>
      <trkpt lat="49.92039" lon="2.10493">
        <ele>98.5</ele>
        <time>2022-08-10T09:18:07Z</time>
      </trkpt>
      <trkpt lat="49.92038" lon="2.10494">
        <ele>98.6</ele>
        <time>2022-08-10T09:18:08Z</time>
      </trkpt>
      <trkpt lat="49.92038" lon="2.10495">
        <ele>98.6</ele>
        <time>2022-08-10T09:18:09Z</time>
      </trkpt>
      <trkpt lat="49.92038" lon="2.10497">
        <ele>98.6</ele>
        <time>2022-08-10T09:18:11Z</time>
      </trkpt>
      <trkpt lat="49.92038" lon="2.10499">
        <ele>98.7</ele>
        <time>2022-08-10T09:18:12Z</time>
      </trkpt>
      <trkpt lat="49.92038" lon="2.10501">
        <ele>98.7</ele>
        <time>2022-08-10T09:18:13Z</time>
      </trkpt>
      <trkpt lat="49.92038" lon="2.10502">
        <ele>99.8</ele>
        <time>2022-08-10T09:18:14Z</time>
      </trkpt>
      <trkpt lat="49.92038" lon="2.10505">
        <ele>99.8</ele>
        <time>2022-08-10T09:18:15Z</time>
      </trkpt>
      <trkpt lat="49.92038" lon="2.10506">
        <ele>99.8</ele>
        <time>2022-08-10T09:18:16Z</time>
      </trkpt>
      <trkpt lat="49.92038" lon="2.10507">
        <ele>99.8</ele>
        <time>2022-08-10T09:18:18Z</time>
      </trkpt>
      <trkpt lat="49.92037" lon="2.10509">
        <ele>99.8</ele>
        <time>2022-08-10T09:18:19Z</time>
      </trkpt>
      <trkpt lat="49.92037" lon="2.10511">
        <ele>99.8</ele>
        <time>2022-08-10T09:18:20Z</time>
      </trkpt>
      <trkpt lat="49.92037" lon="2.10512">
        <ele>99.8</ele>
        <time>2022-08-10T09:18:21Z</time>
      </trkpt>
      <trkpt lat="49.92037" lon="2.10514">
        <ele>99.8</ele>
        <time>2022-08-10T09:18:22Z</time>
      </trkpt>
      <trkpt lat="49.92037" lon="2.10515">
        <ele>99.8</ele>
        <time>2022-08-10T09:18:23Z</time>
      </trkpt>
      <trkpt lat="49.92038" lon="2.10517">
        <ele>100.6</ele>
        <time>2022-08-10T09:18:24Z</time>
      </trkpt>
      <trkpt lat="49.92038" lon="2.10518">
        <ele>100.7</ele>
        <time>2022-08-10T09:18:26Z</time>
      </trkpt>
      <trkpt lat="49.92038" lon="2.1052">
        <ele>100.7</ele>
        <time>2022-08-10T09:18:27Z</time>
      </trkpt>
      <trkpt lat="49.92037" lon="2.10521">
        <ele>100.8</ele>
        <time>2022-08-10T09:18:28Z</time>
      </trkpt>
      <trkpt lat="49.92037" lon="2.10523">
        <ele>100.8</ele>
        <time>2022-08-10T09:18:29Z</time>
      </trkpt>
      <trkpt lat="49.92037" lon="2.10525">
        <ele>100.9</ele>
        <time>2022-08-10T09:18:30Z</time>
      </trkpt>
      <trkpt lat="49.92038" lon="2.10526">
        <ele>101</ele>
        <time>2022-08-10T09:18:31Z</time>
      </trkpt>
      <trkpt lat="49.92038" lon="2.10528">
        <ele>101</ele>
        <time>2022-08-10T09:18:33Z</time>
      </trkpt>
      <trkpt lat="49.92038" lon="2.1053">
        <ele>101.1</ele>
        <time>2022-08-10T09:18:34Z</time>
      </trkpt>
      <trkpt lat="49.92038" lon="2.10532">
        <ele>101.1</ele>
        <time>2022-08-10T09:18:35Z</time>
      </trkpt>
      <trkpt lat="49.92038" lon="2.10534">
        <ele>101.2</ele>
        <time>2022-08-10T09:18:36Z</time>
      </trkpt>
      <trkpt lat="49.92038" lon="2.10535">
        <ele>101.3</ele>
        <time>2022-08-10T09:18:37Z</time>
      </trkpt>
      <trkpt lat="49.92038" lon="2.10536">
        <ele>101.3</ele>
        <time>2022-08-10T09:18:38Z</time>
      </trkpt>
      <trkpt lat="49.92037" lon="2.10538">
        <ele>101.4</ele>
        <time>2022-08-10T09:18:39Z</time>
      </trkpt>
      <trkpt lat="49.92037" lon="2.10539">
        <ele>101.4</ele>
        <time>2022-08-10T09:18:41Z</time>
      </trkpt>
      <trkpt lat="49.92036" lon="2.10541">
        <ele>101.5</ele>
        <time>2022-08-10T09:18:42Z</time>
      </trkpt>
      <trkpt lat="49.92036" lon="2.10542">
        <ele>101.5</ele>
        <time>2022-08-10T09:18:43Z</time>
      </trkpt>
      <trkpt lat="49.92035" lon="2.10543">
        <ele>101.6</ele>
        <time>2022-08-10T09:18:44Z</time>
      </trkpt>
      <trkpt lat="49.92035" lon="2.10545">
        <ele>101.7</ele>
        <time>2022-08-10T09:18:45Z</time>
      </trkpt>
      <trkpt lat="49.92034" lon="2.10547">
        <ele>101.7</ele>
        <time>2022-08-10T09:18:46Z</time>
      </trkpt>
      <trkpt lat="49.92033" lon="2.10549">
        <ele>101.9</ele>
        <time>2022-08-10T09:18:48Z</time>
      </trkpt>
      <trkpt lat="49.92032" lon="2.10551">
        <ele>101.9</ele>
        <time>2022-08-10T09:18:49Z</time>
      </trkpt>
      <trkpt lat="49.92032" lon="2.10552">
        <ele>102</ele>
        <time>2022-08-10T09:18:50Z</time>
      </trkpt>
      <trkpt lat="49.92031" lon="2.10552">
        <ele>102</ele>
        <time>2022-08-10T09:18:51Z</time>
      </trkpt>
      <trkpt lat="49.9203" lon="2.10554">
        <ele>102.1</ele>
        <time>2022-08-10T09:18:52Z</time>
      </trkpt>
      <trkpt lat="49.9203" lon="2.10556">
        <ele>102.2</ele>
        <time>2022-08-10T09:18:53Z</time>
      </trkpt>
      <trkpt lat="49.92028" lon="2.1056">
        <ele>102.3</ele>
        <time>2022-08-10T09:18:55Z</time>
      </trkpt>
      <trkpt lat="49.92027" lon="2.1056">
        <ele>102.4</ele>
        <time>2022-08-10T09:18:56Z</time>
      </trkpt>
      <trkpt lat="49.92026" lon="2.10564">
        <ele>102.5</ele>
        <time>2022-08-10T09:18:57Z</time>
      </trkpt>
      <trkpt lat="49.92026" lon="2.10565">
        <ele>102.6</ele>
        <time>2022-08-10T09:18:59Z</time>
      </trkpt>
      <trkpt lat="49.92025" lon="2.10567">
        <ele>102.6</ele>
        <time>2022-08-10T09:19:00Z</time>
      </trkpt>
      <trkpt lat="49.92024" lon="2.10568">
        <ele>102.7</ele>
        <time>2022-08-10T09:19:01Z</time>
      </trkpt>
      <trkpt lat="49.92023" lon="2.1057">
        <ele>102.8</ele>
        <time>2022-08-10T09:19:03Z</time>
      </trkpt>
      <trkpt lat="49.92022" lon="2.10572">
        <ele>102.9</ele>
        <time>2022-08-10T09:19:04Z</time>
      </trkpt>
      <trkpt lat="49.92021" lon="2.10574">
        <ele>103</ele>
        <time>2022-08-10T09:19:05Z</time>
      </trkpt>
      <trkpt lat="49.92021" lon="2.10575">
        <ele>103</ele>
        <time>2022-08-10T09:19:06Z</time>
      </trkpt>
      <trkpt lat="49.9202" lon="2.10576">
        <ele>103.1</ele>
        <time>2022-08-10T09:19:07Z</time>
      </trkpt>
      <trkpt lat="49.9202" lon="2.10578">
        <ele>103.1</ele>
        <time>2022-08-10T09:19:08Z</time>
      </trkpt>
      <trkpt lat="49.92019" lon="2.1058">
        <ele>103.2</ele>
        <time>2022-08-10T09:19:09Z</time>
      </trkpt>
      <trkpt lat="49.92019" lon="2.10581">
        <ele>103.3</ele>
        <time>2022-08-10T09:19:11Z</time>
      </trkpt>
      <trkpt lat="49.92018" lon="2.10583">
        <ele>103.3</ele>
        <time>2022-08-10T09:19:12Z</time>
      </trkpt>
      <trkpt lat="49.92018" lon="2.10586">
        <ele>103.4</ele>
        <time>2022-08-10T09:19:13Z</time>
      </trkpt>
      <trkpt lat="49.92017" lon="2.10587">
        <ele>103.5</ele>
        <time>2022-08-10T09:19:14Z</time>
      </trkpt>
      <trkpt lat="49.92016" lon="2.10588">
        <ele>103.5</ele>
        <time>2022-08-10T09:19:15Z</time>
      </trkpt>
      <trkpt lat="49.92016" lon="2.10589">
        <ele>103.6</ele>
        <time>2022-08-10T09:19:16Z</time>
      </trkpt>
      <trkpt lat="49.92015" lon="2.10591">
        <ele>103.6</ele>
        <time>2022-08-10T09:19:18Z</time>
      </trkpt>
      <trkpt lat="49.92014" lon="2.10592">
        <ele>103.7</ele>
        <time>2022-08-10T09:19:19Z</time>
      </trkpt>
      <trkpt lat="49.92013" lon="2.10593">
        <ele>103.8</ele>
        <time>2022-08-10T09:19:20Z</time>
      </trkpt>
      <trkpt lat="49.92012" lon="2.10593">
        <ele>103.8</ele>
        <time>2022-08-10T09:19:21Z</time>
      </trkpt>
      <trkpt lat="49.92012" lon="2.10594">
        <ele>103.9</ele>
        <time>2022-08-10T09:19:22Z</time>
      </trkpt>
      <trkpt lat="49.92011" lon="2.10594">
        <ele>103.9</ele>
        <time>2022-08-10T09:19:23Z</time>
      </trkpt>
      <trkpt lat="49.9201" lon="2.10597">
        <ele>104</ele>
        <time>2022-08-10T09:19:24Z</time>
      </trkpt>
      <trkpt lat="49.92009" lon="2.10598">
        <ele>104.1</ele>
        <time>2022-08-10T09:19:25Z</time>
      </trkpt>
      <trkpt lat="49.92009" lon="2.10599">
        <ele>104.1</ele>
        <time>2022-08-10T09:19:27Z</time>
      </trkpt>
      <trkpt lat="49.92008" lon="2.106">
        <ele>104.2</ele>
        <time>2022-08-10T09:19:28Z</time>
      </trkpt>
      <trkpt lat="49.92007" lon="2.10602">
        <ele>104.2</ele>
        <time>2022-08-10T09:19:29Z</time>
      </trkpt>
      <trkpt lat="49.92007" lon="2.10603">
        <ele>104.3</ele>
        <time>2022-08-10T09:19:30Z</time>
      </trkpt>
      <trkpt lat="49.92006" lon="2.10603">
        <ele>104.3</ele>
        <time>2022-08-10T09:19:31Z</time>
      </trkpt>
      <trkpt lat="49.92006" lon="2.10604">
        <ele>104.3</ele>
        <time>2022-08-10T09:19:32Z</time>
      </trkpt>
      <trkpt lat="49.92005" lon="2.10606">
        <ele>104.4</ele>
        <time>2022-08-10T09:19:33Z</time>
      </trkpt>
      <trkpt lat="49.92004" lon="2.10607">
        <ele>104.5</ele>
        <time>2022-08-10T09:19:34Z</time>
      </trkpt>
      <trkpt lat="49.92003" lon="2.10609">
        <ele>104.6</ele>
        <time>2022-08-10T09:19:36Z</time>
      </trkpt>
      <trkpt lat="49.92003" lon="2.1061">
        <ele>104.6</ele>
        <time>2022-08-10T09:19:37Z</time>
      </trkpt>
      <trkpt lat="49.92002" lon="2.1061">
        <ele>104.6</ele>
        <time>2022-08-10T09:19:38Z</time>
      </trkpt>
      <trkpt lat="49.92002" lon="2.10611">
        <ele>104.7</ele>
        <time>2022-08-10T09:19:39Z</time>
      </trkpt>
      <trkpt lat="49.92001" lon="2.10612">
        <ele>104.7</ele>
        <time>2022-08-10T09:19:40Z</time>
      </trkpt>
      <trkpt lat="49.92001" lon="2.10613">
        <ele>104.8</ele>
        <time>2022-08-10T09:19:41Z</time>
      </trkpt>
      <trkpt lat="49.92" lon="2.10615">
        <ele>104.8</ele>
        <time>2022-08-10T09:19:42Z</time>
      </trkpt>
      <trkpt lat="49.91999" lon="2.10616">
        <ele>104.9</ele>
        <time>2022-08-10T09:19:43Z</time>
      </trkpt>
      <trkpt lat="49.91999" lon="2.10617">
        <ele>104.9</ele>
        <time>2022-08-10T09:19:45Z</time>
      </trkpt>
      <trkpt lat="49.91997" lon="2.10619">
        <ele>105</ele>
        <time>2022-08-10T09:19:46Z</time>
      </trkpt>
      <trkpt lat="49.91996" lon="2.1062">
        <ele>105.1</ele>
        <time>2022-08-10T09:19:47Z</time>
      </trkpt>
      <trkpt lat="49.91994" lon="2.10621">
        <ele>105.2</ele>
        <time>2022-08-10T09:19:48Z</time>
      </trkpt>
      <trkpt lat="49.91993" lon="2.10622">
        <ele>105.2</ele>
        <time>2022-08-10T09:19:49Z</time>
      </trkpt>
      <trkpt lat="49.91992" lon="2.10623">
        <ele>105.3</ele>
        <time>2022-08-10T09:19:50Z</time>
      </trkpt>
      <trkpt lat="49.91991" lon="2.10624">
        <ele>105.4</ele>
        <time>2022-08-10T09:19:51Z</time>
      </trkpt>
      <trkpt lat="49.9199" lon="2.10625">
        <ele>105.4</ele>
        <time>2022-08-10T09:19:52Z</time>
      </trkpt>
      <trkpt lat="49.91989" lon="2.10626">
        <ele>105.5</ele>
        <time>2022-08-10T09:19:53Z</time>
      </trkpt>
      <trkpt lat="49.91987" lon="2.10626">
        <ele>105.6</ele>
        <time>2022-08-10T09:19:55Z</time>
      </trkpt>
      <trkpt lat="49.91985" lon="2.10626">
        <ele>105.7</ele>
        <time>2022-08-10T09:19:56Z</time>
      </trkpt>
      <trkpt lat="49.91984" lon="2.10626">
        <ele>105.7</ele>
        <time>2022-08-10T09:19:57Z</time>
      </trkpt>
      <trkpt lat="49.91983" lon="2.10627">
        <ele>105.7</ele>
        <time>2022-08-10T09:19:58Z</time>
      </trkpt>
      <trkpt lat="49.91982" lon="2.10627">
        <ele>105.8</ele>
        <time>2022-08-10T09:19:59Z</time>
      </trkpt>
      <trkpt lat="49.91979" lon="2.10628">
        <ele>105.9</ele>
        <time>2022-08-10T09:20:00Z</time>
      </trkpt>
      <trkpt lat="49.91978" lon="2.10628">
        <ele>105.9</ele>
        <time>2022-08-10T09:20:01Z</time>
      </trkpt>
      <trkpt lat="49.91977" lon="2.10629">
        <ele>106</ele>
        <time>2022-08-10T09:20:02Z</time>
      </trkpt>
      <trkpt lat="49.91976" lon="2.10629">
        <ele>106</ele>
        <time>2022-08-10T09:20:03Z</time>
      </trkpt>
      <trkpt lat="49.91975" lon="2.1063">
        <ele>106.1</ele>
        <time>2022-08-10T09:20:05Z</time>
      </trkpt>
      <trkpt lat="49.91972" lon="2.1063">
        <ele>106.2</ele>
        <time>2022-08-10T09:20:06Z</time>
      </trkpt>
      <trkpt lat="49.91971" lon="2.10631">
        <ele>106.2</ele>
        <time>2022-08-10T09:20:07Z</time>
      </trkpt>
      <trkpt lat="49.9197" lon="2.10632">
        <ele>106.2</ele>
        <time>2022-08-10T09:20:08Z</time>
      </trkpt>
      <trkpt lat="49.91969" lon="2.10632">
        <ele>106.3</ele>
        <time>2022-08-10T09:20:09Z</time>
      </trkpt>
      <trkpt lat="49.91968" lon="2.10633">
        <ele>106.3</ele>
        <time>2022-08-10T09:20:10Z</time>
      </trkpt>
      <trkpt lat="49.91967" lon="2.10632">
        <ele>106.4</ele>
        <time>2022-08-10T09:20:11Z</time>
      </trkpt>
      <trkpt lat="49.91966" lon="2.10633">
        <ele>106.4</ele>
        <time>2022-08-10T09:20:13Z</time>
      </trkpt>
      <trkpt lat="49.91965" lon="2.10633">
        <ele>106.4</ele>
        <time>2022-08-10T09:20:14Z</time>
      </trkpt>
      <trkpt lat="49.91962" lon="2.10634">
        <ele>106.5</ele>
        <time>2022-08-10T09:20:15Z</time>
      </trkpt>
      <trkpt lat="49.91962" lon="2.10635">
        <ele>106.5</ele>
        <time>2022-08-10T09:20:16Z</time>
      </trkpt>
      <trkpt lat="49.91961" lon="2.10636">
        <ele>106.5</ele>
        <time>2022-08-10T09:20:17Z</time>
      </trkpt>
      <trkpt lat="49.91961" lon="2.10637">
        <ele>106.6</ele>
        <time>2022-08-10T09:20:18Z</time>
      </trkpt>
      <trkpt lat="49.9196" lon="2.10638">
        <ele>106.6</ele>
        <time>2022-08-10T09:20:19Z</time>
      </trkpt>
      <trkpt lat="49.91958" lon="2.10638">
        <ele>106.7</ele>
        <time>2022-08-10T09:20:20Z</time>
      </trkpt>
      <trkpt lat="49.91958" lon="2.10639">
        <ele>106.7</ele>
        <time>2022-08-10T09:20:22Z</time>
      </trkpt>
      <trkpt lat="49.91957" lon="2.1064">
        <ele>106.7</ele>
        <time>2022-08-10T09:20:23Z</time>
      </trkpt>
      <trkpt lat="49.91956" lon="2.10641">
        <ele>106.8</ele>
        <time>2022-08-10T09:20:24Z</time>
      </trkpt>
      <trkpt lat="49.91955" lon="2.10644">
        <ele>106.8</ele>
        <time>2022-08-10T09:20:25Z</time>
      </trkpt>
      <trkpt lat="49.91955" lon="2.10644">
        <ele>106.9</ele>
        <time>2022-08-10T09:20:26Z</time>
      </trkpt>
      <trkpt lat="49.91954" lon="2.10645">
        <ele>106.9</ele>
        <time>2022-08-10T09:20:27Z</time>
      </trkpt>
      <trkpt lat="49.91952" lon="2.10647">
        <ele>107</ele>
        <time>2022-08-10T09:20:28Z</time>
      </trkpt>
      <trkpt lat="49.91951" lon="2.10648">
        <ele>107</ele>
        <time>2022-08-10T09:20:30Z</time>
      </trkpt>
      <trkpt lat="49.9195" lon="2.10649">
        <ele>107.1</ele>
        <time>2022-08-10T09:20:31Z</time>
      </trkpt>
      <trkpt lat="49.9195" lon="2.1065">
        <ele>107.1</ele>
        <time>2022-08-10T09:20:32Z</time>
      </trkpt>
      <trkpt lat="49.91949" lon="2.1065">
        <ele>107.1</ele>
        <time>2022-08-10T09:20:33Z</time>
      </trkpt>
      <trkpt lat="49.91948" lon="2.10651">
        <ele>107.2</ele>
        <time>2022-08-10T09:20:34Z</time>
      </trkpt>
      <trkpt lat="49.91947" lon="2.10651">
        <ele>107.2</ele>
        <time>2022-08-10T09:20:35Z</time>
      </trkpt>
      <trkpt lat="49.91946" lon="2.10652">
        <ele>107.3</ele>
        <time>2022-08-10T09:20:36Z</time>
      </trkpt>
      <trkpt lat="49.91945" lon="2.10652">
        <ele>107.3</ele>
        <time>2022-08-10T09:20:37Z</time>
      </trkpt>
      <trkpt lat="49.91943" lon="2.10654">
        <ele>107.4</ele>
        <time>2022-08-10T09:20:38Z</time>
      </trkpt>
      <trkpt lat="49.91943" lon="2.10654">
        <ele>107.4</ele>
        <time>2022-08-10T09:20:40Z</time>
      </trkpt>
      <trkpt lat="49.91942" lon="2.10655">
        <ele>107.4</ele>
        <time>2022-08-10T09:20:41Z</time>
      </trkpt>
      <trkpt lat="49.91941" lon="2.10655">
        <ele>107.5</ele>
        <time>2022-08-10T09:20:42Z</time>
      </trkpt>
      <trkpt lat="49.9194" lon="2.10656">
        <ele>107.5</ele>
        <time>2022-08-10T09:20:43Z</time>
      </trkpt>
      <trkpt lat="49.91939" lon="2.10656">
        <ele>107.6</ele>
        <time>2022-08-10T09:20:44Z</time>
      </trkpt>
      <trkpt lat="49.91936" lon="2.10657">
        <ele>107.6</ele>
        <time>2022-08-10T09:20:45Z</time>
      </trkpt>
      <trkpt lat="49.91936" lon="2.10658">
        <ele>107.7</ele>
        <time>2022-08-10T09:20:46Z</time>
      </trkpt>
      <trkpt lat="49.91935" lon="2.10658">
        <ele>107.7</ele>
        <time>2022-08-10T09:20:47Z</time>
      </trkpt>
      <trkpt lat="49.91934" lon="2.10658">
        <ele>107.7</ele>
        <time>2022-08-10T09:20:49Z</time>
      </trkpt>
      <trkpt lat="49.91932" lon="2.10658">
        <ele>107.8</ele>
        <time>2022-08-10T09:20:50Z</time>
      </trkpt>
      <trkpt lat="49.91931" lon="2.10658">
        <ele>107.8</ele>
        <time>2022-08-10T09:20:51Z</time>
      </trkpt>
      <trkpt lat="49.91931" lon="2.10658">
        <ele>107.9</ele>
        <time>2022-08-10T09:20:52Z</time>
      </trkpt>
      <trkpt lat="49.9193" lon="2.10658">
        <ele>107.9</ele>
        <time>2022-08-10T09:20:53Z</time>
      </trkpt>
      <trkpt lat="49.91928" lon="2.10658">
        <ele>107.9</ele>
        <time>2022-08-10T09:20:54Z</time>
      </trkpt>
      <trkpt lat="49.91927" lon="2.10658">
        <ele>108</ele>
        <time>2022-08-10T09:20:55Z</time>
      </trkpt>
      <trkpt lat="49.91926" lon="2.10658">
        <ele>108</ele>
        <time>2022-08-10T09:20:56Z</time>
      </trkpt>
      <trkpt lat="49.91925" lon="2.10658">
        <ele>108.1</ele>
        <time>2022-08-10T09:20:57Z</time>
      </trkpt>
      <trkpt lat="49.91924" lon="2.10658">
        <ele>108.1</ele>
        <time>2022-08-10T09:20:58Z</time>
      </trkpt>
      <trkpt lat="49.91922" lon="2.10659">
        <ele>108.1</ele>
        <time>2022-08-10T09:21:00Z</time>
      </trkpt>
      <trkpt lat="49.91921" lon="2.10659">
        <ele>108.2</ele>
        <time>2022-08-10T09:21:01Z</time>
      </trkpt>
      <trkpt lat="49.9192" lon="2.1066">
        <ele>108.2</ele>
        <time>2022-08-10T09:21:02Z</time>
      </trkpt>
      <trkpt lat="49.91918" lon="2.1066">
        <ele>108.2</ele>
        <time>2022-08-10T09:21:03Z</time>
      </trkpt>
      <trkpt lat="49.91917" lon="2.1066">
        <ele>108.2</ele>
        <time>2022-08-10T09:21:04Z</time>
      </trkpt>
      <trkpt lat="49.91916" lon="2.1066">
        <ele>108.3</ele>
        <time>2022-08-10T09:21:05Z</time>
      </trkpt>
      <trkpt lat="49.91915" lon="2.1066">
        <ele>108.3</ele>
        <time>2022-08-10T09:21:06Z</time>
      </trkpt>
      <trkpt lat="49.91914" lon="2.1066">
        <ele>108.3</ele>
        <time>2022-08-10T09:21:07Z</time>
      </trkpt>
      <trkpt lat="49.91913" lon="2.1066">
        <ele>108.3</ele>
        <time>2022-08-10T09:21:09Z</time>
      </trkpt>
      <trkpt lat="49.91912" lon="2.10661">
        <ele>108.4</ele>
        <time>2022-08-10T09:21:10Z</time>
      </trkpt>
      <trkpt lat="49.9191" lon="2.10661">
        <ele>108.4</ele>
        <time>2022-08-10T09:21:11Z</time>
      </trkpt>
      <trkpt lat="49.9191" lon="2.10661">
        <ele>108.4</ele>
        <time>2022-08-10T09:21:12Z</time>
      </trkpt>
      <trkpt lat="49.91907" lon="2.10662">
        <ele>108.4</ele>
        <time>2022-08-10T09:21:13Z</time>
      </trkpt>
      <trkpt lat="49.91906" lon="2.10662">
        <ele>108.5</ele>
        <time>2022-08-10T09:21:14Z</time>
      </trkpt>
      <trkpt lat="49.91905" lon="2.10663">
        <ele>108.5</ele>
        <time>2022-08-10T09:21:15Z</time>
      </trkpt>
      <trkpt lat="49.91903" lon="2.10663">
        <ele>108.5</ele>
        <time>2022-08-10T09:21:16Z</time>
      </trkpt>
      <trkpt lat="49.91903" lon="2.10663">
        <ele>108.5</ele>
        <time>2022-08-10T09:21:17Z</time>
      </trkpt>
      <trkpt lat="49.91902" lon="2.10663">
        <ele>108.5</ele>
        <time>2022-08-10T09:21:19Z</time>
      </trkpt>
      <trkpt lat="49.91901" lon="2.10664">
        <ele>108.5</ele>
        <time>2022-08-10T09:21:20Z</time>
      </trkpt>
      <trkpt lat="49.91899" lon="2.10665">
        <ele>108.6</ele>
        <time>2022-08-10T09:21:21Z</time>
      </trkpt>
      <trkpt lat="49.91898" lon="2.10666">
        <ele>108.6</ele>
        <time>2022-08-10T09:21:22Z</time>
      </trkpt>
      <trkpt lat="49.91896" lon="2.10667">
        <ele>108.6</ele>
        <time>2022-08-10T09:21:23Z</time>
      </trkpt>
      <trkpt lat="49.91895" lon="2.10668">
        <ele>108.6</ele>
        <time>2022-08-10T09:21:24Z</time>
      </trkpt>
      <trkpt lat="49.91894" lon="2.10669">
        <ele>108.6</ele>
        <time>2022-08-10T09:21:25Z</time>
      </trkpt>
      <trkpt lat="49.91893" lon="2.10669">
        <ele>108.7</ele>
        <time>2022-08-10T09:21:26Z</time>
      </trkpt>
      <trkpt lat="49.91892" lon="2.10669">
        <ele>108.7</ele>
        <time>2022-08-10T09:21:27Z</time>
      </trkpt>
      <trkpt lat="49.91891" lon="2.1067">
        <ele>108.7</ele>
        <time>2022-08-10T09:21:29Z</time>
      </trkpt>
      <trkpt lat="49.9189" lon="2.1067">
        <ele>108.7</ele>
        <time>2022-08-10T09:21:30Z</time>
      </trkpt>
      <trkpt lat="49.91889" lon="2.10671">
        <ele>108.7</ele>
        <time>2022-08-10T09:21:31Z</time>
      </trkpt>
      <trkpt lat="49.91889" lon="2.10671">
        <ele>108.7</ele>
        <time>2022-08-10T09:21:32Z</time>
      </trkpt>
      <trkpt lat="49.91888" lon="2.10672">
        <ele>108.7</ele>
        <time>2022-08-10T09:21:33Z</time>
      </trkpt>
      <trkpt lat="49.91887" lon="2.10674">
        <ele>108.8</ele>
        <time>2022-08-10T09:21:34Z</time>
      </trkpt>
      <trkpt lat="49.91886" lon="2.10676">
        <ele>108.8</ele>
        <time>2022-08-10T09:21:36Z</time>
      </trkpt>
      <trkpt lat="49.91884" lon="2.10676">
        <ele>108.8</ele>
        <time>2022-08-10T09:21:37Z</time>
      </trkpt>
      <trkpt lat="49.91884" lon="2.10676">
        <ele>108.8</ele>
        <time>2022-08-10T09:21:38Z</time>
      </trkpt>
      <trkpt lat="49.91883" lon="2.10676">
        <ele>108.8</ele>
        <time>2022-08-10T09:21:39Z</time>
      </trkpt>
      <trkpt lat="49.91882" lon="2.10676">
        <ele>108.8</ele>
        <time>2022-08-10T09:21:40Z</time>
      </trkpt>
      <trkpt lat="49.91881" lon="2.10676">
        <ele>108.8</ele>
        <time>2022-08-10T09:21:41Z</time>
      </trkpt>
      <trkpt lat="49.9188" lon="2.10676">
        <ele>108.8</ele>
        <time>2022-08-10T09:21:42Z</time>
      </trkpt>
      <trkpt lat="49.91879" lon="2.10676">
        <ele>108.8</ele>
        <time>2022-08-10T09:21:44Z</time>
      </trkpt>
      <trkpt lat="49.91878" lon="2.10676">
        <ele>108.8</ele>
        <time>2022-08-10T09:21:45Z</time>
      </trkpt>
      <trkpt lat="49.91878" lon="2.10676">
        <ele>108.9</ele>
        <time>2022-08-10T09:21:46Z</time>
      </trkpt>
      <trkpt lat="49.91877" lon="2.10676">
        <ele>108.9</ele>
        <time>2022-08-10T09:21:47Z</time>
      </trkpt>
      <trkpt lat="49.91875" lon="2.10676">
        <ele>108.9</ele>
        <time>2022-08-10T09:21:48Z</time>
      </trkpt>
      <trkpt lat="49.91874" lon="2.10676">
        <ele>108.9</ele>
        <time>2022-08-10T09:21:49Z</time>
      </trkpt>
      <trkpt lat="49.91872" lon="2.10677">
        <ele>108.9</ele>
        <time>2022-08-10T09:21:51Z</time>
      </trkpt>
      <trkpt lat="49.91872" lon="2.10677">
        <ele>108.9</ele>
        <time>2022-08-10T09:21:52Z</time>
      </trkpt>
      <trkpt lat="49.91871" lon="2.10676">
        <ele>108.9</ele>
        <time>2022-08-10T09:21:53Z</time>
      </trkpt>
      <trkpt lat="49.9187" lon="2.10676">
        <ele>108.9</ele>
        <time>2022-08-10T09:21:54Z</time>
      </trkpt>
      <trkpt lat="49.91869" lon="2.10674">
        <ele>108.9</ele>
        <time>2022-08-10T09:21:56Z</time>
      </trkpt>
      <trkpt lat="49.91868" lon="2.10674">
        <ele>108.9</ele>
        <time>2022-08-10T09:21:57Z</time>
      </trkpt>
      <trkpt lat="49.91867" lon="2.10674">
        <ele>108.9</ele>
        <time>2022-08-10T09:21:58Z</time>
      </trkpt>
      <trkpt lat="49.91866" lon="2.10674">
        <ele>108.9</ele>
        <time>2022-08-10T09:21:59Z</time>
      </trkpt>
      <trkpt lat="49.91863" lon="2.10674">
        <ele>108.9</ele>
        <time>2022-08-10T09:22:01Z</time>
      </trkpt>
      <trkpt lat="49.91862" lon="2.10675">
        <ele>108.9</ele>
        <time>2022-08-10T09:22:02Z</time>
      </trkpt>
      <trkpt lat="49.91861" lon="2.10676">
        <ele>108.9</ele>
        <time>2022-08-10T09:22:03Z</time>
      </trkpt>
      <trkpt lat="49.9186" lon="2.10677">
        <ele>108.9</ele>
        <time>2022-08-10T09:22:04Z</time>
      </trkpt>
      <trkpt lat="49.91859" lon="2.10679">
        <ele>108.9</ele>
        <time>2022-08-10T09:22:05Z</time>
      </trkpt>
      <trkpt lat="49.91858" lon="2.10681">
        <ele>108.9</ele>
        <time>2022-08-10T09:22:06Z</time>
      </trkpt>
      <trkpt lat="49.91858" lon="2.10682">
        <ele>108.9</ele>
        <time>2022-08-10T09:22:07Z</time>
      </trkpt>
      <trkpt lat="49.91858" lon="2.10684">
        <ele>108.9</ele>
        <time>2022-08-10T09:22:08Z</time>
      </trkpt>
      <trkpt lat="49.91858" lon="2.10685">
        <ele>108.9</ele>
        <time>2022-08-10T09:22:09Z</time>
      </trkpt>
      <trkpt lat="49.91858" lon="2.10686">
        <ele>108.9</ele>
        <time>2022-08-10T09:22:10Z</time>
      </trkpt>
      <trkpt lat="49.91857" lon="2.10683">
        <ele>108.9</ele>
        <time>2022-08-10T09:22:12Z</time>
      </trkpt>
      <trkpt lat="49.91857" lon="2.10682">
        <ele>108.9</ele>
        <time>2022-08-10T09:22:13Z</time>
      </trkpt>
      <trkpt lat="49.91858" lon="2.10681">
        <ele>108.9</ele>
        <time>2022-08-10T09:22:14Z</time>
      </trkpt>
      <trkpt lat="49.91861" lon="2.10682">
        <ele>108.9</ele>
        <time>2022-08-10T09:22:16Z</time>
      </trkpt>
      <trkpt lat="49.91861" lon="2.10685">
        <ele>108.9</ele>
        <time>2022-08-10T09:22:17Z</time>
      </trkpt>
      <trkpt lat="49.91861" lon="2.10685">
        <ele>108.9</ele>
        <time>2022-08-10T09:22:18Z</time>
      </trkpt>
      <trkpt lat="49.91861" lon="2.10686">
        <ele>108.9</ele>
        <time>2022-08-10T09:22:19Z</time>
      </trkpt>
      <trkpt lat="49.9186" lon="2.10686">
        <ele>108.9</ele>
        <time>2022-08-10T09:22:20Z</time>
      </trkpt>
      <trkpt lat="49.9186" lon="2.10686">
        <ele>108.9</ele>
        <time>2022-08-10T09:22:21Z</time>
      </trkpt>
      <trkpt lat="49.9186" lon="2.10686">
        <ele>108.9</ele>
        <time>2022-08-10T09:22:22Z</time>
      </trkpt>
      <trkpt lat="49.9186" lon="2.10686">
        <ele>108.9</ele>
        <time>2022-08-10T09:22:23Z</time>
      </trkpt>
      <trkpt lat="49.9186" lon="2.10686">
        <ele>108.9</ele>
        <time>2022-08-10T09:22:24Z</time>
      </trkpt>
      <trkpt lat="49.9186" lon="2.10686">
        <ele>108.9</ele>
        <time>2022-08-10T09:22:25Z</time>
      </trkpt>
      <trkpt lat="49.9186" lon="2.10686">
        <ele>108.9</ele>
        <time>2022-08-10T09:22:26Z</time>
      </trkpt>
      <trkpt lat="49.91859" lon="2.10686">
        <ele>108.9</ele>
        <time>2022-08-10T09:22:27Z</time>
      </trkpt>
      <trkpt lat="49.91859" lon="2.10686">
        <ele>108.9</ele>
        <time>2022-08-10T09:22:28Z</time>
      </trkpt>
      <trkpt lat="49.91859" lon="2.10685">
        <ele>108.9</ele>
        <time>2022-08-10T09:22:29Z</time>
      </trkpt>
      <trkpt lat="49.91859" lon="2.10685">
        <ele>108.9</ele>
        <time>2022-08-10T09:22:30Z</time>
      </trkpt>
      <trkpt lat="49.91859" lon="2.10685">
        <ele>108.9</ele>
        <time>2022-08-10T09:22:31Z</time>
      </trkpt>
      <trkpt lat="49.91859" lon="2.10685">
        <ele>108.9</ele>
        <time>2022-08-10T09:22:32Z</time>
      </trkpt>
      <trkpt lat="49.91859" lon="2.10685">
        <ele>108.9</ele>
        <time>2022-08-10T09:22:33Z</time>
      </trkpt>
      <trkpt lat="49.91859" lon="2.10685">
        <ele>108.9</ele>
        <time>2022-08-10T09:22:34Z</time>
      </trkpt>
      <trkpt lat="49.91859" lon="2.10685">
        <ele>108.9</ele>
        <time>2022-08-10T09:22:35Z</time>
      </trkpt>
      <trkpt lat="49.91859" lon="2.10685">
        <ele>108.9</ele>
        <time>2022-08-10T09:22:36Z</time>
      </trkpt>
      <trkpt lat="49.91859" lon="2.10684">
        <ele>108.9</ele>
        <time>2022-08-10T09:22:37Z</time>
      </trkpt>
      <trkpt lat="49.91859" lon="2.10684">
        <ele>108.9</ele>
        <time>2022-08-10T09:22:38Z</time>
      </trkpt>
      <trkpt lat="49.91859" lon="2.10684">
        <ele>108.9</ele>
        <time>2022-08-10T09:22:39Z</time>
      </trkpt>
      <trkpt lat="49.91859" lon="2.10684">
        <ele>108.9</ele>
        <time>2022-08-10T09:22:40Z</time>
      </trkpt>
      <trkpt lat="49.91859" lon="2.10684">
        <ele>108.9</ele>
        <time>2022-08-10T09:22:41Z</time>
      </trkpt>
      <trkpt lat="49.91859" lon="2.10684">
        <ele>108.9</ele>
        <time>2022-08-10T09:22:42Z</time>
      </trkpt>
      <trkpt lat="49.91859" lon="2.10684">
        <ele>108.9</ele>
        <time>2022-08-10T09:22:43Z</time>
      </trkpt>
      <trkpt lat="49.91859" lon="2.10684">
        <ele>108.9</ele>
        <time>2022-08-10T09:22:44Z</time>
      </trkpt>
      <trkpt lat="49.91859" lon="2.10683">
        <ele>108.9</ele>
        <time>2022-08-10T09:22:45Z</time>
      </trkpt>
      <trkpt lat="49.91859" lon="2.10683">
        <ele>108.9</ele>
        <time>2022-08-10T09:22:46Z</time>
      </trkpt>
      <trkpt lat="49.91859" lon="2.10683">
        <ele>108.9</ele>
        <time>2022-08-10T09:22:47Z</time>
      </trkpt>
      <trkpt lat="49.91859" lon="2.10683">
        <ele>108.9</ele>
        <time>2022-08-10T09:22:48Z</time>
      </trkpt>
      <trkpt lat="49.91859" lon="2.10683">
        <ele>108.9</ele>
        <time>2022-08-10T09:22:49Z</time>
      </trkpt>
      <trkpt lat="49.91859" lon="2.10683">
        <ele>108.9</ele>
        <time>2022-08-10T09:22:50Z</time>
      </trkpt>
      <trkpt lat="49.91859" lon="2.10683">
        <ele>108.9</ele>
        <time>2022-08-10T09:22:51Z</time>
      </trkpt>
      <trkpt lat="49.91859" lon="2.10683">
        <ele>108.9</ele>
        <time>2022-08-10T09:22:52Z</time>
      </trkpt>
      <trkpt lat="49.91859" lon="2.10682">
        <ele>108.9</ele>
        <time>2022-08-10T09:22:53Z</time>
      </trkpt>
      <trkpt lat="49.91859" lon="2.10682">
        <ele>108.9</ele>
        <time>2022-08-10T09:22:54Z</time>
      </trkpt>
      <trkpt lat="49.91859" lon="2.10682">
        <ele>108.9</ele>
        <time>2022-08-10T09:22:55Z</time>
      </trkpt>
      <trkpt lat="49.91859" lon="2.10682">
        <ele>108.9</ele>
        <time>2022-08-10T09:22:56Z</time>
      </trkpt>
      <trkpt lat="49.91859" lon="2.10682">
        <ele>108.9</ele>
        <time>2022-08-10T09:22:57Z</time>
      </trkpt>
      <trkpt lat="49.91859" lon="2.10682">
        <ele>108.9</ele>
        <time>2022-08-10T09:22:58Z</time>
      </trkpt>
      <trkpt lat="49.91859" lon="2.10682">
        <ele>108.9</ele>
        <time>2022-08-10T09:22:59Z</time>
      </trkpt>
      <trkpt lat="49.91859" lon="2.10682">
        <ele>108.9</ele>
        <time>2022-08-10T09:23:00Z</time>
      </trkpt>
      <trkpt lat="49.91859" lon="2.10681">
        <ele>108.9</ele>
        <time>2022-08-10T09:23:01Z</time>
      </trkpt>
      <trkpt lat="49.91859" lon="2.10681">
        <ele>108.9</ele>
        <time>2022-08-10T09:23:02Z</time>
      </trkpt>
      <trkpt lat="49.91859" lon="2.10681">
        <ele>108.9</ele>
        <time>2022-08-10T09:23:03Z</time>
      </trkpt>
      <trkpt lat="49.91859" lon="2.10681">
        <ele>108.9</ele>
        <time>2022-08-10T09:23:04Z</time>
      </trkpt>
      <trkpt lat="49.91859" lon="2.10681">
        <ele>108.9</ele>
        <time>2022-08-10T09:23:05Z</time>
      </trkpt>
      <trkpt lat="49.91859" lon="2.10681">
        <ele>108.9</ele>
        <time>2022-08-10T09:23:06Z</time>
      </trkpt>
      <trkpt lat="49.91859" lon="2.1068">
        <ele>108.9</ele>
        <time>2022-08-10T09:23:07Z</time>
      </trkpt>
      <trkpt lat="49.91859" lon="2.1068">
        <ele>108.9</ele>
        <time>2022-08-10T09:23:08Z</time>
      </trkpt>
      <trkpt lat="49.91859" lon="2.1068">
        <ele>108.9</ele>
        <time>2022-08-10T09:23:09Z</time>
      </trkpt>
      <trkpt lat="49.91858" lon="2.1068">
        <ele>108.9</ele>
        <time>2022-08-10T09:23:10Z</time>
      </trkpt>
      <trkpt lat="49.91858" lon="2.1068">
        <ele>108.9</ele>
        <time>2022-08-10T09:23:11Z</time>
      </trkpt>
      <trkpt lat="49.91858" lon="2.10679">
        <ele>108.9</ele>
        <time>2022-08-10T09:23:12Z</time>
      </trkpt>
      <trkpt lat="49.91858" lon="2.10679">
        <ele>108.9</ele>
        <time>2022-08-10T09:23:13Z</time>
      </trkpt>
      <trkpt lat="49.91859" lon="2.10679">
        <ele>108.9</ele>
        <time>2022-08-10T09:23:14Z</time>
      </trkpt>
      <trkpt lat="49.91859" lon="2.10679">
        <ele>108.9</ele>
        <time>2022-08-10T09:23:15Z</time>
      </trkpt>
      <trkpt lat="49.91859" lon="2.10679">
        <ele>108.9</ele>
        <time>2022-08-10T09:23:16Z</time>
      </trkpt>
      <trkpt lat="49.91859" lon="2.10679">
        <ele>108.9</ele>
        <time>2022-08-10T09:23:17Z</time>
      </trkpt>
      <trkpt lat="49.91859" lon="2.10679">
        <ele>108.9</ele>
        <time>2022-08-10T09:23:18Z</time>
      </trkpt>
      <trkpt lat="49.91859" lon="2.10679">
        <ele>108.9</ele>
        <time>2022-08-10T09:23:19Z</time>
      </trkpt>
      <trkpt lat="49.91859" lon="2.10679">
        <ele>108.9</ele>
        <time>2022-08-10T09:23:20Z</time>
      </trkpt>
      <trkpt lat="49.91859" lon="2.10679">
        <ele>108.9</ele>
        <time>2022-08-10T09:23:21Z</time>
      </trkpt>
      <trkpt lat="49.91859" lon="2.10679">
        <ele>108.9</ele>
        <time>2022-08-10T09:23:22Z</time>
      </trkpt>
      <trkpt lat="49.91859" lon="2.10679">
        <ele>108.9</ele>
        <time>2022-08-10T09:23:23Z</time>
      </trkpt>
      <trkpt lat="49.91859" lon="2.10679">
        <ele>108.9</ele>
        <time>2022-08-10T09:23:24Z</time>
      </trkpt>
      <trkpt lat="49.91859" lon="2.10679">
        <ele>108.9</ele>
        <time>2022-08-10T09:23:25Z</time>
      </trkpt>
      <trkpt lat="49.91859" lon="2.10679">
        <ele>108.9</ele>
        <time>2022-08-10T09:23:26Z</time>
      </trkpt>
      <trkpt lat="49.91859" lon="2.10679">
        <ele>108.9</ele>
        <time>2022-08-10T09:23:27Z</time>
      </trkpt>
      <trkpt lat="49.91859" lon="2.10679">
        <ele>108.9</ele>
        <time>2022-08-10T09:23:28Z</time>
      </trkpt>
      <trkpt lat="49.91859" lon="2.10679">
        <ele>108.9</ele>
        <time>2022-08-10T09:23:29Z</time>
      </trkpt>
      <trkpt lat="49.91859" lon="2.10679">
        <ele>108.9</ele>
        <time>2022-08-10T09:23:30Z</time>
      </trkpt>
      <trkpt lat="49.91859" lon="2.10679">
        <ele>108.9</ele>
        <time>2022-08-10T09:23:31Z</time>
      </trkpt>
      <trkpt lat="49.91859" lon="2.10679">
        <ele>108.9</ele>
        <time>2022-08-10T09:23:32Z</time>
      </trkpt>
      <trkpt lat="49.91859" lon="2.10679">
        <ele>108.9</ele>
        <time>2022-08-10T09:23:33Z</time>
      </trkpt>
      <trkpt lat="49.91859" lon="2.10679">
        <ele>108.9</ele>
        <time>2022-08-10T09:23:34Z</time>
      </trkpt>
      <trkpt lat="49.91859" lon="2.10679">
        <ele>108.9</ele>
        <time>2022-08-10T09:23:35Z</time>
      </trkpt>
      <trkpt lat="49.91859" lon="2.10679">
        <ele>108.9</ele>
        <time>2022-08-10T09:23:36Z</time>
      </trkpt>
      <trkpt lat="49.91859" lon="2.10679">
        <ele>108.9</ele>
        <time>2022-08-10T09:23:37Z</time>
      </trkpt>
      <trkpt lat="49.91859" lon="2.10679">
        <ele>108.9</ele>
        <time>2022-08-10T09:23:38Z</time>
      </trkpt>
      <trkpt lat="49.91859" lon="2.10679">
        <ele>108.9</ele>
        <time>2022-08-10T09:23:39Z</time>
      </trkpt>
      <trkpt lat="49.91859" lon="2.10679">
        <ele>108.9</ele>
        <time>2022-08-10T09:23:40Z</time>
      </trkpt>
      <trkpt lat="49.91859" lon="2.10679">
        <ele>108.9</ele>
        <time>2022-08-10T09:23:41Z</time>
      </trkpt>
      <trkpt lat="49.91859" lon="2.10679">
        <ele>108.9</ele>
        <time>2022-08-10T09:23:42Z</time>
      </trkpt>
      <trkpt lat="49.91859" lon="2.10679">
        <ele>108.9</ele>
        <time>2022-08-10T09:23:43Z</time>
      </trkpt>
      <trkpt lat="49.91859" lon="2.10679">
        <ele>108.9</ele>
        <time>2022-08-10T09:23:44Z</time>
      </trkpt>
      <trkpt lat="49.91859" lon="2.10679">
        <ele>108.9</ele>
        <time>2022-08-10T09:23:45Z</time>
      </trkpt>
      <trkpt lat="49.91859" lon="2.10679">
        <ele>108.9</ele>
        <time>2022-08-10T09:23:46Z</time>
      </trkpt>
      <trkpt lat="49.91859" lon="2.10679">
        <ele>108.9</ele>
        <time>2022-08-10T09:23:47Z</time>
      </trkpt>
      <trkpt lat="49.91859" lon="2.10679">
        <ele>108.9</ele>
        <time>2022-08-10T09:23:48Z</time>
      </trkpt>
      <trkpt lat="49.91859" lon="2.10679">
        <ele>108.9</ele>
        <time>2022-08-10T09:23:49Z</time>
      </trkpt>
      <trkpt lat="49.91859" lon="2.10679">
        <ele>108.9</ele>
        <time>2022-08-10T09:23:50Z</time>
      </trkpt>
      <trkpt lat="49.91859" lon="2.10679">
        <ele>108.9</ele>
        <time>2022-08-10T09:23:51Z</time>
      </trkpt>
      <trkpt lat="49.91859" lon="2.10679">
        <ele>108.9</ele>
        <time>2022-08-10T09:23:52Z</time>
      </trkpt>
      <trkpt lat="49.91859" lon="2.10679">
        <ele>108.9</ele>
        <time>2022-08-10T09:23:53Z</time>
      </trkpt>
      <trkpt lat="49.91859" lon="2.10679">
        <ele>108.9</ele>
        <time>2022-08-10T09:23:54Z</time>
      </trkpt>
      <trkpt lat="49.91859" lon="2.10679">
        <ele>108.9</ele>
        <time>2022-08-10T09:23:55Z</time>
      </trkpt>
    </trkseg>
  </trk>
</gpx>